<?xml version='1.0' encoding='UTF-8'?><gpx version="1.1" creator="JPX - https://github.com/jenetics/jpx" xmlns="http://www.topografix.com/GPX/1/1"><trk><trkseg><trkpt lat="42.56578545416831" lon="11.430689428826625"><ele>70.0</ele><time>2026-04-30T09:01:07.001Z</time></trkpt><trkpt lat="42.566012274346924" lon="11.43086115237144"><ele>70.0</ele><time>2026-04-30T09:01:08.001Z</time></trkpt><trkpt lat="42.56624913823434" lon="11.43100105828679"><ele>71.0</ele><time>2026-04-30T09:01:09.001Z</time></trkpt><trkpt lat="42.5664795554999" lon="11.431094382908073"><ele>72.0</ele><time>2026-04-30T09:01:10.001Z</time></trkpt><trkpt lat="42.56673793229673" lon="11.431144303884043"><ele>72.0</ele><time>2026-04-30T09:01:11.001Z</time></trkpt><trkpt lat="42.566997118161666" lon="11.431134832621153"><ele>72.0</ele><time>2026-04-30T09:01:12.001Z</time></trkpt><trkpt lat="42.5672648241677" lon="11.43113757523582"><ele>72.5</ele><time>2026-04-30T09:01:13.001Z</time></trkpt><trkpt lat="42.56753602675148" lon="11.431157494365443"><ele>73.0</ele><time>2026-04-30T09:01:14.001Z</time></trkpt><trkpt lat="42.56781090918792" lon="11.431163755642377"><ele>73.0</ele><time>2026-04-30T09:01:15Z</time></trkpt><trkpt lat="42.5680860284087" lon="11.43118617194296"><ele>73.0</ele><time>2026-04-30T09:01:16Z</time></trkpt><trkpt lat="42.568363330255465" lon="11.431209110830348"><ele>73.0</ele><time>2026-04-30T09:01:17Z</time></trkpt><trkpt lat="42.56863047035321" lon="11.431221627530258"><ele>73.0</ele><time>2026-04-30T09:01:18Z</time></trkpt><trkpt lat="42.56888843020419" lon="11.43123903354215"><ele>74.0</ele><time>2026-04-30T09:01:19Z</time></trkpt><trkpt lat="42.56913221271916" lon="11.431270037009769"><ele>75.0</ele><time>2026-04-30T09:01:20Z</time></trkpt><trkpt lat="42.56934274568247" lon="11.431364069095864"><ele>75.0</ele><time>2026-04-30T09:01:21Z</time></trkpt><trkpt lat="42.569520954027304" lon="11.431504031848961"><ele>75.0</ele><time>2026-04-30T09:01:22Z</time></trkpt><trkpt lat="42.56970800375061" lon="11.431685367160881"><ele>75.0</ele><time>2026-04-30T09:01:23Z</time></trkpt><trkpt lat="42.569894029286466" lon="11.431869975148189"><ele>75.0</ele><time>2026-04-30T09:01:24Z</time></trkpt><trkpt lat="42.570079581702636" lon="11.4320565034969"><ele>75.0</ele><time>2026-04-30T09:01:25Z</time></trkpt><trkpt lat="42.57027441485401" lon="11.432251485540721"><ele>76.5</ele><time>2026-04-30T09:01:26Z</time></trkpt><trkpt lat="42.570467847712216" lon="11.432445906184467"><ele>78.0</ele><time>2026-04-30T09:01:27Z</time></trkpt><trkpt lat="42.570653047138215" lon="11.43265046531874"><ele>78.0</ele><time>2026-04-30T09:01:28Z</time></trkpt><trkpt lat="42.57082936631584" lon="11.432885159949318"><ele>78.0</ele><time>2026-04-30T09:01:29Z</time></trkpt><trkpt lat="42.57098757275871" lon="11.43313262077361"><ele>77.0</ele><time>2026-04-30T09:01:30Z</time></trkpt><trkpt lat="42.57114299812192" lon="11.43338056754577"><ele>76.0</ele><time>2026-04-30T09:01:31Z</time></trkpt><trkpt lat="42.571297848247696" lon="11.433627943788226"><ele>78.5</ele><time>2026-04-30T09:01:32Z</time></trkpt><trkpt lat="42.57144686815864" lon="11.43386427322805"><ele>81.0</ele><time>2026-04-30T09:01:33Z</time></trkpt><trkpt lat="42.57160355566141" lon="11.434112762698135"><ele>81.0</ele><time>2026-04-30T09:01:34Z</time></trkpt><trkpt lat="42.571757318305735" lon="11.434357213383496"><ele>81.0</ele><time>2026-04-30T09:01:35Z</time></trkpt><trkpt lat="42.571920697025554" lon="11.434591463662995"><ele>82.0</ele><time>2026-04-30T09:01:36Z</time></trkpt><trkpt lat="42.57206506404498" lon="11.434831325367188"><ele>83.0</ele><time>2026-04-30T09:01:37Z</time></trkpt><trkpt lat="42.57220405412709" lon="11.435048214310727"><ele>84.0</ele><time>2026-04-30T09:01:38Z</time></trkpt><trkpt lat="42.572331607136014" lon="11.435259619946862"><ele>84.0</ele><time>2026-04-30T09:01:39Z</time></trkpt><trkpt lat="42.572450825132165" lon="11.435457367735676"><ele>84.0</ele><time>2026-04-30T09:01:40Z</time></trkpt><trkpt lat="42.5725645895206" lon="11.435635433820568"><ele>84.0</ele><time>2026-04-30T09:01:41Z</time></trkpt><trkpt lat="42.57271240248353" lon="11.435787764060386"><ele>84.33333333333333</ele><time>2026-04-30T09:01:42Z</time></trkpt><trkpt lat="42.572870688178" lon="11.435813660132712"><ele>84.66666666666666</ele><time>2026-04-30T09:01:43Z</time></trkpt><trkpt lat="42.57302471867634" lon="11.43583787737418"><ele>85.0</ele><time>2026-04-30T09:01:44Z</time></trkpt><trkpt lat="42.57326436727855" lon="11.435850320950678"><ele>85.0</ele><time>2026-04-30T09:01:45Z</time></trkpt><trkpt lat="42.573412816956086" lon="11.435933312806183"><ele>85.0</ele><time>2026-04-30T09:01:46Z</time></trkpt><trkpt lat="42.5735411688121" lon="11.436099418570496"><ele>85.0</ele><time>2026-04-30T09:01:47Z</time></trkpt><trkpt lat="42.573641819573226" lon="11.436296568544124"><ele>86.33333333333333</ele><time>2026-04-30T09:01:48Z</time></trkpt><trkpt lat="42.57375645266258" lon="11.43650058116451"><ele>87.66666666666667</ele><time>2026-04-30T09:01:49Z</time></trkpt><trkpt lat="42.57386608557139" lon="11.436727275577361"><ele>89.0</ele><time>2026-04-30T09:01:50Z</time></trkpt><trkpt lat="42.57398650216773" lon="11.436950362260818"><ele>89.33333333333334</ele><time>2026-04-30T09:01:51Z</time></trkpt><trkpt lat="42.57408995131874" lon="11.437192905323085"><ele>89.66666666666667</ele><time>2026-04-30T09:01:52Z</time></trkpt><trkpt lat="42.574208006986304" lon="11.437428439927226"><ele>90.0</ele><time>2026-04-30T09:01:53Z</time></trkpt><trkpt lat="42.57433930125663" lon="11.437652124044352"><ele>90.0</ele><time>2026-04-30T09:01:54Z</time></trkpt><trkpt lat="42.57445855405662" lon="11.437891445595081"><ele>90.0</ele><time>2026-04-30T09:01:55Z</time></trkpt><trkpt lat="42.574578829598174" lon="11.438128829558028"><ele>90.0</ele><time>2026-04-30T09:01:56Z</time></trkpt><trkpt lat="42.57468306196048" lon="11.438376229126026"><ele>90.66666666666667</ele><time>2026-04-30T09:01:57Z</time></trkpt><trkpt lat="42.57481622251084" lon="11.438599098659749"><ele>91.33333333333334</ele><time>2026-04-30T09:01:58Z</time></trkpt><trkpt lat="42.574934671608034" lon="11.438831262414643"><ele>92.0</ele><time>2026-04-30T09:01:59Z</time></trkpt><trkpt lat="42.57505707877276" lon="11.439056805022272"><ele>92.66666666666667</ele><time>2026-04-30T09:02:00Z</time></trkpt><trkpt lat="42.57519554801125" lon="11.439256917387677"><ele>93.33333333333333</ele><time>2026-04-30T09:02:01Z</time></trkpt><trkpt lat="42.57535810847589" lon="11.439431807586212"><ele>94.0</ele><time>2026-04-30T09:02:02Z</time></trkpt><trkpt lat="42.57551355634276" lon="11.439608515611107"><ele>94.66666666666666</ele><time>2026-04-30T09:02:03Z</time></trkpt><trkpt lat="42.575665435577235" lon="11.439782589949221"><ele>95.33333333333333</ele><time>2026-04-30T09:02:04Z</time></trkpt><trkpt lat="42.57582278200914" lon="11.439963427584198"><ele>96.0</ele><time>2026-04-30T09:02:05Z</time></trkpt><trkpt lat="42.57598168537166" lon="11.44014386601773"><ele>96.0</ele><time>2026-04-30T09:02:06Z</time></trkpt><trkpt lat="42.576129542822954" lon="11.440318272260622"><ele>96.0</ele><time>2026-04-30T09:02:07Z</time></trkpt><trkpt lat="42.57626890926636" lon="11.440482218924824"><ele>96.0</ele><time>2026-04-30T09:02:08Z</time></trkpt><trkpt lat="42.57638852242684" lon="11.440663213972652"><ele>97.0</ele><time>2026-04-30T09:02:08.999Z</time></trkpt><trkpt lat="42.57648419925216" lon="11.440863417610084"><ele>98.0</ele><time>2026-04-30T09:02:09.999Z</time></trkpt><trkpt lat="42.57655711992355" lon="11.441084919223128"><ele>99.0</ele><time>2026-04-30T09:02:10.999Z</time></trkpt><trkpt lat="42.576609226874766" lon="11.441327299433132"><ele>99.0</ele><time>2026-04-30T09:02:11.999Z</time></trkpt><trkpt lat="42.576622074258594" lon="11.441560569638073"><ele>99.0</ele><time>2026-04-30T09:02:12.999Z</time></trkpt><trkpt lat="42.57660886383703" lon="11.441797539405375"><ele>99.0</ele><time>2026-04-30T09:02:13.999Z</time></trkpt><trkpt lat="42.576573994264244" lon="11.442016582701648"><ele>98.33333333333334</ele><time>2026-04-30T09:02:14.999Z</time></trkpt><trkpt lat="42.576543976924334" lon="11.442232813746198"><ele>97.66666666666667</ele><time>2026-04-30T09:02:15.999Z</time></trkpt><trkpt lat="42.57653112913796" lon="11.442451545178727"><ele>97.0</ele><time>2026-04-30T09:02:16.999Z</time></trkpt><trkpt lat="42.57652508363485" lon="11.442642615703638"><ele>97.0</ele><time>2026-04-30T09:02:17.999Z</time></trkpt><trkpt lat="42.57650505923665" lon="11.44281253856817"><ele>97.0</ele><time>2026-04-30T09:02:18.999Z</time></trkpt><trkpt lat="42.57646936461859" lon="11.44295254715605"><ele>97.0</ele><time>2026-04-30T09:02:19.999Z</time></trkpt><trkpt lat="42.57642038188361" lon="11.443072924634999"><ele>97.0</ele><time>2026-04-30T09:02:20.999Z</time></trkpt><trkpt lat="42.57637416045317" lon="11.443197076776462"><ele>97.0</ele><time>2026-04-30T09:02:21.999Z</time></trkpt><trkpt lat="42.57632803929082" lon="11.44330476426615"><ele>96.8</ele><time>2026-04-30T09:02:22.999Z</time></trkpt><trkpt lat="42.57626570038722" lon="11.443418187703124"><ele>96.6</ele><time>2026-04-30T09:02:23.999Z</time></trkpt><trkpt lat="42.5761825791741" lon="11.443522975083997"><ele>96.39999999999999</ele><time>2026-04-30T09:02:24.999Z</time></trkpt><trkpt lat="42.57609460296045" lon="11.443604683171829"><ele>96.19999999999999</ele><time>2026-04-30T09:02:25.999Z</time></trkpt><trkpt lat="42.57601180376337" lon="11.44365065088487"><ele>96.0</ele><time>2026-04-30T09:02:26.999Z</time></trkpt><trkpt lat="42.57594149913164" lon="11.443700862196325"><ele>96.0</ele><time>2026-04-30T09:02:27.999Z</time></trkpt><trkpt lat="42.57588184363992" lon="11.443747258816279"><ele>96.0</ele><time>2026-04-30T09:02:28.999Z</time></trkpt><trkpt lat="42.57579439164911" lon="11.443776464214286"><ele>96.0</ele><time>2026-04-30T09:02:30.999Z</time></trkpt><trkpt lat="42.5756861572027" lon="11.443752419642642"><ele>96.0</ele><time>2026-04-30T09:02:32.999Z</time></trkpt><trkpt lat="42.57562050977613" lon="11.443764313152816"><ele>96.0</ele><time>2026-04-30T09:02:33.999Z</time></trkpt><trkpt lat="42.5755452162673" lon="11.443784765056947"><ele>96.0</ele><time>2026-04-30T09:02:34.999Z</time></trkpt><trkpt lat="42.57547059764626" lon="11.44382404287014"><ele>96.8</ele><time>2026-04-30T09:02:35.999Z</time></trkpt><trkpt lat="42.57540674897123" lon="11.443914286494294"><ele>97.6</ele><time>2026-04-30T09:02:36.999Z</time></trkpt><trkpt lat="42.575375130413235" lon="11.444032911934645"><ele>98.4</ele><time>2026-04-30T09:02:37.999Z</time></trkpt><trkpt lat="42.57538950943143" lon="11.444171874967349"><ele>99.2</ele><time>2026-04-30T09:02:38.999Z</time></trkpt><trkpt lat="42.57541537005694" lon="11.44429566069507"><ele>100.0</ele><time>2026-04-30T09:02:39.999Z</time></trkpt><trkpt lat="42.57543116972751" lon="11.444430939656922"><ele>100.0</ele><time>2026-04-30T09:02:40.999Z</time></trkpt><trkpt lat="42.57540997705612" lon="11.444579301044076"><ele>100.0</ele><time>2026-04-30T09:02:41.999Z</time></trkpt><trkpt lat="42.57534782570068" lon="11.444729414625472"><ele>100.0</ele><time>2026-04-30T09:02:42.999Z</time></trkpt><trkpt lat="42.57528186695517" lon="11.444880435795648"><ele>100.0</ele><time>2026-04-30T09:02:43.999Z</time></trkpt><trkpt lat="42.57522038272635" lon="11.44503597894333"><ele>99.75</ele><time>2026-04-30T09:02:44.999Z</time></trkpt><trkpt lat="42.575165511111464" lon="11.445203243413593"><ele>99.5</ele><time>2026-04-30T09:02:45.999Z</time></trkpt><trkpt lat="42.57510931225611" lon="11.445381295348477"><ele>99.25</ele><time>2026-04-30T09:02:46.999Z</time></trkpt><trkpt lat="42.57504799804574" lon="11.445554771287238"><ele>99.0</ele><time>2026-04-30T09:02:47.999Z</time></trkpt><trkpt lat="42.57498408417665" lon="11.445727961346183"><ele>101.33333333333334</ele><time>2026-04-30T09:02:48.999Z</time></trkpt><trkpt lat="42.57491922473314" lon="11.445917879488059"><ele>103.66666666666667</ele><time>2026-04-30T09:02:49.999Z</time></trkpt><trkpt lat="42.57486333089601" lon="11.446111571378795"><ele>106.0</ele><time>2026-04-30T09:02:50.999Z</time></trkpt><trkpt lat="42.57481392123956" lon="11.446307876270698"><ele>109.33333333333334</ele><time>2026-04-30T09:02:51.999Z</time></trkpt><trkpt lat="42.57477017956583" lon="11.446523104804067"><ele>112.66666666666666</ele><time>2026-04-30T09:02:52.999Z</time></trkpt><trkpt lat="42.574726871226034" lon="11.446749550572775"><ele>116.0</ele><time>2026-04-30T09:02:53.999Z</time></trkpt><trkpt lat="42.57469115370649" lon="11.446990147861786"><ele>119.33333333333333</ele><time>2026-04-30T09:02:54.999Z</time></trkpt><trkpt lat="42.57465945084641" lon="11.447231831480726"><ele>122.66666666666666</ele><time>2026-04-30T09:02:55.999Z</time></trkpt><trkpt lat="42.5746242516872" lon="11.447492979362368"><ele>126.0</ele><time>2026-04-30T09:02:56.999Z</time></trkpt><trkpt lat="42.57457677891441" lon="11.447771027974833"><ele>124.33333333333334</ele><time>2026-04-30T09:02:57.999Z</time></trkpt><trkpt lat="42.57452866872072" lon="11.448051122791515"><ele>122.66666666666667</ele><time>2026-04-30T09:02:58.999Z</time></trkpt><trkpt lat="42.574485363466735" lon="11.448332692584087"><ele>121.0</ele><time>2026-04-30T09:02:59.999Z</time></trkpt><trkpt lat="42.574443429030765" lon="11.448619431937608"><ele>121.66666666666667</ele><time>2026-04-30T09:03:00.999Z</time></trkpt><trkpt lat="42.574398613467565" lon="11.448904346220024"><ele>122.33333333333334</ele><time>2026-04-30T09:03:01.999Z</time></trkpt><trkpt lat="42.57434797924672" lon="11.449171655298995"><ele>123.0</ele><time>2026-04-30T09:03:02.999Z</time></trkpt><trkpt lat="42.57429702832945" lon="11.44943683037314"><ele>125.33333333333334</ele><time>2026-04-30T09:03:04.001Z</time></trkpt><trkpt lat="42.57425777250372" lon="11.449701259109519"><ele>127.66666666666667</ele><time>2026-04-30T09:03:05.001Z</time></trkpt><trkpt lat="42.574227333315505" lon="11.449970721986647"><ele>130.0</ele><time>2026-04-30T09:03:06.001Z</time></trkpt><trkpt lat="42.574207339923106" lon="11.450239796514554"><ele>131.33333333333334</ele><time>2026-04-30T09:03:07.001Z</time></trkpt><trkpt lat="42.574199025008824" lon="11.45050455766447"><ele>132.66666666666666</ele><time>2026-04-30T09:03:08.001Z</time></trkpt><trkpt lat="42.57419441530539" lon="11.450762963338954"><ele>134.0</ele><time>2026-04-30T09:03:09.001Z</time></trkpt><trkpt lat="42.574197630732" lon="11.451019470007227"><ele>134.0</ele><time>2026-04-30T09:03:10.001Z</time></trkpt><trkpt lat="42.57420593703074" lon="11.451261761450569"><ele>134.0</ele><time>2026-04-30T09:03:11.001Z</time></trkpt><trkpt lat="42.57423825531493" lon="11.45149578113312"><ele>134.0</ele><time>2026-04-30T09:03:12.001Z</time></trkpt><trkpt lat="42.57429369062008" lon="11.451735094655845"><ele>135.0</ele><time>2026-04-30T09:03:13.001Z</time></trkpt><trkpt lat="42.57436038754283" lon="11.451974723293212"><ele>136.0</ele><time>2026-04-30T09:03:14.001Z</time></trkpt><trkpt lat="42.57444180209718" lon="11.452218974163408"><ele>137.0</ele><time>2026-04-30T09:03:15.001Z</time></trkpt><trkpt lat="42.57454606824946" lon="11.452446991913575"><ele>140.0</ele><time>2026-04-30T09:03:16.001Z</time></trkpt><trkpt lat="42.574690056093175" lon="11.452667027101922"><ele>143.0</ele><time>2026-04-30T09:03:17.001Z</time></trkpt><trkpt lat="42.5748093151035" lon="11.452895550498276"><ele>146.0</ele><time>2026-04-30T09:03:18.001Z</time></trkpt><trkpt lat="42.574931455862135" lon="11.453115850290986"><ele>146.0</ele><time>2026-04-30T09:03:19.001Z</time></trkpt><trkpt lat="42.57504690461855" lon="11.453331211966436"><ele>146.0</ele><time>2026-04-30T09:03:20Z</time></trkpt><trkpt lat="42.575153444025844" lon="11.453570513967117"><ele>146.0</ele><time>2026-04-30T09:03:21Z</time></trkpt><trkpt lat="42.575248480656825" lon="11.453809880949256"><ele>148.33333333333331</ele><time>2026-04-30T09:03:22Z</time></trkpt><trkpt lat="42.57531140618441" lon="11.454075068915204"><ele>150.66666666666666</ele><time>2026-04-30T09:03:23Z</time></trkpt><trkpt lat="42.57535160287227" lon="11.454348841383176"><ele>153.0</ele><time>2026-04-30T09:03:24Z</time></trkpt><trkpt lat="42.57535708989527" lon="11.454623084292013"><ele>155.0</ele><time>2026-04-30T09:03:25Z</time></trkpt><trkpt lat="42.57534954081853" lon="11.45490606234609"><ele>157.0</ele><time>2026-04-30T09:03:26Z</time></trkpt><trkpt lat="42.57531736405675" lon="11.455185991202029"><ele>159.0</ele><time>2026-04-30T09:03:27Z</time></trkpt><trkpt lat="42.57526105568156" lon="11.455461559001572"><ele>159.66666666666666</ele><time>2026-04-30T09:03:28Z</time></trkpt><trkpt lat="42.5751770680977" lon="11.455737865771036"><ele>160.33333333333331</ele><time>2026-04-30T09:03:29Z</time></trkpt><trkpt lat="42.57506747498049" lon="11.45600216497429"><ele>161.0</ele><time>2026-04-30T09:03:30Z</time></trkpt><trkpt lat="42.57492756206498" lon="11.456243078693678"><ele>161.0</ele><time>2026-04-30T09:03:31Z</time></trkpt><trkpt lat="42.57477328279769" lon="11.45647150096186"><ele>161.0</ele><time>2026-04-30T09:03:32Z</time></trkpt><trkpt lat="42.57460656612423" lon="11.456670491443552"><ele>163.66666666666666</ele><time>2026-04-30T09:03:33Z</time></trkpt><trkpt lat="42.57443560339967" lon="11.456857537442856"><ele>166.33333333333334</ele><time>2026-04-30T09:03:34Z</time></trkpt><trkpt lat="42.57426738364721" lon="11.457043174221967"><ele>169.0</ele><time>2026-04-30T09:03:35Z</time></trkpt><trkpt lat="42.57407432770711" lon="11.457240419918639"><ele>169.0</ele><time>2026-04-30T09:03:36Z</time></trkpt><trkpt lat="42.57389314585385" lon="11.45744606987228"><ele>169.0</ele><time>2026-04-30T09:03:37Z</time></trkpt><trkpt lat="42.57371026482259" lon="11.45765002163051"><ele>166.0</ele><time>2026-04-30T09:03:38Z</time></trkpt><trkpt lat="42.57352460008914" lon="11.45786001693169"><ele>163.0</ele><time>2026-04-30T09:03:39Z</time></trkpt><trkpt lat="42.573338540073216" lon="11.45808154094168"><ele>163.0</ele><time>2026-04-30T09:03:40Z</time></trkpt><trkpt lat="42.573170898205234" lon="11.458326599928474"><ele>163.0</ele><time>2026-04-30T09:03:41Z</time></trkpt><trkpt lat="42.573025042338635" lon="11.458590031160048"><ele>163.5</ele><time>2026-04-30T09:03:42Z</time></trkpt><trkpt lat="42.57290224643861" lon="11.458877997138686"><ele>164.0</ele><time>2026-04-30T09:03:43Z</time></trkpt><trkpt lat="42.57280577484632" lon="11.459184314614731"><ele>157.0</ele><time>2026-04-30T09:03:44Z</time></trkpt><trkpt lat="42.57272078155079" lon="11.459506134487311"><ele>150.0</ele><time>2026-04-30T09:03:45Z</time></trkpt><trkpt lat="42.5726494256401" lon="11.459835456526877"><ele>150.5</ele><time>2026-04-30T09:03:46Z</time></trkpt><trkpt lat="42.57257836178436" lon="11.46016323520872"><ele>151.0</ele><time>2026-04-30T09:03:47Z</time></trkpt><trkpt lat="42.57250218681669" lon="11.46048859931681"><ele>151.0</ele><time>2026-04-30T09:03:48Z</time></trkpt><trkpt lat="42.57241913189529" lon="11.460806654517823"><ele>151.0</ele><time>2026-04-30T09:03:49Z</time></trkpt><trkpt lat="42.57233541689706" lon="11.46112374696187"><ele>156.0</ele><time>2026-04-30T09:03:50Z</time></trkpt><trkpt lat="42.572254614164784" lon="11.461432318132522"><ele>161.0</ele><time>2026-04-30T09:03:51Z</time></trkpt><trkpt lat="42.572173689375475" lon="11.461739013943188"><ele>161.0</ele><time>2026-04-30T09:03:52Z</time></trkpt><trkpt lat="42.57209811221869" lon="11.462040150682816"><ele>161.0</ele><time>2026-04-30T09:03:53Z</time></trkpt><trkpt lat="42.57203835368159" lon="11.462344018633647"><ele>159.0</ele><time>2026-04-30T09:03:54Z</time></trkpt><trkpt lat="42.57195957722366" lon="11.462642226468203"><ele>157.0</ele><time>2026-04-30T09:03:55Z</time></trkpt><trkpt lat="42.57198185966725" lon="11.462973435955007"><ele>157.0</ele><time>2026-04-30T09:03:56Z</time></trkpt><trkpt lat="42.57198966926849" lon="11.463293724192361"><ele>157.0</ele><time>2026-04-30T09:03:57Z</time></trkpt><trkpt lat="42.572016767148995" lon="11.463616015698127"><ele>166.5</ele><time>2026-04-30T09:03:58Z</time></trkpt><trkpt lat="42.57205765423293" lon="11.463935634392849"><ele>176.0</ele><time>2026-04-30T09:03:59Z</time></trkpt><trkpt lat="42.57210143807448" lon="11.464255022362172"><ele>176.0</ele><time>2026-04-30T09:04:00Z</time></trkpt><trkpt lat="42.572142869619185" lon="11.46457256112277"><ele>176.0</ele><time>2026-04-30T09:04:01Z</time></trkpt><trkpt lat="42.572182173270036" lon="11.464898616166328"><ele>173.5</ele><time>2026-04-30T09:04:02Z</time></trkpt><trkpt lat="42.5722161052628" lon="11.465220838309829"><ele>171.0</ele><time>2026-04-30T09:04:03Z</time></trkpt><trkpt lat="42.57225163939955" lon="11.465545274061977"><ele>171.0</ele><time>2026-04-30T09:04:04Z</time></trkpt><trkpt lat="42.57228452929441" lon="11.465864782456093"><ele>171.0</ele><time>2026-04-30T09:04:05Z</time></trkpt><trkpt lat="42.57231020520082" lon="11.466187304040254"><ele>173.5</ele><time>2026-04-30T09:04:06Z</time></trkpt><trkpt lat="42.57232992436154" lon="11.466510786831789"><ele>176.0</ele><time>2026-04-30T09:04:07Z</time></trkpt><trkpt lat="42.57234265107167" lon="11.466829314837652"><ele>179.0</ele><time>2026-04-30T09:04:07.999Z</time></trkpt><trkpt lat="42.57236205297531" lon="11.46715367254321"><ele>182.0</ele><time>2026-04-30T09:04:08.999Z</time></trkpt><trkpt lat="42.572389877533446" lon="11.46746988981002"><ele>182.0</ele><time>2026-04-30T09:04:09.999Z</time></trkpt><trkpt lat="42.57241158841637" lon="11.467771109760934"><ele>182.0</ele><time>2026-04-30T09:04:10.999Z</time></trkpt><trkpt lat="42.57240926291437" lon="11.468061248570153"><ele>182.0</ele><time>2026-04-30T09:04:11.999Z</time></trkpt><trkpt lat="42.572376400433846" lon="11.468351335014036"><ele>184.66666666666666</ele><time>2026-04-30T09:04:12.999Z</time></trkpt><trkpt lat="42.57231121087292" lon="11.46862494699888"><ele>187.33333333333334</ele><time>2026-04-30T09:04:13.999Z</time></trkpt><trkpt lat="42.5722513463193" lon="11.46886881125166"><ele>190.0</ele><time>2026-04-30T09:04:14.999Z</time></trkpt><trkpt lat="42.572240628567805" lon="11.469092018809802"><ele>190.0</ele><time>2026-04-30T09:04:15.999Z</time></trkpt><trkpt lat="42.572260960773484" lon="11.46934170338328"><ele>190.0</ele><time>2026-04-30T09:04:16.999Z</time></trkpt><trkpt lat="42.57232789061969" lon="11.469532018936153"><ele>190.0</ele><time>2026-04-30T09:04:17.999Z</time></trkpt><trkpt lat="42.57242744557289" lon="11.46973001453808"><ele>190.0</ele><time>2026-04-30T09:04:18.999Z</time></trkpt><trkpt lat="42.572530440111244" lon="11.469879136162021"><ele>190.0</ele><time>2026-04-30T09:04:19.999Z</time></trkpt><trkpt lat="42.57264131936454" lon="11.46999966214474"><ele>190.0</ele><time>2026-04-30T09:04:20.999Z</time></trkpt><trkpt lat="42.572741352332876" lon="11.470127511945986"><ele>190.0</ele><time>2026-04-30T09:04:21.999Z</time></trkpt><trkpt lat="42.57283373578822" lon="11.47026839291143"><ele>192.75</ele><time>2026-04-30T09:04:22.999Z</time></trkpt><trkpt lat="42.57296238027032" lon="11.470374461409797"><ele>195.5</ele><time>2026-04-30T09:04:23.999Z</time></trkpt><trkpt lat="42.57306777222296" lon="11.470491389014885"><ele>198.25</ele><time>2026-04-30T09:04:24.999Z</time></trkpt><trkpt lat="42.5731278511135" lon="11.470619319910176"><ele>201.0</ele><time>2026-04-30T09:04:25.999Z</time></trkpt><trkpt lat="42.573198035396224" lon="11.470774024092412"><ele>201.0</ele><time>2026-04-30T09:04:26.999Z</time></trkpt><trkpt lat="42.573248926327686" lon="11.470938613508803"><ele>201.0</ele><time>2026-04-30T09:04:27.999Z</time></trkpt><trkpt lat="42.57333069388683" lon="11.47111413995075"><ele>201.0</ele><time>2026-04-30T09:04:28.999Z</time></trkpt><trkpt lat="42.573429095448894" lon="11.471254012612787"><ele>201.0</ele><time>2026-04-30T09:04:29.999Z</time></trkpt><trkpt lat="42.57355169701587" lon="11.471368065221661"><ele>199.66666666666669</ele><time>2026-04-30T09:04:30.999Z</time></trkpt><trkpt lat="42.57367360054941" lon="11.471467392382056"><ele>198.33333333333334</ele><time>2026-04-30T09:04:31.999Z</time></trkpt><trkpt lat="42.573838607012824" lon="11.471537351972103"><ele>197.0</ele><time>2026-04-30T09:04:32.999Z</time></trkpt><trkpt lat="42.57398159469057" lon="11.47166781901134"><ele>200.66666666666669</ele><time>2026-04-30T09:04:33.999Z</time></trkpt><trkpt lat="42.57408977018582" lon="11.471833567745614"><ele>204.33333333333331</ele><time>2026-04-30T09:04:34.999Z</time></trkpt><trkpt lat="42.57420038693149" lon="11.47200788549445"><ele>208.0</ele><time>2026-04-30T09:04:35.999Z</time></trkpt><trkpt lat="42.57429087848752" lon="11.472208765949484"><ele>208.0</ele><time>2026-04-30T09:04:36.999Z</time></trkpt><trkpt lat="42.574393764152504" lon="11.472405169446251"><ele>208.0</ele><time>2026-04-30T09:04:37.999Z</time></trkpt><trkpt lat="42.574490816320285" lon="11.472600158814432"><ele>208.0</ele><time>2026-04-30T09:04:38.999Z</time></trkpt><trkpt lat="42.57461123083096" lon="11.472788867663123"><ele>211.0</ele><time>2026-04-30T09:04:39.999Z</time></trkpt><trkpt lat="42.57474093721119" lon="11.472965142161865"><ele>214.0</ele><time>2026-04-30T09:04:40.999Z</time></trkpt><trkpt lat="42.57486754098364" lon="11.473138902638016"><ele>217.0</ele><time>2026-04-30T09:04:41.999Z</time></trkpt><trkpt lat="42.5750049312171" lon="11.473298366941398"><ele>217.0</ele><time>2026-04-30T09:04:42.999Z</time></trkpt><trkpt lat="42.57514725302566" lon="11.473426474853161"><ele>217.0</ele><time>2026-04-30T09:04:43.999Z</time></trkpt><trkpt lat="42.575291165459575" lon="11.473533348505052"><ele>217.0</ele><time>2026-04-30T09:04:44.999Z</time></trkpt><trkpt lat="42.57542830647947" lon="11.473651315083968"><ele>220.33333333333331</ele><time>2026-04-30T09:04:45.999Z</time></trkpt><trkpt lat="42.57555938216955" lon="11.473785245677258"><ele>223.66666666666669</ele><time>2026-04-30T09:04:46.999Z</time></trkpt><trkpt lat="42.57565540899003" lon="11.47394178127979"><ele>227.0</ele><time>2026-04-30T09:04:47.999Z</time></trkpt><trkpt lat="42.575730792450216" lon="11.474141362580987"><ele>227.0</ele><time>2026-04-30T09:04:48.999Z</time></trkpt><trkpt lat="42.57579978298517" lon="11.474362734538426"><ele>227.0</ele><time>2026-04-30T09:04:49.999Z</time></trkpt><trkpt lat="42.57585327161135" lon="11.474589521959997"><ele>227.0</ele><time>2026-04-30T09:04:50.999Z</time></trkpt><trkpt lat="42.57590352637909" lon="11.47483583088674"><ele>227.66666666666669</ele><time>2026-04-30T09:04:51.999Z</time></trkpt><trkpt lat="42.57596953906175" lon="11.475084818007533"><ele>228.33333333333331</ele><time>2026-04-30T09:04:52.999Z</time></trkpt><trkpt lat="42.57604647412113" lon="11.475337577445035"><ele>229.0</ele><time>2026-04-30T09:04:53.999Z</time></trkpt><trkpt lat="42.57612576614749" lon="11.47559647587198"><ele>232.33333333333331</ele><time>2026-04-30T09:04:54.999Z</time></trkpt><trkpt lat="42.57619960795881" lon="11.475863589042296"><ele>235.66666666666669</ele><time>2026-04-30T09:04:55.999Z</time></trkpt><trkpt lat="42.57627722944588" lon="11.476134563908062"><ele>239.0</ele><time>2026-04-30T09:04:56.999Z</time></trkpt><trkpt lat="42.57635206774407" lon="11.476398929182034"><ele>239.0</ele><time>2026-04-30T09:04:57.999Z</time></trkpt><trkpt lat="42.5764279512402" lon="11.47666176652274"><ele>239.0</ele><time>2026-04-30T09:04:58.999Z</time></trkpt><trkpt lat="42.57650007861245" lon="11.47692292913861"><ele>239.0</ele><time>2026-04-30T09:04:59.999Z</time></trkpt><trkpt lat="42.57655811829663" lon="11.477203672066528"><ele>238.0</ele><time>2026-04-30T09:05:00.999Z</time></trkpt><trkpt lat="42.57659528798778" lon="11.477480690083373"><ele>237.0</ele><time>2026-04-30T09:05:01.999Z</time></trkpt><trkpt lat="42.57661754435569" lon="11.477788148337433"><ele>236.0</ele><time>2026-04-30T09:05:02.999Z</time></trkpt><trkpt lat="42.576615099363295" lon="11.478092803424717"><ele>235.5</ele><time>2026-04-30T09:05:03.999Z</time></trkpt><trkpt lat="42.57664968750687" lon="11.47839440262325"><ele>235.0</ele><time>2026-04-30T09:05:04.998Z</time></trkpt><trkpt lat="42.576672984042034" lon="11.478702261945617"><ele>237.5</ele><time>2026-04-30T09:05:05.998Z</time></trkpt><trkpt lat="42.5766830006548" lon="11.479018435612172"><ele>240.0</ele><time>2026-04-30T09:05:06.998Z</time></trkpt><trkpt lat="42.576704633766866" lon="11.479329959025108"><ele>242.5</ele><time>2026-04-30T09:05:07.998Z</time></trkpt><trkpt lat="42.576726250117574" lon="11.479641241068373"><ele>245.0</ele><time>2026-04-30T09:05:08.998Z</time></trkpt><trkpt lat="42.57674806228923" lon="11.4799537385134"><ele>245.0</ele><time>2026-04-30T09:05:10.001Z</time></trkpt><trkpt lat="42.57678172069698" lon="11.48026019064162"><ele>245.0</ele><time>2026-04-30T09:05:11.001Z</time></trkpt><trkpt lat="42.5768064782225" lon="11.480570617021872"><ele>245.5</ele><time>2026-04-30T09:05:12Z</time></trkpt><trkpt lat="42.57683662663889" lon="11.480875669396317"><ele>246.0</ele><time>2026-04-30T09:05:13.001Z</time></trkpt><trkpt lat="42.576883123446514" lon="11.481181655083502"><ele>245.5</ele><time>2026-04-30T09:05:14.001Z</time></trkpt><trkpt lat="42.57694413062693" lon="11.48147811634139"><ele>245.0</ele><time>2026-04-30T09:05:15Z</time></trkpt><trkpt lat="42.57701392421252" lon="11.481776544026314"><ele>245.5</ele><time>2026-04-30T09:05:16Z</time></trkpt><trkpt lat="42.57709789836272" lon="11.482067372120314"><ele>246.0</ele><time>2026-04-30T09:05:17Z</time></trkpt><trkpt lat="42.577184915886875" lon="11.482359021723441"><ele>247.5</ele><time>2026-04-30T09:05:18Z</time></trkpt><trkpt lat="42.577269216116264" lon="11.482653148186317"><ele>249.0</ele><time>2026-04-30T09:05:19Z</time></trkpt><trkpt lat="42.57734906054624" lon="11.48294494628363"><ele>251.5</ele><time>2026-04-30T09:05:20Z</time></trkpt><trkpt lat="42.57742630926342" lon="11.483237266936094"><ele>254.0</ele><time>2026-04-30T09:05:21Z</time></trkpt><trkpt lat="42.577504427523785" lon="11.48352783171394"><ele>254.0</ele><time>2026-04-30T09:05:22Z</time></trkpt><trkpt lat="42.5775859429854" lon="11.48381575799714"><ele>254.0</ele><time>2026-04-30T09:05:23Z</time></trkpt><trkpt lat="42.57766883271581" lon="11.48410171705627"><ele>254.0</ele><time>2026-04-30T09:05:24Z</time></trkpt><trkpt lat="42.57774930383851" lon="11.48439090437095"><ele>254.0</ele><time>2026-04-30T09:05:25Z</time></trkpt><trkpt lat="42.57782826157573" lon="11.484677505778674"><ele>255.0</ele><time>2026-04-30T09:05:26Z</time></trkpt><trkpt lat="42.57790578933582" lon="11.484969615664035"><ele>256.0</ele><time>2026-04-30T09:05:27Z</time></trkpt><trkpt lat="42.57798170899893" lon="11.485257136734866"><ele>255.0</ele><time>2026-04-30T09:05:28Z</time></trkpt><trkpt lat="42.578059860204746" lon="11.485546926587459"><ele>254.0</ele><time>2026-04-30T09:05:29Z</time></trkpt><trkpt lat="42.578118156289555" lon="11.485840218550758"><ele>254.0</ele><time>2026-04-30T09:05:30Z</time></trkpt><trkpt lat="42.578204443634654" lon="11.486123073769503"><ele>254.0</ele><time>2026-04-30T09:05:31Z</time></trkpt><trkpt lat="42.57827487557319" lon="11.486413153527053"><ele>253.5</ele><time>2026-04-30T09:05:32Z</time></trkpt><trkpt lat="42.57835697585001" lon="11.4867104177922"><ele>253.0</ele><time>2026-04-30T09:05:33Z</time></trkpt><trkpt lat="42.57845064063692" lon="11.487008497443442"><ele>251.5</ele><time>2026-04-30T09:05:34Z</time></trkpt><trkpt lat="42.57856524144612" lon="11.487310696599284"><ele>250.0</ele><time>2026-04-30T09:05:35Z</time></trkpt><trkpt lat="42.57866618091109" lon="11.487622268583587"><ele>250.0</ele><time>2026-04-30T09:05:36Z</time></trkpt><trkpt lat="42.57877692377443" lon="11.48793162107256"><ele>250.0</ele><time>2026-04-30T09:05:37Z</time></trkpt><trkpt lat="42.57888806915094" lon="11.48824212772665"><ele>250.0</ele><time>2026-04-30T09:05:38Z</time></trkpt><trkpt lat="42.57900034942107" lon="11.488555822160865"><ele>250.0</ele><time>2026-04-30T09:05:39Z</time></trkpt><trkpt lat="42.57911263002901" lon="11.488870023277512"><ele>249.0</ele><time>2026-04-30T09:05:40Z</time></trkpt><trkpt lat="42.57922495983258" lon="11.48918688890423"><ele>248.0</ele><time>2026-04-30T09:05:41Z</time></trkpt><trkpt lat="42.57933649180069" lon="11.489493948544963"><ele>250.0</ele><time>2026-04-30T09:05:42Z</time></trkpt><trkpt lat="42.57944004629839" lon="11.489828269959167"><ele>252.0</ele><time>2026-04-30T09:05:43Z</time></trkpt><trkpt lat="42.57953194246632" lon="11.490126770556506"><ele>252.0</ele><time>2026-04-30T09:05:44Z</time></trkpt><trkpt lat="42.57962278434058" lon="11.490413415738187"><ele>252.0</ele><time>2026-04-30T09:05:45Z</time></trkpt><trkpt lat="42.57970751025479" lon="11.490684819826416"><ele>252.0</ele><time>2026-04-30T09:05:46Z</time></trkpt><trkpt lat="42.579787383259095" lon="11.490956437714168"><ele>250.33333333333331</ele><time>2026-04-30T09:05:47Z</time></trkpt><trkpt lat="42.579873841336735" lon="11.491211247050074"><ele>248.66666666666666</ele><time>2026-04-30T09:05:48Z</time></trkpt><trkpt lat="42.57998639253333" lon="11.491472216855307"><ele>247.0</ele><time>2026-04-30T09:05:49Z</time></trkpt><trkpt lat="42.58012530647857" lon="11.491714006152193"><ele>245.66666666666666</ele><time>2026-04-30T09:05:50Z</time></trkpt><trkpt lat="42.58028747361851" lon="11.491885925737474"><ele>244.33333333333331</ele><time>2026-04-30T09:05:51Z</time></trkpt><trkpt lat="42.58046350487679" lon="11.492042373825843"><ele>243.0</ele><time>2026-04-30T09:05:52Z</time></trkpt><trkpt lat="42.580636043956" lon="11.492162779733059"><ele>245.66666666666669</ele><time>2026-04-30T09:05:53Z</time></trkpt><trkpt lat="42.580815508147374" lon="11.49225338574227"><ele>248.33333333333334</ele><time>2026-04-30T09:05:54Z</time></trkpt><trkpt lat="42.58096341495851" lon="11.492346255461564"><ele>251.0</ele><time>2026-04-30T09:05:55Z</time></trkpt><trkpt lat="42.58107899682533" lon="11.49244604137838"><ele>251.0</ele><time>2026-04-30T09:05:56Z</time></trkpt><trkpt lat="42.58117038562578" lon="11.49256638694884"><ele>251.0</ele><time>2026-04-30T09:05:57Z</time></trkpt><trkpt lat="42.58123641454839" lon="11.492731329556921"><ele>251.0</ele><time>2026-04-30T09:05:58Z</time></trkpt><trkpt lat="42.581281171804655" lon="11.492889485944387"><ele>251.0</ele><time>2026-04-30T09:05:59Z</time></trkpt><trkpt lat="42.581316397960435" lon="11.493033383605999"><ele>255.0</ele><time>2026-04-30T09:06:00Z</time></trkpt><trkpt lat="42.5813278866363" lon="11.493269919997495"><ele>259.0</ele><time>2026-04-30T09:06:01Z</time></trkpt><trkpt lat="42.58130209717425" lon="11.493538223160732"><ele>263.0</ele><time>2026-04-30T09:06:02Z</time></trkpt><trkpt lat="42.58135681159488" lon="11.493793139424751"><ele>263.0</ele><time>2026-04-30T09:06:03Z</time></trkpt><trkpt lat="42.581437446953025" lon="11.494038750262355"><ele>263.0</ele><time>2026-04-30T09:06:04Z</time></trkpt><trkpt lat="42.58154497929193" lon="11.494243316691623"><ele>263.0</ele><time>2026-04-30T09:06:05Z</time></trkpt><trkpt lat="42.58172650349583" lon="11.49441745013267"><ele>262.6666666666667</ele><time>2026-04-30T09:06:06Z</time></trkpt><trkpt lat="42.58186899682412" lon="11.494616485050326"><ele>262.3333333333333</ele><time>2026-04-30T09:06:07Z</time></trkpt><trkpt lat="42.581997502623004" lon="11.494827056257188"><ele>262.0</ele><time>2026-04-30T09:06:08Z</time></trkpt><trkpt lat="42.58212272704844" lon="11.495047956235863"><ele>263.3333333333333</ele><time>2026-04-30T09:06:09Z</time></trkpt><trkpt lat="42.58225626914075" lon="11.49525906637127"><ele>264.6666666666667</ele><time>2026-04-30T09:06:10Z</time></trkpt><trkpt lat="42.582376310510035" lon="11.49548722186585"><ele>266.0</ele><time>2026-04-30T09:06:11Z</time></trkpt><trkpt lat="42.58247818095985" lon="11.49573511620242"><ele>266.0</ele><time>2026-04-30T09:06:12Z</time></trkpt><trkpt lat="42.58259060785019" lon="11.495954729224666"><ele>266.0</ele><time>2026-04-30T09:06:12.999Z</time></trkpt><trkpt lat="42.58272904000479" lon="11.496141424349739"><ele>266.0</ele><time>2026-04-30T09:06:13.999Z</time></trkpt><trkpt lat="42.58290528469112" lon="11.49626654308287"><ele>267.33333333333337</ele><time>2026-04-30T09:06:14.999Z</time></trkpt><trkpt lat="42.58310128251784" lon="11.496351811392607"><ele>268.6666666666667</ele><time>2026-04-30T09:06:15.999Z</time></trkpt><trkpt lat="42.583288911487365" lon="11.496388188027783"><ele>270.0</ele><time>2026-04-30T09:06:16.999Z</time></trkpt><trkpt lat="42.58346270876596" lon="11.496401351060257"><ele>270.0</ele><time>2026-04-30T09:06:17.999Z</time></trkpt><trkpt lat="42.58363122336161" lon="11.496442290612707"><ele>270.0</ele><time>2026-04-30T09:06:18.999Z</time></trkpt><trkpt lat="42.5837885095671" lon="11.49651225827359"><ele>270.0</ele><time>2026-04-30T09:06:19.999Z</time></trkpt><trkpt lat="42.58393354387548" lon="11.496631829941071"><ele>270.6666666666667</ele><time>2026-04-30T09:06:20.999Z</time></trkpt><trkpt lat="42.58407347125771" lon="11.49675954369936"><ele>271.33333333333337</ele><time>2026-04-30T09:06:21.999Z</time></trkpt><trkpt lat="42.584227652238006" lon="11.496909389842928"><ele>272.0</ele><time>2026-04-30T09:06:22.999Z</time></trkpt><trkpt lat="42.58439125107555" lon="11.497037566012573"><ele>272.6666666666667</ele><time>2026-04-30T09:06:23.999Z</time></trkpt><trkpt lat="42.58455621940983" lon="11.497161694932563"><ele>273.3333333333333</ele><time>2026-04-30T09:06:24.999Z</time></trkpt><trkpt lat="42.584722946861774" lon="11.497283040134784"><ele>274.0</ele><time>2026-04-30T09:06:25.999Z</time></trkpt><trkpt lat="42.584894458066756" lon="11.497398204557744"><ele>274.0</ele><time>2026-04-30T09:06:26.999Z</time></trkpt><trkpt lat="42.58508534432213" lon="11.497496666329308"><ele>274.0</ele><time>2026-04-30T09:06:27.999Z</time></trkpt><trkpt lat="42.58527703336586" lon="11.497552883917834"><ele>274.0</ele><time>2026-04-30T09:06:28.999Z</time></trkpt><trkpt lat="42.5854766831706" lon="11.497622204607856"><ele>275.66666666666663</ele><time>2026-04-30T09:06:29.999Z</time></trkpt><trkpt lat="42.58567267206712" lon="11.497695671413561"><ele>277.3333333333333</ele><time>2026-04-30T09:06:30.999Z</time></trkpt><trkpt lat="42.58587061148115" lon="11.497780398497284"><ele>279.0</ele><time>2026-04-30T09:06:31.999Z</time></trkpt><trkpt lat="42.58606737486252" lon="11.497862261541357"><ele>279.3333333333333</ele><time>2026-04-30T09:06:32.999Z</time></trkpt><trkpt lat="42.586263084980565" lon="11.497942042247438"><ele>279.66666666666663</ele><time>2026-04-30T09:06:33.999Z</time></trkpt><trkpt lat="42.58645818441542" lon="11.498035661860339"><ele>280.0</ele><time>2026-04-30T09:06:34.999Z</time></trkpt><trkpt lat="42.58664467325275" lon="11.498148902904827"><ele>280.0</ele><time>2026-04-30T09:06:35.999Z</time></trkpt><trkpt lat="42.58682953052251" lon="11.498272212833607"><ele>280.0</ele><time>2026-04-30T09:06:36.999Z</time></trkpt><trkpt lat="42.58701370078869" lon="11.498395444904304"><ele>280.0</ele><time>2026-04-30T09:06:37.999Z</time></trkpt><trkpt lat="42.58720226675033" lon="11.498521207457653"><ele>280.0</ele><time>2026-04-30T09:06:38.999Z</time></trkpt><trkpt lat="42.58738395811112" lon="11.498649616668434"><ele>280.0</ele><time>2026-04-30T09:06:39.999Z</time></trkpt><trkpt lat="42.58757355841211" lon="11.498775720511219"><ele>280.0</ele><time>2026-04-30T09:06:40.999Z</time></trkpt><trkpt lat="42.587761056415594" lon="11.498901418835272"><ele>282.66666666666663</ele><time>2026-04-30T09:06:41.999Z</time></trkpt><trkpt lat="42.58793332381428" lon="11.499047672159119"><ele>285.3333333333333</ele><time>2026-04-30T09:06:42.999Z</time></trkpt><trkpt lat="42.58808968591156" lon="11.499221375676035"><ele>288.0</ele><time>2026-04-30T09:06:43.999Z</time></trkpt><trkpt lat="42.58823873067223" lon="11.499430379678888"><ele>287.6666666666667</ele><time>2026-04-30T09:06:44.999Z</time></trkpt><trkpt lat="42.58836921173328" lon="11.499625615412974"><ele>287.33333333333337</ele><time>2026-04-30T09:06:45.999Z</time></trkpt><trkpt lat="42.588491285359304" lon="11.49982691469053"><ele>287.0</ele><time>2026-04-30T09:06:46.999Z</time></trkpt><trkpt lat="42.588602320302314" lon="11.500036577307773"><ele>289.33333333333337</ele><time>2026-04-30T09:06:47.999Z</time></trkpt><trkpt lat="42.58870452495295" lon="11.500250838826929"><ele>291.6666666666667</ele><time>2026-04-30T09:06:48.999Z</time></trkpt><trkpt lat="42.58880379055309" lon="11.50046549283604"><ele>294.0</ele><time>2026-04-30T09:06:49.999Z</time></trkpt><trkpt lat="42.588911354123866" lon="11.500672098811188"><ele>294.0</ele><time>2026-04-30T09:06:50.999Z</time></trkpt><trkpt lat="42.58901801841348" lon="11.500871537826095"><ele>294.0</ele><time>2026-04-30T09:06:51.999Z</time></trkpt><trkpt lat="42.589119094399145" lon="11.501056742275127"><ele>294.0</ele><time>2026-04-30T09:06:52.999Z</time></trkpt><trkpt lat="42.5891857166235" lon="11.501257172642667"><ele>292.0</ele><time>2026-04-30T09:06:53.999Z</time></trkpt><trkpt lat="42.589271004909584" lon="11.501419902824841"><ele>290.0</ele><time>2026-04-30T09:06:54.999Z</time></trkpt><trkpt lat="42.58935070845241" lon="11.501571401472019"><ele>288.0</ele><time>2026-04-30T09:06:55.999Z</time></trkpt><trkpt lat="42.58942476184161" lon="11.501712056915288"><ele>286.0</ele><time>2026-04-30T09:06:56.999Z</time></trkpt><trkpt lat="42.58948696861043" lon="11.501833477779773"><ele>288.66666666666663</ele><time>2026-04-30T09:06:57.999Z</time></trkpt><trkpt lat="42.589542539897955" lon="11.50194333836794"><ele>291.3333333333333</ele><time>2026-04-30T09:06:58.999Z</time></trkpt><trkpt lat="42.58958770878375" lon="11.502042720438068"><ele>294.0</ele><time>2026-04-30T09:06:59.999Z</time></trkpt><trkpt lat="42.58962806943391" lon="11.502140167189571"><ele>296.6666666666667</ele><time>2026-04-30T09:07:00.999Z</time></trkpt><trkpt lat="42.58966109203843" lon="11.50222930617937"><ele>299.33333333333337</ele><time>2026-04-30T09:07:01.999Z</time></trkpt><trkpt lat="42.58970275760604" lon="11.502358650857289"><ele>302.0</ele><time>2026-04-30T09:07:03.999Z</time></trkpt><trkpt lat="42.58971452481558" lon="11.502458866090594"><ele>302.0</ele><time>2026-04-30T09:07:06.999Z</time></trkpt><trkpt lat="42.58975821363271" lon="11.502704102579939"><ele>302.0</ele><time>2026-04-30T09:08:32.999Z</time></trkpt><trkpt lat="42.589774681498696" lon="11.502832159476029"><ele>302.0</ele><time>2026-04-30T09:08:33.999Z</time></trkpt><trkpt lat="42.58977071497525" lon="11.502963102889835"><ele>302.0</ele><time>2026-04-30T09:08:34.999Z</time></trkpt><trkpt lat="42.58974366190588" lon="11.503114842448962"><ele>301.0</ele><time>2026-04-30T09:08:35.999Z</time></trkpt><trkpt lat="42.589716750077685" lon="11.50326148332602"><ele>300.0</ele><time>2026-04-30T09:08:36.999Z</time></trkpt><trkpt lat="42.58969131012705" lon="11.503419069966265"><ele>299.0</ele><time>2026-04-30T09:08:37.999Z</time></trkpt><trkpt lat="42.589675253396685" lon="11.503593882919828"><ele>298.0</ele><time>2026-04-30T09:08:38.999Z</time></trkpt><trkpt lat="42.58965878288613" lon="11.503782168988813"><ele>297.25</ele><time>2026-04-30T09:08:39.999Z</time></trkpt><trkpt lat="42.58963139527816" lon="11.503965609350896"><ele>296.5</ele><time>2026-04-30T09:08:40.999Z</time></trkpt><trkpt lat="42.5895965499517" lon="11.504150361772364"><ele>295.75</ele><time>2026-04-30T09:08:41.999Z</time></trkpt><trkpt lat="42.589560368218436" lon="11.504342199921325"><ele>295.0</ele><time>2026-04-30T09:08:42.999Z</time></trkpt><trkpt lat="42.58952374239414" lon="11.5045363926619"><ele>299.0</ele><time>2026-04-30T09:08:43.999Z</time></trkpt><trkpt lat="42.589489333374026" lon="11.504719151799467"><ele>303.0</ele><time>2026-04-30T09:08:44.999Z</time></trkpt><trkpt lat="42.58945412051796" lon="11.50489584368499"><ele>307.0</ele><time>2026-04-30T09:08:45.999Z</time></trkpt><trkpt lat="42.58940689130804" lon="11.505057571308326"><ele>311.0</ele><time>2026-04-30T09:08:46.999Z</time></trkpt><trkpt lat="42.589342719520076" lon="11.505208666435113"><ele>311.0</ele><time>2026-04-30T09:08:47.999Z</time></trkpt><trkpt lat="42.58925639862065" lon="11.505337448772504"><ele>311.0</ele><time>2026-04-30T09:08:48.999Z</time></trkpt><trkpt lat="42.58914482602644" lon="11.505425086805898"><ele>311.0</ele><time>2026-04-30T09:08:49.999Z</time></trkpt><trkpt lat="42.589014370023705" lon="11.505507343510128"><ele>311.0</ele><time>2026-04-30T09:08:50.999Z</time></trkpt><trkpt lat="42.58886890908577" lon="11.505601059029724"><ele>310.25</ele><time>2026-04-30T09:08:51.999Z</time></trkpt><trkpt lat="42.58873814103297" lon="11.505687147662158"><ele>309.5</ele><time>2026-04-30T09:08:52.999Z</time></trkpt><trkpt lat="42.588606529268276" lon="11.50577351736675"><ele>308.75</ele><time>2026-04-30T09:08:53.999Z</time></trkpt><trkpt lat="42.5884744289918" lon="11.505859575044232"><ele>308.0</ele><time>2026-04-30T09:08:54.999Z</time></trkpt><trkpt lat="42.58834197907494" lon="11.505945860498166"><ele>309.5</ele><time>2026-04-30T09:08:55.999Z</time></trkpt><trkpt lat="42.58820935753515" lon="11.506029504905266"><ele>311.0</ele><time>2026-04-30T09:08:56.999Z</time></trkpt><trkpt lat="42.588069514258585" lon="11.5061041529849"><ele>312.5</ele><time>2026-04-30T09:08:57.999Z</time></trkpt><trkpt lat="42.58792376102181" lon="11.506144486154453"><ele>314.0</ele><time>2026-04-30T09:08:58.999Z</time></trkpt><trkpt lat="42.58777825174243" lon="11.506144702854963"><ele>314.0</ele><time>2026-04-30T09:08:59.999Z</time></trkpt><trkpt lat="42.587611615924004" lon="11.506135069691762"><ele>314.0</ele><time>2026-04-30T09:09:00.999Z</time></trkpt><trkpt lat="42.587444006560666" lon="11.506128728682649"><ele>314.0</ele><time>2026-04-30T09:09:01.999Z</time></trkpt><trkpt lat="42.58727576321103" lon="11.506149958186004"><ele>314.0</ele><time>2026-04-30T09:09:02.999Z</time></trkpt><trkpt lat="42.58711806711264" lon="11.506200469919179"><ele>314.0</ele><time>2026-04-30T09:09:03.999Z</time></trkpt><trkpt lat="42.58694917056694" lon="11.506293611294188"><ele>314.0</ele><time>2026-04-30T09:09:04.999Z</time></trkpt><trkpt lat="42.586799387884255" lon="11.506408031634896"><ele>317.0</ele><time>2026-04-30T09:09:05.999Z</time></trkpt><trkpt lat="42.58665078667004" lon="11.506535293267532"><ele>320.0</ele><time>2026-04-30T09:09:06.999Z</time></trkpt><trkpt lat="42.58650026446973" lon="11.506637050062874"><ele>323.0</ele><time>2026-04-30T09:09:07.999Z</time></trkpt><trkpt lat="42.58634836546596" lon="11.506706727820648"><ele>323.0</ele><time>2026-04-30T09:09:08.999Z</time></trkpt><trkpt lat="42.58619281574228" lon="11.506767605794176"><ele>323.0</ele><time>2026-04-30T09:09:09.999Z</time></trkpt><trkpt lat="42.58604763694856" lon="11.506854039039117"><ele>323.0</ele><time>2026-04-30T09:09:10.998Z</time></trkpt><trkpt lat="42.58591169564521" lon="11.506933359591551"><ele>322.5</ele><time>2026-04-30T09:09:11.998Z</time></trkpt><trkpt lat="42.58579621406818" lon="11.50705280376211"><ele>322.0</ele><time>2026-04-30T09:09:12.998Z</time></trkpt><trkpt lat="42.585763286563036" lon="11.507236579841496"><ele>321.5</ele><time>2026-04-30T09:09:13.998Z</time></trkpt><trkpt lat="42.585783180851806" lon="11.507434901805441"><ele>321.0</ele><time>2026-04-30T09:09:14.998Z</time></trkpt><trkpt lat="42.58585587671946" lon="11.507584442975345"><ele>321.0</ele><time>2026-04-30T09:09:15.998Z</time></trkpt><trkpt lat="42.5859928547696" lon="11.507710013852805"><ele>321.0</ele><time>2026-04-30T09:09:16.998Z</time></trkpt><trkpt lat="42.58613870643506" lon="11.507823060089459"><ele>321.0</ele><time>2026-04-30T09:09:17.998Z</time></trkpt><trkpt lat="42.58629004999458" lon="11.507925669384877"><ele>324.0</ele><time>2026-04-30T09:09:18.998Z</time></trkpt><trkpt lat="42.58645356212998" lon="11.5079663749775"><ele>327.0</ele><time>2026-04-30T09:09:19.998Z</time></trkpt><trkpt lat="42.58663291775497" lon="11.507977507287585"><ele>330.0</ele><time>2026-04-30T09:09:20.998Z</time></trkpt><trkpt lat="42.58681811528447" lon="11.508004918334459"><ele>330.0</ele><time>2026-04-30T09:09:22Z</time></trkpt><trkpt lat="42.58699583837947" lon="11.508035044383398"><ele>330.0</ele><time>2026-04-30T09:09:23Z</time></trkpt><trkpt lat="42.58717026229202" lon="11.508086791136574"><ele>330.0</ele><time>2026-04-30T09:09:24Z</time></trkpt><trkpt lat="42.58733403147732" lon="11.508200829599211"><ele>333.3333333333333</ele><time>2026-04-30T09:09:25Z</time></trkpt><trkpt lat="42.587500938951514" lon="11.508284075370513"><ele>336.66666666666663</ele><time>2026-04-30T09:09:26Z</time></trkpt><trkpt lat="42.58764858276869" lon="11.508446892004962"><ele>340.0</ele><time>2026-04-30T09:09:27Z</time></trkpt><trkpt lat="42.58786719280664" lon="11.508261503854873"><ele>343.66666666666663</ele><time>2026-04-30T09:09:28Z</time></trkpt><trkpt lat="42.58805318051944" lon="11.508231041033415"><ele>347.3333333333333</ele><time>2026-04-30T09:09:29Z</time></trkpt><trkpt lat="42.588244922370066" lon="11.508199992610702"><ele>351.0</ele><time>2026-04-30T09:09:30Z</time></trkpt><trkpt lat="42.58843116132476" lon="11.50818164850813"><ele>351.0</ele><time>2026-04-30T09:09:31Z</time></trkpt><trkpt lat="42.58860954096817" lon="11.508153769245757"><ele>351.0</ele><time>2026-04-30T09:09:32Z</time></trkpt><trkpt lat="42.58877434366995" lon="11.508113855967595"><ele>351.0</ele><time>2026-04-30T09:09:33Z</time></trkpt><trkpt lat="42.58891889765776" lon="11.508065458871483"><ele>352.25</ele><time>2026-04-30T09:09:34Z</time></trkpt><trkpt lat="42.589063192559706" lon="11.508050191016626"><ele>353.5</ele><time>2026-04-30T09:09:35Z</time></trkpt><trkpt lat="42.589195585735325" lon="11.508079717659815"><ele>354.75</ele><time>2026-04-30T09:09:36Z</time></trkpt><trkpt lat="42.589285474112096" lon="11.508167542817693"><ele>356.0</ele><time>2026-04-30T09:09:37Z</time></trkpt><trkpt lat="42.58935470471575" lon="11.50827680904606"><ele>355.25</ele><time>2026-04-30T09:09:38Z</time></trkpt><trkpt lat="42.58951068880121" lon="11.508377332528193"><ele>354.5</ele><time>2026-04-30T09:09:39Z</time></trkpt><trkpt lat="42.589662844907515" lon="11.508371101673989"><ele>353.75</ele><time>2026-04-30T09:09:40Z</time></trkpt><trkpt lat="42.589784646098465" lon="11.508393062319893"><ele>353.0</ele><time>2026-04-30T09:09:41Z</time></trkpt><trkpt lat="42.58986333654243" lon="11.508367274086202"><ele>353.0</ele><time>2026-04-30T09:09:42Z</time></trkpt><trkpt lat="42.58997193351853" lon="11.50830963090534"><ele>353.0</ele><time>2026-04-30T09:09:43Z</time></trkpt><trkpt lat="42.59010732549311" lon="11.508265649794414"><ele>353.0</ele><time>2026-04-30T09:09:44Z</time></trkpt><trkpt lat="42.590194628277466" lon="11.5082704917185"><ele>353.0</ele><time>2026-04-30T09:09:45Z</time></trkpt><trkpt lat="42.59024576159405" lon="11.508355909936768"><ele>353.0</ele><time>2026-04-30T09:09:46Z</time></trkpt><trkpt lat="42.590283880152114" lon="11.508436783602452"><ele>353.0</ele><time>2026-04-30T09:09:47Z</time></trkpt><trkpt lat="42.590219930294616" lon="11.508516722145705"><ele>353.0</ele><time>2026-04-30T09:09:48Z</time></trkpt><trkpt lat="42.59013694698651" lon="11.50849148974427"><ele>353.0</ele><time>2026-04-30T09:09:50Z</time></trkpt><trkpt lat="42.58995010247157" lon="11.50859530712984"><ele>353.0</ele><time>2026-04-30T09:09:53Z</time></trkpt><trkpt lat="42.58971729536647" lon="11.50868198608593"><ele>353.6666666666667</ele><time>2026-04-30T09:09:54Z</time></trkpt><trkpt lat="42.58951410445077" lon="11.50887115942606"><ele>354.3333333333333</ele><time>2026-04-30T09:09:55Z</time></trkpt><trkpt lat="42.58937598069561" lon="11.509069569233292"><ele>355.0</ele><time>2026-04-30T09:09:56Z</time></trkpt><trkpt lat="42.589245203447994" lon="11.50927310359734"><ele>360.5</ele><time>2026-04-30T09:09:57Z</time></trkpt><trkpt lat="42.589120435370226" lon="11.50953447229509"><ele>366.0</ele><time>2026-04-30T09:09:58Z</time></trkpt><trkpt lat="42.58903656785569" lon="11.509836953936466"><ele>367.5</ele><time>2026-04-30T09:09:59Z</time></trkpt><trkpt lat="42.58903288927056" lon="11.510172800679396"><ele>369.0</ele><time>2026-04-30T09:10:00Z</time></trkpt><trkpt lat="42.589081999723305" lon="11.510454543192964"><ele>370.6666666666667</ele><time>2026-04-30T09:10:01Z</time></trkpt><trkpt lat="42.58913396351105" lon="11.510665179390678"><ele>372.33333333333337</ele><time>2026-04-30T09:10:02Z</time></trkpt><trkpt lat="42.589180802568826" lon="11.51086182756365"><ele>374.0</ele><time>2026-04-30T09:10:03Z</time></trkpt><trkpt lat="42.58922506236645" lon="11.511040411480256"><ele>374.0</ele><time>2026-04-30T09:10:04Z</time></trkpt><trkpt lat="42.58925373683955" lon="11.511199106685078"><ele>374.0</ele><time>2026-04-30T09:10:05Z</time></trkpt><trkpt lat="42.589254947038754" lon="11.511361035871232"><ele>374.0</ele><time>2026-04-30T09:10:06Z</time></trkpt><trkpt lat="42.58924548462577" lon="11.511534513370117"><ele>374.0</ele><time>2026-04-30T09:10:07Z</time></trkpt><trkpt lat="42.5891782661235" lon="11.511644333743108"><ele>375.75</ele><time>2026-04-30T09:10:08Z</time></trkpt><trkpt lat="42.58912255988152" lon="11.511812533650188"><ele>377.5</ele><time>2026-04-30T09:10:09Z</time></trkpt><trkpt lat="42.58909030328255" lon="11.511989588986012"><ele>379.25</ele><time>2026-04-30T09:10:10Z</time></trkpt><trkpt lat="42.58908295731982" lon="11.51216264662838"><ele>381.0</ele><time>2026-04-30T09:10:11Z</time></trkpt><trkpt lat="42.589092245266464" lon="11.512327264209654"><ele>382.75</ele><time>2026-04-30T09:10:12Z</time></trkpt><trkpt lat="42.58911608027061" lon="11.512483241628214"><ele>384.5</ele><time>2026-04-30T09:10:13Z</time></trkpt><trkpt lat="42.58915071907385" lon="11.512629706274323"><ele>386.25</ele><time>2026-04-30T09:10:14Z</time></trkpt><trkpt lat="42.58919604182287" lon="11.512771355249141"><ele>388.0</ele><time>2026-04-30T09:10:15Z</time></trkpt><trkpt lat="42.589268145750566" lon="11.512912410495373"><ele>387.79999999999995</ele><time>2026-04-30T09:10:16Z</time></trkpt><trkpt lat="42.589340223147296" lon="11.513004674900797"><ele>387.6</ele><time>2026-04-30T09:10:17Z</time></trkpt><trkpt lat="42.5894037254386" lon="11.513150616387362"><ele>387.4</ele><time>2026-04-30T09:10:18Z</time></trkpt><trkpt lat="42.589468227761195" lon="11.513273296902137"><ele>387.20000000000005</ele><time>2026-04-30T09:10:19Z</time></trkpt><trkpt lat="42.58952402628419" lon="11.513397297264028"><ele>387.0</ele><time>2026-04-30T09:10:20Z</time></trkpt><trkpt lat="42.589566487336185" lon="11.51353391125129"><ele>387.0</ele><time>2026-04-30T09:10:21Z</time></trkpt><trkpt lat="42.58958390226312" lon="11.513678597629214"><ele>387.0</ele><time>2026-04-30T09:10:22Z</time></trkpt><trkpt lat="42.58958304708114" lon="11.513836364421154"><ele>387.0</ele><time>2026-04-30T09:10:23Z</time></trkpt><trkpt lat="42.58956103473283" lon="11.513978871679301"><ele>387.0</ele><time>2026-04-30T09:10:24Z</time></trkpt><trkpt lat="42.5895176297307" lon="11.514121338247621"><ele>387.0</ele><time>2026-04-30T09:10:24.999Z</time></trkpt><trkpt lat="42.58946260515079" lon="11.51428722489138"><ele>390.75</ele><time>2026-04-30T09:10:25.999Z</time></trkpt><trkpt lat="42.5894054425567" lon="11.514458812044182"><ele>394.5</ele><time>2026-04-30T09:10:26.999Z</time></trkpt><trkpt lat="42.589353351969436" lon="11.514615174364472"><ele>398.25</ele><time>2026-04-30T09:10:27.999Z</time></trkpt><trkpt lat="42.58929512795835" lon="11.514789947610259"><ele>402.0</ele><time>2026-04-30T09:10:28.999Z</time></trkpt><trkpt lat="42.589244632241815" lon="11.514944108404066"><ele>402.0</ele><time>2026-04-30T09:10:29.999Z</time></trkpt><trkpt lat="42.58919244329389" lon="11.515109813668"><ele>402.0</ele><time>2026-04-30T09:10:30.999Z</time></trkpt><trkpt lat="42.58914457122516" lon="11.515275688318965"><ele>402.0</ele><time>2026-04-30T09:10:31.999Z</time></trkpt><trkpt lat="42.58911862999737" lon="11.515439014011347"><ele>402.0</ele><time>2026-04-30T09:10:32.999Z</time></trkpt><trkpt lat="42.58907796887453" lon="11.515604560822554"><ele>401.75</ele><time>2026-04-30T09:10:33.999Z</time></trkpt><trkpt lat="42.589036984254456" lon="11.515774142650551"><ele>401.5</ele><time>2026-04-30T09:10:34.999Z</time></trkpt><trkpt lat="42.58900781092262" lon="11.515939041888569"><ele>401.25</ele><time>2026-04-30T09:10:35.999Z</time></trkpt><trkpt lat="42.588982012276716" lon="11.516098647700922"><ele>401.0</ele><time>2026-04-30T09:10:36.999Z</time></trkpt><trkpt lat="42.588946147986626" lon="11.516271305498345"><ele>399.75</ele><time>2026-04-30T09:10:37.999Z</time></trkpt><trkpt lat="42.58890848473858" lon="11.516447383339935"><ele>398.5</ele><time>2026-04-30T09:10:38.999Z</time></trkpt><trkpt lat="42.58887955316665" lon="11.516618548106626"><ele>397.25</ele><time>2026-04-30T09:10:39.999Z</time></trkpt><trkpt lat="42.58884965821447" lon="11.516769259916973"><ele>396.0</ele><time>2026-04-30T09:10:40.999Z</time></trkpt><trkpt lat="42.588833072136154" lon="11.516894404085969"><ele>396.0</ele><time>2026-04-30T09:10:41.999Z</time></trkpt><trkpt lat="42.58881443673521" lon="11.516994140064991"><ele>396.0</ele><time>2026-04-30T09:10:42.999Z</time></trkpt><trkpt lat="42.588799389449186" lon="11.51713331675594"><ele>396.0</ele><time>2026-04-30T09:10:44.999Z</time></trkpt><trkpt lat="42.588756571141076" lon="11.517295941234297"><ele>396.0</ele><time>2026-04-30T09:10:46.999Z</time></trkpt><trkpt lat="42.58873537841944" lon="11.517379664587997"><ele>396.0</ele><time>2026-04-30T09:10:47.999Z</time></trkpt><trkpt lat="42.58871264366487" lon="11.517468409140953"><ele>396.0</ele><time>2026-04-30T09:10:48.999Z</time></trkpt><trkpt lat="42.588684386224685" lon="11.517551512189918"><ele>395.5</ele><time>2026-04-30T09:10:49.999Z</time></trkpt><trkpt lat="42.58864772965385" lon="11.517644245491036"><ele>395.0</ele><time>2026-04-30T09:10:50.999Z</time></trkpt><trkpt lat="42.588614379679754" lon="11.517738931560588"><ele>394.5</ele><time>2026-04-30T09:10:51.999Z</time></trkpt><trkpt lat="42.588579214417884" lon="11.517838030531935"><ele>394.0</ele><time>2026-04-30T09:10:52.999Z</time></trkpt><trkpt lat="42.5885441186709" lon="11.517934005363216"><ele>393.5</ele><time>2026-04-30T09:10:53.999Z</time></trkpt><trkpt lat="42.5885102225148" lon="11.518022290944163"><ele>393.0</ele><time>2026-04-30T09:10:54.999Z</time></trkpt><trkpt lat="42.58847730455863" lon="11.518104623134983"><ele>393.0</ele><time>2026-04-30T09:10:55.999Z</time></trkpt><trkpt lat="42.588452491890266" lon="11.518183657982524"><ele>393.0</ele><time>2026-04-30T09:10:56.999Z</time></trkpt><trkpt lat="42.58841522653282" lon="11.518337958208233"><ele>393.0</ele><time>2026-04-30T09:10:58.999Z</time></trkpt><trkpt lat="42.588379453601206" lon="11.518470368301793"><ele>393.0</ele><time>2026-04-30T09:11:00.999Z</time></trkpt><trkpt lat="42.58834842976949" lon="11.51859873038997"><ele>393.0</ele><time>2026-04-30T09:11:02.999Z</time></trkpt><trkpt lat="42.58832137697435" lon="11.518715322648095"><ele>392.79999999999995</ele><time>2026-04-30T09:11:04.999Z</time></trkpt><trkpt lat="42.588298572325265" lon="11.518827960562003"><ele>392.6</ele><time>2026-04-30T09:11:06.999Z</time></trkpt><trkpt lat="42.58826981126549" lon="11.51892533827085"><ele>392.4</ele><time>2026-04-30T09:11:09.999Z</time></trkpt><trkpt lat="42.588248481760814" lon="11.519031131572284"><ele>392.20000000000005</ele><time>2026-04-30T09:11:11.999Z</time></trkpt><trkpt lat="42.58822451310867" lon="11.519173505297807"><ele>392.0</ele><time>2026-04-30T09:11:13.999Z</time></trkpt><trkpt lat="42.58822769809737" lon="11.519337664955103"><ele>392.0</ele><time>2026-04-30T09:11:15.999Z</time></trkpt><trkpt lat="42.58826227783924" lon="11.519508141293882"><ele>392.0</ele><time>2026-04-30T09:11:17.999Z</time></trkpt><trkpt lat="42.58827215959967" lon="11.51959762031975"><ele>392.0</ele><time>2026-04-30T09:11:18.998Z</time></trkpt><trkpt lat="42.58825545320657" lon="11.519684935452068"><ele>392.0</ele><time>2026-04-30T09:11:19.998Z</time></trkpt><trkpt lat="42.58823943678558" lon="11.519777205591764"><ele>392.0</ele><time>2026-04-30T09:11:20.998Z</time></trkpt><trkpt lat="42.588179139180596" lon="11.519922798285164"><ele>392.8333333333333</ele><time>2026-04-30T09:11:22.998Z</time></trkpt><trkpt lat="42.588134380548766" lon="11.519993197095907"><ele>393.66666666666663</ele><time>2026-04-30T09:11:23.998Z</time></trkpt><trkpt lat="42.58809104202357" lon="11.520056726355392"><ele>394.5</ele><time>2026-04-30T09:11:24.998Z</time></trkpt><trkpt lat="42.58804469818892" lon="11.52012466105115"><ele>395.33333333333337</ele><time>2026-04-30T09:11:25.998Z</time></trkpt><trkpt lat="42.58797352344344" lon="11.520231665048412"><ele>396.1666666666667</ele><time>2026-04-30T09:11:28Z</time></trkpt><trkpt lat="42.58790193530502" lon="11.520348685654577"><ele>397.0</ele><time>2026-04-30T09:11:30Z</time></trkpt><trkpt lat="42.58786014379694" lon="11.520423006419477"><ele>397.00000000000006</ele><time>2026-04-30T09:11:31Z</time></trkpt><trkpt lat="42.58781508958799" lon="11.520510492965034"><ele>397.0</ele><time>2026-04-30T09:11:32Z</time></trkpt><trkpt lat="42.58777022680882" lon="11.520599129796445"><ele>397.0</ele><time>2026-04-30T09:11:33Z</time></trkpt><trkpt lat="42.58772418188689" lon="11.520690102232471"><ele>397.0</ele><time>2026-04-30T09:11:34Z</time></trkpt><trkpt lat="42.58767373782648" lon="11.52078983505673"><ele>397.00000000000006</ele><time>2026-04-30T09:11:35Z</time></trkpt><trkpt lat="42.587632793408375" lon="11.52090744425358"><ele>397.0</ele><time>2026-04-30T09:11:36Z</time></trkpt><trkpt lat="42.587577036478514" lon="11.521019130856589"><ele>397.0</ele><time>2026-04-30T09:11:37Z</time></trkpt><trkpt lat="42.587515233948515" lon="11.521141652830476"><ele>397.0</ele><time>2026-04-30T09:11:38Z</time></trkpt><trkpt lat="42.587440156584066" lon="11.52124830947933"><ele>397.0</ele><time>2026-04-30T09:11:39Z</time></trkpt><trkpt lat="42.58740132594695" lon="11.521376351342314"><ele>397.0</ele><time>2026-04-30T09:11:40Z</time></trkpt><trkpt lat="42.587344652889755" lon="11.521484838923321"><ele>397.0</ele><time>2026-04-30T09:11:41Z</time></trkpt><trkpt lat="42.58728716105912" lon="11.521590495847624"><ele>396.8</ele><time>2026-04-30T09:11:42Z</time></trkpt><trkpt lat="42.58722790972936" lon="11.521695298369545"><ele>396.6</ele><time>2026-04-30T09:11:43Z</time></trkpt><trkpt lat="42.587172694371034" lon="11.521802095463379"><ele>396.40000000000003</ele><time>2026-04-30T09:11:44Z</time></trkpt><trkpt lat="42.58710822980966" lon="11.52191155801405"><ele>396.20000000000005</ele><time>2026-04-30T09:11:45Z</time></trkpt><trkpt lat="42.5870115304039" lon="11.52199150849632"><ele>396.0</ele><time>2026-04-30T09:11:46Z</time></trkpt><trkpt lat="42.5869211171963" lon="11.522059961494515"><ele>395.25</ele><time>2026-04-30T09:11:47Z</time></trkpt><trkpt lat="42.586824648582024" lon="11.522106063158441"><ele>394.5</ele><time>2026-04-30T09:11:48Z</time></trkpt><trkpt lat="42.58670712494403" lon="11.522159100231464"><ele>393.75</ele><time>2026-04-30T09:11:49Z</time></trkpt><trkpt lat="42.58657505819159" lon="11.522218780970503"><ele>393.0</ele><time>2026-04-30T09:11:50Z</time></trkpt><trkpt lat="42.586445538003495" lon="11.522300588683446"><ele>393.0</ele><time>2026-04-30T09:11:51Z</time></trkpt><trkpt lat="42.58630828693233" lon="11.522352751448116"><ele>393.0</ele><time>2026-04-30T09:11:52Z</time></trkpt><trkpt lat="42.58618069064026" lon="11.522444703926942"><ele>393.0</ele><time>2026-04-30T09:11:53Z</time></trkpt><trkpt lat="42.5860709223471" lon="11.522550740283414"><ele>393.0</ele><time>2026-04-30T09:11:54Z</time></trkpt><trkpt lat="42.585974074017294" lon="11.522671180906846"><ele>392.25</ele><time>2026-04-30T09:11:55Z</time></trkpt><trkpt lat="42.58588239451382" lon="11.522811497410753"><ele>391.5</ele><time>2026-04-30T09:11:56Z</time></trkpt><trkpt lat="42.585779274097376" lon="11.52292291632122"><ele>390.75</ele><time>2026-04-30T09:11:57Z</time></trkpt><trkpt lat="42.58568957959748" lon="11.523062207546952"><ele>390.0</ele><time>2026-04-30T09:11:58Z</time></trkpt><trkpt lat="42.58559707700889" lon="11.523189747077353"><ele>388.75</ele><time>2026-04-30T09:11:59Z</time></trkpt><trkpt lat="42.58549385125014" lon="11.523326346458639"><ele>387.5</ele><time>2026-04-30T09:12:00Z</time></trkpt><trkpt lat="42.585374795347875" lon="11.523419335822537"><ele>386.25</ele><time>2026-04-30T09:12:01Z</time></trkpt><trkpt lat="42.58525506704501" lon="11.523514135646629"><ele>385.0</ele><time>2026-04-30T09:12:02Z</time></trkpt><trkpt lat="42.585141479192366" lon="11.523627408492125"><ele>384.25</ele><time>2026-04-30T09:12:03Z</time></trkpt><trkpt lat="42.585018577489386" lon="11.52372585791563"><ele>383.5</ele><time>2026-04-30T09:12:04Z</time></trkpt><trkpt lat="42.58490137725649" lon="11.523807729852479"><ele>382.75</ele><time>2026-04-30T09:12:05Z</time></trkpt><trkpt lat="42.5848039079474" lon="11.523871841692642"><ele>382.0</ele><time>2026-04-30T09:12:06Z</time></trkpt><trkpt lat="42.58471342679335" lon="11.523934630295132"><ele>381.20000000000005</ele><time>2026-04-30T09:12:08Z</time></trkpt><trkpt lat="42.584623898675254" lon="11.523948274466063"><ele>380.4</ele><time>2026-04-30T09:12:11Z</time></trkpt><trkpt lat="42.58456039392668" lon="11.523943659454167"><ele>379.6</ele><time>2026-04-30T09:12:12Z</time></trkpt><trkpt lat="42.584497298490895" lon="11.524130561197513"><ele>378.79999999999995</ele><time>2026-04-30T09:12:13Z</time></trkpt><trkpt lat="42.58444094385046" lon="11.524248204992963"><ele>378.0</ele><time>2026-04-30T09:12:14Z</time></trkpt><trkpt lat="42.58438185736856" lon="11.524367969130276"><ele>377.5</ele><time>2026-04-30T09:12:15Z</time></trkpt><trkpt lat="42.58434651680638" lon="11.524523890923547"><ele>377.0</ele><time>2026-04-30T09:12:16Z</time></trkpt><trkpt lat="42.58425157996854" lon="11.52465289197019"><ele>376.5</ele><time>2026-04-30T09:12:17Z</time></trkpt><trkpt lat="42.584142684106986" lon="11.524772105777023"><ele>376.0</ele><time>2026-04-30T09:12:18Z</time></trkpt><trkpt lat="42.584045669463336" lon="11.524879395006721"><ele>373.5</ele><time>2026-04-30T09:12:19Z</time></trkpt><trkpt lat="42.58392713614058" lon="11.52500633326185"><ele>371.0</ele><time>2026-04-30T09:12:20Z</time></trkpt><trkpt lat="42.5838204741814" lon="11.525144740699925"><ele>368.5</ele><time>2026-04-30T09:12:21Z</time></trkpt><trkpt lat="42.58370648930468" lon="11.525253745890668"><ele>366.0</ele><time>2026-04-30T09:12:22Z</time></trkpt><trkpt lat="42.583598907194926" lon="11.525376913125811"><ele>365.25</ele><time>2026-04-30T09:12:23Z</time></trkpt><trkpt lat="42.58348105708843" lon="11.525475953534938"><ele>364.5</ele><time>2026-04-30T09:12:24Z</time></trkpt><trkpt lat="42.58338307378826" lon="11.525610082225047"><ele>363.75</ele><time>2026-04-30T09:12:25Z</time></trkpt><trkpt lat="42.58325595888474" lon="11.525696834269299"><ele>363.0</ele><time>2026-04-30T09:12:26Z</time></trkpt><trkpt lat="42.583128425263276" lon="11.52577804598568"><ele>363.0</ele><time>2026-04-30T09:12:26.999Z</time></trkpt><trkpt lat="42.58299766043958" lon="11.52581403640581"><ele>363.0</ele><time>2026-04-30T09:12:27.999Z</time></trkpt><trkpt lat="42.58284520919051" lon="11.525813511860436"><ele>363.0</ele><time>2026-04-30T09:12:28.999Z</time></trkpt><trkpt lat="42.58268262988349" lon="11.525804234553027"><ele>363.0</ele><time>2026-04-30T09:12:29.999Z</time></trkpt><trkpt lat="42.58252854579573" lon="11.525796609223411"><ele>362.0</ele><time>2026-04-30T09:12:30.999Z</time></trkpt><trkpt lat="42.58238552662196" lon="11.525793164850242"><ele>361.0</ele><time>2026-04-30T09:12:31.999Z</time></trkpt><trkpt lat="42.5822465582763" lon="11.52581001470111"><ele>360.0</ele><time>2026-04-30T09:12:32.999Z</time></trkpt><trkpt lat="42.582122763251384" lon="11.52588485466766"><ele>359.0</ele><time>2026-04-30T09:12:33.999Z</time></trkpt><trkpt lat="42.58202595667001" lon="11.525976091467792"><ele>355.33333333333337</ele><time>2026-04-30T09:12:34.999Z</time></trkpt><trkpt lat="42.58189299698925" lon="11.526098644577031"><ele>351.6666666666667</ele><time>2026-04-30T09:12:35.999Z</time></trkpt><trkpt lat="42.58178254026328" lon="11.526244439331863"><ele>348.0</ele><time>2026-04-30T09:12:36.999Z</time></trkpt><trkpt lat="42.58167967840428" lon="11.52642455025674"><ele>347.0</ele><time>2026-04-30T09:12:37.999Z</time></trkpt><trkpt lat="42.58155709339556" lon="11.52657672249752"><ele>346.0</ele><time>2026-04-30T09:12:38.999Z</time></trkpt><trkpt lat="42.5814197656922" lon="11.52670619454115"><ele>345.0</ele><time>2026-04-30T09:12:39.999Z</time></trkpt><trkpt lat="42.5812829675464" lon="11.526852077849998"><ele>345.3333333333333</ele><time>2026-04-30T09:12:40.999Z</time></trkpt><trkpt lat="42.58113883211274" lon="11.526999491699737"><ele>345.66666666666663</ele><time>2026-04-30T09:12:41.999Z</time></trkpt><trkpt lat="42.58098791671202" lon="11.52715253568"><ele>346.0</ele><time>2026-04-30T09:12:42.999Z</time></trkpt><trkpt lat="42.58083786612176" lon="11.52730475626563"><ele>346.0</ele><time>2026-04-30T09:12:43.999Z</time></trkpt><trkpt lat="42.580700238669" lon="11.527465059904106"><ele>346.0</ele><time>2026-04-30T09:12:44.999Z</time></trkpt><trkpt lat="42.58055766987271" lon="11.527610510023534"><ele>346.0</ele><time>2026-04-30T09:12:45.999Z</time></trkpt><trkpt lat="42.58041116871802" lon="11.527733871606848"><ele>346.75</ele><time>2026-04-30T09:12:46.999Z</time></trkpt><trkpt lat="42.58026392196513" lon="11.527849469488993"><ele>347.5</ele><time>2026-04-30T09:12:47.999Z</time></trkpt><trkpt lat="42.58012269676113" lon="11.527893889245208"><ele>348.25</ele><time>2026-04-30T09:12:48.999Z</time></trkpt><trkpt lat="42.58000197083266" lon="11.527890964796796"><ele>349.0</ele><time>2026-04-30T09:12:49.999Z</time></trkpt><trkpt lat="42.57986248180317" lon="11.527843521920634"><ele>345.0</ele><time>2026-04-30T09:12:50.999Z</time></trkpt><trkpt lat="42.579703258433476" lon="11.52779346645694"><ele>341.0</ele><time>2026-04-30T09:12:51.999Z</time></trkpt><trkpt lat="42.579574037076426" lon="11.527751498743763"><ele>337.0</ele><time>2026-04-30T09:12:52.999Z</time></trkpt><trkpt lat="42.579418834848" lon="11.5276993236364"><ele>335.0</ele><time>2026-04-30T09:12:53.999Z</time></trkpt><trkpt lat="42.57923290660102" lon="11.527663791361682"><ele>333.0</ele><time>2026-04-30T09:12:54.999Z</time></trkpt><trkpt lat="42.57908070959892" lon="11.527673045350348"><ele>331.0</ele><time>2026-04-30T09:12:55.999Z</time></trkpt><trkpt lat="42.57892987772612" lon="11.527724752452919"><ele>331.0</ele><time>2026-04-30T09:12:56.999Z</time></trkpt><trkpt lat="42.57878282578022" lon="11.527785874896576"><ele>331.0</ele><time>2026-04-30T09:12:57.999Z</time></trkpt><trkpt lat="42.57863495458217" lon="11.527827676459543"><ele>331.0</ele><time>2026-04-30T09:12:58.999Z</time></trkpt><trkpt lat="42.578499380687234" lon="11.52782694812435"><ele>331.0</ele><time>2026-04-30T09:12:59.999Z</time></trkpt><trkpt lat="42.5783779707624" lon="11.527769262687828"><ele>328.66666666666663</ele><time>2026-04-30T09:13:00.999Z</time></trkpt><trkpt lat="42.57819842745956" lon="11.527680951478505"><ele>326.3333333333333</ele><time>2026-04-30T09:13:01.999Z</time></trkpt><trkpt lat="42.57799931277761" lon="11.527658866572136"><ele>324.0</ele><time>2026-04-30T09:13:02.999Z</time></trkpt><trkpt lat="42.577857498116195" lon="11.5276938959336"><ele>323.0</ele><time>2026-04-30T09:13:03.999Z</time></trkpt><trkpt lat="42.57770407171828" lon="11.527778901990821"><ele>322.0</ele><time>2026-04-30T09:13:04.999Z</time></trkpt><trkpt lat="42.577582425368625" lon="11.52787446294934"><ele>321.0</ele><time>2026-04-30T09:13:05.999Z</time></trkpt><trkpt lat="42.57746512642776" lon="11.52792609924773"><ele>320.0</ele><time>2026-04-30T09:13:06.999Z</time></trkpt><trkpt lat="42.577345491831466" lon="11.527952516777386"><ele>322.0</ele><time>2026-04-30T09:13:07.999Z</time></trkpt><trkpt lat="42.57728567727697" lon="11.528130483689761"><ele>324.0</ele><time>2026-04-30T09:13:08.999Z</time></trkpt><trkpt lat="42.57717593207857" lon="11.52814765620335"><ele>326.0</ele><time>2026-04-30T09:13:09.999Z</time></trkpt><trkpt lat="42.5770686948041" lon="11.528121957028482"><ele>328.0</ele><time>2026-04-30T09:13:10.999Z</time></trkpt><trkpt lat="42.57693772517407" lon="11.52805964207402"><ele>328.0</ele><time>2026-04-30T09:13:11.999Z</time></trkpt><trkpt lat="42.57680102801058" lon="11.527996331688955"><ele>328.0</ele><time>2026-04-30T09:13:12.999Z</time></trkpt><trkpt lat="42.57665854067193" lon="11.527933662201928"><ele>328.0</ele><time>2026-04-30T09:13:13.999Z</time></trkpt><trkpt lat="42.57651095378568" lon="11.527876388664332"><ele>328.0</ele><time>2026-04-30T09:13:14.999Z</time></trkpt><trkpt lat="42.576340135772675" lon="11.527828330628157"><ele>321.3333333333333</ele><time>2026-04-30T09:13:15.999Z</time></trkpt><trkpt lat="42.57616745118124" lon="11.527804395971993"><ele>314.6666666666667</ele><time>2026-04-30T09:13:16.999Z</time></trkpt><trkpt lat="42.57597190882737" lon="11.52782087645981"><ele>308.0</ele><time>2026-04-30T09:13:17.999Z</time></trkpt><trkpt lat="42.575785208439655" lon="11.527842107224807"><ele>308.0</ele><time>2026-04-30T09:13:18.999Z</time></trkpt><trkpt lat="42.57558770345435" lon="11.52786456664109"><ele>308.0</ele><time>2026-04-30T09:13:19.999Z</time></trkpt><trkpt lat="42.57539741665144" lon="11.52788145492666"><ele>308.0</ele><time>2026-04-30T09:13:20.999Z</time></trkpt><trkpt lat="42.57520529152231" lon="11.527897351063446"><ele>310.33333333333337</ele><time>2026-04-30T09:13:21.998Z</time></trkpt><trkpt lat="42.5750286132647" lon="11.527920115364857"><ele>312.6666666666667</ele><time>2026-04-30T09:13:22.998Z</time></trkpt><trkpt lat="42.574868479152315" lon="11.527980477527732"><ele>315.0</ele><time>2026-04-30T09:13:23.998Z</time></trkpt><trkpt lat="42.574723910786325" lon="11.528039855333107"><ele>315.0</ele><time>2026-04-30T09:13:24.998Z</time></trkpt><trkpt lat="42.57457222631877" lon="11.528147710148334"><ele>315.0</ele><time>2026-04-30T09:13:25.998Z</time></trkpt><trkpt lat="42.574479452233" lon="11.528325674391104"><ele>315.0</ele><time>2026-04-30T09:13:26.998Z</time></trkpt><trkpt lat="42.57438186160989" lon="11.528495935274085"><ele>312.5</ele><time>2026-04-30T09:13:27.998Z</time></trkpt><trkpt lat="42.574292577691836" lon="11.528647641691512"><ele>310.0</ele><time>2026-04-30T09:13:28.998Z</time></trkpt><trkpt lat="42.57420346887065" lon="11.528795069155091"><ele>307.5</ele><time>2026-04-30T09:13:29.998Z</time></trkpt><trkpt lat="42.574119412436296" lon="11.528967009567797"><ele>305.0</ele><time>2026-04-30T09:13:30.998Z</time></trkpt><trkpt lat="42.57404853824369" lon="11.52916400184019"><ele>305.0</ele><time>2026-04-30T09:13:31.998Z</time></trkpt><trkpt lat="42.57398499032255" lon="11.529389965818591"><ele>305.0</ele><time>2026-04-30T09:13:33Z</time></trkpt><trkpt lat="42.573914625809316" lon="11.529617192006906"><ele>305.0</ele><time>2026-04-30T09:13:34Z</time></trkpt><trkpt lat="42.573882112947274" lon="11.529860868952472"><ele>306.0</ele><time>2026-04-30T09:13:35Z</time></trkpt><trkpt lat="42.5738385856968" lon="11.530103896295707"><ele>307.0</ele><time>2026-04-30T09:13:36Z</time></trkpt><trkpt lat="42.573791162149156" lon="11.530350055608006"><ele>308.0</ele><time>2026-04-30T09:13:37Z</time></trkpt><trkpt lat="42.57375793526252" lon="11.530600775683023"><ele>308.0</ele><time>2026-04-30T09:13:38Z</time></trkpt><trkpt lat="42.573732977071515" lon="11.530847601337094"><ele>308.0</ele><time>2026-04-30T09:13:39Z</time></trkpt><trkpt lat="42.5737033033671" lon="11.531074768520476"><ele>308.0</ele><time>2026-04-30T09:13:40Z</time></trkpt><trkpt lat="42.57367467790318" lon="11.531295913031295"><ele>307.33333333333337</ele><time>2026-04-30T09:13:41Z</time></trkpt><trkpt lat="42.57362798437638" lon="11.531500773198092"><ele>306.6666666666667</ele><time>2026-04-30T09:13:42Z</time></trkpt><trkpt lat="42.57357695791031" lon="11.531701076363861"><ele>306.0</ele><time>2026-04-30T09:13:43Z</time></trkpt><trkpt lat="42.57351829862171" lon="11.531888132706346"><ele>72.0</ele><time>2026-04-30T09:13:44Z</time></trkpt><trkpt lat="42.56624913823434" lon="11.43100105828679"><ele>72.0</ele><time>2026-04-30T09:01:09.001Z</time></trkpt><trkpt lat="42.5664795554999" lon="11.431094382908073"><ele>72.0</ele><time>2026-04-30T09:01:10.001Z</time></trkpt><trkpt lat="42.56673793229673" lon="11.431144303884043"><ele>72.0</ele><time>2026-04-30T09:01:11.001Z</time></trkpt><trkpt lat="42.566997118161666" lon="11.431134832621153"><ele>72.0</ele><time>2026-04-30T09:01:12.001Z</time></trkpt><trkpt lat="42.5672648241677" lon="11.43113757523582"><ele>72.5</ele><time>2026-04-30T09:01:13.001Z</time></trkpt><trkpt lat="42.56753602675148" lon="11.431157494365443"><ele>73.0</ele><time>2026-04-30T09:01:14.001Z</time></trkpt><trkpt lat="42.56781090918792" lon="11.431163755642377"><ele>73.0</ele><time>2026-04-30T09:01:15Z</time></trkpt><trkpt lat="42.5680860284087" lon="11.43118617194296"><ele>73.0</ele><time>2026-04-30T09:01:16Z</time></trkpt><trkpt lat="42.568363330255465" lon="11.431209110830348"><ele>73.0</ele><time>2026-04-30T09:01:17Z</time></trkpt><trkpt lat="42.56863047035321" lon="11.431221627530258"><ele>73.0</ele><time>2026-04-30T09:01:18Z</time></trkpt><trkpt lat="42.56888843020419" lon="11.43123903354215"><ele>74.0</ele><time>2026-04-30T09:01:19Z</time></trkpt><trkpt lat="42.56913221271916" lon="11.431270037009769"><ele>75.0</ele><time>2026-04-30T09:01:20Z</time></trkpt><trkpt lat="42.56934274568247" lon="11.431364069095864"><ele>75.0</ele><time>2026-04-30T09:01:21Z</time></trkpt><trkpt lat="42.569520954027304" lon="11.431504031848961"><ele>75.0</ele><time>2026-04-30T09:01:22Z</time></trkpt><trkpt lat="42.56970800375061" lon="11.431685367160881"><ele>75.0</ele><time>2026-04-30T09:01:23Z</time></trkpt><trkpt lat="42.569894029286466" lon="11.431869975148189"><ele>75.0</ele><time>2026-04-30T09:01:24Z</time></trkpt><trkpt lat="42.570079581702636" lon="11.4320565034969"><ele>75.0</ele><time>2026-04-30T09:01:25Z</time></trkpt><trkpt lat="42.57027441485401" lon="11.432251485540721"><ele>76.5</ele><time>2026-04-30T09:01:26Z</time></trkpt><trkpt lat="42.570467847712216" lon="11.432445906184467"><ele>78.0</ele><time>2026-04-30T09:01:27Z</time></trkpt><trkpt lat="42.570653047138215" lon="11.43265046531874"><ele>78.0</ele><time>2026-04-30T09:01:28Z</time></trkpt><trkpt lat="42.57082936631584" lon="11.432885159949318"><ele>78.0</ele><time>2026-04-30T09:01:29Z</time></trkpt><trkpt lat="42.57098757275871" lon="11.43313262077361"><ele>77.0</ele><time>2026-04-30T09:01:30Z</time></trkpt><trkpt lat="42.57114299812192" lon="11.43338056754577"><ele>76.0</ele><time>2026-04-30T09:01:31Z</time></trkpt><trkpt lat="42.571297848247696" lon="11.433627943788226"><ele>78.5</ele><time>2026-04-30T09:01:32Z</time></trkpt><trkpt lat="42.57144686815864" lon="11.43386427322805"><ele>81.0</ele><time>2026-04-30T09:01:33Z</time></trkpt><trkpt lat="42.57160355566141" lon="11.434112762698135"><ele>81.0</ele><time>2026-04-30T09:01:34Z</time></trkpt><trkpt lat="42.571757318305735" lon="11.434357213383496"><ele>81.0</ele><time>2026-04-30T09:01:35Z</time></trkpt><trkpt lat="42.571920697025554" lon="11.434591463662995"><ele>82.0</ele><time>2026-04-30T09:01:36Z</time></trkpt><trkpt lat="42.57206506404498" lon="11.434831325367188"><ele>83.0</ele><time>2026-04-30T09:01:37Z</time></trkpt><trkpt lat="42.57220405412709" lon="11.435048214310727"><ele>84.0</ele><time>2026-04-30T09:01:38Z</time></trkpt><trkpt lat="42.572331607136014" lon="11.435259619946862"><ele>84.0</ele><time>2026-04-30T09:01:39Z</time></trkpt><trkpt lat="42.572450825132165" lon="11.435457367735676"><ele>84.0</ele><time>2026-04-30T09:01:40Z</time></trkpt><trkpt lat="42.5725645895206" lon="11.435635433820568"><ele>84.0</ele><time>2026-04-30T09:01:41Z</time></trkpt><trkpt lat="42.57271240248353" lon="11.435787764060386"><ele>84.33333333333333</ele><time>2026-04-30T09:01:42Z</time></trkpt><trkpt lat="42.572870688178" lon="11.435813660132712"><ele>84.66666666666666</ele><time>2026-04-30T09:01:43Z</time></trkpt><trkpt lat="42.57302471867634" lon="11.43583787737418"><ele>85.0</ele><time>2026-04-30T09:01:44Z</time></trkpt><trkpt lat="42.57326436727855" lon="11.435850320950678"><ele>85.0</ele><time>2026-04-30T09:01:45Z</time></trkpt><trkpt lat="42.573412816956086" lon="11.435933312806183"><ele>85.0</ele><time>2026-04-30T09:01:46Z</time></trkpt><trkpt lat="42.5735411688121" lon="11.436099418570496"><ele>85.0</ele><time>2026-04-30T09:01:47Z</time></trkpt><trkpt lat="42.573641819573226" lon="11.436296568544124"><ele>86.33333333333333</ele><time>2026-04-30T09:01:48Z</time></trkpt><trkpt lat="42.57375645266258" lon="11.43650058116451"><ele>87.66666666666667</ele><time>2026-04-30T09:01:49Z</time></trkpt><trkpt lat="42.57386608557139" lon="11.436727275577361"><ele>89.0</ele><time>2026-04-30T09:01:50Z</time></trkpt><trkpt lat="42.57398650216773" lon="11.436950362260818"><ele>89.33333333333334</ele><time>2026-04-30T09:01:51Z</time></trkpt><trkpt lat="42.57408995131874" lon="11.437192905323085"><ele>89.66666666666667</ele><time>2026-04-30T09:01:52Z</time></trkpt><trkpt lat="42.574208006986304" lon="11.437428439927226"><ele>90.0</ele><time>2026-04-30T09:01:53Z</time></trkpt><trkpt lat="42.57433930125663" lon="11.437652124044352"><ele>90.0</ele><time>2026-04-30T09:01:54Z</time></trkpt><trkpt lat="42.57445855405662" lon="11.437891445595081"><ele>90.0</ele><time>2026-04-30T09:01:55Z</time></trkpt><trkpt lat="42.574578829598174" lon="11.438128829558028"><ele>90.0</ele><time>2026-04-30T09:01:56Z</time></trkpt><trkpt lat="42.57468306196048" lon="11.438376229126026"><ele>90.66666666666667</ele><time>2026-04-30T09:01:57Z</time></trkpt><trkpt lat="42.57481622251084" lon="11.438599098659749"><ele>91.33333333333334</ele><time>2026-04-30T09:01:58Z</time></trkpt><trkpt lat="42.574934671608034" lon="11.438831262414643"><ele>92.0</ele><time>2026-04-30T09:01:59Z</time></trkpt><trkpt lat="42.57505707877276" lon="11.439056805022272"><ele>92.66666666666667</ele><time>2026-04-30T09:02:00Z</time></trkpt><trkpt lat="42.57519554801125" lon="11.439256917387677"><ele>93.33333333333333</ele><time>2026-04-30T09:02:01Z</time></trkpt><trkpt lat="42.57535810847589" lon="11.439431807586212"><ele>94.0</ele><time>2026-04-30T09:02:02Z</time></trkpt><trkpt lat="42.57551355634276" lon="11.439608515611107"><ele>94.66666666666666</ele><time>2026-04-30T09:02:03Z</time></trkpt><trkpt lat="42.575665435577235" lon="11.439782589949221"><ele>95.33333333333333</ele><time>2026-04-30T09:02:04Z</time></trkpt><trkpt lat="42.57582278200914" lon="11.439963427584198"><ele>96.0</ele><time>2026-04-30T09:02:05Z</time></trkpt><trkpt lat="42.57598168537166" lon="11.44014386601773"><ele>96.0</ele><time>2026-04-30T09:02:06Z</time></trkpt><trkpt lat="42.576129542822954" lon="11.440318272260622"><ele>96.0</ele><time>2026-04-30T09:02:07Z</time></trkpt><trkpt lat="42.57626890926636" lon="11.440482218924824"><ele>96.0</ele><time>2026-04-30T09:02:08Z</time></trkpt><trkpt lat="42.57638852242684" lon="11.440663213972652"><ele>97.0</ele><time>2026-04-30T09:02:08.999Z</time></trkpt><trkpt lat="42.57648419925216" lon="11.440863417610084"><ele>98.0</ele><time>2026-04-30T09:02:09.999Z</time></trkpt><trkpt lat="42.57655711992355" lon="11.441084919223128"><ele>99.0</ele><time>2026-04-30T09:02:10.999Z</time></trkpt><trkpt lat="42.576609226874766" lon="11.441327299433132"><ele>99.0</ele><time>2026-04-30T09:02:11.999Z</time></trkpt><trkpt lat="42.576622074258594" lon="11.441560569638073"><ele>99.0</ele><time>2026-04-30T09:02:12.999Z</time></trkpt><trkpt lat="42.57660886383703" lon="11.441797539405375"><ele>99.0</ele><time>2026-04-30T09:02:13.999Z</time></trkpt><trkpt lat="42.576573994264244" lon="11.442016582701648"><ele>98.33333333333334</ele><time>2026-04-30T09:02:14.999Z</time></trkpt><trkpt lat="42.576543976924334" lon="11.442232813746198"><ele>97.66666666666667</ele><time>2026-04-30T09:02:15.999Z</time></trkpt><trkpt lat="42.57653112913796" lon="11.442451545178727"><ele>97.0</ele><time>2026-04-30T09:02:16.999Z</time></trkpt><trkpt lat="42.57652508363485" lon="11.442642615703638"><ele>97.0</ele><time>2026-04-30T09:02:17.999Z</time></trkpt><trkpt lat="42.57650505923665" lon="11.44281253856817"><ele>97.0</ele><time>2026-04-30T09:02:18.999Z</time></trkpt><trkpt lat="42.57646936461859" lon="11.44295254715605"><ele>97.0</ele><time>2026-04-30T09:02:19.999Z</time></trkpt><trkpt lat="42.57642038188361" lon="11.443072924634999"><ele>97.0</ele><time>2026-04-30T09:02:20.999Z</time></trkpt><trkpt lat="42.57637416045317" lon="11.443197076776462"><ele>97.0</ele><time>2026-04-30T09:02:21.999Z</time></trkpt><trkpt lat="42.57632803929082" lon="11.44330476426615"><ele>96.8</ele><time>2026-04-30T09:02:22.999Z</time></trkpt><trkpt lat="42.57626570038722" lon="11.443418187703124"><ele>96.6</ele><time>2026-04-30T09:02:23.999Z</time></trkpt><trkpt lat="42.5761825791741" lon="11.443522975083997"><ele>96.39999999999999</ele><time>2026-04-30T09:02:24.999Z</time></trkpt><trkpt lat="42.57609460296045" lon="11.443604683171829"><ele>96.19999999999999</ele><time>2026-04-30T09:02:25.999Z</time></trkpt><trkpt lat="42.57601180376337" lon="11.44365065088487"><ele>96.0</ele><time>2026-04-30T09:02:26.999Z</time></trkpt><trkpt lat="42.57594149913164" lon="11.443700862196325"><ele>96.0</ele><time>2026-04-30T09:02:27.999Z</time></trkpt><trkpt lat="42.57588184363992" lon="11.443747258816279"><ele>96.0</ele><time>2026-04-30T09:02:28.999Z</time></trkpt><trkpt lat="42.57579439164911" lon="11.443776464214286"><ele>96.0</ele><time>2026-04-30T09:02:30.999Z</time></trkpt><trkpt lat="42.5756861572027" lon="11.443752419642642"><ele>96.0</ele><time>2026-04-30T09:02:32.999Z</time></trkpt><trkpt lat="42.57562050977613" lon="11.443764313152816"><ele>96.0</ele><time>2026-04-30T09:02:33.999Z</time></trkpt><trkpt lat="42.5755452162673" lon="11.443784765056947"><ele>96.0</ele><time>2026-04-30T09:02:34.999Z</time></trkpt><trkpt lat="42.57547059764626" lon="11.44382404287014"><ele>96.8</ele><time>2026-04-30T09:02:35.999Z</time></trkpt><trkpt lat="42.57540674897123" lon="11.443914286494294"><ele>97.6</ele><time>2026-04-30T09:02:36.999Z</time></trkpt><trkpt lat="42.575375130413235" lon="11.444032911934645"><ele>98.4</ele><time>2026-04-30T09:02:37.999Z</time></trkpt><trkpt lat="42.57538950943143" lon="11.444171874967349"><ele>99.2</ele><time>2026-04-30T09:02:38.999Z</time></trkpt><trkpt lat="42.57541537005694" lon="11.44429566069507"><ele>100.0</ele><time>2026-04-30T09:02:39.999Z</time></trkpt><trkpt lat="42.57543116972751" lon="11.444430939656922"><ele>100.0</ele><time>2026-04-30T09:02:40.999Z</time></trkpt><trkpt lat="42.57540997705612" lon="11.444579301044076"><ele>100.0</ele><time>2026-04-30T09:02:41.999Z</time></trkpt><trkpt lat="42.57534782570068" lon="11.444729414625472"><ele>100.0</ele><time>2026-04-30T09:02:42.999Z</time></trkpt><trkpt lat="42.57528186695517" lon="11.444880435795648"><ele>100.0</ele><time>2026-04-30T09:02:43.999Z</time></trkpt><trkpt lat="42.57522038272635" lon="11.44503597894333"><ele>99.75</ele><time>2026-04-30T09:02:44.999Z</time></trkpt><trkpt lat="42.575165511111464" lon="11.445203243413593"><ele>99.5</ele><time>2026-04-30T09:02:45.999Z</time></trkpt><trkpt lat="42.57510931225611" lon="11.445381295348477"><ele>99.25</ele><time>2026-04-30T09:02:46.999Z</time></trkpt><trkpt lat="42.57504799804574" lon="11.445554771287238"><ele>99.0</ele><time>2026-04-30T09:02:47.999Z</time></trkpt><trkpt lat="42.57498408417665" lon="11.445727961346183"><ele>101.33333333333334</ele><time>2026-04-30T09:02:48.999Z</time></trkpt><trkpt lat="42.57491922473314" lon="11.445917879488059"><ele>103.66666666666667</ele><time>2026-04-30T09:02:49.999Z</time></trkpt><trkpt lat="42.57486333089601" lon="11.446111571378795"><ele>106.0</ele><time>2026-04-30T09:02:50.999Z</time></trkpt><trkpt lat="42.57481392123956" lon="11.446307876270698"><ele>109.33333333333334</ele><time>2026-04-30T09:02:51.999Z</time></trkpt><trkpt lat="42.57477017956583" lon="11.446523104804067"><ele>112.66666666666666</ele><time>2026-04-30T09:02:52.999Z</time></trkpt><trkpt lat="42.574726871226034" lon="11.446749550572775"><ele>116.0</ele><time>2026-04-30T09:02:53.999Z</time></trkpt><trkpt lat="42.57469115370649" lon="11.446990147861786"><ele>119.33333333333333</ele><time>2026-04-30T09:02:54.999Z</time></trkpt><trkpt lat="42.57465945084641" lon="11.447231831480726"><ele>122.66666666666666</ele><time>2026-04-30T09:02:55.999Z</time></trkpt><trkpt lat="42.5746242516872" lon="11.447492979362368"><ele>126.0</ele><time>2026-04-30T09:02:56.999Z</time></trkpt><trkpt lat="42.57457677891441" lon="11.447771027974833"><ele>124.33333333333334</ele><time>2026-04-30T09:02:57.999Z</time></trkpt><trkpt lat="42.57452866872072" lon="11.448051122791515"><ele>122.66666666666667</ele><time>2026-04-30T09:02:58.999Z</time></trkpt><trkpt lat="42.574485363466735" lon="11.448332692584087"><ele>121.0</ele><time>2026-04-30T09:02:59.999Z</time></trkpt><trkpt lat="42.574443429030765" lon="11.448619431937608"><ele>121.66666666666667</ele><time>2026-04-30T09:03:00.999Z</time></trkpt><trkpt lat="42.574398613467565" lon="11.448904346220024"><ele>122.33333333333334</ele><time>2026-04-30T09:03:01.999Z</time></trkpt><trkpt lat="42.57434797924672" lon="11.449171655298995"><ele>123.0</ele><time>2026-04-30T09:03:02.999Z</time></trkpt><trkpt lat="42.57429702832945" lon="11.44943683037314"><ele>125.33333333333334</ele><time>2026-04-30T09:03:04.001Z</time></trkpt><trkpt lat="42.57425777250372" lon="11.449701259109519"><ele>127.66666666666667</ele><time>2026-04-30T09:03:05.001Z</time></trkpt><trkpt lat="42.574227333315505" lon="11.449970721986647"><ele>130.0</ele><time>2026-04-30T09:03:06.001Z</time></trkpt><trkpt lat="42.574207339923106" lon="11.450239796514554"><ele>131.33333333333334</ele><time>2026-04-30T09:03:07.001Z</time></trkpt><trkpt lat="42.574199025008824" lon="11.45050455766447"><ele>132.66666666666666</ele><time>2026-04-30T09:03:08.001Z</time></trkpt><trkpt lat="42.57419441530539" lon="11.450762963338954"><ele>134.0</ele><time>2026-04-30T09:03:09.001Z</time></trkpt><trkpt lat="42.574197630732" lon="11.451019470007227"><ele>134.0</ele><time>2026-04-30T09:03:10.001Z</time></trkpt><trkpt lat="42.57420593703074" lon="11.451261761450569"><ele>134.0</ele><time>2026-04-30T09:03:11.001Z</time></trkpt><trkpt lat="42.57423825531493" lon="11.45149578113312"><ele>134.0</ele><time>2026-04-30T09:03:12.001Z</time></trkpt><trkpt lat="42.57429369062008" lon="11.451735094655845"><ele>135.0</ele><time>2026-04-30T09:03:13.001Z</time></trkpt><trkpt lat="42.57436038754283" lon="11.451974723293212"><ele>136.0</ele><time>2026-04-30T09:03:14.001Z</time></trkpt><trkpt lat="42.57444180209718" lon="11.452218974163408"><ele>137.0</ele><time>2026-04-30T09:03:15.001Z</time></trkpt><trkpt lat="42.57454606824946" lon="11.452446991913575"><ele>140.0</ele><time>2026-04-30T09:03:16.001Z</time></trkpt><trkpt lat="42.574690056093175" lon="11.452667027101922"><ele>143.0</ele><time>2026-04-30T09:03:17.001Z</time></trkpt><trkpt lat="42.5748093151035" lon="11.452895550498276"><ele>146.0</ele><time>2026-04-30T09:03:18.001Z</time></trkpt><trkpt lat="42.574931455862135" lon="11.453115850290986"><ele>146.0</ele><time>2026-04-30T09:03:19.001Z</time></trkpt><trkpt lat="42.57504690461855" lon="11.453331211966436"><ele>146.0</ele><time>2026-04-30T09:03:20Z</time></trkpt><trkpt lat="42.575153444025844" lon="11.453570513967117"><ele>146.0</ele><time>2026-04-30T09:03:21Z</time></trkpt><trkpt lat="42.575248480656825" lon="11.453809880949256"><ele>148.33333333333331</ele><time>2026-04-30T09:03:22Z</time></trkpt><trkpt lat="42.57531140618441" lon="11.454075068915204"><ele>150.66666666666666</ele><time>2026-04-30T09:03:23Z</time></trkpt><trkpt lat="42.57535160287227" lon="11.454348841383176"><ele>153.0</ele><time>2026-04-30T09:03:24Z</time></trkpt><trkpt lat="42.57535708989527" lon="11.454623084292013"><ele>155.0</ele><time>2026-04-30T09:03:25Z</time></trkpt><trkpt lat="42.57534954081853" lon="11.45490606234609"><ele>157.0</ele><time>2026-04-30T09:03:26Z</time></trkpt><trkpt lat="42.57531736405675" lon="11.455185991202029"><ele>159.0</ele><time>2026-04-30T09:03:27Z</time></trkpt><trkpt lat="42.57526105568156" lon="11.455461559001572"><ele>159.66666666666666</ele><time>2026-04-30T09:03:28Z</time></trkpt><trkpt lat="42.5751770680977" lon="11.455737865771036"><ele>160.33333333333331</ele><time>2026-04-30T09:03:29Z</time></trkpt><trkpt lat="42.57506747498049" lon="11.45600216497429"><ele>161.0</ele><time>2026-04-30T09:03:30Z</time></trkpt><trkpt lat="42.57492756206498" lon="11.456243078693678"><ele>161.0</ele><time>2026-04-30T09:03:31Z</time></trkpt><trkpt lat="42.57477328279769" lon="11.45647150096186"><ele>161.0</ele><time>2026-04-30T09:03:32Z</time></trkpt><trkpt lat="42.57460656612423" lon="11.456670491443552"><ele>163.66666666666666</ele><time>2026-04-30T09:03:33Z</time></trkpt><trkpt lat="42.57443560339967" lon="11.456857537442856"><ele>166.33333333333334</ele><time>2026-04-30T09:03:34Z</time></trkpt><trkpt lat="42.57426738364721" lon="11.457043174221967"><ele>169.0</ele><time>2026-04-30T09:03:35Z</time></trkpt><trkpt lat="42.57407432770711" lon="11.457240419918639"><ele>169.0</ele><time>2026-04-30T09:03:36Z</time></trkpt><trkpt lat="42.57389314585385" lon="11.45744606987228"><ele>169.0</ele><time>2026-04-30T09:03:37Z</time></trkpt><trkpt lat="42.57371026482259" lon="11.45765002163051"><ele>166.0</ele><time>2026-04-30T09:03:38Z</time></trkpt><trkpt lat="42.57352460008914" lon="11.45786001693169"><ele>163.0</ele><time>2026-04-30T09:03:39Z</time></trkpt><trkpt lat="42.573338540073216" lon="11.45808154094168"><ele>163.0</ele><time>2026-04-30T09:03:40Z</time></trkpt><trkpt lat="42.573170898205234" lon="11.458326599928474"><ele>163.0</ele><time>2026-04-30T09:03:41Z</time></trkpt><trkpt lat="42.573025042338635" lon="11.458590031160048"><ele>163.5</ele><time>2026-04-30T09:03:42Z</time></trkpt><trkpt lat="42.57290224643861" lon="11.458877997138686"><ele>164.0</ele><time>2026-04-30T09:03:43Z</time></trkpt><trkpt lat="42.57280577484632" lon="11.459184314614731"><ele>157.0</ele><time>2026-04-30T09:03:44Z</time></trkpt><trkpt lat="42.57272078155079" lon="11.459506134487311"><ele>150.0</ele><time>2026-04-30T09:03:45Z</time></trkpt><trkpt lat="42.5726494256401" lon="11.459835456526877"><ele>150.5</ele><time>2026-04-30T09:03:46Z</time></trkpt><trkpt lat="42.57257836178436" lon="11.46016323520872"><ele>151.0</ele><time>2026-04-30T09:03:47Z</time></trkpt><trkpt lat="42.57250218681669" lon="11.46048859931681"><ele>151.0</ele><time>2026-04-30T09:03:48Z</time></trkpt><trkpt lat="42.57241913189529" lon="11.460806654517823"><ele>151.0</ele><time>2026-04-30T09:03:49Z</time></trkpt><trkpt lat="42.57233541689706" lon="11.46112374696187"><ele>156.0</ele><time>2026-04-30T09:03:50Z</time></trkpt><trkpt lat="42.572254614164784" lon="11.461432318132522"><ele>161.0</ele><time>2026-04-30T09:03:51Z</time></trkpt><trkpt lat="42.572173689375475" lon="11.461739013943188"><ele>161.0</ele><time>2026-04-30T09:03:52Z</time></trkpt><trkpt lat="42.57209811221869" lon="11.462040150682816"><ele>161.0</ele><time>2026-04-30T09:03:53Z</time></trkpt><trkpt lat="42.57203835368159" lon="11.462344018633647"><ele>159.0</ele><time>2026-04-30T09:03:54Z</time></trkpt><trkpt lat="42.57195957722366" lon="11.462642226468203"><ele>157.0</ele><time>2026-04-30T09:03:55Z</time></trkpt><trkpt lat="42.57198185966725" lon="11.462973435955007"><ele>157.0</ele><time>2026-04-30T09:03:56Z</time></trkpt><trkpt lat="42.57198966926849" lon="11.463293724192361"><ele>157.0</ele><time>2026-04-30T09:03:57Z</time></trkpt><trkpt lat="42.572016767148995" lon="11.463616015698127"><ele>166.5</ele><time>2026-04-30T09:03:58Z</time></trkpt><trkpt lat="42.57205765423293" lon="11.463935634392849"><ele>176.0</ele><time>2026-04-30T09:03:59Z</time></trkpt><trkpt lat="42.57210143807448" lon="11.464255022362172"><ele>176.0</ele><time>2026-04-30T09:04:00Z</time></trkpt><trkpt lat="42.572142869619185" lon="11.46457256112277"><ele>176.0</ele><time>2026-04-30T09:04:01Z</time></trkpt><trkpt lat="42.572182173270036" lon="11.464898616166328"><ele>173.5</ele><time>2026-04-30T09:04:02Z</time></trkpt><trkpt lat="42.5722161052628" lon="11.465220838309829"><ele>171.0</ele><time>2026-04-30T09:04:03Z</time></trkpt><trkpt lat="42.57225163939955" lon="11.465545274061977"><ele>171.0</ele><time>2026-04-30T09:04:04Z</time></trkpt><trkpt lat="42.57228452929441" lon="11.465864782456093"><ele>171.0</ele><time>2026-04-30T09:04:05Z</time></trkpt><trkpt lat="42.57231020520082" lon="11.466187304040254"><ele>173.5</ele><time>2026-04-30T09:04:06Z</time></trkpt><trkpt lat="42.57232992436154" lon="11.466510786831789"><ele>176.0</ele><time>2026-04-30T09:04:07Z</time></trkpt><trkpt lat="42.57234265107167" lon="11.466829314837652"><ele>179.0</ele><time>2026-04-30T09:04:07.999Z</time></trkpt><trkpt lat="42.57236205297531" lon="11.46715367254321"><ele>182.0</ele><time>2026-04-30T09:04:08.999Z</time></trkpt><trkpt lat="42.572389877533446" lon="11.46746988981002"><ele>182.0</ele><time>2026-04-30T09:04:09.999Z</time></trkpt><trkpt lat="42.57241158841637" lon="11.467771109760934"><ele>182.0</ele><time>2026-04-30T09:04:10.999Z</time></trkpt><trkpt lat="42.57240926291437" lon="11.468061248570153"><ele>182.0</ele><time>2026-04-30T09:04:11.999Z</time></trkpt><trkpt lat="42.572376400433846" lon="11.468351335014036"><ele>184.66666666666666</ele><time>2026-04-30T09:04:12.999Z</time></trkpt><trkpt lat="42.57231121087292" lon="11.46862494699888"><ele>187.33333333333334</ele><time>2026-04-30T09:04:13.999Z</time></trkpt><trkpt lat="42.5722513463193" lon="11.46886881125166"><ele>190.0</ele><time>2026-04-30T09:04:14.999Z</time></trkpt><trkpt lat="42.572240628567805" lon="11.469092018809802"><ele>190.0</ele><time>2026-04-30T09:04:15.999Z</time></trkpt><trkpt lat="42.572260960773484" lon="11.46934170338328"><ele>190.0</ele><time>2026-04-30T09:04:16.999Z</time></trkpt><trkpt lat="42.57232789061969" lon="11.469532018936153"><ele>190.0</ele><time>2026-04-30T09:04:17.999Z</time></trkpt><trkpt lat="42.57242744557289" lon="11.46973001453808"><ele>190.0</ele><time>2026-04-30T09:04:18.999Z</time></trkpt><trkpt lat="42.572530440111244" lon="11.469879136162021"><ele>190.0</ele><time>2026-04-30T09:04:19.999Z</time></trkpt><trkpt lat="42.57264131936454" lon="11.46999966214474"><ele>190.0</ele><time>2026-04-30T09:04:20.999Z</time></trkpt><trkpt lat="42.572741352332876" lon="11.470127511945986"><ele>190.0</ele><time>2026-04-30T09:04:21.999Z</time></trkpt><trkpt lat="42.57283373578822" lon="11.47026839291143"><ele>192.75</ele><time>2026-04-30T09:04:22.999Z</time></trkpt><trkpt lat="42.57296238027032" lon="11.470374461409797"><ele>195.5</ele><time>2026-04-30T09:04:23.999Z</time></trkpt><trkpt lat="42.57306777222296" lon="11.470491389014885"><ele>198.25</ele><time>2026-04-30T09:04:24.999Z</time></trkpt><trkpt lat="42.5731278511135" lon="11.470619319910176"><ele>201.0</ele><time>2026-04-30T09:04:25.999Z</time></trkpt><trkpt lat="42.573198035396224" lon="11.470774024092412"><ele>201.0</ele><time>2026-04-30T09:04:26.999Z</time></trkpt><trkpt lat="42.573248926327686" lon="11.470938613508803"><ele>201.0</ele><time>2026-04-30T09:04:27.999Z</time></trkpt><trkpt lat="42.57333069388683" lon="11.47111413995075"><ele>201.0</ele><time>2026-04-30T09:04:28.999Z</time></trkpt><trkpt lat="42.573429095448894" lon="11.471254012612787"><ele>201.0</ele><time>2026-04-30T09:04:29.999Z</time></trkpt><trkpt lat="42.57355169701587" lon="11.471368065221661"><ele>199.66666666666669</ele><time>2026-04-30T09:04:30.999Z</time></trkpt><trkpt lat="42.57367360054941" lon="11.471467392382056"><ele>198.33333333333334</ele><time>2026-04-30T09:04:31.999Z</time></trkpt><trkpt lat="42.573838607012824" lon="11.471537351972103"><ele>197.0</ele><time>2026-04-30T09:04:32.999Z</time></trkpt><trkpt lat="42.57398159469057" lon="11.47166781901134"><ele>200.66666666666669</ele><time>2026-04-30T09:04:33.999Z</time></trkpt><trkpt lat="42.57408977018582" lon="11.471833567745614"><ele>204.33333333333331</ele><time>2026-04-30T09:04:34.999Z</time></trkpt><trkpt lat="42.57420038693149" lon="11.47200788549445"><ele>208.0</ele><time>2026-04-30T09:04:35.999Z</time></trkpt><trkpt lat="42.57429087848752" lon="11.472208765949484"><ele>208.0</ele><time>2026-04-30T09:04:36.999Z</time></trkpt><trkpt lat="42.574393764152504" lon="11.472405169446251"><ele>208.0</ele><time>2026-04-30T09:04:37.999Z</time></trkpt><trkpt lat="42.574490816320285" lon="11.472600158814432"><ele>208.0</ele><time>2026-04-30T09:04:38.999Z</time></trkpt><trkpt lat="42.57461123083096" lon="11.472788867663123"><ele>211.0</ele><time>2026-04-30T09:04:39.999Z</time></trkpt><trkpt lat="42.57474093721119" lon="11.472965142161865"><ele>214.0</ele><time>2026-04-30T09:04:40.999Z</time></trkpt><trkpt lat="42.57486754098364" lon="11.473138902638016"><ele>217.0</ele><time>2026-04-30T09:04:41.999Z</time></trkpt><trkpt lat="42.5750049312171" lon="11.473298366941398"><ele>217.0</ele><time>2026-04-30T09:04:42.999Z</time></trkpt><trkpt lat="42.57514725302566" lon="11.473426474853161"><ele>217.0</ele><time>2026-04-30T09:04:43.999Z</time></trkpt><trkpt lat="42.575291165459575" lon="11.473533348505052"><ele>217.0</ele><time>2026-04-30T09:04:44.999Z</time></trkpt><trkpt lat="42.57542830647947" lon="11.473651315083968"><ele>220.33333333333331</ele><time>2026-04-30T09:04:45.999Z</time></trkpt><trkpt lat="42.57555938216955" lon="11.473785245677258"><ele>223.66666666666669</ele><time>2026-04-30T09:04:46.999Z</time></trkpt><trkpt lat="42.57565540899003" lon="11.47394178127979"><ele>227.0</ele><time>2026-04-30T09:04:47.999Z</time></trkpt><trkpt lat="42.575730792450216" lon="11.474141362580987"><ele>227.0</ele><time>2026-04-30T09:04:48.999Z</time></trkpt><trkpt lat="42.57579978298517" lon="11.474362734538426"><ele>227.0</ele><time>2026-04-30T09:04:49.999Z</time></trkpt><trkpt lat="42.57585327161135" lon="11.474589521959997"><ele>227.0</ele><time>2026-04-30T09:04:50.999Z</time></trkpt><trkpt lat="42.57590352637909" lon="11.47483583088674"><ele>227.66666666666669</ele><time>2026-04-30T09:04:51.999Z</time></trkpt><trkpt lat="42.57596953906175" lon="11.475084818007533"><ele>228.33333333333331</ele><time>2026-04-30T09:04:52.999Z</time></trkpt><trkpt lat="42.57604647412113" lon="11.475337577445035"><ele>229.0</ele><time>2026-04-30T09:04:53.999Z</time></trkpt><trkpt lat="42.57612576614749" lon="11.47559647587198"><ele>232.33333333333331</ele><time>2026-04-30T09:04:54.999Z</time></trkpt><trkpt lat="42.57619960795881" lon="11.475863589042296"><ele>235.66666666666669</ele><time>2026-04-30T09:04:55.999Z</time></trkpt><trkpt lat="42.57627722944588" lon="11.476134563908062"><ele>239.0</ele><time>2026-04-30T09:04:56.999Z</time></trkpt><trkpt lat="42.57635206774407" lon="11.476398929182034"><ele>239.0</ele><time>2026-04-30T09:04:57.999Z</time></trkpt><trkpt lat="42.5764279512402" lon="11.47666176652274"><ele>239.0</ele><time>2026-04-30T09:04:58.999Z</time></trkpt><trkpt lat="42.57650007861245" lon="11.47692292913861"><ele>239.0</ele><time>2026-04-30T09:04:59.999Z</time></trkpt><trkpt lat="42.57655811829663" lon="11.477203672066528"><ele>238.0</ele><time>2026-04-30T09:05:00.999Z</time></trkpt><trkpt lat="42.57659528798778" lon="11.477480690083373"><ele>237.0</ele><time>2026-04-30T09:05:01.999Z</time></trkpt><trkpt lat="42.57661754435569" lon="11.477788148337433"><ele>236.0</ele><time>2026-04-30T09:05:02.999Z</time></trkpt><trkpt lat="42.576615099363295" lon="11.478092803424717"><ele>235.5</ele><time>2026-04-30T09:05:03.999Z</time></trkpt><trkpt lat="42.57664968750687" lon="11.47839440262325"><ele>235.0</ele><time>2026-04-30T09:05:04.998Z</time></trkpt><trkpt lat="42.576672984042034" lon="11.478702261945617"><ele>237.5</ele><time>2026-04-30T09:05:05.998Z</time></trkpt><trkpt lat="42.5766830006548" lon="11.479018435612172"><ele>240.0</ele><time>2026-04-30T09:05:06.998Z</time></trkpt><trkpt lat="42.576704633766866" lon="11.479329959025108"><ele>242.5</ele><time>2026-04-30T09:05:07.998Z</time></trkpt><trkpt lat="42.576726250117574" lon="11.479641241068373"><ele>245.0</ele><time>2026-04-30T09:05:08.998Z</time></trkpt><trkpt lat="42.57674806228923" lon="11.4799537385134"><ele>245.0</ele><time>2026-04-30T09:05:10.001Z</time></trkpt><trkpt lat="42.57678172069698" lon="11.48026019064162"><ele>245.0</ele><time>2026-04-30T09:05:11.001Z</time></trkpt><trkpt lat="42.5768064782225" lon="11.480570617021872"><ele>245.5</ele><time>2026-04-30T09:05:12Z</time></trkpt><trkpt lat="42.57683662663889" lon="11.480875669396317"><ele>246.0</ele><time>2026-04-30T09:05:13.001Z</time></trkpt><trkpt lat="42.576883123446514" lon="11.481181655083502"><ele>245.5</ele><time>2026-04-30T09:05:14.001Z</time></trkpt><trkpt lat="42.57694413062693" lon="11.48147811634139"><ele>245.0</ele><time>2026-04-30T09:05:15Z</time></trkpt><trkpt lat="42.57701392421252" lon="11.481776544026314"><ele>245.5</ele><time>2026-04-30T09:05:16Z</time></trkpt><trkpt lat="42.57709789836272" lon="11.482067372120314"><ele>246.0</ele><time>2026-04-30T09:05:17Z</time></trkpt><trkpt lat="42.577184915886875" lon="11.482359021723441"><ele>247.5</ele><time>2026-04-30T09:05:18Z</time></trkpt><trkpt lat="42.577269216116264" lon="11.482653148186317"><ele>249.0</ele><time>2026-04-30T09:05:19Z</time></trkpt><trkpt lat="42.57734906054624" lon="11.48294494628363"><ele>251.5</ele><time>2026-04-30T09:05:20Z</time></trkpt><trkpt lat="42.57742630926342" lon="11.483237266936094"><ele>254.0</ele><time>2026-04-30T09:05:21Z</time></trkpt><trkpt lat="42.577504427523785" lon="11.48352783171394"><ele>254.0</ele><time>2026-04-30T09:05:22Z</time></trkpt><trkpt lat="42.5775859429854" lon="11.48381575799714"><ele>254.0</ele><time>2026-04-30T09:05:23Z</time></trkpt><trkpt lat="42.57766883271581" lon="11.48410171705627"><ele>254.0</ele><time>2026-04-30T09:05:24Z</time></trkpt><trkpt lat="42.57774930383851" lon="11.48439090437095"><ele>254.0</ele><time>2026-04-30T09:05:25Z</time></trkpt><trkpt lat="42.57782826157573" lon="11.484677505778674"><ele>255.0</ele><time>2026-04-30T09:05:26Z</time></trkpt><trkpt lat="42.57790578933582" lon="11.484969615664035"><ele>256.0</ele><time>2026-04-30T09:05:27Z</time></trkpt><trkpt lat="42.57798170899893" lon="11.485257136734866"><ele>255.0</ele><time>2026-04-30T09:05:28Z</time></trkpt><trkpt lat="42.578059860204746" lon="11.485546926587459"><ele>254.0</ele><time>2026-04-30T09:05:29Z</time></trkpt><trkpt lat="42.578118156289555" lon="11.485840218550758"><ele>254.0</ele><time>2026-04-30T09:05:30Z</time></trkpt><trkpt lat="42.578204443634654" lon="11.486123073769503"><ele>254.0</ele><time>2026-04-30T09:05:31Z</time></trkpt><trkpt lat="42.57827487557319" lon="11.486413153527053"><ele>253.5</ele><time>2026-04-30T09:05:32Z</time></trkpt><trkpt lat="42.57835697585001" lon="11.4867104177922"><ele>253.0</ele><time>2026-04-30T09:05:33Z</time></trkpt><trkpt lat="42.57845064063692" lon="11.487008497443442"><ele>251.5</ele><time>2026-04-30T09:05:34Z</time></trkpt><trkpt lat="42.57856524144612" lon="11.487310696599284"><ele>250.0</ele><time>2026-04-30T09:05:35Z</time></trkpt><trkpt lat="42.57866618091109" lon="11.487622268583587"><ele>250.0</ele><time>2026-04-30T09:05:36Z</time></trkpt><trkpt lat="42.57877692377443" lon="11.48793162107256"><ele>250.0</ele><time>2026-04-30T09:05:37Z</time></trkpt><trkpt lat="42.57888806915094" lon="11.48824212772665"><ele>250.0</ele><time>2026-04-30T09:05:38Z</time></trkpt><trkpt lat="42.57900034942107" lon="11.488555822160865"><ele>250.0</ele><time>2026-04-30T09:05:39Z</time></trkpt><trkpt lat="42.57911263002901" lon="11.488870023277512"><ele>249.0</ele><time>2026-04-30T09:05:40Z</time></trkpt><trkpt lat="42.57922495983258" lon="11.48918688890423"><ele>248.0</ele><time>2026-04-30T09:05:41Z</time></trkpt><trkpt lat="42.57933649180069" lon="11.489493948544963"><ele>250.0</ele><time>2026-04-30T09:05:42Z</time></trkpt><trkpt lat="42.57944004629839" lon="11.489828269959167"><ele>252.0</ele><time>2026-04-30T09:05:43Z</time></trkpt><trkpt lat="42.57953194246632" lon="11.490126770556506"><ele>252.0</ele><time>2026-04-30T09:05:44Z</time></trkpt><trkpt lat="42.57962278434058" lon="11.490413415738187"><ele>252.0</ele><time>2026-04-30T09:05:45Z</time></trkpt><trkpt lat="42.57970751025479" lon="11.490684819826416"><ele>252.0</ele><time>2026-04-30T09:05:46Z</time></trkpt><trkpt lat="42.579787383259095" lon="11.490956437714168"><ele>250.33333333333331</ele><time>2026-04-30T09:05:47Z</time></trkpt><trkpt lat="42.579873841336735" lon="11.491211247050074"><ele>248.66666666666666</ele><time>2026-04-30T09:05:48Z</time></trkpt><trkpt lat="42.57998639253333" lon="11.491472216855307"><ele>247.0</ele><time>2026-04-30T09:05:49Z</time></trkpt><trkpt lat="42.58012530647857" lon="11.491714006152193"><ele>245.66666666666666</ele><time>2026-04-30T09:05:50Z</time></trkpt><trkpt lat="42.58028747361851" lon="11.491885925737474"><ele>244.33333333333331</ele><time>2026-04-30T09:05:51Z</time></trkpt><trkpt lat="42.58046350487679" lon="11.492042373825843"><ele>243.0</ele><time>2026-04-30T09:05:52Z</time></trkpt><trkpt lat="42.580636043956" lon="11.492162779733059"><ele>245.66666666666669</ele><time>2026-04-30T09:05:53Z</time></trkpt><trkpt lat="42.580815508147374" lon="11.49225338574227"><ele>248.33333333333334</ele><time>2026-04-30T09:05:54Z</time></trkpt><trkpt lat="42.58096341495851" lon="11.492346255461564"><ele>251.0</ele><time>2026-04-30T09:05:55Z</time></trkpt><trkpt lat="42.58107899682533" lon="11.49244604137838"><ele>251.0</ele><time>2026-04-30T09:05:56Z</time></trkpt><trkpt lat="42.58117038562578" lon="11.49256638694884"><ele>251.0</ele><time>2026-04-30T09:05:57Z</time></trkpt><trkpt lat="42.58123641454839" lon="11.492731329556921"><ele>251.0</ele><time>2026-04-30T09:05:58Z</time></trkpt><trkpt lat="42.581281171804655" lon="11.492889485944387"><ele>251.0</ele><time>2026-04-30T09:05:59Z</time></trkpt><trkpt lat="42.581316397960435" lon="11.493033383605999"><ele>255.0</ele><time>2026-04-30T09:06:00Z</time></trkpt><trkpt lat="42.5813278866363" lon="11.493269919997495"><ele>259.0</ele><time>2026-04-30T09:06:01Z</time></trkpt><trkpt lat="42.58130209717425" lon="11.493538223160732"><ele>263.0</ele><time>2026-04-30T09:06:02Z</time></trkpt><trkpt lat="42.58135681159488" lon="11.493793139424751"><ele>263.0</ele><time>2026-04-30T09:06:03Z</time></trkpt><trkpt lat="42.581437446953025" lon="11.494038750262355"><ele>263.0</ele><time>2026-04-30T09:06:04Z</time></trkpt><trkpt lat="42.58154497929193" lon="11.494243316691623"><ele>263.0</ele><time>2026-04-30T09:06:05Z</time></trkpt><trkpt lat="42.58172650349583" lon="11.49441745013267"><ele>262.6666666666667</ele><time>2026-04-30T09:06:06Z</time></trkpt><trkpt lat="42.58186899682412" lon="11.494616485050326"><ele>262.3333333333333</ele><time>2026-04-30T09:06:07Z</time></trkpt><trkpt lat="42.581997502623004" lon="11.494827056257188"><ele>262.0</ele><time>2026-04-30T09:06:08Z</time></trkpt><trkpt lat="42.58212272704844" lon="11.495047956235863"><ele>263.3333333333333</ele><time>2026-04-30T09:06:09Z</time></trkpt><trkpt lat="42.58225626914075" lon="11.49525906637127"><ele>264.6666666666667</ele><time>2026-04-30T09:06:10Z</time></trkpt><trkpt lat="42.582376310510035" lon="11.49548722186585"><ele>266.0</ele><time>2026-04-30T09:06:11Z</time></trkpt><trkpt lat="42.58247818095985" lon="11.49573511620242"><ele>266.0</ele><time>2026-04-30T09:06:12Z</time></trkpt><trkpt lat="42.58259060785019" lon="11.495954729224666"><ele>266.0</ele><time>2026-04-30T09:06:12.999Z</time></trkpt><trkpt lat="42.58272904000479" lon="11.496141424349739"><ele>266.0</ele><time>2026-04-30T09:06:13.999Z</time></trkpt><trkpt lat="42.58290528469112" lon="11.49626654308287"><ele>267.33333333333337</ele><time>2026-04-30T09:06:14.999Z</time></trkpt><trkpt lat="42.58310128251784" lon="11.496351811392607"><ele>268.6666666666667</ele><time>2026-04-30T09:06:15.999Z</time></trkpt><trkpt lat="42.583288911487365" lon="11.496388188027783"><ele>270.0</ele><time>2026-04-30T09:06:16.999Z</time></trkpt><trkpt lat="42.58346270876596" lon="11.496401351060257"><ele>270.0</ele><time>2026-04-30T09:06:17.999Z</time></trkpt><trkpt lat="42.58363122336161" lon="11.496442290612707"><ele>270.0</ele><time>2026-04-30T09:06:18.999Z</time></trkpt><trkpt lat="42.5837885095671" lon="11.49651225827359"><ele>270.0</ele><time>2026-04-30T09:06:19.999Z</time></trkpt><trkpt lat="42.58393354387548" lon="11.496631829941071"><ele>270.6666666666667</ele><time>2026-04-30T09:06:20.999Z</time></trkpt><trkpt lat="42.58407347125771" lon="11.49675954369936"><ele>271.33333333333337</ele><time>2026-04-30T09:06:21.999Z</time></trkpt><trkpt lat="42.584227652238006" lon="11.496909389842928"><ele>272.0</ele><time>2026-04-30T09:06:22.999Z</time></trkpt><trkpt lat="42.58439125107555" lon="11.497037566012573"><ele>272.6666666666667</ele><time>2026-04-30T09:06:23.999Z</time></trkpt><trkpt lat="42.58455621940983" lon="11.497161694932563"><ele>273.3333333333333</ele><time>2026-04-30T09:06:24.999Z</time></trkpt><trkpt lat="42.584722946861774" lon="11.497283040134784"><ele>274.0</ele><time>2026-04-30T09:06:25.999Z</time></trkpt><trkpt lat="42.584894458066756" lon="11.497398204557744"><ele>274.0</ele><time>2026-04-30T09:06:26.999Z</time></trkpt><trkpt lat="42.58508534432213" lon="11.497496666329308"><ele>274.0</ele><time>2026-04-30T09:06:27.999Z</time></trkpt><trkpt lat="42.58527703336586" lon="11.497552883917834"><ele>274.0</ele><time>2026-04-30T09:06:28.999Z</time></trkpt><trkpt lat="42.5854766831706" lon="11.497622204607856"><ele>275.66666666666663</ele><time>2026-04-30T09:06:29.999Z</time></trkpt><trkpt lat="42.58567267206712" lon="11.497695671413561"><ele>277.3333333333333</ele><time>2026-04-30T09:06:30.999Z</time></trkpt><trkpt lat="42.58587061148115" lon="11.497780398497284"><ele>279.0</ele><time>2026-04-30T09:06:31.999Z</time></trkpt><trkpt lat="42.58606737486252" lon="11.497862261541357"><ele>279.3333333333333</ele><time>2026-04-30T09:06:32.999Z</time></trkpt><trkpt lat="42.586263084980565" lon="11.497942042247438"><ele>279.66666666666663</ele><time>2026-04-30T09:06:33.999Z</time></trkpt><trkpt lat="42.58645818441542" lon="11.498035661860339"><ele>280.0</ele><time>2026-04-30T09:06:34.999Z</time></trkpt><trkpt lat="42.58664467325275" lon="11.498148902904827"><ele>280.0</ele><time>2026-04-30T09:06:35.999Z</time></trkpt><trkpt lat="42.58682953052251" lon="11.498272212833607"><ele>280.0</ele><time>2026-04-30T09:06:36.999Z</time></trkpt><trkpt lat="42.58701370078869" lon="11.498395444904304"><ele>280.0</ele><time>2026-04-30T09:06:37.999Z</time></trkpt><trkpt lat="42.58720226675033" lon="11.498521207457653"><ele>280.0</ele><time>2026-04-30T09:06:38.999Z</time></trkpt><trkpt lat="42.58738395811112" lon="11.498649616668434"><ele>280.0</ele><time>2026-04-30T09:06:39.999Z</time></trkpt><trkpt lat="42.58757355841211" lon="11.498775720511219"><ele>280.0</ele><time>2026-04-30T09:06:40.999Z</time></trkpt><trkpt lat="42.587761056415594" lon="11.498901418835272"><ele>282.66666666666663</ele><time>2026-04-30T09:06:41.999Z</time></trkpt><trkpt lat="42.58793332381428" lon="11.499047672159119"><ele>285.3333333333333</ele><time>2026-04-30T09:06:42.999Z</time></trkpt><trkpt lat="42.58808968591156" lon="11.499221375676035"><ele>288.0</ele><time>2026-04-30T09:06:43.999Z</time></trkpt><trkpt lat="42.58823873067223" lon="11.499430379678888"><ele>287.6666666666667</ele><time>2026-04-30T09:06:44.999Z</time></trkpt><trkpt lat="42.58836921173328" lon="11.499625615412974"><ele>287.33333333333337</ele><time>2026-04-30T09:06:45.999Z</time></trkpt><trkpt lat="42.588491285359304" lon="11.49982691469053"><ele>287.0</ele><time>2026-04-30T09:06:46.999Z</time></trkpt><trkpt lat="42.588602320302314" lon="11.500036577307773"><ele>289.33333333333337</ele><time>2026-04-30T09:06:47.999Z</time></trkpt><trkpt lat="42.58870452495295" lon="11.500250838826929"><ele>291.6666666666667</ele><time>2026-04-30T09:06:48.999Z</time></trkpt><trkpt lat="42.58880379055309" lon="11.50046549283604"><ele>294.0</ele><time>2026-04-30T09:06:49.999Z</time></trkpt><trkpt lat="42.588911354123866" lon="11.500672098811188"><ele>294.0</ele><time>2026-04-30T09:06:50.999Z</time></trkpt><trkpt lat="42.58901801841348" lon="11.500871537826095"><ele>294.0</ele><time>2026-04-30T09:06:51.999Z</time></trkpt><trkpt lat="42.589119094399145" lon="11.501056742275127"><ele>294.0</ele><time>2026-04-30T09:06:52.999Z</time></trkpt><trkpt lat="42.5891857166235" lon="11.501257172642667"><ele>292.0</ele><time>2026-04-30T09:06:53.999Z</time></trkpt><trkpt lat="42.589271004909584" lon="11.501419902824841"><ele>290.0</ele><time>2026-04-30T09:06:54.999Z</time></trkpt><trkpt lat="42.58935070845241" lon="11.501571401472019"><ele>288.0</ele><time>2026-04-30T09:06:55.999Z</time></trkpt><trkpt lat="42.58942476184161" lon="11.501712056915288"><ele>286.0</ele><time>2026-04-30T09:06:56.999Z</time></trkpt><trkpt lat="42.58948696861043" lon="11.501833477779773"><ele>288.66666666666663</ele><time>2026-04-30T09:06:57.999Z</time></trkpt><trkpt lat="42.589542539897955" lon="11.50194333836794"><ele>291.3333333333333</ele><time>2026-04-30T09:06:58.999Z</time></trkpt><trkpt lat="42.58958770878375" lon="11.502042720438068"><ele>294.0</ele><time>2026-04-30T09:06:59.999Z</time></trkpt><trkpt lat="42.58962806943391" lon="11.502140167189571"><ele>296.6666666666667</ele><time>2026-04-30T09:07:00.999Z</time></trkpt><trkpt lat="42.58966109203843" lon="11.50222930617937"><ele>299.33333333333337</ele><time>2026-04-30T09:07:01.999Z</time></trkpt><trkpt lat="42.58970275760604" lon="11.502358650857289"><ele>302.0</ele><time>2026-04-30T09:07:03.999Z</time></trkpt><trkpt lat="42.58971452481558" lon="11.502458866090594"><ele>302.0</ele><time>2026-04-30T09:07:06.999Z</time></trkpt><trkpt lat="42.58975821363271" lon="11.502704102579939"><ele>302.0</ele><time>2026-04-30T09:08:32.999Z</time></trkpt><trkpt lat="42.589774681498696" lon="11.502832159476029"><ele>302.0</ele><time>2026-04-30T09:08:33.999Z</time></trkpt><trkpt lat="42.58977071497525" lon="11.502963102889835"><ele>302.0</ele><time>2026-04-30T09:08:34.999Z</time></trkpt><trkpt lat="42.58974366190588" lon="11.503114842448962"><ele>301.0</ele><time>2026-04-30T09:08:35.999Z</time></trkpt><trkpt lat="42.589716750077685" lon="11.50326148332602"><ele>300.0</ele><time>2026-04-30T09:08:36.999Z</time></trkpt><trkpt lat="42.58969131012705" lon="11.503419069966265"><ele>299.0</ele><time>2026-04-30T09:08:37.999Z</time></trkpt><trkpt lat="42.589675253396685" lon="11.503593882919828"><ele>298.0</ele><time>2026-04-30T09:08:38.999Z</time></trkpt><trkpt lat="42.58965878288613" lon="11.503782168988813"><ele>297.25</ele><time>2026-04-30T09:08:39.999Z</time></trkpt><trkpt lat="42.58963139527816" lon="11.503965609350896"><ele>296.5</ele><time>2026-04-30T09:08:40.999Z</time></trkpt><trkpt lat="42.5895965499517" lon="11.504150361772364"><ele>295.75</ele><time>2026-04-30T09:08:41.999Z</time></trkpt><trkpt lat="42.589560368218436" lon="11.504342199921325"><ele>295.0</ele><time>2026-04-30T09:08:42.999Z</time></trkpt><trkpt lat="42.58952374239414" lon="11.5045363926619"><ele>299.0</ele><time>2026-04-30T09:08:43.999Z</time></trkpt><trkpt lat="42.589489333374026" lon="11.504719151799467"><ele>303.0</ele><time>2026-04-30T09:08:44.999Z</time></trkpt><trkpt lat="42.58945412051796" lon="11.50489584368499"><ele>307.0</ele><time>2026-04-30T09:08:45.999Z</time></trkpt><trkpt lat="42.58940689130804" lon="11.505057571308326"><ele>311.0</ele><time>2026-04-30T09:08:46.999Z</time></trkpt><trkpt lat="42.589342719520076" lon="11.505208666435113"><ele>311.0</ele><time>2026-04-30T09:08:47.999Z</time></trkpt><trkpt lat="42.58925639862065" lon="11.505337448772504"><ele>311.0</ele><time>2026-04-30T09:08:48.999Z</time></trkpt><trkpt lat="42.58914482602644" lon="11.505425086805898"><ele>311.0</ele><time>2026-04-30T09:08:49.999Z</time></trkpt><trkpt lat="42.589014370023705" lon="11.505507343510128"><ele>311.0</ele><time>2026-04-30T09:08:50.999Z</time></trkpt><trkpt lat="42.58886890908577" lon="11.505601059029724"><ele>310.25</ele><time>2026-04-30T09:08:51.999Z</time></trkpt><trkpt lat="42.58873814103297" lon="11.505687147662158"><ele>309.5</ele><time>2026-04-30T09:08:52.999Z</time></trkpt><trkpt lat="42.588606529268276" lon="11.50577351736675"><ele>308.75</ele><time>2026-04-30T09:08:53.999Z</time></trkpt><trkpt lat="42.5884744289918" lon="11.505859575044232"><ele>308.0</ele><time>2026-04-30T09:08:54.999Z</time></trkpt><trkpt lat="42.58834197907494" lon="11.505945860498166"><ele>309.5</ele><time>2026-04-30T09:08:55.999Z</time></trkpt><trkpt lat="42.58820935753515" lon="11.506029504905266"><ele>311.0</ele><time>2026-04-30T09:08:56.999Z</time></trkpt><trkpt lat="42.588069514258585" lon="11.5061041529849"><ele>312.5</ele><time>2026-04-30T09:08:57.999Z</time></trkpt><trkpt lat="42.58792376102181" lon="11.506144486154453"><ele>314.0</ele><time>2026-04-30T09:08:58.999Z</time></trkpt><trkpt lat="42.58777825174243" lon="11.506144702854963"><ele>314.0</ele><time>2026-04-30T09:08:59.999Z</time></trkpt><trkpt lat="42.587611615924004" lon="11.506135069691762"><ele>314.0</ele><time>2026-04-30T09:09:00.999Z</time></trkpt><trkpt lat="42.587444006560666" lon="11.506128728682649"><ele>314.0</ele><time>2026-04-30T09:09:01.999Z</time></trkpt><trkpt lat="42.58727576321103" lon="11.506149958186004"><ele>314.0</ele><time>2026-04-30T09:09:02.999Z</time></trkpt><trkpt lat="42.58711806711264" lon="11.506200469919179"><ele>314.0</ele><time>2026-04-30T09:09:03.999Z</time></trkpt><trkpt lat="42.58694917056694" lon="11.506293611294188"><ele>314.0</ele><time>2026-04-30T09:09:04.999Z</time></trkpt><trkpt lat="42.586799387884255" lon="11.506408031634896"><ele>317.0</ele><time>2026-04-30T09:09:05.999Z</time></trkpt><trkpt lat="42.58665078667004" lon="11.506535293267532"><ele>320.0</ele><time>2026-04-30T09:09:06.999Z</time></trkpt><trkpt lat="42.58650026446973" lon="11.506637050062874"><ele>323.0</ele><time>2026-04-30T09:09:07.999Z</time></trkpt><trkpt lat="42.58634836546596" lon="11.506706727820648"><ele>323.0</ele><time>2026-04-30T09:09:08.999Z</time></trkpt><trkpt lat="42.58619281574228" lon="11.506767605794176"><ele>323.0</ele><time>2026-04-30T09:09:09.999Z</time></trkpt><trkpt lat="42.58604763694856" lon="11.506854039039117"><ele>323.0</ele><time>2026-04-30T09:09:10.998Z</time></trkpt><trkpt lat="42.58591169564521" lon="11.506933359591551"><ele>322.5</ele><time>2026-04-30T09:09:11.998Z</time></trkpt><trkpt lat="42.58579621406818" lon="11.50705280376211"><ele>322.0</ele><time>2026-04-30T09:09:12.998Z</time></trkpt><trkpt lat="42.585763286563036" lon="11.507236579841496"><ele>321.5</ele><time>2026-04-30T09:09:13.998Z</time></trkpt><trkpt lat="42.585783180851806" lon="11.507434901805441"><ele>321.0</ele><time>2026-04-30T09:09:14.998Z</time></trkpt><trkpt lat="42.58585587671946" lon="11.507584442975345"><ele>321.0</ele><time>2026-04-30T09:09:15.998Z</time></trkpt><trkpt lat="42.5859928547696" lon="11.507710013852805"><ele>321.0</ele><time>2026-04-30T09:09:16.998Z</time></trkpt><trkpt lat="42.58613870643506" lon="11.507823060089459"><ele>321.0</ele><time>2026-04-30T09:09:17.998Z</time></trkpt><trkpt lat="42.58629004999458" lon="11.507925669384877"><ele>324.0</ele><time>2026-04-30T09:09:18.998Z</time></trkpt><trkpt lat="42.58645356212998" lon="11.5079663749775"><ele>327.0</ele><time>2026-04-30T09:09:19.998Z</time></trkpt><trkpt lat="42.58663291775497" lon="11.507977507287585"><ele>330.0</ele><time>2026-04-30T09:09:20.998Z</time></trkpt><trkpt lat="42.58681811528447" lon="11.508004918334459"><ele>330.0</ele><time>2026-04-30T09:09:22Z</time></trkpt><trkpt lat="42.58699583837947" lon="11.508035044383398"><ele>330.0</ele><time>2026-04-30T09:09:23Z</time></trkpt><trkpt lat="42.58717026229202" lon="11.508086791136574"><ele>330.0</ele><time>2026-04-30T09:09:24Z</time></trkpt><trkpt lat="42.58733403147732" lon="11.508200829599211"><ele>333.3333333333333</ele><time>2026-04-30T09:09:25Z</time></trkpt><trkpt lat="42.587500938951514" lon="11.508284075370513"><ele>336.66666666666663</ele><time>2026-04-30T09:09:26Z</time></trkpt><trkpt lat="42.58764858276869" lon="11.508446892004962"><ele>340.0</ele><time>2026-04-30T09:09:27Z</time></trkpt><trkpt lat="42.58786719280664" lon="11.508261503854873"><ele>343.66666666666663</ele><time>2026-04-30T09:09:28Z</time></trkpt><trkpt lat="42.58805318051944" lon="11.508231041033415"><ele>347.3333333333333</ele><time>2026-04-30T09:09:29Z</time></trkpt><trkpt lat="42.588244922370066" lon="11.508199992610702"><ele>351.0</ele><time>2026-04-30T09:09:30Z</time></trkpt><trkpt lat="42.58843116132476" lon="11.50818164850813"><ele>351.0</ele><time>2026-04-30T09:09:31Z</time></trkpt><trkpt lat="42.58860954096817" lon="11.508153769245757"><ele>351.0</ele><time>2026-04-30T09:09:32Z</time></trkpt><trkpt lat="42.58877434366995" lon="11.508113855967595"><ele>351.0</ele><time>2026-04-30T09:09:33Z</time></trkpt><trkpt lat="42.58891889765776" lon="11.508065458871483"><ele>352.25</ele><time>2026-04-30T09:09:34Z</time></trkpt><trkpt lat="42.589063192559706" lon="11.508050191016626"><ele>353.5</ele><time>2026-04-30T09:09:35Z</time></trkpt><trkpt lat="42.589195585735325" lon="11.508079717659815"><ele>354.75</ele><time>2026-04-30T09:09:36Z</time></trkpt><trkpt lat="42.589285474112096" lon="11.508167542817693"><ele>356.0</ele><time>2026-04-30T09:09:37Z</time></trkpt><trkpt lat="42.58935470471575" lon="11.50827680904606"><ele>355.25</ele><time>2026-04-30T09:09:38Z</time></trkpt><trkpt lat="42.58951068880121" lon="11.508377332528193"><ele>354.5</ele><time>2026-04-30T09:09:39Z</time></trkpt><trkpt lat="42.589662844907515" lon="11.508371101673989"><ele>353.75</ele><time>2026-04-30T09:09:40Z</time></trkpt><trkpt lat="42.589784646098465" lon="11.508393062319893"><ele>353.0</ele><time>2026-04-30T09:09:41Z</time></trkpt><trkpt lat="42.58986333654243" lon="11.508367274086202"><ele>353.0</ele><time>2026-04-30T09:09:42Z</time></trkpt><trkpt lat="42.58997193351853" lon="11.50830963090534"><ele>353.0</ele><time>2026-04-30T09:09:43Z</time></trkpt><trkpt lat="42.59010732549311" lon="11.508265649794414"><ele>353.0</ele><time>2026-04-30T09:09:44Z</time></trkpt><trkpt lat="42.590194628277466" lon="11.5082704917185"><ele>353.0</ele><time>2026-04-30T09:09:45Z</time></trkpt><trkpt lat="42.59024576159405" lon="11.508355909936768"><ele>353.0</ele><time>2026-04-30T09:09:46Z</time></trkpt><trkpt lat="42.590283880152114" lon="11.508436783602452"><ele>353.0</ele><time>2026-04-30T09:09:47Z</time></trkpt><trkpt lat="42.590219930294616" lon="11.508516722145705"><ele>353.0</ele><time>2026-04-30T09:09:48Z</time></trkpt><trkpt lat="42.59013694698651" lon="11.50849148974427"><ele>353.0</ele><time>2026-04-30T09:09:50Z</time></trkpt><trkpt lat="42.58995010247157" lon="11.50859530712984"><ele>353.0</ele><time>2026-04-30T09:09:53Z</time></trkpt><trkpt lat="42.58971729536647" lon="11.50868198608593"><ele>353.6666666666667</ele><time>2026-04-30T09:09:54Z</time></trkpt><trkpt lat="42.58951410445077" lon="11.50887115942606"><ele>354.3333333333333</ele><time>2026-04-30T09:09:55Z</time></trkpt><trkpt lat="42.58937598069561" lon="11.509069569233292"><ele>355.0</ele><time>2026-04-30T09:09:56Z</time></trkpt><trkpt lat="42.589245203447994" lon="11.50927310359734"><ele>360.5</ele><time>2026-04-30T09:09:57Z</time></trkpt><trkpt lat="42.589120435370226" lon="11.50953447229509"><ele>366.0</ele><time>2026-04-30T09:09:58Z</time></trkpt><trkpt lat="42.58903656785569" lon="11.509836953936466"><ele>367.5</ele><time>2026-04-30T09:09:59Z</time></trkpt><trkpt lat="42.58903288927056" lon="11.510172800679396"><ele>369.0</ele><time>2026-04-30T09:10:00Z</time></trkpt><trkpt lat="42.589081999723305" lon="11.510454543192964"><ele>370.6666666666667</ele><time>2026-04-30T09:10:01Z</time></trkpt><trkpt lat="42.58913396351105" lon="11.510665179390678"><ele>372.33333333333337</ele><time>2026-04-30T09:10:02Z</time></trkpt><trkpt lat="42.589180802568826" lon="11.51086182756365"><ele>374.0</ele><time>2026-04-30T09:10:03Z</time></trkpt><trkpt lat="42.58922506236645" lon="11.511040411480256"><ele>374.0</ele><time>2026-04-30T09:10:04Z</time></trkpt><trkpt lat="42.58925373683955" lon="11.511199106685078"><ele>374.0</ele><time>2026-04-30T09:10:05Z</time></trkpt><trkpt lat="42.589254947038754" lon="11.511361035871232"><ele>374.0</ele><time>2026-04-30T09:10:06Z</time></trkpt><trkpt lat="42.58924548462577" lon="11.511534513370117"><ele>374.0</ele><time>2026-04-30T09:10:07Z</time></trkpt><trkpt lat="42.5891782661235" lon="11.511644333743108"><ele>375.75</ele><time>2026-04-30T09:10:08Z</time></trkpt><trkpt lat="42.58912255988152" lon="11.511812533650188"><ele>377.5</ele><time>2026-04-30T09:10:09Z</time></trkpt><trkpt lat="42.58909030328255" lon="11.511989588986012"><ele>379.25</ele><time>2026-04-30T09:10:10Z</time></trkpt><trkpt lat="42.58908295731982" lon="11.51216264662838"><ele>381.0</ele><time>2026-04-30T09:10:11Z</time></trkpt><trkpt lat="42.589092245266464" lon="11.512327264209654"><ele>382.75</ele><time>2026-04-30T09:10:12Z</time></trkpt><trkpt lat="42.58911608027061" lon="11.512483241628214"><ele>384.5</ele><time>2026-04-30T09:10:13Z</time></trkpt><trkpt lat="42.58915071907385" lon="11.512629706274323"><ele>386.25</ele><time>2026-04-30T09:10:14Z</time></trkpt><trkpt lat="42.58919604182287" lon="11.512771355249141"><ele>388.0</ele><time>2026-04-30T09:10:15Z</time></trkpt><trkpt lat="42.589268145750566" lon="11.512912410495373"><ele>387.79999999999995</ele><time>2026-04-30T09:10:16Z</time></trkpt><trkpt lat="42.589340223147296" lon="11.513004674900797"><ele>387.6</ele><time>2026-04-30T09:10:17Z</time></trkpt><trkpt lat="42.5894037254386" lon="11.513150616387362"><ele>387.4</ele><time>2026-04-30T09:10:18Z</time></trkpt><trkpt lat="42.589468227761195" lon="11.513273296902137"><ele>387.20000000000005</ele><time>2026-04-30T09:10:19Z</time></trkpt><trkpt lat="42.58952402628419" lon="11.513397297264028"><ele>387.0</ele><time>2026-04-30T09:10:20Z</time></trkpt><trkpt lat="42.589566487336185" lon="11.51353391125129"><ele>387.0</ele><time>2026-04-30T09:10:21Z</time></trkpt><trkpt lat="42.58958390226312" lon="11.513678597629214"><ele>387.0</ele><time>2026-04-30T09:10:22Z</time></trkpt><trkpt lat="42.58958304708114" lon="11.513836364421154"><ele>387.0</ele><time>2026-04-30T09:10:23Z</time></trkpt><trkpt lat="42.58956103473283" lon="11.513978871679301"><ele>387.0</ele><time>2026-04-30T09:10:24Z</time></trkpt><trkpt lat="42.5895176297307" lon="11.514121338247621"><ele>387.0</ele><time>2026-04-30T09:10:24.999Z</time></trkpt><trkpt lat="42.58946260515079" lon="11.51428722489138"><ele>390.75</ele><time>2026-04-30T09:10:25.999Z</time></trkpt><trkpt lat="42.5894054425567" lon="11.514458812044182"><ele>394.5</ele><time>2026-04-30T09:10:26.999Z</time></trkpt><trkpt lat="42.589353351969436" lon="11.514615174364472"><ele>398.25</ele><time>2026-04-30T09:10:27.999Z</time></trkpt><trkpt lat="42.58929512795835" lon="11.514789947610259"><ele>402.0</ele><time>2026-04-30T09:10:28.999Z</time></trkpt><trkpt lat="42.589244632241815" lon="11.514944108404066"><ele>402.0</ele><time>2026-04-30T09:10:29.999Z</time></trkpt><trkpt lat="42.58919244329389" lon="11.515109813668"><ele>402.0</ele><time>2026-04-30T09:10:30.999Z</time></trkpt><trkpt lat="42.58914457122516" lon="11.515275688318965"><ele>402.0</ele><time>2026-04-30T09:10:31.999Z</time></trkpt><trkpt lat="42.58911862999737" lon="11.515439014011347"><ele>402.0</ele><time>2026-04-30T09:10:32.999Z</time></trkpt><trkpt lat="42.58907796887453" lon="11.515604560822554"><ele>401.75</ele><time>2026-04-30T09:10:33.999Z</time></trkpt><trkpt lat="42.589036984254456" lon="11.515774142650551"><ele>401.5</ele><time>2026-04-30T09:10:34.999Z</time></trkpt><trkpt lat="42.58900781092262" lon="11.515939041888569"><ele>401.25</ele><time>2026-04-30T09:10:35.999Z</time></trkpt><trkpt lat="42.588982012276716" lon="11.516098647700922"><ele>401.0</ele><time>2026-04-30T09:10:36.999Z</time></trkpt><trkpt lat="42.588946147986626" lon="11.516271305498345"><ele>399.75</ele><time>2026-04-30T09:10:37.999Z</time></trkpt><trkpt lat="42.58890848473858" lon="11.516447383339935"><ele>398.5</ele><time>2026-04-30T09:10:38.999Z</time></trkpt><trkpt lat="42.58887955316665" lon="11.516618548106626"><ele>397.25</ele><time>2026-04-30T09:10:39.999Z</time></trkpt><trkpt lat="42.58884965821447" lon="11.516769259916973"><ele>396.0</ele><time>2026-04-30T09:10:40.999Z</time></trkpt><trkpt lat="42.588833072136154" lon="11.516894404085969"><ele>396.0</ele><time>2026-04-30T09:10:41.999Z</time></trkpt><trkpt lat="42.58881443673521" lon="11.516994140064991"><ele>396.0</ele><time>2026-04-30T09:10:42.999Z</time></trkpt><trkpt lat="42.588799389449186" lon="11.51713331675594"><ele>396.0</ele><time>2026-04-30T09:10:44.999Z</time></trkpt><trkpt lat="42.588756571141076" lon="11.517295941234297"><ele>396.0</ele><time>2026-04-30T09:10:46.999Z</time></trkpt><trkpt lat="42.58873537841944" lon="11.517379664587997"><ele>396.0</ele><time>2026-04-30T09:10:47.999Z</time></trkpt><trkpt lat="42.58871264366487" lon="11.517468409140953"><ele>396.0</ele><time>2026-04-30T09:10:48.999Z</time></trkpt><trkpt lat="42.588684386224685" lon="11.517551512189918"><ele>395.5</ele><time>2026-04-30T09:10:49.999Z</time></trkpt><trkpt lat="42.58864772965385" lon="11.517644245491036"><ele>395.0</ele><time>2026-04-30T09:10:50.999Z</time></trkpt><trkpt lat="42.588614379679754" lon="11.517738931560588"><ele>394.5</ele><time>2026-04-30T09:10:51.999Z</time></trkpt><trkpt lat="42.588579214417884" lon="11.517838030531935"><ele>394.0</ele><time>2026-04-30T09:10:52.999Z</time></trkpt><trkpt lat="42.5885441186709" lon="11.517934005363216"><ele>393.5</ele><time>2026-04-30T09:10:53.999Z</time></trkpt><trkpt lat="42.5885102225148" lon="11.518022290944163"><ele>393.0</ele><time>2026-04-30T09:10:54.999Z</time></trkpt><trkpt lat="42.58847730455863" lon="11.518104623134983"><ele>393.0</ele><time>2026-04-30T09:10:55.999Z</time></trkpt><trkpt lat="42.588452491890266" lon="11.518183657982524"><ele>393.0</ele><time>2026-04-30T09:10:56.999Z</time></trkpt><trkpt lat="42.58841522653282" lon="11.518337958208233"><ele>393.0</ele><time>2026-04-30T09:10:58.999Z</time></trkpt><trkpt lat="42.588379453601206" lon="11.518470368301793"><ele>393.0</ele><time>2026-04-30T09:11:00.999Z</time></trkpt><trkpt lat="42.58834842976949" lon="11.51859873038997"><ele>393.0</ele><time>2026-04-30T09:11:02.999Z</time></trkpt><trkpt lat="42.58832137697435" lon="11.518715322648095"><ele>392.79999999999995</ele><time>2026-04-30T09:11:04.999Z</time></trkpt><trkpt lat="42.588298572325265" lon="11.518827960562003"><ele>392.6</ele><time>2026-04-30T09:11:06.999Z</time></trkpt><trkpt lat="42.58826981126549" lon="11.51892533827085"><ele>392.4</ele><time>2026-04-30T09:11:09.999Z</time></trkpt><trkpt lat="42.588248481760814" lon="11.519031131572284"><ele>392.20000000000005</ele><time>2026-04-30T09:11:11.999Z</time></trkpt><trkpt lat="42.58822451310867" lon="11.519173505297807"><ele>392.0</ele><time>2026-04-30T09:11:13.999Z</time></trkpt><trkpt lat="42.58822769809737" lon="11.519337664955103"><ele>392.0</ele><time>2026-04-30T09:11:15.999Z</time></trkpt><trkpt lat="42.58826227783924" lon="11.519508141293882"><ele>392.0</ele><time>2026-04-30T09:11:17.999Z</time></trkpt><trkpt lat="42.58827215959967" lon="11.51959762031975"><ele>392.0</ele><time>2026-04-30T09:11:18.998Z</time></trkpt><trkpt lat="42.58825545320657" lon="11.519684935452068"><ele>392.0</ele><time>2026-04-30T09:11:19.998Z</time></trkpt><trkpt lat="42.58823943678558" lon="11.519777205591764"><ele>392.0</ele><time>2026-04-30T09:11:20.998Z</time></trkpt><trkpt lat="42.588179139180596" lon="11.519922798285164"><ele>392.8333333333333</ele><time>2026-04-30T09:11:22.998Z</time></trkpt><trkpt lat="42.588134380548766" lon="11.519993197095907"><ele>393.66666666666663</ele><time>2026-04-30T09:11:23.998Z</time></trkpt><trkpt lat="42.58809104202357" lon="11.520056726355392"><ele>394.5</ele><time>2026-04-30T09:11:24.998Z</time></trkpt><trkpt lat="42.58804469818892" lon="11.52012466105115"><ele>395.33333333333337</ele><time>2026-04-30T09:11:25.998Z</time></trkpt><trkpt lat="42.58797352344344" lon="11.520231665048412"><ele>396.1666666666667</ele><time>2026-04-30T09:11:28Z</time></trkpt><trkpt lat="42.58790193530502" lon="11.520348685654577"><ele>397.0</ele><time>2026-04-30T09:11:30Z</time></trkpt><trkpt lat="42.58786014379694" lon="11.520423006419477"><ele>397.00000000000006</ele><time>2026-04-30T09:11:31Z</time></trkpt><trkpt lat="42.58781508958799" lon="11.520510492965034"><ele>397.0</ele><time>2026-04-30T09:11:32Z</time></trkpt><trkpt lat="42.58777022680882" lon="11.520599129796445"><ele>397.0</ele><time>2026-04-30T09:11:33Z</time></trkpt><trkpt lat="42.58772418188689" lon="11.520690102232471"><ele>397.0</ele><time>2026-04-30T09:11:34Z</time></trkpt><trkpt lat="42.58767373782648" lon="11.52078983505673"><ele>397.00000000000006</ele><time>2026-04-30T09:11:35Z</time></trkpt><trkpt lat="42.587632793408375" lon="11.52090744425358"><ele>397.0</ele><time>2026-04-30T09:11:36Z</time></trkpt><trkpt lat="42.587577036478514" lon="11.521019130856589"><ele>397.0</ele><time>2026-04-30T09:11:37Z</time></trkpt><trkpt lat="42.587515233948515" lon="11.521141652830476"><ele>397.0</ele><time>2026-04-30T09:11:38Z</time></trkpt><trkpt lat="42.587440156584066" lon="11.52124830947933"><ele>397.0</ele><time>2026-04-30T09:11:39Z</time></trkpt><trkpt lat="42.58740132594695" lon="11.521376351342314"><ele>397.0</ele><time>2026-04-30T09:11:40Z</time></trkpt><trkpt lat="42.587344652889755" lon="11.521484838923321"><ele>397.0</ele><time>2026-04-30T09:11:41Z</time></trkpt><trkpt lat="42.58728716105912" lon="11.521590495847624"><ele>396.8</ele><time>2026-04-30T09:11:42Z</time></trkpt><trkpt lat="42.58722790972936" lon="11.521695298369545"><ele>396.6</ele><time>2026-04-30T09:11:43Z</time></trkpt><trkpt lat="42.587172694371034" lon="11.521802095463379"><ele>396.40000000000003</ele><time>2026-04-30T09:11:44Z</time></trkpt><trkpt lat="42.58710822980966" lon="11.52191155801405"><ele>396.20000000000005</ele><time>2026-04-30T09:11:45Z</time></trkpt><trkpt lat="42.5870115304039" lon="11.52199150849632"><ele>396.0</ele><time>2026-04-30T09:11:46Z</time></trkpt><trkpt lat="42.5869211171963" lon="11.522059961494515"><ele>395.25</ele><time>2026-04-30T09:11:47Z</time></trkpt><trkpt lat="42.586824648582024" lon="11.522106063158441"><ele>394.5</ele><time>2026-04-30T09:11:48Z</time></trkpt><trkpt lat="42.58670712494403" lon="11.522159100231464"><ele>393.75</ele><time>2026-04-30T09:11:49Z</time></trkpt><trkpt lat="42.58657505819159" lon="11.522218780970503"><ele>393.0</ele><time>2026-04-30T09:11:50Z</time></trkpt><trkpt lat="42.586445538003495" lon="11.522300588683446"><ele>393.0</ele><time>2026-04-30T09:11:51Z</time></trkpt><trkpt lat="42.58630828693233" lon="11.522352751448116"><ele>393.0</ele><time>2026-04-30T09:11:52Z</time></trkpt><trkpt lat="42.58618069064026" lon="11.522444703926942"><ele>393.0</ele><time>2026-04-30T09:11:53Z</time></trkpt><trkpt lat="42.5860709223471" lon="11.522550740283414"><ele>393.0</ele><time>2026-04-30T09:11:54Z</time></trkpt><trkpt lat="42.585974074017294" lon="11.522671180906846"><ele>392.25</ele><time>2026-04-30T09:11:55Z</time></trkpt><trkpt lat="42.58588239451382" lon="11.522811497410753"><ele>391.5</ele><time>2026-04-30T09:11:56Z</time></trkpt><trkpt lat="42.585779274097376" lon="11.52292291632122"><ele>390.75</ele><time>2026-04-30T09:11:57Z</time></trkpt><trkpt lat="42.58568957959748" lon="11.523062207546952"><ele>390.0</ele><time>2026-04-30T09:11:58Z</time></trkpt><trkpt lat="42.58559707700889" lon="11.523189747077353"><ele>388.75</ele><time>2026-04-30T09:11:59Z</time></trkpt><trkpt lat="42.58549385125014" lon="11.523326346458639"><ele>387.5</ele><time>2026-04-30T09:12:00Z</time></trkpt><trkpt lat="42.585374795347875" lon="11.523419335822537"><ele>386.25</ele><time>2026-04-30T09:12:01Z</time></trkpt><trkpt lat="42.58525506704501" lon="11.523514135646629"><ele>385.0</ele><time>2026-04-30T09:12:02Z</time></trkpt><trkpt lat="42.585141479192366" lon="11.523627408492125"><ele>384.25</ele><time>2026-04-30T09:12:03Z</time></trkpt><trkpt lat="42.585018577489386" lon="11.52372585791563"><ele>383.5</ele><time>2026-04-30T09:12:04Z</time></trkpt><trkpt lat="42.58490137725649" lon="11.523807729852479"><ele>382.75</ele><time>2026-04-30T09:12:05Z</time></trkpt><trkpt lat="42.5848039079474" lon="11.523871841692642"><ele>382.0</ele><time>2026-04-30T09:12:06Z</time></trkpt><trkpt lat="42.58471342679335" lon="11.523934630295132"><ele>381.20000000000005</ele><time>2026-04-30T09:12:08Z</time></trkpt><trkpt lat="42.584623898675254" lon="11.523948274466063"><ele>380.4</ele><time>2026-04-30T09:12:11Z</time></trkpt><trkpt lat="42.58456039392668" lon="11.523943659454167"><ele>379.6</ele><time>2026-04-30T09:12:12Z</time></trkpt><trkpt lat="42.584497298490895" lon="11.524130561197513"><ele>378.79999999999995</ele><time>2026-04-30T09:12:13Z</time></trkpt><trkpt lat="42.58444094385046" lon="11.524248204992963"><ele>378.0</ele><time>2026-04-30T09:12:14Z</time></trkpt><trkpt lat="42.58438185736856" lon="11.524367969130276"><ele>377.5</ele><time>2026-04-30T09:12:15Z</time></trkpt><trkpt lat="42.58434651680638" lon="11.524523890923547"><ele>377.0</ele><time>2026-04-30T09:12:16Z</time></trkpt><trkpt lat="42.58425157996854" lon="11.52465289197019"><ele>376.5</ele><time>2026-04-30T09:12:17Z</time></trkpt><trkpt lat="42.584142684106986" lon="11.524772105777023"><ele>376.0</ele><time>2026-04-30T09:12:18Z</time></trkpt><trkpt lat="42.584045669463336" lon="11.524879395006721"><ele>373.5</ele><time>2026-04-30T09:12:19Z</time></trkpt><trkpt lat="42.58392713614058" lon="11.52500633326185"><ele>371.0</ele><time>2026-04-30T09:12:20Z</time></trkpt><trkpt lat="42.5838204741814" lon="11.525144740699925"><ele>368.5</ele><time>2026-04-30T09:12:21Z</time></trkpt><trkpt lat="42.58370648930468" lon="11.525253745890668"><ele>366.0</ele><time>2026-04-30T09:12:22Z</time></trkpt><trkpt lat="42.583598907194926" lon="11.525376913125811"><ele>365.25</ele><time>2026-04-30T09:12:23Z</time></trkpt><trkpt lat="42.58348105708843" lon="11.525475953534938"><ele>364.5</ele><time>2026-04-30T09:12:24Z</time></trkpt><trkpt lat="42.58338307378826" lon="11.525610082225047"><ele>363.75</ele><time>2026-04-30T09:12:25Z</time></trkpt><trkpt lat="42.58325595888474" lon="11.525696834269299"><ele>363.0</ele><time>2026-04-30T09:12:26Z</time></trkpt><trkpt lat="42.583128425263276" lon="11.52577804598568"><ele>363.0</ele><time>2026-04-30T09:12:26.999Z</time></trkpt><trkpt lat="42.58299766043958" lon="11.52581403640581"><ele>363.0</ele><time>2026-04-30T09:12:27.999Z</time></trkpt><trkpt lat="42.58284520919051" lon="11.525813511860436"><ele>363.0</ele><time>2026-04-30T09:12:28.999Z</time></trkpt><trkpt lat="42.58268262988349" lon="11.525804234553027"><ele>363.0</ele><time>2026-04-30T09:12:29.999Z</time></trkpt><trkpt lat="42.58252854579573" lon="11.525796609223411"><ele>362.0</ele><time>2026-04-30T09:12:30.999Z</time></trkpt><trkpt lat="42.58238552662196" lon="11.525793164850242"><ele>361.0</ele><time>2026-04-30T09:12:31.999Z</time></trkpt><trkpt lat="42.5822465582763" lon="11.52581001470111"><ele>360.0</ele><time>2026-04-30T09:12:32.999Z</time></trkpt><trkpt lat="42.582122763251384" lon="11.52588485466766"><ele>359.0</ele><time>2026-04-30T09:12:33.999Z</time></trkpt><trkpt lat="42.58202595667001" lon="11.525976091467792"><ele>355.33333333333337</ele><time>2026-04-30T09:12:34.999Z</time></trkpt><trkpt lat="42.58189299698925" lon="11.526098644577031"><ele>351.6666666666667</ele><time>2026-04-30T09:12:35.999Z</time></trkpt><trkpt lat="42.58178254026328" lon="11.526244439331863"><ele>348.0</ele><time>2026-04-30T09:12:36.999Z</time></trkpt><trkpt lat="42.58167967840428" lon="11.52642455025674"><ele>347.0</ele><time>2026-04-30T09:12:37.999Z</time></trkpt><trkpt lat="42.58155709339556" lon="11.52657672249752"><ele>346.0</ele><time>2026-04-30T09:12:38.999Z</time></trkpt><trkpt lat="42.5814197656922" lon="11.52670619454115"><ele>345.0</ele><time>2026-04-30T09:12:39.999Z</time></trkpt><trkpt lat="42.5812829675464" lon="11.526852077849998"><ele>345.3333333333333</ele><time>2026-04-30T09:12:40.999Z</time></trkpt><trkpt lat="42.58113883211274" lon="11.526999491699737"><ele>345.66666666666663</ele><time>2026-04-30T09:12:41.999Z</time></trkpt><trkpt lat="42.58098791671202" lon="11.52715253568"><ele>346.0</ele><time>2026-04-30T09:12:42.999Z</time></trkpt><trkpt lat="42.58083786612176" lon="11.52730475626563"><ele>346.0</ele><time>2026-04-30T09:12:43.999Z</time></trkpt><trkpt lat="42.580700238669" lon="11.527465059904106"><ele>346.0</ele><time>2026-04-30T09:12:44.999Z</time></trkpt><trkpt lat="42.58055766987271" lon="11.527610510023534"><ele>346.0</ele><time>2026-04-30T09:12:45.999Z</time></trkpt><trkpt lat="42.58041116871802" lon="11.527733871606848"><ele>346.75</ele><time>2026-04-30T09:12:46.999Z</time></trkpt><trkpt lat="42.58026392196513" lon="11.527849469488993"><ele>347.5</ele><time>2026-04-30T09:12:47.999Z</time></trkpt><trkpt lat="42.58012269676113" lon="11.527893889245208"><ele>348.25</ele><time>2026-04-30T09:12:48.999Z</time></trkpt><trkpt lat="42.58000197083266" lon="11.527890964796796"><ele>349.0</ele><time>2026-04-30T09:12:49.999Z</time></trkpt><trkpt lat="42.57986248180317" lon="11.527843521920634"><ele>345.0</ele><time>2026-04-30T09:12:50.999Z</time></trkpt><trkpt lat="42.579703258433476" lon="11.52779346645694"><ele>341.0</ele><time>2026-04-30T09:12:51.999Z</time></trkpt><trkpt lat="42.579574037076426" lon="11.527751498743763"><ele>337.0</ele><time>2026-04-30T09:12:52.999Z</time></trkpt><trkpt lat="42.579418834848" lon="11.5276993236364"><ele>335.0</ele><time>2026-04-30T09:12:53.999Z</time></trkpt><trkpt lat="42.57923290660102" lon="11.527663791361682"><ele>333.0</ele><time>2026-04-30T09:12:54.999Z</time></trkpt><trkpt lat="42.57908070959892" lon="11.527673045350348"><ele>331.0</ele><time>2026-04-30T09:12:55.999Z</time></trkpt><trkpt lat="42.57892987772612" lon="11.527724752452919"><ele>331.0</ele><time>2026-04-30T09:12:56.999Z</time></trkpt><trkpt lat="42.57878282578022" lon="11.527785874896576"><ele>331.0</ele><time>2026-04-30T09:12:57.999Z</time></trkpt><trkpt lat="42.57863495458217" lon="11.527827676459543"><ele>331.0</ele><time>2026-04-30T09:12:58.999Z</time></trkpt><trkpt lat="42.578499380687234" lon="11.52782694812435"><ele>331.0</ele><time>2026-04-30T09:12:59.999Z</time></trkpt><trkpt lat="42.5783779707624" lon="11.527769262687828"><ele>328.66666666666663</ele><time>2026-04-30T09:13:00.999Z</time></trkpt><trkpt lat="42.57819842745956" lon="11.527680951478505"><ele>326.3333333333333</ele><time>2026-04-30T09:13:01.999Z</time></trkpt><trkpt lat="42.57799931277761" lon="11.527658866572136"><ele>324.0</ele><time>2026-04-30T09:13:02.999Z</time></trkpt><trkpt lat="42.577857498116195" lon="11.5276938959336"><ele>323.0</ele><time>2026-04-30T09:13:03.999Z</time></trkpt><trkpt lat="42.57770407171828" lon="11.527778901990821"><ele>322.0</ele><time>2026-04-30T09:13:04.999Z</time></trkpt><trkpt lat="42.577582425368625" lon="11.52787446294934"><ele>321.0</ele><time>2026-04-30T09:13:05.999Z</time></trkpt><trkpt lat="42.57746512642776" lon="11.52792609924773"><ele>320.0</ele><time>2026-04-30T09:13:06.999Z</time></trkpt><trkpt lat="42.577345491831466" lon="11.527952516777386"><ele>322.0</ele><time>2026-04-30T09:13:07.999Z</time></trkpt><trkpt lat="42.57728567727697" lon="11.528130483689761"><ele>324.0</ele><time>2026-04-30T09:13:08.999Z</time></trkpt><trkpt lat="42.57717593207857" lon="11.52814765620335"><ele>326.0</ele><time>2026-04-30T09:13:09.999Z</time></trkpt><trkpt lat="42.5770686948041" lon="11.528121957028482"><ele>328.0</ele><time>2026-04-30T09:13:10.999Z</time></trkpt><trkpt lat="42.57693772517407" lon="11.52805964207402"><ele>328.0</ele><time>2026-04-30T09:13:11.999Z</time></trkpt><trkpt lat="42.57680102801058" lon="11.527996331688955"><ele>328.0</ele><time>2026-04-30T09:13:12.999Z</time></trkpt><trkpt lat="42.57665854067193" lon="11.527933662201928"><ele>328.0</ele><time>2026-04-30T09:13:13.999Z</time></trkpt><trkpt lat="42.57651095378568" lon="11.527876388664332"><ele>328.0</ele><time>2026-04-30T09:13:14.999Z</time></trkpt><trkpt lat="42.576340135772675" lon="11.527828330628157"><ele>321.3333333333333</ele><time>2026-04-30T09:13:15.999Z</time></trkpt><trkpt lat="42.57616745118124" lon="11.527804395971993"><ele>314.6666666666667</ele><time>2026-04-30T09:13:16.999Z</time></trkpt><trkpt lat="42.57597190882737" lon="11.52782087645981"><ele>308.0</ele><time>2026-04-30T09:13:17.999Z</time></trkpt><trkpt lat="42.575785208439655" lon="11.527842107224807"><ele>308.0</ele><time>2026-04-30T09:13:18.999Z</time></trkpt><trkpt lat="42.57558770345435" lon="11.52786456664109"><ele>308.0</ele><time>2026-04-30T09:13:19.999Z</time></trkpt><trkpt lat="42.57539741665144" lon="11.52788145492666"><ele>308.0</ele><time>2026-04-30T09:13:20.999Z</time></trkpt><trkpt lat="42.57520529152231" lon="11.527897351063446"><ele>310.33333333333337</ele><time>2026-04-30T09:13:21.998Z</time></trkpt><trkpt lat="42.5750286132647" lon="11.527920115364857"><ele>312.6666666666667</ele><time>2026-04-30T09:13:22.998Z</time></trkpt><trkpt lat="42.574868479152315" lon="11.527980477527732"><ele>315.0</ele><time>2026-04-30T09:13:23.998Z</time></trkpt><trkpt lat="42.574723910786325" lon="11.528039855333107"><ele>315.0</ele><time>2026-04-30T09:13:24.998Z</time></trkpt><trkpt lat="42.57457222631877" lon="11.528147710148334"><ele>315.0</ele><time>2026-04-30T09:13:25.998Z</time></trkpt><trkpt lat="42.574479452233" lon="11.528325674391104"><ele>315.0</ele><time>2026-04-30T09:13:26.998Z</time></trkpt><trkpt lat="42.57438186160989" lon="11.528495935274085"><ele>312.5</ele><time>2026-04-30T09:13:27.998Z</time></trkpt><trkpt lat="42.574292577691836" lon="11.528647641691512"><ele>310.0</ele><time>2026-04-30T09:13:28.998Z</time></trkpt><trkpt lat="42.57420346887065" lon="11.528795069155091"><ele>307.5</ele><time>2026-04-30T09:13:29.998Z</time></trkpt><trkpt lat="42.574119412436296" lon="11.528967009567797"><ele>305.0</ele><time>2026-04-30T09:13:30.998Z</time></trkpt><trkpt lat="42.57404853824369" lon="11.52916400184019"><ele>305.0</ele><time>2026-04-30T09:13:31.998Z</time></trkpt><trkpt lat="42.57398499032255" lon="11.529389965818591"><ele>305.0</ele><time>2026-04-30T09:13:33Z</time></trkpt><trkpt lat="42.573914625809316" lon="11.529617192006906"><ele>305.0</ele><time>2026-04-30T09:13:34Z</time></trkpt><trkpt lat="42.573882112947274" lon="11.529860868952472"><ele>306.0</ele><time>2026-04-30T09:13:35Z</time></trkpt><trkpt lat="42.5738385856968" lon="11.530103896295707"><ele>307.0</ele><time>2026-04-30T09:13:36Z</time></trkpt><trkpt lat="42.573791162149156" lon="11.530350055608006"><ele>308.0</ele><time>2026-04-30T09:13:37Z</time></trkpt><trkpt lat="42.57375793526252" lon="11.530600775683023"><ele>308.0</ele><time>2026-04-30T09:13:38Z</time></trkpt><trkpt lat="42.573732977071515" lon="11.530847601337094"><ele>308.0</ele><time>2026-04-30T09:13:39Z</time></trkpt><trkpt lat="42.5737033033671" lon="11.531074768520476"><ele>308.0</ele><time>2026-04-30T09:13:40Z</time></trkpt><trkpt lat="42.57367467790318" lon="11.531295913031295"><ele>307.33333333333337</ele><time>2026-04-30T09:13:41Z</time></trkpt><trkpt lat="42.57362798437638" lon="11.531500773198092"><ele>306.6666666666667</ele><time>2026-04-30T09:13:42Z</time></trkpt><trkpt lat="42.57357695791031" lon="11.531701076363861"><ele>306.0</ele><time>2026-04-30T09:13:43Z</time></trkpt><trkpt lat="42.57351829862171" lon="11.531888132706346"><ele>306.0</ele><time>2026-04-30T09:13:44Z</time></trkpt><trkpt lat="42.57341236921768" lon="11.53201373829417"><ele>306.0</ele><time>2026-04-30T09:13:45Z</time></trkpt><trkpt lat="42.57329083028241" lon="11.532110564694808"><ele>306.0</ele><time>2026-04-30T09:13:46Z</time></trkpt><trkpt lat="42.573179834915706" lon="11.532115738079474"><ele>306.0</ele><time>2026-04-30T09:13:47Z</time></trkpt><trkpt lat="42.57302042837616" lon="11.532150600107169"><ele>305.6666666666667</ele><time>2026-04-30T09:13:48Z</time></trkpt><trkpt lat="42.572857310063725" lon="11.532183062379529"><ele>305.33333333333337</ele><time>2026-04-30T09:13:49Z</time></trkpt><trkpt lat="42.57266224694654" lon="11.532221615728727"><ele>305.0</ele><time>2026-04-30T09:13:50Z</time></trkpt><trkpt lat="42.572464863166886" lon="11.53225780532379"><ele>305.0</ele><time>2026-04-30T09:13:51Z</time></trkpt><trkpt lat="42.572270969746626" lon="11.532290547770133"><ele>305.0</ele><time>2026-04-30T09:13:52Z</time></trkpt><trkpt lat="42.57206840302482" lon="11.532324760082078"><ele>305.0</ele><time>2026-04-30T09:13:53Z</time></trkpt><trkpt lat="42.57186756700471" lon="11.53236539963656"><ele>304.0</ele><time>2026-04-30T09:13:54Z</time></trkpt><trkpt lat="42.57167858139944" lon="11.532406974050797"><ele>303.0</ele><time>2026-04-30T09:13:55Z</time></trkpt><trkpt lat="42.5714858164351" lon="11.53248317136036"><ele>302.0</ele><time>2026-04-30T09:13:56Z</time></trkpt><trkpt lat="42.571326567900044" lon="11.532582187128144"><ele>300.33333333333337</ele><time>2026-04-30T09:13:57Z</time></trkpt><trkpt lat="42.57116031412765" lon="11.532711251430953"><ele>298.6666666666667</ele><time>2026-04-30T09:13:58Z</time></trkpt><trkpt lat="42.57100563945889" lon="11.532857752793092"><ele>297.0</ele><time>2026-04-30T09:13:59Z</time></trkpt><trkpt lat="42.5708516693086" lon="11.532997058225611"><ele>297.0</ele><time>2026-04-30T09:14:00Z</time></trkpt><trkpt lat="42.570708183118505" lon="11.533148031559747"><ele>297.0</ele><time>2026-04-30T09:14:01Z</time></trkpt><trkpt lat="42.570572059643894" lon="11.53328286183645"><ele>297.0</ele><time>2026-04-30T09:14:02Z</time></trkpt><trkpt lat="42.57046050050987" lon="11.533399313060347"><ele>297.0</ele><time>2026-04-30T09:14:03Z</time></trkpt><trkpt lat="42.57044272370149" lon="11.533605063578857"><ele>297.0</ele><time>2026-04-30T09:14:04Z</time></trkpt><trkpt lat="42.5704278724641" lon="11.533816606482342"><ele>297.0</ele><time>2026-04-30T09:14:05Z</time></trkpt><trkpt lat="42.57047568237708" lon="11.534019022291504"><ele>296.3333333333333</ele><time>2026-04-30T09:14:06Z</time></trkpt><trkpt lat="42.57052817083964" lon="11.534209379572133"><ele>295.66666666666663</ele><time>2026-04-30T09:14:07Z</time></trkpt><trkpt lat="42.57060154500893" lon="11.534391179786986"><ele>295.0</ele><time>2026-04-30T09:14:08Z</time></trkpt><trkpt lat="42.57069205142538" lon="11.534576503510827"><ele>294.0</ele><time>2026-04-30T09:14:09Z</time></trkpt><trkpt lat="42.57080031668351" lon="11.534755161794012"><ele>293.0</ele><time>2026-04-30T09:14:10Z</time></trkpt><trkpt lat="42.57094862751441" lon="11.534878907417662"><ele>292.0</ele><time>2026-04-30T09:14:11Z</time></trkpt><trkpt lat="42.57106359779643" lon="11.534954407760708"><ele>292.0</ele><time>2026-04-30T09:14:12Z</time></trkpt><trkpt lat="42.571171654385715" lon="11.535039318092185"><ele>292.0</ele><time>2026-04-30T09:14:13Z</time></trkpt><trkpt lat="42.571301739363655" lon="11.535107700649968"><ele>292.0</ele><time>2026-04-30T09:14:14Z</time></trkpt><trkpt lat="42.57141369322149" lon="11.535198285207695"><ele>292.0</ele><time>2026-04-30T09:14:15Z</time></trkpt><trkpt lat="42.57147390102999" lon="11.53526671533252"><ele>292.4</ele><time>2026-04-30T09:14:16Z</time></trkpt><trkpt lat="42.571549002591574" lon="11.535381302010078"><ele>292.79999999999995</ele><time>2026-04-30T09:14:17Z</time></trkpt><trkpt lat="42.5716069298307" lon="11.535496471282263"><ele>293.2</ele><time>2026-04-30T09:14:18Z</time></trkpt><trkpt lat="42.57165720743104" lon="11.535586303846248"><ele>293.59999999999997</ele><time>2026-04-30T09:14:19Z</time></trkpt><trkpt lat="42.57170335080428" lon="11.535689618107535"><ele>294.0</ele><time>2026-04-30T09:14:21Z</time></trkpt><trkpt lat="42.57173393092253" lon="11.535783671350286"><ele>294.0</ele><time>2026-04-30T09:14:23Z</time></trkpt><trkpt lat="42.57176301028129" lon="11.535888654711837"><ele>294.0</ele><time>2026-04-30T09:14:25Z</time></trkpt><trkpt lat="42.57177496067694" lon="11.536016182587314"><ele>294.0</ele><time>2026-04-30T09:14:27Z</time></trkpt><trkpt lat="42.571646484520215" lon="11.536150161137357"><ele>294.0</ele><time>2026-04-30T09:14:30Z</time></trkpt><trkpt lat="42.57156924184151" lon="11.536164714191962"><ele>294.0</ele><time>2026-04-30T09:14:32Z</time></trkpt><trkpt lat="42.57144286381583" lon="11.536111054449384"><ele>294.0</ele><time>2026-04-30T09:14:33.999Z</time></trkpt><trkpt lat="42.57137226306992" lon="11.536056790672715"><ele>294.0</ele><time>2026-04-30T09:14:34.999Z</time></trkpt><trkpt lat="42.571291267872574" lon="11.535987406772778"><ele>294.0</ele><time>2026-04-30T09:14:35.999Z</time></trkpt><trkpt lat="42.5712312879245" lon="11.53577209147147"><ele>294.0</ele><time>2026-04-30T09:14:36.999Z</time></trkpt><trkpt lat="42.571157196048794" lon="11.535713713733571"><ele>294.0</ele><time>2026-04-30T09:14:37.999Z</time></trkpt><trkpt lat="42.571060396055344" lon="11.53561663775654"><ele>293.5</ele><time>2026-04-30T09:14:38.999Z</time></trkpt><trkpt lat="42.5709450316858" lon="11.5354995971828"><ele>293.0</ele><time>2026-04-30T09:14:39.999Z</time></trkpt><trkpt lat="42.57084593624858" lon="11.535399061954262"><ele>292.5</ele><time>2026-04-30T09:14:40.999Z</time></trkpt><trkpt lat="42.570701410571495" lon="11.535252436413598"><ele>292.0</ele><time>2026-04-30T09:14:41.999Z</time></trkpt><trkpt lat="42.57056505662937" lon="11.535138710540833"><ele>292.0</ele><time>2026-04-30T09:14:42.999Z</time></trkpt><trkpt lat="42.57043884479459" lon="11.535013514707614"><ele>292.0</ele><time>2026-04-30T09:14:43.999Z</time></trkpt><trkpt lat="42.57030185294053" lon="11.53487693028463"><ele>292.0</ele><time>2026-04-30T09:14:44.999Z</time></trkpt><trkpt lat="42.5701699592311" lon="11.534738694788059"><ele>289.66666666666663</ele><time>2026-04-30T09:14:45.999Z</time></trkpt><trkpt lat="42.570035041649234" lon="11.53460302070495"><ele>287.3333333333333</ele><time>2026-04-30T09:14:46.999Z</time></trkpt><trkpt lat="42.569910217351534" lon="11.534446839619575"><ele>285.0</ele><time>2026-04-30T09:14:47.999Z</time></trkpt><trkpt lat="42.56979065026195" lon="11.534275900229314"><ele>285.0</ele><time>2026-04-30T09:14:48.999Z</time></trkpt><trkpt lat="42.569702918069105" lon="11.534072823021447"><ele>285.0</ele><time>2026-04-30T09:14:49.999Z</time></trkpt><trkpt lat="42.569622042349415" lon="11.533847579209551"><ele>285.0</ele><time>2026-04-30T09:14:50.999Z</time></trkpt><trkpt lat="42.56954151008293" lon="11.533626968686276"><ele>280.3333333333333</ele><time>2026-04-30T09:14:51.999Z</time></trkpt><trkpt lat="42.56946957610871" lon="11.533392251576425"><ele>275.66666666666663</ele><time>2026-04-30T09:14:52.999Z</time></trkpt><trkpt lat="42.56938850560465" lon="11.533177536934257"><ele>271.0</ele><time>2026-04-30T09:14:53.999Z</time></trkpt><trkpt lat="42.56931301488373" lon="11.532957687949507"><ele>271.3333333333333</ele><time>2026-04-30T09:14:54.999Z</time></trkpt><trkpt lat="42.569248656006685" lon="11.53274449604712"><ele>271.6666666666667</ele><time>2026-04-30T09:14:55.999Z</time></trkpt><trkpt lat="42.569182205932876" lon="11.53254459780463"><ele>272.0</ele><time>2026-04-30T09:14:56.999Z</time></trkpt><trkpt lat="42.56909695934955" lon="11.532359467821854"><ele>272.0</ele><time>2026-04-30T09:14:57.999Z</time></trkpt><trkpt lat="42.56899703578665" lon="11.53217354188799"><ele>272.0</ele><time>2026-04-30T09:14:58.999Z</time></trkpt><trkpt lat="42.56885613744774" lon="11.532043785490806"><ele>272.0</ele><time>2026-04-30T09:14:59.999Z</time></trkpt><trkpt lat="42.56871128300718" lon="11.531975174561241"><ele>271.6666666666667</ele><time>2026-04-30T09:15:00.999Z</time></trkpt><trkpt lat="42.568531441393134" lon="11.531951404207781"><ele>271.3333333333333</ele><time>2026-04-30T09:15:01.999Z</time></trkpt><trkpt lat="42.56836617398639" lon="11.531915539430372"><ele>271.0</ele><time>2026-04-30T09:15:02.999Z</time></trkpt><trkpt lat="42.56817868166127" lon="11.531874851559614"><ele>271.0</ele><time>2026-04-30T09:15:03.999Z</time></trkpt><trkpt lat="42.56799793024451" lon="11.531835626570755"><ele>271.0</ele><time>2026-04-30T09:15:04.999Z</time></trkpt><trkpt lat="42.56779587383978" lon="11.531791778186353"><ele>271.0</ele><time>2026-04-30T09:15:05.999Z</time></trkpt><trkpt lat="42.567603332444335" lon="11.531749994610683"><ele>269.0</ele><time>2026-04-30T09:15:06.999Z</time></trkpt><trkpt lat="42.56740655193046" lon="11.531696660122236"><ele>267.0</ele><time>2026-04-30T09:15:07.999Z</time></trkpt><trkpt lat="42.56722046994651" lon="11.531660029027345"><ele>265.0</ele><time>2026-04-30T09:15:08.999Z</time></trkpt><trkpt lat="42.56703324640518" lon="11.531640310436707"><ele>263.0</ele><time>2026-04-30T09:15:09.999Z</time></trkpt><trkpt lat="42.56685593135274" lon="11.531605794679649"><ele>261.0</ele><time>2026-04-30T09:15:10.999Z</time></trkpt><trkpt lat="42.56668045100288" lon="11.531564218722515"><ele>259.0</ele><time>2026-04-30T09:15:11.999Z</time></trkpt><trkpt lat="42.566498744722594" lon="11.531528951497195"><ele>259.0</ele><time>2026-04-30T09:15:12.999Z</time></trkpt><trkpt lat="42.56632984768725" lon="11.531474408399523"><ele>259.0</ele><time>2026-04-30T09:15:13.999Z</time></trkpt><trkpt lat="42.56614999181926" lon="11.53138117113108"><ele>259.0</ele><time>2026-04-30T09:15:14.999Z</time></trkpt><trkpt lat="42.565986092376164" lon="11.531260876931839"><ele>257.3333333333333</ele><time>2026-04-30T09:15:15.999Z</time></trkpt><trkpt lat="42.56587190915593" lon="11.53109529670943"><ele>255.66666666666669</ele><time>2026-04-30T09:15:16.999Z</time></trkpt><trkpt lat="42.56576541349032" lon="11.530897197928905"><ele>254.0</ele><time>2026-04-30T09:15:17.999Z</time></trkpt><trkpt lat="42.56566873519323" lon="11.530664388141714"><ele>254.0</ele><time>2026-04-30T09:15:18.999Z</time></trkpt><trkpt lat="42.565587442708576" lon="11.530424865601722"><ele>254.0</ele><time>2026-04-30T09:15:19.999Z</time></trkpt><trkpt lat="42.56547742323848" lon="11.530188712742346"><ele>254.0</ele><time>2026-04-30T09:15:20.999Z</time></trkpt><trkpt lat="42.56535996880287" lon="11.529952748694289"><ele>251.33333333333334</ele><time>2026-04-30T09:15:21.999Z</time></trkpt><trkpt lat="42.56525503374903" lon="11.52969691656322"><ele>248.66666666666669</ele><time>2026-04-30T09:15:22.999Z</time></trkpt><trkpt lat="42.5651544222324" lon="11.529450719567667"><ele>246.0</ele><time>2026-04-30T09:15:23.999Z</time></trkpt><trkpt lat="42.565049336781136" lon="11.52920099008133"><ele>246.0</ele><time>2026-04-30T09:15:24.999Z</time></trkpt><trkpt lat="42.56494128126912" lon="11.52895315045032"><ele>246.0</ele><time>2026-04-30T09:15:25.999Z</time></trkpt><trkpt lat="42.56483052733297" lon="11.528693326647215"><ele>246.0</ele><time>2026-04-30T09:15:26.999Z</time></trkpt><trkpt lat="42.56471783951958" lon="11.5284291837721"><ele>245.5</ele><time>2026-04-30T09:15:27.999Z</time></trkpt><trkpt lat="42.56460406550249" lon="11.528162026441139"><ele>245.0</ele><time>2026-04-30T09:15:28.998Z</time></trkpt><trkpt lat="42.564490186633705" lon="11.527897712052619"><ele>242.0</ele><time>2026-04-30T09:15:29.998Z</time></trkpt><trkpt lat="42.564373696258464" lon="11.52762203320274"><ele>239.0</ele><time>2026-04-30T09:15:30.998Z</time></trkpt><trkpt lat="42.564268532586084" lon="11.527350331762996"><ele>239.0</ele><time>2026-04-30T09:15:31.998Z</time></trkpt><trkpt lat="42.56416632811229" lon="11.527093679751694"><ele>239.0</ele><time>2026-04-30T09:15:32.998Z</time></trkpt><trkpt lat="42.5640607020627" lon="11.52685121920208"><ele>239.0</ele><time>2026-04-30T09:15:33.998Z</time></trkpt><trkpt lat="42.56394413105759" lon="11.526631731994241"><ele>239.0</ele><time>2026-04-30T09:15:34.998Z</time></trkpt><trkpt lat="42.56381609923633" lon="11.526431130571467"><ele>239.0</ele><time>2026-04-30T09:15:35.998Z</time></trkpt><trkpt lat="42.56366823227201" lon="11.5262821332068"><ele>239.0</ele><time>2026-04-30T09:15:36.998Z</time></trkpt><trkpt lat="42.56350020106489" lon="11.526157153178387"><ele>241.66666666666669</ele><time>2026-04-30T09:15:37.998Z</time></trkpt><trkpt lat="42.56332155513214" lon="11.526062414209003"><ele>244.33333333333331</ele><time>2026-04-30T09:15:39Z</time></trkpt><trkpt lat="42.56312921745145" lon="11.525985504980367"><ele>247.0</ele><time>2026-04-30T09:15:40Z</time></trkpt><trkpt lat="42.562950743825496" lon="11.525949066130798"><ele>247.33333333333331</ele><time>2026-04-30T09:15:41Z</time></trkpt><trkpt lat="42.562758165013854" lon="11.525907848784724"><ele>247.66666666666669</ele><time>2026-04-30T09:15:42Z</time></trkpt><trkpt lat="42.562567242774094" lon="11.525876752010689"><ele>248.0</ele><time>2026-04-30T09:15:43Z</time></trkpt><trkpt lat="42.562379120775134" lon="11.525842590794408"><ele>248.0</ele><time>2026-04-30T09:15:44Z</time></trkpt><trkpt lat="42.562192249061106" lon="11.525808738172003"><ele>248.0</ele><time>2026-04-30T09:15:45Z</time></trkpt><trkpt lat="42.56200366147801" lon="11.525741346994934"><ele>248.0</ele><time>2026-04-30T09:15:46Z</time></trkpt><trkpt lat="42.56180692862897" lon="11.52567760583472"><ele>247.66666666666669</ele><time>2026-04-30T09:15:47Z</time></trkpt><trkpt lat="42.5616049639848" lon="11.525608101882112"><ele>247.33333333333331</ele><time>2026-04-30T09:15:48Z</time></trkpt><trkpt lat="42.56139690985237" lon="11.525495004892546"><ele>247.0</ele><time>2026-04-30T09:15:49Z</time></trkpt><trkpt lat="42.561216713280196" lon="11.525374277263673"><ele>246.33333333333331</ele><time>2026-04-30T09:15:50Z</time></trkpt><trkpt lat="42.561063660789706" lon="11.525205799356389"><ele>245.66666666666669</ele><time>2026-04-30T09:15:51Z</time></trkpt><trkpt lat="42.56090226957435" lon="11.525043744410564"><ele>245.0</ele><time>2026-04-30T09:15:52Z</time></trkpt><trkpt lat="42.56074488935342" lon="11.524872700899486"><ele>245.0</ele><time>2026-04-30T09:15:53Z</time></trkpt><trkpt lat="42.56059059681622" lon="11.524704965088386"><ele>245.0</ele><time>2026-04-30T09:15:54Z</time></trkpt><trkpt lat="42.5604313389611" lon="11.524543511804469"><ele>245.0</ele><time>2026-04-30T09:15:55Z</time></trkpt><trkpt lat="42.56025704625455" lon="11.524382465279837"><ele>244.33333333333334</ele><time>2026-04-30T09:15:56Z</time></trkpt><trkpt lat="42.56007979940782" lon="11.524248464292139"><ele>243.66666666666669</ele><time>2026-04-30T09:15:57Z</time></trkpt><trkpt lat="42.559882618908915" lon="11.524131180948258"><ele>243.0</ele><time>2026-04-30T09:15:58Z</time></trkpt><trkpt lat="42.55968309230497" lon="11.52400542120911"><ele>241.33333333333331</ele><time>2026-04-30T09:15:59Z</time></trkpt><trkpt lat="42.55947984404253" lon="11.52389267502163"><ele>239.66666666666666</ele><time>2026-04-30T09:16:00Z</time></trkpt><trkpt lat="42.559274712615505" lon="11.523763466070495"><ele>238.0</ele><time>2026-04-30T09:16:01Z</time></trkpt><trkpt lat="42.55906923076669" lon="11.523631681077356"><ele>238.0</ele><time>2026-04-30T09:16:02Z</time></trkpt><trkpt lat="42.558869227503784" lon="11.52351227147793"><ele>238.0</ele><time>2026-04-30T09:16:03Z</time></trkpt><trkpt lat="42.55865939297608" lon="11.523389069369244"><ele>238.0</ele><time>2026-04-30T09:16:04Z</time></trkpt><trkpt lat="42.558452566944226" lon="11.523264135168917"><ele>236.66666666666666</ele><time>2026-04-30T09:16:05Z</time></trkpt><trkpt lat="42.55824849778306" lon="11.5231408578797"><ele>235.33333333333331</ele><time>2026-04-30T09:16:06Z</time></trkpt><trkpt lat="42.558044937756804" lon="11.523023232658428"><ele>234.0</ele><time>2026-04-30T09:16:07Z</time></trkpt><trkpt lat="42.55785103097299" lon="11.522904765659089"><ele>233.66666666666669</ele><time>2026-04-30T09:16:08Z</time></trkpt><trkpt lat="42.55764985130219" lon="11.522786190461867"><ele>233.33333333333334</ele><time>2026-04-30T09:16:09Z</time></trkpt><trkpt lat="42.55745420915921" lon="11.522663943902087"><ele>233.0</ele><time>2026-04-30T09:16:10Z</time></trkpt><trkpt lat="42.55725826946162" lon="11.522565954473766"><ele>233.0</ele><time>2026-04-30T09:16:11Z</time></trkpt><trkpt lat="42.557044198430305" lon="11.522497690321545"><ele>233.0</ele><time>2026-04-30T09:16:12Z</time></trkpt><trkpt lat="42.5568279474377" lon="11.522454678803614"><ele>233.0</ele><time>2026-04-30T09:16:13Z</time></trkpt><trkpt lat="42.556608599356466" lon="11.522424774232954"><ele>233.0</ele><time>2026-04-30T09:16:14Z</time></trkpt><trkpt lat="42.556392233344404" lon="11.522389163082245"><ele>233.0</ele><time>2026-04-30T09:16:15Z</time></trkpt><trkpt lat="42.556170533393114" lon="11.522349685370658"><ele>233.0</ele><time>2026-04-30T09:16:16Z</time></trkpt><trkpt lat="42.55594533098785" lon="11.522310235798345"><ele>233.0</ele><time>2026-04-30T09:16:17Z</time></trkpt><trkpt lat="42.55572247971417" lon="11.522274766350204"><ele>233.0</ele><time>2026-04-30T09:16:18Z</time></trkpt><trkpt lat="42.5554950918316" lon="11.522241891613346"><ele>232.0</ele><time>2026-04-30T09:16:19Z</time></trkpt><trkpt lat="42.55526408613262" lon="11.522206547796142"><ele>231.0</ele><time>2026-04-30T09:16:20Z</time></trkpt><trkpt lat="42.55503439588175" lon="11.522171834416127"><ele>231.0</ele><time>2026-04-30T09:16:21Z</time></trkpt><trkpt lat="42.55480389982365" lon="11.52213554538415"><ele>231.0</ele><time>2026-04-30T09:16:22Z</time></trkpt><trkpt lat="42.55457962706552" lon="11.522096905549647"><ele>230.0</ele><time>2026-04-30T09:16:23Z</time></trkpt><trkpt lat="42.55435385545669" lon="11.522062384877648"><ele>229.0</ele><time>2026-04-30T09:16:24Z</time></trkpt><trkpt lat="42.55412791662436" lon="11.522026181584634"><ele>229.0</ele><time>2026-04-30T09:16:25Z</time></trkpt><trkpt lat="42.55390279247888" lon="11.52198747411228"><ele>229.0</ele><time>2026-04-30T09:16:26Z</time></trkpt><trkpt lat="42.55367600751144" lon="11.521951018577528"><ele>228.5</ele><time>2026-04-30T09:16:27Z</time></trkpt><trkpt lat="42.553450586020865" lon="11.521914157445739"><ele>228.0</ele><time>2026-04-30T09:16:28Z</time></trkpt><trkpt lat="42.553221892556934" lon="11.52188332798352"><ele>228.0</ele><time>2026-04-30T09:16:29Z</time></trkpt><trkpt lat="42.55299122836761" lon="11.52184917238991"><ele>228.0</ele><time>2026-04-30T09:16:30Z</time></trkpt><trkpt lat="42.55276190259351" lon="11.521813073486486"><ele>228.5</ele><time>2026-04-30T09:16:31Z</time></trkpt><trkpt lat="42.55253554764989" lon="11.52176803612765"><ele>229.0</ele><time>2026-04-30T09:16:32Z</time></trkpt><trkpt lat="42.55230657024265" lon="11.521724131925422"><ele>229.0</ele><time>2026-04-30T09:16:33Z</time></trkpt><trkpt lat="42.55208318725663" lon="11.52168210268407"><ele>229.0</ele><time>2026-04-30T09:16:34Z</time></trkpt><trkpt lat="42.551872881501026" lon="11.521652810192494"><ele>229.0</ele><time>2026-04-30T09:16:35Z</time></trkpt><trkpt lat="42.551669533702075" lon="11.521623180783847"><ele>229.0</ele><time>2026-04-30T09:16:36Z</time></trkpt><trkpt lat="42.55147144674727" lon="11.521607901943627"><ele>229.0</ele><time>2026-04-30T09:16:37Z</time></trkpt><trkpt lat="42.55126630545047" lon="11.521638222320409"><ele>229.0</ele><time>2026-04-30T09:16:38Z</time></trkpt><trkpt lat="42.55108072731614" lon="11.521708501310588"><ele>229.0</ele><time>2026-04-30T09:16:39Z</time></trkpt><trkpt lat="42.55091159063486" lon="11.52181549599204"><ele>229.0</ele><time>2026-04-30T09:16:40Z</time></trkpt><trkpt lat="42.55075563704272" lon="11.521963214976688"><ele>229.0</ele><time>2026-04-30T09:16:41Z</time></trkpt><trkpt lat="42.5506335327733" lon="11.522143617892409"><ele>228.33333333333331</ele><time>2026-04-30T09:16:41.999Z</time></trkpt><trkpt lat="42.55054829164238" lon="11.522358648718944"><ele>227.66666666666669</ele><time>2026-04-30T09:16:42.999Z</time></trkpt><trkpt lat="42.550497737245045" lon="11.522622369008987"><ele>227.0</ele><time>2026-04-30T09:16:43.999Z</time></trkpt><trkpt lat="42.55045123723045" lon="11.522880806165801"><ele>227.33333333333334</ele><time>2026-04-30T09:16:44.999Z</time></trkpt><trkpt lat="42.55037791758229" lon="11.52312338992378"><ele>227.66666666666669</ele><time>2026-04-30T09:16:45.999Z</time></trkpt><trkpt lat="42.550299764032765" lon="11.523365646547656"><ele>228.0</ele><time>2026-04-30T09:16:46.999Z</time></trkpt><trkpt lat="42.55020154942121" lon="11.523619796324835"><ele>226.33333333333331</ele><time>2026-04-30T09:16:47.999Z</time></trkpt><trkpt lat="42.55012159179186" lon="11.523854327158464"><ele>224.66666666666666</ele><time>2026-04-30T09:16:48.999Z</time></trkpt><trkpt lat="42.55002652799453" lon="11.524085877554034"><ele>223.0</ele><time>2026-04-30T09:16:49.999Z</time></trkpt><trkpt lat="42.54994381089137" lon="11.524312706895133"><ele>223.0</ele><time>2026-04-30T09:16:50.999Z</time></trkpt><trkpt lat="42.549863122958" lon="11.524528101225597"><ele>223.0</ele><time>2026-04-30T09:16:51.999Z</time></trkpt><trkpt lat="42.549771232840534" lon="11.524732737510163"><ele>223.0</ele><time>2026-04-30T09:16:52.999Z</time></trkpt><trkpt lat="42.54964310132658" lon="11.524892227153591"><ele>222.33333333333331</ele><time>2026-04-30T09:16:53.999Z</time></trkpt><trkpt lat="42.54949603741776" lon="11.525010628739361"><ele>221.66666666666669</ele><time>2026-04-30T09:16:54.999Z</time></trkpt><trkpt lat="42.54935863883489" lon="11.525078906210938"><ele>221.0</ele><time>2026-04-30T09:16:55.999Z</time></trkpt><trkpt lat="42.54921994947256" lon="11.525112966746866"><ele>221.0</ele><time>2026-04-30T09:16:56.999Z</time></trkpt><trkpt lat="42.54906638614708" lon="11.525124392034343"><ele>221.0</ele><time>2026-04-30T09:16:57.999Z</time></trkpt><trkpt lat="42.548869910116316" lon="11.5251466169353"><ele>221.0</ele><time>2026-04-30T09:16:58.999Z</time></trkpt><trkpt lat="42.54865197538111" lon="11.525170613529752"><ele>220.33333333333334</ele><time>2026-04-30T09:16:59.999Z</time></trkpt><trkpt lat="42.54845703859904" lon="11.525193563063057"><ele>219.66666666666669</ele><time>2026-04-30T09:17:00.999Z</time></trkpt><trkpt lat="42.548256492721045" lon="11.525217172944961"><ele>219.0</ele><time>2026-04-30T09:17:01.999Z</time></trkpt><trkpt lat="42.54806158094456" lon="11.525239976663048"><ele>220.66666666666669</ele><time>2026-04-30T09:17:02.999Z</time></trkpt><trkpt lat="42.547861490918656" lon="11.525261441701554"><ele>222.33333333333334</ele><time>2026-04-30T09:17:03.999Z</time></trkpt><trkpt lat="42.54766417727014" lon="11.525282074138467"><ele>224.0</ele><time>2026-04-30T09:17:04.999Z</time></trkpt><trkpt lat="42.54747645386247" lon="11.525347225704625"><ele>224.0</ele><time>2026-04-30T09:17:05.999Z</time></trkpt><trkpt lat="42.54727194589122" lon="11.525371554266442"><ele>224.0</ele><time>2026-04-30T09:17:06.999Z</time></trkpt><trkpt lat="42.547071908378996" lon="11.525392599458144"><ele>224.0</ele><time>2026-04-30T09:17:07.999Z</time></trkpt><trkpt lat="42.54687379840123" lon="11.525414299761362"><ele>227.0</ele><time>2026-04-30T09:17:08.999Z</time></trkpt><trkpt lat="42.546673752142546" lon="11.525394150138172"><ele>230.0</ele><time>2026-04-30T09:17:09.999Z</time></trkpt><trkpt lat="42.546473447291035" lon="11.525415572924205"><ele>233.0</ele><time>2026-04-30T09:17:10.999Z</time></trkpt><trkpt lat="42.54627417562914" lon="11.525437834465093"><ele>235.0</ele><time>2026-04-30T09:17:11.999Z</time></trkpt><trkpt lat="42.54608152593977" lon="11.525474496137402"><ele>237.0</ele><time>2026-04-30T09:17:12.999Z</time></trkpt><trkpt lat="42.54590332285594" lon="11.525543044877455"><ele>239.0</ele><time>2026-04-30T09:17:13.999Z</time></trkpt><trkpt lat="42.545743023251205" lon="11.525664422881295"><ele>239.0</ele><time>2026-04-30T09:17:14.999Z</time></trkpt><trkpt lat="42.545552675227086" lon="11.525778754786893"><ele>239.0</ele><time>2026-04-30T09:17:15.999Z</time></trkpt><trkpt lat="42.54539936168923" lon="11.52589614548484"><ele>239.0</ele><time>2026-04-30T09:17:16.999Z</time></trkpt><trkpt lat="42.54522498798743" lon="11.526032087274837"><ele>239.0</ele><time>2026-04-30T09:17:17.999Z</time></trkpt><trkpt lat="42.54504919260184" lon="11.526167080693714"><ele>239.0</ele><time>2026-04-30T09:17:18.999Z</time></trkpt><trkpt lat="42.54487356311663" lon="11.526315412609167"><ele>239.0</ele><time>2026-04-30T09:17:19.999Z</time></trkpt><trkpt lat="42.5446976553493" lon="11.526438845541318"><ele>241.0</ele><time>2026-04-30T09:17:20.999Z</time></trkpt><trkpt lat="42.54450969116183" lon="11.526545537188722"><ele>243.0</ele><time>2026-04-30T09:17:21.999Z</time></trkpt><trkpt lat="42.54432559957035" lon="11.526632536778969"><ele>245.0</ele><time>2026-04-30T09:17:22.999Z</time></trkpt><trkpt lat="42.54411128276792" lon="11.526668824379428"><ele>245.0</ele><time>2026-04-30T09:17:23.999Z</time></trkpt><trkpt lat="42.54391238828378" lon="11.526726161806726"><ele>245.0</ele><time>2026-04-30T09:17:24.999Z</time></trkpt><trkpt lat="42.54372046047093" lon="11.526782169782125"><ele>245.0</ele><time>2026-04-30T09:17:25.999Z</time></trkpt><trkpt lat="42.54350248449362" lon="11.526826974839821"><ele>246.0</ele><time>2026-04-30T09:17:26.999Z</time></trkpt><trkpt lat="42.54328576210872" lon="11.526867292060583"><ele>247.0</ele><time>2026-04-30T09:17:27.999Z</time></trkpt><trkpt lat="42.54307303143303" lon="11.526901298513407"><ele>248.0</ele><time>2026-04-30T09:17:28.999Z</time></trkpt><trkpt lat="42.54285683298224" lon="11.52693889572074"><ele>247.66666666666669</ele><time>2026-04-30T09:17:29.999Z</time></trkpt><trkpt lat="42.54264732786145" lon="11.526972353012367"><ele>247.33333333333331</ele><time>2026-04-30T09:17:30.999Z</time></trkpt><trkpt lat="42.54242779842533" lon="11.527018160406307"><ele>247.0</ele><time>2026-04-30T09:17:31.999Z</time></trkpt><trkpt lat="42.542212843559234" lon="11.52707925397102"><ele>247.5</ele><time>2026-04-30T09:17:32.999Z</time></trkpt><trkpt lat="42.54199825609095" lon="11.527158029645967"><ele>248.0</ele><time>2026-04-30T09:17:33.999Z</time></trkpt><trkpt lat="42.541772796507274" lon="11.52725423159402"><ele>248.0</ele><time>2026-04-30T09:17:34.999Z</time></trkpt><trkpt lat="42.54155270053006" lon="11.527330108720466"><ele>248.0</ele><time>2026-04-30T09:17:35.999Z</time></trkpt><trkpt lat="42.54133967654721" lon="11.527413563336633"><ele>248.0</ele><time>2026-04-30T09:17:36.998Z</time></trkpt><trkpt lat="42.54113306075067" lon="11.52749886958386"><ele>247.0</ele><time>2026-04-30T09:17:37.998Z</time></trkpt><trkpt lat="42.540938469328715" lon="11.527589112327247"><ele>246.0</ele><time>2026-04-30T09:17:38.998Z</time></trkpt><trkpt lat="42.5407396363197" lon="11.527661383233388"><ele>245.0</ele><time>2026-04-30T09:17:39.998Z</time></trkpt><trkpt lat="42.540569352270296" lon="11.527737457943365"><ele>245.0</ele><time>2026-04-30T09:17:40.998Z</time></trkpt><trkpt lat="42.54040587621116" lon="11.527765690006984"><ele>245.0</ele><time>2026-04-30T09:17:41.998Z</time></trkpt><trkpt lat="42.54023974953473" lon="11.52773832443139"><ele>245.0</ele><time>2026-04-30T09:17:42.998Z</time></trkpt><trkpt lat="42.54010005939812" lon="11.527655930637215"><ele>244.0</ele><time>2026-04-30T09:17:44Z</time></trkpt><trkpt lat="42.539973456485384" lon="11.527520371249015"><ele>243.0</ele><time>2026-04-30T09:17:45Z</time></trkpt><trkpt lat="42.539842741192324" lon="11.52733292951769"><ele>242.0</ele><time>2026-04-30T09:17:46Z</time></trkpt><trkpt lat="42.53968486845294" lon="11.5271468811668"><ele>242.0</ele><time>2026-04-30T09:17:47Z</time></trkpt><trkpt lat="42.53952483011433" lon="11.526957502812865"><ele>242.0</ele><time>2026-04-30T09:17:48Z</time></trkpt><trkpt lat="42.53936127512793" lon="11.52676892037177"><ele>242.0</ele><time>2026-04-30T09:17:49Z</time></trkpt><trkpt lat="42.53920542283002" lon="11.526578788238202"><ele>242.0</ele><time>2026-04-30T09:17:50Z</time></trkpt><trkpt lat="42.53904504929546" lon="11.526386765065382"><ele>242.0</ele><time>2026-04-30T09:17:51Z</time></trkpt><trkpt lat="42.538879721728875" lon="11.526183675842795"><ele>242.0</ele><time>2026-04-30T09:17:52Z</time></trkpt><trkpt lat="42.5387148086552" lon="11.525964845608033"><ele>240.5</ele><time>2026-04-30T09:17:53Z</time></trkpt><trkpt lat="42.53854667895612" lon="11.525752253236769"><ele>239.0</ele><time>2026-04-30T09:17:54Z</time></trkpt><trkpt lat="42.53837501725834" lon="11.525539721559841"><ele>238.0</ele><time>2026-04-30T09:17:55Z</time></trkpt><trkpt lat="42.53820530605037" lon="11.525323308767696"><ele>237.0</ele><time>2026-04-30T09:17:56Z</time></trkpt><trkpt lat="42.53802920160275" lon="11.525105560925907"><ele>239.5</ele><time>2026-04-30T09:17:57Z</time></trkpt><trkpt lat="42.53785566662957" lon="11.524889319620518"><ele>242.0</ele><time>2026-04-30T09:17:58Z</time></trkpt><trkpt lat="42.53767565948564" lon="11.52466567956362"><ele>241.0</ele><time>2026-04-30T09:17:59Z</time></trkpt><trkpt lat="42.53749682756144" lon="11.52444124498811"><ele>240.0</ele><time>2026-04-30T09:18:00Z</time></trkpt><trkpt lat="42.53731130339328" lon="11.52421233349369"><ele>240.0</ele><time>2026-04-30T09:18:01Z</time></trkpt><trkpt lat="42.53713032940894" lon="11.523980904746152"><ele>240.0</ele><time>2026-04-30T09:18:02Z</time></trkpt><trkpt lat="42.53695022686255" lon="11.523755308109333"><ele>243.0</ele><time>2026-04-30T09:18:03Z</time></trkpt><trkpt lat="42.53677112190598" lon="11.52353433889763"><ele>246.0</ele><time>2026-04-30T09:18:04Z</time></trkpt><trkpt lat="42.53658812862935" lon="11.523322225543254"><ele>246.0</ele><time>2026-04-30T09:18:05Z</time></trkpt><trkpt lat="42.53638465654553" lon="11.523149428093767"><ele>246.0</ele><time>2026-04-30T09:18:06Z</time></trkpt><trkpt lat="42.536173425487625" lon="11.523020727573945"><ele>247.5</ele><time>2026-04-30T09:18:07Z</time></trkpt><trkpt lat="42.5359556055833" lon="11.522925922463344"><ele>249.0</ele><time>2026-04-30T09:18:08Z</time></trkpt><trkpt lat="42.53573029066753" lon="11.522871521109726"><ele>249.0</ele><time>2026-04-30T09:18:09Z</time></trkpt><trkpt lat="42.53549990664728" lon="11.522825399649596"><ele>249.0</ele><time>2026-04-30T09:18:10Z</time></trkpt><trkpt lat="42.53524676587652" lon="11.522773815576814"><ele>250.5</ele><time>2026-04-30T09:18:11Z</time></trkpt><trkpt lat="42.535015036913826" lon="11.522713371508175"><ele>252.0</ele><time>2026-04-30T09:18:12Z</time></trkpt><trkpt lat="42.534785381759185" lon="11.522650756674407"><ele>252.0</ele><time>2026-04-30T09:18:13Z</time></trkpt><trkpt lat="42.53455562903036" lon="11.522589313429059"><ele>252.0</ele><time>2026-04-30T09:18:14Z</time></trkpt><trkpt lat="42.534323230839185" lon="11.522532091544228"><ele>254.0</ele><time>2026-04-30T09:18:15Z</time></trkpt><trkpt lat="42.53409819370926" lon="11.522453075649448"><ele>256.0</ele><time>2026-04-30T09:18:16Z</time></trkpt><trkpt lat="42.53388498986872" lon="11.522359172525015"><ele>258.0</ele><time>2026-04-30T09:18:17Z</time></trkpt><trkpt lat="42.533677198791736" lon="11.522251607293072"><ele>260.0</ele><time>2026-04-30T09:18:18Z</time></trkpt><trkpt lat="42.533470460154255" lon="11.522141842540416"><ele>262.0</ele><time>2026-04-30T09:18:19Z</time></trkpt><trkpt lat="42.53325632158209" lon="11.522040390248952"><ele>262.66666666666663</ele><time>2026-04-30T09:18:20Z</time></trkpt><trkpt lat="42.53304546044496" lon="11.521939349604942"><ele>263.3333333333333</ele><time>2026-04-30T09:18:21Z</time></trkpt><trkpt lat="42.532836668755564" lon="11.521836912588435"><ele>264.0</ele><time>2026-04-30T09:18:22Z</time></trkpt><trkpt lat="42.53262650330276" lon="11.52173413324253"><ele>265.0</ele><time>2026-04-30T09:18:23Z</time></trkpt><trkpt lat="42.53241845478612" lon="11.521635037871215"><ele>266.0</ele><time>2026-04-30T09:18:24Z</time></trkpt><trkpt lat="42.532208403679824" lon="11.52153380244727"><ele>267.0</ele><time>2026-04-30T09:18:25Z</time></trkpt><trkpt lat="42.53199991162987" lon="11.52143282874066"><ele>269.5</ele><time>2026-04-30T09:18:26Z</time></trkpt><trkpt lat="42.531790047410624" lon="11.52132137779367"><ele>272.0</ele><time>2026-04-30T09:18:27Z</time></trkpt><trkpt lat="42.5315749237677" lon="11.521216288591734"><ele>272.0</ele><time>2026-04-30T09:18:28Z</time></trkpt><trkpt lat="42.53135696051747" lon="11.521109367249744"><ele>272.0</ele><time>2026-04-30T09:18:29Z</time></trkpt><trkpt lat="42.53114946719529" lon="11.521000425874162"><ele>271.5</ele><time>2026-04-30T09:18:30Z</time></trkpt><trkpt lat="42.53094088333287" lon="11.520897894616919"><ele>271.0</ele><time>2026-04-30T09:18:31Z</time></trkpt><trkpt lat="42.53072658340253" lon="11.520790361968755"><ele>271.0</ele><time>2026-04-30T09:18:32Z</time></trkpt><trkpt lat="42.53051359234371" lon="11.520680745920945"><ele>271.0</ele><time>2026-04-30T09:18:33Z</time></trkpt><trkpt lat="42.530306870686644" lon="11.520577038673524"><ele>271.0</ele><time>2026-04-30T09:18:34Z</time></trkpt><trkpt lat="42.530096662564155" lon="11.520473998293095"><ele>271.66666666666663</ele><time>2026-04-30T09:18:35Z</time></trkpt><trkpt lat="42.529891667314985" lon="11.520368087503698"><ele>272.3333333333333</ele><time>2026-04-30T09:18:36Z</time></trkpt><trkpt lat="42.529697026208595" lon="11.520242436519787"><ele>273.0</ele><time>2026-04-30T09:18:37Z</time></trkpt><trkpt lat="42.529512844059" lon="11.520086035894069"><ele>271.0</ele><time>2026-04-30T09:18:38Z</time></trkpt><trkpt lat="42.52932712573563" lon="11.519895228786602"><ele>269.0</ele><time>2026-04-30T09:18:39Z</time></trkpt><trkpt lat="42.52915798396933" lon="11.519673447374446"><ele>267.0</ele><time>2026-04-30T09:18:40Z</time></trkpt><trkpt lat="42.52900436315371" lon="11.519400533276702"><ele>265.0</ele><time>2026-04-30T09:18:41Z</time></trkpt><trkpt lat="42.5288493857674" lon="11.519126788867311"><ele>259.5</ele><time>2026-04-30T09:18:42Z</time></trkpt><trkpt lat="42.5286836477476" lon="11.518868591415135"><ele>254.0</ele><time>2026-04-30T09:18:43Z</time></trkpt><trkpt lat="42.52850218200998" lon="11.518601455295796"><ele>251.5</ele><time>2026-04-30T09:18:44Z</time></trkpt><trkpt lat="42.52831534556037" lon="11.51834399345154"><ele>249.0</ele><time>2026-04-30T09:18:45Z</time></trkpt><trkpt lat="42.528129365538774" lon="11.518089006138657"><ele>251.0</ele><time>2026-04-30T09:18:46Z</time></trkpt><trkpt lat="42.52793031118331" lon="11.517839238999782"><ele>253.0</ele><time>2026-04-30T09:18:47Z</time></trkpt><trkpt lat="42.52775016046121" lon="11.517589345492778"><ele>246.0</ele><time>2026-04-30T09:18:48Z</time></trkpt><trkpt lat="42.52757510427974" lon="11.51733767814947"><ele>239.0</ele><time>2026-04-30T09:18:48.999Z</time></trkpt><trkpt lat="42.52740337118961" lon="11.517103947349549"><ele>242.0</ele><time>2026-04-30T09:18:49.999Z</time></trkpt><trkpt lat="42.52723157145992" lon="11.516868124492785"><ele>245.0</ele><time>2026-04-30T09:18:50.999Z</time></trkpt><trkpt lat="42.527063289162676" lon="11.516659865875978"><ele>243.33333333333334</ele><time>2026-04-30T09:18:51.999Z</time></trkpt><trkpt lat="42.52690911065075" lon="11.516439366586626"><ele>241.66666666666669</ele><time>2026-04-30T09:18:52.999Z</time></trkpt><trkpt lat="42.52678221512889" lon="11.516227206882053"><ele>240.0</ele><time>2026-04-30T09:18:53.999Z</time></trkpt><trkpt lat="42.52666505152781" lon="11.516018831445463"><ele>237.66666666666669</ele><time>2026-04-30T09:18:54.999Z</time></trkpt><trkpt lat="42.526563793483874" lon="11.515781615775579"><ele>235.33333333333334</ele><time>2026-04-30T09:18:55.999Z</time></trkpt><trkpt lat="42.52648922572632" lon="11.51554325713556"><ele>233.0</ele><time>2026-04-30T09:18:56.999Z</time></trkpt><trkpt lat="42.52643758540271" lon="11.515295207349752"><ele>232.33333333333334</ele><time>2026-04-30T09:18:57.999Z</time></trkpt><trkpt lat="42.52639803344776" lon="11.5150180456233"><ele>231.66666666666669</ele><time>2026-04-30T09:18:58.999Z</time></trkpt><trkpt lat="42.52635460458068" lon="11.51475602920932"><ele>231.0</ele><time>2026-04-30T09:18:59.999Z</time></trkpt><trkpt lat="42.52631303488153" lon="11.514517452980618"><ele>230.33333333333331</ele><time>2026-04-30T09:19:00.999Z</time></trkpt><trkpt lat="42.52626466816168" lon="11.514282428259522"><ele>229.66666666666666</ele><time>2026-04-30T09:19:01.999Z</time></trkpt><trkpt lat="42.52620033368644" lon="11.514059000012743"><ele>229.0</ele><time>2026-04-30T09:19:02.999Z</time></trkpt><trkpt lat="42.52610703179282" lon="11.51386552527683"><ele>232.33333333333331</ele><time>2026-04-30T09:19:03.999Z</time></trkpt><trkpt lat="42.52599775076912" lon="11.513695538652977"><ele>235.66666666666669</ele><time>2026-04-30T09:19:04.999Z</time></trkpt><trkpt lat="42.52587407317383" lon="11.513572243986316"><ele>239.0</ele><time>2026-04-30T09:19:05.999Z</time></trkpt><trkpt lat="42.525738420360284" lon="11.513513361802582"><ele>239.0</ele><time>2026-04-30T09:19:06.999Z</time></trkpt><trkpt lat="42.52555606170608" lon="11.513467850901534"><ele>239.0</ele><time>2026-04-30T09:19:07.999Z</time></trkpt><trkpt lat="42.5253742657495" lon="11.51341911024879"><ele>239.0</ele><time>2026-04-30T09:19:08.999Z</time></trkpt><trkpt lat="42.525185878980146" lon="11.513382434337085"><ele>241.66666666666669</ele><time>2026-04-30T09:19:09.999Z</time></trkpt><trkpt lat="42.52498991326192" lon="11.51334765298521"><ele>244.33333333333331</ele><time>2026-04-30T09:19:10.999Z</time></trkpt><trkpt lat="42.524788279985714" lon="11.513310208963556"><ele>247.0</ele><time>2026-04-30T09:19:11.999Z</time></trkpt><trkpt lat="42.52458335757462" lon="11.513272971252741"><ele>245.33333333333331</ele><time>2026-04-30T09:19:12.999Z</time></trkpt><trkpt lat="42.5243808608982" lon="11.513243337872565"><ele>243.66666666666669</ele><time>2026-04-30T09:19:13.999Z</time></trkpt><trkpt lat="42.52417951541483" lon="11.5132066039296"><ele>242.0</ele><time>2026-04-30T09:19:14.999Z</time></trkpt><trkpt lat="42.52397657592137" lon="11.513160843892924"><ele>242.0</ele><time>2026-04-30T09:19:15.999Z</time></trkpt><trkpt lat="42.52377052295787" lon="11.513099240314821"><ele>242.0</ele><time>2026-04-30T09:19:16.999Z</time></trkpt><trkpt lat="42.52356321963981" lon="11.513011816248108"><ele>242.0</ele><time>2026-04-30T09:19:17.999Z</time></trkpt><trkpt lat="42.523356208698836" lon="11.51289295935112"><ele>236.5</ele><time>2026-04-30T09:19:18.999Z</time></trkpt><trkpt lat="42.52315003683762" lon="11.512769660763952"><ele>231.0</ele><time>2026-04-30T09:19:19.999Z</time></trkpt><trkpt lat="42.52293307984371" lon="11.51264957870532"><ele>227.0</ele><time>2026-04-30T09:19:20.999Z</time></trkpt><trkpt lat="42.52271305198893" lon="11.512534900076538"><ele>223.0</ele><time>2026-04-30T09:19:21.999Z</time></trkpt><trkpt lat="42.52248920600932" lon="11.512413040654327"><ele>223.0</ele><time>2026-04-30T09:19:22.999Z</time></trkpt><trkpt lat="42.52226164121571" lon="11.512294363278713"><ele>223.0</ele><time>2026-04-30T09:19:23.999Z</time></trkpt><trkpt lat="42.522035935970614" lon="11.512179459364193"><ele>217.5</ele><time>2026-04-30T09:19:24.999Z</time></trkpt><trkpt lat="42.5218138342989" lon="11.512066170890499"><ele>212.0</ele><time>2026-04-30T09:19:25.999Z</time></trkpt><trkpt lat="42.52159769682623" lon="11.511952269778908"><ele>212.0</ele><time>2026-04-30T09:19:26.999Z</time></trkpt><trkpt lat="42.52137467846301" lon="11.511833609364098"><ele>212.0</ele><time>2026-04-30T09:19:27.999Z</time></trkpt><trkpt lat="42.52114808872686" lon="11.511716696974009"><ele>212.0</ele><time>2026-04-30T09:19:28.999Z</time></trkpt><trkpt lat="42.52092827817862" lon="11.511592401851166"><ele>212.0</ele><time>2026-04-30T09:19:29.999Z</time></trkpt><trkpt lat="42.520701967463744" lon="11.511471591266583"><ele>212.0</ele><time>2026-04-30T09:19:30.999Z</time></trkpt><trkpt lat="42.52047723620885" lon="11.511353714553094"><ele>212.0</ele><time>2026-04-30T09:19:31.999Z</time></trkpt><trkpt lat="42.520252708302735" lon="11.511243414815057"><ele>209.5</ele><time>2026-04-30T09:19:32.999Z</time></trkpt><trkpt lat="42.520024069691985" lon="11.51112951485024"><ele>207.0</ele><time>2026-04-30T09:19:33.999Z</time></trkpt><trkpt lat="42.51980140405336" lon="11.511009330034826"><ele>207.0</ele><time>2026-04-30T09:19:34.999Z</time></trkpt><trkpt lat="42.519591629296116" lon="11.510887042467184"><ele>207.0</ele><time>2026-04-30T09:19:35.999Z</time></trkpt><trkpt lat="42.5193736274701" lon="11.510776172067994"><ele>201.5</ele><time>2026-04-30T09:19:36.999Z</time></trkpt><trkpt lat="42.51916254649876" lon="11.510663392067128"><ele>196.0</ele><time>2026-04-30T09:19:37.999Z</time></trkpt><trkpt lat="42.51894548594242" lon="11.510550282278208"><ele>193.5</ele><time>2026-04-30T09:19:38.999Z</time></trkpt><trkpt lat="42.51871943818026" lon="11.510436196695407"><ele>191.0</ele><time>2026-04-30T09:19:39.999Z</time></trkpt><trkpt lat="42.518491982744024" lon="11.510320949135513"><ele>190.5</ele><time>2026-04-30T09:19:40.999Z</time></trkpt><trkpt lat="42.518268198588196" lon="11.510202541516797"><ele>190.0</ele><time>2026-04-30T09:19:41.999Z</time></trkpt><trkpt lat="42.51804227928348" lon="11.510075767363306"><ele>186.5</ele><time>2026-04-30T09:19:42.999Z</time></trkpt><trkpt lat="42.51781910288679" lon="11.509948630013625"><ele>183.0</ele><time>2026-04-30T09:19:43.998Z</time></trkpt><trkpt lat="42.5176020996573" lon="11.509847638253238"><ele>183.0</ele><time>2026-04-30T09:19:44.998Z</time></trkpt><trkpt lat="42.517386662463956" lon="11.509732628277167"><ele>183.0</ele><time>2026-04-30T09:19:45.998Z</time></trkpt><trkpt lat="42.51715711964331" lon="11.509622137328213"><ele>175.5</ele><time>2026-04-30T09:19:46.998Z</time></trkpt><trkpt lat="42.51692543896683" lon="11.509500215540406"><ele>168.0</ele><time>2026-04-30T09:19:47.998Z</time></trkpt><trkpt lat="42.516704216440296" lon="11.5093895999502"><ele>168.0</ele><time>2026-04-30T09:19:48.998Z</time></trkpt><trkpt lat="42.51649376831252" lon="11.509299865464946"><ele>168.0</ele><time>2026-04-30T09:19:50Z</time></trkpt><trkpt lat="42.516298325361056" lon="11.509222726112874"><ele>168.0</ele><time>2026-04-30T09:19:51Z</time></trkpt><trkpt lat="42.51611006078724" lon="11.509152644569035"><ele>166.33333333333334</ele><time>2026-04-30T09:19:52Z</time></trkpt><trkpt lat="42.51592766924866" lon="11.50909890720885"><ele>164.66666666666669</ele><time>2026-04-30T09:19:53Z</time></trkpt><trkpt lat="42.515750150360894" lon="11.509094113790368"><ele>163.0</ele><time>2026-04-30T09:19:54Z</time></trkpt><trkpt lat="42.51558570351067" lon="11.509139370701458"><ele>163.0</ele><time>2026-04-30T09:19:55Z</time></trkpt><trkpt lat="42.51542157055392" lon="11.509228975513464"><ele>163.0</ele><time>2026-04-30T09:19:56Z</time></trkpt><trkpt lat="42.515262179514174" lon="11.509345699892796"><ele>163.0</ele><time>2026-04-30T09:19:57Z</time></trkpt><trkpt lat="42.51509790682219" lon="11.509494411340158"><ele>164.0</ele><time>2026-04-30T09:19:58Z</time></trkpt><trkpt lat="42.51493704414021" lon="11.509650839833101"><ele>165.0</ele><time>2026-04-30T09:19:59Z</time></trkpt><trkpt lat="42.514761302686736" lon="11.509792154987707"><ele>166.0</ele><time>2026-04-30T09:20:00Z</time></trkpt><trkpt lat="42.514586039828686" lon="11.509939877293617"><ele>164.0</ele><time>2026-04-30T09:20:01Z</time></trkpt><trkpt lat="42.51441223071566" lon="11.510077035705512"><ele>162.0</ele><time>2026-04-30T09:20:02Z</time></trkpt><trkpt lat="42.51423866383374" lon="11.510221060956239"><ele>160.0</ele><time>2026-04-30T09:20:03Z</time></trkpt><trkpt lat="42.51405744162002" lon="11.51037210141867"><ele>160.0</ele><time>2026-04-30T09:20:04Z</time></trkpt><trkpt lat="42.51388633614328" lon="11.51052359206555"><ele>160.0</ele><time>2026-04-30T09:20:05Z</time></trkpt><trkpt lat="42.51371099534093" lon="11.51067276667545"><ele>160.0</ele><time>2026-04-30T09:20:06Z</time></trkpt><trkpt lat="42.51353472337697" lon="11.510812969383776"><ele>161.0</ele><time>2026-04-30T09:20:07Z</time></trkpt><trkpt lat="42.5133555499832" lon="11.510957566020569"><ele>162.0</ele><time>2026-04-30T09:20:08Z</time></trkpt><trkpt lat="42.51317955063792" lon="11.511111907698814"><ele>163.0</ele><time>2026-04-30T09:20:09Z</time></trkpt><trkpt lat="42.512996436234694" lon="11.511263152763847"><ele>161.33333333333334</ele><time>2026-04-30T09:20:10Z</time></trkpt><trkpt lat="42.51281261640295" lon="11.511408331124368"><ele>159.66666666666666</ele><time>2026-04-30T09:20:11Z</time></trkpt><trkpt lat="42.51262246541096" lon="11.51153390318007"><ele>158.0</ele><time>2026-04-30T09:20:12Z</time></trkpt><trkpt lat="42.51242551600659" lon="11.511634203951042"><ele>158.0</ele><time>2026-04-30T09:20:13Z</time></trkpt><trkpt lat="42.51222563864444" lon="11.511711440942621"><ele>158.0</ele><time>2026-04-30T09:20:14Z</time></trkpt><trkpt lat="42.51202123916374" lon="11.511758800006247"><ele>158.0</ele><time>2026-04-30T09:20:15Z</time></trkpt><trkpt lat="42.51181963951833" lon="11.511803132374936"><ele>160.66666666666666</ele><time>2026-04-30T09:20:16Z</time></trkpt><trkpt lat="42.51161665289467" lon="11.511851273898731"><ele>163.33333333333334</ele><time>2026-04-30T09:20:17Z</time></trkpt><trkpt lat="42.511419190852216" lon="11.511899597099829"><ele>166.0</ele><time>2026-04-30T09:20:18Z</time></trkpt><trkpt lat="42.51122462623261" lon="11.511951759690433"><ele>169.33333333333334</ele><time>2026-04-30T09:20:19Z</time></trkpt><trkpt lat="42.51103112769856" lon="11.512011831342791"><ele>172.66666666666666</ele><time>2026-04-30T09:20:20Z</time></trkpt><trkpt lat="42.51083706515843" lon="11.512074634118047"><ele>176.0</ele><time>2026-04-30T09:20:21Z</time></trkpt><trkpt lat="42.51064933148491" lon="11.512155883182043"><ele>176.0</ele><time>2026-04-30T09:20:22Z</time></trkpt><trkpt lat="42.5104596892621" lon="11.512256257111124"><ele>176.0</ele><time>2026-04-30T09:20:23Z</time></trkpt><trkpt lat="42.51029457730341" lon="11.512361715773704"><ele>176.0</ele><time>2026-04-30T09:20:24Z</time></trkpt><trkpt lat="42.51017408222166" lon="11.512484042894304"><ele>177.66666666666666</ele><time>2026-04-30T09:20:25Z</time></trkpt><trkpt lat="42.51007991746287" lon="11.512669264592999"><ele>179.33333333333334</ele><time>2026-04-30T09:20:26Z</time></trkpt><trkpt lat="42.50999931825264" lon="11.512909921670095"><ele>181.0</ele><time>2026-04-30T09:20:27Z</time></trkpt><trkpt lat="42.50989740884813" lon="11.513166551700339"><ele>181.0</ele><time>2026-04-30T09:20:28Z</time></trkpt><trkpt lat="42.50977232505251" lon="11.513402534111597"><ele>181.0</ele><time>2026-04-30T09:20:29Z</time></trkpt><trkpt lat="42.509657217782596" lon="11.513624411626697"><ele>181.0</ele><time>2026-04-30T09:20:30Z</time></trkpt><trkpt lat="42.509541598943585" lon="11.51385535877496"><ele>180.66666666666669</ele><time>2026-04-30T09:20:31Z</time></trkpt><trkpt lat="42.50941938619538" lon="11.514096402741629"><ele>180.33333333333334</ele><time>2026-04-30T09:20:32Z</time></trkpt><trkpt lat="42.509293729108634" lon="11.514336845200638"><ele>180.0</ele><time>2026-04-30T09:20:33Z</time></trkpt><trkpt lat="42.5091643680033" lon="11.514582680113286"><ele>180.0</ele><time>2026-04-30T09:20:34Z</time></trkpt><trkpt lat="42.50903576397184" lon="11.514827884055284"><ele>180.0</ele><time>2026-04-30T09:20:35Z</time></trkpt><trkpt lat="42.50890629779611" lon="11.515081861067685"><ele>180.0</ele><time>2026-04-30T09:20:36Z</time></trkpt><trkpt lat="42.508775308742045" lon="11.515341136056128"><ele>176.5</ele><time>2026-04-30T09:20:37Z</time></trkpt><trkpt lat="42.50864198119029" lon="11.515603182056525"><ele>173.0</ele><time>2026-04-30T09:20:38Z</time></trkpt><trkpt lat="42.50850882873144" lon="11.51586800739898"><ele>173.0</ele><time>2026-04-30T09:20:39Z</time></trkpt><trkpt lat="42.50837154144781" lon="11.516134442370083"><ele>173.0</ele><time>2026-04-30T09:20:40Z</time></trkpt><trkpt lat="42.50823429142832" lon="11.51639871792229"><ele>174.0</ele><time>2026-04-30T09:20:41Z</time></trkpt><trkpt lat="42.50809576525971" lon="11.516665468713464"><ele>175.0</ele><time>2026-04-30T09:20:42Z</time></trkpt><trkpt lat="42.50795770717324" lon="11.5169311580341"><ele>172.5</ele><time>2026-04-30T09:20:43Z</time></trkpt><trkpt lat="42.50781765468026" lon="11.517197699245783"><ele>170.0</ele><time>2026-04-30T09:20:44Z</time></trkpt><trkpt lat="42.507676716567495" lon="11.517463224519574"><ele>170.0</ele><time>2026-04-30T09:20:45Z</time></trkpt><trkpt lat="42.507537772637335" lon="11.517731584525892"><ele>170.0</ele><time>2026-04-30T09:20:46Z</time></trkpt><trkpt lat="42.50739927062405" lon="11.518001328256116"><ele>170.5</ele><time>2026-04-30T09:20:47Z</time></trkpt><trkpt lat="42.50725980028689" lon="11.518270939081587"><ele>171.0</ele><time>2026-04-30T09:20:48Z</time></trkpt><trkpt lat="42.50711928601386" lon="11.51853874860884"><ele>170.5</ele><time>2026-04-30T09:20:49Z</time></trkpt><trkpt lat="42.50697725808581" lon="11.518805630798308"><ele>170.0</ele><time>2026-04-30T09:20:50Z</time></trkpt><trkpt lat="42.50683066727154" lon="11.519065017254137"><ele>170.0</ele><time>2026-04-30T09:20:51Z</time></trkpt><trkpt lat="42.50667279063532" lon="11.519305376007326"><ele>170.0</ele><time>2026-04-30T09:20:52Z</time></trkpt><trkpt lat="42.506504356977594" lon="11.519528575249534"><ele>170.5</ele><time>2026-04-30T09:20:53Z</time></trkpt><trkpt lat="42.50633262645172" lon="11.519743025025416"><ele>171.0</ele><time>2026-04-30T09:20:54Z</time></trkpt><trkpt lat="42.50616335434768" lon="11.519953973412056"><ele>171.0</ele><time>2026-04-30T09:20:55Z</time></trkpt><trkpt lat="42.50599555367153" lon="11.52016726479135"><ele>171.0</ele><time>2026-04-30T09:20:55.999Z</time></trkpt><trkpt lat="42.50582777521841" lon="11.520382698044102"><ele>173.0</ele><time>2026-04-30T09:20:56.999Z</time></trkpt><trkpt lat="42.505659070513964" lon="11.520598591332176"><ele>175.0</ele><time>2026-04-30T09:20:57.999Z</time></trkpt><trkpt lat="42.505488634362045" lon="11.520815196169567"><ele>171.0</ele><time>2026-04-30T09:20:58.999Z</time></trkpt><trkpt lat="42.505316254971916" lon="11.521023479680755"><ele>167.0</ele><time>2026-04-30T09:20:59.999Z</time></trkpt><trkpt lat="42.50514446179225" lon="11.521231163215184"><ele>169.5</ele><time>2026-04-30T09:21:00.999Z</time></trkpt><trkpt lat="42.50497263538969" lon="11.521443306785297"><ele>172.0</ele><time>2026-04-30T09:21:01.999Z</time></trkpt><trkpt lat="42.50480222717929" lon="11.52165875195416"><ele>172.0</ele><time>2026-04-30T09:21:02.999Z</time></trkpt><trkpt lat="42.50463549585858" lon="11.521876700451916"><ele>172.0</ele><time>2026-04-30T09:21:03.999Z</time></trkpt><trkpt lat="42.50446744411873" lon="11.522092956809384"><ele>170.0</ele><time>2026-04-30T09:21:04.999Z</time></trkpt><trkpt lat="42.50430035695023" lon="11.522306118676548"><ele>168.0</ele><time>2026-04-30T09:21:05.999Z</time></trkpt><trkpt lat="42.50413403197801" lon="11.52252041524841"><ele>168.0</ele><time>2026-04-30T09:21:06.999Z</time></trkpt><trkpt lat="42.50396689502325" lon="11.522735276059569"><ele>168.0</ele><time>2026-04-30T09:21:07.999Z</time></trkpt><trkpt lat="42.50379929344556" lon="11.522952426600458"><ele>166.0</ele><time>2026-04-30T09:21:08.999Z</time></trkpt><trkpt lat="42.50362968442188" lon="11.523167617680716"><ele>164.0</ele><time>2026-04-30T09:21:09.999Z</time></trkpt><trkpt lat="42.50345823643647" lon="11.523384298293507"><ele>164.0</ele><time>2026-04-30T09:21:10.999Z</time></trkpt><trkpt lat="42.5032874294006" lon="11.523603831539836"><ele>164.0</ele><time>2026-04-30T09:21:11.999Z</time></trkpt><trkpt lat="42.5031167523172" lon="11.523822481720396"><ele>164.0</ele><time>2026-04-30T09:21:12.999Z</time></trkpt><trkpt lat="42.502954633076584" lon="11.524043993884227"><ele>164.0</ele><time>2026-04-30T09:21:13.999Z</time></trkpt><trkpt lat="42.50278802507966" lon="11.524257903920901"><ele>166.0</ele><time>2026-04-30T09:21:14.999Z</time></trkpt><trkpt lat="42.50261730500531" lon="11.5244649025482"><ele>168.0</ele><time>2026-04-30T09:21:15.999Z</time></trkpt><trkpt lat="42.50244605160967" lon="11.52467217688168"><ele>168.0</ele><time>2026-04-30T09:21:16.999Z</time></trkpt><trkpt lat="42.50227779233459" lon="11.524870112656606"><ele>168.0</ele><time>2026-04-30T09:21:17.999Z</time></trkpt><trkpt lat="42.50211593901937" lon="11.525065183313346"><ele>168.0</ele><time>2026-04-30T09:21:18.999Z</time></trkpt><trkpt lat="42.50196005589687" lon="11.525267462948147"><ele>166.66666666666666</ele><time>2026-04-30T09:21:19.999Z</time></trkpt><trkpt lat="42.5018118865328" lon="11.525484167409486"><ele>165.33333333333331</ele><time>2026-04-30T09:21:20.999Z</time></trkpt><trkpt lat="42.50167232137293" lon="11.525715522416851"><ele>164.0</ele><time>2026-04-30T09:21:21.999Z</time></trkpt><trkpt lat="42.50154360138498" lon="11.525950450400607"><ele>164.0</ele><time>2026-04-30T09:21:22.999Z</time></trkpt><trkpt lat="42.50142365900856" lon="11.526170637605533"><ele>164.0</ele><time>2026-04-30T09:21:23.999Z</time></trkpt><trkpt lat="42.501302556433025" lon="11.526393197954821"><ele>164.0</ele><time>2026-04-30T09:21:24.999Z</time></trkpt><trkpt lat="42.501193545699536" lon="11.526611548131626"><ele>163.33333333333331</ele><time>2026-04-30T09:21:25.999Z</time></trkpt><trkpt lat="42.5011100450426" lon="11.526845550974834"><ele>162.66666666666666</ele><time>2026-04-30T09:21:26.999Z</time></trkpt><trkpt lat="42.50105058467086" lon="11.527101643022593"><ele>162.0</ele><time>2026-04-30T09:21:27.999Z</time></trkpt><trkpt lat="42.50102534660072" lon="11.527362685100663"><ele>161.33333333333334</ele><time>2026-04-30T09:21:28.999Z</time></trkpt><trkpt lat="42.50102843467337" lon="11.527643685022683"><ele>160.66666666666669</ele><time>2026-04-30T09:21:29.999Z</time></trkpt><trkpt lat="42.50102040331081" lon="11.527920403910562"><ele>160.0</ele><time>2026-04-30T09:21:30.999Z</time></trkpt><trkpt lat="42.501003533982136" lon="11.528195271107837"><ele>158.66666666666669</ele><time>2026-04-30T09:21:31.999Z</time></trkpt><trkpt lat="42.50098213459395" lon="11.528463195569602"><ele>157.33333333333334</ele><time>2026-04-30T09:21:32.999Z</time></trkpt><trkpt lat="42.500972906651285" lon="11.528717973814288"><ele>156.0</ele><time>2026-04-30T09:21:33.999Z</time></trkpt><trkpt lat="42.50095924614618" lon="11.52895701066959"><ele>156.0</ele><time>2026-04-30T09:21:34.999Z</time></trkpt><trkpt lat="42.500915947087314" lon="11.529178056862492"><ele>156.0</ele><time>2026-04-30T09:21:35.999Z</time></trkpt><trkpt lat="42.50084757661936" lon="11.529377294377726"><ele>156.0</ele><time>2026-04-30T09:21:36.999Z</time></trkpt><trkpt lat="42.500770068426995" lon="11.529570826739349"><ele>157.33333333333334</ele><time>2026-04-30T09:21:37.999Z</time></trkpt><trkpt lat="42.50069290208731" lon="11.529770365629547"><ele>158.66666666666669</ele><time>2026-04-30T09:21:38.999Z</time></trkpt><trkpt lat="42.5006153348023" lon="11.52998277285977"><ele>160.0</ele><time>2026-04-30T09:21:39.999Z</time></trkpt><trkpt lat="42.5005354746962" lon="11.530200011366189"><ele>160.33333333333334</ele><time>2026-04-30T09:21:40.999Z</time></trkpt><trkpt lat="42.50045366321015" lon="11.530423470983333"><ele>160.66666666666666</ele><time>2026-04-30T09:21:41.999Z</time></trkpt><trkpt lat="42.500353427725074" lon="11.530651439845647"><ele>161.0</ele><time>2026-04-30T09:21:42.999Z</time></trkpt><trkpt lat="42.50024870371921" lon="11.530890550785069"><ele>159.66666666666666</ele><time>2026-04-30T09:21:43.999Z</time></trkpt><trkpt lat="42.50014173605978" lon="11.53113313114891"><ele>158.33333333333334</ele><time>2026-04-30T09:21:44.999Z</time></trkpt><trkpt lat="42.50003231746007" lon="11.531378924685448"><ele>157.0</ele><time>2026-04-30T09:21:45.999Z</time></trkpt><trkpt lat="42.49991701308301" lon="11.531628960875729"><ele>157.0</ele><time>2026-04-30T09:21:46.999Z</time></trkpt><trkpt lat="42.49979908246068" lon="11.531872350365264"><ele>157.0</ele><time>2026-04-30T09:21:47.999Z</time></trkpt><trkpt lat="42.49967077116206" lon="11.532115283713171"><ele>157.0</ele><time>2026-04-30T09:21:48.999Z</time></trkpt><trkpt lat="42.499541935001716" lon="11.532346967566493"><ele>156.66666666666669</ele><time>2026-04-30T09:21:49.999Z</time></trkpt><trkpt lat="42.499411198090634" lon="11.532579501003537"><ele>156.33333333333334</ele><time>2026-04-30T09:21:50.999Z</time></trkpt><trkpt lat="42.49927413137464" lon="11.53282752282577"><ele>156.0</ele><time>2026-04-30T09:21:51.998Z</time></trkpt><trkpt lat="42.49913278197828" lon="11.53306808119154"><ele>156.0</ele><time>2026-04-30T09:21:52.998Z</time></trkpt><trkpt lat="42.49900031997125" lon="11.533315525016073"><ele>156.0</ele><time>2026-04-30T09:21:53.998Z</time></trkpt><trkpt lat="42.49887285729509" lon="11.533566397833123"><ele>154.5</ele><time>2026-04-30T09:21:54.998Z</time></trkpt><trkpt lat="42.498738575290695" lon="11.533815593590134"><ele>153.0</ele><time>2026-04-30T09:21:56Z</time></trkpt><trkpt lat="42.49861100675141" lon="11.534080707237006"><ele>153.0</ele><time>2026-04-30T09:21:57Z</time></trkpt><trkpt lat="42.49849772770967" lon="11.534341906655564"><ele>153.0</ele><time>2026-04-30T09:21:58Z</time></trkpt><trkpt lat="42.49838659561752" lon="11.534606174148058"><ele>153.0</ele><time>2026-04-30T09:21:59Z</time></trkpt><trkpt lat="42.49828174467665" lon="11.534872494126668"><ele>154.5</ele><time>2026-04-30T09:22:00Z</time></trkpt><trkpt lat="42.49817005138504" lon="11.535141630632792"><ele>156.0</ele><time>2026-04-30T09:22:01Z</time></trkpt><trkpt lat="42.49805500030106" lon="11.535413064167221"><ele>158.0</ele><time>2026-04-30T09:22:02Z</time></trkpt><trkpt lat="42.49794310327854" lon="11.535689388542513"><ele>160.0</ele><time>2026-04-30T09:22:03Z</time></trkpt><trkpt lat="42.497832279767856" lon="11.535971558809987"><ele>153.0</ele><time>2026-04-30T09:22:04Z</time></trkpt><trkpt lat="42.49773112908808" lon="11.536261892421129"><ele>146.0</ele><time>2026-04-30T09:22:05Z</time></trkpt><trkpt lat="42.4976324625547" lon="11.536560897168494"><ele>146.0</ele><time>2026-04-30T09:22:06Z</time></trkpt><trkpt lat="42.497541429078986" lon="11.536865856095655"><ele>146.0</ele><time>2026-04-30T09:22:07Z</time></trkpt><trkpt lat="42.497456149630416" lon="11.537168838430956"><ele>148.0</ele><time>2026-04-30T09:22:08Z</time></trkpt><trkpt lat="42.49737153542303" lon="11.537466125662647"><ele>150.0</ele><time>2026-04-30T09:22:09Z</time></trkpt><trkpt lat="42.49728364929261" lon="11.537761219917227"><ele>151.5</ele><time>2026-04-30T09:22:10Z</time></trkpt><trkpt lat="42.49719348310665" lon="11.538059812803427"><ele>153.0</ele><time>2026-04-30T09:22:11Z</time></trkpt><trkpt lat="42.497099347463816" lon="11.538356862385916"><ele>149.5</ele><time>2026-04-30T09:22:12Z</time></trkpt><trkpt lat="42.49699733821035" lon="11.538638101009662"><ele>146.0</ele><time>2026-04-30T09:22:13Z</time></trkpt><trkpt lat="42.49689113450324" lon="11.538917532912684"><ele>145.33333333333331</ele><time>2026-04-30T09:22:14Z</time></trkpt><trkpt lat="42.49679581384542" lon="11.539195039769583"><ele>144.66666666666666</ele><time>2026-04-30T09:22:15Z</time></trkpt><trkpt lat="42.49670552153545" lon="11.53945248952166"><ele>144.0</ele><time>2026-04-30T09:22:16Z</time></trkpt><trkpt lat="42.496615137929034" lon="11.539701558968387"><ele>144.0</ele><time>2026-04-30T09:22:17Z</time></trkpt><trkpt lat="42.49650748201615" lon="11.539944007033105"><ele>144.0</ele><time>2026-04-30T09:22:18Z</time></trkpt><trkpt lat="42.49639420432549" lon="11.540158178701192"><ele>144.0</ele><time>2026-04-30T09:22:19Z</time></trkpt><trkpt lat="42.49625166910085" lon="11.54034281622576"><ele>146.0</ele><time>2026-04-30T09:22:20Z</time></trkpt><trkpt lat="42.496084899644906" lon="11.540504880342285"><ele>148.0</ele><time>2026-04-30T09:22:21Z</time></trkpt><trkpt lat="42.49591947807962" lon="11.540675924782738"><ele>150.0</ele><time>2026-04-30T09:22:22Z</time></trkpt><trkpt lat="42.4957364831046" lon="11.540828726099688"><ele>150.0</ele><time>2026-04-30T09:22:23Z</time></trkpt><trkpt lat="42.49556186334895" lon="11.540991096696393"><ele>150.0</ele><time>2026-04-30T09:22:24Z</time></trkpt><trkpt lat="42.495385688750915" lon="11.541167562581654"><ele>150.0</ele><time>2026-04-30T09:22:25Z</time></trkpt><trkpt lat="42.49520942852709" lon="11.54134003053405"><ele>149.33333333333334</ele><time>2026-04-30T09:22:26Z</time></trkpt><trkpt lat="42.49503165785073" lon="11.541509395122395"><ele>148.66666666666669</ele><time>2026-04-30T09:22:27Z</time></trkpt><trkpt lat="42.494857177160185" lon="11.541681675079213"><ele>148.0</ele><time>2026-04-30T09:22:28Z</time></trkpt><trkpt lat="42.49468463833307" lon="11.541860618323394"><ele>145.66666666666669</ele><time>2026-04-30T09:22:29Z</time></trkpt><trkpt lat="42.494519447611886" lon="11.542065232788634"><ele>143.33333333333334</ele><time>2026-04-30T09:22:30Z</time></trkpt><trkpt lat="42.49436157846701" lon="11.542281059115258"><ele>141.0</ele><time>2026-04-30T09:22:31Z</time></trkpt><trkpt lat="42.4942077626217" lon="11.542512277879691"><ele>141.0</ele><time>2026-04-30T09:22:32Z</time></trkpt><trkpt lat="42.494053976985526" lon="11.542747217688461"><ele>141.0</ele><time>2026-04-30T09:22:33Z</time></trkpt><trkpt lat="42.493898805235126" lon="11.542981285335067"><ele>139.0</ele><time>2026-04-30T09:22:34Z</time></trkpt><trkpt lat="42.493741812458055" lon="11.543213490349695"><ele>137.0</ele><time>2026-04-30T09:22:35Z</time></trkpt><trkpt lat="42.4935876540923" lon="11.543436906504448"><ele>137.0</ele><time>2026-04-30T09:22:36Z</time></trkpt><trkpt lat="42.49344947458191" lon="11.543641694607102"><ele>137.0</ele><time>2026-04-30T09:22:37Z</time></trkpt><trkpt lat="42.49331259962766" lon="11.543853335766398"><ele>137.0</ele><time>2026-04-30T09:22:38Z</time></trkpt><trkpt lat="42.49317968651861" lon="11.544053709233367"><ele>137.66666666666666</ele><time>2026-04-30T09:22:39Z</time></trkpt><trkpt lat="42.493030230246596" lon="11.544222725931158"><ele>138.33333333333334</ele><time>2026-04-30T09:22:40Z</time></trkpt><trkpt lat="42.492842423712645" lon="11.54432578778556"><ele>139.0</ele><time>2026-04-30T09:22:41Z</time></trkpt><trkpt lat="42.49264555405653" lon="11.544373301748328"><ele>139.0</ele><time>2026-04-30T09:22:42Z</time></trkpt><trkpt lat="42.492435598991285" lon="11.544397141847247"><ele>139.0</ele><time>2026-04-30T09:22:43Z</time></trkpt><trkpt lat="42.492236267420814" lon="11.544442261828198"><ele>139.0</ele><time>2026-04-30T09:22:44Z</time></trkpt><trkpt lat="42.492038440168024" lon="11.544520782643293"><ele>140.0</ele><time>2026-04-30T09:22:45Z</time></trkpt><trkpt lat="42.491857015970155" lon="11.544573092754984"><ele>141.0</ele><time>2026-04-30T09:22:46Z</time></trkpt><trkpt lat="42.49169457577431" lon="11.544636189175153"><ele>142.0</ele><time>2026-04-30T09:22:47Z</time></trkpt><trkpt lat="42.49154694294269" lon="11.544744218854497"><ele>142.0</ele><time>2026-04-30T09:22:48Z</time></trkpt><trkpt lat="42.491394281740696" lon="11.544906294181601"><ele>142.0</ele><time>2026-04-30T09:22:49Z</time></trkpt><trkpt lat="42.49128060286159" lon="11.545096839142671"><ele>142.0</ele><time>2026-04-30T09:22:50Z</time></trkpt><trkpt lat="42.49115733414832" lon="11.545282116891203"><ele>140.0</ele><time>2026-04-30T09:22:51Z</time></trkpt><trkpt lat="42.49101105113868" lon="11.545465377558212"><ele>138.0</ele><time>2026-04-30T09:22:52Z</time></trkpt><trkpt lat="42.49086260901124" lon="11.545662641081481"><ele>136.0</ele><time>2026-04-30T09:22:53Z</time></trkpt><trkpt lat="42.49071026615096" lon="11.545851194471446"><ele>136.0</ele><time>2026-04-30T09:22:54Z</time></trkpt><trkpt lat="42.490559307630775" lon="11.54604903424588"><ele>136.0</ele><time>2026-04-30T09:22:55Z</time></trkpt><trkpt lat="42.49040557474625" lon="11.546255340725628"><ele>136.0</ele><time>2026-04-30T09:22:56Z</time></trkpt><trkpt lat="42.490247938749256" lon="11.54646347575872"><ele>135.0</ele><time>2026-04-30T09:22:57Z</time></trkpt><trkpt lat="42.490084191523415" lon="11.546672190373128"><ele>134.0</ele><time>2026-04-30T09:22:58Z</time></trkpt><trkpt lat="42.48991869288109" lon="11.546883067615413"><ele>134.0</ele><time>2026-04-30T09:22:59Z</time></trkpt><trkpt lat="42.48975241129046" lon="11.547097730845309"><ele>134.0</ele><time>2026-04-30T09:23:00Z</time></trkpt><trkpt lat="42.48958776129258" lon="11.54731461926577"><ele>133.0</ele><time>2026-04-30T09:23:01Z</time></trkpt><trkpt lat="42.48941750492438" lon="11.547536785029555"><ele>132.0</ele><time>2026-04-30T09:23:02Z</time></trkpt><trkpt lat="42.48924734994647" lon="11.54775958933699"><ele>133.0</ele><time>2026-04-30T09:23:03Z</time></trkpt><trkpt lat="42.48907707660785" lon="11.547978135848442"><ele>134.0</ele><time>2026-04-30T09:23:04Z</time></trkpt><trkpt lat="42.48890515967831" lon="11.548198447761317"><ele>132.5</ele><time>2026-04-30T09:23:04.999Z</time></trkpt><trkpt lat="42.48873326907851" lon="11.548413381751809"><ele>131.0</ele><time>2026-04-30T09:23:05.999Z</time></trkpt><trkpt lat="42.488562426942" lon="11.548643160989043"><ele>132.5</ele><time>2026-04-30T09:23:06.999Z</time></trkpt><trkpt lat="42.488383409999855" lon="11.548875443328086"><ele>134.0</ele><time>2026-04-30T09:23:07.999Z</time></trkpt><trkpt lat="42.4882057236394" lon="11.549104051733307"><ele>134.0</ele><time>2026-04-30T09:23:08.999Z</time></trkpt><trkpt lat="42.48802669513104" lon="11.549331364930763"><ele>134.0</ele><time>2026-04-30T09:23:09.999Z</time></trkpt><trkpt lat="42.48784443573429" lon="11.549563121013032"><ele>131.5</ele><time>2026-04-30T09:23:10.999Z</time></trkpt><trkpt lat="42.48765878608609" lon="11.549788595476958"><ele>129.0</ele><time>2026-04-30T09:23:11.999Z</time></trkpt><trkpt lat="42.48746971425963" lon="11.550012989507595"><ele>129.0</ele><time>2026-04-30T09:23:12.999Z</time></trkpt><trkpt lat="42.48727913298701" lon="11.550232782796439"><ele>129.0</ele><time>2026-04-30T09:23:13.999Z</time></trkpt><trkpt lat="42.48708523758542" lon="11.550451916558952"><ele>130.5</ele><time>2026-04-30T09:23:14.999Z</time></trkpt><trkpt lat="42.48688738175818" lon="11.55065803013121"><ele>132.0</ele><time>2026-04-30T09:23:15.999Z</time></trkpt><trkpt lat="42.486684658656884" lon="11.550853611401065"><ele>132.0</ele><time>2026-04-30T09:23:16.999Z</time></trkpt><trkpt lat="42.486483554720806" lon="11.551042900972512"><ele>132.0</ele><time>2026-04-30T09:23:17.999Z</time></trkpt><trkpt lat="42.48628714092067" lon="11.551229637705278"><ele>133.5</ele><time>2026-04-30T09:23:18.999Z</time></trkpt><trkpt lat="42.4860806184384" lon="11.551424449999812"><ele>135.0</ele><time>2026-04-30T09:23:19.999Z</time></trkpt><trkpt lat="42.48589509745716" lon="11.551607803262426"><ele>135.0</ele><time>2026-04-30T09:23:20.999Z</time></trkpt><trkpt lat="42.48572648134929" lon="11.551784387150688"><ele>135.0</ele><time>2026-04-30T09:23:21.999Z</time></trkpt><trkpt lat="42.48557805776841" lon="11.551965581973432"><ele>135.0</ele><time>2026-04-30T09:23:22.999Z</time></trkpt><trkpt lat="42.485450259575416" lon="11.552154667441341"><ele>134.0</ele><time>2026-04-30T09:23:23.999Z</time></trkpt><trkpt lat="42.48534573186067" lon="11.552370259447525"><ele>133.0</ele><time>2026-04-30T09:23:24.999Z</time></trkpt><trkpt lat="42.48526649277184" lon="11.552606908342716"><ele>132.0</ele><time>2026-04-30T09:23:25.999Z</time></trkpt><trkpt lat="42.48520570766235" lon="11.552856599031992"><ele>134.33333333333334</ele><time>2026-04-30T09:23:26.999Z</time></trkpt><trkpt lat="42.48514796253797" lon="11.553108690141551"><ele>136.66666666666669</ele><time>2026-04-30T09:23:27.999Z</time></trkpt><trkpt lat="42.48508976284871" lon="11.553369521309188"><ele>139.0</ele><time>2026-04-30T09:23:28.999Z</time></trkpt><trkpt lat="42.48503285331708" lon="11.553626032408944"><ele>141.0</ele><time>2026-04-30T09:23:29.999Z</time></trkpt><trkpt lat="42.484968859714115" lon="11.553874962799627"><ele>143.0</ele><time>2026-04-30T09:23:30.999Z</time></trkpt><trkpt lat="42.48489148102135" lon="11.55412450240858"><ele>145.0</ele><time>2026-04-30T09:23:31.999Z</time></trkpt><trkpt lat="42.48480351380088" lon="11.554363479684225"><ele>145.0</ele><time>2026-04-30T09:23:32.999Z</time></trkpt><trkpt lat="42.48469864569975" lon="11.55460304436125"><ele>145.0</ele><time>2026-04-30T09:23:33.999Z</time></trkpt><trkpt lat="42.484587292015" lon="11.554823677459272"><ele>145.0</ele><time>2026-04-30T09:23:34.999Z</time></trkpt><trkpt lat="42.48446402777042" lon="11.55502231506723"><ele>145.0</ele><time>2026-04-30T09:23:35.999Z</time></trkpt><trkpt lat="42.48434215821214" lon="11.555189954388037"><ele>145.0</ele><time>2026-04-30T09:23:36.998Z</time></trkpt><trkpt lat="42.48421840530467" lon="11.555333608394504"><ele>145.0</ele><time>2026-04-30T09:23:37.998Z</time></trkpt><trkpt lat="42.484089622321505" lon="11.555469338737643"><ele>144.66666666666669</ele><time>2026-04-30T09:23:38.998Z</time></trkpt><trkpt lat="42.483942163204766" lon="11.555619373367795"><ele>144.33333333333334</ele><time>2026-04-30T09:23:39.998Z</time></trkpt><trkpt lat="42.48379169603894" lon="11.555778723855239"><ele>144.0</ele><time>2026-04-30T09:23:40.998Z</time></trkpt><trkpt lat="42.48363001345535" lon="11.555948179436331"><ele>143.0</ele><time>2026-04-30T09:23:41.998Z</time></trkpt><trkpt lat="42.48345400742065" lon="11.556115810448818"><ele>142.0</ele><time>2026-04-30T09:23:42.998Z</time></trkpt><trkpt lat="42.48327857298095" lon="11.556280069200842"><ele>141.0</ele><time>2026-04-30T09:23:43.998Z</time></trkpt><trkpt lat="42.48308304412747" lon="11.556442879233561"><ele>137.5</ele><time>2026-04-30T09:23:44.998Z</time></trkpt><trkpt lat="42.48286688317772" lon="11.556596443838083"><ele>134.0</ele><time>2026-04-30T09:23:45.998Z</time></trkpt><trkpt lat="42.48265425982341" lon="11.556756030082564"><ele>134.0</ele><time>2026-04-30T09:23:46.998Z</time></trkpt><trkpt lat="42.48242552932125" lon="11.556911300389501"><ele>134.0</ele><time>2026-04-30T09:23:47.998Z</time></trkpt><trkpt lat="42.482205415797296" lon="11.557079041627397"><ele>132.5</ele><time>2026-04-30T09:23:48.998Z</time></trkpt><trkpt lat="42.48197487426945" lon="11.557246373263304"><ele>131.0</ele><time>2026-04-30T09:23:49.998Z</time></trkpt><trkpt lat="42.48174993991783" lon="11.557410407455261"><ele>131.0</ele><time>2026-04-30T09:23:50.998Z</time></trkpt><trkpt lat="42.481526832571106" lon="11.557578810433107"><ele>131.0</ele><time>2026-04-30T09:23:51.998Z</time></trkpt><trkpt lat="42.48131432603656" lon="11.557756835309764"><ele>130.5</ele><time>2026-04-30T09:23:52.998Z</time></trkpt><trkpt lat="42.48110863996424" lon="11.557931998112306"><ele>130.0</ele><time>2026-04-30T09:23:53.998Z</time></trkpt><trkpt lat="42.48090224175014" lon="11.558109964693923"><ele>130.0</ele><time>2026-04-30T09:23:54.998Z</time></trkpt><trkpt lat="42.480693562646564" lon="11.558280536290313"><ele>130.0</ele><time>2026-04-30T09:23:55.998Z</time></trkpt><trkpt lat="42.48048373593878" lon="11.558448701496333"><ele>128.5</ele><time>2026-04-30T09:23:56.998Z</time></trkpt><trkpt lat="42.480274824262125" lon="11.558618229201825"><ele>127.0</ele><time>2026-04-30T09:23:57.998Z</time></trkpt><trkpt lat="42.48007294924707" lon="11.558785743829601"><ele>126.0</ele><time>2026-04-30T09:23:58.998Z</time></trkpt><trkpt lat="42.47987269634098" lon="11.558944836625788"><ele>125.0</ele><time>2026-04-30T09:23:59.998Z</time></trkpt><trkpt lat="42.47968018308128" lon="11.559106272177134"><ele>123.66666666666666</ele><time>2026-04-30T09:24:01Z</time></trkpt><trkpt lat="42.47949527635202" lon="11.559253020842087"><ele>122.33333333333334</ele><time>2026-04-30T09:24:02Z</time></trkpt><trkpt lat="42.47931821603871" lon="11.559392396188697"><ele>121.0</ele><time>2026-04-30T09:24:03Z</time></trkpt><trkpt lat="42.47914624622578" lon="11.559527274091185"><ele>121.33333333333334</ele><time>2026-04-30T09:24:04Z</time></trkpt><trkpt lat="42.47897884368296" lon="11.559667041205286"><ele>121.66666666666666</ele><time>2026-04-30T09:24:05Z</time></trkpt><trkpt lat="42.478816839609784" lon="11.559803013676477"><ele>122.0</ele><time>2026-04-30T09:24:06Z</time></trkpt><trkpt lat="42.478649073566324" lon="11.559933769947364"><ele>120.33333333333333</ele><time>2026-04-30T09:24:07Z</time></trkpt><trkpt lat="42.478476121213966" lon="11.56005551077249"><ele>118.66666666666666</ele><time>2026-04-30T09:24:08Z</time></trkpt><trkpt lat="42.47829569849226" lon="11.560153241885969"><ele>117.0</ele><time>2026-04-30T09:24:09Z</time></trkpt><trkpt lat="42.47810539095353" lon="11.56022251871553"><ele>116.33333333333334</ele><time>2026-04-30T09:24:10Z</time></trkpt><trkpt lat="42.47790976022463" lon="11.560293739796068"><ele>115.66666666666667</ele><time>2026-04-30T09:24:11Z</time></trkpt><trkpt lat="42.477722381335035" lon="11.560351165523251"><ele>115.0</ele><time>2026-04-30T09:24:12Z</time></trkpt><trkpt lat="42.477537120094745" lon="11.560390053651556"><ele>116.66666666666667</ele><time>2026-04-30T09:24:13Z</time></trkpt><trkpt lat="42.47735359600661" lon="11.560410750446009"><ele>118.33333333333334</ele><time>2026-04-30T09:24:14Z</time></trkpt><trkpt lat="42.477173536923" lon="11.560395127534832"><ele>120.0</ele><time>2026-04-30T09:24:15Z</time></trkpt><trkpt lat="42.4769832651214" lon="11.56038249954011"><ele>117.66666666666666</ele><time>2026-04-30T09:24:15.999Z</time></trkpt><trkpt lat="42.476793451184236" lon="11.560347136555487"><ele>115.33333333333333</ele><time>2026-04-30T09:24:16.999Z</time></trkpt><trkpt lat="42.47659856769714" lon="11.56031312534535"><ele>113.0</ele><time>2026-04-30T09:24:17.999Z</time></trkpt><trkpt lat="42.476411401986596" lon="11.560275208962464"><ele>113.0</ele><time>2026-04-30T09:24:18.999Z</time></trkpt><trkpt lat="42.476221832402985" lon="11.560219587150812"><ele>113.0</ele><time>2026-04-30T09:24:19.999Z</time></trkpt><trkpt lat="42.476031738886405" lon="11.560171054930212"><ele>113.0</ele><time>2026-04-30T09:24:20.999Z</time></trkpt><trkpt lat="42.47583947634387" lon="11.560120639412272"><ele>113.0</ele><time>2026-04-30T09:24:21.999Z</time></trkpt><trkpt lat="42.475642994045295" lon="11.560073782112978"><ele>113.0</ele><time>2026-04-30T09:24:22.999Z</time></trkpt><trkpt lat="42.475444480466614" lon="11.560032994862796"><ele>113.0</ele><time>2026-04-30T09:24:23.999Z</time></trkpt><trkpt lat="42.47524342362298" lon="11.559987858440097"><ele>113.0</ele><time>2026-04-30T09:24:24.999Z</time></trkpt><trkpt lat="42.47505196417886" lon="11.559949020648853"><ele>113.0</ele><time>2026-04-30T09:24:25.999Z</time></trkpt><trkpt lat="42.474859923594806" lon="11.559931311357332"><ele>113.0</ele><time>2026-04-30T09:24:26.999Z</time></trkpt><trkpt lat="42.47465852732423" lon="11.559947159577185"><ele>112.33333333333333</ele><time>2026-04-30T09:24:27.999Z</time></trkpt><trkpt lat="42.47445905631922" lon="11.559985793530126"><ele>111.66666666666666</ele><time>2026-04-30T09:24:28.999Z</time></trkpt><trkpt lat="42.47425022584729" lon="11.560042948372669"><ele>111.0</ele><time>2026-04-30T09:24:29.999Z</time></trkpt><trkpt lat="42.47403828320235" lon="11.56010362129563"><ele>111.0</ele><time>2026-04-30T09:24:30.999Z</time></trkpt><trkpt lat="42.473823473656694" lon="11.560161185630827"><ele>111.0</ele><time>2026-04-30T09:24:31.999Z</time></trkpt><trkpt lat="42.47360683297201" lon="11.560214658722922"><ele>111.0</ele><time>2026-04-30T09:24:32.999Z</time></trkpt><trkpt lat="42.47338840640376" lon="11.560275133759776"><ele>109.66666666666666</ele><time>2026-04-30T09:24:33.999Z</time></trkpt><trkpt lat="42.47319035447009" lon="11.560322200512104"><ele>108.33333333333333</ele><time>2026-04-30T09:24:34.999Z</time></trkpt><trkpt lat="42.473005577709685" lon="11.56035618009814"><ele>107.0</ele><time>2026-04-30T09:24:35.999Z</time></trkpt><trkpt lat="42.472824002619134" lon="11.560392510919538"><ele>106.0</ele><time>2026-04-30T09:24:36.999Z</time></trkpt><trkpt lat="42.47264439054122" lon="11.56047330681706"><ele>105.0</ele><time>2026-04-30T09:24:37.999Z</time></trkpt><trkpt lat="42.472457726022846" lon="11.560579326636777"><ele>104.0</ele><time>2026-04-30T09:24:38.999Z</time></trkpt><trkpt lat="42.4723043176873" lon="11.560728835609758"><ele>104.0</ele><time>2026-04-30T09:24:39.999Z</time></trkpt><trkpt lat="42.47216409108219" lon="11.560894316691792"><ele>104.0</ele><time>2026-04-30T09:24:40.999Z</time></trkpt><trkpt lat="42.47202353879288" lon="11.561080830738865"><ele>104.0</ele><time>2026-04-30T09:24:41.999Z</time></trkpt><trkpt lat="42.471878406283786" lon="11.5612526096071"><ele>102.66666666666666</ele><time>2026-04-30T09:24:42.999Z</time></trkpt><trkpt lat="42.47172961223452" lon="11.561420421662937"><ele>101.33333333333334</ele><time>2026-04-30T09:24:43.999Z</time></trkpt><trkpt lat="42.4715766972085" lon="11.561586567877873"><ele>100.0</ele><time>2026-04-30T09:24:44.999Z</time></trkpt><trkpt lat="42.47142500420793" lon="11.561754075400756"><ele>100.0</ele><time>2026-04-30T09:24:45.999Z</time></trkpt><trkpt lat="42.47127054520193" lon="11.561931142986314"><ele>100.0</ele><time>2026-04-30T09:24:46.999Z</time></trkpt><trkpt lat="42.47111145712013" lon="11.562111489209494"><ele>100.0</ele><time>2026-04-30T09:24:47.999Z</time></trkpt><trkpt lat="42.470949531517974" lon="11.562286531813143"><ele>100.0</ele><time>2026-04-30T09:24:48.999Z</time></trkpt><trkpt lat="42.47079573694137" lon="11.562453581141066"><ele>100.0</ele><time>2026-04-30T09:24:49.999Z</time></trkpt><trkpt lat="42.47065116070391" lon="11.56261364685641"><ele>100.0</ele><time>2026-04-30T09:24:50.999Z</time></trkpt><trkpt lat="42.470513554109786" lon="11.562767881160038"><ele>99.0</ele><time>2026-04-30T09:24:51.999Z</time></trkpt><trkpt lat="42.4703786691722" lon="11.562929514696952"><ele>98.0</ele><time>2026-04-30T09:24:52.999Z</time></trkpt><trkpt lat="42.47025331755185" lon="11.56310642274635"><ele>97.0</ele><time>2026-04-30T09:24:53.999Z</time></trkpt><trkpt lat="42.47014676333269" lon="11.563310518942737"><ele>97.0</ele><time>2026-04-30T09:24:54.999Z</time></trkpt><trkpt lat="42.47006195191116" lon="11.563545054970316"><ele>97.0</ele><time>2026-04-30T09:24:55.999Z</time></trkpt><trkpt lat="42.469987615140546" lon="11.563793113543657"><ele>97.0</ele><time>2026-04-30T09:24:56.999Z</time></trkpt><trkpt lat="42.46991233028887" lon="11.56405792601914"><ele>98.66666666666667</ele><time>2026-04-30T09:24:57.999Z</time></trkpt><trkpt lat="42.46982750553107" lon="11.564323300078321"><ele>100.33333333333334</ele><time>2026-04-30T09:24:58.999Z</time></trkpt><trkpt lat="42.4697349879827" lon="11.564585248006225"><ele>102.0</ele><time>2026-04-30T09:24:59.999Z</time></trkpt><trkpt lat="42.46964021640685" lon="11.564848178815947"><ele>100.0</ele><time>2026-04-30T09:25:00.999Z</time></trkpt><trkpt lat="42.469546032323166" lon="11.565111178221454"><ele>98.0</ele><time>2026-04-30T09:25:01.999Z</time></trkpt><trkpt lat="42.469455310677645" lon="11.565373680823562"><ele>96.0</ele><time>2026-04-30T09:25:02.999Z</time></trkpt><trkpt lat="42.46936846511592" lon="11.565639817479266"><ele>96.0</ele><time>2026-04-30T09:25:03.999Z</time></trkpt><trkpt lat="42.46927933826467" lon="11.565901097671425"><ele>96.0</ele><time>2026-04-30T09:25:04.999Z</time></trkpt><trkpt lat="42.46919517076218" lon="11.566159412725202"><ele>96.0</ele><time>2026-04-30T09:25:05.999Z</time></trkpt><trkpt lat="42.46910505371099" lon="11.566403005241623"><ele>98.33333333333334</ele><time>2026-04-30T09:25:06.999Z</time></trkpt><trkpt lat="42.46902725998583" lon="11.566644405624077"><ele>100.66666666666667</ele><time>2026-04-30T09:25:07.999Z</time></trkpt><trkpt lat="42.46894845234321" lon="11.566869077429308"><ele>103.0</ele><time>2026-04-30T09:25:08.999Z</time></trkpt><trkpt lat="42.46887811142644" lon="11.567083858598702"><ele>104.25</ele><time>2026-04-30T09:25:09.999Z</time></trkpt><trkpt lat="42.46881710867549" lon="11.56728216941177"><ele>105.5</ele><time>2026-04-30T09:25:10.999Z</time></trkpt><trkpt lat="42.46876109508067" lon="11.567463874386362"><ele>106.75</ele><time>2026-04-30T09:25:11.999Z</time></trkpt><trkpt lat="42.468707641506974" lon="11.5676271123987"><ele>108.0</ele><time>2026-04-30T09:25:12.999Z</time></trkpt><trkpt lat="42.468653323335694" lon="11.567777804266825"><ele>109.4</ele><time>2026-04-30T09:25:13.998Z</time></trkpt><trkpt lat="42.46860497269713" lon="11.567906349249965"><ele>110.80000000000001</ele><time>2026-04-30T09:25:14.998Z</time></trkpt><trkpt lat="42.46857429678094" lon="11.56799636823326"><ele>112.2</ele><time>2026-04-30T09:25:15.998Z</time></trkpt><trkpt lat="42.46853609109316" lon="11.568143166821205"><ele>113.6</ele><time>2026-04-30T09:25:17.998Z</time></trkpt><trkpt lat="42.468506905649534" lon="11.568320521592563"><ele>115.0</ele><time>2026-04-30T09:25:19.998Z</time></trkpt><trkpt lat="42.46850358042701" lon="11.568432764710932"><ele>115.0</ele><time>2026-04-30T09:25:20.998Z</time></trkpt><trkpt lat="42.46851715202709" lon="11.568549446512757"><ele>115.0</ele><time>2026-04-30T09:25:21.998Z</time></trkpt><trkpt lat="42.46855906385634" lon="11.568668559745555"><ele>115.0</ele><time>2026-04-30T09:25:22.998Z</time></trkpt><trkpt lat="42.468623997128155" lon="11.56878815203095"><ele>115.0</ele><time>2026-04-30T09:25:23.998Z</time></trkpt><trkpt lat="42.46871790830205" lon="11.568906567365081"><ele>115.0</ele><time>2026-04-30T09:25:24.998Z</time></trkpt><trkpt lat="42.4688292825814" lon="11.569034494085724"><ele>115.66666666666667</ele><time>2026-04-30T09:25:25.998Z</time></trkpt><trkpt lat="42.4689563237409" lon="11.5691872446908"><ele>116.33333333333334</ele><time>2026-04-30T09:25:26.998Z</time></trkpt><trkpt lat="42.469097222880904" lon="11.569366004573089"><ele>117.0</ele><time>2026-04-30T09:25:27.998Z</time></trkpt><trkpt lat="42.46924422087001" lon="11.569557213101305"><ele>117.0</ele><time>2026-04-30T09:25:28.998Z</time></trkpt><trkpt lat="42.469391688155376" lon="11.569741559219656"><ele>117.0</ele><time>2026-04-30T09:25:29.998Z</time></trkpt><trkpt lat="42.469546385790686" lon="11.569943706101174"><ele>117.0</ele><time>2026-04-30T09:25:30.998Z</time></trkpt><trkpt lat="42.4696986120402" lon="11.570157465148382"><ele>118.33333333333334</ele><time>2026-04-30T09:25:31.998Z</time></trkpt><trkpt lat="42.46983473247335" lon="11.570367504825201"><ele>119.66666666666667</ele><time>2026-04-30T09:25:32.998Z</time></trkpt><trkpt lat="42.4699774108094" lon="11.570562786505457"><ele>121.0</ele><time>2026-04-30T09:25:33.998Z</time></trkpt><trkpt lat="42.470130447188716" lon="11.5707493413044"><ele>121.0</ele><time>2026-04-30T09:25:34.998Z</time></trkpt><trkpt lat="42.470280416264465" lon="11.57093672735035"><ele>121.0</ele><time>2026-04-30T09:25:35.998Z</time></trkpt><trkpt lat="42.4704246559014" lon="11.571122407139146"><ele>121.0</ele><time>2026-04-30T09:25:36.998Z</time></trkpt><trkpt lat="42.47057045826215" lon="11.571304963046774"><ele>122.66666666666667</ele><time>2026-04-30T09:25:37.998Z</time></trkpt><trkpt lat="42.47071450750816" lon="11.57148349714248"><ele>124.33333333333334</ele><time>2026-04-30T09:25:38.998Z</time></trkpt><trkpt lat="42.47085528186187" lon="11.571661218187764"><ele>126.0</ele><time>2026-04-30T09:25:39.998Z</time></trkpt><trkpt lat="42.47099247126263" lon="11.571841725920903"><ele>126.0</ele><time>2026-04-30T09:25:40.998Z</time></trkpt><trkpt lat="42.47112614642822" lon="11.572019652784935"><ele>126.0</ele><time>2026-04-30T09:25:41.998Z</time></trkpt><trkpt lat="42.47125800480324" lon="11.57219097456078"><ele>126.0</ele><time>2026-04-30T09:25:42.998Z</time></trkpt><trkpt lat="42.47138391032833" lon="11.572357317163654"><ele>127.0</ele><time>2026-04-30T09:25:43.998Z</time></trkpt><trkpt lat="42.47150247021106" lon="11.572517981712554"><ele>128.0</ele><time>2026-04-30T09:25:44.998Z</time></trkpt><trkpt lat="42.47159825995607" lon="11.572679776826677"><ele>129.0</ele><time>2026-04-30T09:25:45.998Z</time></trkpt><trkpt lat="42.47166382387321" lon="11.572852099877428"><ele>128.5</ele><time>2026-04-30T09:25:46.998Z</time></trkpt><trkpt lat="42.47169540323597" lon="11.573034591914395"><ele>128.0</ele><time>2026-04-30T09:25:47.998Z</time></trkpt><trkpt lat="42.471682189756706" lon="11.573226745480225"><ele>127.5</ele><time>2026-04-30T09:25:48.998Z</time></trkpt><trkpt lat="42.471641920006014" lon="11.573427327241722"><ele>127.0</ele><time>2026-04-30T09:25:49.998Z</time></trkpt><trkpt lat="42.471593253444745" lon="11.573643519623749"><ele>124.66666666666667</ele><time>2026-04-30T09:25:50.998Z</time></trkpt><trkpt lat="42.47155356272588" lon="11.573877031183999"><ele>122.33333333333334</ele><time>2026-04-30T09:25:51.998Z</time></trkpt><trkpt lat="42.47151476949084" lon="11.574119125018033"><ele>120.0</ele><time>2026-04-30T09:25:52.998Z</time></trkpt><trkpt lat="42.47147055809223" lon="11.574370753322704"><ele>118.66666666666666</ele><time>2026-04-30T09:25:53.998Z</time></trkpt><trkpt lat="42.47142745627047" lon="11.574635451165094"><ele>117.33333333333333</ele><time>2026-04-30T09:25:54.998Z</time></trkpt><trkpt lat="42.47138281801028" lon="11.574905496715417"><ele>116.0</ele><time>2026-04-30T09:25:55.998Z</time></trkpt><trkpt lat="42.471336482775655" lon="11.575183560361591"><ele>114.66666666666666</ele><time>2026-04-30T09:25:56.998Z</time></trkpt><trkpt lat="42.47129152389127" lon="11.575464020697448"><ele>113.33333333333334</ele><time>2026-04-30T09:25:57.998Z</time></trkpt><trkpt lat="42.47121365972689" lon="11.575742714119242"><ele>112.0</ele><time>2026-04-30T09:25:58.998Z</time></trkpt><trkpt lat="42.47119113885141" lon="11.57603996263582"><ele>110.66666666666667</ele><time>2026-04-30T09:25:59.998Z</time></trkpt><trkpt lat="42.47114163834199" lon="11.576333498937997"><ele>109.33333333333334</ele><time>2026-04-30T09:26:00.998Z</time></trkpt><trkpt lat="42.47109555082687" lon="11.57662465448391"><ele>108.0</ele><time>2026-04-30T09:26:01.998Z</time></trkpt><trkpt lat="42.47104949980595" lon="11.576917126139728"><ele>108.0</ele><time>2026-04-30T09:26:02.998Z</time></trkpt><trkpt lat="42.47100216648582" lon="11.5771894743085"><ele>108.0</ele><time>2026-04-30T09:26:03.998Z</time></trkpt><trkpt lat="42.470949346030494" lon="11.577432495854662"><ele>108.0</ele><time>2026-04-30T09:26:04.998Z</time></trkpt><trkpt lat="42.470888724161036" lon="11.577649265779021"><ele>108.0</ele><time>2026-04-30T09:26:05.998Z</time></trkpt><trkpt lat="42.47079425919763" lon="11.577839011797181"><ele>108.0</ele><time>2026-04-30T09:26:06.999Z</time></trkpt><trkpt lat="42.47066889841287" lon="11.5780137001859"><ele>108.0</ele><time>2026-04-30T09:26:07.999Z</time></trkpt><trkpt lat="42.47051762835252" lon="11.57816327880263"><ele>108.0</ele><time>2026-04-30T09:26:08.999Z</time></trkpt><trkpt lat="42.47034675554045" lon="11.578310072297787"><ele>108.0</ele><time>2026-04-30T09:26:09.999Z</time></trkpt><trkpt lat="42.47017825338431" lon="11.578471456843303"><ele>108.0</ele><time>2026-04-30T09:26:10.999Z</time></trkpt><trkpt lat="42.470009126035194" lon="11.578646488781871"><ele>108.0</ele><time>2026-04-30T09:26:11.999Z</time></trkpt><trkpt lat="42.46983562084722" lon="11.57882939870328"><ele>108.0</ele><time>2026-04-30T09:26:12.999Z</time></trkpt><trkpt lat="42.46965699789377" lon="11.579011061723726"><ele>108.0</ele><time>2026-04-30T09:26:13.999Z</time></trkpt><trkpt lat="42.46947596488453" lon="11.5791871282046"><ele>108.33333333333334</ele><time>2026-04-30T09:26:14.999Z</time></trkpt><trkpt lat="42.46929766596474" lon="11.57936469083311"><ele>108.66666666666667</ele><time>2026-04-30T09:26:15.999Z</time></trkpt><trkpt lat="42.46912226581187" lon="11.57953972132507"><ele>109.0</ele><time>2026-04-30T09:26:16.999Z</time></trkpt><trkpt lat="42.468945816403455" lon="11.579708875310908"><ele>110.66666666666667</ele><time>2026-04-30T09:26:17.999Z</time></trkpt><trkpt lat="42.46875838979556" lon="11.579853980020772"><ele>112.33333333333334</ele><time>2026-04-30T09:26:18.999Z</time></trkpt><trkpt lat="42.46856057509895" lon="11.579964461909402"><ele>114.0</ele><time>2026-04-30T09:26:19.999Z</time></trkpt><trkpt lat="42.468357576430414" lon="11.580041097255055"><ele>114.0</ele><time>2026-04-30T09:26:20.999Z</time></trkpt><trkpt lat="42.468150956155164" lon="11.58009998161127"><ele>114.0</ele><time>2026-04-30T09:26:21.999Z</time></trkpt><trkpt lat="42.46794450090931" lon="11.580164686272845"><ele>114.0</ele><time>2026-04-30T09:26:22.999Z</time></trkpt><trkpt lat="42.46773835437626" lon="11.580235656602563"><ele>115.33333333333334</ele><time>2026-04-30T09:26:23.999Z</time></trkpt><trkpt lat="42.46753472414798" lon="11.580302869617945"><ele>116.66666666666667</ele><time>2026-04-30T09:26:24.999Z</time></trkpt><trkpt lat="42.46733571719123" lon="11.580365722292223"><ele>118.0</ele><time>2026-04-30T09:26:25.999Z</time></trkpt><trkpt lat="42.46714295137382" lon="11.58041058929123"><ele>121.33333333333334</ele><time>2026-04-30T09:26:26.999Z</time></trkpt><trkpt lat="42.46695395572642" lon="11.580494158678544"><ele>124.66666666666666</ele><time>2026-04-30T09:26:27.999Z</time></trkpt><trkpt lat="42.46677369564678" lon="11.580607130928804"><ele>128.0</ele><time>2026-04-30T09:26:28.999Z</time></trkpt><trkpt lat="42.4666068157573" lon="11.58075378773426"><ele>128.0</ele><time>2026-04-30T09:26:29.999Z</time></trkpt><trkpt lat="42.466518902778276" lon="11.580935306047227"><ele>128.0</ele><time>2026-04-30T09:26:30.999Z</time></trkpt><trkpt lat="42.46644182832478" lon="11.581160898043148"><ele>128.0</ele><time>2026-04-30T09:26:31.999Z</time></trkpt><trkpt lat="42.466365949638615" lon="11.58140575226768"><ele>128.33333333333331</ele><time>2026-04-30T09:26:32.999Z</time></trkpt><trkpt lat="42.466274715341385" lon="11.58163420496832"><ele>128.66666666666666</ele><time>2026-04-30T09:26:33.999Z</time></trkpt><trkpt lat="42.466169457084064" lon="11.581860338361402"><ele>129.0</ele><time>2026-04-30T09:26:34.999Z</time></trkpt><trkpt lat="42.466067741186976" lon="11.582095529600698"><ele>128.33333333333334</ele><time>2026-04-30T09:26:35.999Z</time></trkpt><trkpt lat="42.46595693922848" lon="11.582330951677067"><ele>127.66666666666667</ele><time>2026-04-30T09:26:36.999Z</time></trkpt><trkpt lat="42.46584093240761" lon="11.582570962577147"><ele>127.0</ele><time>2026-04-30T09:26:37.999Z</time></trkpt><trkpt lat="42.465724631037276" lon="11.582813778057115"><ele>126.33333333333334</ele><time>2026-04-30T09:26:38.999Z</time></trkpt><trkpt lat="42.46560830842727" lon="11.583047835316314"><ele>125.66666666666666</ele><time>2026-04-30T09:26:39.999Z</time></trkpt><trkpt lat="42.46549017881432" lon="11.583288494298829"><ele>125.0</ele><time>2026-04-30T09:26:40.999Z</time></trkpt><trkpt lat="42.46537505955413" lon="11.583529302177256"><ele>124.33333333333333</ele><time>2026-04-30T09:26:41.999Z</time></trkpt><trkpt lat="42.4652602765512" lon="11.583777176105446"><ele>123.66666666666666</ele><time>2026-04-30T09:26:42.999Z</time></trkpt><trkpt lat="42.46514585665397" lon="11.584026157270001"><ele>123.0</ele><time>2026-04-30T09:26:43.999Z</time></trkpt><trkpt lat="42.4650286028027" lon="11.584278542955605"><ele>122.33333333333334</ele><time>2026-04-30T09:26:44.999Z</time></trkpt><trkpt lat="42.46491172292847" lon="11.584530645402909"><ele>121.66666666666667</ele><time>2026-04-30T09:26:45.999Z</time></trkpt><trkpt lat="42.46480067162631" lon="11.58478129864243"><ele>121.0</ele><time>2026-04-30T09:26:46.999Z</time></trkpt><trkpt lat="42.46469486242917" lon="11.585029407694597"><ele>121.0</ele><time>2026-04-30T09:26:47.999Z</time></trkpt><trkpt lat="42.46458454082933" lon="11.585265577832669"><ele>121.0</ele><time>2026-04-30T09:26:48.999Z</time></trkpt><trkpt lat="42.464466802153005" lon="11.585484192669199"><ele>121.0</ele><time>2026-04-30T09:26:49.999Z</time></trkpt><trkpt lat="42.464327686404104" lon="11.585667938651332"><ele>121.0</ele><time>2026-04-30T09:26:50.999Z</time></trkpt><trkpt lat="42.46415095652872" lon="11.585796340014475"><ele>121.0</ele><time>2026-04-30T09:26:51.999Z</time></trkpt><trkpt lat="42.463955146358224" lon="11.58587930218761"><ele>121.0</ele><time>2026-04-30T09:26:52.999Z</time></trkpt><trkpt lat="42.46374857375458" lon="11.585915954558372"><ele>120.66666666666667</ele><time>2026-04-30T09:26:53.999Z</time></trkpt><trkpt lat="42.463544850765096" lon="11.585953039781495"><ele>120.33333333333334</ele><time>2026-04-30T09:26:54.999Z</time></trkpt><trkpt lat="42.46334425310588" lon="11.586011675833712"><ele>120.0</ele><time>2026-04-30T09:26:55.999Z</time></trkpt><trkpt lat="42.46314737514482" lon="11.586083477665424"><ele>120.0</ele><time>2026-04-30T09:26:56.999Z</time></trkpt><trkpt lat="42.46295339953619" lon="11.586154365705879"><ele>120.0</ele><time>2026-04-30T09:26:57.999Z</time></trkpt><trkpt lat="42.46276573941957" lon="11.586242746091866"><ele>120.0</ele><time>2026-04-30T09:26:58.999Z</time></trkpt><trkpt lat="42.46258407262501" lon="11.5863716480811"><ele>119.33333333333334</ele><time>2026-04-30T09:26:59.999Z</time></trkpt><trkpt lat="42.462408827261086" lon="11.586537023982526"><ele>118.66666666666667</ele><time>2026-04-30T09:27:00.999Z</time></trkpt><trkpt lat="42.46223750708403" lon="11.586726674486307"><ele>118.0</ele><time>2026-04-30T09:27:01.999Z</time></trkpt><trkpt lat="42.46205895446543" lon="11.586912386436554"><ele>112.5</ele><time>2026-04-30T09:27:02.999Z</time></trkpt><trkpt lat="42.46187139902612" lon="11.587086724590767"><ele>107.0</ele><time>2026-04-30T09:27:03.999Z</time></trkpt><trkpt lat="42.46167893805617" lon="11.587265562349272"><ele>107.0</ele><time>2026-04-30T09:27:04.999Z</time></trkpt><trkpt lat="42.461482774845955" lon="11.587445659114973"><ele>107.0</ele><time>2026-04-30T09:27:05.999Z</time></trkpt><trkpt lat="42.46128138164066" lon="11.58763074718608"><ele>107.0</ele><time>2026-04-30T09:27:06.999Z</time></trkpt><trkpt lat="42.46107986129538" lon="11.587814557033212"><ele>107.0</ele><time>2026-04-30T09:27:07.999Z</time></trkpt><trkpt lat="42.46087789087475" lon="11.587996989933883"><ele>109.5</ele><time>2026-04-30T09:27:08.999Z</time></trkpt><trkpt lat="42.46068064808824" lon="11.588178123927994"><ele>112.0</ele><time>2026-04-30T09:27:09.998Z</time></trkpt><trkpt lat="42.46049023334602" lon="11.58836338670635"><ele>112.5</ele><time>2026-04-30T09:27:10.998Z</time></trkpt><trkpt lat="42.460305682802044" lon="11.588545556377891"><ele>113.0</ele><time>2026-04-30T09:27:11.998Z</time></trkpt><trkpt lat="42.46012420953937" lon="11.588721542756474"><ele>113.0</ele><time>2026-04-30T09:27:12.998Z</time></trkpt><trkpt lat="42.459941908996505" lon="11.58888993161032"><ele>113.0</ele><time>2026-04-30T09:27:13.998Z</time></trkpt><trkpt lat="42.459763547582256" lon="11.589049288455733"><ele>113.0</ele><time>2026-04-30T09:27:14.998Z</time></trkpt><trkpt lat="42.45958997887274" lon="11.589209447368606"><ele>113.66666666666666</ele><time>2026-04-30T09:27:15.998Z</time></trkpt><trkpt lat="42.45941681172152" lon="11.589369243248543"><ele>114.33333333333334</ele><time>2026-04-30T09:27:16.998Z</time></trkpt><trkpt lat="42.45924329835941" lon="11.589531904677512"><ele>115.0</ele><time>2026-04-30T09:27:17.998Z</time></trkpt><trkpt lat="42.45906812871762" lon="11.589696688572042"><ele>115.0</ele><time>2026-04-30T09:27:18.998Z</time></trkpt><trkpt lat="42.45889126818168" lon="11.589865135318595"><ele>115.0</ele><time>2026-04-30T09:27:19.998Z</time></trkpt><trkpt lat="42.458712210093395" lon="11.590033451896657"><ele>115.0</ele><time>2026-04-30T09:27:20.998Z</time></trkpt><trkpt lat="42.458530499940295" lon="11.590204493801412"><ele>116.33333333333334</ele><time>2026-04-30T09:27:21.998Z</time></trkpt><trkpt lat="42.45834887098898" lon="11.590377047756395"><ele>117.66666666666666</ele><time>2026-04-30T09:27:22.998Z</time></trkpt><trkpt lat="42.4581637368376" lon="11.59054732502664"><ele>119.0</ele><time>2026-04-30T09:27:23.998Z</time></trkpt><trkpt lat="42.45797785948442" lon="11.59071998285513"><ele>117.0</ele><time>2026-04-30T09:27:24.998Z</time></trkpt><trkpt lat="42.45779432782341" lon="11.590896799574557"><ele>115.0</ele><time>2026-04-30T09:27:25.998Z</time></trkpt><trkpt lat="42.45760586590187" lon="11.59107697853876"><ele>115.5</ele><time>2026-04-30T09:27:26.998Z</time></trkpt><trkpt lat="42.45741694467354" lon="11.591258246317855"><ele>116.0</ele><time>2026-04-30T09:27:27.998Z</time></trkpt><trkpt lat="42.45722593639907" lon="11.591433760560239"><ele>115.5</ele><time>2026-04-30T09:27:28.998Z</time></trkpt><trkpt lat="42.45703799821459" lon="11.591608260741694"><ele>115.0</ele><time>2026-04-30T09:27:29.998Z</time></trkpt><trkpt lat="42.45685774915592" lon="11.591783827496458"><ele>115.0</ele><time>2026-04-30T09:27:30.998Z</time></trkpt><trkpt lat="42.456680881233865" lon="11.591952109605861"><ele>115.0</ele><time>2026-04-30T09:27:31.998Z</time></trkpt><trkpt lat="42.45649928731972" lon="11.592103063593443"><ele>115.0</ele><time>2026-04-30T09:27:32.998Z</time></trkpt><trkpt lat="42.4563029736753" lon="11.592233909763312"><ele>115.5</ele><time>2026-04-30T09:27:33.998Z</time></trkpt><trkpt lat="42.45609625489192" lon="11.592363786770512"><ele>116.0</ele><time>2026-04-30T09:27:34.998Z</time></trkpt><trkpt lat="42.455886921357326" lon="11.592496603240434"><ele>116.0</ele><time>2026-04-30T09:27:35.998Z</time></trkpt><trkpt lat="42.45567450462677" lon="11.592628646873678"><ele>116.0</ele><time>2026-04-30T09:27:36.998Z</time></trkpt><trkpt lat="42.45546014134149" lon="11.59276490307936"><ele>117.0</ele><time>2026-04-30T09:27:37.998Z</time></trkpt><trkpt lat="42.455243791574794" lon="11.592902028368957"><ele>118.0</ele><time>2026-04-30T09:27:38.998Z</time></trkpt><trkpt lat="42.455030012356616" lon="11.593039582263398"><ele>118.0</ele><time>2026-04-30T09:27:39.998Z</time></trkpt><trkpt lat="42.45482037660017" lon="11.593175131718114"><ele>118.0</ele><time>2026-04-30T09:27:40.998Z</time></trkpt><trkpt lat="42.45461113321731" lon="11.593309956287674"><ele>116.0</ele><time>2026-04-30T09:27:41.998Z</time></trkpt><trkpt lat="42.45440478279203" lon="11.593445858912263"><ele>114.0</ele><time>2026-04-30T09:27:42.998Z</time></trkpt><trkpt lat="42.45419743998458" lon="11.593580479946612"><ele>113.5</ele><time>2026-04-30T09:27:43.998Z</time></trkpt><trkpt lat="42.45399162886619" lon="11.593713231300933"><ele>113.0</ele><time>2026-04-30T09:27:44.998Z</time></trkpt><trkpt lat="42.45378393806838" lon="11.593845591701701"><ele>113.0</ele><time>2026-04-30T09:27:45.998Z</time></trkpt><trkpt lat="42.45357576883841" lon="11.59397881871703"><ele>113.0</ele><time>2026-04-30T09:27:46.998Z</time></trkpt><trkpt lat="42.4533659968694" lon="11.594114564257758"><ele>113.0</ele><time>2026-04-30T09:27:47.998Z</time></trkpt><trkpt lat="42.45315643720859" lon="11.594247403815714"><ele>113.0</ele><time>2026-04-30T09:27:48.998Z</time></trkpt><trkpt lat="42.45294476699496" lon="11.594382457172955"><ele>112.0</ele><time>2026-04-30T09:27:49.998Z</time></trkpt><trkpt lat="42.452732122806594" lon="11.594520078991737"><ele>111.0</ele><time>2026-04-30T09:27:50.998Z</time></trkpt><trkpt lat="42.45252057108211" lon="11.59465480532539"><ele>111.0</ele><time>2026-04-30T09:27:51.998Z</time></trkpt><trkpt lat="42.452309582707514" lon="11.59478899580788"><ele>111.0</ele><time>2026-04-30T09:27:52.998Z</time></trkpt><trkpt lat="42.4521033044035" lon="11.594919620217492"><ele>110.33333333333334</ele><time>2026-04-30T09:27:53.998Z</time></trkpt><trkpt lat="42.45190132098724" lon="11.595045028860321"><ele>109.66666666666667</ele><time>2026-04-30T09:27:54.998Z</time></trkpt><trkpt lat="42.4517017080495" lon="11.595170390490752"><ele>109.0</ele><time>2026-04-30T09:27:55.998Z</time></trkpt><trkpt lat="42.45150667019474" lon="11.595303251289215"><ele>109.0</ele><time>2026-04-30T09:27:56.998Z</time></trkpt><trkpt lat="42.45132120673809" lon="11.595463313489056"><ele>109.0</ele><time>2026-04-30T09:27:57.998Z</time></trkpt><trkpt lat="42.45114878016657" lon="11.595656406148192"><ele>109.0</ele><time>2026-04-30T09:27:58.998Z</time></trkpt><trkpt lat="42.450983455203676" lon="11.595871256490426"><ele>109.0</ele><time>2026-04-30T09:27:59.998Z</time></trkpt><trkpt lat="42.45081869923346" lon="11.596092667109874"><ele>109.0</ele><time>2026-04-30T09:28:00.998Z</time></trkpt><trkpt lat="42.45065133920533" lon="11.596309404458731"><ele>109.0</ele><time>2026-04-30T09:28:01.998Z</time></trkpt><trkpt lat="42.45048295773056" lon="11.596526343744209"><ele>109.0</ele><time>2026-04-30T09:28:02.998Z</time></trkpt><trkpt lat="42.45030959193622" lon="11.596741221097549"><ele>109.0</ele><time>2026-04-30T09:28:03.998Z</time></trkpt><trkpt lat="42.45013693342471" lon="11.596958005758506"><ele>109.0</ele><time>2026-04-30T09:28:04.998Z</time></trkpt><trkpt lat="42.44996239700913" lon="11.597183276490908"><ele>110.0</ele><time>2026-04-30T09:28:05.998Z</time></trkpt><trkpt lat="42.449791832068485" lon="11.597412043789928"><ele>111.0</ele><time>2026-04-30T09:28:06.998Z</time></trkpt><trkpt lat="42.44962062569326" lon="11.597642351043653"><ele>108.0</ele><time>2026-04-30T09:28:07.997Z</time></trkpt><trkpt lat="42.44944564284407" lon="11.597868392485058"><ele>105.0</ele><time>2026-04-30T09:28:08.997Z</time></trkpt><trkpt lat="42.449272634663615" lon="11.598090700913026"><ele>105.0</ele><time>2026-04-30T09:28:09.997Z</time></trkpt><trkpt lat="42.449101320112625" lon="11.598305935988883"><ele>105.0</ele><time>2026-04-30T09:28:10.997Z</time></trkpt><trkpt lat="42.44893525306707" lon="11.598517491163078"><ele>104.33333333333334</ele><time>2026-04-30T09:28:11.997Z</time></trkpt><trkpt lat="42.44877630286113" lon="11.598722375882694"><ele>103.66666666666667</ele><time>2026-04-30T09:28:12.998Z</time></trkpt><trkpt lat="42.44862684442542" lon="11.598924643592225"><ele>103.0</ele><time>2026-04-30T09:28:13.998Z</time></trkpt><trkpt lat="42.448490002411766" lon="11.599121998593732"><ele>103.0</ele><time>2026-04-30T09:28:14.998Z</time></trkpt><trkpt lat="42.448380518669694" lon="11.599315506618623"><ele>103.0</ele><time>2026-04-30T09:28:15.998Z</time></trkpt><trkpt lat="42.44830468380262" lon="11.599524923016686"><ele>103.0</ele><time>2026-04-30T09:28:16.998Z</time></trkpt><trkpt lat="42.44826250164013" lon="11.599767827916581"><ele>103.0</ele><time>2026-04-30T09:28:17.998Z</time></trkpt><trkpt lat="42.448243920449244" lon="11.600032517068229"><ele>103.0</ele><time>2026-04-30T09:28:18.998Z</time></trkpt><trkpt lat="42.448234728071824" lon="11.60031191003475"><ele>103.0</ele><time>2026-04-30T09:28:19.998Z</time></trkpt><trkpt lat="42.448214922994026" lon="11.600594781255328"><ele>102.0</ele><time>2026-04-30T09:28:20.998Z</time></trkpt><trkpt lat="42.448186416683306" lon="11.600881081981736"><ele>101.0</ele><time>2026-04-30T09:28:21.998Z</time></trkpt><trkpt lat="42.44815599789778" lon="11.60116915462007"><ele>100.0</ele><time>2026-04-30T09:28:22.998Z</time></trkpt><trkpt lat="42.44812585739948" lon="11.601461290574179"><ele>99.33333333333334</ele><time>2026-04-30T09:28:23.998Z</time></trkpt><trkpt lat="42.448103150259044" lon="11.601750822184151"><ele>98.66666666666666</ele><time>2026-04-30T09:28:24.998Z</time></trkpt><trkpt lat="42.44808261266483" lon="11.60203101959645"><ele>98.0</ele><time>2026-04-30T09:28:25.998Z</time></trkpt><trkpt lat="42.44804257499708" lon="11.602298771301017"><ele>96.33333333333333</ele><time>2026-04-30T09:28:26.998Z</time></trkpt><trkpt lat="42.44795879506849" lon="11.602551930136027"><ele>94.66666666666666</ele><time>2026-04-30T09:28:27.998Z</time></trkpt><trkpt lat="42.447830193205526" lon="11.602779630604102"><ele>93.0</ele><time>2026-04-30T09:28:28.998Z</time></trkpt><trkpt lat="42.44767387722939" lon="11.602985373237782"><ele>93.0</ele><time>2026-04-30T09:28:29.998Z</time></trkpt><trkpt lat="42.44751294254406" lon="11.603189708637906"><ele>93.0</ele><time>2026-04-30T09:28:30.998Z</time></trkpt><trkpt lat="42.44735966056087" lon="11.603404501265187"><ele>93.0</ele><time>2026-04-30T09:28:31.998Z</time></trkpt><trkpt lat="42.44720960284916" lon="11.603626462021406"><ele>94.0</ele><time>2026-04-30T09:28:32.998Z</time></trkpt><trkpt lat="42.44704265904943" lon="11.603824122605"><ele>95.0</ele><time>2026-04-30T09:28:33.998Z</time></trkpt><trkpt lat="42.44689281767271" lon="11.604041148780341"><ele>96.0</ele><time>2026-04-30T09:28:34.998Z</time></trkpt><trkpt lat="42.44674533156661" lon="11.604254763644136"><ele>96.0</ele><time>2026-04-30T09:28:35.998Z</time></trkpt><trkpt lat="42.44659800031151" lon="11.604463444794305"><ele>96.0</ele><time>2026-04-30T09:28:36.998Z</time></trkpt><trkpt lat="42.446445046465286" lon="11.60465773307397"><ele>96.0</ele><time>2026-04-30T09:28:37.998Z</time></trkpt><trkpt lat="42.446270561307976" lon="11.604807175378596"><ele>95.33333333333333</ele><time>2026-04-30T09:28:38.998Z</time></trkpt><trkpt lat="42.44607839108655" lon="11.604935230496064"><ele>94.66666666666666</ele><time>2026-04-30T09:28:39.998Z</time></trkpt><trkpt lat="42.44588403508382" lon="11.605063564830386"><ele>94.0</ele><time>2026-04-30T09:28:40.998Z</time></trkpt><trkpt lat="42.44569109934816" lon="11.605194317442715"><ele>94.0</ele><time>2026-04-30T09:28:41.998Z</time></trkpt><trkpt lat="42.44549230135728" lon="11.605328788091164"><ele>94.0</ele><time>2026-04-30T09:28:42.998Z</time></trkpt><trkpt lat="42.44529034166725" lon="11.605463106544478"><ele>94.0</ele><time>2026-04-30T09:28:43.998Z</time></trkpt><trkpt lat="42.44508479705701" lon="11.605599809241186"><ele>93.0</ele><time>2026-04-30T09:28:44.998Z</time></trkpt><trkpt lat="42.44487658897024" lon="11.605738283351537"><ele>92.0</ele><time>2026-04-30T09:28:45.998Z</time></trkpt><trkpt lat="42.44466314435989" lon="11.605880987988032"><ele>90.0</ele><time>2026-04-30T09:28:46.998Z</time></trkpt><trkpt lat="42.44445210884175" lon="11.606023000997835"><ele>88.0</ele><time>2026-04-30T09:28:47.998Z</time></trkpt><trkpt lat="42.44423465059477" lon="11.6061693360839"><ele>88.0</ele><time>2026-04-30T09:28:48.997Z</time></trkpt><trkpt lat="42.44401602173396" lon="11.606316458916911"><ele>88.0</ele><time>2026-04-30T09:28:49.997Z</time></trkpt><trkpt lat="42.44379462390431" lon="11.60646544508426"><ele>86.5</ele><time>2026-04-30T09:28:50.997Z</time></trkpt><trkpt lat="42.443576926446276" lon="11.606612202169357"><ele>85.0</ele><time>2026-04-30T09:28:51.997Z</time></trkpt><trkpt lat="42.443353373965834" lon="11.606762979843996"><ele>85.0</ele><time>2026-04-30T09:28:52.997Z</time></trkpt><trkpt lat="42.44312854906728" lon="11.606914616029256"><ele>85.0</ele><time>2026-04-30T09:28:53.997Z</time></trkpt><trkpt lat="42.442910013112844" lon="11.6070620102781"><ele>85.5</ele><time>2026-04-30T09:28:54.997Z</time></trkpt><trkpt lat="42.44268896823119" lon="11.60720774577155"><ele>86.0</ele><time>2026-04-30T09:28:55.997Z</time></trkpt><trkpt lat="42.44247727420159" lon="11.607378729889229"><ele>86.0</ele><time>2026-04-30T09:28:56.997Z</time></trkpt><trkpt lat="42.442260876620665" lon="11.607537917072273"><ele>86.0</ele><time>2026-04-30T09:28:57.997Z</time></trkpt><trkpt lat="42.442050470653015" lon="11.607705308285272"><ele>85.5</ele><time>2026-04-30T09:28:58.997Z</time></trkpt><trkpt lat="42.441856109091866" lon="11.60791254524587"><ele>85.0</ele><time>2026-04-30T09:28:59.997Z</time></trkpt><trkpt lat="42.441653636847846" lon="11.608102249246922"><ele>85.0</ele><time>2026-04-30T09:29:00.997Z</time></trkpt><trkpt lat="42.441453501454355" lon="11.608291784543216"><ele>85.0</ele><time>2026-04-30T09:29:01.997Z</time></trkpt><trkpt lat="42.44125523248728" lon="11.608476067722158"><ele>86.0</ele><time>2026-04-30T09:29:02.997Z</time></trkpt><trkpt lat="42.441059300804824" lon="11.60866200353848"><ele>87.0</ele><time>2026-04-30T09:29:03.997Z</time></trkpt><trkpt lat="42.44086639010297" lon="11.608839839110713"><ele>87.0</ele><time>2026-04-30T09:29:04.997Z</time></trkpt><trkpt lat="42.44067798495058" lon="11.6090174477282"><ele>87.0</ele><time>2026-04-30T09:29:05.997Z</time></trkpt><trkpt lat="42.44048978976314" lon="11.60918548415724"><ele>87.5</ele><time>2026-04-30T09:29:06.997Z</time></trkpt><trkpt lat="42.440302584289" lon="11.609366521520741"><ele>88.0</ele><time>2026-04-30T09:29:07.997Z</time></trkpt><trkpt lat="42.44011431620254" lon="11.609542953825887"><ele>89.5</ele><time>2026-04-30T09:29:08.997Z</time></trkpt><trkpt lat="42.439931514509375" lon="11.609720322092361"><ele>91.0</ele><time>2026-04-30T09:29:09.997Z</time></trkpt><trkpt lat="42.43974617738539" lon="11.609896232228202"><ele>88.5</ele><time>2026-04-30T09:29:10.997Z</time></trkpt><trkpt lat="42.43955999115981" lon="11.610070217145218"><ele>86.0</ele><time>2026-04-30T09:29:11.997Z</time></trkpt><trkpt lat="42.43937244467021" lon="11.610242288125162"><ele>87.5</ele><time>2026-04-30T09:29:12.997Z</time></trkpt><trkpt lat="42.43918669179741" lon="11.610419267223376"><ele>89.0</ele><time>2026-04-30T09:29:13.997Z</time></trkpt><trkpt lat="42.43900000063996" lon="11.610590376354336"><ele>89.0</ele><time>2026-04-30T09:29:14.997Z</time></trkpt><trkpt lat="42.43881295695468" lon="11.610761261423237"><ele>89.0</ele><time>2026-04-30T09:29:15.997Z</time></trkpt><trkpt lat="42.438623554950205" lon="11.610930476959107"><ele>90.0</ele><time>2026-04-30T09:29:16.997Z</time></trkpt><trkpt lat="42.43842945818046" lon="11.611093952448494"><ele>91.0</ele><time>2026-04-30T09:29:17.997Z</time></trkpt><trkpt lat="42.43823252723055" lon="11.61125255626095"><ele>91.0</ele><time>2026-04-30T09:29:18.997Z</time></trkpt><trkpt lat="42.43802815594591" lon="11.611416881689154"><ele>91.0</ele><time>2026-04-30T09:29:19.997Z</time></trkpt><trkpt lat="42.43782401040738" lon="11.611578030403587"><ele>91.0</ele><time>2026-04-30T09:29:20.997Z</time></trkpt><trkpt lat="42.43761564804897" lon="11.611738051710004"><ele>91.0</ele><time>2026-04-30T09:29:21.997Z</time></trkpt><trkpt lat="42.437404731901886" lon="11.611899897000635"><ele>91.0</ele><time>2026-04-30T09:29:22.997Z</time></trkpt><trkpt lat="42.43719364716197" lon="11.61206748429765"><ele>91.0</ele><time>2026-04-30T09:29:23.997Z</time></trkpt><trkpt lat="42.436982874100316" lon="11.612237587156015"><ele>89.5</ele><time>2026-04-30T09:29:24.997Z</time></trkpt><trkpt lat="42.4367726558967" lon="11.612400585833988"><ele>88.0</ele><time>2026-04-30T09:29:25.997Z</time></trkpt><trkpt lat="42.436564817161106" lon="11.612565473547154"><ele>88.0</ele><time>2026-04-30T09:29:26.997Z</time></trkpt><trkpt lat="42.43636041303435" lon="11.612739021106073"><ele>88.0</ele><time>2026-04-30T09:29:27.997Z</time></trkpt><trkpt lat="42.436161558023706" lon="11.61292486227744"><ele>87.5</ele><time>2026-04-30T09:29:28.997Z</time></trkpt><trkpt lat="42.435967145244746" lon="11.613116801581372"><ele>87.0</ele><time>2026-04-30T09:29:29.997Z</time></trkpt><trkpt lat="42.43577224671887" lon="11.613303826432647"><ele>87.0</ele><time>2026-04-30T09:29:30.997Z</time></trkpt><trkpt lat="42.43557762754637" lon="11.613494347007586"><ele>87.0</ele><time>2026-04-30T09:29:31.997Z</time></trkpt><trkpt lat="42.435383304413776" lon="11.613684147923095"><ele>85.5</ele><time>2026-04-30T09:29:32.997Z</time></trkpt><trkpt lat="42.43518895718007" lon="11.613875490657719"><ele>84.0</ele><time>2026-04-30T09:29:33.997Z</time></trkpt><trkpt lat="42.434993481410295" lon="11.614061652348063"><ele>84.0</ele><time>2026-04-30T09:29:34.997Z</time></trkpt><trkpt lat="42.43480078229915" lon="11.614247509550072"><ele>84.0</ele><time>2026-04-30T09:29:35.997Z</time></trkpt><trkpt lat="42.4346080366654" lon="11.614436825201805"><ele>83.0</ele><time>2026-04-30T09:29:36.997Z</time></trkpt><trkpt lat="42.43441531155338" lon="11.614624999194161"><ele>82.0</ele><time>2026-04-30T09:29:37.997Z</time></trkpt><trkpt lat="42.4342216500393" lon="11.61481101663886"><ele>82.0</ele><time>2026-04-30T09:29:38.997Z</time></trkpt><trkpt lat="42.434024346342476" lon="11.614993571502408"><ele>82.0</ele><time>2026-04-30T09:29:39.997Z</time></trkpt><trkpt lat="42.43383525322401" lon="11.61517197051844"><ele>80.0</ele><time>2026-04-30T09:29:40.997Z</time></trkpt><trkpt lat="42.43364827980887" lon="11.615349670387308"><ele>78.0</ele><time>2026-04-30T09:29:41.997Z</time></trkpt><trkpt lat="42.43346259348968" lon="11.615531886665561"><ele>78.0</ele><time>2026-04-30T09:29:42.997Z</time></trkpt><trkpt lat="42.43327300779889" lon="11.615713695022794"><ele>78.0</ele><time>2026-04-30T09:29:43.996Z</time></trkpt><trkpt lat="42.433089469467454" lon="11.615883985874806"><ele>78.33333333333333</ele><time>2026-04-30T09:29:44.996Z</time></trkpt><trkpt lat="42.43292734082147" lon="11.616040245130556"><ele>78.66666666666666</ele><time>2026-04-30T09:29:45.996Z</time></trkpt><trkpt lat="42.43279391127992" lon="11.61618266553313"><ele>79.0</ele><time>2026-04-30T09:29:46.996Z</time></trkpt><trkpt lat="42.43269099210261" lon="11.616328890802967"><ele>78.60000000000001</ele><time>2026-04-30T09:29:47.996Z</time></trkpt><trkpt lat="42.43261567707454" lon="11.61644744875708"><ele>78.2</ele><time>2026-04-30T09:29:48.996Z</time></trkpt><trkpt lat="42.432567272867644" lon="11.616560822255256"><ele>77.80000000000001</ele><time>2026-04-30T09:29:49.996Z</time></trkpt><trkpt lat="42.432521738953355" lon="11.61665682905084"><ele>77.4</ele><time>2026-04-30T09:29:50.996Z</time></trkpt><trkpt lat="42.43247161307113" lon="11.616739446879992"><ele>77.0</ele><time>2026-04-30T09:29:51.996Z</time></trkpt><trkpt lat="42.43241073810598" lon="11.61681305912609"><ele>77.0</ele><time>2026-04-30T09:29:53.996Z</time></trkpt><trkpt lat="42.43248026286301" lon="11.616779337036892"><ele>77.0</ele><time>2026-04-30T09:30:08.996Z</time></trkpt><trkpt lat="42.43246567486544" lon="11.616882822061537"><ele>77.0</ele><time>2026-04-30T09:30:14.996Z</time></trkpt><trkpt lat="42.43247761435371" lon="11.616994597819309"><ele>77.0</ele><time>2026-04-30T09:30:15.996Z</time></trkpt><trkpt lat="42.43251018521206" lon="11.61710853214283"><ele>77.0</ele><time>2026-04-30T09:30:16.996Z</time></trkpt><trkpt lat="42.432521157905775" lon="11.617193416520102"><ele>77.0</ele><time>2026-04-30T09:30:17.997Z</time></trkpt><trkpt lat="42.432558880919714" lon="11.617329532951793"><ele>76.75</ele><time>2026-04-30T09:30:18.997Z</time></trkpt><trkpt lat="42.432598384863155" lon="11.617502963416399"><ele>76.5</ele><time>2026-04-30T09:30:19.997Z</time></trkpt><trkpt lat="42.43261923912252" lon="11.617664994921531"><ele>76.25</ele><time>2026-04-30T09:30:20.997Z</time></trkpt><trkpt lat="42.43264011866447" lon="11.617826021106218"><ele>76.0</ele><time>2026-04-30T09:30:21.997Z</time></trkpt><trkpt lat="42.432664005437466" lon="11.617996174024972"><ele>75.5</ele><time>2026-04-30T09:30:22.997Z</time></trkpt><trkpt lat="42.43269574169662" lon="11.618186183779294"><ele>75.0</ele><time>2026-04-30T09:30:23.998Z</time></trkpt><trkpt lat="42.432687204430394" lon="11.618383679899107"><ele>74.5</ele><time>2026-04-30T09:30:24.998Z</time></trkpt><trkpt lat="42.43268135467481" lon="11.618579084389276"><ele>74.0</ele><time>2026-04-30T09:30:25.998Z</time></trkpt><trkpt lat="42.4326533506221" lon="11.618751528728437"><ele>74.0</ele><time>2026-04-30T09:30:26.998Z</time></trkpt><trkpt lat="42.43260582277835" lon="11.618927350636103"><ele>74.0</ele><time>2026-04-30T09:30:27.998Z</time></trkpt><trkpt lat="42.432540312728854" lon="11.619157272358152"><ele>74.0</ele><time>2026-04-30T09:30:28.998Z</time></trkpt><trkpt lat="42.432476850419135" lon="11.61937880360901"><ele>74.66666666666667</ele><time>2026-04-30T09:30:29.998Z</time></trkpt><trkpt lat="42.432405575239294" lon="11.619625451237232"><ele>75.33333333333333</ele><time>2026-04-30T09:30:30.998Z</time></trkpt><trkpt lat="42.43233247530392" lon="11.619877528897963"><ele>76.0</ele><time>2026-04-30T09:30:31.998Z</time></trkpt><trkpt lat="42.43225690419834" lon="11.620139766289164"><ele>75.66666666666666</ele><time>2026-04-30T09:30:32.998Z</time></trkpt><trkpt lat="42.43218166772688" lon="11.620400338532114"><ele>75.33333333333333</ele><time>2026-04-30T09:30:33.998Z</time></trkpt><trkpt lat="42.43210525013914" lon="11.620660833846168"><ele>75.0</ele><time>2026-04-30T09:30:34.998Z</time></trkpt><trkpt lat="42.43203091744844" lon="11.620919257251675"><ele>74.66666666666667</ele><time>2026-04-30T09:30:35.998Z</time></trkpt><trkpt lat="42.43195696786957" lon="11.621182884483556"><ele>74.33333333333334</ele><time>2026-04-30T09:30:36.998Z</time></trkpt><trkpt lat="42.43188480862421" lon="11.621454138687819"><ele>74.0</ele><time>2026-04-30T09:30:37.998Z</time></trkpt><trkpt lat="42.43182263201058" lon="11.621730304527956"><ele>74.33333333333334</ele><time>2026-04-30T09:30:38.998Z</time></trkpt><trkpt lat="42.43176773248567" lon="11.622018471851113"><ele>74.66666666666667</ele><time>2026-04-30T09:30:39.998Z</time></trkpt><trkpt lat="42.4317174529505" lon="11.622304909697196"><ele>75.0</ele><time>2026-04-30T09:30:40.998Z</time></trkpt><trkpt lat="42.431666560473154" lon="11.622594894863637"><ele>75.33333333333333</ele><time>2026-04-30T09:30:41.998Z</time></trkpt><trkpt lat="42.43161524862382" lon="11.6228873578611"><ele>75.66666666666666</ele><time>2026-04-30T09:30:42.998Z</time></trkpt><trkpt lat="42.43159353949753" lon="11.623188030890338"><ele>76.0</ele><time>2026-04-30T09:30:43.999Z</time></trkpt><trkpt lat="42.43154138988143" lon="11.623485679525524"><ele>75.5</ele><time>2026-04-30T09:30:44.999Z</time></trkpt><trkpt lat="42.43149119581352" lon="11.623782432537778"><ele>75.0</ele><time>2026-04-30T09:30:45.999Z</time></trkpt><trkpt lat="42.4314421726379" lon="11.62408032188803"><ele>75.0</ele><time>2026-04-30T09:30:46.999Z</time></trkpt><trkpt lat="42.43139230550632" lon="11.62437322053655"><ele>75.0</ele><time>2026-04-30T09:30:47.999Z</time></trkpt><trkpt lat="42.431339350945734" lon="11.624658069422606"><ele>75.0</ele><time>2026-04-30T09:30:48.999Z</time></trkpt><trkpt lat="42.43128454484849" lon="11.62493433550013"><ele>74.0</ele><time>2026-04-30T09:30:49.999Z</time></trkpt><trkpt lat="42.43123803146476" lon="11.625200098827294"><ele>73.0</ele><time>2026-04-30T09:30:50.999Z</time></trkpt><trkpt lat="42.431196215417444" lon="11.625448030726346"><ele>72.0</ele><time>2026-04-30T09:30:51.999Z</time></trkpt><trkpt lat="42.431172288109714" lon="11.62569454887754"><ele>71.66666666666667</ele><time>2026-04-30T09:30:52.999Z</time></trkpt><trkpt lat="42.431172214581665" lon="11.625961099508904"><ele>71.33333333333334</ele><time>2026-04-30T09:30:53.999Z</time></trkpt><trkpt lat="42.43119514611657" lon="11.626260915167586"><ele>71.0</ele><time>2026-04-30T09:30:54.999Z</time></trkpt><trkpt lat="42.431252826538326" lon="11.626532496440497"><ele>70.33333333333334</ele><time>2026-04-30T09:30:55.999Z</time></trkpt><trkpt lat="42.431309286338646" lon="11.626811618425187"><ele>69.66666666666667</ele><time>2026-04-30T09:30:56.999Z</time></trkpt><trkpt lat="42.431361978201565" lon="11.627112558325368"><ele>69.0</ele><time>2026-04-30T09:30:57.999Z</time></trkpt><trkpt lat="42.43140481720575" lon="11.627423934604595"><ele>68.0</ele><time>2026-04-30T09:30:58.999Z</time></trkpt><trkpt lat="42.43145292696294" lon="11.627738481709363"><ele>67.0</ele><time>2026-04-30T09:30:59.999Z</time></trkpt><trkpt lat="42.43150151603571" lon="11.62806021684811"><ele>67.0</ele><time>2026-04-30T09:31:00.999Z</time></trkpt><trkpt lat="42.43154697436369" lon="11.628380604398359"><ele>67.0</ele><time>2026-04-30T09:31:01.999Z</time></trkpt><trkpt lat="42.43160720707441" lon="11.628727173998135"><ele>67.0</ele><time>2026-04-30T09:31:02.999Z</time></trkpt><trkpt lat="42.43166777394018" lon="11.629059939637953"><ele>67.0</ele><time>2026-04-30T09:31:03.999Z</time></trkpt><trkpt lat="42.43172589181806" lon="11.62939956669177"><ele>67.0</ele><time>2026-04-30T09:31:04.999Z</time></trkpt><trkpt lat="42.43176660896688" lon="11.629736781063835"><ele>67.0</ele><time>2026-04-30T09:31:05.999Z</time></trkpt><trkpt lat="42.431806159630135" lon="11.630060856389312"><ele>64.5</ele><time>2026-04-30T09:31:06.999Z</time></trkpt><trkpt lat="42.43184843620185" lon="11.630381667855293"><ele>62.0</ele><time>2026-04-30T09:31:07.999Z</time></trkpt><trkpt lat="42.43188627543075" lon="11.63069125906234"><ele>62.0</ele><time>2026-04-30T09:31:08.999Z</time></trkpt><trkpt lat="42.431937322084785" lon="11.631006637090039"><ele>62.0</ele><time>2026-04-30T09:31:09.999Z</time></trkpt><trkpt lat="42.431982843800874" lon="11.631326178047269"><ele>59.0</ele><time>2026-04-30T09:31:10.999Z</time></trkpt><trkpt lat="42.43202595097633" lon="11.631639412004859"><ele>56.0</ele><time>2026-04-30T09:31:11.999Z</time></trkpt><trkpt lat="42.432091570236956" lon="11.631936645150756"><ele>57.333333333333336</ele><time>2026-04-30T09:31:12.999Z</time></trkpt><trkpt lat="42.43215072246074" lon="11.632228067073255"><ele>58.66666666666667</ele><time>2026-04-30T09:31:13.998Z</time></trkpt><trkpt lat="42.43222251864809" lon="11.632516583347325"><ele>60.0</ele><time>2026-04-30T09:31:14.998Z</time></trkpt><trkpt lat="42.43229123113606" lon="11.63281756743831"><ele>63.0</ele><time>2026-04-30T09:31:15.998Z</time></trkpt><trkpt lat="42.432327057419464" lon="11.633079005555345"><ele>66.0</ele><time>2026-04-30T09:31:16.998Z</time></trkpt><trkpt lat="42.432320716963254" lon="11.633308911907903"><ele>69.0</ele><time>2026-04-30T09:31:17.998Z</time></trkpt><trkpt lat="42.43228888012597" lon="11.633529005620506"><ele>71.33333333333333</ele><time>2026-04-30T09:31:18.998Z</time></trkpt><trkpt lat="42.432221625114835" lon="11.633707232661985"><ele>73.66666666666666</ele><time>2026-04-30T09:31:19.998Z</time></trkpt><trkpt lat="42.43213816611546" lon="11.63389929487437"><ele>76.0</ele><time>2026-04-30T09:31:20.998Z</time></trkpt><trkpt lat="42.43205887070064" lon="11.634091663669219"><ele>76.0</ele><time>2026-04-30T09:31:21.998Z</time></trkpt><trkpt lat="42.432048707564036" lon="11.634298718052298"><ele>76.0</ele><time>2026-04-30T09:31:22.998Z</time></trkpt><trkpt lat="42.43197487928938" lon="11.634504758175838"><ele>76.0</ele><time>2026-04-30T09:31:23.998Z</time></trkpt><trkpt lat="42.43191593262986" lon="11.634715124232194"><ele>77.33333333333333</ele><time>2026-04-30T09:31:24.998Z</time></trkpt><trkpt lat="42.43178063803635" lon="11.634825251286287"><ele>78.66666666666667</ele><time>2026-04-30T09:31:25.998Z</time></trkpt><trkpt lat="42.43162312588857" lon="11.634929562230024"><ele>80.0</ele><time>2026-04-30T09:31:26.998Z</time></trkpt><trkpt lat="42.43143632630578" lon="11.635029110505108"><ele>80.0</ele><time>2026-04-30T09:31:27.998Z</time></trkpt><trkpt lat="42.43131778758575" lon="11.635206863531842"><ele>80.0</ele><time>2026-04-30T09:31:28.998Z</time></trkpt><trkpt lat="42.43123626296515" lon="11.635433700571731"><ele>80.0</ele><time>2026-04-30T09:31:29.998Z</time></trkpt><trkpt lat="42.43106176366337" lon="11.63547940365667"><ele>81.0</ele><time>2026-04-30T09:31:30.998Z</time></trkpt><trkpt lat="42.43099292904403" lon="11.635704145970612"><ele>82.0</ele><time>2026-04-30T09:31:31.998Z</time></trkpt><trkpt lat="42.430893320275075" lon="11.635925376844613"><ele>83.0</ele><time>2026-04-30T09:31:32.998Z</time></trkpt><trkpt lat="42.43083795779667" lon="11.636123547142596"><ele>83.33333333333334</ele><time>2026-04-30T09:31:33.998Z</time></trkpt><trkpt lat="42.43083929066155" lon="11.636394347679376"><ele>83.66666666666667</ele><time>2026-04-30T09:31:34.998Z</time></trkpt><trkpt lat="42.43070879319625" lon="11.636581073402205"><ele>84.0</ele><time>2026-04-30T09:31:35.998Z</time></trkpt><trkpt lat="42.43070113094476" lon="11.636789833016607"><ele>83.33333333333333</ele><time>2026-04-30T09:31:36.998Z</time></trkpt><trkpt lat="42.43068385762754" lon="11.637050666280624"><ele>82.66666666666666</ele><time>2026-04-30T09:31:37.998Z</time></trkpt><trkpt lat="42.43059863430715" lon="11.637219930177478"><ele>82.0</ele><time>2026-04-30T09:31:38.998Z</time></trkpt><trkpt lat="42.43052552811987" lon="11.637372178306732"><ele>81.5</ele><time>2026-04-30T09:31:39.998Z</time></trkpt><trkpt lat="42.430473423980246" lon="11.637578618354658"><ele>81.0</ele><time>2026-04-30T09:31:40.998Z</time></trkpt><trkpt lat="42.43043131090045" lon="11.637740166901908"><ele>80.5</ele><time>2026-04-30T09:31:41.998Z</time></trkpt><trkpt lat="42.43039668761504" lon="11.637893055596315"><ele>80.0</ele><time>2026-04-30T09:31:42.998Z</time></trkpt><trkpt lat="42.43036588789369" lon="11.638101079828797"><ele>81.33333333333334</ele><time>2026-04-30T09:31:43.998Z</time></trkpt><trkpt lat="42.43044899414514" lon="11.638305146504766"><ele>82.66666666666667</ele><time>2026-04-30T09:31:44.998Z</time></trkpt><trkpt lat="42.43053320091253" lon="11.638540166188964"><ele>84.0</ele><time>2026-04-30T09:31:45.998Z</time></trkpt><trkpt lat="42.4305922479604" lon="11.638817665518621"><ele>84.66666666666667</ele><time>2026-04-30T09:31:46.998Z</time></trkpt><trkpt lat="42.43059937415308" lon="11.639033024555342"><ele>85.33333333333334</ele><time>2026-04-30T09:31:47.998Z</time></trkpt><trkpt lat="42.4306020501704" lon="11.639259335289857"><ele>86.0</ele><time>2026-04-30T09:31:48.998Z</time></trkpt><trkpt lat="42.43058558076371" lon="11.639462929920045"><ele>86.66666666666667</ele><time>2026-04-30T09:31:49.998Z</time></trkpt><trkpt lat="42.43063361767867" lon="11.639784820824627"><ele>87.33333333333333</ele><time>2026-04-30T09:31:50.998Z</time></trkpt><trkpt lat="42.43063174410339" lon="11.639985162545317"><ele>88.0</ele><time>2026-04-30T09:31:51.998Z</time></trkpt><trkpt lat="42.430588002350966" lon="11.64018785149245"><ele>89.33333333333333</ele><time>2026-04-30T09:31:52.998Z</time></trkpt><trkpt lat="42.43058161541958" lon="11.64042565812646"><ele>90.66666666666667</ele><time>2026-04-30T09:31:53.998Z</time></trkpt><trkpt lat="42.43069801016867" lon="11.640716797287386"><ele>92.0</ele><time>2026-04-30T09:31:54.998Z</time></trkpt><trkpt lat="42.43078000423993" lon="11.641055682275656"><ele>92.0</ele><time>2026-04-30T09:31:55.998Z</time></trkpt><trkpt lat="42.43083059607223" lon="11.641361047623995"><ele>92.0</ele><time>2026-04-30T09:31:56.998Z</time></trkpt><trkpt lat="42.43090059893433" lon="11.641698022415511"><ele>92.0</ele><time>2026-04-30T09:31:57.998Z</time></trkpt><trkpt lat="42.43097809307919" lon="11.642064391341737"><ele>92.0</ele><time>2026-04-30T09:31:58.998Z</time></trkpt><trkpt lat="42.431058720041676" lon="11.642420851580393"><ele>92.0</ele><time>2026-04-30T09:31:59.998Z</time></trkpt><trkpt lat="42.431118854328375" lon="11.642757315726943"><ele>92.0</ele><time>2026-04-30T09:32:00.998Z</time></trkpt><trkpt lat="42.43118821212224" lon="11.6430999014192"><ele>92.0</ele><time>2026-04-30T09:32:01.998Z</time></trkpt><trkpt lat="42.431220960270835" lon="11.643407545334304"><ele>92.0</ele><time>2026-04-30T09:32:02.998Z</time></trkpt><trkpt lat="42.43127402489254" lon="11.643730153159765"><ele>93.0</ele><time>2026-04-30T09:32:03.998Z</time></trkpt><trkpt lat="42.431332090128905" lon="11.644057901622048"><ele>94.0</ele><time>2026-04-30T09:32:04.998Z</time></trkpt><trkpt lat="42.43138610811192" lon="11.644389936177332"><ele>93.5</ele><time>2026-04-30T09:32:05.998Z</time></trkpt><trkpt lat="42.43143518731856" lon="11.64471703095351"><ele>93.0</ele><time>2026-04-30T09:32:06.998Z</time></trkpt><trkpt lat="42.431479224218144" lon="11.645021235573923"><ele>93.0</ele><time>2026-04-30T09:32:07.998Z</time></trkpt><trkpt lat="42.43151178000598" lon="11.6453297063796"><ele>93.0</ele><time>2026-04-30T09:32:08.998Z</time></trkpt><trkpt lat="42.43152564093859" lon="11.645643221331456"><ele>93.0</ele><time>2026-04-30T09:32:09.998Z</time></trkpt><trkpt lat="42.43152740159355" lon="11.645968189262385"><ele>93.0</ele><time>2026-04-30T09:32:10.998Z</time></trkpt><trkpt lat="42.43151823396381" lon="11.646272254497081"><ele>93.0</ele><time>2026-04-30T09:32:11.998Z</time></trkpt><trkpt lat="42.431519285651284" lon="11.64658666872684"><ele>93.0</ele><time>2026-04-30T09:32:12.998Z</time></trkpt><trkpt lat="42.43152305647175" lon="11.646894888841056"><ele>93.33333333333333</ele><time>2026-04-30T09:32:13.998Z</time></trkpt><trkpt lat="42.43151764408342" lon="11.647202170111846"><ele>93.66666666666666</ele><time>2026-04-30T09:32:14.998Z</time></trkpt><trkpt lat="42.43150895216608" lon="11.647490764532035"><ele>94.0</ele><time>2026-04-30T09:32:15.998Z</time></trkpt><trkpt lat="42.43149094421358" lon="11.647785723115213"><ele>94.0</ele><time>2026-04-30T09:32:16.998Z</time></trkpt><trkpt lat="42.431479690095635" lon="11.64807823070219"><ele>94.0</ele><time>2026-04-30T09:32:17.998Z</time></trkpt><trkpt lat="42.43146709618075" lon="11.648379590786124"><ele>94.0</ele><time>2026-04-30T09:32:18.998Z</time></trkpt><trkpt lat="42.43144610085375" lon="11.648662795127882"><ele>95.0</ele><time>2026-04-30T09:32:19.998Z</time></trkpt><trkpt lat="42.43143845650701" lon="11.648945019164591"><ele>96.0</ele><time>2026-04-30T09:32:20.998Z</time></trkpt><trkpt lat="42.43142553692396" lon="11.649218339372561"><ele>97.0</ele><time>2026-04-30T09:32:21.998Z</time></trkpt><trkpt lat="42.4314106738042" lon="11.649488796319702"><ele>97.66666666666667</ele><time>2026-04-30T09:32:22.998Z</time></trkpt><trkpt lat="42.431391234792365" lon="11.6497533155791"><ele>98.33333333333334</ele><time>2026-04-30T09:32:24Z</time></trkpt><trkpt lat="42.43137335557824" lon="11.650023232748925"><ele>99.0</ele><time>2026-04-30T09:32:25Z</time></trkpt><trkpt lat="42.43135751982937" lon="11.650291827790356"><ele>99.66666666666666</ele><time>2026-04-30T09:32:26Z</time></trkpt><trkpt lat="42.43134725538573" lon="11.650567051781069"><ele>100.33333333333333</ele><time>2026-04-30T09:32:27Z</time></trkpt><trkpt lat="42.4313301211646" lon="11.650842578079384"><ele>101.0</ele><time>2026-04-30T09:32:28Z</time></trkpt><trkpt lat="42.43131164936573" lon="11.651121365022355"><ele>101.0</ele><time>2026-04-30T09:32:29Z</time></trkpt><trkpt lat="42.43129544045956" lon="11.651403389560397"><ele>101.0</ele><time>2026-04-30T09:32:30Z</time></trkpt><trkpt lat="42.431284342792324" lon="11.651686651126392"><ele>101.0</ele><time>2026-04-30T09:32:31Z</time></trkpt><trkpt lat="42.431269475729664" lon="11.651968534252086"><ele>101.0</ele><time>2026-04-30T09:32:32Z</time></trkpt><trkpt lat="42.43125410921899" lon="11.65225438783649"><ele>101.0</ele><time>2026-04-30T09:32:33Z</time></trkpt><trkpt lat="42.43123763821153" lon="11.652539373173695"><ele>101.0</ele><time>2026-04-30T09:32:34Z</time></trkpt><trkpt lat="42.431219768130795" lon="11.652821232252439"><ele>101.0</ele><time>2026-04-30T09:32:35Z</time></trkpt><trkpt lat="42.43120391286923" lon="11.653107089054888"><ele>101.0</ele><time>2026-04-30T09:32:36Z</time></trkpt><trkpt lat="42.43119140139346" lon="11.653390074536045"><ele>101.0</ele><time>2026-04-30T09:32:37Z</time></trkpt><trkpt lat="42.431175800949426" lon="11.653667174041255"><ele>101.66666666666666</ele><time>2026-04-30T09:32:38Z</time></trkpt><trkpt lat="42.43116406752938" lon="11.653941176933296"><ele>102.33333333333334</ele><time>2026-04-30T09:32:39Z</time></trkpt><trkpt lat="42.43115113103346" lon="11.65421369529937"><ele>103.0</ele><time>2026-04-30T09:32:40Z</time></trkpt><trkpt lat="42.431138570941904" lon="11.65448837604554"><ele>103.0</ele><time>2026-04-30T09:32:41Z</time></trkpt><trkpt lat="42.43112360902057" lon="11.654758464146722"><ele>103.0</ele><time>2026-04-30T09:32:42Z</time></trkpt><trkpt lat="42.43110609994612" lon="11.65503584290344"><ele>103.0</ele><time>2026-04-30T09:32:43Z</time></trkpt><trkpt lat="42.43108853642588" lon="11.65531460911265"><ele>103.0</ele><time>2026-04-30T09:32:44Z</time></trkpt><trkpt lat="42.431074557450515" lon="11.655597527600168"><ele>103.0</ele><time>2026-04-30T09:32:45Z</time></trkpt><trkpt lat="42.43106143899108" lon="11.655880805763676"><ele>103.0</ele><time>2026-04-30T09:32:46Z</time></trkpt><trkpt lat="42.431047264128246" lon="11.656164041693632"><ele>103.0</ele><time>2026-04-30T09:32:47Z</time></trkpt><trkpt lat="42.431034083938194" lon="11.656446463623219"><ele>103.0</ele><time>2026-04-30T09:32:47.999Z</time></trkpt><trkpt lat="42.43101881706183" lon="11.656719729704568"><ele>103.0</ele><time>2026-04-30T09:32:48.999Z</time></trkpt><trkpt lat="42.43100409115868" lon="11.656985983771483"><ele>103.0</ele><time>2026-04-30T09:32:49.999Z</time></trkpt><trkpt lat="42.43099561780175" lon="11.657240717083527"><ele>103.0</ele><time>2026-04-30T09:32:50.999Z</time></trkpt><trkpt lat="42.43098623082694" lon="11.657481897546475"><ele>103.0</ele><time>2026-04-30T09:32:51.999Z</time></trkpt><trkpt lat="42.430974110839486" lon="11.657720070222762"><ele>102.66666666666667</ele><time>2026-04-30T09:32:52.999Z</time></trkpt><trkpt lat="42.43095809373362" lon="11.657959009478986"><ele>102.33333333333334</ele><time>2026-04-30T09:32:53.999Z</time></trkpt><trkpt lat="42.43094422623145" lon="11.658202351430567"><ele>102.0</ele><time>2026-04-30T09:32:54.999Z</time></trkpt><trkpt lat="42.43093312759904" lon="11.658448137251042"><ele>101.66666666666666</ele><time>2026-04-30T09:32:55.999Z</time></trkpt><trkpt lat="42.4309193981291" lon="11.65868570625845"><ele>101.33333333333333</ele><time>2026-04-30T09:32:56.999Z</time></trkpt><trkpt lat="42.43091070251911" lon="11.658923290424275"><ele>101.0</ele><time>2026-04-30T09:32:57.999Z</time></trkpt><trkpt lat="42.430899364188754" lon="11.65916155564621"><ele>101.0</ele><time>2026-04-30T09:32:58.999Z</time></trkpt><trkpt lat="42.43088930569269" lon="11.659401298240818"><ele>101.0</ele><time>2026-04-30T09:32:59.999Z</time></trkpt><trkpt lat="42.43087783555047" lon="11.659634610111302"><ele>101.0</ele><time>2026-04-30T09:33:00.999Z</time></trkpt><trkpt lat="42.43086089891058" lon="11.659865627398666"><ele>100.66666666666666</ele><time>2026-04-30T09:33:01.999Z</time></trkpt><trkpt lat="42.43084281641557" lon="11.660091569406354"><ele>100.33333333333334</ele><time>2026-04-30T09:33:02.999Z</time></trkpt><trkpt lat="42.430827980123446" lon="11.660310220247354"><ele>100.0</ele><time>2026-04-30T09:33:03.999Z</time></trkpt><trkpt lat="42.4308145479303" lon="11.660521810718409"><ele>100.0</ele><time>2026-04-30T09:33:04.999Z</time></trkpt><trkpt lat="42.4308064752506" lon="11.66072580698365"><ele>100.0</ele><time>2026-04-30T09:33:05.999Z</time></trkpt><trkpt lat="42.43079865706728" lon="11.66092125375134"><ele>100.0</ele><time>2026-04-30T09:33:06.999Z</time></trkpt><trkpt lat="42.43079021780613" lon="11.661100448810053"><ele>100.0</ele><time>2026-04-30T09:33:07.999Z</time></trkpt><trkpt lat="42.430781707478886" lon="11.661260913058179"><ele>100.00000000000001</ele><time>2026-04-30T09:33:08.999Z</time></trkpt><trkpt lat="42.43077547666607" lon="11.661401766772864"><ele>100.0</ele><time>2026-04-30T09:33:09.999Z</time></trkpt><trkpt lat="42.430769033498464" lon="11.661522993266733"><ele>100.0</ele><time>2026-04-30T09:33:10.999Z</time></trkpt><trkpt lat="42.43075893584253" lon="11.661614612191945"><ele>100.0</ele><time>2026-04-30T09:33:11.999Z</time></trkpt><trkpt lat="42.43073062967374" lon="11.66171983440901"><ele>100.00000000000001</ele><time>2026-04-30T09:33:13.999Z</time></trkpt><trkpt lat="42.430715175921875" lon="11.661816411471316"><ele>100.0</ele><time>2026-04-30T09:33:15.999Z</time></trkpt><trkpt lat="42.43082499715348" lon="11.661925451391571"><ele>100.0</ele><time>2026-04-30T09:33:17.999Z</time></trkpt><trkpt lat="42.430917142020256" lon="11.661939415566435"><ele>100.0</ele><time>2026-04-30T09:33:18.999Z</time></trkpt><trkpt lat="42.43102567096665" lon="11.661971410913772"><ele>100.0</ele><time>2026-04-30T09:33:19.999Z</time></trkpt><trkpt lat="42.43114813712419" lon="11.662028283729752"><ele>100.0</ele><time>2026-04-30T09:33:20.999Z</time></trkpt><trkpt lat="42.431267530047904" lon="11.662100861992194"><ele>100.0</ele><time>2026-04-30T09:33:21.999Z</time></trkpt><trkpt lat="42.43139746777336" lon="11.662192590611312"><ele>100.0</ele><time>2026-04-30T09:33:22.999Z</time></trkpt><trkpt lat="42.43153968739786" lon="11.66228874839318"><ele>100.0</ele><time>2026-04-30T09:33:23.999Z</time></trkpt><trkpt lat="42.43169589726834" lon="11.662388210443007"><ele>100.0</ele><time>2026-04-30T09:33:24.999Z</time></trkpt><trkpt lat="42.4318566699683" lon="11.66248165438001"><ele>100.0</ele><time>2026-04-30T09:33:25.999Z</time></trkpt><trkpt lat="42.432020430747095" lon="11.662572791115567"><ele>100.0</ele><time>2026-04-30T09:33:26.999Z</time></trkpt><trkpt lat="42.43219149335225" lon="11.662676750353906"><ele>100.0</ele><time>2026-04-30T09:33:27.999Z</time></trkpt><trkpt lat="42.432367485553144" lon="11.66278962388379"><ele>100.0</ele><time>2026-04-30T09:33:28.999Z</time></trkpt><trkpt lat="42.43255060663697" lon="11.66290424496699"><ele>100.0</ele><time>2026-04-30T09:33:29.999Z</time></trkpt><trkpt lat="42.43273789864911" lon="11.663019803427037"><ele>100.0</ele><time>2026-04-30T09:33:30.999Z</time></trkpt><trkpt lat="42.43292963506581" lon="11.663138499642743"><ele>100.0</ele><time>2026-04-30T09:33:31.999Z</time></trkpt><trkpt lat="42.43311833261106" lon="11.6632569173294"><ele>100.0</ele><time>2026-04-30T09:33:32.999Z</time></trkpt><trkpt lat="42.433303210164944" lon="11.663373367955584"><ele>101.66666666666667</ele><time>2026-04-30T09:33:33.999Z</time></trkpt><trkpt lat="42.43349111774177" lon="11.663492212873686"><ele>103.33333333333334</ele><time>2026-04-30T09:33:34.999Z</time></trkpt><trkpt lat="42.433680458954946" lon="11.66360835370484"><ele>105.0</ele><time>2026-04-30T09:33:35.999Z</time></trkpt><trkpt lat="42.43387171461863" lon="11.663724140466144"><ele>106.33333333333334</ele><time>2026-04-30T09:33:36.999Z</time></trkpt><trkpt lat="42.434063771275234" lon="11.663842460540787"><ele>107.66666666666667</ele><time>2026-04-30T09:33:37.999Z</time></trkpt><trkpt lat="42.43425341675202" lon="11.66396235592626"><ele>109.0</ele><time>2026-04-30T09:33:38.999Z</time></trkpt><trkpt lat="42.43444405366232" lon="11.66407846295572"><ele>109.0</ele><time>2026-04-30T09:33:39.999Z</time></trkpt><trkpt lat="42.434635789829926" lon="11.664197323571969"><ele>109.0</ele><time>2026-04-30T09:33:40.999Z</time></trkpt><trkpt lat="42.434829813157265" lon="11.664319279148938"><ele>109.0</ele><time>2026-04-30T09:33:41.999Z</time></trkpt><trkpt lat="42.43502560043802" lon="11.6644402273267"><ele>109.33333333333334</ele><time>2026-04-30T09:33:42.999Z</time></trkpt><trkpt lat="42.4352209938235" lon="11.66456406748663"><ele>109.66666666666666</ele><time>2026-04-30T09:33:43.999Z</time></trkpt><trkpt lat="42.43541974591164" lon="11.664686315835684"><ele>110.0</ele><time>2026-04-30T09:33:44.999Z</time></trkpt><trkpt lat="42.43562396792653" lon="11.66481173369717"><ele>110.5</ele><time>2026-04-30T09:33:45.999Z</time></trkpt><trkpt lat="42.43583219523848" lon="11.664942666255461"><ele>111.0</ele><time>2026-04-30T09:33:46.999Z</time></trkpt><trkpt lat="42.436043802246694" lon="11.665071284364117"><ele>111.0</ele><time>2026-04-30T09:33:47.999Z</time></trkpt><trkpt lat="42.43625681904151" lon="11.665202389390046"><ele>111.0</ele><time>2026-04-30T09:33:48.999Z</time></trkpt><trkpt lat="42.43647322686081" lon="11.665335552014696"><ele>111.0</ele><time>2026-04-30T09:33:49.999Z</time></trkpt><trkpt lat="42.43668843298938" lon="11.665469062273836"><ele>111.0</ele><time>2026-04-30T09:33:50.999Z</time></trkpt><trkpt lat="42.43690076362011" lon="11.665601514039171"><ele>111.0</ele><time>2026-04-30T09:33:51.999Z</time></trkpt><trkpt lat="42.437106336368444" lon="11.665729374667555"><ele>111.0</ele><time>2026-04-30T09:33:52.999Z</time></trkpt><trkpt lat="42.43730926254441" lon="11.665855905964397"><ele>111.33333333333334</ele><time>2026-04-30T09:33:53.999Z</time></trkpt><trkpt lat="42.43751227305073" lon="11.665984988842057"><ele>111.66666666666667</ele><time>2026-04-30T09:33:54.999Z</time></trkpt><trkpt lat="42.43771699961056" lon="11.666111399439636"><ele>112.0</ele><time>2026-04-30T09:33:55.999Z</time></trkpt><trkpt lat="42.43792303299222" lon="11.666236645828782"><ele>111.0</ele><time>2026-04-30T09:33:56.999Z</time></trkpt><trkpt lat="42.43813204039685" lon="11.666362130193793"><ele>110.0</ele><time>2026-04-30T09:33:57.999Z</time></trkpt><trkpt lat="42.43834363526584" lon="11.666491313511138"><ele>110.0</ele><time>2026-04-30T09:33:58.999Z</time></trkpt><trkpt lat="42.43855664681392" lon="11.666622577765072"><ele>110.0</ele><time>2026-04-30T09:33:59.999Z</time></trkpt><trkpt lat="42.43877005198456" lon="11.666757882383562"><ele>111.5</ele><time>2026-04-30T09:34:00.999Z</time></trkpt><trkpt lat="42.438982864491294" lon="11.666893996372954"><ele>113.0</ele><time>2026-04-30T09:34:01.999Z</time></trkpt><trkpt lat="42.43919949084587" lon="11.667027459688516"><ele>113.0</ele><time>2026-04-30T09:34:02.998Z</time></trkpt><trkpt lat="42.43941709705456" lon="11.667160769185829"><ele>113.0</ele><time>2026-04-30T09:34:03.998Z</time></trkpt><trkpt lat="42.43963534455387" lon="11.667298757843833"><ele>112.5</ele><time>2026-04-30T09:34:04.998Z</time></trkpt><trkpt lat="42.43985650678382" lon="11.667435048878032"><ele>112.0</ele><time>2026-04-30T09:34:05.998Z</time></trkpt><trkpt lat="42.44008260228333" lon="11.667574826970242"><ele>112.0</ele><time>2026-04-30T09:34:06.998Z</time></trkpt><trkpt lat="42.44031119286907" lon="11.667715833620642"><ele>112.0</ele><time>2026-04-30T09:34:07.998Z</time></trkpt><trkpt lat="42.44054234163712" lon="11.667860385286403"><ele>112.0</ele><time>2026-04-30T09:34:08.998Z</time></trkpt><trkpt lat="42.440776957801056" lon="11.668004486121553"><ele>112.0</ele><time>2026-04-30T09:34:09.998Z</time></trkpt><trkpt lat="42.44101313809696" lon="11.668151046964129"><ele>112.0</ele><time>2026-04-30T09:34:10.998Z</time></trkpt><trkpt lat="42.44124915073419" lon="11.668296428120057"><ele>112.0</ele><time>2026-04-30T09:34:11.998Z</time></trkpt><trkpt lat="42.44148774916742" lon="11.668443770938921"><ele>112.0</ele><time>2026-04-30T09:34:12.998Z</time></trkpt><trkpt lat="42.44172822624662" lon="11.668588639384303"><ele>112.0</ele><time>2026-04-30T09:34:13.998Z</time></trkpt><trkpt lat="42.44196976176727" lon="11.668737876857339"><ele>112.5</ele><time>2026-04-30T09:34:14.998Z</time></trkpt><trkpt lat="42.44221201405577" lon="11.66889339322888"><ele>113.0</ele><time>2026-04-30T09:34:15.998Z</time></trkpt><trkpt lat="42.442458539476696" lon="11.669046508393969"><ele>113.0</ele><time>2026-04-30T09:34:16.998Z</time></trkpt><trkpt lat="42.44270889554999" lon="11.669199014514367"><ele>113.0</ele><time>2026-04-30T09:34:17.998Z</time></trkpt><trkpt lat="42.44296096014951" lon="11.669356054067222"><ele>113.5</ele><time>2026-04-30T09:34:18.998Z</time></trkpt><trkpt lat="42.4432134063242" lon="11.669510952179632"><ele>114.0</ele><time>2026-04-30T09:34:19.998Z</time></trkpt><trkpt lat="42.44346971742409" lon="11.669669052589283"><ele>114.0</ele><time>2026-04-30T09:34:20.998Z</time></trkpt><trkpt lat="42.44372609065893" lon="11.669827368696836"><ele>114.0</ele><time>2026-04-30T09:34:21.998Z</time></trkpt><trkpt lat="42.44398406350954" lon="11.669984895893117"><ele>114.0</ele><time>2026-04-30T09:34:22.998Z</time></trkpt><trkpt lat="42.44424197656808" lon="11.670140698789922"><ele>114.0</ele><time>2026-04-30T09:34:23.998Z</time></trkpt><trkpt lat="42.44449824542095" lon="11.670295550976949"><ele>115.5</ele><time>2026-04-30T09:34:24.998Z</time></trkpt><trkpt lat="42.44475389479028" lon="11.670450101305649"><ele>117.0</ele><time>2026-04-30T09:34:25.998Z</time></trkpt><trkpt lat="42.44500708276166" lon="11.670610761997294"><ele>117.0</ele><time>2026-04-30T09:34:26.998Z</time></trkpt><trkpt lat="42.445258800889825" lon="11.67076447130091"><ele>117.0</ele><time>2026-04-30T09:34:27.998Z</time></trkpt><trkpt lat="42.44550871840875" lon="11.670916116031572"><ele>117.0</ele><time>2026-04-30T09:34:28.998Z</time></trkpt><trkpt lat="42.44575733609205" lon="11.671070083538861"><ele>117.0</ele><time>2026-04-30T09:34:30Z</time></trkpt><trkpt lat="42.446003726700376" lon="11.671220728033207"><ele>116.0</ele><time>2026-04-30T09:34:31Z</time></trkpt><trkpt lat="42.44624897639002" lon="11.671373283668569"><ele>115.0</ele><time>2026-04-30T09:34:32Z</time></trkpt><trkpt lat="42.446495389973606" lon="11.671530139504307"><ele>115.0</ele><time>2026-04-30T09:34:33Z</time></trkpt><trkpt lat="42.44674373710843" lon="11.671682125550873"><ele>115.0</ele><time>2026-04-30T09:34:34Z</time></trkpt><trkpt lat="42.44699151792197" lon="11.671830274506233"><ele>116.0</ele><time>2026-04-30T09:34:35Z</time></trkpt><trkpt lat="42.44723593721191" lon="11.671982840840538"><ele>117.0</ele><time>2026-04-30T09:34:36Z</time></trkpt><trkpt lat="42.447477215939955" lon="11.672136970600839"><ele>117.0</ele><time>2026-04-30T09:34:37Z</time></trkpt><trkpt lat="42.447717302467716" lon="11.67228921983168"><ele>117.0</ele><time>2026-04-30T09:34:38Z</time></trkpt><trkpt lat="42.44795227723694" lon="11.672439649032915"><ele>117.0</ele><time>2026-04-30T09:34:39Z</time></trkpt><trkpt lat="42.44818638822651" lon="11.672587229173885"><ele>117.0</ele><time>2026-04-30T09:34:40Z</time></trkpt><trkpt lat="42.448420494421214" lon="11.672733785222404"><ele>116.5</ele><time>2026-04-30T09:34:41Z</time></trkpt><trkpt lat="42.44865528593237" lon="11.672881279600354"><ele>116.0</ele><time>2026-04-30T09:34:42Z</time></trkpt><trkpt lat="42.4488851613538" lon="11.673028893714283"><ele>118.0</ele><time>2026-04-30T09:34:43Z</time></trkpt><trkpt lat="42.44911575861746" lon="11.67317115175178"><ele>120.0</ele><time>2026-04-30T09:34:44Z</time></trkpt><trkpt lat="42.44934795570893" lon="11.673310508329282"><ele>120.0</ele><time>2026-04-30T09:34:45Z</time></trkpt><trkpt lat="42.44957655444389" lon="11.673445200480122"><ele>120.0</ele><time>2026-04-30T09:34:46Z</time></trkpt><trkpt lat="42.449788388187294" lon="11.673573684485538"><ele>119.33333333333334</ele><time>2026-04-30T09:34:47Z</time></trkpt><trkpt lat="42.44998310970535" lon="11.673700756991357"><ele>118.66666666666667</ele><time>2026-04-30T09:34:48Z</time></trkpt><trkpt lat="42.45016515202741" lon="11.673819147336234"><ele>118.0</ele><time>2026-04-30T09:34:49Z</time></trkpt><trkpt lat="42.45033944915047" lon="11.673928351721553"><ele>118.33333333333334</ele><time>2026-04-30T09:34:50Z</time></trkpt><trkpt lat="42.4505069223303" lon="11.674027418488539"><ele>118.66666666666666</ele><time>2026-04-30T09:34:51Z</time></trkpt><trkpt lat="42.45068000307751" lon="11.674135194796532"><ele>119.0</ele><time>2026-04-30T09:34:52Z</time></trkpt><trkpt lat="42.450859443797164" lon="11.674251674115768"><ele>119.0</ele><time>2026-04-30T09:34:53Z</time></trkpt><trkpt lat="42.45104266825516" lon="11.674369140484531"><ele>119.0</ele><time>2026-04-30T09:34:54Z</time></trkpt><trkpt lat="42.45123241759802" lon="11.674485532339787"><ele>119.0</ele><time>2026-04-30T09:34:55Z</time></trkpt><trkpt lat="42.45142888572899" lon="11.67460067250525"><ele>120.5</ele><time>2026-04-30T09:34:56Z</time></trkpt><trkpt lat="42.451633934697284" lon="11.674721376988822"><ele>122.0</ele><time>2026-04-30T09:34:57Z</time></trkpt><trkpt lat="42.451839999046435" lon="11.674847718850133"><ele>122.0</ele><time>2026-04-30T09:34:58Z</time></trkpt><trkpt lat="42.45204845224499" lon="11.674975526847188"><ele>122.0</ele><time>2026-04-30T09:34:59Z</time></trkpt><trkpt lat="42.45225810365451" lon="11.675106694809092"><ele>122.5</ele><time>2026-04-30T09:35:00Z</time></trkpt><trkpt lat="42.45247059973753" lon="11.675240724895561"><ele>123.0</ele><time>2026-04-30T09:35:01Z</time></trkpt><trkpt lat="42.452684714807944" lon="11.675377123893778"><ele>122.0</ele><time>2026-04-30T09:35:02Z</time></trkpt><trkpt lat="42.452900239304675" lon="11.675509689574094"><ele>121.0</ele><time>2026-04-30T09:35:03Z</time></trkpt><trkpt lat="42.45312124823956" lon="11.675643499272967"><ele>121.0</ele><time>2026-04-30T09:35:04Z</time></trkpt><trkpt lat="42.45334120466802" lon="11.67578274050637"><ele>121.0</ele><time>2026-04-30T09:35:05Z</time></trkpt><trkpt lat="42.45356120833379" lon="11.675928444550895"><ele>121.0</ele><time>2026-04-30T09:35:06Z</time></trkpt><trkpt lat="42.45378224480066" lon="11.676070786943344"><ele>121.0</ele><time>2026-04-30T09:35:07Z</time></trkpt><trkpt lat="42.45400646533457" lon="11.676207753971607"><ele>123.0</ele><time>2026-04-30T09:35:08Z</time></trkpt><trkpt lat="42.45423242042821" lon="11.676346275277657"><ele>125.0</ele><time>2026-04-30T09:35:09Z</time></trkpt><trkpt lat="42.45445775716709" lon="11.676485071442952"><ele>125.5</ele><time>2026-04-30T09:35:10Z</time></trkpt><trkpt lat="42.45468238435114" lon="11.676627614807014"><ele>126.0</ele><time>2026-04-30T09:35:11Z</time></trkpt><trkpt lat="42.45490862422249" lon="11.676770316428478"><ele>126.0</ele><time>2026-04-30T09:35:12Z</time></trkpt><trkpt lat="42.45513405532374" lon="11.67691065088248"><ele>126.0</ele><time>2026-04-30T09:35:13Z</time></trkpt><trkpt lat="42.455361203891655" lon="11.677048566521675"><ele>128.0</ele><time>2026-04-30T09:35:14Z</time></trkpt><trkpt lat="42.45559022641043" lon="11.677186790668319"><ele>130.0</ele><time>2026-04-30T09:35:15Z</time></trkpt><trkpt lat="42.455819364697" lon="11.677329446842336"><ele>130.0</ele><time>2026-04-30T09:35:16Z</time></trkpt><trkpt lat="42.456047995097414" lon="11.677472356306401"><ele>130.0</ele><time>2026-04-30T09:35:17Z</time></trkpt><trkpt lat="42.45627786318222" lon="11.67761316153466"><ele>132.0</ele><time>2026-04-30T09:35:18Z</time></trkpt><trkpt lat="42.456506484616064" lon="11.677755471779644"><ele>134.0</ele><time>2026-04-30T09:35:19Z</time></trkpt><trkpt lat="42.45673310838789" lon="11.677897584915693"><ele>135.0</ele><time>2026-04-30T09:35:20Z</time></trkpt><trkpt lat="42.4569625901019" lon="11.67803772565115"><ele>136.0</ele><time>2026-04-30T09:35:20.999Z</time></trkpt><trkpt lat="42.457189346237215" lon="11.678170992678607"><ele>137.5</ele><time>2026-04-30T09:35:21.999Z</time></trkpt><trkpt lat="42.45741372603586" lon="11.678309099397783"><ele>139.0</ele><time>2026-04-30T09:35:22.999Z</time></trkpt><trkpt lat="42.457635380388375" lon="11.678448093476138"><ele>139.0</ele><time>2026-04-30T09:35:23.999Z</time></trkpt><trkpt lat="42.45785611785225" lon="11.67858785206646"><ele>139.0</ele><time>2026-04-30T09:35:24.999Z</time></trkpt><trkpt lat="42.45807499190102" lon="11.678724066378686"><ele>143.0</ele><time>2026-04-30T09:35:25.999Z</time></trkpt><trkpt lat="42.458289372037136" lon="11.678855004446017"><ele>147.0</ele><time>2026-04-30T09:35:26.999Z</time></trkpt><trkpt lat="42.458499244544996" lon="11.678976495420832"><ele>147.0</ele><time>2026-04-30T09:35:27.999Z</time></trkpt><trkpt lat="42.458712014792475" lon="11.679082425859322"><ele>147.0</ele><time>2026-04-30T09:35:28.999Z</time></trkpt><trkpt lat="42.458935561490506" lon="11.679170050356339"><ele>150.0</ele><time>2026-04-30T09:35:29.999Z</time></trkpt><trkpt lat="42.459158626545225" lon="11.679253781123819"><ele>153.0</ele><time>2026-04-30T09:35:30.999Z</time></trkpt><trkpt lat="42.45938732750143" lon="11.6793395711271"><ele>154.5</ele><time>2026-04-30T09:35:31.999Z</time></trkpt><trkpt lat="42.45961774411632" lon="11.679427388768016"><ele>156.0</ele><time>2026-04-30T09:35:32.999Z</time></trkpt><trkpt lat="42.45984844854761" lon="11.679517746200956"><ele>157.0</ele><time>2026-04-30T09:35:33.999Z</time></trkpt><trkpt lat="42.460076552674046" lon="11.679610533054984"><ele>158.0</ele><time>2026-04-30T09:35:34.999Z</time></trkpt><trkpt lat="42.46030643165935" lon="11.67969535283844"><ele>159.5</ele><time>2026-04-30T09:35:35.999Z</time></trkpt><trkpt lat="42.460535762396596" lon="11.679780542594795"><ele>161.0</ele><time>2026-04-30T09:35:36.999Z</time></trkpt><trkpt lat="42.46076597786569" lon="11.679866837717364"><ele>161.0</ele><time>2026-04-30T09:35:37.999Z</time></trkpt><trkpt lat="42.46099698882881" lon="11.679955239938757"><ele>161.0</ele><time>2026-04-30T09:35:38.999Z</time></trkpt><trkpt lat="42.46123070287717" lon="11.680044124705901"><ele>162.5</ele><time>2026-04-30T09:35:39.999Z</time></trkpt><trkpt lat="42.46146537239791" lon="11.680130337992333"><ele>164.0</ele><time>2026-04-30T09:35:40.999Z</time></trkpt><trkpt lat="42.461701337809345" lon="11.680219677778707"><ele>165.0</ele><time>2026-04-30T09:35:41.999Z</time></trkpt><trkpt lat="42.461930034476175" lon="11.680310291745176"><ele>166.0</ele><time>2026-04-30T09:35:42.999Z</time></trkpt><trkpt lat="42.46216338684187" lon="11.68039562204899"><ele>169.0</ele><time>2026-04-30T09:35:43.999Z</time></trkpt><trkpt lat="42.4624100470273" lon="11.680485049850304"><ele>172.0</ele><time>2026-04-30T09:35:44.999Z</time></trkpt><trkpt lat="42.46264748143146" lon="11.680574700859484"><ele>172.0</ele><time>2026-04-30T09:35:45.999Z</time></trkpt><trkpt lat="42.46288457905831" lon="11.680661107427337"><ele>172.0</ele><time>2026-04-30T09:35:46.999Z</time></trkpt><trkpt lat="42.463124031133724" lon="11.680745777084443"><ele>173.5</ele><time>2026-04-30T09:35:47.999Z</time></trkpt><trkpt lat="42.46336376590656" lon="11.680834421090447"><ele>175.0</ele><time>2026-04-30T09:35:48.999Z</time></trkpt><trkpt lat="42.46360038328979" lon="11.68092163108104"><ele>176.0</ele><time>2026-04-30T09:35:49.999Z</time></trkpt><trkpt lat="42.46384073366884" lon="11.681019753941628"><ele>177.0</ele><time>2026-04-30T09:35:50.999Z</time></trkpt><trkpt lat="42.4640711780367" lon="11.681107554318766"><ele>179.0</ele><time>2026-04-30T09:35:51.999Z</time></trkpt><trkpt lat="42.464298290942374" lon="11.681201227398049"><ele>181.0</ele><time>2026-04-30T09:35:52.999Z</time></trkpt><trkpt lat="42.46452261421957" lon="11.681280783942736"><ele>183.0</ele><time>2026-04-30T09:35:53.999Z</time></trkpt><trkpt lat="42.464736032323124" lon="11.681393782260605"><ele>185.0</ele><time>2026-04-30T09:35:54.999Z</time></trkpt><trkpt lat="42.46494844055839" lon="11.681488190694925"><ele>185.0</ele><time>2026-04-30T09:35:55.999Z</time></trkpt><trkpt lat="42.465171436287" lon="11.68157152559202"><ele>185.0</ele><time>2026-04-30T09:35:56.999Z</time></trkpt><trkpt lat="42.46538951233484" lon="11.681672269394285"><ele>186.5</ele><time>2026-04-30T09:35:57.999Z</time></trkpt><trkpt lat="42.46560896334758" lon="11.681769185757222"><ele>188.0</ele><time>2026-04-30T09:35:58.999Z</time></trkpt><trkpt lat="42.46582987636499" lon="11.681859031821546"><ele>190.5</ele><time>2026-04-30T09:35:59.999Z</time></trkpt><trkpt lat="42.46605079810791" lon="11.681949513918651"><ele>193.0</ele><time>2026-04-30T09:36:00.999Z</time></trkpt><trkpt lat="42.46627651437387" lon="11.68204417739412"><ele>193.5</ele><time>2026-04-30T09:36:01.999Z</time></trkpt><trkpt lat="42.4664926598068" lon="11.682161736396854"><ele>194.0</ele><time>2026-04-30T09:36:02.999Z</time></trkpt><trkpt lat="42.46672220737602" lon="11.682240192834787"><ele>194.0</ele><time>2026-04-30T09:36:03.999Z</time></trkpt><trkpt lat="42.46694848290685" lon="11.682344593135927"><ele>194.0</ele><time>2026-04-30T09:36:04.999Z</time></trkpt><trkpt lat="42.46717165739141" lon="11.682446397052868"><ele>195.5</ele><time>2026-04-30T09:36:05.999Z</time></trkpt><trkpt lat="42.467404384345116" lon="11.682545889620704"><ele>197.0</ele><time>2026-04-30T09:36:06.999Z</time></trkpt><trkpt lat="42.467632755805354" lon="11.68263267019961"><ele>197.0</ele><time>2026-04-30T09:36:07.999Z</time></trkpt><trkpt lat="42.46785604999709" lon="11.682749568487445"><ele>197.0</ele><time>2026-04-30T09:36:08.999Z</time></trkpt><trkpt lat="42.4680855458612" lon="11.682848732504864"><ele>200.5</ele><time>2026-04-30T09:36:09.999Z</time></trkpt><trkpt lat="42.46831576696751" lon="11.682947062411836"><ele>204.0</ele><time>2026-04-30T09:36:10.999Z</time></trkpt><trkpt lat="42.46855090577628" lon="11.68302319975056"><ele>205.5</ele><time>2026-04-30T09:36:11.999Z</time></trkpt><trkpt lat="42.46878070622696" lon="11.683128295120744"><ele>207.0</ele><time>2026-04-30T09:36:12.999Z</time></trkpt><trkpt lat="42.46900748431977" lon="11.683229090553441"><ele>207.0</ele><time>2026-04-30T09:36:13.999Z</time></trkpt><trkpt lat="42.46923524339104" lon="11.683336280519935"><ele>207.0</ele><time>2026-04-30T09:36:14.999Z</time></trkpt><trkpt lat="42.469461075489356" lon="11.683448167610578"><ele>207.0</ele><time>2026-04-30T09:36:15.999Z</time></trkpt><trkpt lat="42.4696894074569" lon="11.68357056154141"><ele>207.0</ele><time>2026-04-30T09:36:16.999Z</time></trkpt><trkpt lat="42.46991290421751" lon="11.683701573653304"><ele>209.0</ele><time>2026-04-30T09:36:17.999Z</time></trkpt><trkpt lat="42.47013441818098" lon="11.683834620850051"><ele>211.0</ele><time>2026-04-30T09:36:18.999Z</time></trkpt><trkpt lat="42.47035431970536" lon="11.68396581648713"><ele>212.0</ele><time>2026-04-30T09:36:19.999Z</time></trkpt><trkpt lat="42.47057130344317" lon="11.684090055376018"><ele>213.0</ele><time>2026-04-30T09:36:20.999Z</time></trkpt><trkpt lat="42.47077754571066" lon="11.684233890897234"><ele>213.0</ele><time>2026-04-30T09:36:21.999Z</time></trkpt><trkpt lat="42.47099389268219" lon="11.684340621915648"><ele>213.0</ele><time>2026-04-30T09:36:22.999Z</time></trkpt><trkpt lat="42.471198596224504" lon="11.684464767842766"><ele>215.66666666666669</ele><time>2026-04-30T09:36:23.999Z</time></trkpt><trkpt lat="42.4714010808431" lon="11.684584859461026"><ele>218.33333333333334</ele><time>2026-04-30T09:36:24.999Z</time></trkpt><trkpt lat="42.47159784076171" lon="11.684703852735412"><ele>221.0</ele><time>2026-04-30T09:36:25.999Z</time></trkpt><trkpt lat="42.4717924510345" lon="11.684816038943184"><ele>221.0</ele><time>2026-04-30T09:36:26.999Z</time></trkpt><trkpt lat="42.47198511438657" lon="11.684930601972464"><ele>221.0</ele><time>2026-04-30T09:36:27.999Z</time></trkpt><trkpt lat="42.472172338139416" lon="11.685054607692582"><ele>221.0</ele><time>2026-04-30T09:36:28.999Z</time></trkpt><trkpt lat="42.472349965385355" lon="11.685201670882075"><ele>223.0</ele><time>2026-04-30T09:36:29.999Z</time></trkpt><trkpt lat="42.47251331982776" lon="11.685370066904564"><ele>225.0</ele><time>2026-04-30T09:36:30.998Z</time></trkpt><trkpt lat="42.472663817630234" lon="11.685560187279448"><ele>227.0</ele><time>2026-04-30T09:36:31.998Z</time></trkpt><trkpt lat="42.472806210611175" lon="11.68576580194094"><ele>227.0</ele><time>2026-04-30T09:36:32.998Z</time></trkpt><trkpt lat="42.47294032327011" lon="11.685982286583867"><ele>227.0</ele><time>2026-04-30T09:36:33.998Z</time></trkpt><trkpt lat="42.473067408251715" lon="11.686210554689948"><ele>227.0</ele><time>2026-04-30T09:36:34.998Z</time></trkpt><trkpt lat="42.473195574255556" lon="11.686438749909291"><ele>227.66666666666669</ele><time>2026-04-30T09:36:36Z</time></trkpt><trkpt lat="42.47333030998306" lon="11.68665851682957"><ele>228.33333333333331</ele><time>2026-04-30T09:36:37Z</time></trkpt><trkpt lat="42.473466792184205" lon="11.686878129828344"><ele>229.0</ele><time>2026-04-30T09:36:38Z</time></trkpt><trkpt lat="42.47360166053617" lon="11.687092551267899"><ele>229.33333333333331</ele><time>2026-04-30T09:36:39Z</time></trkpt><trkpt lat="42.473733501608805" lon="11.687304064893814"><ele>229.66666666666669</ele><time>2026-04-30T09:36:40Z</time></trkpt><trkpt lat="42.47386234656706" lon="11.687521250311056"><ele>230.0</ele><time>2026-04-30T09:36:41Z</time></trkpt><trkpt lat="42.473986347994554" lon="11.687739832377385"><ele>231.0</ele><time>2026-04-30T09:36:42Z</time></trkpt><trkpt lat="42.474114635151345" lon="11.687955296107795"><ele>232.0</ele><time>2026-04-30T09:36:43Z</time></trkpt><trkpt lat="42.474246107363214" lon="11.688166652205302"><ele>233.0</ele><time>2026-04-30T09:36:44Z</time></trkpt><trkpt lat="42.47437506222405" lon="11.68837671352227"><ele>233.0</ele><time>2026-04-30T09:36:45Z</time></trkpt><trkpt lat="42.47450399085415" lon="11.688589400426292"><ele>233.0</ele><time>2026-04-30T09:36:46Z</time></trkpt><trkpt lat="42.47463554401124" lon="11.688798963568862"><ele>233.0</ele><time>2026-04-30T09:36:47Z</time></trkpt><trkpt lat="42.47477211947541" lon="11.689008142970756"><ele>234.33333333333334</ele><time>2026-04-30T09:36:48Z</time></trkpt><trkpt lat="42.47491058060833" lon="11.689213562394485"><ele>235.66666666666669</ele><time>2026-04-30T09:36:49Z</time></trkpt><trkpt lat="42.47505242525446" lon="11.689419098967827"><ele>237.0</ele><time>2026-04-30T09:36:50Z</time></trkpt><trkpt lat="42.47519910949598" lon="11.689620338557944"><ele>237.66666666666669</ele><time>2026-04-30T09:36:51Z</time></trkpt><trkpt lat="42.475348264701715" lon="11.689823176028368"><ele>238.33333333333334</ele><time>2026-04-30T09:36:52Z</time></trkpt><trkpt lat="42.47550333475026" lon="11.690032713327872"><ele>239.0</ele><time>2026-04-30T09:36:53Z</time></trkpt><trkpt lat="42.47566456879038" lon="11.690249966361296"><ele>240.5</ele><time>2026-04-30T09:36:54Z</time></trkpt><trkpt lat="42.47583248177693" lon="11.69047208917358"><ele>242.0</ele><time>2026-04-30T09:36:55Z</time></trkpt><trkpt lat="42.476002965249265" lon="11.69069887146117"><ele>242.0</ele><time>2026-04-30T09:36:56Z</time></trkpt><trkpt lat="42.47617664307872" lon="11.69093135150352"><ele>242.0</ele><time>2026-04-30T09:36:57Z</time></trkpt><trkpt lat="42.476351964637914" lon="11.691171953996063"><ele>243.5</ele><time>2026-04-30T09:36:58Z</time></trkpt><trkpt lat="42.47652654152003" lon="11.69141726219677"><ele>245.0</ele><time>2026-04-30T09:36:59Z</time></trkpt><trkpt lat="42.476703441832086" lon="11.691664765632071"><ele>245.0</ele><time>2026-04-30T09:37:00Z</time></trkpt><trkpt lat="42.47688176104608" lon="11.691911389796095"><ele>245.0</ele><time>2026-04-30T09:37:01Z</time></trkpt><trkpt lat="42.477056486406106" lon="11.692160661800264"><ele>245.5</ele><time>2026-04-30T09:37:02Z</time></trkpt><trkpt lat="42.4772260316246" lon="11.69241221455972"><ele>246.0</ele><time>2026-04-30T09:37:03Z</time></trkpt><trkpt lat="42.4773931963005" lon="11.692663877297392"><ele>245.5</ele><time>2026-04-30T09:37:04Z</time></trkpt><trkpt lat="42.47756193358154" lon="11.692911696858111"><ele>245.0</ele><time>2026-04-30T09:37:05Z</time></trkpt><trkpt lat="42.477737325646416" lon="11.69314880510366"><ele>245.0</ele><time>2026-04-30T09:37:06Z</time></trkpt><trkpt lat="42.477909542481314" lon="11.693381577901542"><ele>245.0</ele><time>2026-04-30T09:37:07Z</time></trkpt><trkpt lat="42.47808320401553" lon="11.693617997378022"><ele>246.5</ele><time>2026-04-30T09:37:08Z</time></trkpt><trkpt lat="42.478254387391154" lon="11.69385537533377"><ele>248.0</ele><time>2026-04-30T09:37:09Z</time></trkpt><trkpt lat="42.47842480328482" lon="11.69409632783235"><ele>248.0</ele><time>2026-04-30T09:37:10Z</time></trkpt><trkpt lat="42.47859554391744" lon="11.694334773879365"><ele>248.0</ele><time>2026-04-30T09:37:11Z</time></trkpt><trkpt lat="42.47876833230024" lon="11.694571859003853"><ele>250.5</ele><time>2026-04-30T09:37:12Z</time></trkpt><trkpt lat="42.4789255595099" lon="11.694821618180354"><ele>253.0</ele><time>2026-04-30T09:37:13Z</time></trkpt><trkpt lat="42.47909071545836" lon="11.695054726758517"><ele>253.0</ele><time>2026-04-30T09:37:14Z</time></trkpt><trkpt lat="42.47925588491068" lon="11.695284172931764"><ele>253.0</ele><time>2026-04-30T09:37:15Z</time></trkpt><trkpt lat="42.47941860109551" lon="11.695506635699505"><ele>253.0</ele><time>2026-04-30T09:37:16Z</time></trkpt><trkpt lat="42.47957607458527" lon="11.695722763624532"><ele>253.0</ele><time>2026-04-30T09:37:17Z</time></trkpt><trkpt lat="42.47973244082242" lon="11.695938662669786"><ele>253.0</ele><time>2026-04-30T09:37:18Z</time></trkpt><trkpt lat="42.47988615255561" lon="11.696151920609816"><ele>252.66666666666666</ele><time>2026-04-30T09:37:19Z</time></trkpt><trkpt lat="42.48003864417192" lon="11.696363485634906"><ele>252.33333333333331</ele><time>2026-04-30T09:37:20Z</time></trkpt><trkpt lat="42.48019103955569" lon="11.696574970917965"><ele>252.0</ele><time>2026-04-30T09:37:21Z</time></trkpt><trkpt lat="42.48035365349297" lon="11.69677957092883"><ele>254.0</ele><time>2026-04-30T09:37:22Z</time></trkpt><trkpt lat="42.48050361088567" lon="11.697006883643224"><ele>256.0</ele><time>2026-04-30T09:37:23Z</time></trkpt><trkpt lat="42.48065085097319" lon="11.697239612414457"><ele>256.0</ele><time>2026-04-30T09:37:24Z</time></trkpt><trkpt lat="42.480796879070205" lon="11.69747565739586"><ele>256.0</ele><time>2026-04-30T09:37:25Z</time></trkpt><trkpt lat="42.48094038714354" lon="11.69771249784395"><ele>254.5</ele><time>2026-04-30T09:37:26Z</time></trkpt><trkpt lat="42.48108242898012" lon="11.697951976739976"><ele>253.0</ele><time>2026-04-30T09:37:27Z</time></trkpt><trkpt lat="42.48122137121174" lon="11.69818934694761"><ele>253.66666666666666</ele><time>2026-04-30T09:37:27.999Z</time></trkpt><trkpt lat="42.481362057544956" lon="11.698422639113247"><ele>254.33333333333331</ele><time>2026-04-30T09:37:28.999Z</time></trkpt><trkpt lat="42.481503814224766" lon="11.698657411519132"><ele>255.0</ele><time>2026-04-30T09:37:29.999Z</time></trkpt><trkpt lat="42.48164639392921" lon="11.698893137146813"><ele>255.33333333333331</ele><time>2026-04-30T09:37:30.999Z</time></trkpt><trkpt lat="42.481788001508654" lon="11.699127447495298"><ele>255.66666666666666</ele><time>2026-04-30T09:37:31.999Z</time></trkpt><trkpt lat="42.481930361557815" lon="11.699355948672958"><ele>256.0</ele><time>2026-04-30T09:37:32.999Z</time></trkpt><trkpt lat="42.48205614123614" lon="11.699596598424117"><ele>256.3333333333333</ele><time>2026-04-30T09:37:33.999Z</time></trkpt><trkpt lat="42.482191295649095" lon="11.699820695802869"><ele>256.6666666666667</ele><time>2026-04-30T09:37:34.999Z</time></trkpt><trkpt lat="42.482319834047985" lon="11.700036514387428"><ele>257.0</ele><time>2026-04-30T09:37:35.999Z</time></trkpt><trkpt lat="42.48245479835874" lon="11.700239023048848"><ele>256.6666666666667</ele><time>2026-04-30T09:37:36.999Z</time></trkpt><trkpt lat="42.482567521738694" lon="11.700465732753539"><ele>256.3333333333333</ele><time>2026-04-30T09:37:37.999Z</time></trkpt><trkpt lat="42.48267340769839" lon="11.70069935680112"><ele>256.0</ele><time>2026-04-30T09:37:38.999Z</time></trkpt><trkpt lat="42.48276587013936" lon="11.700931521689203"><ele>255.66666666666666</ele><time>2026-04-30T09:37:39.999Z</time></trkpt><trkpt lat="42.48284687865767" lon="11.701156412222526"><ele>255.33333333333331</ele><time>2026-04-30T09:37:40.999Z</time></trkpt><trkpt lat="42.48292170345258" lon="11.701371917799738"><ele>255.0</ele><time>2026-04-30T09:37:41.999Z</time></trkpt><trkpt lat="42.48297286905754" lon="11.70158881961908"><ele>255.25</ele><time>2026-04-30T09:37:42.999Z</time></trkpt><trkpt lat="42.48303588396279" lon="11.701787394164425"><ele>255.5</ele><time>2026-04-30T09:37:43.999Z</time></trkpt><trkpt lat="42.483095046322674" lon="11.701973828882307"><ele>255.75</ele><time>2026-04-30T09:37:44.999Z</time></trkpt><trkpt lat="42.48316025051475" lon="11.702129130883316"><ele>256.0</ele><time>2026-04-30T09:37:45.999Z</time></trkpt><trkpt lat="42.48320724975715" lon="11.702273321926453"><ele>255.99999999999997</ele><time>2026-04-30T09:37:46.999Z</time></trkpt><trkpt lat="42.483226550392494" lon="11.702392804311465"><ele>256.0</ele><time>2026-04-30T09:37:47.999Z</time></trkpt><trkpt lat="42.483261487088015" lon="11.702502726939374"><ele>256.0</ele><time>2026-04-30T09:37:49.999Z</time></trkpt><trkpt lat="42.48329590266694" lon="11.70257967628513"><ele>256.0</ele><time>2026-04-30T09:38:30.999Z</time></trkpt><trkpt lat="42.48327947230702" lon="11.702707342107406"><ele>255.99999999999997</ele><time>2026-04-30T09:39:50.999Z</time></trkpt><trkpt lat="42.48335517351665" lon="11.702795945380327"><ele>256.0</ele><time>2026-04-30T09:39:52.999Z</time></trkpt><trkpt lat="42.48338518707337" lon="11.702889312115168"><ele>256.16666666666663</ele><time>2026-04-30T09:39:53.999Z</time></trkpt><trkpt lat="42.48343147320855" lon="11.7029809916852"><ele>256.3333333333333</ele><time>2026-04-30T09:39:54.999Z</time></trkpt><trkpt lat="42.483459438590934" lon="11.703065716097617"><ele>256.5</ele><time>2026-04-30T09:39:55.999Z</time></trkpt><trkpt lat="42.48347564419561" lon="11.703170707560878"><ele>256.6666666666667</ele><time>2026-04-30T09:39:56.999Z</time></trkpt><trkpt lat="42.48351173822942" lon="11.703282989666413"><ele>256.83333333333337</ele><time>2026-04-30T09:39:57.999Z</time></trkpt><trkpt lat="42.4835551765342" lon="11.703418118094755"><ele>257.0</ele><time>2026-04-30T09:39:58.999Z</time></trkpt><trkpt lat="42.48360314992229" lon="11.703567354732202"><ele>257.25</ele><time>2026-04-30T09:39:59.999Z</time></trkpt><trkpt lat="42.483655938400574" lon="11.703731306713161"><ele>257.5</ele><time>2026-04-30T09:40:00.999Z</time></trkpt><trkpt lat="42.48371105563653" lon="11.70389930180637"><ele>257.75</ele><time>2026-04-30T09:40:01.999Z</time></trkpt><trkpt lat="42.483767776322374" lon="11.704072184042364"><ele>258.0</ele><time>2026-04-30T09:40:02.999Z</time></trkpt><trkpt lat="42.48382764692541" lon="11.70425466701492"><ele>258.3333333333333</ele><time>2026-04-30T09:40:03.999Z</time></trkpt><trkpt lat="42.48388955762241" lon="11.7044433683431"><ele>258.66666666666663</ele><time>2026-04-30T09:40:04.999Z</time></trkpt><trkpt lat="42.48395273647138" lon="11.704635935621152"><ele>259.0</ele><time>2026-04-30T09:40:05.999Z</time></trkpt><trkpt lat="42.48401577574929" lon="11.704828076686098"><ele>259.0</ele><time>2026-04-30T09:40:06.999Z</time></trkpt><trkpt lat="42.48407955257347" lon="11.70502259834783"><ele>259.0</ele><time>2026-04-30T09:40:07.999Z</time></trkpt><trkpt lat="42.484143995350045" lon="11.705219633207843"><ele>259.0</ele><time>2026-04-30T09:40:08.999Z</time></trkpt><trkpt lat="42.48420927569747" lon="11.705424236533819"><ele>259.66666666666663</ele><time>2026-04-30T09:40:09.999Z</time></trkpt><trkpt lat="42.48427380250302" lon="11.70562647796182"><ele>260.3333333333333</ele><time>2026-04-30T09:40:10.999Z</time></trkpt><trkpt lat="42.48433981144336" lon="11.705832407705433"><ele>261.0</ele><time>2026-04-30T09:40:11.999Z</time></trkpt><trkpt lat="42.48440780990068" lon="11.70603985690803"><ele>261.0</ele><time>2026-04-30T09:40:12.999Z</time></trkpt><trkpt lat="42.484475629684404" lon="11.706246760961195"><ele>261.0</ele><time>2026-04-30T09:40:13.999Z</time></trkpt><trkpt lat="42.48454314701303" lon="11.706452742343782"><ele>261.0</ele><time>2026-04-30T09:40:14.999Z</time></trkpt><trkpt lat="42.48461206119074" lon="11.706662985186933"><ele>261.0</ele><time>2026-04-30T09:40:15.998Z</time></trkpt><trkpt lat="42.48468288544374" lon="11.706879055427638"><ele>261.0</ele><time>2026-04-30T09:40:16.998Z</time></trkpt><trkpt lat="42.48475324391416" lon="11.70709449005718"><ele>261.0</ele><time>2026-04-30T09:40:17.998Z</time></trkpt><trkpt lat="42.48482279909917" lon="11.707309255392362"><ele>261.6666666666667</ele><time>2026-04-30T09:40:18.998Z</time></trkpt><trkpt lat="42.48489233558249" lon="11.707523963080988"><ele>262.33333333333337</ele><time>2026-04-30T09:40:19.998Z</time></trkpt><trkpt lat="42.48496101223096" lon="11.707740278412023"><ele>263.0</ele><time>2026-04-30T09:40:20.998Z</time></trkpt><trkpt lat="42.485030794236586" lon="11.707960327745747"><ele>263.6666666666667</ele><time>2026-04-30T09:40:21.998Z</time></trkpt><trkpt lat="42.485103245023254" lon="11.708180330875926"><ele>264.3333333333333</ele><time>2026-04-30T09:40:22.998Z</time></trkpt><trkpt lat="42.48517919588456" lon="11.7084017000273"><ele>265.0</ele><time>2026-04-30T09:40:23.998Z</time></trkpt><trkpt lat="42.48526128600564" lon="11.708621023891183"><ele>266.0</ele><time>2026-04-30T09:40:24.998Z</time></trkpt><trkpt lat="42.48535527274048" lon="11.70883758035455"><ele>267.0</ele><time>2026-04-30T09:40:25.998Z</time></trkpt><trkpt lat="42.48545722333507" lon="11.709050623026219"><ele>268.0</ele><time>2026-04-30T09:40:26.998Z</time></trkpt><trkpt lat="42.485563063736016" lon="11.709260032934061"><ele>269.0</ele><time>2026-04-30T09:40:27.998Z</time></trkpt><trkpt lat="42.4856690397034" lon="11.709471086059875"><ele>270.0</ele><time>2026-04-30T09:40:28.998Z</time></trkpt><trkpt lat="42.485772726289674" lon="11.70967948748551"><ele>271.0</ele><time>2026-04-30T09:40:29.998Z</time></trkpt><trkpt lat="42.485874638980604" lon="11.709884323580683"><ele>271.0</ele><time>2026-04-30T09:40:30.998Z</time></trkpt><trkpt lat="42.48598014970576" lon="11.710096391490909"><ele>271.0</ele><time>2026-04-30T09:40:31.998Z</time></trkpt><trkpt lat="42.48608695159609" lon="11.710308221437158"><ele>271.0</ele><time>2026-04-30T09:40:32.998Z</time></trkpt><trkpt lat="42.48619363692607" lon="11.710519516135713"><ele>270.66666666666663</ele><time>2026-04-30T09:40:33.998Z</time></trkpt><trkpt lat="42.486298734102974" lon="11.71073130748283"><ele>270.3333333333333</ele><time>2026-04-30T09:40:34.998Z</time></trkpt><trkpt lat="42.48640463159536" lon="11.71094939427229"><ele>270.0</ele><time>2026-04-30T09:40:35.998Z</time></trkpt><trkpt lat="42.48651048155656" lon="11.711167383088142"><ele>270.6666666666667</ele><time>2026-04-30T09:40:36.998Z</time></trkpt><trkpt lat="42.48661957269266" lon="11.711385079077305"><ele>271.33333333333337</ele><time>2026-04-30T09:40:37.998Z</time></trkpt><trkpt lat="42.48673112783918" lon="11.711606467545675"><ele>272.0</ele><time>2026-04-30T09:40:38.998Z</time></trkpt><trkpt lat="42.48683957237027" lon="11.711824366019291"><ele>272.0</ele><time>2026-04-30T09:40:39.998Z</time></trkpt><trkpt lat="42.48694971139936" lon="11.712048623286975"><ele>272.0</ele><time>2026-04-30T09:40:40.998Z</time></trkpt><trkpt lat="42.48705850894864" lon="11.712270743732928"><ele>272.0</ele><time>2026-04-30T09:40:41.998Z</time></trkpt><trkpt lat="42.48716786402069" lon="11.71249400247405"><ele>272.0</ele><time>2026-04-30T09:40:42.998Z</time></trkpt><trkpt lat="42.48727842969609" lon="11.712717535476854"><ele>272.0</ele><time>2026-04-30T09:40:43.998Z</time></trkpt><trkpt lat="42.48738790681515" lon="11.71293598656213"><ele>272.0</ele><time>2026-04-30T09:40:44.998Z</time></trkpt><trkpt lat="42.48749603350019" lon="11.713152256936526"><ele>274.33333333333337</ele><time>2026-04-30T09:40:45.998Z</time></trkpt><trkpt lat="42.48760336389685" lon="11.713368558981482"><ele>276.6666666666667</ele><time>2026-04-30T09:40:46.998Z</time></trkpt><trkpt lat="42.48770993779175" lon="11.7135854133144"><ele>279.0</ele><time>2026-04-30T09:40:48Z</time></trkpt><trkpt lat="42.487816835205365" lon="11.713802587189566"><ele>279.0</ele><time>2026-04-30T09:40:49Z</time></trkpt><trkpt lat="42.487936978602505" lon="11.714007294102611"><ele>279.0</ele><time>2026-04-30T09:40:50Z</time></trkpt><trkpt lat="42.48805929752653" lon="11.71421398529375"><ele>279.0</ele><time>2026-04-30T09:40:51Z</time></trkpt><trkpt lat="42.48819977009809" lon="11.714403092926963"><ele>279.6666666666667</ele><time>2026-04-30T09:40:52Z</time></trkpt><trkpt lat="42.488338490273826" lon="11.714602638317096"><ele>280.33333333333337</ele><time>2026-04-30T09:40:53Z</time></trkpt><trkpt lat="42.48848888105028" lon="11.714793370450241"><ele>281.0</ele><time>2026-04-30T09:40:54Z</time></trkpt><trkpt lat="42.48863888402502" lon="11.714984433734626"><ele>281.0</ele><time>2026-04-30T09:40:55Z</time></trkpt><trkpt lat="42.48880039387406" lon="11.715164219070036"><ele>281.0</ele><time>2026-04-30T09:40:56Z</time></trkpt><trkpt lat="42.488950698047226" lon="11.715358420826641"><ele>281.0</ele><time>2026-04-30T09:40:57Z</time></trkpt><trkpt lat="42.48910374999096" lon="11.715552125806221"><ele>281.0</ele><time>2026-04-30T09:40:58Z</time></trkpt><trkpt lat="42.48925469031317" lon="11.715745078724748"><ele>281.0</ele><time>2026-04-30T09:40:59Z</time></trkpt><trkpt lat="42.489406269010985" lon="11.715934868450931"><ele>281.0</ele><time>2026-04-30T09:41:00Z</time></trkpt><trkpt lat="42.48955475042102" lon="11.716129632844627"><ele>281.0</ele><time>2026-04-30T09:41:01Z</time></trkpt><trkpt lat="42.48970212015" lon="11.716322949674645"><ele>281.0</ele><time>2026-04-30T09:41:02Z</time></trkpt><trkpt lat="42.489849183819445" lon="11.7165117629902"><ele>281.0</ele><time>2026-04-30T09:41:03Z</time></trkpt><trkpt lat="42.49000286305551" lon="11.716696938493005"><ele>281.0</ele><time>2026-04-30T09:41:04Z</time></trkpt><trkpt lat="42.4901446031823" lon="11.716900446822294"><ele>281.0</ele><time>2026-04-30T09:41:05Z</time></trkpt><trkpt lat="42.490296606516736" lon="11.717093925533462"><ele>281.0</ele><time>2026-04-30T09:41:06Z</time></trkpt><trkpt lat="42.490445695443256" lon="11.717283694568335"><ele>281.0</ele><time>2026-04-30T09:41:07Z</time></trkpt><trkpt lat="42.49059714818106" lon="11.717475871305137"><ele>281.0</ele><time>2026-04-30T09:41:08Z</time></trkpt><trkpt lat="42.490762393780514" lon="11.717656924376216"><ele>281.0</ele><time>2026-04-30T09:41:09Z</time></trkpt><trkpt lat="42.490885868060076" lon="11.717886670735536"><ele>280.33333333333337</ele><time>2026-04-30T09:41:10Z</time></trkpt><trkpt lat="42.49100164201757" lon="11.7181189462592"><ele>279.6666666666667</ele><time>2026-04-30T09:41:11Z</time></trkpt><trkpt lat="42.491098496609446" lon="11.718374682983306"><ele>279.0</ele><time>2026-04-30T09:41:12Z</time></trkpt><trkpt lat="42.49117930915945" lon="11.718649545178994"><ele>278.0</ele><time>2026-04-30T09:41:13Z</time></trkpt><trkpt lat="42.491229297831076" lon="11.718924880962563"><ele>277.0</ele><time>2026-04-30T09:41:14Z</time></trkpt><trkpt lat="42.49125392543174" lon="11.719203728631593"><ele>276.0</ele><time>2026-04-30T09:41:15Z</time></trkpt><trkpt lat="42.49127094843577" lon="11.719493241085539"><ele>276.3333333333333</ele><time>2026-04-30T09:41:16Z</time></trkpt><trkpt lat="42.49128481268791" lon="11.719773992979885"><ele>276.66666666666663</ele><time>2026-04-30T09:41:16.999Z</time></trkpt><trkpt lat="42.49129961127912" lon="11.720076574522633"><ele>277.0</ele><time>2026-04-30T09:41:17.999Z</time></trkpt><trkpt lat="42.491314325088695" lon="11.720377422732955"><ele>277.0</ele><time>2026-04-30T09:41:18.999Z</time></trkpt><trkpt lat="42.49132842935995" lon="11.720665807889109"><ele>277.0</ele><time>2026-04-30T09:41:19.999Z</time></trkpt><trkpt lat="42.4913428181074" lon="11.720949988693421"><ele>277.0</ele><time>2026-04-30T09:41:20.999Z</time></trkpt><trkpt lat="42.49135717797601" lon="11.721228689121412"><ele>279.3333333333333</ele><time>2026-04-30T09:41:21.999Z</time></trkpt><trkpt lat="42.49137191299011" lon="11.721499522356192"><ele>281.6666666666667</ele><time>2026-04-30T09:41:22.999Z</time></trkpt><trkpt lat="42.49138664631405" lon="11.721770324287068"><ele>284.0</ele><time>2026-04-30T09:41:23.999Z</time></trkpt><trkpt lat="42.491401577021485" lon="11.72204108150021"><ele>284.0</ele><time>2026-04-30T09:41:24.999Z</time></trkpt><trkpt lat="42.49141654137543" lon="11.722306460472765"><ele>284.0</ele><time>2026-04-30T09:41:25.999Z</time></trkpt><trkpt lat="42.491431364950735" lon="11.722569346693522"><ele>284.0</ele><time>2026-04-30T09:41:26.999Z</time></trkpt><trkpt lat="42.49144607161523" lon="11.72283016213096"><ele>284.0</ele><time>2026-04-30T09:41:27.999Z</time></trkpt><trkpt lat="42.49146065628836" lon="11.723088814088726"><ele>284.0</ele><time>2026-04-30T09:41:28.999Z</time></trkpt><trkpt lat="42.4914764035872" lon="11.723341797318872"><ele>284.0</ele><time>2026-04-30T09:41:29.999Z</time></trkpt><trkpt lat="42.491518729066975" lon="11.723586964890263"><ele>285.6666666666667</ele><time>2026-04-30T09:41:30.999Z</time></trkpt><trkpt lat="42.49153839582103" lon="11.723838858090945"><ele>287.3333333333333</ele><time>2026-04-30T09:41:31.999Z</time></trkpt><trkpt lat="42.491569366166715" lon="11.72409536928359"><ele>289.0</ele><time>2026-04-30T09:41:32.999Z</time></trkpt><trkpt lat="42.49161660441279" lon="11.72435606228453"><ele>291.0</ele><time>2026-04-30T09:41:33.999Z</time></trkpt><trkpt lat="42.49167365949935" lon="11.724608370582354"><ele>293.0</ele><time>2026-04-30T09:41:34.999Z</time></trkpt><trkpt lat="42.49173389796556" lon="11.724866183095793"><ele>295.0</ele><time>2026-04-30T09:41:35.999Z</time></trkpt><trkpt lat="42.491794066167095" lon="11.725120157703481"><ele>294.66666666666663</ele><time>2026-04-30T09:41:36.999Z</time></trkpt><trkpt lat="42.49185382527909" lon="11.72536889285856"><ele>294.3333333333333</ele><time>2026-04-30T09:41:37.999Z</time></trkpt><trkpt lat="42.4919119683607" lon="11.725615419469063"><ele>294.0</ele><time>2026-04-30T09:41:38.999Z</time></trkpt><trkpt lat="42.4919674734294" lon="11.725849366653984"><ele>294.3333333333333</ele><time>2026-04-30T09:41:39.999Z</time></trkpt><trkpt lat="42.49203704009648" lon="11.72607840060008"><ele>294.66666666666663</ele><time>2026-04-30T09:41:40.999Z</time></trkpt><trkpt lat="42.492122761559806" lon="11.726311206010331"><ele>295.0</ele><time>2026-04-30T09:41:41.999Z</time></trkpt><trkpt lat="42.4922179996197" lon="11.726534597329573"><ele>295.0</ele><time>2026-04-30T09:41:42.999Z</time></trkpt><trkpt lat="42.49231917348337" lon="11.726759370844745"><ele>295.0</ele><time>2026-04-30T09:41:43.999Z</time></trkpt><trkpt lat="42.49242322724708" lon="11.726980290774787"><ele>295.0</ele><time>2026-04-30T09:41:44.999Z</time></trkpt><trkpt lat="42.49254017141423" lon="11.72720256885895"><ele>295.0</ele><time>2026-04-30T09:41:45.999Z</time></trkpt><trkpt lat="42.49266671846671" lon="11.727422469879777"><ele>295.0</ele><time>2026-04-30T09:41:46.999Z</time></trkpt><trkpt lat="42.49280132449196" lon="11.727642743344852"><ele>295.0</ele><time>2026-04-30T09:41:47.999Z</time></trkpt><trkpt lat="42.49294667795094" lon="11.727849001960736"><ele>295.0</ele><time>2026-04-30T09:41:48.999Z</time></trkpt><trkpt lat="42.4931027369687" lon="11.728045948077929"><ele>295.0</ele><time>2026-04-30T09:41:49.999Z</time></trkpt><trkpt lat="42.49327269281111" lon="11.728221787941989"><ele>295.0</ele><time>2026-04-30T09:41:50.999Z</time></trkpt><trkpt lat="42.493451841036645" lon="11.72837887879068"><ele>295.0</ele><time>2026-04-30T09:41:51.999Z</time></trkpt><trkpt lat="42.493636182087684" lon="11.728510638990148"><ele>295.0</ele><time>2026-04-30T09:41:52.999Z</time></trkpt><trkpt lat="42.49383284730068" lon="11.728630007718639"><ele>295.0</ele><time>2026-04-30T09:41:53.999Z</time></trkpt><trkpt lat="42.49403837058903" lon="11.728731973506838"><ele>295.0</ele><time>2026-04-30T09:41:54.999Z</time></trkpt><trkpt lat="42.49424843384373" lon="11.728818138993327"><ele>295.0</ele><time>2026-04-30T09:41:55.999Z</time></trkpt><trkpt lat="42.49446272994906" lon="11.728888729045394"><ele>295.0</ele><time>2026-04-30T09:41:56.999Z</time></trkpt><trkpt lat="42.49468255004751" lon="11.728951849949352"><ele>295.0</ele><time>2026-04-30T09:41:57.999Z</time></trkpt><trkpt lat="42.49490125659344" lon="11.72901929186824"><ele>295.0</ele><time>2026-04-30T09:41:58.999Z</time></trkpt><trkpt lat="42.49511328352398" lon="11.729089092064324"><ele>295.0</ele><time>2026-04-30T09:41:59.999Z</time></trkpt><trkpt lat="42.495311507558974" lon="11.72916465682202"><ele>295.0</ele><time>2026-04-30T09:42:00.999Z</time></trkpt><trkpt lat="42.49549229602136" lon="11.729258123447147"><ele>295.0</ele><time>2026-04-30T09:42:01.999Z</time></trkpt><trkpt lat="42.495654086318396" lon="11.729383456912526"><ele>295.0</ele><time>2026-04-30T09:42:02.999Z</time></trkpt><trkpt lat="42.4957895023757" lon="11.729536351498211"><ele>294.0</ele><time>2026-04-30T09:42:03.999Z</time></trkpt><trkpt lat="42.49591171484301" lon="11.729727602707744"><ele>293.0</ele><time>2026-04-30T09:42:04.999Z</time></trkpt><trkpt lat="42.49602736735011" lon="11.729961512979038"><ele>292.0</ele><time>2026-04-30T09:42:05.999Z</time></trkpt><trkpt lat="42.496133711701376" lon="11.730185268891217"><ele>290.66666666666663</ele><time>2026-04-30T09:42:06.999Z</time></trkpt><trkpt lat="42.49623715470629" lon="11.730425129144487"><ele>289.3333333333333</ele><time>2026-04-30T09:42:07.999Z</time></trkpt><trkpt lat="42.49636248635501" lon="11.730663277750057"><ele>288.0</ele><time>2026-04-30T09:42:08.999Z</time></trkpt><trkpt lat="42.4964782856349" lon="11.730916783292752"><ele>287.0</ele><time>2026-04-30T09:42:09.999Z</time></trkpt><trkpt lat="42.4965910414681" lon="11.731179808626166"><ele>286.0</ele><time>2026-04-30T09:42:10.999Z</time></trkpt><trkpt lat="42.49671246449466" lon="11.731438202384648"><ele>286.0</ele><time>2026-04-30T09:42:11.999Z</time></trkpt><trkpt lat="42.496835340073154" lon="11.731701952057504"><ele>286.0</ele><time>2026-04-30T09:42:12.999Z</time></trkpt><trkpt lat="42.496955465371975" lon="11.731966918842406"><ele>288.5</ele><time>2026-04-30T09:42:13.999Z</time></trkpt><trkpt lat="42.497079539030395" lon="11.732225535455559"><ele>291.0</ele><time>2026-04-30T09:42:14.999Z</time></trkpt><trkpt lat="42.49720665231359" lon="11.73249239032158"><ele>296.0</ele><time>2026-04-30T09:42:15.999Z</time></trkpt><trkpt lat="42.497331531254964" lon="11.73275563746262"><ele>301.0</ele><time>2026-04-30T09:42:16.999Z</time></trkpt><trkpt lat="42.49745659508439" lon="11.733015517207845"><ele>301.0</ele><time>2026-04-30T09:42:17.999Z</time></trkpt><trkpt lat="42.49757795045548" lon="11.73327523348028"><ele>301.0</ele><time>2026-04-30T09:42:18.999Z</time></trkpt><trkpt lat="42.4976958445999" lon="11.733535015035374"><ele>302.0</ele><time>2026-04-30T09:42:19.999Z</time></trkpt><trkpt lat="42.497813426239404" lon="11.733793565464627"><ele>303.0</ele><time>2026-04-30T09:42:20.999Z</time></trkpt><trkpt lat="42.49793499154613" lon="11.734046249063029"><ele>304.0</ele><time>2026-04-30T09:42:21.999Z</time></trkpt><trkpt lat="42.498050484172026" lon="11.73429201487346"><ele>303.3333333333333</ele><time>2026-04-30T09:42:22.998Z</time></trkpt><trkpt lat="42.49816697393378" lon="11.734534637374988"><ele>302.6666666666667</ele><time>2026-04-30T09:42:23.998Z</time></trkpt><trkpt lat="42.49827613270255" lon="11.734766122046418"><ele>302.0</ele><time>2026-04-30T09:42:24.998Z</time></trkpt><trkpt lat="42.498382626770464" lon="11.734987983710795"><ele>302.0</ele><time>2026-04-30T09:42:25.998Z</time></trkpt><trkpt lat="42.498489850153504" lon="11.735206499503553"><ele>302.0</ele><time>2026-04-30T09:42:26.998Z</time></trkpt><trkpt lat="42.49859359868289" lon="11.735407062340132"><ele>302.0</ele><time>2026-04-30T09:42:27.998Z</time></trkpt><trkpt lat="42.49868924664661" lon="11.735593349164821"><ele>303.0</ele><time>2026-04-30T09:42:28.998Z</time></trkpt><trkpt lat="42.4987823788809" lon="11.735771920113539"><ele>304.0</ele><time>2026-04-30T09:42:29.998Z</time></trkpt><trkpt lat="42.498881160151534" lon="11.735955737090862"><ele>305.0</ele><time>2026-04-30T09:42:30.998Z</time></trkpt><trkpt lat="42.4989780241113" lon="11.736141141974525"><ele>305.33333333333337</ele><time>2026-04-30T09:42:31.998Z</time></trkpt><trkpt lat="42.49907493609199" lon="11.736328070797823"><ele>305.6666666666667</ele><time>2026-04-30T09:42:32.998Z</time></trkpt><trkpt lat="42.49916834156872" lon="11.736512924897365"><ele>306.0</ele><time>2026-04-30T09:42:33.998Z</time></trkpt><trkpt lat="42.49926200964796" lon="11.73669115556404"><ele>306.0</ele><time>2026-04-30T09:42:34.998Z</time></trkpt><trkpt lat="42.49935309431048" lon="11.736866266871633"><ele>306.0</ele><time>2026-04-30T09:42:35.998Z</time></trkpt><trkpt lat="42.49944215373562" lon="11.737039163489243"><ele>306.0</ele><time>2026-04-30T09:42:36.998Z</time></trkpt><trkpt lat="42.49953070360882" lon="11.737208980175934"><ele>307.3333333333333</ele><time>2026-04-30T09:42:37.998Z</time></trkpt><trkpt lat="42.49962302689717" lon="11.73737699716144"><ele>308.66666666666663</ele><time>2026-04-30T09:42:38.998Z</time></trkpt><trkpt lat="42.49972374454293" lon="11.737530856428725"><ele>310.0</ele><time>2026-04-30T09:42:39.998Z</time></trkpt><trkpt lat="42.499840699776" lon="11.737671053678948"><ele>308.66666666666663</ele><time>2026-04-30T09:42:40.998Z</time></trkpt><trkpt lat="42.49996797331777" lon="11.737799128994599"><ele>307.3333333333333</ele><time>2026-04-30T09:42:41.998Z</time></trkpt><trkpt lat="42.500102338399394" lon="11.737928484489794"><ele>306.0</ele><time>2026-04-30T09:42:42.998Z</time></trkpt><trkpt lat="42.50023634992859" lon="11.738057300880229"><ele>306.0</ele><time>2026-04-30T09:42:43.998Z</time></trkpt><trkpt lat="42.50037297043193" lon="11.738176781382828"><ele>306.0</ele><time>2026-04-30T09:42:44.998Z</time></trkpt><trkpt lat="42.50051802651897" lon="11.738281852546223"><ele>306.0</ele><time>2026-04-30T09:42:45.998Z</time></trkpt><trkpt lat="42.500680160628576" lon="11.738341281443327"><ele>308.3333333333333</ele><time>2026-04-30T09:42:46.998Z</time></trkpt><trkpt lat="42.500854905954114" lon="11.738350215261358"><ele>310.66666666666663</ele><time>2026-04-30T09:42:47.998Z</time></trkpt><trkpt lat="42.501029382942775" lon="11.738308340395402"><ele>313.0</ele><time>2026-04-30T09:42:48.998Z</time></trkpt><trkpt lat="42.501206725747586" lon="11.738240060339747"><ele>313.3333333333333</ele><time>2026-04-30T09:42:49.998Z</time></trkpt><trkpt lat="42.501387509730435" lon="11.73818340340753"><ele>313.6666666666667</ele><time>2026-04-30T09:42:50.998Z</time></trkpt><trkpt lat="42.50157018351156" lon="11.738134964566056"><ele>314.0</ele><time>2026-04-30T09:42:51.998Z</time></trkpt><trkpt lat="42.501760328910976" lon="11.738087556077112"><ele>314.0</ele><time>2026-04-30T09:42:52.998Z</time></trkpt><trkpt lat="42.50195980049403" lon="11.738038135533445"><ele>314.0</ele><time>2026-04-30T09:42:54Z</time></trkpt><trkpt lat="42.502157441178746" lon="11.737984273172883"><ele>314.0</ele><time>2026-04-30T09:42:55Z</time></trkpt><trkpt lat="42.50235672685975" lon="11.737942469721022"><ele>313.0</ele><time>2026-04-30T09:42:56Z</time></trkpt><trkpt lat="42.50255956382812" lon="11.73791909426649"><ele>312.0</ele><time>2026-04-30T09:42:57Z</time></trkpt><trkpt lat="42.50276307197155" lon="11.737929803287452"><ele>311.0</ele><time>2026-04-30T09:42:58Z</time></trkpt><trkpt lat="42.502964465879174" lon="11.737979618506934"><ele>313.33333333333337</ele><time>2026-04-30T09:42:59Z</time></trkpt><trkpt lat="42.50316045154994" lon="11.73805514028282"><ele>315.6666666666667</ele><time>2026-04-30T09:43:00Z</time></trkpt><trkpt lat="42.50335092450238" lon="11.738138553826607"><ele>318.0</ele><time>2026-04-30T09:43:01Z</time></trkpt><trkpt lat="42.503545724745244" lon="11.738220782388826"><ele>317.3333333333333</ele><time>2026-04-30T09:43:02Z</time></trkpt><trkpt lat="42.50374767835479" lon="11.738310121146782"><ele>316.66666666666663</ele><time>2026-04-30T09:43:03Z</time></trkpt><trkpt lat="42.50396001673465" lon="11.738405963841203"><ele>316.0</ele><time>2026-04-30T09:43:04Z</time></trkpt><trkpt lat="42.50417281716153" lon="11.738496777367079"><ele>316.3333333333333</ele><time>2026-04-30T09:43:05Z</time></trkpt><trkpt lat="42.50437923035318" lon="11.738606519607368"><ele>316.6666666666667</ele><time>2026-04-30T09:43:06Z</time></trkpt><trkpt lat="42.504585604595775" lon="11.738698542951207"><ele>317.0</ele><time>2026-04-30T09:43:07Z</time></trkpt><trkpt lat="42.504790976804735" lon="11.73879143700523"><ele>317.0</ele><time>2026-04-30T09:43:08Z</time></trkpt><trkpt lat="42.50499352342655" lon="11.738882654954717"><ele>317.0</ele><time>2026-04-30T09:43:09Z</time></trkpt><trkpt lat="42.50519270524785" lon="11.738969116535033"><ele>317.0</ele><time>2026-04-30T09:43:10Z</time></trkpt><trkpt lat="42.50538672622202" lon="11.739056485105046"><ele>317.0</ele><time>2026-04-30T09:43:11Z</time></trkpt><trkpt lat="42.50557269099131" lon="11.739163807133334"><ele>317.0</ele><time>2026-04-30T09:43:12Z</time></trkpt><trkpt lat="42.505749050033266" lon="11.739301316672137"><ele>317.0</ele><time>2026-04-30T09:43:13Z</time></trkpt><trkpt lat="42.50591178275022" lon="11.739471852247478"><ele>317.0</ele><time>2026-04-30T09:43:14Z</time></trkpt><trkpt lat="42.50606416708271" lon="11.7396603420205"><ele>317.0</ele><time>2026-04-30T09:43:15Z</time></trkpt><trkpt lat="42.50621268781508" lon="11.73985880718088"><ele>317.0</ele><time>2026-04-30T09:43:16Z</time></trkpt><trkpt lat="42.50636171311905" lon="11.740060112255817"><ele>318.6666666666667</ele><time>2026-04-30T09:43:17Z</time></trkpt><trkpt lat="42.506508816468454" lon="11.740265173646767"><ele>320.3333333333333</ele><time>2026-04-30T09:43:18Z</time></trkpt><trkpt lat="42.50665738332917" lon="11.74047048901779"><ele>322.0</ele><time>2026-04-30T09:43:19Z</time></trkpt><trkpt lat="42.50680665031472" lon="11.740675278795178"><ele>322.0</ele><time>2026-04-30T09:43:20Z</time></trkpt><trkpt lat="42.50697206527109" lon="11.74085942097543"><ele>322.0</ele><time>2026-04-30T09:43:21Z</time></trkpt><trkpt lat="42.50713214907638" lon="11.74105431109985"><ele>322.0</ele><time>2026-04-30T09:43:22Z</time></trkpt><trkpt lat="42.507297005630534" lon="11.741244267702209"><ele>324.0</ele><time>2026-04-30T09:43:23Z</time></trkpt><trkpt lat="42.507470849028365" lon="11.741421874930175"><ele>326.0</ele><time>2026-04-30T09:43:24Z</time></trkpt><trkpt lat="42.507642461063874" lon="11.741607077252334"><ele>328.0</ele><time>2026-04-30T09:43:25Z</time></trkpt><trkpt lat="42.50782535455834" lon="11.741769947249516"><ele>328.3333333333333</ele><time>2026-04-30T09:43:26Z</time></trkpt><trkpt lat="42.50801078474674" lon="11.74193557668675"><ele>328.6666666666667</ele><time>2026-04-30T09:43:27Z</time></trkpt><trkpt lat="42.50819760437874" lon="11.742102447202626"><ele>329.0</ele><time>2026-04-30T09:43:28Z</time></trkpt><trkpt lat="42.5083874996432" lon="11.7422725101561"><ele>329.0</ele><time>2026-04-30T09:43:29Z</time></trkpt><trkpt lat="42.508576549688755" lon="11.742442978863892"><ele>329.0</ele><time>2026-04-30T09:43:30Z</time></trkpt><trkpt lat="42.508767969974414" lon="11.742612670647732"><ele>328.0</ele><time>2026-04-30T09:43:31Z</time></trkpt><trkpt lat="42.5089579691519" lon="11.742779279838867"><ele>327.0</ele><time>2026-04-30T09:43:32Z</time></trkpt><trkpt lat="42.50915477703418" lon="11.74293086697785"><ele>327.0</ele><time>2026-04-30T09:43:33Z</time></trkpt><trkpt lat="42.509339322931616" lon="11.74310132640444"><ele>327.0</ele><time>2026-04-30T09:43:34Z</time></trkpt><trkpt lat="42.50952270294814" lon="11.743265916482535"><ele>327.0</ele><time>2026-04-30T09:43:35Z</time></trkpt><trkpt lat="42.50970357216656" lon="11.743428702814459"><ele>328.0</ele><time>2026-04-30T09:43:35.999Z</time></trkpt><trkpt lat="42.50988470399465" lon="11.743593140077413"><ele>329.0</ele><time>2026-04-30T09:43:36.999Z</time></trkpt><trkpt lat="42.51006741747889" lon="11.743751774929997"><ele>330.0</ele><time>2026-04-30T09:43:37.999Z</time></trkpt><trkpt lat="42.510246498386884" lon="11.743914548083959"><ele>330.3333333333333</ele><time>2026-04-30T09:43:38.999Z</time></trkpt><trkpt lat="42.51042973107422" lon="11.744070168165285"><ele>330.66666666666663</ele><time>2026-04-30T09:43:39.999Z</time></trkpt><trkpt lat="42.51060624783976" lon="11.744232917839826"><ele>331.0</ele><time>2026-04-30T09:43:40.999Z</time></trkpt><trkpt lat="42.510782270717094" lon="11.744390274755629"><ele>330.0</ele><time>2026-04-30T09:43:41.999Z</time></trkpt><trkpt lat="42.5109607270754" lon="11.744547705192424"><ele>329.0</ele><time>2026-04-30T09:43:42.999Z</time></trkpt><trkpt lat="42.511139010124616" lon="11.744703797506904"><ele>328.0</ele><time>2026-04-30T09:43:43.999Z</time></trkpt><trkpt lat="42.51131907999349" lon="11.74485965259875"><ele>328.0</ele><time>2026-04-30T09:43:44.999Z</time></trkpt><trkpt lat="42.51149861891822" lon="11.745016746390522"><ele>328.0</ele><time>2026-04-30T09:43:45.999Z</time></trkpt><trkpt lat="42.51167455019196" lon="11.745179416180596"><ele>328.0</ele><time>2026-04-30T09:43:46.999Z</time></trkpt><trkpt lat="42.51184857614002" lon="11.745350149852458"><ele>327.0</ele><time>2026-04-30T09:43:47.999Z</time></trkpt><trkpt lat="42.5120157172863" lon="11.745529713286798"><ele>326.0</ele><time>2026-04-30T09:43:48.999Z</time></trkpt><trkpt lat="42.512171241504845" lon="11.74571553258311"><ele>325.0</ele><time>2026-04-30T09:43:49.999Z</time></trkpt><trkpt lat="42.5123379410847" lon="11.745862292868152"><ele>324.3333333333333</ele><time>2026-04-30T09:43:50.999Z</time></trkpt><trkpt lat="42.51246611848551" lon="11.746072504408822"><ele>323.6666666666667</ele><time>2026-04-30T09:43:51.999Z</time></trkpt><trkpt lat="42.512621907181526" lon="11.746223215294116"><ele>323.0</ele><time>2026-04-30T09:43:52.999Z</time></trkpt><trkpt lat="42.51280957863711" lon="11.746348382956716"><ele>322.0</ele><time>2026-04-30T09:43:53.999Z</time></trkpt><trkpt lat="42.5130062792132" lon="11.746442090616616"><ele>321.0</ele><time>2026-04-30T09:43:54.999Z</time></trkpt><trkpt lat="42.51320499358274" lon="11.746538124847444"><ele>320.0</ele><time>2026-04-30T09:43:55.999Z</time></trkpt><trkpt lat="42.513405350838305" lon="11.746636680104896"><ele>320.0</ele><time>2026-04-30T09:43:56.999Z</time></trkpt><trkpt lat="42.51359550757677" lon="11.746705351996292"><ele>320.0</ele><time>2026-04-30T09:43:57.999Z</time></trkpt><trkpt lat="42.51379090628789" lon="11.74674838643489"><ele>320.0</ele><time>2026-04-30T09:43:58.999Z</time></trkpt><trkpt lat="42.513992394666076" lon="11.74676642228748"><ele>318.6666666666667</ele><time>2026-04-30T09:43:59.999Z</time></trkpt><trkpt lat="42.51420729107992" lon="11.74674837850106"><ele>317.3333333333333</ele><time>2026-04-30T09:44:00.999Z</time></trkpt><trkpt lat="42.51441807892919" lon="11.74670272845949"><ele>316.0</ele><time>2026-04-30T09:44:01.999Z</time></trkpt><trkpt lat="42.51461923637914" lon="11.746655124142789"><ele>314.3333333333333</ele><time>2026-04-30T09:44:02.999Z</time></trkpt><trkpt lat="42.51480707674987" lon="11.746599067754243"><ele>312.6666666666667</ele><time>2026-04-30T09:44:03.999Z</time></trkpt><trkpt lat="42.51499289935596" lon="11.746573265774963"><ele>311.0</ele><time>2026-04-30T09:44:04.999Z</time></trkpt><trkpt lat="42.51516281696369" lon="11.74655014922693"><ele>311.0</ele><time>2026-04-30T09:44:05.999Z</time></trkpt><trkpt lat="42.515322833481356" lon="11.746501169310397"><ele>311.0</ele><time>2026-04-30T09:44:06.999Z</time></trkpt><trkpt lat="42.515477008821875" lon="11.74640227937153"><ele>311.0</ele><time>2026-04-30T09:44:07.999Z</time></trkpt><trkpt lat="42.51561841021803" lon="11.74626648634693"><ele>310.0</ele><time>2026-04-30T09:44:08.999Z</time></trkpt><trkpt lat="42.51575564356481" lon="11.746106618409188"><ele>309.0</ele><time>2026-04-30T09:44:09.999Z</time></trkpt><trkpt lat="42.51590968905233" lon="11.745975530690647"><ele>308.0</ele><time>2026-04-30T09:44:10.999Z</time></trkpt><trkpt lat="42.51608022334604" lon="11.745825938321342"><ele>308.5</ele><time>2026-04-30T09:44:11.999Z</time></trkpt><trkpt lat="42.51626799033662" lon="11.745675196011959"><ele>309.0</ele><time>2026-04-30T09:44:12.999Z</time></trkpt><trkpt lat="42.51646888012183" lon="11.745502509914822"><ele>309.0</ele><time>2026-04-30T09:44:13.999Z</time></trkpt><trkpt lat="42.5166519679771" lon="11.745343581425544"><ele>309.0</ele><time>2026-04-30T09:44:14.999Z</time></trkpt><trkpt lat="42.51682857877667" lon="11.745218944615152"><ele>309.0</ele><time>2026-04-30T09:44:15.999Z</time></trkpt><trkpt lat="42.51698980138542" lon="11.745120738228398"><ele>307.6666666666667</ele><time>2026-04-30T09:44:16.999Z</time></trkpt><trkpt lat="42.51712640108432" lon="11.744981530017213"><ele>306.33333333333337</ele><time>2026-04-30T09:44:17.999Z</time></trkpt><trkpt lat="42.517222017719654" lon="11.744799710246397"><ele>305.0</ele><time>2026-04-30T09:44:18.999Z</time></trkpt><trkpt lat="42.517305106128894" lon="11.744611878483814"><ele>305.0</ele><time>2026-04-30T09:44:19.999Z</time></trkpt><trkpt lat="42.517321854198585" lon="11.74443333138948"><ele>305.0</ele><time>2026-04-30T09:44:20.999Z</time></trkpt><trkpt lat="42.51731925262822" lon="11.744247403897186"><ele>305.0</ele><time>2026-04-30T09:44:21.999Z</time></trkpt><trkpt lat="42.51726168861455" lon="11.744025003275762"><ele>305.0</ele><time>2026-04-30T09:44:22.999Z</time></trkpt><trkpt lat="42.517132612992846" lon="11.743732451187295"><ele>308.33333333333337</ele><time>2026-04-30T09:44:23.999Z</time></trkpt><trkpt lat="42.51712529338259" lon="11.743497154086242"><ele>311.6666666666667</ele><time>2026-04-30T09:44:24.999Z</time></trkpt><trkpt lat="42.51716148218872" lon="11.74328993386478"><ele>315.0</ele><time>2026-04-30T09:44:25.999Z</time></trkpt><trkpt lat="42.51724479741919" lon="11.743111927723106"><ele>315.0</ele><time>2026-04-30T09:44:26.999Z</time></trkpt><trkpt lat="42.51735844216297" lon="11.742967655136786"><ele>315.0</ele><time>2026-04-30T09:44:27.999Z</time></trkpt><trkpt lat="42.51749210847046" lon="11.742854811403188"><ele>315.0</ele><time>2026-04-30T09:44:28.999Z</time></trkpt><trkpt lat="42.5176325887701" lon="11.742717151016292"><ele>314.5</ele><time>2026-04-30T09:44:29.999Z</time></trkpt><trkpt lat="42.517745649715046" lon="11.742591045166098"><ele>314.0</ele><time>2026-04-30T09:44:30.999Z</time></trkpt><trkpt lat="42.51782904723484" lon="11.74241260667996"><ele>313.5</ele><time>2026-04-30T09:44:31.999Z</time></trkpt><trkpt lat="42.51791243828993" lon="11.742260651564791"><ele>313.0</ele><time>2026-04-30T09:44:32.999Z</time></trkpt><trkpt lat="42.5179936550206" lon="11.742101596470642"><ele>316.66666666666663</ele><time>2026-04-30T09:44:33.999Z</time></trkpt><trkpt lat="42.518087989930855" lon="11.74193094765181"><ele>320.3333333333333</ele><time>2026-04-30T09:44:34.999Z</time></trkpt><trkpt lat="42.51823776775605" lon="11.74181791725794"><ele>324.0</ele><time>2026-04-30T09:44:35.999Z</time></trkpt><trkpt lat="42.518375801466775" lon="11.74166702456949"><ele>324.0</ele><time>2026-04-30T09:44:36.999Z</time></trkpt><trkpt lat="42.518480006251956" lon="11.74152121881517"><ele>324.0</ele><time>2026-04-30T09:44:37.998Z</time></trkpt><trkpt lat="42.51863844926399" lon="11.741439582830031"><ele>324.0</ele><time>2026-04-30T09:44:38.998Z</time></trkpt><trkpt lat="42.51882790239902" lon="11.741375358588796"><ele>327.3333333333333</ele><time>2026-04-30T09:44:39.998Z</time></trkpt><trkpt lat="42.518996837946716" lon="11.74132165023522"><ele>330.66666666666663</ele><time>2026-04-30T09:44:40.998Z</time></trkpt><trkpt lat="42.51916052433004" lon="11.741324226910274"><ele>334.0</ele><time>2026-04-30T09:44:41.998Z</time></trkpt><trkpt lat="42.51932684491371" lon="11.741334169527851"><ele>334.0</ele><time>2026-04-30T09:44:42.998Z</time></trkpt><trkpt lat="42.519486222074875" lon="11.741360243206097"><ele>334.0</ele><time>2026-04-30T09:44:43.998Z</time></trkpt><trkpt lat="42.51964458439556" lon="11.741408600245716"><ele>334.0</ele><time>2026-04-30T09:44:44.998Z</time></trkpt><trkpt lat="42.51978401469346" lon="11.741481828054106"><ele>335.0</ele><time>2026-04-30T09:44:45.998Z</time></trkpt><trkpt lat="42.51991866204714" lon="11.741595131681034"><ele>336.0</ele><time>2026-04-30T09:44:46.998Z</time></trkpt><trkpt lat="42.52005759497828" lon="11.741692039345732"><ele>337.0</ele><time>2026-04-30T09:44:47.998Z</time></trkpt><trkpt lat="42.52020620165899" lon="11.74178057732694"><ele>337.0</ele><time>2026-04-30T09:44:48.998Z</time></trkpt><trkpt lat="42.52036829481" lon="11.741859591131192"><ele>337.0</ele><time>2026-04-30T09:44:49.998Z</time></trkpt><trkpt lat="42.52053109512694" lon="11.741947591527985"><ele>337.0</ele><time>2026-04-30T09:44:50.998Z</time></trkpt><trkpt lat="42.5207073351008" lon="11.74199056723466"><ele>337.3333333333333</ele><time>2026-04-30T09:44:51.998Z</time></trkpt><trkpt lat="42.520888328555124" lon="11.742015234513804"><ele>337.6666666666667</ele><time>2026-04-30T09:44:52.998Z</time></trkpt><trkpt lat="42.52105910611235" lon="11.742015638838478"><ele>338.0</ele><time>2026-04-30T09:44:53.998Z</time></trkpt><trkpt lat="42.52122723541581" lon="11.742015340486843"><ele>340.0</ele><time>2026-04-30T09:44:54.998Z</time></trkpt><trkpt lat="42.52139371005504" lon="11.742038146041496"><ele>342.0</ele><time>2026-04-30T09:44:55.998Z</time></trkpt><trkpt lat="42.521535721821714" lon="11.74204292456322"><ele>344.0</ele><time>2026-04-30T09:44:56.998Z</time></trkpt><trkpt lat="42.521652989255244" lon="11.742047020356111"><ele>346.0</ele><time>2026-04-30T09:44:57.998Z</time></trkpt><trkpt lat="42.52174458540343" lon="11.742055044432226"><ele>346.0</ele><time>2026-04-30T09:44:58.998Z</time></trkpt><trkpt lat="42.521830071515495" lon="11.74207100904963"><ele>346.0</ele><time>2026-04-30T09:45:00Z</time></trkpt><trkpt lat="42.521926882919814" lon="11.742100521011293"><ele>346.0</ele><time>2026-04-30T09:45:01Z</time></trkpt><trkpt lat="42.52202843201276" lon="11.742153799596206"><ele>346.0</ele><time>2026-04-30T09:45:02Z</time></trkpt><trkpt lat="42.522125823664524" lon="11.742223619810424"><ele>346.0</ele><time>2026-04-30T09:45:03Z</time></trkpt><trkpt lat="42.522222116025674" lon="11.742308422691393"><ele>346.75</ele><time>2026-04-30T09:45:04Z</time></trkpt><trkpt lat="42.52230621206535" lon="11.74241122747374"><ele>347.5</ele><time>2026-04-30T09:45:05Z</time></trkpt><trkpt lat="42.52238112206203" lon="11.742519174973499"><ele>348.25</ele><time>2026-04-30T09:45:06Z</time></trkpt><trkpt lat="42.52245426166245" lon="11.742637414462507"><ele>349.0</ele><time>2026-04-30T09:45:07Z</time></trkpt><trkpt lat="42.52249336569965" lon="11.742815133265758"><ele>349.3333333333333</ele><time>2026-04-30T09:45:08Z</time></trkpt><trkpt lat="42.522583063179354" lon="11.742975402601225"><ele>349.6666666666667</ele><time>2026-04-30T09:45:09Z</time></trkpt><trkpt lat="42.52267985794217" lon="11.743148353234647"><ele>350.0</ele><time>2026-04-30T09:45:10Z</time></trkpt><trkpt lat="42.5227764848076" lon="11.743320595113342"><ele>350.0</ele><time>2026-04-30T09:45:11Z</time></trkpt><trkpt lat="42.52288050636272" lon="11.743502334605193"><ele>350.0</ele><time>2026-04-30T09:45:12Z</time></trkpt><trkpt lat="42.52299017441889" lon="11.743693939308464"><ele>350.0</ele><time>2026-04-30T09:45:13Z</time></trkpt><trkpt lat="42.52310152856031" lon="11.743888489872791"><ele>351.0</ele><time>2026-04-30T09:45:14Z</time></trkpt><trkpt lat="42.52321691960032" lon="11.744085419723065"><ele>352.0</ele><time>2026-04-30T09:45:15Z</time></trkpt><trkpt lat="42.523338951849134" lon="11.744280010905484"><ele>353.0</ele><time>2026-04-30T09:45:16Z</time></trkpt><trkpt lat="42.52347591428467" lon="11.744453418023292"><ele>353.33333333333337</ele><time>2026-04-30T09:45:17Z</time></trkpt><trkpt lat="42.523609857833044" lon="11.744632687244954"><ele>353.6666666666667</ele><time>2026-04-30T09:45:18Z</time></trkpt><trkpt lat="42.52373288785848" lon="11.744821481084122"><ele>354.0</ele><time>2026-04-30T09:45:19Z</time></trkpt><trkpt lat="42.523837688221874" lon="11.745017324497164"><ele>355.6666666666667</ele><time>2026-04-30T09:45:20Z</time></trkpt><trkpt lat="42.52391660146478" lon="11.745231957672416"><ele>357.33333333333337</ele><time>2026-04-30T09:45:21Z</time></trkpt><trkpt lat="42.52397692405932" lon="11.745461371497365"><ele>359.0</ele><time>2026-04-30T09:45:22Z</time></trkpt><trkpt lat="42.52400618097972" lon="11.745703468214957"><ele>359.0</ele><time>2026-04-30T09:45:23Z</time></trkpt><trkpt lat="42.52402038219084" lon="11.74595693816504"><ele>359.0</ele><time>2026-04-30T09:45:24Z</time></trkpt><trkpt lat="42.52403255070091" lon="11.74622617003984"><ele>359.0</ele><time>2026-04-30T09:45:25Z</time></trkpt><trkpt lat="42.52404106051838" lon="11.746496024635737"><ele>359.0</ele><time>2026-04-30T09:45:26Z</time></trkpt><trkpt lat="42.5240497264656" lon="11.746770830329805"><ele>359.0</ele><time>2026-04-30T09:45:27Z</time></trkpt><trkpt lat="42.52405813067441" lon="11.747037335974783"><ele>359.0</ele><time>2026-04-30T09:45:28Z</time></trkpt><trkpt lat="42.524066501546486" lon="11.747296614312214"><ele>359.0</ele><time>2026-04-30T09:45:29Z</time></trkpt><trkpt lat="42.524076950226586" lon="11.74755074747579"><ele>359.0</ele><time>2026-04-30T09:45:30Z</time></trkpt><trkpt lat="42.52408784561351" lon="11.74779903886046"><ele>359.0</ele><time>2026-04-30T09:45:31Z</time></trkpt><trkpt lat="42.52409816175874" lon="11.748033330794359"><ele>359.6666666666667</ele><time>2026-04-30T09:45:32Z</time></trkpt><trkpt lat="42.52411005022243" lon="11.74825675285902"><ele>360.3333333333333</ele><time>2026-04-30T09:45:33Z</time></trkpt><trkpt lat="42.524133420175325" lon="11.74846052935378"><ele>361.0</ele><time>2026-04-30T09:45:34Z</time></trkpt><trkpt lat="42.52416862235682" lon="11.748644310256163"><ele>361.5</ele><time>2026-04-30T09:45:35Z</time></trkpt><trkpt lat="42.524239857208606" lon="11.748802475654633"><ele>362.0</ele><time>2026-04-30T09:45:36Z</time></trkpt><trkpt lat="42.5242995558078" lon="11.748951586519555"><ele>362.5</ele><time>2026-04-30T09:45:37Z</time></trkpt><trkpt lat="42.524388247909876" lon="11.749085709405243"><ele>363.0</ele><time>2026-04-30T09:45:38Z</time></trkpt><trkpt lat="42.52449848283886" lon="11.749233400967213"><ele>364.0</ele><time>2026-04-30T09:45:39Z</time></trkpt><trkpt lat="42.524627812441445" lon="11.749391588103945"><ele>365.0</ele><time>2026-04-30T09:45:40Z</time></trkpt><trkpt lat="42.524762555121164" lon="11.749558447938016"><ele>366.0</ele><time>2026-04-30T09:45:41Z</time></trkpt><trkpt lat="42.52490168079346" lon="11.749735393446702"><ele>366.0</ele><time>2026-04-30T09:45:42Z</time></trkpt><trkpt lat="42.5250449156775" lon="11.74991756514392"><ele>366.0</ele><time>2026-04-30T09:45:43Z</time></trkpt><trkpt lat="42.525194699409454" lon="11.750098573145445"><ele>366.0</ele><time>2026-04-30T09:45:44Z</time></trkpt><trkpt lat="42.525354578736206" lon="11.75027669329487"><ele>366.3333333333333</ele><time>2026-04-30T09:45:45Z</time></trkpt><trkpt lat="42.52550781835155" lon="11.750463595762493"><ele>366.66666666666663</ele><time>2026-04-30T09:45:46Z</time></trkpt><trkpt lat="42.52566716389095" lon="11.750654485168468"><ele>367.0</ele><time>2026-04-30T09:45:47Z</time></trkpt><trkpt lat="42.52581228726042" lon="11.750869077469488"><ele>366.66666666666663</ele><time>2026-04-30T09:45:47.999Z</time></trkpt><trkpt lat="42.52596194112173" lon="11.751068426344663"><ele>366.3333333333333</ele><time>2026-04-30T09:45:48.999Z</time></trkpt><trkpt lat="42.52611220026556" lon="11.751272188206949"><ele>366.0</ele><time>2026-04-30T09:45:49.999Z</time></trkpt><trkpt lat="42.52626262007065" lon="11.751476746499204"><ele>367.6666666666667</ele><time>2026-04-30T09:45:50.999Z</time></trkpt><trkpt lat="42.526424083637494" lon="11.75166586844405"><ele>369.33333333333337</ele><time>2026-04-30T09:45:51.999Z</time></trkpt><trkpt lat="42.52657384718895" lon="11.75187048615001"><ele>371.0</ele><time>2026-04-30T09:45:52.999Z</time></trkpt><trkpt lat="42.52672028953891" lon="11.752070467932132"><ele>371.0</ele><time>2026-04-30T09:45:53.999Z</time></trkpt><trkpt lat="42.526867706136684" lon="11.752272452554136"><ele>371.0</ele><time>2026-04-30T09:45:54.999Z</time></trkpt><trkpt lat="42.52701764532173" lon="11.752475031782607"><ele>371.0</ele><time>2026-04-30T09:45:55.999Z</time></trkpt><trkpt lat="42.52717010671553" lon="11.752674215347188"><ele>371.33333333333337</ele><time>2026-04-30T09:45:56.999Z</time></trkpt><trkpt lat="42.527334466784325" lon="11.752849696621077"><ele>371.6666666666667</ele><time>2026-04-30T09:45:57.999Z</time></trkpt><trkpt lat="42.52750740471843" lon="11.753008655038219"><ele>372.0</ele><time>2026-04-30T09:45:58.999Z</time></trkpt><trkpt lat="42.52768388402889" lon="11.753168240695699"><ele>372.0</ele><time>2026-04-30T09:45:59.999Z</time></trkpt><trkpt lat="42.527847472519674" lon="11.753318763220067"><ele>372.0</ele><time>2026-04-30T09:46:00.999Z</time></trkpt><trkpt lat="42.52799050643214" lon="11.753501664465515"><ele>372.0</ele><time>2026-04-30T09:46:01.999Z</time></trkpt><trkpt lat="42.52813315498706" lon="11.753695208301583"><ele>372.3333333333333</ele><time>2026-04-30T09:46:02.999Z</time></trkpt><trkpt lat="42.52827129572341" lon="11.753898642692736"><ele>372.66666666666663</ele><time>2026-04-30T09:46:03.999Z</time></trkpt><trkpt lat="42.5284229143893" lon="11.754086261312919"><ele>373.0</ele><time>2026-04-30T09:46:04.999Z</time></trkpt><trkpt lat="42.52856960361641" lon="11.754277388292968"><ele>374.0</ele><time>2026-04-30T09:46:05.999Z</time></trkpt><trkpt lat="42.528749326768434" lon="11.754429059063124"><ele>375.0</ele><time>2026-04-30T09:46:06.999Z</time></trkpt><trkpt lat="42.52894725333391" lon="11.754549511746774"><ele>376.0</ele><time>2026-04-30T09:46:07.999Z</time></trkpt><trkpt lat="42.529131761405566" lon="11.75470278660866"><ele>376.0</ele><time>2026-04-30T09:46:08.999Z</time></trkpt><trkpt lat="42.52931038665012" lon="11.754853909114646"><ele>376.0</ele><time>2026-04-30T09:46:09.999Z</time></trkpt><trkpt lat="42.52946107769678" lon="11.755040316644964"><ele>376.0</ele><time>2026-04-30T09:46:10.999Z</time></trkpt><trkpt lat="42.52958960295311" lon="11.75524605084074"><ele>376.66666666666663</ele><time>2026-04-30T09:46:11.999Z</time></trkpt><trkpt lat="42.52971573959112" lon="11.75546827384655"><ele>377.3333333333333</ele><time>2026-04-30T09:46:12.999Z</time></trkpt><trkpt lat="42.52984345007435" lon="11.755699738161569"><ele>378.0</ele><time>2026-04-30T09:46:13.999Z</time></trkpt><trkpt lat="42.52996996432456" lon="11.755928758325618"><ele>379.0</ele><time>2026-04-30T09:46:14.999Z</time></trkpt><trkpt lat="42.53009759782962" lon="11.756156065878287"><ele>380.0</ele><time>2026-04-30T09:46:15.999Z</time></trkpt><trkpt lat="42.53022579773727" lon="11.756379052281867"><ele>381.0</ele><time>2026-04-30T09:46:16.999Z</time></trkpt><trkpt lat="42.53037648754095" lon="11.756580999034055"><ele>381.0</ele><time>2026-04-30T09:46:17.999Z</time></trkpt><trkpt lat="42.530538816461295" lon="11.756771949750531"><ele>381.0</ele><time>2026-04-30T09:46:18.999Z</time></trkpt><trkpt lat="42.530718161700676" lon="11.756934022430706"><ele>381.0</ele><time>2026-04-30T09:46:19.999Z</time></trkpt><trkpt lat="42.53089568176917" lon="11.7570818535052"><ele>381.0</ele><time>2026-04-30T09:46:20.999Z</time></trkpt><trkpt lat="42.531066240133555" lon="11.75724098868808"><ele>381.0</ele><time>2026-04-30T09:46:21.999Z</time></trkpt><trkpt lat="42.53122736144413" lon="11.757383208614497"><ele>381.0</ele><time>2026-04-30T09:46:22.999Z</time></trkpt><trkpt lat="42.53140488487924" lon="11.75749829866607"><ele>381.0</ele><time>2026-04-30T09:46:23.999Z</time></trkpt><trkpt lat="42.53160579878585" lon="11.757580535150788"><ele>381.0</ele><time>2026-04-30T09:46:24.999Z</time></trkpt><trkpt lat="42.53181300830962" lon="11.757644167445426"><ele>381.0</ele><time>2026-04-30T09:46:25.999Z</time></trkpt><trkpt lat="42.532024501668815" lon="11.757645598949956"><ele>380.3333333333333</ele><time>2026-04-30T09:46:26.999Z</time></trkpt><trkpt lat="42.53223309940347" lon="11.75768011140821"><ele>379.66666666666663</ele><time>2026-04-30T09:46:27.999Z</time></trkpt><trkpt lat="42.53244578513493" lon="11.75773027430678"><ele>379.0</ele><time>2026-04-30T09:46:28.999Z</time></trkpt><trkpt lat="42.532653268228046" lon="11.757779108999992"><ele>379.0</ele><time>2026-04-30T09:46:29.999Z</time></trkpt><trkpt lat="42.53285866005953" lon="11.757818891648098"><ele>379.0</ele><time>2026-04-30T09:46:30.999Z</time></trkpt><trkpt lat="42.533061398602996" lon="11.757850438624056"><ele>379.0</ele><time>2026-04-30T09:46:31.999Z</time></trkpt><trkpt lat="42.53325743176305" lon="11.75787375504022"><ele>381.3333333333333</ele><time>2026-04-30T09:46:32.999Z</time></trkpt><trkpt lat="42.53344902890561" lon="11.757899626806095"><ele>383.66666666666663</ele><time>2026-04-30T09:46:33.999Z</time></trkpt><trkpt lat="42.53363352045042" lon="11.757940780106305"><ele>386.0</ele><time>2026-04-30T09:46:34.999Z</time></trkpt><trkpt lat="42.533802345124116" lon="11.758017555004749"><ele>389.66666666666663</ele><time>2026-04-30T09:46:35.999Z</time></trkpt><trkpt lat="42.53394836300056" lon="11.758160687156698"><ele>393.33333333333337</ele><time>2026-04-30T09:46:36.999Z</time></trkpt><trkpt lat="42.53410104148344" lon="11.758261504287987"><ele>397.0</ele><time>2026-04-30T09:46:37.999Z</time></trkpt><trkpt lat="42.53424424969346" lon="11.758390861808172"><ele>397.0</ele><time>2026-04-30T09:46:38.999Z</time></trkpt><trkpt lat="42.53439691444617" lon="11.75852391999752"><ele>397.0</ele><time>2026-04-30T09:46:39.999Z</time></trkpt><trkpt lat="42.5345517719694" lon="11.758662999525187"><ele>397.0</ele><time>2026-04-30T09:46:40.999Z</time></trkpt><trkpt lat="42.53470149228582" lon="11.758809302253038"><ele>398.0</ele><time>2026-04-30T09:46:41.999Z</time></trkpt><trkpt lat="42.53483867419284" lon="11.758973842751592"><ele>399.0</ele><time>2026-04-30T09:46:42.999Z</time></trkpt><trkpt lat="42.53496181849253" lon="11.759168082110092"><ele>400.0</ele><time>2026-04-30T09:46:43.999Z</time></trkpt><trkpt lat="42.5350395480002" lon="11.75941223281849"><ele>400.0</ele><time>2026-04-30T09:46:44.999Z</time></trkpt><trkpt lat="42.535137733581365" lon="11.759641975603012"><ele>400.0</ele><time>2026-04-30T09:46:45.999Z</time></trkpt><trkpt lat="42.53523711554162" lon="11.759878630837157"><ele>400.0</ele><time>2026-04-30T09:46:46.999Z</time></trkpt><trkpt lat="42.53533800861876" lon="11.760118884400875"><ele>402.0</ele><time>2026-04-30T09:46:47.998Z</time></trkpt><trkpt lat="42.535442038337756" lon="11.760359362354464"><ele>404.0</ele><time>2026-04-30T09:46:48.998Z</time></trkpt><trkpt lat="42.53554460200697" lon="11.760601886213122"><ele>406.0</ele><time>2026-04-30T09:46:49.998Z</time></trkpt><trkpt lat="42.53564610894582" lon="11.760848085390691"><ele>405.33333333333337</ele><time>2026-04-30T09:46:50.998Z</time></trkpt><trkpt lat="42.53575040416335" lon="11.761088625874615"><ele>404.66666666666663</ele><time>2026-04-30T09:46:51.998Z</time></trkpt><trkpt lat="42.53585587345546" lon="11.761328163918394"><ele>404.0</ele><time>2026-04-30T09:46:52.998Z</time></trkpt><trkpt lat="42.53596693144709" lon="11.761559127401233"><ele>404.0</ele><time>2026-04-30T09:46:53.998Z</time></trkpt><trkpt lat="42.53609858353828" lon="11.761770665183414"><ele>404.0</ele><time>2026-04-30T09:46:54.998Z</time></trkpt><trkpt lat="42.53624959783166" lon="11.76195750800101"><ele>404.0</ele><time>2026-04-30T09:46:55.998Z</time></trkpt><trkpt lat="42.5364065220261" lon="11.762117117483031"><ele>405.66666666666663</ele><time>2026-04-30T09:46:56.998Z</time></trkpt><trkpt lat="42.53657533437905" lon="11.76225748088111"><ele>407.33333333333337</ele><time>2026-04-30T09:46:57.998Z</time></trkpt><trkpt lat="42.53675263288746" lon="11.76238490866084"><ele>409.0</ele><time>2026-04-30T09:46:58.998Z</time></trkpt><trkpt lat="42.53694395682179" lon="11.762503031814044"><ele>410.33333333333337</ele><time>2026-04-30T09:46:59.998Z</time></trkpt><trkpt lat="42.53713852221348" lon="11.762624757432707"><ele>411.66666666666663</ele><time>2026-04-30T09:47:00.998Z</time></trkpt><trkpt lat="42.53732855217342" lon="11.762752082625283"><ele>413.0</ele><time>2026-04-30T09:47:01.998Z</time></trkpt><trkpt lat="42.53751885436639" lon="11.76288693178683"><ele>413.0</ele><time>2026-04-30T09:47:02.998Z</time></trkpt><trkpt lat="42.53770753784265" lon="11.76302228911394"><ele>413.0</ele><time>2026-04-30T09:47:03.998Z</time></trkpt><trkpt lat="42.53790023890937" lon="11.763155438465718"><ele>413.0</ele><time>2026-04-30T09:47:04.998Z</time></trkpt><trkpt lat="42.538095833238906" lon="11.763285534383861"><ele>413.3333333333333</ele><time>2026-04-30T09:47:06Z</time></trkpt><trkpt lat="42.538291099778654" lon="11.763417346933128"><ele>413.66666666666663</ele><time>2026-04-30T09:47:07Z</time></trkpt><trkpt lat="42.53848159046543" lon="11.763547789738357"><ele>414.0</ele><time>2026-04-30T09:47:08Z</time></trkpt><trkpt lat="42.53866975340303" lon="11.763680570682322"><ele>415.33333333333337</ele><time>2026-04-30T09:47:09Z</time></trkpt><trkpt lat="42.53885742090146" lon="11.763812571730288"><ele>416.6666666666667</ele><time>2026-04-30T09:47:10Z</time></trkpt><trkpt lat="42.53904717593301" lon="11.763945457005983"><ele>418.0</ele><time>2026-04-30T09:47:11Z</time></trkpt><trkpt lat="42.539238690535086" lon="11.764078150050114"><ele>418.0</ele><time>2026-04-30T09:47:12Z</time></trkpt><trkpt lat="42.53943389938746" lon="11.764211654139304"><ele>418.0</ele><time>2026-04-30T09:47:13Z</time></trkpt><trkpt lat="42.53963071149073" lon="11.764338218188156"><ele>418.0</ele><time>2026-04-30T09:47:14Z</time></trkpt><trkpt lat="42.53983341753424" lon="11.764447459439445"><ele>420.0</ele><time>2026-04-30T09:47:15Z</time></trkpt><trkpt lat="42.540041765471756" lon="11.76452715383274"><ele>422.0</ele><time>2026-04-30T09:47:16Z</time></trkpt><trkpt lat="42.54025078367877" lon="11.76459825306292"><ele>424.0</ele><time>2026-04-30T09:47:17Z</time></trkpt><trkpt lat="42.54045659196768" lon="11.764672933962881"><ele>425.0</ele><time>2026-04-30T09:47:18Z</time></trkpt><trkpt lat="42.540661631506026" lon="11.764746526001217"><ele>426.0</ele><time>2026-04-30T09:47:19Z</time></trkpt><trkpt lat="42.540866310728724" lon="11.76482354875706"><ele>427.0</ele><time>2026-04-30T09:47:20Z</time></trkpt><trkpt lat="42.54106822829154" lon="11.764900507604068"><ele>424.6666666666667</ele><time>2026-04-30T09:47:21Z</time></trkpt><trkpt lat="42.5412680261996" lon="11.764971185995265"><ele>422.33333333333337</ele><time>2026-04-30T09:47:22Z</time></trkpt><trkpt lat="42.54146038204643" lon="11.765037299532624"><ele>420.0</ele><time>2026-04-30T09:47:23Z</time></trkpt><trkpt lat="42.54164532150838" lon="11.76510088084476"><ele>420.0</ele><time>2026-04-30T09:47:24Z</time></trkpt><trkpt lat="42.54181883621106" lon="11.765166891768025"><ele>420.0</ele><time>2026-04-30T09:47:25Z</time></trkpt><trkpt lat="42.54197864785787" lon="11.76522735775572"><ele>420.0</ele><time>2026-04-30T09:47:26Z</time></trkpt><trkpt lat="42.542125814458686" lon="11.765281523709467"><ele>420.75</ele><time>2026-04-30T09:47:27Z</time></trkpt><trkpt lat="42.542266755884626" lon="11.765329840223172"><ele>421.5</ele><time>2026-04-30T09:47:28Z</time></trkpt><trkpt lat="42.54240204358469" lon="11.765361193547637"><ele>422.25</ele><time>2026-04-30T09:47:29Z</time></trkpt><trkpt lat="42.542538366026115" lon="11.765378057385353"><ele>423.0</ele><time>2026-04-30T09:47:30Z</time></trkpt><trkpt lat="42.54267708876876" lon="11.765386115564308"><ele>423.0</ele><time>2026-04-30T09:47:31Z</time></trkpt><trkpt lat="42.54282341991256" lon="11.765377525393962"><ele>423.0</ele><time>2026-04-30T09:47:32Z</time></trkpt><trkpt lat="42.54297574812687" lon="11.765355353122608"><ele>423.0</ele><time>2026-04-30T09:47:33Z</time></trkpt><trkpt lat="42.54312494602171" lon="11.7653290519842"><ele>423.59999999999997</ele><time>2026-04-30T09:47:34Z</time></trkpt><trkpt lat="42.543247540326696" lon="11.765310013632783"><ele>424.2</ele><time>2026-04-30T09:47:35Z</time></trkpt><trkpt lat="42.54334711080984" lon="11.765304634352107"><ele>424.8</ele><time>2026-04-30T09:47:36Z</time></trkpt><trkpt lat="42.54341952965562" lon="11.765304433293974"><ele>425.4</ele><time>2026-04-30T09:47:37Z</time></trkpt><trkpt lat="42.54348691088405" lon="11.765294334341633"><ele>426.0</ele><time>2026-04-30T09:47:39Z</time></trkpt><trkpt lat="42.543579382077944" lon="11.76526997780245"><ele>426.0</ele><time>2026-04-30T09:48:06.999Z</time></trkpt><trkpt lat="42.543648084406186" lon="11.765254596608695"><ele>426.0</ele><time>2026-04-30T09:48:07.999Z</time></trkpt><trkpt lat="42.54372079175912" lon="11.765240993201287"><ele>426.0</ele><time>2026-04-30T09:48:08.999Z</time></trkpt><trkpt lat="42.5438078182932" lon="11.765229491559836"><ele>426.0</ele><time>2026-04-30T09:48:09.999Z</time></trkpt><trkpt lat="42.54390312087033" lon="11.765211806865416"><ele>426.0</ele><time>2026-04-30T09:48:10.999Z</time></trkpt><trkpt lat="42.544004383975" lon="11.765193173779512"><ele>426.0</ele><time>2026-04-30T09:48:11.999Z</time></trkpt><trkpt lat="42.54410090263846" lon="11.76517780155137"><ele>426.4</ele><time>2026-04-30T09:48:12.999Z</time></trkpt><trkpt lat="42.544201448164515" lon="11.765165381796525"><ele>426.8</ele><time>2026-04-30T09:48:13.999Z</time></trkpt><trkpt lat="42.54430491600204" lon="11.765150972583493"><ele>427.19999999999993</ele><time>2026-04-30T09:48:14.999Z</time></trkpt><trkpt lat="42.544409864807314" lon="11.765136162013665"><ele>427.59999999999997</ele><time>2026-04-30T09:48:15.999Z</time></trkpt><trkpt lat="42.54451704786925" lon="11.765124246434906"><ele>428.0</ele><time>2026-04-30T09:48:16.999Z</time></trkpt><trkpt lat="42.544623759953" lon="11.765107527970006"><ele>428.0</ele><time>2026-04-30T09:48:17.999Z</time></trkpt><trkpt lat="42.54472980434432" lon="11.765092404840265"><ele>427.99999999999994</ele><time>2026-04-30T09:48:18.999Z</time></trkpt><trkpt lat="42.54483279644558" lon="11.765074792660903"><ele>427.99999999999994</ele><time>2026-04-30T09:48:19.999Z</time></trkpt><trkpt lat="42.54492927954549" lon="11.765048608108486"><ele>428.0</ele><time>2026-04-30T09:48:20.999Z</time></trkpt><trkpt lat="42.54501341359301" lon="11.765019577508623"><ele>428.0</ele><time>2026-04-30T09:48:21.999Z</time></trkpt><trkpt lat="42.54509073465864" lon="11.764992925250217"><ele>428.0</ele><time>2026-04-30T09:48:22.999Z</time></trkpt><trkpt lat="42.54516107117947" lon="11.764976062865736"><ele>427.99999999999994</ele><time>2026-04-30T09:48:23.999Z</time></trkpt><trkpt lat="42.54527467727497" lon="11.764986699087787"><ele>427.99999999999994</ele><time>2026-04-30T09:48:25.999Z</time></trkpt><trkpt lat="42.54537906303685" lon="11.765102879946937"><ele>428.0</ele><time>2026-04-30T09:48:27.999Z</time></trkpt><trkpt lat="42.54544499746177" lon="11.76518821550628"><ele>428.0</ele><time>2026-04-30T09:48:28.999Z</time></trkpt><trkpt lat="42.54551089963812" lon="11.765289953522686"><ele>428.25</ele><time>2026-04-30T09:48:29.999Z</time></trkpt><trkpt lat="42.545590266822785" lon="11.765386270950641"><ele>428.5</ele><time>2026-04-30T09:48:30.999Z</time></trkpt><trkpt lat="42.545668546836126" lon="11.765497528167726"><ele>428.75</ele><time>2026-04-30T09:48:31.999Z</time></trkpt><trkpt lat="42.545743768349205" lon="11.765615902251136"><ele>429.0</ele><time>2026-04-30T09:48:32.999Z</time></trkpt><trkpt lat="42.54580322968044" lon="11.765756913558144"><ele>429.0</ele><time>2026-04-30T09:48:33.999Z</time></trkpt><trkpt lat="42.545869690898776" lon="11.765893694202783"><ele>429.0</ele><time>2026-04-30T09:48:34.999Z</time></trkpt><trkpt lat="42.54593041433024" lon="11.766041314549742"><ele>429.0</ele><time>2026-04-30T09:48:35.999Z</time></trkpt><trkpt lat="42.545986346644156" lon="11.766193184587296"><ele>429.0</ele><time>2026-04-30T09:48:36.999Z</time></trkpt><trkpt lat="42.54603538860031" lon="11.766352324283075"><ele>428.75</ele><time>2026-04-30T09:48:37.999Z</time></trkpt><trkpt lat="42.54607412077963" lon="11.766515068937677"><ele>428.5</ele><time>2026-04-30T09:48:38.999Z</time></trkpt><trkpt lat="42.546110607258996" lon="11.766719897490608"><ele>428.25</ele><time>2026-04-30T09:48:39.999Z</time></trkpt><trkpt lat="42.54613312233526" lon="11.766909205210776"><ele>428.0</ele><time>2026-04-30T09:48:40.999Z</time></trkpt><trkpt lat="42.546142950060656" lon="11.767056814228477"><ele>428.0</ele><time>2026-04-30T09:48:41.999Z</time></trkpt><trkpt lat="42.54614900928319" lon="11.767231630244096"><ele>428.0</ele><time>2026-04-30T09:48:42.999Z</time></trkpt><trkpt lat="42.546155358883574" lon="11.767407920134845"><ele>428.0</ele><time>2026-04-30T09:48:43.999Z</time></trkpt><trkpt lat="42.54616419165268" lon="11.76759045986034"><ele>428.0</ele><time>2026-04-30T09:48:44.999Z</time></trkpt><trkpt lat="42.54621329318476" lon="11.767766000386084"><ele>430.75</ele><time>2026-04-30T09:48:45.999Z</time></trkpt><trkpt lat="42.54623509854972" lon="11.767943840662634"><ele>433.5</ele><time>2026-04-30T09:48:46.999Z</time></trkpt><trkpt lat="42.54625514693759" lon="11.768123369286986"><ele>436.25</ele><time>2026-04-30T09:48:47.999Z</time></trkpt><trkpt lat="42.54626631061077" lon="11.768304140198854"><ele>439.0</ele><time>2026-04-30T09:48:48.998Z</time></trkpt><trkpt lat="42.546259726588275" lon="11.768480676276175"><ele>438.5</ele><time>2026-04-30T09:48:49.998Z</time></trkpt><trkpt lat="42.546194631895006" lon="11.768648190534783"><ele>438.0</ele><time>2026-04-30T09:48:50.998Z</time></trkpt><trkpt lat="42.54617414408431" lon="11.768820023599243"><ele>437.5</ele><time>2026-04-30T09:48:51.998Z</time></trkpt><trkpt lat="42.546147175062124" lon="11.768987190274194"><ele>437.0</ele><time>2026-04-30T09:48:52.998Z</time></trkpt><trkpt lat="42.546114095543956" lon="11.76915399404258"><ele>437.0</ele><time>2026-04-30T09:48:53.998Z</time></trkpt><trkpt lat="42.54607833371056" lon="11.76931153279009"><ele>437.0</ele><time>2026-04-30T09:48:54.998Z</time></trkpt><trkpt lat="42.54603499528777" lon="11.769472953852091"><ele>437.0</ele><time>2026-04-30T09:48:55.998Z</time></trkpt><trkpt lat="42.54598554827928" lon="11.769625878320715"><ele>437.0</ele><time>2026-04-30T09:48:56.998Z</time></trkpt><trkpt lat="42.54592048505497" lon="11.769785953431581"><ele>438.0</ele><time>2026-04-30T09:48:57.998Z</time></trkpt><trkpt lat="42.54585005814117" lon="11.769938439202933"><ele>439.0</ele><time>2026-04-30T09:48:58.998Z</time></trkpt><trkpt lat="42.545768544627514" lon="11.770099858502313"><ele>440.0</ele><time>2026-04-30T09:48:59.998Z</time></trkpt><trkpt lat="42.5456867609483" lon="11.770261812391578"><ele>441.0</ele><time>2026-04-30T09:49:00.998Z</time></trkpt><trkpt lat="42.5456053459557" lon="11.770423036349333"><ele>441.0</ele><time>2026-04-30T09:49:01.998Z</time></trkpt><trkpt lat="42.54552417218558" lon="11.770582403910861"><ele>441.0</ele><time>2026-04-30T09:49:02.998Z</time></trkpt><trkpt lat="42.545439830415276" lon="11.7707490624357"><ele>441.0</ele><time>2026-04-30T09:49:03.998Z</time></trkpt><trkpt lat="42.54535418501467" lon="11.770919796149517"><ele>441.0</ele><time>2026-04-30T09:49:04.998Z</time></trkpt><trkpt lat="42.545266729526254" lon="11.77109634101289"><ele>441.0</ele><time>2026-04-30T09:49:05.998Z</time></trkpt><trkpt lat="42.54517821414047" lon="11.771275025869935"><ele>441.0</ele><time>2026-04-30T09:49:06.998Z</time></trkpt><trkpt lat="42.54508877460486" lon="11.77145847900143"><ele>441.0</ele><time>2026-04-30T09:49:07.998Z</time></trkpt><trkpt lat="42.544997324465314" lon="11.771645956704047"><ele>441.0</ele><time>2026-04-30T09:49:08.998Z</time></trkpt><trkpt lat="42.54490858119933" lon="11.771842198892166"><ele>441.0</ele><time>2026-04-30T09:49:09.998Z</time></trkpt><trkpt lat="42.544830937636895" lon="11.772055789025286"><ele>441.0</ele><time>2026-04-30T09:49:11Z</time></trkpt><trkpt lat="42.54477784036052" lon="11.772283127272678"><ele>440.0</ele><time>2026-04-30T09:49:12Z</time></trkpt><trkpt lat="42.54477434484577" lon="11.772525170901071"><ele>439.0</ele><time>2026-04-30T09:49:13Z</time></trkpt><trkpt lat="42.54478564434365" lon="11.77277543459725"><ele>438.0</ele><time>2026-04-30T09:49:14Z</time></trkpt><trkpt lat="42.544801996678686" lon="11.7730235117318"><ele>437.66666666666663</ele><time>2026-04-30T09:49:15Z</time></trkpt><trkpt lat="42.54483270521522" lon="11.773272402653278"><ele>437.3333333333333</ele><time>2026-04-30T09:49:16Z</time></trkpt><trkpt lat="42.54488680459623" lon="11.773509646639377"><ele>437.0</ele><time>2026-04-30T09:49:17Z</time></trkpt><trkpt lat="42.54493709236669" lon="11.773749900592698"><ele>436.66666666666663</ele><time>2026-04-30T09:49:18Z</time></trkpt><trkpt lat="42.54499894251194" lon="11.773977111915935"><ele>436.33333333333337</ele><time>2026-04-30T09:49:19Z</time></trkpt><trkpt lat="42.54507025396871" lon="11.774204675068741"><ele>436.0</ele><time>2026-04-30T09:49:20Z</time></trkpt><trkpt lat="42.54511630817487" lon="11.774444871794804"><ele>436.0</ele><time>2026-04-30T09:49:21Z</time></trkpt><trkpt lat="42.54515720887704" lon="11.774692150870365"><ele>436.0</ele><time>2026-04-30T09:49:22Z</time></trkpt><trkpt lat="42.545192587864896" lon="11.774938022966586"><ele>436.0</ele><time>2026-04-30T09:49:23Z</time></trkpt><trkpt lat="42.545189914704935" lon="11.77519298042584"><ele>435.6666666666667</ele><time>2026-04-30T09:49:24Z</time></trkpt><trkpt lat="42.545200850796945" lon="11.775451411655363"><ele>435.33333333333337</ele><time>2026-04-30T09:49:25Z</time></trkpt><trkpt lat="42.54523016665357" lon="11.775703099355072"><ele>435.0</ele><time>2026-04-30T09:49:26Z</time></trkpt><trkpt lat="42.545241971427544" lon="11.77596336849126"><ele>436.66666666666663</ele><time>2026-04-30T09:49:27Z</time></trkpt><trkpt lat="42.54525367850821" lon="11.77621836350129"><ele>438.3333333333333</ele><time>2026-04-30T09:49:28Z</time></trkpt><trkpt lat="42.545267439590305" lon="11.776467247176456"><ele>440.0</ele><time>2026-04-30T09:49:29Z</time></trkpt><trkpt lat="42.54528295260416" lon="11.77670900679219"><ele>439.3333333333333</ele><time>2026-04-30T09:49:30Z</time></trkpt><trkpt lat="42.545303036568725" lon="11.776946672729819"><ele>438.66666666666663</ele><time>2026-04-30T09:49:31Z</time></trkpt><trkpt lat="42.54534739824078" lon="11.77718076098571"><ele>438.0</ele><time>2026-04-30T09:49:32Z</time></trkpt><trkpt lat="42.54541263115447" lon="11.777408170433544"><ele>437.66666666666663</ele><time>2026-04-30T09:49:33Z</time></trkpt><trkpt lat="42.545499700384774" lon="11.777634644962852"><ele>437.3333333333333</ele><time>2026-04-30T09:49:34Z</time></trkpt><trkpt lat="42.545593547365236" lon="11.7778496734211"><ele>437.0</ele><time>2026-04-30T09:49:35Z</time></trkpt><trkpt lat="42.54570223934853" lon="11.778052609903895"><ele>437.0</ele><time>2026-04-30T09:49:36Z</time></trkpt><trkpt lat="42.5458350192002" lon="11.778229028323626"><ele>437.0</ele><time>2026-04-30T09:49:37Z</time></trkpt><trkpt lat="42.54599765553298" lon="11.778370871410397"><ele>437.0</ele><time>2026-04-30T09:49:38Z</time></trkpt><trkpt lat="42.54617421443176" lon="11.778489189522643"><ele>437.0</ele><time>2026-04-30T09:49:39Z</time></trkpt><trkpt lat="42.546354666039825" lon="11.778595275339683"><ele>437.0</ele><time>2026-04-30T09:49:40Z</time></trkpt><trkpt lat="42.54653140759182" lon="11.778707552618611"><ele>437.0</ele><time>2026-04-30T09:49:41Z</time></trkpt><trkpt lat="42.546700463029694" lon="11.778837457316751"><ele>437.0</ele><time>2026-04-30T09:49:42Z</time></trkpt><trkpt lat="42.54686088642119" lon="11.77899808216179"><ele>437.0</ele><time>2026-04-30T09:49:43Z</time></trkpt><trkpt lat="42.546992878878854" lon="11.779203927979188"><ele>437.0</ele><time>2026-04-30T09:49:44Z</time></trkpt><trkpt lat="42.54710902963686" lon="11.779431778312983"><ele>438.0</ele><time>2026-04-30T09:49:45Z</time></trkpt><trkpt lat="42.54721720996373" lon="11.779671089488799"><ele>439.0</ele><time>2026-04-30T09:49:46Z</time></trkpt><trkpt lat="42.54732745782863" lon="11.779913410726794"><ele>440.0</ele><time>2026-04-30T09:49:47Z</time></trkpt><trkpt lat="42.547437705892115" lon="11.780155732389378"><ele>442.0</ele><time>2026-04-30T09:49:48Z</time></trkpt><trkpt lat="42.54754735741488" lon="11.780396742878866"><ele>444.0</ele><time>2026-04-30T09:49:49Z</time></trkpt><trkpt lat="42.5476697221759" lon="11.780626408608914"><ele>446.0</ele><time>2026-04-30T09:49:50Z</time></trkpt><trkpt lat="42.547764913149635" lon="11.780875626710637"><ele>448.0</ele><time>2026-04-30T09:49:51Z</time></trkpt><trkpt lat="42.54787335365738" lon="11.781114726712275"><ele>450.0</ele><time>2026-04-30T09:49:51.999Z</time></trkpt><trkpt lat="42.54799644419231" lon="11.781345155364841"><ele>452.0</ele><time>2026-04-30T09:49:52.999Z</time></trkpt><trkpt lat="42.54810133325088" lon="11.781590244733927"><ele>452.0</ele><time>2026-04-30T09:49:53.999Z</time></trkpt><trkpt lat="42.54818899771809" lon="11.781848360245524"><ele>452.0</ele><time>2026-04-30T09:49:54.999Z</time></trkpt><trkpt lat="42.548280862788616" lon="11.782098372421153"><ele>452.0</ele><time>2026-04-30T09:49:55.999Z</time></trkpt><trkpt lat="42.54836189884612" lon="11.78235096374545"><ele>453.3333333333333</ele><time>2026-04-30T09:49:56.999Z</time></trkpt><trkpt lat="42.548433598943134" lon="11.782614949902147"><ele>454.66666666666663</ele><time>2026-04-30T09:49:57.999Z</time></trkpt><trkpt lat="42.548505039778455" lon="11.782875262180221"><ele>456.0</ele><time>2026-04-30T09:49:58.999Z</time></trkpt><trkpt lat="42.54857694315118" lon="11.783133869722668"><ele>456.0</ele><time>2026-04-30T09:49:59.999Z</time></trkpt><trkpt lat="42.54864949684676" lon="11.783398640427825"><ele>456.0</ele><time>2026-04-30T09:50:00.999Z</time></trkpt><trkpt lat="42.54872044908884" lon="11.783658596001581"><ele>456.0</ele><time>2026-04-30T09:50:01.999Z</time></trkpt><trkpt lat="42.54879107491491" lon="11.783917355489907"><ele>457.66666666666663</ele><time>2026-04-30T09:50:02.999Z</time></trkpt><trkpt lat="42.54886320953118" lon="11.784181888612808"><ele>459.3333333333333</ele><time>2026-04-30T09:50:03.999Z</time></trkpt><trkpt lat="42.54893491904676" lon="11.784445089392825"><ele>461.0</ele><time>2026-04-30T09:50:04.999Z</time></trkpt><trkpt lat="42.54900574204412" lon="11.784705036444977"><ele>462.66666666666663</ele><time>2026-04-30T09:50:05.999Z</time></trkpt><trkpt lat="42.54907745379472" lon="11.784968245448905"><ele>464.33333333333337</ele><time>2026-04-30T09:50:06.999Z</time></trkpt><trkpt lat="42.54914984769698" lon="11.785232601978416"><ele>466.0</ele><time>2026-04-30T09:50:07.999Z</time></trkpt><trkpt lat="42.54922322580116" lon="11.785499197959084"><ele>466.33333333333337</ele><time>2026-04-30T09:50:08.999Z</time></trkpt><trkpt lat="42.54929754670068" lon="11.785764254346562"><ele>466.66666666666663</ele><time>2026-04-30T09:50:09.999Z</time></trkpt><trkpt lat="42.54937517302794" lon="11.786030969858906"><ele>467.0</ele><time>2026-04-30T09:50:10.999Z</time></trkpt><trkpt lat="42.54945410599071" lon="11.786297712077257"><ele>465.0</ele><time>2026-04-30T09:50:11.999Z</time></trkpt><trkpt lat="42.549534075501185" lon="11.786567957316446"><ele>463.0</ele><time>2026-04-30T09:50:12.999Z</time></trkpt><trkpt lat="42.54961208975687" lon="11.786838924104083"><ele>461.0</ele><time>2026-04-30T09:50:13.999Z</time></trkpt><trkpt lat="42.54968427897976" lon="11.787112422068862"><ele>460.66666666666663</ele><time>2026-04-30T09:50:14.999Z</time></trkpt><trkpt lat="42.54974847675502" lon="11.787390667347072"><ele>460.33333333333337</ele><time>2026-04-30T09:50:15.999Z</time></trkpt><trkpt lat="42.549805457005256" lon="11.78767843435944"><ele>460.0</ele><time>2026-04-30T09:50:16.999Z</time></trkpt><trkpt lat="42.54984636169547" lon="11.787950287949181"><ele>460.0</ele><time>2026-04-30T09:50:17.999Z</time></trkpt><trkpt lat="42.54986759363041" lon="11.788224960431192"><ele>460.0</ele><time>2026-04-30T09:50:18.999Z</time></trkpt><trkpt lat="42.549887454615174" lon="11.788506748303439"><ele>460.0</ele><time>2026-04-30T09:50:19.999Z</time></trkpt><trkpt lat="42.54989457958529" lon="11.788786412384825"><ele>460.33333333333337</ele><time>2026-04-30T09:50:20.999Z</time></trkpt><trkpt lat="42.549882113022335" lon="11.789068153779661"><ele>460.66666666666663</ele><time>2026-04-30T09:50:21.999Z</time></trkpt><trkpt lat="42.54987669476046" lon="11.789347683108044"><ele>461.0</ele><time>2026-04-30T09:50:22.999Z</time></trkpt><trkpt lat="42.549883035380866" lon="11.7896176131948"><ele>462.3333333333333</ele><time>2026-04-30T09:50:23.999Z</time></trkpt><trkpt lat="42.54992106584298" lon="11.78987883422637"><ele>463.66666666666663</ele><time>2026-04-30T09:50:24.999Z</time></trkpt><trkpt lat="42.549985383015255" lon="11.79013619658753"><ele>465.0</ele><time>2026-04-30T09:50:25.999Z</time></trkpt><trkpt lat="42.55006625405358" lon="11.79038524460572"><ele>465.0</ele><time>2026-04-30T09:50:26.999Z</time></trkpt><trkpt lat="42.55015894666775" lon="11.790627240378322"><ele>465.0</ele><time>2026-04-30T09:50:27.999Z</time></trkpt><trkpt lat="42.5502662844002" lon="11.790862081195598"><ele>465.0</ele><time>2026-04-30T09:50:28.999Z</time></trkpt><trkpt lat="42.55038432583359" lon="11.791093660102945"><ele>466.0</ele><time>2026-04-30T09:50:29.999Z</time></trkpt><trkpt lat="42.55050089962156" lon="11.791329055971199"><ele>467.0</ele><time>2026-04-30T09:50:30.999Z</time></trkpt><trkpt lat="42.550612162507555" lon="11.791570183353373"><ele>468.0</ele><time>2026-04-30T09:50:31.999Z</time></trkpt><trkpt lat="42.55072978997452" lon="11.791811565911704"><ele>471.0</ele><time>2026-04-30T09:50:32.999Z</time></trkpt><trkpt lat="42.55085488524275" lon="11.79204858207611"><ele>474.0</ele><time>2026-04-30T09:50:33.999Z</time></trkpt><trkpt lat="42.55098493880359" lon="11.792280045866706"><ele>477.0</ele><time>2026-04-30T09:50:34.999Z</time></trkpt><trkpt lat="42.55111957586271" lon="11.792505260667257"><ele>478.0</ele><time>2026-04-30T09:50:35.999Z</time></trkpt><trkpt lat="42.5512576820313" lon="11.792726678955043"><ele>479.0</ele><time>2026-04-30T09:50:36.999Z</time></trkpt><trkpt lat="42.551398188217725" lon="11.792945665164252"><ele>480.0</ele><time>2026-04-30T09:50:37.999Z</time></trkpt><trkpt lat="42.55154108028332" lon="11.793157211065077"><ele>480.0</ele><time>2026-04-30T09:50:38.999Z</time></trkpt><trkpt lat="42.5516833852625" lon="11.79336760945378"><ele>480.0</ele><time>2026-04-30T09:50:39.999Z</time></trkpt><trkpt lat="42.551818684867726" lon="11.793583834771638"><ele>480.0</ele><time>2026-04-30T09:50:40.999Z</time></trkpt><trkpt lat="42.55194442132656" lon="11.793807819505432"><ele>480.66666666666663</ele><time>2026-04-30T09:50:41.999Z</time></trkpt><trkpt lat="42.552061625183825" lon="11.79404097827948"><ele>481.3333333333333</ele><time>2026-04-30T09:50:42.999Z</time></trkpt><trkpt lat="42.55217096196371" lon="11.79427540014407"><ele>482.0</ele><time>2026-04-30T09:50:43.999Z</time></trkpt><trkpt lat="42.55227371616436" lon="11.794504100890936"><ele>483.3333333333333</ele><time>2026-04-30T09:50:44.999Z</time></trkpt><trkpt lat="42.552372149563034" lon="11.794730178923896"><ele>484.66666666666663</ele><time>2026-04-30T09:50:45.999Z</time></trkpt><trkpt lat="42.552483739293365" lon="11.794939649514744"><ele>486.0</ele><time>2026-04-30T09:50:46.999Z</time></trkpt><trkpt lat="42.55261342263274" lon="11.795134064193677"><ele>487.33333333333337</ele><time>2026-04-30T09:50:47.998Z</time></trkpt><trkpt lat="42.55275548139749" lon="11.795310945746138"><ele>488.6666666666667</ele><time>2026-04-30T09:50:48.998Z</time></trkpt><trkpt lat="42.55290255793117" lon="11.795480436543983"><ele>490.0</ele><time>2026-04-30T09:50:49.998Z</time></trkpt><trkpt lat="42.55304816064967" lon="11.795644265577975"><ele>490.33333333333337</ele><time>2026-04-30T09:50:50.998Z</time></trkpt><trkpt lat="42.55318876990481" lon="11.795818698479827"><ele>490.66666666666663</ele><time>2026-04-30T09:50:51.998Z</time></trkpt><trkpt lat="42.55332314656195" lon="11.796004515477888"><ele>491.0</ele><time>2026-04-30T09:50:52.998Z</time></trkpt><trkpt lat="42.55345299450889" lon="11.796196883369596"><ele>492.0</ele><time>2026-04-30T09:50:53.998Z</time></trkpt><trkpt lat="42.55358026842175" lon="11.796393732773558"><ele>493.0</ele><time>2026-04-30T09:50:54.998Z</time></trkpt><trkpt lat="42.55370928673088" lon="11.79659025493057"><ele>494.0</ele><time>2026-04-30T09:50:55.998Z</time></trkpt><trkpt lat="42.55383854955785" lon="11.796786358948637"><ele>495.3333333333333</ele><time>2026-04-30T09:50:56.998Z</time></trkpt><trkpt lat="42.553966152848695" lon="11.796985896196437"><ele>496.66666666666663</ele><time>2026-04-30T09:50:57.998Z</time></trkpt><trkpt lat="42.55409180246279" lon="11.797188677845806"><ele>498.0</ele><time>2026-04-30T09:50:58.998Z</time></trkpt><trkpt lat="42.5542154970417" lon="11.797392846899482"><ele>498.0</ele><time>2026-04-30T09:50:59.998Z</time></trkpt><trkpt lat="42.55433539986375" lon="11.797600355214392"><ele>498.0</ele><time>2026-04-30T09:51:00.998Z</time></trkpt><trkpt lat="42.55444946124104" lon="11.797814165616234"><ele>498.0</ele><time>2026-04-30T09:51:01.998Z</time></trkpt><trkpt lat="42.554558153365335" lon="11.798036510441651"><ele>497.0</ele><time>2026-04-30T09:51:02.998Z</time></trkpt><trkpt lat="42.55466062412738" lon="11.79826815371799"><ele>496.0</ele><time>2026-04-30T09:51:03.998Z</time></trkpt><trkpt lat="42.5547700081484" lon="11.798498650050727"><ele>495.0</ele><time>2026-04-30T09:51:04.998Z</time></trkpt><trkpt lat="42.55489740731149" lon="11.79871540128719"><ele>495.0</ele><time>2026-04-30T09:51:05.998Z</time></trkpt><trkpt lat="42.55503899166911" lon="11.798921291273729"><ele>495.0</ele><time>2026-04-30T09:51:06.998Z</time></trkpt><trkpt lat="42.55518611423306" lon="11.799120932719456"><ele>495.0</ele><time>2026-04-30T09:51:07.998Z</time></trkpt><trkpt lat="42.55534391685037" lon="11.79930223035815"><ele>496.0</ele><time>2026-04-30T09:51:08.998Z</time></trkpt><trkpt lat="42.555516700925615" lon="11.799469571081026"><ele>497.0</ele><time>2026-04-30T09:51:09.998Z</time></trkpt><trkpt lat="42.55569240089787" lon="11.799635152687701"><ele>498.0</ele><time>2026-04-30T09:51:10.998Z</time></trkpt><trkpt lat="42.55586554590156" lon="11.799804617578594"><ele>498.0</ele><time>2026-04-30T09:51:11.998Z</time></trkpt><trkpt lat="42.55603919835609" lon="11.799975656967346"><ele>498.0</ele><time>2026-04-30T09:51:12.998Z</time></trkpt><trkpt lat="42.55621334475826" lon="11.800145623953771"><ele>498.0</ele><time>2026-04-30T09:51:13.998Z</time></trkpt><trkpt lat="42.55638717600772" lon="11.800313924680484"><ele>498.66666666666663</ele><time>2026-04-30T09:51:14.998Z</time></trkpt><trkpt lat="42.55655999397518" lon="11.800483218669894"><ele>499.3333333333333</ele><time>2026-04-30T09:51:16Z</time></trkpt><trkpt lat="42.55672963701904" lon="11.8006547808563"><ele>500.0</ele><time>2026-04-30T09:51:17Z</time></trkpt><trkpt lat="42.55689893458132" lon="11.800827246355839"><ele>501.66666666666663</ele><time>2026-04-30T09:51:18Z</time></trkpt><trkpt lat="42.55706050712231" lon="11.801010364030574"><ele>503.33333333333337</ele><time>2026-04-30T09:51:19Z</time></trkpt><trkpt lat="42.55720791388252" lon="11.80121513032102"><ele>505.0</ele><time>2026-04-30T09:51:20Z</time></trkpt><trkpt lat="42.55732878799439" lon="11.801453577210273"><ele>505.0</ele><time>2026-04-30T09:51:21Z</time></trkpt><trkpt lat="42.55743085814419" lon="11.801713051693474"><ele>505.0</ele><time>2026-04-30T09:51:22Z</time></trkpt><trkpt lat="42.55753009508139" lon="11.801969340074042"><ele>505.0</ele><time>2026-04-30T09:51:23Z</time></trkpt><trkpt lat="42.5576306675058" lon="11.80223541204457"><ele>505.0</ele><time>2026-04-30T09:51:24Z</time></trkpt><trkpt lat="42.557724354503655" lon="11.802499973226684"><ele>505.0</ele><time>2026-04-30T09:51:25Z</time></trkpt><trkpt lat="42.55779568901101" lon="11.802768556271554"><ele>505.0</ele><time>2026-04-30T09:51:26Z</time></trkpt><trkpt lat="42.55791239444649" lon="11.802996901658577"><ele>504.6666666666667</ele><time>2026-04-30T09:51:27Z</time></trkpt><trkpt lat="42.5580370884392" lon="11.803214222608146"><ele>504.33333333333337</ele><time>2026-04-30T09:51:28Z</time></trkpt><trkpt lat="42.55819465284564" lon="11.803402351126994"><ele>504.0</ele><time>2026-04-30T09:51:29Z</time></trkpt><trkpt lat="42.55836501313029" lon="11.8035601457457"><ele>504.0</ele><time>2026-04-30T09:51:30Z</time></trkpt><trkpt lat="42.55853106848893" lon="11.803716944676179"><ele>504.0</ele><time>2026-04-30T09:51:31Z</time></trkpt><trkpt lat="42.558683519224346" lon="11.803901495376588"><ele>504.0</ele><time>2026-04-30T09:51:32Z</time></trkpt><trkpt lat="42.55879726263603" lon="11.804139491544728"><ele>507.33333333333337</ele><time>2026-04-30T09:51:33Z</time></trkpt><trkpt lat="42.55888333985358" lon="11.804393954242132"><ele>510.6666666666667</ele><time>2026-04-30T09:51:34Z</time></trkpt><trkpt lat="42.55893446743766" lon="11.804662222424101"><ele>514.0</ele><time>2026-04-30T09:51:35Z</time></trkpt><trkpt lat="42.558931944590455" lon="11.804926074424358"><ele>512.6666666666667</ele><time>2026-04-30T09:51:36Z</time></trkpt><trkpt lat="42.55890328761168" lon="11.805203373609652"><ele>511.33333333333337</ele><time>2026-04-30T09:51:37Z</time></trkpt><trkpt lat="42.558873566037505" lon="11.805478819687467"><ele>510.0</ele><time>2026-04-30T09:51:38Z</time></trkpt><trkpt lat="42.558847443674146" lon="11.805758611096474"><ele>510.66666666666663</ele><time>2026-04-30T09:51:39Z</time></trkpt><trkpt lat="42.558825366776304" lon="11.806037984672702"><ele>511.3333333333333</ele><time>2026-04-30T09:51:40Z</time></trkpt><trkpt lat="42.5588094538386" lon="11.806321955964599"><ele>512.0</ele><time>2026-04-30T09:51:41Z</time></trkpt><trkpt lat="42.55879698021153" lon="11.806601978963844"><ele>514.3333333333333</ele><time>2026-04-30T09:51:42Z</time></trkpt><trkpt lat="42.55878749321277" lon="11.806878366908435"><ele>516.6666666666666</ele><time>2026-04-30T09:51:43Z</time></trkpt><trkpt lat="42.55878635431005" lon="11.807147525189553"><ele>519.0</ele><time>2026-04-30T09:51:44Z</time></trkpt><trkpt lat="42.55880077521158" lon="11.807411786585945"><ele>519.3333333333334</ele><time>2026-04-30T09:51:45Z</time></trkpt><trkpt lat="42.55886238367225" lon="11.807667059540021"><ele>519.6666666666667</ele><time>2026-04-30T09:51:46Z</time></trkpt><trkpt lat="42.55893930790325" lon="11.807909943332414"><ele>520.0</ele><time>2026-04-30T09:51:47Z</time></trkpt><trkpt lat="42.55904533368838" lon="11.808153397448898"><ele>520.0</ele><time>2026-04-30T09:51:48Z</time></trkpt><trkpt lat="42.55917138484128" lon="11.808363170801607"><ele>520.0</ele><time>2026-04-30T09:51:49Z</time></trkpt><trkpt lat="42.55926742483664" lon="11.808585645678948"><ele>520.0</ele><time>2026-04-30T09:51:50Z</time></trkpt><trkpt lat="42.559333054308816" lon="11.808824478865727"><ele>520.3333333333334</ele><time>2026-04-30T09:51:51Z</time></trkpt><trkpt lat="42.55938064022608" lon="11.809082038325325"><ele>520.6666666666666</ele><time>2026-04-30T09:51:52Z</time></trkpt><trkpt lat="42.5594275122747" lon="11.809335539981747"><ele>521.0</ele><time>2026-04-30T09:51:52.999Z</time></trkpt><trkpt lat="42.55946779545505" lon="11.80957169943648"><ele>521.25</ele><time>2026-04-30T09:51:53.999Z</time></trkpt><trkpt lat="42.55949931487211" lon="11.809788280755477"><ele>521.5</ele><time>2026-04-30T09:51:54.999Z</time></trkpt><trkpt lat="42.55951846992423" lon="11.80998952139439"><ele>521.75</ele><time>2026-04-30T09:51:55.999Z</time></trkpt><trkpt lat="42.559516772276744" lon="11.810169053204444"><ele>522.0</ele><time>2026-04-30T09:51:56.999Z</time></trkpt><trkpt lat="42.55950000276443" lon="11.810326219679622"><ele>522.0</ele><time>2026-04-30T09:51:57.999Z</time></trkpt><trkpt lat="42.55949389308195" lon="11.810478910811046"><ele>522.0</ele><time>2026-04-30T09:51:58.999Z</time></trkpt><trkpt lat="42.5594323467573" lon="11.810595192104222"><ele>522.0</ele><time>2026-04-30T09:51:59.999Z</time></trkpt><trkpt lat="42.5593597304194" lon="11.81068202259866"><ele>522.0</ele><time>2026-04-30T09:52:00.999Z</time></trkpt><trkpt lat="42.559282204176746" lon="11.810748621591372"><ele>522.0</ele><time>2026-04-30T09:52:01.999Z</time></trkpt><trkpt lat="42.559187847282885" lon="11.81079160604161"><ele>522.0</ele><time>2026-04-30T09:52:02.999Z</time></trkpt><trkpt lat="42.55907651525933" lon="11.81080895484892"><ele>522.0</ele><time>2026-04-30T09:52:03.999Z</time></trkpt><trkpt lat="42.55896331082053" lon="11.810799888836497"><ele>522.0</ele><time>2026-04-30T09:52:04.999Z</time></trkpt><trkpt lat="42.55884751196685" lon="11.81079633311882"><ele>522.0</ele><time>2026-04-30T09:52:05.999Z</time></trkpt><trkpt lat="42.5587291153977" lon="11.810812613411692"><ele>521.5</ele><time>2026-04-30T09:52:06.999Z</time></trkpt><trkpt lat="42.55860614560569" lon="11.810845307833592"><ele>521.0</ele><time>2026-04-30T09:52:07.999Z</time></trkpt><trkpt lat="42.55846893626508" lon="11.810847303718583"><ele>520.5</ele><time>2026-04-30T09:52:08.999Z</time></trkpt><trkpt lat="42.558321654523" lon="11.81088263957925"><ele>520.0</ele><time>2026-04-30T09:52:09.999Z</time></trkpt><trkpt lat="42.55816842657705" lon="11.8109291984654"><ele>520.0</ele><time>2026-04-30T09:52:10.999Z</time></trkpt><trkpt lat="42.55800729613606" lon="11.81098676382478"><ele>520.0</ele><time>2026-04-30T09:52:11.999Z</time></trkpt><trkpt lat="42.557835252924136" lon="11.811060014133504"><ele>520.0</ele><time>2026-04-30T09:52:12.999Z</time></trkpt><trkpt lat="42.557658042649855" lon="11.811146594405594"><ele>522.3333333333334</ele><time>2026-04-30T09:52:13.999Z</time></trkpt><trkpt lat="42.55748329458506" lon="11.811250976341295"><ele>524.6666666666666</ele><time>2026-04-30T09:52:14.999Z</time></trkpt><trkpt lat="42.55731098894241" lon="11.811362479760906"><ele>527.0</ele><time>2026-04-30T09:52:15.999Z</time></trkpt><trkpt lat="42.55714037253772" lon="11.811472889950869"><ele>525.3333333333333</ele><time>2026-04-30T09:52:16.999Z</time></trkpt><trkpt lat="42.55696859973182" lon="11.811584048687712"><ele>523.6666666666666</ele><time>2026-04-30T09:52:17.999Z</time></trkpt><trkpt lat="42.55680319474976" lon="11.811714565991064"><ele>522.0</ele><time>2026-04-30T09:52:18.999Z</time></trkpt><trkpt lat="42.556625364131655" lon="11.811807875702476"><ele>522.6666666666666</ele><time>2026-04-30T09:52:19.999Z</time></trkpt><trkpt lat="42.55644210813962" lon="11.811884420247841"><ele>523.3333333333333</ele><time>2026-04-30T09:52:20.999Z</time></trkpt><trkpt lat="42.556261484564935" lon="11.811942265013762"><ele>524.0</ele><time>2026-04-30T09:52:21.999Z</time></trkpt><trkpt lat="42.556077023645" lon="11.811986251008978"><ele>524.0</ele><time>2026-04-30T09:52:22.999Z</time></trkpt><trkpt lat="42.55588766081571" lon="11.812018738705849"><ele>524.0</ele><time>2026-04-30T09:52:23.999Z</time></trkpt><trkpt lat="42.555696475151315" lon="11.812042707807947"><ele>524.0</ele><time>2026-04-30T09:52:24.999Z</time></trkpt><trkpt lat="42.555509140270175" lon="11.812053732059523"><ele>524.0</ele><time>2026-04-30T09:52:25.999Z</time></trkpt><trkpt lat="42.55533307332576" lon="11.812064447114823"><ele>524.0</ele><time>2026-04-30T09:52:26.999Z</time></trkpt><trkpt lat="42.555171297596345" lon="11.812047131658632"><ele>524.0</ele><time>2026-04-30T09:52:27.999Z</time></trkpt><trkpt lat="42.55502174313042" lon="11.812050880562643"><ele>524.0</ele><time>2026-04-30T09:52:28.999Z</time></trkpt><trkpt lat="42.55488215994757" lon="11.812053131904113"><ele>524.0</ele><time>2026-04-30T09:52:29.999Z</time></trkpt><trkpt lat="42.55475259641905" lon="11.812053767705322"><ele>524.0</ele><time>2026-04-30T09:52:30.999Z</time></trkpt><trkpt lat="42.55464720459407" lon="11.81204813959309"><ele>524.0</ele><time>2026-04-30T09:52:31.999Z</time></trkpt><trkpt lat="42.55455212325577" lon="11.812035252029755"><ele>523.75</ele><time>2026-04-30T09:52:32.999Z</time></trkpt><trkpt lat="42.554474438833125" lon="11.812019172845552"><ele>523.5</ele><time>2026-04-30T09:52:33.999Z</time></trkpt><trkpt lat="42.55435388976459" lon="11.812208041975108"><ele>523.25</ele><time>2026-04-30T09:52:35.999Z</time></trkpt><trkpt lat="42.55432989037101" lon="11.812338870527142"><ele>523.0</ele><time>2026-04-30T09:52:36.999Z</time></trkpt><trkpt lat="42.5543311652068" lon="11.812485893577195"><ele>523.0</ele><time>2026-04-30T09:52:37.999Z</time></trkpt><trkpt lat="42.55434699596713" lon="11.812641388664542"><ele>523.0</ele><time>2026-04-30T09:52:38.999Z</time></trkpt><trkpt lat="42.55438086707829" lon="11.812802539078742"><ele>523.0</ele><time>2026-04-30T09:52:39.999Z</time></trkpt><trkpt lat="42.55438703861297" lon="11.812984994457915"><ele>523.0</ele><time>2026-04-30T09:52:40.999Z</time></trkpt><trkpt lat="42.5544011178288" lon="11.813174445490839"><ele>524.0</ele><time>2026-04-30T09:52:41.999Z</time></trkpt><trkpt lat="42.55442980501277" lon="11.813372042575917"><ele>525.0</ele><time>2026-04-30T09:52:42.999Z</time></trkpt><trkpt lat="42.554444119043126" lon="11.813562681893195"><ele>526.0</ele><time>2026-04-30T09:52:43.999Z</time></trkpt><trkpt lat="42.554456061222496" lon="11.81374836387524"><ele>527.0</ele><time>2026-04-30T09:52:44.999Z</time></trkpt><trkpt lat="42.554472581327936" lon="11.813926275142068"><ele>527.25</ele><time>2026-04-30T09:52:45.999Z</time></trkpt><trkpt lat="42.55448967633974" lon="11.814100229255414"><ele>527.5</ele><time>2026-04-30T09:52:46.999Z</time></trkpt><trkpt lat="42.554510831577666" lon="11.81427611617357"><ele>527.75</ele><time>2026-04-30T09:52:47.999Z</time></trkpt><trkpt lat="42.55453367294906" lon="11.81445100391992"><ele>528.0</ele><time>2026-04-30T09:52:48.999Z</time></trkpt><trkpt lat="42.55455566843013" lon="11.814625332778892"><ele>528.0</ele><time>2026-04-30T09:52:49.998Z</time></trkpt><trkpt lat="42.55458229668873" lon="11.814798142187662"><ele>528.0</ele><time>2026-04-30T09:52:50.998Z</time></trkpt><trkpt lat="42.55461516959415" lon="11.814970155104476"><ele>528.0</ele><time>2026-04-30T09:52:51.998Z</time></trkpt><trkpt lat="42.55465322035183" lon="11.815140252785696"><ele>528.0</ele><time>2026-04-30T09:52:52.998Z</time></trkpt><trkpt lat="42.55469649912279" lon="11.815307699349784"><ele>528.5</ele><time>2026-04-30T09:52:53.998Z</time></trkpt><trkpt lat="42.55474511580732" lon="11.815476031042069"><ele>529.0</ele><time>2026-04-30T09:52:54.998Z</time></trkpt><trkpt lat="42.55479882774526" lon="11.815639029922712"><ele>529.5</ele><time>2026-04-30T09:52:55.998Z</time></trkpt><trkpt lat="42.55485948119042" lon="11.815803254637368"><ele>530.0</ele><time>2026-04-30T09:52:56.998Z</time></trkpt><trkpt lat="42.55492445345762" lon="11.815967616402272"><ele>530.75</ele><time>2026-04-30T09:52:57.998Z</time></trkpt><trkpt lat="42.55499869151219" lon="11.81612673554381"><ele>531.5</ele><time>2026-04-30T09:52:58.998Z</time></trkpt><trkpt lat="42.55508080934182" lon="11.816283525315757"><ele>532.25</ele><time>2026-04-30T09:52:59.998Z</time></trkpt><trkpt lat="42.55517104320593" lon="11.816436495312763"><ele>533.0</ele><time>2026-04-30T09:53:00.998Z</time></trkpt><trkpt lat="42.55526647611381" lon="11.816587021924278"><ele>533.0</ele><time>2026-04-30T09:53:01.998Z</time></trkpt><trkpt lat="42.55536255985868" lon="11.816742061345682"><ele>533.0</ele><time>2026-04-30T09:53:02.998Z</time></trkpt><trkpt lat="42.55546337215969" lon="11.816901862564224"><ele>533.0</ele><time>2026-04-30T09:53:03.998Z</time></trkpt><trkpt lat="42.55556527821068" lon="11.817068920129541"><ele>533.6666666666666</ele><time>2026-04-30T09:53:04.998Z</time></trkpt><trkpt lat="42.55567249352395" lon="11.817233629294407"><ele>534.3333333333334</ele><time>2026-04-30T09:53:05.998Z</time></trkpt><trkpt lat="42.555779995408784" lon="11.817403303317237"><ele>535.0</ele><time>2026-04-30T09:53:06.998Z</time></trkpt><trkpt lat="42.555889102441924" lon="11.81757731618323"><ele>535.6666666666667</ele><time>2026-04-30T09:53:07.998Z</time></trkpt><trkpt lat="42.55600105646801" lon="11.817754178474758"><ele>536.3333333333334</ele><time>2026-04-30T09:53:08.998Z</time></trkpt><trkpt lat="42.556112363806456" lon="11.817935911272574"><ele>537.0</ele><time>2026-04-30T09:53:09.998Z</time></trkpt><trkpt lat="42.556225427697946" lon="11.818121077384866"><ele>537.0</ele><time>2026-04-30T09:53:10.998Z</time></trkpt><trkpt lat="42.55634516240298" lon="11.818307648961316"><ele>537.0</ele><time>2026-04-30T09:53:11.998Z</time></trkpt><trkpt lat="42.55646512682895" lon="11.818495638949194"><ele>537.0</ele><time>2026-04-30T09:53:12.998Z</time></trkpt><trkpt lat="42.556582687076485" lon="11.818687973744776"><ele>539.0</ele><time>2026-04-30T09:53:13.998Z</time></trkpt><trkpt lat="42.55669599973373" lon="11.818891153337471"><ele>541.0</ele><time>2026-04-30T09:53:14.998Z</time></trkpt><trkpt lat="42.55678549159994" lon="11.819115079366687"><ele>543.0</ele><time>2026-04-30T09:53:15.998Z</time></trkpt><trkpt lat="42.55687798198977" lon="11.819337513443966"><ele>542.0</ele><time>2026-04-30T09:53:16.998Z</time></trkpt><trkpt lat="42.55696170714032" lon="11.819573653229863"><ele>541.0</ele><time>2026-04-30T09:53:17.998Z</time></trkpt><trkpt lat="42.557055147789185" lon="11.819815223021632"><ele>540.0</ele><time>2026-04-30T09:53:18.998Z</time></trkpt><trkpt lat="42.5571233456576" lon="11.820071456586657"><ele>539.0</ele><time>2026-04-30T09:53:19.998Z</time></trkpt><trkpt lat="42.55717629553709" lon="11.820338710992496"><ele>538.0</ele><time>2026-04-30T09:53:20.998Z</time></trkpt><trkpt lat="42.557222373389706" lon="11.820615637058172"><ele>537.0</ele><time>2026-04-30T09:53:22Z</time></trkpt><trkpt lat="42.55726399716066" lon="11.820902874971681"><ele>535.0</ele><time>2026-04-30T09:53:23Z</time></trkpt><trkpt lat="42.557302401817864" lon="11.821190314370583"><ele>533.0</ele><time>2026-04-30T09:53:24Z</time></trkpt><trkpt lat="42.55734000748343" lon="11.821479050114851"><ele>531.0</ele><time>2026-04-30T09:53:25Z</time></trkpt><trkpt lat="42.55737765401204" lon="11.821774306035577"><ele>529.3333333333334</ele><time>2026-04-30T09:53:26Z</time></trkpt><trkpt lat="42.557421151383465" lon="11.822071938645822"><ele>527.6666666666667</ele><time>2026-04-30T09:53:27Z</time></trkpt><trkpt lat="42.55746695124268" lon="11.822370398070754"><ele>526.0</ele><time>2026-04-30T09:53:28Z</time></trkpt><trkpt lat="42.55750604151051" lon="11.822672620639349"><ele>524.0</ele><time>2026-04-30T09:53:29Z</time></trkpt><trkpt lat="42.55754758236316" lon="11.822977133904025"><ele>522.0</ele><time>2026-04-30T09:53:30Z</time></trkpt><trkpt lat="42.55759210182921" lon="11.823279686067353"><ele>520.5</ele><time>2026-04-30T09:53:31Z</time></trkpt><trkpt lat="42.55763944593445" lon="11.82358320737805"><ele>519.0</ele><time>2026-04-30T09:53:32Z</time></trkpt><trkpt lat="42.55766747307333" lon="11.823892454749084"><ele>519.0</ele><time>2026-04-30T09:53:33Z</time></trkpt><trkpt lat="42.557715347172234" lon="11.824197616457916"><ele>519.0</ele><time>2026-04-30T09:53:34Z</time></trkpt><trkpt lat="42.55778769676267" lon="11.824493277093778"><ele>518.0</ele><time>2026-04-30T09:53:35Z</time></trkpt><trkpt lat="42.55786589882196" lon="11.824783176762345"><ele>517.0</ele><time>2026-04-30T09:53:36Z</time></trkpt><trkpt lat="42.557964022719304" lon="11.825062033732136"><ele>517.0</ele><time>2026-04-30T09:53:37Z</time></trkpt><trkpt lat="42.558079058486754" lon="11.825334094438304"><ele>517.0</ele><time>2026-04-30T09:53:38Z</time></trkpt><trkpt lat="42.558210076368184" lon="11.825594722024062"><ele>517.0</ele><time>2026-04-30T09:53:39Z</time></trkpt><trkpt lat="42.55835193339688" lon="11.825846782935734"><ele>517.0</ele><time>2026-04-30T09:53:40Z</time></trkpt><trkpt lat="42.55850174744115" lon="11.826091282398636"><ele>518.0</ele><time>2026-04-30T09:53:41Z</time></trkpt><trkpt lat="42.558652902026765" lon="11.826331927181972"><ele>519.0</ele><time>2026-04-30T09:53:42Z</time></trkpt><trkpt lat="42.55880424455481" lon="11.826572653387714"><ele>515.5</ele><time>2026-04-30T09:53:43Z</time></trkpt><trkpt lat="42.55895528588909" lon="11.82681524823037"><ele>512.0</ele><time>2026-04-30T09:53:44Z</time></trkpt><trkpt lat="42.559102083752116" lon="11.827058345398717"><ele>512.0</ele><time>2026-04-30T09:53:45Z</time></trkpt><trkpt lat="42.55924818785838" lon="11.827300864020843"><ele>512.0</ele><time>2026-04-30T09:53:46Z</time></trkpt><trkpt lat="42.55939661393252" lon="11.827539700767389"><ele>513.6666666666666</ele><time>2026-04-30T09:53:47Z</time></trkpt><trkpt lat="42.55954773189471" lon="11.827769435752845"><ele>515.3333333333334</ele><time>2026-04-30T09:53:48Z</time></trkpt><trkpt lat="42.55969874031107" lon="11.827989045022983"><ele>517.0</ele><time>2026-04-30T09:53:49Z</time></trkpt><trkpt lat="42.559853698786014" lon="11.828190973599652"><ele>517.0</ele><time>2026-04-30T09:53:50Z</time></trkpt><trkpt lat="42.560015052664404" lon="11.828366800531825"><ele>517.0</ele><time>2026-04-30T09:53:51Z</time></trkpt><trkpt lat="42.560176502519695" lon="11.828516623122262"><ele>517.0</ele><time>2026-04-30T09:53:52Z</time></trkpt><trkpt lat="42.5603416694281" lon="11.828644897896986"><ele>515.3333333333334</ele><time>2026-04-30T09:53:53Z</time></trkpt><trkpt lat="42.56049534658985" lon="11.828758616500863"><ele>513.6666666666666</ele><time>2026-04-30T09:53:54Z</time></trkpt><trkpt lat="42.56063496149377" lon="11.828859906411134"><ele>512.0</ele><time>2026-04-30T09:53:55Z</time></trkpt><trkpt lat="42.56076822522507" lon="11.828953238644578"><ele>512.0</ele><time>2026-04-30T09:53:56Z</time></trkpt><trkpt lat="42.560884418440395" lon="11.829033941708351"><ele>512.0</ele><time>2026-04-30T09:53:57Z</time></trkpt><trkpt lat="42.56098768357661" lon="11.82911251396606"><ele>512.0</ele><time>2026-04-30T09:53:57.999Z</time></trkpt><trkpt lat="42.56109112434667" lon="11.829182292104957"><ele>512.0</ele><time>2026-04-30T09:53:58.999Z</time></trkpt><trkpt lat="42.5611929438617" lon="11.82923686575777"><ele>511.20000000000005</ele><time>2026-04-30T09:53:59.999Z</time></trkpt><trkpt lat="42.56129078331709" lon="11.829290084426518"><ele>510.40000000000003</ele><time>2026-04-30T09:54:00.999Z</time></trkpt><trkpt lat="42.56137578887147" lon="11.829350343908166"><ele>509.59999999999997</ele><time>2026-04-30T09:54:01.999Z</time></trkpt><trkpt lat="42.56144539234704" lon="11.82941184034291"><ele>508.79999999999995</ele><time>2026-04-30T09:54:02.999Z</time></trkpt><trkpt lat="42.561501411762116" lon="11.829461648398835"><ele>508.0</ele><time>2026-04-30T09:54:03.999Z</time></trkpt><trkpt lat="42.56161485783788" lon="11.829567231827856"><ele>507.50000000000006</ele><time>2026-04-30T09:54:05.999Z</time></trkpt><trkpt lat="42.56169504882175" lon="11.829644694402667"><ele>507.0</ele><time>2026-04-30T09:54:06.999Z</time></trkpt><trkpt lat="42.56177203687869" lon="11.829734169063455"><ele>506.5</ele><time>2026-04-30T09:54:07.999Z</time></trkpt><trkpt lat="42.56182353625133" lon="11.829824069534673"><ele>506.0</ele><time>2026-04-30T09:54:08.999Z</time></trkpt><trkpt lat="42.561863121009395" lon="11.829907044204147"><ele>505.50000000000006</ele><time>2026-04-30T09:54:09.999Z</time></trkpt><trkpt lat="42.56191207916341" lon="11.829998751918723"><ele>505.0</ele><time>2026-04-30T09:54:10.999Z</time></trkpt><trkpt lat="42.56196907652993" lon="11.830093905191294"><ele>504.2</ele><time>2026-04-30T09:54:11.999Z</time></trkpt><trkpt lat="42.56202393242843" lon="11.83019409929152"><ele>503.4</ele><time>2026-04-30T09:54:12.999Z</time></trkpt><trkpt lat="42.562070606353956" lon="11.830304471147862"><ele>502.6</ele><time>2026-04-30T09:54:13.999Z</time></trkpt><trkpt lat="42.56210825087699" lon="11.83042605552265"><ele>501.8</ele><time>2026-04-30T09:54:14.999Z</time></trkpt><trkpt lat="42.56213758115155" lon="11.830559132045892"><ele>501.0</ele><time>2026-04-30T09:54:15.999Z</time></trkpt><trkpt lat="42.56216040117033" lon="11.830702476064939"><ele>500.0</ele><time>2026-04-30T09:54:16.999Z</time></trkpt><trkpt lat="42.56219229345746" lon="11.830878470483354"><ele>499.0</ele><time>2026-04-30T09:54:17.999Z</time></trkpt><trkpt lat="42.56222698479881" lon="11.831079184849113"><ele>498.0</ele><time>2026-04-30T09:54:18.999Z</time></trkpt><trkpt lat="42.56225459786492" lon="11.831284339769805"><ele>497.0</ele><time>2026-04-30T09:54:19.999Z</time></trkpt><trkpt lat="42.562274306658004" lon="11.83149072159423"><ele>496.0</ele><time>2026-04-30T09:54:20.999Z</time></trkpt><trkpt lat="42.56229277332473" lon="11.83170809575678"><ele>495.0</ele><time>2026-04-30T09:54:21.999Z</time></trkpt><trkpt lat="42.56231645728912" lon="11.831932128785546"><ele>494.0</ele><time>2026-04-30T09:54:22.999Z</time></trkpt><trkpt lat="42.562340746590735" lon="11.832166277030852"><ele>492.66666666666663</ele><time>2026-04-30T09:54:23.999Z</time></trkpt><trkpt lat="42.56236363202353" lon="11.832410173833171"><ele>491.33333333333337</ele><time>2026-04-30T09:54:24.999Z</time></trkpt><trkpt lat="42.5623881719787" lon="11.832665250090718"><ele>490.0</ele><time>2026-04-30T09:54:25.999Z</time></trkpt><trkpt lat="42.5624118587795" lon="11.8329126534668"><ele>489.33333333333337</ele><time>2026-04-30T09:54:26.999Z</time></trkpt><trkpt lat="42.56243765355825" lon="11.833151183165773"><ele>488.66666666666663</ele><time>2026-04-30T09:54:27.999Z</time></trkpt><trkpt lat="42.5624618335754" lon="11.833400108749787"><ele>488.0</ele><time>2026-04-30T09:54:28.999Z</time></trkpt><trkpt lat="42.562487263658774" lon="11.833651850223093"><ele>487.0</ele><time>2026-04-30T09:54:29.999Z</time></trkpt><trkpt lat="42.56251486126794" lon="11.833909628542548"><ele>486.0</ele><time>2026-04-30T09:54:30.999Z</time></trkpt><trkpt lat="42.56254011812567" lon="11.834172219312876"><ele>485.0</ele><time>2026-04-30T09:54:31.999Z</time></trkpt><trkpt lat="42.56256784606374" lon="11.834438113364572"><ele>483.66666666666663</ele><time>2026-04-30T09:54:32.999Z</time></trkpt><trkpt lat="42.56259555670866" lon="11.8347070681741"><ele>482.33333333333337</ele><time>2026-04-30T09:54:33.999Z</time></trkpt><trkpt lat="42.5626236320288" lon="11.83497943846276"><ele>481.0</ele><time>2026-04-30T09:54:34.999Z</time></trkpt><trkpt lat="42.56264884953163" lon="11.835254839073908"><ele>481.0</ele><time>2026-04-30T09:54:35.999Z</time></trkpt><trkpt lat="42.562672721462484" lon="11.835533895204236"><ele>481.0</ele><time>2026-04-30T09:54:36.999Z</time></trkpt><trkpt lat="42.562697248623394" lon="11.835813150012033"><ele>481.0</ele><time>2026-04-30T09:54:37.999Z</time></trkpt><trkpt lat="42.5627261443415" lon="11.836094138355287"><ele>481.6666666666667</ele><time>2026-04-30T09:54:38.999Z</time></trkpt><trkpt lat="42.562764420616595" lon="11.836373116164262"><ele>482.33333333333337</ele><time>2026-04-30T09:54:39.999Z</time></trkpt><trkpt lat="42.56281614026468" lon="11.836648059750635"><ele>483.0</ele><time>2026-04-30T09:54:40.999Z</time></trkpt><trkpt lat="42.562883765997455" lon="11.836915532654045"><ele>480.33333333333337</ele><time>2026-04-30T09:54:41.999Z</time></trkpt><trkpt lat="42.56296279579825" lon="11.837177443876486"><ele>477.6666666666667</ele><time>2026-04-30T09:54:42.999Z</time></trkpt><trkpt lat="42.5630481831678" lon="11.837439638668181"><ele>475.0</ele><time>2026-04-30T09:54:43.999Z</time></trkpt><trkpt lat="42.56313351247455" lon="11.837703903160268"><ele>474.0</ele><time>2026-04-30T09:54:44.999Z</time></trkpt><trkpt lat="42.56321689594815" lon="11.837972116421081"><ele>473.0</ele><time>2026-04-30T09:54:45.999Z</time></trkpt><trkpt lat="42.56329866471892" lon="11.838241687244892"><ele>472.0</ele><time>2026-04-30T09:54:46.999Z</time></trkpt><trkpt lat="42.56337932639355" lon="11.838513479561321"><ele>471.6666666666667</ele><time>2026-04-30T09:54:47.999Z</time></trkpt><trkpt lat="42.56345833166422" lon="11.83878515244861"><ele>471.33333333333337</ele><time>2026-04-30T09:54:48.999Z</time></trkpt><trkpt lat="42.56354079342169" lon="11.839041290038727"><ele>471.0</ele><time>2026-04-30T09:54:49.999Z</time></trkpt><trkpt lat="42.563624309876545" lon="11.839306228753784"><ele>467.33333333333337</ele><time>2026-04-30T09:54:50.999Z</time></trkpt><trkpt lat="42.56370780283682" lon="11.839574879072513"><ele>463.6666666666667</ele><time>2026-04-30T09:54:51.999Z</time></trkpt><trkpt lat="42.563792069077095" lon="11.839844541405272"><ele>460.0</ele><time>2026-04-30T09:54:52.999Z</time></trkpt><trkpt lat="42.56387693620501" lon="11.840115234108692"><ele>460.33333333333337</ele><time>2026-04-30T09:54:53.999Z</time></trkpt><trkpt lat="42.56395905247854" lon="11.840377304402878"><ele>460.66666666666663</ele><time>2026-04-30T09:54:54.998Z</time></trkpt><trkpt lat="42.56403846731148" lon="11.840633447002254"><ele>461.0</ele><time>2026-04-30T09:54:55.998Z</time></trkpt><trkpt lat="42.56411776527797" lon="11.840884935071049"><ele>459.66666666666663</ele><time>2026-04-30T09:54:56.998Z</time></trkpt><trkpt lat="42.564192553339595" lon="11.841135008976599"><ele>458.33333333333337</ele><time>2026-04-30T09:54:57.998Z</time></trkpt><trkpt lat="42.564267255808375" lon="11.841381296598904"><ele>457.0</ele><time>2026-04-30T09:54:58.998Z</time></trkpt><trkpt lat="42.564343215445376" lon="11.841624662071252"><ele>456.33333333333337</ele><time>2026-04-30T09:54:59.998Z</time></trkpt><trkpt lat="42.564419505971216" lon="11.841863305408932"><ele>455.66666666666663</ele><time>2026-04-30T09:55:00.998Z</time></trkpt><trkpt lat="42.56449502367009" lon="11.842107900137623"><ele>455.0</ele><time>2026-04-30T09:55:01.998Z</time></trkpt><trkpt lat="42.564568402792894" lon="11.842345387959801"><ele>451.3333333333333</ele><time>2026-04-30T09:55:02.998Z</time></trkpt><trkpt lat="42.56464199709498" lon="11.842582683815461"><ele>447.66666666666663</ele><time>2026-04-30T09:55:03.998Z</time></trkpt><trkpt lat="42.56471526065444" lon="11.842816120073481"><ele>444.0</ele><time>2026-04-30T09:55:04.998Z</time></trkpt><trkpt lat="42.56478620574154" lon="11.843050401458687"><ele>444.0</ele><time>2026-04-30T09:55:05.998Z</time></trkpt><trkpt lat="42.564864812932925" lon="11.843285299631344"><ele>444.0</ele><time>2026-04-30T09:55:06.998Z</time></trkpt><trkpt lat="42.56492409456701" lon="11.843541601079846"><ele>444.0</ele><time>2026-04-30T09:55:07.998Z</time></trkpt><trkpt lat="42.565002285086756" lon="11.843800973901757"><ele>443.5</ele><time>2026-04-30T09:55:08.998Z</time></trkpt><trkpt lat="42.565088116426246" lon="11.844085692661059"><ele>443.0</ele><time>2026-04-30T09:55:09.998Z</time></trkpt><trkpt lat="42.565173270230915" lon="11.844373266648876"><ele>439.5</ele><time>2026-04-30T09:55:10.998Z</time></trkpt><trkpt lat="42.56526128511911" lon="11.844671367655847"><ele>436.0</ele><time>2026-04-30T09:55:11.998Z</time></trkpt><trkpt lat="42.5653510095883" lon="11.84497602721214"><ele>432.0</ele><time>2026-04-30T09:55:12.998Z</time></trkpt><trkpt lat="42.5654464815823" lon="11.845292898817487"><ele>428.0</ele><time>2026-04-30T09:55:13.998Z</time></trkpt><trkpt lat="42.56554019876911" lon="11.845603945910979"><ele>428.0</ele><time>2026-04-30T09:55:14.998Z</time></trkpt><trkpt lat="42.56563434053757" lon="11.845918899552968"><ele>428.0</ele><time>2026-04-30T09:55:15.998Z</time></trkpt><trkpt lat="42.565728802349334" lon="11.846237204892498"><ele>427.0</ele><time>2026-04-30T09:55:16.998Z</time></trkpt><trkpt lat="42.565820563248195" lon="11.846546409062391"><ele>426.0</ele><time>2026-04-30T09:55:17.998Z</time></trkpt><trkpt lat="42.5659124506519" lon="11.846856326353667"><ele>423.0</ele><time>2026-04-30T09:55:18.998Z</time></trkpt><trkpt lat="42.56600519017064" lon="11.847159083217475"><ele>420.0</ele><time>2026-04-30T09:55:19.998Z</time></trkpt><trkpt lat="42.566105649948014" lon="11.847456102868426"><ele>417.0</ele><time>2026-04-30T09:55:20.998Z</time></trkpt><trkpt lat="42.56622938157966" lon="11.847745766233043"><ele>414.0</ele><time>2026-04-30T09:55:21.998Z</time></trkpt><trkpt lat="42.56635729726738" lon="11.848041504715862"><ele>414.0</ele><time>2026-04-30T09:55:22.998Z</time></trkpt><trkpt lat="42.56647706148064" lon="11.848353259461033"><ele>414.0</ele><time>2026-04-30T09:55:23.998Z</time></trkpt><trkpt lat="42.566612893154044" lon="11.848660242213379"><ele>412.5</ele><time>2026-04-30T09:55:24.998Z</time></trkpt><trkpt lat="42.56674766409496" lon="11.848963858219216"><ele>411.0</ele><time>2026-04-30T09:55:25.998Z</time></trkpt><trkpt lat="42.56689079390612" lon="11.849251611082186"><ele>412.0</ele><time>2026-04-30T09:55:26.998Z</time></trkpt><trkpt lat="42.567010324244514" lon="11.849550652247276"><ele>413.0</ele><time>2026-04-30T09:55:28Z</time></trkpt><trkpt lat="42.56713381028702" lon="11.849845334641634"><ele>410.0</ele><time>2026-04-30T09:55:29Z</time></trkpt><trkpt lat="42.56725893949405" lon="11.850128540784148"><ele>407.0</ele><time>2026-04-30T09:55:30Z</time></trkpt><trkpt lat="42.567387246566" lon="11.850401788733835"><ele>407.0</ele><time>2026-04-30T09:55:31Z</time></trkpt><trkpt lat="42.56751106706913" lon="11.85066859971862"><ele>407.0</ele><time>2026-04-30T09:55:32Z</time></trkpt><trkpt lat="42.56762726582936" lon="11.850931661754876"><ele>404.3333333333333</ele><time>2026-04-30T09:55:33Z</time></trkpt><trkpt lat="42.5677389593917" lon="11.851190484446033"><ele>401.66666666666663</ele><time>2026-04-30T09:55:34Z</time></trkpt><trkpt lat="42.5678439134009" lon="11.851450112004818"><ele>399.0</ele><time>2026-04-30T09:55:35Z</time></trkpt><trkpt lat="42.56793841427403" lon="11.85171761094297"><ele>403.66666666666663</ele><time>2026-04-30T09:55:36Z</time></trkpt><trkpt lat="42.56798978098548" lon="11.852007568417992"><ele>408.3333333333333</ele><time>2026-04-30T09:55:37Z</time></trkpt><trkpt lat="42.56804985048379" lon="11.852298030411552"><ele>413.0</ele><time>2026-04-30T09:55:38Z</time></trkpt><trkpt lat="42.56810814407698" lon="11.852575459962205"><ele>410.66666666666663</ele><time>2026-04-30T09:55:39Z</time></trkpt><trkpt lat="42.56818173155947" lon="11.85285401956485"><ele>408.33333333333337</ele><time>2026-04-30T09:55:40Z</time></trkpt><trkpt lat="42.56824257930825" lon="11.853144056758698"><ele>406.0</ele><time>2026-04-30T09:55:41Z</time></trkpt><trkpt lat="42.5682870823468" lon="11.853436998592978"><ele>403.5</ele><time>2026-04-30T09:55:42Z</time></trkpt><trkpt lat="42.56833653128427" lon="11.85373038501222"><ele>401.0</ele><time>2026-04-30T09:55:43Z</time></trkpt><trkpt lat="42.568374459703186" lon="11.854037837319696"><ele>400.0</ele><time>2026-04-30T09:55:44Z</time></trkpt><trkpt lat="42.56840483788862" lon="11.85434757294293"><ele>399.0</ele><time>2026-04-30T09:55:45Z</time></trkpt><trkpt lat="42.568436649448465" lon="11.854672922612567"><ele>399.0</ele><time>2026-04-30T09:55:46Z</time></trkpt><trkpt lat="42.568481014813926" lon="11.854980859841492"><ele>399.0</ele><time>2026-04-30T09:55:47Z</time></trkpt><trkpt lat="42.5684847097981" lon="11.855296446710476"><ele>397.0</ele><time>2026-04-30T09:55:48Z</time></trkpt><trkpt lat="42.5684671547411" lon="11.8556179733557"><ele>395.0</ele><time>2026-04-30T09:55:49Z</time></trkpt><trkpt lat="42.56845156410792" lon="11.855940393994942"><ele>393.5</ele><time>2026-04-30T09:55:50Z</time></trkpt><trkpt lat="42.568429622066866" lon="11.856264813532361"><ele>392.0</ele><time>2026-04-30T09:55:51Z</time></trkpt><trkpt lat="42.56840245494344" lon="11.85657692052642"><ele>391.66666666666663</ele><time>2026-04-30T09:55:52Z</time></trkpt><trkpt lat="42.568366582682856" lon="11.856875939404283"><ele>391.33333333333337</ele><time>2026-04-30T09:55:53Z</time></trkpt><trkpt lat="42.568317072902595" lon="11.85716406484113"><ele>391.0</ele><time>2026-04-30T09:55:54Z</time></trkpt><trkpt lat="42.56824211619404" lon="11.857434605813552"><ele>391.6666666666667</ele><time>2026-04-30T09:55:55Z</time></trkpt><trkpt lat="42.56814590404039" lon="11.857683315853778"><ele>392.33333333333337</ele><time>2026-04-30T09:55:56Z</time></trkpt><trkpt lat="42.56805268627027" lon="11.857923728823419"><ele>393.0</ele><time>2026-04-30T09:55:57Z</time></trkpt><trkpt lat="42.56796594680329" lon="11.858199660006678"><ele>391.0</ele><time>2026-04-30T09:55:58Z</time></trkpt><trkpt lat="42.56790681728345" lon="11.858486271428475"><ele>389.0</ele><time>2026-04-30T09:55:59Z</time></trkpt><trkpt lat="42.56787666417278" lon="11.858795141249255"><ele>387.0</ele><time>2026-04-30T09:56:00Z</time></trkpt><trkpt lat="42.56787648911018" lon="11.85911024931801"><ele>383.5</ele><time>2026-04-30T09:56:01Z</time></trkpt><trkpt lat="42.56789740562183" lon="11.859424286585384"><ele>380.0</ele><time>2026-04-30T09:56:02Z</time></trkpt><trkpt lat="42.5679120048911" lon="11.859751634796737"><ele>380.0</ele><time>2026-04-30T09:56:03Z</time></trkpt><trkpt lat="42.56790521589971" lon="11.86007652100711"><ele>380.0</ele><time>2026-04-30T09:56:04Z</time></trkpt><trkpt lat="42.56789994539721" lon="11.860406611018604"><ele>378.0</ele><time>2026-04-30T09:56:04.999Z</time></trkpt><trkpt lat="42.56789734504872" lon="11.860743462648598"><ele>376.0</ele><time>2026-04-30T09:56:05.999Z</time></trkpt><trkpt lat="42.56788278689542" lon="11.861082678642243"><ele>376.0</ele><time>2026-04-30T09:56:06.999Z</time></trkpt><trkpt lat="42.56785391640172" lon="11.861428725989306"><ele>376.0</ele><time>2026-04-30T09:56:07.999Z</time></trkpt><trkpt lat="42.56782279475712" lon="11.861779649770531"><ele>371.5</ele><time>2026-04-30T09:56:08.999Z</time></trkpt><trkpt lat="42.56778412590056" lon="11.862132090716932"><ele>367.0</ele><time>2026-04-30T09:56:09.999Z</time></trkpt><trkpt lat="42.56775218316702" lon="11.86248949603671"><ele>362.5</ele><time>2026-04-30T09:56:10.999Z</time></trkpt><trkpt lat="42.56773337473083" lon="11.862848695953877"><ele>358.0</ele><time>2026-04-30T09:56:11.999Z</time></trkpt><trkpt lat="42.567708088080316" lon="11.863208080976362"><ele>356.5</ele><time>2026-04-30T09:56:12.999Z</time></trkpt><trkpt lat="42.56766237214899" lon="11.863570898828302"><ele>355.0</ele><time>2026-04-30T09:56:13.999Z</time></trkpt><trkpt lat="42.56764755169009" lon="11.863916338538692"><ele>355.0</ele><time>2026-04-30T09:56:14.999Z</time></trkpt><trkpt lat="42.56762310499996" lon="11.864254756235109"><ele>355.0</ele><time>2026-04-30T09:56:15.999Z</time></trkpt><trkpt lat="42.567602611448784" lon="11.86458952895293"><ele>354.0</ele><time>2026-04-30T09:56:16.999Z</time></trkpt><trkpt lat="42.56759565789111" lon="11.864929485645341"><ele>353.0</ele><time>2026-04-30T09:56:17.999Z</time></trkpt><trkpt lat="42.5676110544128" lon="11.865266879116051"><ele>352.0</ele><time>2026-04-30T09:56:18.999Z</time></trkpt><trkpt lat="42.56764227632103" lon="11.865603672929028"><ele>351.0</ele><time>2026-04-30T09:56:19.999Z</time></trkpt><trkpt lat="42.56768214791731" lon="11.86593333653488"><ele>349.5</ele><time>2026-04-30T09:56:20.999Z</time></trkpt><trkpt lat="42.56771732546329" lon="11.866266386070919"><ele>348.0</ele><time>2026-04-30T09:56:21.999Z</time></trkpt><trkpt lat="42.56773937315317" lon="11.866603516725352"><ele>346.0</ele><time>2026-04-30T09:56:22.999Z</time></trkpt><trkpt lat="42.56774804200742" lon="11.866942408910333"><ele>344.0</ele><time>2026-04-30T09:56:23.999Z</time></trkpt><trkpt lat="42.56774850925594" lon="11.867275382932181"><ele>342.0</ele><time>2026-04-30T09:56:24.999Z</time></trkpt><trkpt lat="42.56773721536324" lon="11.867616536580247"><ele>340.0</ele><time>2026-04-30T09:56:25.999Z</time></trkpt><trkpt lat="42.56771071967709" lon="11.867956384591057"><ele>340.0</ele><time>2026-04-30T09:56:26.999Z</time></trkpt><trkpt lat="42.567675458919865" lon="11.86829594603584"><ele>340.0</ele><time>2026-04-30T09:56:27.999Z</time></trkpt><trkpt lat="42.56764135953164" lon="11.868639750085128"><ele>338.5</ele><time>2026-04-30T09:56:28.999Z</time></trkpt><trkpt lat="42.56761273525162" lon="11.868982585957577"><ele>337.0</ele><time>2026-04-30T09:56:29.999Z</time></trkpt><trkpt lat="42.56758479621479" lon="11.86932415704973"><ele>336.0</ele><time>2026-04-30T09:56:30.999Z</time></trkpt><trkpt lat="42.56755670787154" lon="11.869659983767239"><ele>335.0</ele><time>2026-04-30T09:56:31.999Z</time></trkpt><trkpt lat="42.56752930267312" lon="11.8699995019086"><ele>335.0</ele><time>2026-04-30T09:56:32.999Z</time></trkpt><trkpt lat="42.56750051772413" lon="11.870335658228443"><ele>335.0</ele><time>2026-04-30T09:56:33.999Z</time></trkpt><trkpt lat="42.567470050948174" lon="11.870669844547015"><ele>334.5</ele><time>2026-04-30T09:56:34.999Z</time></trkpt><trkpt lat="42.5674353587108" lon="11.871000176145479"><ele>334.0</ele><time>2026-04-30T09:56:35.999Z</time></trkpt><trkpt lat="42.56739749778464" lon="11.87132763623427"><ele>334.0</ele><time>2026-04-30T09:56:36.999Z</time></trkpt><trkpt lat="42.56735555413109" lon="11.871648397686432"><ele>334.0</ele><time>2026-04-30T09:56:37.999Z</time></trkpt><trkpt lat="42.56731353956147" lon="11.87196769287861"><ele>333.0</ele><time>2026-04-30T09:56:38.999Z</time></trkpt><trkpt lat="42.5672714377239" lon="11.872282061424578"><ele>332.0</ele><time>2026-04-30T09:56:39.999Z</time></trkpt><trkpt lat="42.56723208340343" lon="11.872591023256769"><ele>331.6666666666667</ele><time>2026-04-30T09:56:40.999Z</time></trkpt><trkpt lat="42.56719523643419" lon="11.872893552245634"><ele>331.3333333333333</ele><time>2026-04-30T09:56:41.999Z</time></trkpt><trkpt lat="42.56715238143797" lon="11.87318899543233"><ele>331.0</ele><time>2026-04-30T09:56:42.999Z</time></trkpt><trkpt lat="42.5670932335074" lon="11.873480039985916"><ele>331.0</ele><time>2026-04-30T09:56:43.999Z</time></trkpt><trkpt lat="42.567011419465096" lon="11.873759692620078"><ele>331.0</ele><time>2026-04-30T09:56:44.999Z</time></trkpt><trkpt lat="42.56690013008449" lon="11.874016496002675"><ele>331.0</ele><time>2026-04-30T09:56:45.999Z</time></trkpt><trkpt lat="42.566769194610174" lon="11.87425709139963"><ele>330.3333333333333</ele><time>2026-04-30T09:56:46.999Z</time></trkpt><trkpt lat="42.56664706620787" lon="11.874497655601807"><ele>329.6666666666667</ele><time>2026-04-30T09:56:47.999Z</time></trkpt><trkpt lat="42.56651797990212" lon="11.874742047408605"><ele>329.0</ele><time>2026-04-30T09:56:48.999Z</time></trkpt><trkpt lat="42.566392811274646" lon="11.874989020562353"><ele>328.6666666666667</ele><time>2026-04-30T09:56:49.999Z</time></trkpt><trkpt lat="42.566268127042996" lon="11.875230635498289"><ele>328.3333333333333</ele><time>2026-04-30T09:56:50.999Z</time></trkpt><trkpt lat="42.56612225502785" lon="11.87544925154981"><ele>328.0</ele><time>2026-04-30T09:56:51.999Z</time></trkpt><trkpt lat="42.56599803461584" lon="11.875689561055863"><ele>329.0</ele><time>2026-04-30T09:56:52.999Z</time></trkpt><trkpt lat="42.565874034514394" lon="11.875929444306887"><ele>330.0</ele><time>2026-04-30T09:56:53.999Z</time></trkpt><trkpt lat="42.56574960120521" lon="11.87617016561116"><ele>331.0</ele><time>2026-04-30T09:56:54.999Z</time></trkpt><trkpt lat="42.565624988215234" lon="11.876410272362367"><ele>331.0</ele><time>2026-04-30T09:56:55.999Z</time></trkpt><trkpt lat="42.56549959056502" lon="11.876651712228083"><ele>331.0</ele><time>2026-04-30T09:56:56.999Z</time></trkpt><trkpt lat="42.56537370527421" lon="11.876896247848666"><ele>331.0</ele><time>2026-04-30T09:56:57.999Z</time></trkpt><trkpt lat="42.56524784128085" lon="11.877140719109262"><ele>331.0</ele><time>2026-04-30T09:56:58.999Z</time></trkpt><trkpt lat="42.565122587840285" lon="11.877383246710087"><ele>331.0</ele><time>2026-04-30T09:56:59.999Z</time></trkpt><trkpt lat="42.56499493333587" lon="11.877623534017818"><ele>331.0</ele><time>2026-04-30T09:57:00.999Z</time></trkpt><trkpt lat="42.56487330207947" lon="11.877871849558344"><ele>330.3333333333333</ele><time>2026-04-30T09:57:01.999Z</time></trkpt><trkpt lat="42.56472681060433" lon="11.878095552482137"><ele>329.6666666666667</ele><time>2026-04-30T09:57:02.999Z</time></trkpt><trkpt lat="42.56455605937056" lon="11.878289509465343"><ele>329.0</ele><time>2026-04-30T09:57:03.998Z</time></trkpt><trkpt lat="42.56437982844846" lon="11.878471100192785"><ele>328.0</ele><time>2026-04-30T09:57:04.998Z</time></trkpt><trkpt lat="42.564192626324896" lon="11.87864408392364"><ele>327.0</ele><time>2026-04-30T09:57:05.998Z</time></trkpt><trkpt lat="42.56400264586274" lon="11.878819470294438"><ele>327.0</ele><time>2026-04-30T09:57:06.998Z</time></trkpt><trkpt lat="42.56381027646474" lon="11.878997026435723"><ele>327.0</ele><time>2026-04-30T09:57:07.998Z</time></trkpt><trkpt lat="42.56361532420704" lon="11.879176966577779"><ele>324.0</ele><time>2026-04-30T09:57:08.998Z</time></trkpt><trkpt lat="42.563428316944304" lon="11.879375706308949"><ele>321.0</ele><time>2026-04-30T09:57:09.998Z</time></trkpt><trkpt lat="42.56322886059938" lon="11.879558609578385"><ele>321.0</ele><time>2026-04-30T09:57:10.998Z</time></trkpt><trkpt lat="42.56302951092185" lon="11.879741521299069"><ele>321.0</ele><time>2026-04-30T09:57:11.998Z</time></trkpt><trkpt lat="42.56282100631249" lon="11.879905347762552"><ele>319.5</ele><time>2026-04-30T09:57:12.998Z</time></trkpt><trkpt lat="42.56262087599598" lon="11.880088745117243"><ele>318.0</ele><time>2026-04-30T09:57:13.998Z</time></trkpt><trkpt lat="42.56241875208446" lon="11.88027497676971"><ele>317.5</ele><time>2026-04-30T09:57:14.998Z</time></trkpt><trkpt lat="42.56221530259006" lon="11.880462126824574"><ele>317.0</ele><time>2026-04-30T09:57:15.998Z</time></trkpt><trkpt lat="42.562011852514615" lon="11.880648625332208"><ele>316.0</ele><time>2026-04-30T09:57:16.998Z</time></trkpt><trkpt lat="42.56180718504114" lon="11.880836239810021"><ele>315.0</ele><time>2026-04-30T09:57:17.998Z</time></trkpt><trkpt lat="42.56160356641337" lon="11.881022893172904"><ele>313.0</ele><time>2026-04-30T09:57:18.998Z</time></trkpt><trkpt lat="42.56141263592347" lon="11.881236668780355"><ele>311.0</ele><time>2026-04-30T09:57:19.998Z</time></trkpt><trkpt lat="42.561212530113416" lon="11.881425973744978"><ele>311.0</ele><time>2026-04-30T09:57:20.998Z</time></trkpt><trkpt lat="42.56101059383606" lon="11.881612595745073"><ele>311.0</ele><time>2026-04-30T09:57:21.998Z</time></trkpt><trkpt lat="42.56080986135385" lon="11.88179996495515"><ele>310.0</ele><time>2026-04-30T09:57:22.998Z</time></trkpt><trkpt lat="42.56059674158854" lon="11.881956482696072"><ele>309.0</ele><time>2026-04-30T09:57:23.998Z</time></trkpt><trkpt lat="42.56039973240492" lon="11.88213939249943"><ele>310.0</ele><time>2026-04-30T09:57:24.998Z</time></trkpt><trkpt lat="42.56020326500522" lon="11.882318923044513"><ele>311.0</ele><time>2026-04-30T09:57:25.998Z</time></trkpt><trkpt lat="42.56000671491388" lon="11.882499889067253"><ele>310.5</ele><time>2026-04-30T09:57:26.998Z</time></trkpt><trkpt lat="42.55981186806443" lon="11.882680005075656"><ele>310.0</ele><time>2026-04-30T09:57:27.998Z</time></trkpt><trkpt lat="42.55961785835435" lon="11.882859919847764"><ele>310.0</ele><time>2026-04-30T09:57:28.998Z</time></trkpt><trkpt lat="42.55942629558523" lon="11.883037579903837"><ele>310.0</ele><time>2026-04-30T09:57:29.998Z</time></trkpt><trkpt lat="42.55923681460247" lon="11.883216656437368"><ele>310.0</ele><time>2026-04-30T09:57:30.998Z</time></trkpt><trkpt lat="42.55905883173883" lon="11.883412055020093"><ele>310.0</ele><time>2026-04-30T09:57:31.998Z</time></trkpt><trkpt lat="42.5588708095343" lon="11.883587785607792"><ele>309.5</ele><time>2026-04-30T09:57:32.998Z</time></trkpt><trkpt lat="42.55868172564288" lon="11.883756821604821"><ele>309.0</ele><time>2026-04-30T09:57:34Z</time></trkpt><trkpt lat="42.558495662522105" lon="11.883925724560564"><ele>309.0</ele><time>2026-04-30T09:57:35Z</time></trkpt><trkpt lat="42.558315624074496" lon="11.884091279424812"><ele>309.0</ele><time>2026-04-30T09:57:36Z</time></trkpt><trkpt lat="42.558137709869996" lon="11.884256580503264"><ele>309.0</ele><time>2026-04-30T09:57:37Z</time></trkpt><trkpt lat="42.55796256220254" lon="11.884431441454112"><ele>309.3333333333333</ele><time>2026-04-30T09:57:38Z</time></trkpt><trkpt lat="42.55778925954276" lon="11.884606687158701"><ele>309.66666666666663</ele><time>2026-04-30T09:57:39Z</time></trkpt><trkpt lat="42.55761756450806" lon="11.88478250751623"><ele>310.0</ele><time>2026-04-30T09:57:40Z</time></trkpt><trkpt lat="42.55745021034909" lon="11.88495893270342"><ele>309.3333333333333</ele><time>2026-04-30T09:57:41Z</time></trkpt><trkpt lat="42.557280142944805" lon="11.88513687360881"><ele>308.6666666666667</ele><time>2026-04-30T09:57:42Z</time></trkpt><trkpt lat="42.55712927597369" lon="11.885304663693384"><ele>308.0</ele><time>2026-04-30T09:57:43Z</time></trkpt><trkpt lat="42.55698958596852" lon="11.885479426826777"><ele>309.33333333333337</ele><time>2026-04-30T09:57:44Z</time></trkpt><trkpt lat="42.55685442142097" lon="11.885649853737316"><ele>310.6666666666667</ele><time>2026-04-30T09:57:45Z</time></trkpt><trkpt lat="42.55672277150376" lon="11.885817679110414"><ele>312.0</ele><time>2026-04-30T09:57:46Z</time></trkpt><trkpt lat="42.55658027845126" lon="11.88598092855654"><ele>312.0</ele><time>2026-04-30T09:57:47Z</time></trkpt><trkpt lat="42.556451441912955" lon="11.886145068046142"><ele>312.0</ele><time>2026-04-30T09:57:48Z</time></trkpt><trkpt lat="42.556334253071064" lon="11.886316954160378"><ele>312.0</ele><time>2026-04-30T09:57:49Z</time></trkpt><trkpt lat="42.55622041687998" lon="11.886500524632307"><ele>312.0</ele><time>2026-04-30T09:57:50Z</time></trkpt><trkpt lat="42.556130992701334" lon="11.886689656883721"><ele>312.0</ele><time>2026-04-30T09:57:51Z</time></trkpt><trkpt lat="42.55605066260821" lon="11.886851111359862"><ele>312.0</ele><time>2026-04-30T09:57:52Z</time></trkpt><trkpt lat="42.555962893074465" lon="11.886993039654323"><ele>312.0</ele><time>2026-04-30T09:57:53Z</time></trkpt><trkpt lat="42.55594512229736" lon="11.8871112556024"><ele>312.0</ele><time>2026-04-30T09:57:54Z</time></trkpt><trkpt lat="42.55591594692034" lon="11.887214795611607"><ele>312.0</ele><time>2026-04-30T09:57:55Z</time></trkpt><trkpt lat="42.55588731269622" lon="11.887320063669945"><ele>312.0</ele><time>2026-04-30T09:57:56Z</time></trkpt><trkpt lat="42.55586246577906" lon="11.88742244844529"><ele>312.0</ele><time>2026-04-30T09:57:57Z</time></trkpt><trkpt lat="42.555822789422585" lon="11.88753475574093"><ele>312.0</ele><time>2026-04-30T09:57:58Z</time></trkpt><trkpt lat="42.55584471798302" lon="11.887620898079371"><ele>312.0</ele><time>2026-04-30T09:57:59Z</time></trkpt><trkpt lat="42.55584105055605" lon="11.887720579025768"><ele>311.4</ele><time>2026-04-30T09:58:00Z</time></trkpt><trkpt lat="42.55579960878122" lon="11.887831762839422"><ele>310.79999999999995</ele><time>2026-04-30T09:58:01Z</time></trkpt><trkpt lat="42.5557389333695" lon="11.887956789081596"><ele>310.2</ele><time>2026-04-30T09:58:02Z</time></trkpt><trkpt lat="42.55567962093779" lon="11.888082537066953"><ele>309.59999999999997</ele><time>2026-04-30T09:58:03Z</time></trkpt><trkpt lat="42.55561721039853" lon="11.88820138382822"><ele>309.0</ele><time>2026-04-30T09:58:04Z</time></trkpt><trkpt lat="42.55554770714276" lon="11.888313961977232"><ele>308.59999999999997</ele><time>2026-04-30T09:58:05Z</time></trkpt><trkpt lat="42.55547480643922" lon="11.888445231968834"><ele>308.2</ele><time>2026-04-30T09:58:06Z</time></trkpt><trkpt lat="42.55542896694832" lon="11.888553427102913"><ele>307.79999999999995</ele><time>2026-04-30T09:58:07Z</time></trkpt><trkpt lat="42.55538590465942" lon="11.888673771579917"><ele>307.4</ele><time>2026-04-30T09:58:08Z</time></trkpt><trkpt lat="42.55536341651636" lon="11.888782422811301"><ele>307.0</ele><time>2026-04-30T09:58:09Z</time></trkpt><trkpt lat="42.55529543454078" lon="11.888903709221774"><ele>307.8</ele><time>2026-04-30T09:58:10Z</time></trkpt><trkpt lat="42.555186862166494" lon="11.889049068503327"><ele>308.6</ele><time>2026-04-30T09:58:11Z</time></trkpt><trkpt lat="42.55512822349376" lon="11.889157655335367"><ele>309.40000000000003</ele><time>2026-04-30T09:58:12Z</time></trkpt><trkpt lat="42.55507631705364" lon="11.889272645574517"><ele>310.2</ele><time>2026-04-30T09:58:13Z</time></trkpt><trkpt lat="42.555052108576604" lon="11.889389187843994"><ele>311.0</ele><time>2026-04-30T09:58:13.999Z</time></trkpt><trkpt lat="42.555029211799805" lon="11.889514484494898"><ele>311.0</ele><time>2026-04-30T09:58:14.999Z</time></trkpt><trkpt lat="42.55500631235998" lon="11.889620255106223"><ele>311.0</ele><time>2026-04-30T09:58:15.999Z</time></trkpt><trkpt lat="42.55498233830951" lon="11.88974582887593"><ele>311.0</ele><time>2026-04-30T09:58:16.999Z</time></trkpt><trkpt lat="42.55490517374591" lon="11.889877195414662"><ele>311.0</ele><time>2026-04-30T09:58:17.999Z</time></trkpt><trkpt lat="42.5548418389855" lon="11.889998100224473"><ele>311.0</ele><time>2026-04-30T09:58:18.999Z</time></trkpt><trkpt lat="42.55477475934371" lon="11.890185603799313"><ele>310.6666666666667</ele><time>2026-04-30T09:58:19.999Z</time></trkpt><trkpt lat="42.55461380339127" lon="11.890314367986223"><ele>310.3333333333333</ele><time>2026-04-30T09:58:20.999Z</time></trkpt><trkpt lat="42.55453697423049" lon="11.890615056084178"><ele>310.0</ele><time>2026-04-30T09:58:22.069Z</time></trkpt><trkpt lat="42.554460647444415" lon="11.890731900689065"><ele>309.66666666666663</ele><time>2026-04-30T09:58:22.999Z</time></trkpt><trkpt lat="42.55440030093749" lon="11.890946454857778"><ele>309.3333333333333</ele><time>2026-04-30T09:58:23.999Z</time></trkpt><trkpt lat="42.554288459600706" lon="11.89108597329196"><ele>309.0</ele><time>2026-04-30T09:58:24.999Z</time></trkpt><trkpt lat="42.55414999603164" lon="11.89118906071789"><ele>309.0</ele><time>2026-04-30T09:58:25.999Z</time></trkpt><trkpt lat="42.55404613809996" lon="11.891295304478087"><ele>309.0</ele><time>2026-04-30T09:58:26.999Z</time></trkpt><trkpt lat="42.55398806596695" lon="11.891437084419621"><ele>309.0</ele><time>2026-04-30T09:58:27.999Z</time></trkpt><trkpt lat="42.553980118233916" lon="11.891608916266705"><ele>309.0</ele><time>2026-04-30T09:58:28.999Z</time></trkpt><trkpt lat="42.553976805620394" lon="11.891761212770994"><ele>308.75</ele><time>2026-04-30T09:58:29.999Z</time></trkpt><trkpt lat="42.553982419410836" lon="11.891929360884973"><ele>308.5</ele><time>2026-04-30T09:58:30.999Z</time></trkpt><trkpt lat="42.55394284994244" lon="11.892052147886275"><ele>308.25</ele><time>2026-04-30T09:58:31.999Z</time></trkpt><trkpt lat="42.55396194866011" lon="11.892229170022107"><ele>308.0</ele><time>2026-04-30T09:58:32.999Z</time></trkpt><trkpt lat="42.55394722661606" lon="11.892366686867495"><ele>308.0</ele><time>2026-04-30T09:58:33.999Z</time></trkpt><trkpt lat="42.553917569390386" lon="11.892506424968548"><ele>308.0</ele><time>2026-04-30T09:58:34.999Z</time></trkpt><trkpt lat="42.55390333056804" lon="11.892663912148434"><ele>308.0</ele><time>2026-04-30T09:58:35.999Z</time></trkpt><trkpt lat="42.553896359214804" lon="11.892821613748163"><ele>308.0</ele><time>2026-04-30T09:58:36.999Z</time></trkpt><trkpt lat="42.553851577018115" lon="11.892973772949698"><ele>308.25</ele><time>2026-04-30T09:58:37.999Z</time></trkpt><trkpt lat="42.55378472195129" lon="11.893110834761696"><ele>308.5</ele><time>2026-04-30T09:58:38.999Z</time></trkpt><trkpt lat="42.55372288757843" lon="11.893252535419148"><ele>308.75</ele><time>2026-04-30T09:58:39.999Z</time></trkpt><trkpt lat="42.55366439242281" lon="11.89339326888088"><ele>309.0</ele><time>2026-04-30T09:58:40.999Z</time></trkpt><trkpt lat="42.553737448964995" lon="11.8936131113747"><ele>309.0</ele><time>2026-04-30T09:58:41.999Z</time></trkpt><trkpt lat="42.5536865790407" lon="11.893755959439442"><ele>309.0</ele><time>2026-04-30T09:58:42.999Z</time></trkpt><trkpt lat="42.553640947291015" lon="11.893886033923073"><ele>309.0</ele><time>2026-04-30T09:58:43.999Z</time></trkpt><trkpt lat="42.55359389659643" lon="11.894016636554282"><ele>309.0</ele><time>2026-04-30T09:58:44.999Z</time></trkpt><trkpt lat="42.55354469056293" lon="11.894154684214799"><ele>309.0</ele><time>2026-04-30T09:58:45.999Z</time></trkpt><trkpt lat="42.55348999818938" lon="11.894310714818326"><ele>309.0</ele><time>2026-04-30T09:58:46.999Z</time></trkpt><trkpt lat="42.55343357561745" lon="11.894471681464932"><ele>309.0</ele><time>2026-04-30T09:58:47.999Z</time></trkpt><trkpt lat="42.553382111186004" lon="11.894619145198634"><ele>309.0</ele><time>2026-04-30T09:58:48.999Z</time></trkpt><trkpt lat="42.55331751724313" lon="11.894755070356416"><ele>309.0</ele><time>2026-04-30T09:58:49.999Z</time></trkpt><trkpt lat="42.55326148858031" lon="11.894896270506223"><ele>309.0</ele><time>2026-04-30T09:58:50.999Z</time></trkpt><trkpt lat="42.55321588828415" lon="11.895041350015898"><ele>309.0</ele><time>2026-04-30T09:58:51.999Z</time></trkpt><trkpt lat="42.55316982673806" lon="11.895184698716413"><ele>309.0</ele><time>2026-04-30T09:58:52.999Z</time></trkpt><trkpt lat="42.55311402589901" lon="11.89532714595094"><ele>309.0</ele><time>2026-04-30T09:58:53.999Z</time></trkpt><trkpt lat="42.55306365268526" lon="11.895469868556482"><ele>308.0</ele><time>2026-04-30T09:58:54.999Z</time></trkpt><trkpt lat="42.553015424324485" lon="11.895600508560037"><ele>307.0</ele><time>2026-04-30T09:58:55.999Z</time></trkpt><trkpt lat="42.55298943780577" lon="11.895751075627652"><ele>306.0</ele><time>2026-04-30T09:58:56.999Z</time></trkpt><trkpt lat="42.552929216676375" lon="11.89588995868149"><ele>305.0</ele><time>2026-04-30T09:58:57.999Z</time></trkpt><trkpt lat="42.55288601478395" lon="11.896031706780617"><ele>305.6</ele><time>2026-04-30T09:58:58.999Z</time></trkpt><trkpt lat="42.552845462489174" lon="11.896173141619478"><ele>306.2</ele><time>2026-04-30T09:58:59.999Z</time></trkpt><trkpt lat="42.552803233496086" lon="11.89628919330496"><ele>306.8</ele><time>2026-04-30T09:59:00.999Z</time></trkpt><trkpt lat="42.55278678549947" lon="11.896396139630571"><ele>307.4</ele><time>2026-04-30T09:59:01.999Z</time></trkpt><trkpt lat="42.55275745596873" lon="11.896501833306148"><ele>308.0</ele><time>2026-04-30T09:59:02.999Z</time></trkpt><trkpt lat="42.552726251375525" lon="11.896618267538376"><ele>308.0</ele><time>2026-04-30T09:59:03.999Z</time></trkpt><trkpt lat="42.55269908150594" lon="11.896712883548794"><ele>308.0</ele><time>2026-04-30T09:59:04.999Z</time></trkpt><trkpt lat="42.55265530325855" lon="11.896819074193346"><ele>308.0</ele><time>2026-04-30T09:59:05.999Z</time></trkpt><trkpt lat="42.55262459007138" lon="11.896924559264539"><ele>308.0</ele><time>2026-04-30T09:59:06.999Z</time></trkpt><trkpt lat="42.55259007624631" lon="11.897044507443738"><ele>308.0</ele><time>2026-04-30T09:59:07.999Z</time></trkpt><trkpt lat="42.55254171934848" lon="11.897177143635377"><ele>307.75</ele><time>2026-04-30T09:59:08.999Z</time></trkpt><trkpt lat="42.55246563276284" lon="11.897313472179468"><ele>307.5</ele><time>2026-04-30T09:59:09.999Z</time></trkpt><trkpt lat="42.55243299112807" lon="11.897467463429798"><ele>307.25</ele><time>2026-04-30T09:59:10.999Z</time></trkpt><trkpt lat="42.55238556334033" lon="11.897619319145806"><ele>307.0</ele><time>2026-04-30T09:59:11.998Z</time></trkpt><trkpt lat="42.55232440919146" lon="11.897763007488207"><ele>307.0</ele><time>2026-04-30T09:59:12.998Z</time></trkpt><trkpt lat="42.55226912526021" lon="11.897913667921685"><ele>307.0</ele><time>2026-04-30T09:59:13.998Z</time></trkpt><trkpt lat="42.552213491486164" lon="11.898070509693772"><ele>307.0</ele><time>2026-04-30T09:59:14.998Z</time></trkpt><trkpt lat="42.55216050329841" lon="11.898222410024886"><ele>307.0</ele><time>2026-04-30T09:59:15.998Z</time></trkpt><trkpt lat="42.55210536267287" lon="11.898376863507426"><ele>306.5</ele><time>2026-04-30T09:59:16.998Z</time></trkpt><trkpt lat="42.55205391682757" lon="11.898531433494336"><ele>306.0</ele><time>2026-04-30T09:59:17.998Z</time></trkpt><trkpt lat="42.55200286363129" lon="11.898680126386324"><ele>305.5</ele><time>2026-04-30T09:59:18.998Z</time></trkpt><trkpt lat="42.55195208611323" lon="11.898824813005776"><ele>305.0</ele><time>2026-04-30T09:59:19.998Z</time></trkpt><trkpt lat="42.551889007432685" lon="11.898955800274184"><ele>305.5</ele><time>2026-04-30T09:59:20.998Z</time></trkpt><trkpt lat="42.5518377343049" lon="11.899101015892082"><ele>306.0</ele><time>2026-04-30T09:59:21.998Z</time></trkpt><trkpt lat="42.551784673797904" lon="11.899251307687477"><ele>306.5</ele><time>2026-04-30T09:59:22.998Z</time></trkpt><trkpt lat="42.55172750089675" lon="11.89940930898052"><ele>307.0</ele><time>2026-04-30T09:59:23.998Z</time></trkpt><trkpt lat="42.55166497183833" lon="11.899581967070148"><ele>307.0</ele><time>2026-04-30T09:59:24.998Z</time></trkpt><trkpt lat="42.55160870789263" lon="11.89973732565427"><ele>307.0</ele><time>2026-04-30T09:59:25.998Z</time></trkpt><trkpt lat="42.55155335390619" lon="11.899890171608462"><ele>307.0</ele><time>2026-04-30T09:59:26.998Z</time></trkpt><trkpt lat="42.55149942732571" lon="11.900043325893954"><ele>307.0</ele><time>2026-04-30T09:59:27.998Z</time></trkpt><trkpt lat="42.55144504266483" lon="11.900199248996971"><ele>306.75</ele><time>2026-04-30T09:59:28.998Z</time></trkpt><trkpt lat="42.55138970436671" lon="11.900356809557168"><ele>306.5</ele><time>2026-04-30T09:59:29.998Z</time></trkpt><trkpt lat="42.551334521351556" lon="11.900512057898567"><ele>306.25</ele><time>2026-04-30T09:59:30.998Z</time></trkpt><trkpt lat="42.551292190231116" lon="11.900676164454348"><ele>306.0</ele><time>2026-04-30T09:59:31.998Z</time></trkpt><trkpt lat="42.551224265895414" lon="11.900822647104222"><ele>307.0</ele><time>2026-04-30T09:59:32.998Z</time></trkpt><trkpt lat="42.551169308130895" lon="11.900978868293755"><ele>308.0</ele><time>2026-04-30T09:59:33.998Z</time></trkpt><trkpt lat="42.55111562905527" lon="11.901131454665835"><ele>309.0</ele><time>2026-04-30T09:59:34.998Z</time></trkpt><trkpt lat="42.5510621195939" lon="11.90127974859083"><ele>310.0</ele><time>2026-04-30T09:59:35.998Z</time></trkpt><trkpt lat="42.551011161030075" lon="11.901422235581608"><ele>310.0</ele><time>2026-04-30T09:59:36.998Z</time></trkpt><trkpt lat="42.55096227289774" lon="11.901558933367987"><ele>310.0</ele><time>2026-04-30T09:59:37.998Z</time></trkpt><trkpt lat="42.55091895978714" lon="11.901680042647207"><ele>310.0</ele><time>2026-04-30T09:59:38.998Z</time></trkpt><trkpt lat="42.550891045951786" lon="11.901802693907056"><ele>310.0</ele><time>2026-04-30T09:59:40Z</time></trkpt><trkpt lat="42.550822409181364" lon="11.901900907265436"><ele>310.0</ele><time>2026-04-30T09:59:41Z</time></trkpt><trkpt lat="42.55079869706244" lon="11.901993632938636"><ele>309.66666666666663</ele><time>2026-04-30T09:59:42Z</time></trkpt><trkpt lat="42.55078262783125" lon="11.902087153272936"><ele>309.3333333333333</ele><time>2026-04-30T09:59:43Z</time></trkpt><trkpt lat="42.55072563417016" lon="11.902226761446245"><ele>309.0</ele><time>2026-04-30T09:59:45Z</time></trkpt><trkpt lat="42.55068865144704" lon="11.902337225593454"><ele>308.6666666666667</ele><time>2026-04-30T09:59:47Z</time></trkpt><trkpt lat="42.550661644301094" lon="11.902437069976799"><ele>308.33333333333337</ele><time>2026-04-30T09:59:48Z</time></trkpt><trkpt lat="42.55063030246075" lon="11.902543483523347"><ele>308.0</ele><time>2026-04-30T09:59:49Z</time></trkpt><trkpt lat="42.55059626391615" lon="11.90263996556885"><ele>308.0</ele><time>2026-04-30T09:59:50Z</time></trkpt><trkpt lat="42.55055513970665" lon="11.902746041176714"><ele>308.0</ele><time>2026-04-30T09:59:51Z</time></trkpt><trkpt lat="42.55050852161066" lon="11.902854131490328"><ele>308.0</ele><time>2026-04-30T09:59:52Z</time></trkpt><trkpt lat="42.550460076683656" lon="11.90296444630547"><ele>308.0</ele><time>2026-04-30T09:59:53Z</time></trkpt><trkpt lat="42.55041543537342" lon="11.903079549744152"><ele>308.0</ele><time>2026-04-30T09:59:54Z</time></trkpt><trkpt lat="42.55037123642565" lon="11.903233974423113"><ele>308.0</ele><time>2026-04-30T09:59:55Z</time></trkpt><trkpt lat="42.5503169967148" lon="11.903373865189792"><ele>308.0</ele><time>2026-04-30T09:59:56Z</time></trkpt><trkpt lat="42.55026539079678" lon="11.903510079275813"><ele>308.0</ele><time>2026-04-30T09:59:57Z</time></trkpt><trkpt lat="42.55021807017727" lon="11.903657589749873"><ele>308.0</ele><time>2026-04-30T09:59:58Z</time></trkpt><trkpt lat="42.5501663528975" lon="11.9038088920202"><ele>308.25</ele><time>2026-04-30T09:59:59Z</time></trkpt><trkpt lat="42.55011257744314" lon="11.90396045037231"><ele>308.5</ele><time>2026-04-30T10:00:00Z</time></trkpt><trkpt lat="42.550062451618956" lon="11.904110269279295"><ele>308.75</ele><time>2026-04-30T10:00:01Z</time></trkpt><trkpt lat="42.55001099802031" lon="11.90425441088164"><ele>309.0</ele><time>2026-04-30T10:00:02Z</time></trkpt><trkpt lat="42.54995844343755" lon="11.904398590179381"><ele>309.25</ele><time>2026-04-30T10:00:03Z</time></trkpt><trkpt lat="42.54990828296506" lon="11.904551321508318"><ele>309.5</ele><time>2026-04-30T10:00:04Z</time></trkpt><trkpt lat="42.54985895069763" lon="11.904706138671106"><ele>309.75</ele><time>2026-04-30T10:00:05Z</time></trkpt><trkpt lat="42.549804811696234" lon="11.904860251214764"><ele>310.0</ele><time>2026-04-30T10:00:06Z</time></trkpt><trkpt lat="42.549753628725036" lon="11.905013884995638"><ele>310.25</ele><time>2026-04-30T10:00:07Z</time></trkpt><trkpt lat="42.549692069115686" lon="11.905174718355479"><ele>310.5</ele><time>2026-04-30T10:00:08Z</time></trkpt><trkpt lat="42.54963479173865" lon="11.9053347294437"><ele>310.75</ele><time>2026-04-30T10:00:09Z</time></trkpt><trkpt lat="42.549577991130235" lon="11.905496795751887"><ele>311.0</ele><time>2026-04-30T10:00:10Z</time></trkpt><trkpt lat="42.54952372889915" lon="11.905663057439709"><ele>311.0</ele><time>2026-04-30T10:00:11Z</time></trkpt><trkpt lat="42.54946735705743" lon="11.90582334143042"><ele>311.0</ele><time>2026-04-30T10:00:12Z</time></trkpt><trkpt lat="42.549411370916864" lon="11.905977472240131"><ele>311.0</ele><time>2026-04-30T10:00:13Z</time></trkpt><trkpt lat="42.54935808200263" lon="11.906131637724624"><ele>311.0</ele><time>2026-04-30T10:00:14Z</time></trkpt><trkpt lat="42.5493055330859" lon="11.906281120380415"><ele>311.0</ele><time>2026-04-30T10:00:15Z</time></trkpt><trkpt lat="42.54925554792361" lon="11.906428105916344"><ele>311.0</ele><time>2026-04-30T10:00:16Z</time></trkpt><trkpt lat="42.54923189508968" lon="11.906561342119037"><ele>311.0</ele><time>2026-04-30T10:00:17Z</time></trkpt><trkpt lat="42.54920097409578" lon="11.906718357305241"><ele>311.0</ele><time>2026-04-30T10:00:18Z</time></trkpt><trkpt lat="42.54919377071891" lon="11.906875675702269"><ele>311.0</ele><time>2026-04-30T10:00:19Z</time></trkpt><trkpt lat="42.54920636243649" lon="11.907018865120678"><ele>311.0</ele><time>2026-04-30T10:00:20Z</time></trkpt><trkpt lat="42.54921369961441" lon="11.907151340108458"><ele>311.0</ele><time>2026-04-30T10:00:20.999Z</time></trkpt><trkpt lat="42.549223116748024" lon="11.907299630576452"><ele>311.0</ele><time>2026-04-30T10:00:21.999Z</time></trkpt><trkpt lat="42.549239429857934" lon="11.907447429971322"><ele>311.0</ele><time>2026-04-30T10:00:22.999Z</time></trkpt><trkpt lat="42.54925238176303" lon="11.907598449059304"><ele>311.0</ele><time>2026-04-30T10:00:23.999Z</time></trkpt><trkpt lat="42.54926235913645" lon="11.907752196048087"><ele>311.0</ele><time>2026-04-30T10:00:24.999Z</time></trkpt><trkpt lat="42.54927695655672" lon="11.907906637385608"><ele>311.0</ele><time>2026-04-30T10:00:25.999Z</time></trkpt><trkpt lat="42.54928974853774" lon="11.908063798418548"><ele>311.0</ele><time>2026-04-30T10:00:26.999Z</time></trkpt><trkpt lat="42.54929772305108" lon="11.908210584977828"><ele>311.0</ele><time>2026-04-30T10:00:27.999Z</time></trkpt><trkpt lat="42.54930724215947" lon="11.908359369840044"><ele>311.0</ele><time>2026-04-30T10:00:28.999Z</time></trkpt><trkpt lat="42.549318701966165" lon="11.908508594168906"><ele>311.0</ele><time>2026-04-30T10:00:29.999Z</time></trkpt><trkpt lat="42.54932808403651" lon="11.90864951865353"><ele>311.0</ele><time>2026-04-30T10:00:30.999Z</time></trkpt><trkpt lat="42.54934014980583" lon="11.908785647592184"><ele>311.0</ele><time>2026-04-30T10:00:31.999Z</time></trkpt><trkpt lat="42.549351119004314" lon="11.908918635092377"><ele>311.0</ele><time>2026-04-30T10:00:32.999Z</time></trkpt><trkpt lat="42.54935684832977" lon="11.909038942663441"><ele>311.0</ele><time>2026-04-30T10:00:33.999Z</time></trkpt><trkpt lat="42.549365923657994" lon="11.90915173417903"><ele>311.0</ele><time>2026-04-30T10:00:34.999Z</time></trkpt><trkpt lat="42.54937446074842" lon="11.909253062236923"><ele>311.0</ele><time>2026-04-30T10:00:35.999Z</time></trkpt><trkpt lat="42.54938616059153" lon="11.909406540328893"><ele>311.0</ele><time>2026-04-30T10:00:37.999Z</time></trkpt><trkpt lat="42.54939501329722" lon="11.909520441713537"><ele>311.0</ele><time>2026-04-30T10:00:39.999Z</time></trkpt><trkpt lat="42.54940018115966" lon="11.909629646611815"><ele>311.1666666666667</ele><time>2026-04-30T10:00:41.999Z</time></trkpt><trkpt lat="42.5494225204617" lon="11.909728201657742"><ele>311.33333333333337</ele><time>2026-04-30T10:00:43.999Z</time></trkpt><trkpt lat="42.54944002966792" lon="11.909820852719607"><ele>311.5</ele><time>2026-04-30T10:00:45.999Z</time></trkpt><trkpt lat="42.549506573698466" lon="11.909879190224782"><ele>311.6666666666667</ele><time>2026-04-30T10:00:47.999Z</time></trkpt><trkpt lat="42.5495871470736" lon="11.909834670797565"><ele>311.8333333333333</ele><time>2026-04-30T10:00:49.999Z</time></trkpt><trkpt lat="42.549635772178725" lon="11.909761639902765"><ele>312.0</ele><time>2026-04-30T10:00:51.999Z</time></trkpt><trkpt lat="42.5496146498476" lon="11.909635493813044"><ele>311.8571428571429</ele><time>2026-04-30T10:00:53.999Z</time></trkpt><trkpt lat="42.54963654874194" lon="11.909516581915165"><ele>311.71428571428567</ele><time>2026-04-30T10:00:55.999Z</time></trkpt><trkpt lat="42.54961556064511" lon="11.90941157391276"><ele>311.57142857142856</ele><time>2026-04-30T10:00:58.999Z</time></trkpt><trkpt lat="42.54960439426331" lon="11.909323708397826"><ele>311.42857142857144</ele><time>2026-04-30T10:07:14.999Z</time></trkpt><trkpt lat="42.54958738710131" lon="11.909236832854688"><ele>311.28571428571433</ele><time>2026-04-30T10:07:22.999Z</time></trkpt><trkpt lat="42.54957727755299" lon="11.909144283456099"><ele>311.1428571428571</ele><time>2026-04-30T10:07:29.999Z</time></trkpt><trkpt lat="42.54955820381541" lon="11.909047258464664"><ele>311.0</ele><time>2026-04-30T10:07:36.999Z</time></trkpt><trkpt lat="42.54953543069852" lon="11.908966087151326"><ele>311.0</ele><time>2026-04-30T10:07:43.999Z</time></trkpt><trkpt lat="42.549550209653816" lon="11.908869412384153"><ele>311.0</ele><time>2026-04-30T10:07:51.998Z</time></trkpt><trkpt lat="42.54948626434041" lon="11.90887412407638"><ele>311.0</ele><time>2026-04-30T10:08:54.999Z</time></trkpt><trkpt lat="42.549589705478425" lon="11.90887411398875"><ele>311.0</ele><time>2026-04-30T10:10:59Z</time></trkpt><trkpt lat="42.5495346476573" lon="11.908831264211214"><ele>311.0</ele><time>2026-04-30T10:29:58Z</time></trkpt><trkpt lat="42.54946884977371" lon="11.908850698168353"><ele>311.0</ele><time>2026-04-30T10:30:07.999Z</time></trkpt><trkpt lat="42.54947883198351" lon="11.908938238333972"><ele>311.0</ele><time>2026-04-30T10:30:19.999Z</time></trkpt><trkpt lat="42.54947924067503" lon="11.909032613678434"><ele>311.0</ele><time>2026-04-30T10:30:26.999Z</time></trkpt><trkpt lat="42.549485033134445" lon="11.909125774779735"><ele>311.0</ele><time>2026-04-30T10:30:32.999Z</time></trkpt><trkpt lat="42.54949285053299" lon="11.909222732069177"><ele>311.0</ele><time>2026-04-30T10:30:39.999Z</time></trkpt><trkpt lat="42.5495183817004" lon="11.909321556601155"><ele>311.0</ele><time>2026-04-30T10:30:45.999Z</time></trkpt><trkpt lat="42.54958264071541" lon="11.90934681106862"><ele>311.0</ele><time>2026-04-30T10:30:52.999Z</time></trkpt><trkpt lat="42.54952263928026" lon="11.90938482862365"><ele>311.0</ele><time>2026-04-30T10:37:00.999Z</time></trkpt><trkpt lat="42.54945445986249" lon="11.909344811783694"><ele>311.0</ele><time>2026-04-30T10:37:02.999Z</time></trkpt><trkpt lat="42.54940348325745" lon="11.909215824662"><ele>311.0</ele><time>2026-04-30T10:37:04.999Z</time></trkpt><trkpt lat="42.54938532692278" lon="11.909082407947023"><ele>311.0</ele><time>2026-04-30T10:37:06.999Z</time></trkpt><trkpt lat="42.54937725918903" lon="11.908996754980324"><ele>311.0</ele><time>2026-04-30T10:37:07.999Z</time></trkpt><trkpt lat="42.549368667520376" lon="11.908908085773056"><ele>311.0</ele><time>2026-04-30T10:37:08.999Z</time></trkpt><trkpt lat="42.54936311559211" lon="11.908803634641256"><ele>311.0</ele><time>2026-04-30T10:37:09.999Z</time></trkpt><trkpt lat="42.54935957632729" lon="11.908709743417369"><ele>311.0</ele><time>2026-04-30T10:37:10.999Z</time></trkpt><trkpt lat="42.54934984835746" lon="11.90861640335733"><ele>311.0</ele><time>2026-04-30T10:37:11.999Z</time></trkpt><trkpt lat="42.54932428239907" lon="11.908442501696568"><ele>311.0</ele><time>2026-04-30T10:37:13.999Z</time></trkpt><trkpt lat="42.549314986890906" lon="11.908336175264623"><ele>311.0</ele><time>2026-04-30T10:37:14.999Z</time></trkpt><trkpt lat="42.54930972499035" lon="11.908245862708121"><ele>311.0</ele><time>2026-04-30T10:37:15.999Z</time></trkpt><trkpt lat="42.54930461524174" lon="11.908150282005897"><ele>311.0</ele><time>2026-04-30T10:37:16.999Z</time></trkpt><trkpt lat="42.54930059921036" lon="11.90800497662148"><ele>311.0</ele><time>2026-04-30T10:37:18.999Z</time></trkpt><trkpt lat="42.549297144737146" lon="11.907913717908189"><ele>311.0</ele><time>2026-04-30T10:37:20.998Z</time></trkpt><trkpt lat="42.549167872892404" lon="11.907909156133462"><ele>311.0</ele><time>2026-04-30T10:37:21.998Z</time></trkpt><trkpt lat="42.5490522548473" lon="11.90783631790181"><ele>311.0</ele><time>2026-04-30T10:37:24Z</time></trkpt><trkpt lat="42.54897805620601" lon="11.907794253630113"><ele>311.0</ele><time>2026-04-30T10:37:25Z</time></trkpt><trkpt lat="42.54890639236401" lon="11.907747696861724"><ele>311.0</ele><time>2026-04-30T10:37:26Z</time></trkpt><trkpt lat="42.54884111904611" lon="11.907714701319556"><ele>311.0</ele><time>2026-04-30T10:37:27Z</time></trkpt><trkpt lat="42.54876293786699" lon="11.907682024254317"><ele>311.0</ele><time>2026-04-30T10:37:28Z</time></trkpt><trkpt lat="42.548680358882976" lon="11.90763937436147"><ele>311.0</ele><time>2026-04-30T10:37:29Z</time></trkpt><trkpt lat="42.54859674700266" lon="11.90759224158733"><ele>311.0</ele><time>2026-04-30T10:37:30Z</time></trkpt><trkpt lat="42.548512116413384" lon="11.907554543773482"><ele>311.0</ele><time>2026-04-30T10:37:31Z</time></trkpt><trkpt lat="42.54841673905629" lon="11.907527231274651"><ele>311.0</ele><time>2026-04-30T10:37:32Z</time></trkpt><trkpt lat="42.54832299915064" lon="11.907491252458499"><ele>311.0</ele><time>2026-04-30T10:37:33Z</time></trkpt><trkpt lat="42.5482265934707" lon="11.907442949224588"><ele>311.0</ele><time>2026-04-30T10:37:34Z</time></trkpt><trkpt lat="42.5481265411163" lon="11.907391891591656"><ele>311.0</ele><time>2026-04-30T10:37:35Z</time></trkpt><trkpt lat="42.5480226935246" lon="11.90734642973798"><ele>311.0</ele><time>2026-04-30T10:37:36Z</time></trkpt><trkpt lat="42.54791822657015" lon="11.907300574781647"><ele>311.0</ele><time>2026-04-30T10:37:37Z</time></trkpt><trkpt lat="42.54781235071981" lon="11.907258459147215"><ele>311.0</ele><time>2026-04-30T10:37:38Z</time></trkpt><trkpt lat="42.54770751175607" lon="11.907208684782795"><ele>311.25</ele><time>2026-04-30T10:37:39Z</time></trkpt><trkpt lat="42.54759451666099" lon="11.907162425931265"><ele>311.5</ele><time>2026-04-30T10:37:40Z</time></trkpt><trkpt lat="42.54748162658335" lon="11.907117207064767"><ele>311.75</ele><time>2026-04-30T10:37:41Z</time></trkpt><trkpt lat="42.54736983700049" lon="11.907070084640852"><ele>312.0</ele><time>2026-04-30T10:37:42Z</time></trkpt><trkpt lat="42.547261994213216" lon="11.907023658763569"><ele>312.0</ele><time>2026-04-30T10:37:43Z</time></trkpt><trkpt lat="42.54715695541754" lon="11.90697395157456"><ele>312.0</ele><time>2026-04-30T10:37:44Z</time></trkpt><trkpt lat="42.54705480047471" lon="11.90692917095391"><ele>312.0</ele><time>2026-04-30T10:37:45Z</time></trkpt><trkpt lat="42.546962513246775" lon="11.906897381088955"><ele>312.0</ele><time>2026-04-30T10:37:46Z</time></trkpt><trkpt lat="42.546886441369125" lon="11.906866684584749"><ele>312.0</ele><time>2026-04-30T10:37:47Z</time></trkpt><trkpt lat="42.54681434920664" lon="11.90682941817252"><ele>312.0</ele><time>2026-04-30T10:37:48Z</time></trkpt><trkpt lat="42.546740349992106" lon="11.90680351650417"><ele>312.0</ele><time>2026-04-30T10:37:49Z</time></trkpt><trkpt lat="42.54665886616241" lon="11.906776938512692"><ele>312.0</ele><time>2026-04-30T10:37:50Z</time></trkpt><trkpt lat="42.546568326372864" lon="11.906752934599949"><ele>312.0</ele><time>2026-04-30T10:37:51Z</time></trkpt><trkpt lat="42.54647265947303" lon="11.90673675609482"><ele>312.0</ele><time>2026-04-30T10:37:52Z</time></trkpt><trkpt lat="42.54637271042549" lon="11.906717957950764"><ele>312.0</ele><time>2026-04-30T10:37:53Z</time></trkpt><trkpt lat="42.546270454482446" lon="11.906698159955306"><ele>312.0</ele><time>2026-04-30T10:37:54Z</time></trkpt><trkpt lat="42.54616531642387" lon="11.906682814628969"><ele>312.0</ele><time>2026-04-30T10:37:55Z</time></trkpt><trkpt lat="42.546058444092466" lon="11.90666506895149"><ele>312.0</ele><time>2026-04-30T10:37:56Z</time></trkpt><trkpt lat="42.54595064847947" lon="11.906643606071414"><ele>312.0</ele><time>2026-04-30T10:37:57Z</time></trkpt><trkpt lat="42.54584050182657" lon="11.906622194949026"><ele>312.6</ele><time>2026-04-30T10:37:58Z</time></trkpt><trkpt lat="42.54572961675385" lon="11.906610787447605"><ele>313.2</ele><time>2026-04-30T10:37:59Z</time></trkpt><trkpt lat="42.54562672521132" lon="11.90657145594856"><ele>313.8</ele><time>2026-04-30T10:38:00Z</time></trkpt><trkpt lat="42.54552969037583" lon="11.90655231698617"><ele>314.4</ele><time>2026-04-30T10:38:01Z</time></trkpt><trkpt lat="42.54543952698278" lon="11.906556187459467"><ele>315.0</ele><time>2026-04-30T10:38:02Z</time></trkpt><trkpt lat="42.54535921170713" lon="11.906528096963905"><ele>315.4</ele><time>2026-04-30T10:38:03Z</time></trkpt><trkpt lat="42.545290127760694" lon="11.906502449412452"><ele>315.8</ele><time>2026-04-30T10:38:04Z</time></trkpt><trkpt lat="42.545200282208455" lon="11.906467094812841"><ele>316.2</ele><time>2026-04-30T10:38:06Z</time></trkpt><trkpt lat="42.545117753627764" lon="11.906425442069978"><ele>316.6</ele><time>2026-04-30T10:38:14Z</time></trkpt><trkpt lat="42.545024951953415" lon="11.906412391811358"><ele>317.0</ele><time>2026-04-30T10:38:16Z</time></trkpt><trkpt lat="42.54495918802502" lon="11.90657288009133"><ele>317.0</ele><time>2026-04-30T10:38:17Z</time></trkpt><trkpt lat="42.544905828739765" lon="11.906674132976773"><ele>317.0</ele><time>2026-04-30T10:38:18Z</time></trkpt><trkpt lat="42.5448443593974" lon="11.90678639263565"><ele>317.0</ele><time>2026-04-30T10:38:19Z</time></trkpt><trkpt lat="42.54478351057244" lon="11.906899976155366"><ele>317.0</ele><time>2026-04-30T10:38:20Z</time></trkpt><trkpt lat="42.54471703983186" lon="11.907024354364571"><ele>317.0</ele><time>2026-04-30T10:38:21Z</time></trkpt><trkpt lat="42.54464669125258" lon="11.907153708905678"><ele>317.5</ele><time>2026-04-30T10:38:22Z</time></trkpt><trkpt lat="42.54456894593429" lon="11.907276860467931"><ele>318.0</ele><time>2026-04-30T10:38:23Z</time></trkpt><trkpt lat="42.54448829883558" lon="11.907403732867806"><ele>318.5</ele><time>2026-04-30T10:38:24Z</time></trkpt><trkpt lat="42.544401019643196" lon="11.907531520068979"><ele>319.0</ele><time>2026-04-30T10:38:25Z</time></trkpt><trkpt lat="42.54431159800423" lon="11.907644946301675"><ele>320.5</ele><time>2026-04-30T10:38:26Z</time></trkpt><trkpt lat="42.54421042125355" lon="11.90776332520043"><ele>322.0</ele><time>2026-04-30T10:38:27Z</time></trkpt><trkpt lat="42.54410953134883" lon="11.907876350412979"><ele>323.5</ele><time>2026-04-30T10:38:28Z</time></trkpt><trkpt lat="42.54401017180726" lon="11.907988459372673"><ele>325.0</ele><time>2026-04-30T10:38:29Z</time></trkpt><trkpt lat="42.54391058827864" lon="11.908098450875032"><ele>325.0</ele><time>2026-04-30T10:38:29.999Z</time></trkpt><trkpt lat="42.54380953701154" lon="11.90820319755938"><ele>325.0</ele><time>2026-04-30T10:38:30.999Z</time></trkpt><trkpt lat="42.543702628016156" lon="11.908307764289507"><ele>325.0</ele><time>2026-04-30T10:38:31.999Z</time></trkpt><trkpt lat="42.54358907289673" lon="11.908408508726838"><ele>325.0</ele><time>2026-04-30T10:38:32.999Z</time></trkpt><trkpt lat="42.543471571287675" lon="11.908500086507631"><ele>325.75</ele><time>2026-04-30T10:38:33.999Z</time></trkpt><trkpt lat="42.54334401312699" lon="11.908593525871254"><ele>326.5</ele><time>2026-04-30T10:38:34.999Z</time></trkpt><trkpt lat="42.54323278931824" lon="11.908688578198117"><ele>327.25</ele><time>2026-04-30T10:38:35.999Z</time></trkpt><trkpt lat="42.54311409589175" lon="11.908742812030663"><ele>328.0</ele><time>2026-04-30T10:38:36.999Z</time></trkpt><trkpt lat="42.54293432201595" lon="11.908872968847373"><ele>329.0</ele><time>2026-04-30T10:38:37.999Z</time></trkpt><trkpt lat="42.54278254762957" lon="11.908963123803117"><ele>330.0</ele><time>2026-04-30T10:38:38.999Z</time></trkpt><trkpt lat="42.54262469588056" lon="11.909056298181937"><ele>331.0</ele><time>2026-04-30T10:38:39.999Z</time></trkpt><trkpt lat="42.54246954200676" lon="11.909143557171827"><ele>331.0</ele><time>2026-04-30T10:38:40.999Z</time></trkpt><trkpt lat="42.54230672157849" lon="11.90922677721645"><ele>331.0</ele><time>2026-04-30T10:38:41.999Z</time></trkpt><trkpt lat="42.54214306426809" lon="11.909315254882374"><ele>331.0</ele><time>2026-04-30T10:38:42.999Z</time></trkpt><trkpt lat="42.54197109082004" lon="11.909413279766389"><ele>331.66666666666663</ele><time>2026-04-30T10:38:43.999Z</time></trkpt><trkpt lat="42.541798601845386" lon="11.909516504360253"><ele>332.3333333333333</ele><time>2026-04-30T10:38:44.999Z</time></trkpt><trkpt lat="42.54163051611851" lon="11.909618471480313"><ele>333.0</ele><time>2026-04-30T10:38:45.999Z</time></trkpt><trkpt lat="42.541459940773755" lon="11.909725918855617"><ele>333.0</ele><time>2026-04-30T10:38:46.999Z</time></trkpt><trkpt lat="42.54128731436139" lon="11.909830652805812"><ele>333.0</ele><time>2026-04-30T10:38:47.999Z</time></trkpt><trkpt lat="42.54110913400589" lon="11.909932125797"><ele>333.0</ele><time>2026-04-30T10:38:48.999Z</time></trkpt><trkpt lat="42.540916318946635" lon="11.909988116871505"><ele>334.3333333333333</ele><time>2026-04-30T10:38:49.999Z</time></trkpt><trkpt lat="42.540736557638155" lon="11.910092103305407"><ele>335.66666666666663</ele><time>2026-04-30T10:38:50.999Z</time></trkpt><trkpt lat="42.54055121486473" lon="11.910203029824345"><ele>337.0</ele><time>2026-04-30T10:38:51.999Z</time></trkpt><trkpt lat="42.540388383220886" lon="11.910335031418985"><ele>337.0</ele><time>2026-04-30T10:38:52.999Z</time></trkpt><trkpt lat="42.54021905366566" lon="11.910462656334728"><ele>337.0</ele><time>2026-04-30T10:38:53.999Z</time></trkpt><trkpt lat="42.54006411449642" lon="11.910609512378713"><ele>337.0</ele><time>2026-04-30T10:38:54.999Z</time></trkpt><trkpt lat="42.53992139105793" lon="11.910785115182431"><ele>337.66666666666663</ele><time>2026-04-30T10:38:55.999Z</time></trkpt><trkpt lat="42.53978687390199" lon="11.910984758599929"><ele>338.3333333333333</ele><time>2026-04-30T10:38:56.999Z</time></trkpt><trkpt lat="42.53966072247891" lon="11.911202074406448"><ele>339.0</ele><time>2026-04-30T10:38:57.999Z</time></trkpt><trkpt lat="42.5395428763994" lon="11.91142727173389"><ele>339.0</ele><time>2026-04-30T10:38:58.999Z</time></trkpt><trkpt lat="42.53942914286526" lon="11.911667025575142"><ele>339.0</ele><time>2026-04-30T10:38:59.999Z</time></trkpt><trkpt lat="42.53930688219907" lon="11.91190115155005"><ele>339.0</ele><time>2026-04-30T10:39:00.999Z</time></trkpt><trkpt lat="42.539183003727864" lon="11.9121386561985"><ele>338.3333333333333</ele><time>2026-04-30T10:39:01.999Z</time></trkpt><trkpt lat="42.53905773779649" lon="11.912380118548617"><ele>337.66666666666663</ele><time>2026-04-30T10:39:02.999Z</time></trkpt><trkpt lat="42.538931496544464" lon="11.912622027847636"><ele>337.0</ele><time>2026-04-30T10:39:03.999Z</time></trkpt><trkpt lat="42.53880572365305" lon="11.912864611609743"><ele>337.3333333333333</ele><time>2026-04-30T10:39:04.999Z</time></trkpt><trkpt lat="42.53868143648834" lon="11.913103775430507"><ele>337.6666666666667</ele><time>2026-04-30T10:39:05.999Z</time></trkpt><trkpt lat="42.538553460745185" lon="11.913341517103994"><ele>338.0</ele><time>2026-04-30T10:39:06.999Z</time></trkpt><trkpt lat="42.53843510150447" lon="11.913581986664758"><ele>338.6666666666667</ele><time>2026-04-30T10:39:07.999Z</time></trkpt><trkpt lat="42.53831283813986" lon="11.913818810041926"><ele>339.3333333333333</ele><time>2026-04-30T10:39:08.999Z</time></trkpt><trkpt lat="42.538187960599906" lon="11.914049038976726"><ele>340.0</ele><time>2026-04-30T10:39:09.999Z</time></trkpt><trkpt lat="42.53806311996218" lon="11.91427534133175"><ele>342.3333333333333</ele><time>2026-04-30T10:39:10.999Z</time></trkpt><trkpt lat="42.53793627006296" lon="11.914495467900453"><ele>344.6666666666667</ele><time>2026-04-30T10:39:11.999Z</time></trkpt><trkpt lat="42.53780435337478" lon="11.914705882312974"><ele>347.0</ele><time>2026-04-30T10:39:12.999Z</time></trkpt><trkpt lat="42.537670110718146" lon="11.914909063222506"><ele>351.0</ele><time>2026-04-30T10:39:13.999Z</time></trkpt><trkpt lat="42.537528545697086" lon="11.915105482134692"><ele>355.0</ele><time>2026-04-30T10:39:14.999Z</time></trkpt><trkpt lat="42.537383257716115" lon="11.915297662207227"><ele>359.0</ele><time>2026-04-30T10:39:15.999Z</time></trkpt><trkpt lat="42.53723420881938" lon="11.915483001824839"><ele>359.0</ele><time>2026-04-30T10:39:16.999Z</time></trkpt><trkpt lat="42.537082290452986" lon="11.915666770597928"><ele>359.0</ele><time>2026-04-30T10:39:17.999Z</time></trkpt><trkpt lat="42.53693455901464" lon="11.915854308077305"><ele>359.0</ele><time>2026-04-30T10:39:18.999Z</time></trkpt><trkpt lat="42.53678068878812" lon="11.916037466871257"><ele>360.33333333333337</ele><time>2026-04-30T10:39:19.999Z</time></trkpt><trkpt lat="42.53662425094255" lon="11.91622078704716"><ele>361.6666666666667</ele><time>2026-04-30T10:39:20.999Z</time></trkpt><trkpt lat="42.53646074028168" lon="11.916407395268536"><ele>363.0</ele><time>2026-04-30T10:39:21.999Z</time></trkpt><trkpt lat="42.536294140938885" lon="11.916593175030068"><ele>356.0</ele><time>2026-04-30T10:39:22.999Z</time></trkpt><trkpt lat="42.53613432778481" lon="11.91677827470441"><ele>349.0</ele><time>2026-04-30T10:39:23.999Z</time></trkpt><trkpt lat="42.535973414537885" lon="11.916963857809694"><ele>342.0</ele><time>2026-04-30T10:39:24.998Z</time></trkpt><trkpt lat="42.53580814798115" lon="11.917151719413487"><ele>342.0</ele><time>2026-04-30T10:39:25.998Z</time></trkpt><trkpt lat="42.53564099302057" lon="11.917344161733192"><ele>342.0</ele><time>2026-04-30T10:39:26.998Z</time></trkpt><trkpt lat="42.53547099954759" lon="11.91753826246012"><ele>342.0</ele><time>2026-04-30T10:39:27.998Z</time></trkpt><trkpt lat="42.53530198593901" lon="11.917730349962742"><ele>341.6666666666667</ele><time>2026-04-30T10:39:29Z</time></trkpt><trkpt lat="42.53513408403703" lon="11.917926272998317"><ele>341.33333333333337</ele><time>2026-04-30T10:39:30.001Z</time></trkpt><trkpt lat="42.534964895985254" lon="11.91811993964291"><ele>341.0</ele><time>2026-04-30T10:39:31Z</time></trkpt><trkpt lat="42.53479361982273" lon="11.91831135466469"><ele>340.6666666666667</ele><time>2026-04-30T10:39:32.001Z</time></trkpt><trkpt lat="42.53462405961401" lon="11.918500021741751"><ele>340.3333333333333</ele><time>2026-04-30T10:39:33.001Z</time></trkpt><trkpt lat="42.534453088217624" lon="11.918691724094908"><ele>340.0</ele><time>2026-04-30T10:39:34.001Z</time></trkpt><trkpt lat="42.53428221887688" lon="11.918886693105435"><ele>340.0</ele><time>2026-04-30T10:39:35.001Z</time></trkpt><trkpt lat="42.53410890025817" lon="11.919080103414576"><ele>340.0</ele><time>2026-04-30T10:39:36.001Z</time></trkpt><trkpt lat="42.53393308020962" lon="11.919273029899124"><ele>336.0</ele><time>2026-04-30T10:39:37.001Z</time></trkpt><trkpt lat="42.533755765061684" lon="11.91946589240204"><ele>332.0</ele><time>2026-04-30T10:39:38.001Z</time></trkpt><trkpt lat="42.533577647348935" lon="11.919655274445791"><ele>332.0</ele><time>2026-04-30T10:39:39.001Z</time></trkpt><trkpt lat="42.533403266441795" lon="11.919838239114254"><ele>332.0</ele><time>2026-04-30T10:39:40.001Z</time></trkpt><trkpt lat="42.53322981951273" lon="11.920010426916717"><ele>332.0</ele><time>2026-04-30T10:39:41.001Z</time></trkpt><trkpt lat="42.533043965307755" lon="11.920161669233243"><ele>330.33333333333337</ele><time>2026-04-30T10:39:42.001Z</time></trkpt><trkpt lat="42.532848475665354" lon="11.920294364028573"><ele>328.6666666666667</ele><time>2026-04-30T10:39:43.001Z</time></trkpt><trkpt lat="42.53264927303125" lon="11.920403181961897"><ele>327.0</ele><time>2026-04-30T10:39:44.001Z</time></trkpt><trkpt lat="42.53244506128371" lon="11.920505007401854"><ele>327.0</ele><time>2026-04-30T10:39:45Z</time></trkpt><trkpt lat="42.53223544864332" lon="11.920594944859326"><ele>327.0</ele><time>2026-04-30T10:39:46Z</time></trkpt><trkpt lat="42.53202471881529" lon="11.920684252267199"><ele>327.0</ele><time>2026-04-30T10:39:47Z</time></trkpt><trkpt lat="42.53181353681472" lon="11.920776109703311"><ele>326.6666666666667</ele><time>2026-04-30T10:39:48Z</time></trkpt><trkpt lat="42.531603715088664" lon="11.920871303523821"><ele>326.33333333333337</ele><time>2026-04-30T10:39:49Z</time></trkpt><trkpt lat="42.53139977657525" lon="11.920970792260182"><ele>326.0</ele><time>2026-04-30T10:39:50Z</time></trkpt><trkpt lat="42.53120371044066" lon="11.921084447831566"><ele>322.33333333333337</ele><time>2026-04-30T10:39:51Z</time></trkpt><trkpt lat="42.53102136132684" lon="11.921222944177966"><ele>318.6666666666667</ele><time>2026-04-30T10:39:52Z</time></trkpt><trkpt lat="42.53085762211976" lon="11.921395588088687"><ele>315.0</ele><time>2026-04-30T10:39:53Z</time></trkpt><trkpt lat="42.53070771620238" lon="11.921591332104835"><ele>314.3333333333333</ele><time>2026-04-30T10:39:54Z</time></trkpt><trkpt lat="42.53057549738658" lon="11.92180602535149"><ele>313.66666666666663</ele><time>2026-04-30T10:39:55Z</time></trkpt><trkpt lat="42.53046594202281" lon="11.922028626699426"><ele>313.0</ele><time>2026-04-30T10:39:56Z</time></trkpt><trkpt lat="42.530380524892124" lon="11.92228728762525"><ele>313.0</ele><time>2026-04-30T10:39:57Z</time></trkpt><trkpt lat="42.530308469429386" lon="11.922551575471235"><ele>313.0</ele><time>2026-04-30T10:39:58Z</time></trkpt><trkpt lat="42.53024660300629" lon="11.922831478599909"><ele>313.0</ele><time>2026-04-30T10:39:59Z</time></trkpt><trkpt lat="42.530179360956424" lon="11.92311249724283"><ele>313.3333333333333</ele><time>2026-04-30T10:40:00Z</time></trkpt><trkpt lat="42.53011218988425" lon="11.923391667367275"><ele>313.6666666666667</ele><time>2026-04-30T10:40:01Z</time></trkpt><trkpt lat="42.53004728708055" lon="11.923672548487245"><ele>314.0</ele><time>2026-04-30T10:40:02Z</time></trkpt><trkpt lat="42.52998498819458" lon="11.923946368477331"><ele>315.0</ele><time>2026-04-30T10:40:03Z</time></trkpt><trkpt lat="42.52992050079808" lon="11.924211463168449"><ele>316.0</ele><time>2026-04-30T10:40:04Z</time></trkpt><trkpt lat="42.52985564932125" lon="11.924473315438853"><ele>317.0</ele><time>2026-04-30T10:40:05Z</time></trkpt><trkpt lat="42.52979634222849" lon="11.924738720155931"><ele>318.0</ele><time>2026-04-30T10:40:06Z</time></trkpt><trkpt lat="42.52974114226501" lon="11.925013384366913"><ele>319.0</ele><time>2026-04-30T10:40:07Z</time></trkpt><trkpt lat="42.52967804856319" lon="11.925287453020532"><ele>320.0</ele><time>2026-04-30T10:40:08Z</time></trkpt><trkpt lat="42.52960400636819" lon="11.925564117366052"><ele>319.6666666666667</ele><time>2026-04-30T10:40:09Z</time></trkpt><trkpt lat="42.52952870841164" lon="11.92584590395888"><ele>319.3333333333333</ele><time>2026-04-30T10:40:10Z</time></trkpt><trkpt lat="42.52946277648844" lon="11.926133362613953"><ele>319.0</ele><time>2026-04-30T10:40:11Z</time></trkpt><trkpt lat="42.529397348077374" lon="11.92642701470777"><ele>319.0</ele><time>2026-04-30T10:40:12Z</time></trkpt><trkpt lat="42.52933036814209" lon="11.926722460531504"><ele>319.0</ele><time>2026-04-30T10:40:13Z</time></trkpt><trkpt lat="42.52926058367621" lon="11.927018199640212"><ele>316.5</ele><time>2026-04-30T10:40:14Z</time></trkpt><trkpt lat="42.529193820906805" lon="11.927316425342104"><ele>314.0</ele><time>2026-04-30T10:40:15Z</time></trkpt><trkpt lat="42.52912124571157" lon="11.92761587582068"><ele>314.0</ele><time>2026-04-30T10:40:16Z</time></trkpt><trkpt lat="42.5290472221079" lon="11.927910299132455"><ele>314.0</ele><time>2026-04-30T10:40:17Z</time></trkpt><trkpt lat="42.5289743775997" lon="11.928206289009225"><ele>316.6666666666667</ele><time>2026-04-30T10:40:18Z</time></trkpt><trkpt lat="42.52890323267521" lon="11.928497110796846"><ele>319.3333333333333</ele><time>2026-04-30T10:40:19Z</time></trkpt><trkpt lat="42.528836362409166" lon="11.928781343270522"><ele>322.0</ele><time>2026-04-30T10:40:20Z</time></trkpt><trkpt lat="42.528775681988535" lon="11.929064244939092"><ele>324.3333333333333</ele><time>2026-04-30T10:40:21Z</time></trkpt><trkpt lat="42.528705810311635" lon="11.929337332629062"><ele>326.6666666666667</ele><time>2026-04-30T10:40:21.999Z</time></trkpt><trkpt lat="42.528641043112465" lon="11.929608312980186"><ele>329.0</ele><time>2026-04-30T10:40:22.999Z</time></trkpt><trkpt lat="42.52857619423999" lon="11.929881506581332"><ele>329.0</ele><time>2026-04-30T10:40:23.999Z</time></trkpt><trkpt lat="42.52850782370871" lon="11.930167179943282"><ele>329.0</ele><time>2026-04-30T10:40:24.999Z</time></trkpt><trkpt lat="42.52844792104636" lon="11.930436490291529"><ele>329.0</ele><time>2026-04-30T10:40:25.999Z</time></trkpt><trkpt lat="42.52838719911954" lon="11.930712125091889"><ele>329.6666666666667</ele><time>2026-04-30T10:40:26.999Z</time></trkpt><trkpt lat="42.52832200930648" lon="11.930980214626466"><ele>330.3333333333333</ele><time>2026-04-30T10:40:27.999Z</time></trkpt><trkpt lat="42.52825643645359" lon="11.93125423736982"><ele>331.0</ele><time>2026-04-30T10:40:28.999Z</time></trkpt><trkpt lat="42.528194741396995" lon="11.931521973263166"><ele>331.3333333333333</ele><time>2026-04-30T10:40:29.999Z</time></trkpt><trkpt lat="42.528132679810206" lon="11.931792186231208"><ele>331.6666666666667</ele><time>2026-04-30T10:40:30.999Z</time></trkpt><trkpt lat="42.52808189153509" lon="11.932064951927984"><ele>332.0</ele><time>2026-04-30T10:40:31.999Z</time></trkpt><trkpt lat="42.5280467964096" lon="11.932345862530488"><ele>331.6666666666667</ele><time>2026-04-30T10:40:32.999Z</time></trkpt><trkpt lat="42.52802570397064" lon="11.932630574208854"><ele>331.3333333333333</ele><time>2026-04-30T10:40:33.999Z</time></trkpt><trkpt lat="42.52801820969115" lon="11.932919858852024"><ele>331.0</ele><time>2026-04-30T10:40:34.999Z</time></trkpt><trkpt lat="42.52801745681933" lon="11.933216750208164"><ele>331.0</ele><time>2026-04-30T10:40:35.999Z</time></trkpt><trkpt lat="42.52802104540179" lon="11.933499788723783"><ele>331.0</ele><time>2026-04-30T10:40:36.999Z</time></trkpt><trkpt lat="42.528039319841646" lon="11.933788367194579"><ele>331.0</ele><time>2026-04-30T10:40:37.999Z</time></trkpt><trkpt lat="42.52807448438256" lon="11.934084434055388"><ele>332.5</ele><time>2026-04-30T10:40:38.999Z</time></trkpt><trkpt lat="42.528110536760906" lon="11.934387227353618"><ele>334.0</ele><time>2026-04-30T10:40:39.999Z</time></trkpt><trkpt lat="42.52814545362721" lon="11.934687290587682"><ele>334.0</ele><time>2026-04-30T10:40:40.998Z</time></trkpt><trkpt lat="42.528176563011804" lon="11.934989359764113"><ele>334.0</ele><time>2026-04-30T10:40:41.998Z</time></trkpt><trkpt lat="42.52820338078714" lon="11.93528979731588"><ele>334.0</ele><time>2026-04-30T10:40:42.998Z</time></trkpt><trkpt lat="42.52823199235655" lon="11.935590211599294"><ele>334.3333333333333</ele><time>2026-04-30T10:40:43.998Z</time></trkpt><trkpt lat="42.52826495793736" lon="11.935887896526767"><ele>334.6666666666667</ele><time>2026-04-30T10:40:44.998Z</time></trkpt><trkpt lat="42.528294060234074" lon="11.93617686915769"><ele>335.0</ele><time>2026-04-30T10:40:45.998Z</time></trkpt><trkpt lat="42.528323018269745" lon="11.936460907047037"><ele>335.0</ele><time>2026-04-30T10:40:46.998Z</time></trkpt><trkpt lat="42.528352637906195" lon="11.93673410618525"><ele>335.0</ele><time>2026-04-30T10:40:47.998Z</time></trkpt><trkpt lat="42.52837769460416" lon="11.93699455347745"><ele>335.0</ele><time>2026-04-30T10:40:48.998Z</time></trkpt><trkpt lat="42.52839696743666" lon="11.937241516925843"><ele>335.0</ele><time>2026-04-30T10:40:49.998Z</time></trkpt><trkpt lat="42.52842218677573" lon="11.937476115660367"><ele>335.0</ele><time>2026-04-30T10:40:50.998Z</time></trkpt><trkpt lat="42.528448286523606" lon="11.937699195747678"><ele>335.0</ele><time>2026-04-30T10:40:51.998Z</time></trkpt><trkpt lat="42.5284685919363" lon="11.937911264697346"><ele>335.33333333333337</ele><time>2026-04-30T10:40:52.998Z</time></trkpt><trkpt lat="42.52848763003239" lon="11.938116015243393"><ele>335.6666666666667</ele><time>2026-04-30T10:40:53.998Z</time></trkpt><trkpt lat="42.52850852689362" lon="11.93831791383377"><ele>336.0</ele><time>2026-04-30T10:40:54.998Z</time></trkpt><trkpt lat="42.528527513745566" lon="11.938527544095466"><ele>336.6666666666667</ele><time>2026-04-30T10:40:55.998Z</time></trkpt><trkpt lat="42.52854794312746" lon="11.938738717949068"><ele>337.33333333333337</ele><time>2026-04-30T10:40:56.998Z</time></trkpt><trkpt lat="42.52856629188449" lon="11.938953014483781"><ele>338.0</ele><time>2026-04-30T10:40:57.998Z</time></trkpt><trkpt lat="42.528571302474326" lon="11.939168342998618"><ele>339.33333333333337</ele><time>2026-04-30T10:40:58.998Z</time></trkpt><trkpt lat="42.52856785613797" lon="11.939385568271733"><ele>340.6666666666667</ele><time>2026-04-30T10:40:59.998Z</time></trkpt><trkpt lat="42.5285615428414" lon="11.939602711852682"><ele>342.0</ele><time>2026-04-30T10:41:00.998Z</time></trkpt><trkpt lat="42.528547555126295" lon="11.939815711734488"><ele>342.0</ele><time>2026-04-30T10:41:01.998Z</time></trkpt><trkpt lat="42.5285278819375" lon="11.940030716675633"><ele>342.0</ele><time>2026-04-30T10:41:02.998Z</time></trkpt><trkpt lat="42.52850126202589" lon="11.940248232627582"><ele>342.0</ele><time>2026-04-30T10:41:03.998Z</time></trkpt><trkpt lat="42.528469355553646" lon="11.940465907162473"><ele>342.6666666666667</ele><time>2026-04-30T10:41:04.998Z</time></trkpt><trkpt lat="42.528402109246834" lon="11.940667502730406"><ele>343.33333333333337</ele><time>2026-04-30T10:41:05.998Z</time></trkpt><trkpt lat="42.52835040876306" lon="11.940884267527082"><ele>344.0</ele><time>2026-04-30T10:41:06.998Z</time></trkpt><trkpt lat="42.52827503720173" lon="11.941085380416094"><ele>344.0</ele><time>2026-04-30T10:41:07.998Z</time></trkpt><trkpt lat="42.52819952224309" lon="11.941282840725547"><ele>344.0</ele><time>2026-04-30T10:41:08.998Z</time></trkpt><trkpt lat="42.52812149619632" lon="11.941480588019958"><ele>344.0</ele><time>2026-04-30T10:41:09.998Z</time></trkpt><trkpt lat="42.528040352489036" lon="11.941681782868004"><ele>345.0</ele><time>2026-04-30T10:41:10.998Z</time></trkpt><trkpt lat="42.52795468775081" lon="11.941887291720901"><ele>346.0</ele><time>2026-04-30T10:41:11.998Z</time></trkpt><trkpt lat="42.52786542417554" lon="11.942097012760382"><ele>347.0</ele><time>2026-04-30T10:41:12.998Z</time></trkpt><trkpt lat="42.52777191361785" lon="11.942309444608066"><ele>347.6666666666667</ele><time>2026-04-30T10:41:13.998Z</time></trkpt><trkpt lat="42.5276744917081" lon="11.942529572473147"><ele>348.3333333333333</ele><time>2026-04-30T10:41:14.998Z</time></trkpt><trkpt lat="42.52757555047111" lon="11.942753882902101"><ele>349.0</ele><time>2026-04-30T10:41:15.998Z</time></trkpt><trkpt lat="42.527473113145504" lon="11.942981499610914"><ele>349.3333333333333</ele><time>2026-04-30T10:41:16.998Z</time></trkpt><trkpt lat="42.52736690679244" lon="11.943211942896765"><ele>349.6666666666667</ele><time>2026-04-30T10:41:17.998Z</time></trkpt><trkpt lat="42.527259237783774" lon="11.943442217556319"><ele>350.0</ele><time>2026-04-30T10:41:18.998Z</time></trkpt><trkpt lat="42.527153559930625" lon="11.943675953294056"><ele>351.33333333333337</ele><time>2026-04-30T10:41:19.998Z</time></trkpt><trkpt lat="42.527048018676005" lon="11.943906695625266"><ele>352.6666666666667</ele><time>2026-04-30T10:41:20.998Z</time></trkpt><trkpt lat="42.5269410715435" lon="11.944131559659375"><ele>354.0</ele><time>2026-04-30T10:41:21.998Z</time></trkpt><trkpt lat="42.52682015442873" lon="11.94433977796359"><ele>354.3333333333333</ele><time>2026-04-30T10:41:22.998Z</time></trkpt><trkpt lat="42.52671183524463" lon="11.944554912395937"><ele>354.66666666666663</ele><time>2026-04-30T10:41:23.998Z</time></trkpt><trkpt lat="42.52661454117728" lon="11.94478296475207"><ele>355.0</ele><time>2026-04-30T10:41:24.998Z</time></trkpt><trkpt lat="42.52651203243358" lon="11.944985445417347"><ele>355.0</ele><time>2026-04-30T10:41:25.998Z</time></trkpt><trkpt lat="42.526416901428945" lon="11.945177660939544"><ele>355.0</ele><time>2026-04-30T10:41:26.998Z</time></trkpt><trkpt lat="42.52632198149359" lon="11.945367925221817"><ele>355.0</ele><time>2026-04-30T10:41:27.998Z</time></trkpt><trkpt lat="42.52622875557848" lon="11.945549457440402"><ele>355.0</ele><time>2026-04-30T10:41:28.998Z</time></trkpt><trkpt lat="42.52613707066931" lon="11.945734928581926"><ele>355.0</ele><time>2026-04-30T10:41:29.998Z</time></trkpt><trkpt lat="42.52604653171039" lon="11.945912452143283"><ele>355.0</ele><time>2026-04-30T10:41:30.998Z</time></trkpt><trkpt lat="42.52595830016094" lon="11.946083364911143"><ele>355.3333333333333</ele><time>2026-04-30T10:41:31.998Z</time></trkpt><trkpt lat="42.52586970083772" lon="11.946260774604667"><ele>355.6666666666667</ele><time>2026-04-30T10:41:32.998Z</time></trkpt><trkpt lat="42.525784567136334" lon="11.946439836898952"><ele>356.0</ele><time>2026-04-30T10:41:34Z</time></trkpt><trkpt lat="42.52569960593695" lon="11.946622210023477"><ele>356.6666666666667</ele><time>2026-04-30T10:41:35Z</time></trkpt><trkpt lat="42.52561463931302" lon="11.946808022824348"><ele>357.3333333333333</ele><time>2026-04-30T10:41:36Z</time></trkpt><trkpt lat="42.52553137601119" lon="11.946994937086194"><ele>358.0</ele><time>2026-04-30T10:41:37Z</time></trkpt><trkpt lat="42.525449251862966" lon="11.947188704811106"><ele>357.66666666666663</ele><time>2026-04-30T10:41:38Z</time></trkpt><trkpt lat="42.52536886635718" lon="11.947388632340147"><ele>357.3333333333333</ele><time>2026-04-30T10:41:39Z</time></trkpt><trkpt lat="42.525289246602306" lon="11.947588422337894"><ele>357.0</ele><time>2026-04-30T10:41:40Z</time></trkpt><trkpt lat="42.52521319816708" lon="11.947791741632164"><ele>358.3333333333333</ele><time>2026-04-30T10:41:41Z</time></trkpt><trkpt lat="42.52514011421655" lon="11.947999334872803"><ele>359.66666666666663</ele><time>2026-04-30T10:41:42Z</time></trkpt><trkpt lat="42.5250704815236" lon="11.948210510573663"><ele>361.0</ele><time>2026-04-30T10:41:43Z</time></trkpt><trkpt lat="42.5250002147065" lon="11.94842126265554"><ele>361.0</ele><time>2026-04-30T10:41:44Z</time></trkpt><trkpt lat="42.52493332247814" lon="11.94863013518405"><ele>361.0</ele><time>2026-04-30T10:41:45Z</time></trkpt><trkpt lat="42.524867006106184" lon="11.948835597913805"><ele>361.0</ele><time>2026-04-30T10:41:46Z</time></trkpt><trkpt lat="42.524798391043944" lon="11.949042503457765"><ele>361.66666666666663</ele><time>2026-04-30T10:41:47Z</time></trkpt><trkpt lat="42.52472942645927" lon="11.949251600131554"><ele>362.3333333333333</ele><time>2026-04-30T10:41:48Z</time></trkpt><trkpt lat="42.524664845240615" lon="11.949456601537223"><ele>363.0</ele><time>2026-04-30T10:41:49Z</time></trkpt><trkpt lat="42.524602262327996" lon="11.949658722472082"><ele>364.3333333333333</ele><time>2026-04-30T10:41:49.999Z</time></trkpt><trkpt lat="42.52452299551789" lon="11.94984899488981"><ele>365.66666666666663</ele><time>2026-04-30T10:41:50.999Z</time></trkpt><trkpt lat="42.52447439308209" lon="11.950060142204125"><ele>367.0</ele><time>2026-04-30T10:41:51.999Z</time></trkpt><trkpt lat="42.52441453644427" lon="11.950268907009242"><ele>367.0</ele><time>2026-04-30T10:41:52.999Z</time></trkpt><trkpt lat="42.524347690859024" lon="11.95047636998345"><ele>367.0</ele><time>2026-04-30T10:41:53.999Z</time></trkpt><trkpt lat="42.524300089747435" lon="11.950699760534466"><ele>367.0</ele><time>2026-04-30T10:41:54.999Z</time></trkpt><trkpt lat="42.524259638827154" lon="11.950928256131995"><ele>367.0</ele><time>2026-04-30T10:41:55.999Z</time></trkpt><trkpt lat="42.52422142387068" lon="11.951157921753557"><ele>367.0</ele><time>2026-04-30T10:41:56.999Z</time></trkpt><trkpt lat="42.52418386056018" lon="11.951392186911017"><ele>367.0</ele><time>2026-04-30T10:41:57.999Z</time></trkpt><trkpt lat="42.524152701728596" lon="11.951632607193174"><ele>367.66666666666663</ele><time>2026-04-30T10:41:58.999Z</time></trkpt><trkpt lat="42.52412295508648" lon="11.951876478688233"><ele>368.3333333333333</ele><time>2026-04-30T10:41:59.999Z</time></trkpt><trkpt lat="42.52409004553522" lon="11.952122061383346"><ele>369.0</ele><time>2026-04-30T10:42:00.999Z</time></trkpt><trkpt lat="42.524063907871835" lon="11.952370815088903"><ele>369.3333333333333</ele><time>2026-04-30T10:42:01.999Z</time></trkpt><trkpt lat="42.524049002369296" lon="11.952618950964412"><ele>369.66666666666663</ele><time>2026-04-30T10:42:02.999Z</time></trkpt><trkpt lat="42.52402870108559" lon="11.952866834004018"><ele>370.0</ele><time>2026-04-30T10:42:03.999Z</time></trkpt><trkpt lat="42.524057774080035" lon="11.95312205427913"><ele>371.0</ele><time>2026-04-30T10:42:04.999Z</time></trkpt><trkpt lat="42.524076300870526" lon="11.953372853903264"><ele>372.0</ele><time>2026-04-30T10:42:05.999Z</time></trkpt><trkpt lat="42.52410917000437" lon="11.953619614382456"><ele>373.0</ele><time>2026-04-30T10:42:06.999Z</time></trkpt><trkpt lat="42.52414216290982" lon="11.953874993774454"><ele>373.0</ele><time>2026-04-30T10:42:07.999Z</time></trkpt><trkpt lat="42.52417896878631" lon="11.954119395987162"><ele>373.0</ele><time>2026-04-30T10:42:08.999Z</time></trkpt><trkpt lat="42.524196538800105" lon="11.954364455924143"><ele>373.0</ele><time>2026-04-30T10:42:09.999Z</time></trkpt><trkpt lat="42.52420617218658" lon="11.95461118911145"><ele>374.66666666666663</ele><time>2026-04-30T10:42:10.999Z</time></trkpt><trkpt lat="42.52420526421915" lon="11.954859487085384"><ele>376.3333333333333</ele><time>2026-04-30T10:42:11.999Z</time></trkpt><trkpt lat="42.52418954189732" lon="11.955108777517228"><ele>378.0</ele><time>2026-04-30T10:42:12.999Z</time></trkpt><trkpt lat="42.524161912227555" lon="11.955356793461837"><ele>379.0</ele><time>2026-04-30T10:42:13.999Z</time></trkpt><trkpt lat="42.52411835437267" lon="11.955600067300486"><ele>380.0</ele><time>2026-04-30T10:42:14.999Z</time></trkpt><trkpt lat="42.52407111567528" lon="11.955842201994775"><ele>381.0</ele><time>2026-04-30T10:42:15.999Z</time></trkpt><trkpt lat="42.52402486550475" lon="11.956086898827806"><ele>381.3333333333333</ele><time>2026-04-30T10:42:16.999Z</time></trkpt><trkpt lat="42.52397803753258" lon="11.956333166819471"><ele>381.66666666666663</ele><time>2026-04-30T10:42:17.999Z</time></trkpt><trkpt lat="42.52393671010396" lon="11.956586247626973"><ele>382.0</ele><time>2026-04-30T10:42:18.999Z</time></trkpt><trkpt lat="42.52388136179645" lon="11.956839452919453"><ele>381.3333333333333</ele><time>2026-04-30T10:42:19.999Z</time></trkpt><trkpt lat="42.523856194722484" lon="11.957106506332703"><ele>380.6666666666667</ele><time>2026-04-30T10:42:20.999Z</time></trkpt><trkpt lat="42.523863045492426" lon="11.957379384157536"><ele>380.0</ele><time>2026-04-30T10:42:21.999Z</time></trkpt><trkpt lat="42.523870673910075" lon="11.957658404849587"><ele>379.33333333333337</ele><time>2026-04-30T10:42:22.999Z</time></trkpt><trkpt lat="42.523893901133675" lon="11.95793603799206"><ele>378.6666666666667</ele><time>2026-04-30T10:42:23.999Z</time></trkpt><trkpt lat="42.52390174677753" lon="11.958219813486018"><ele>378.0</ele><time>2026-04-30T10:42:24.999Z</time></trkpt><trkpt lat="42.523926223843375" lon="11.958511200211712"><ele>376.0</ele><time>2026-04-30T10:42:25.999Z</time></trkpt><trkpt lat="42.52395134386647" lon="11.95881024185265"><ele>374.0</ele><time>2026-04-30T10:42:26.999Z</time></trkpt><trkpt lat="42.523977894052045" lon="11.959117561012649"><ele>375.0</ele><time>2026-04-30T10:42:27.999Z</time></trkpt><trkpt lat="42.524005495328026" lon="11.95943098994934"><ele>376.0</ele><time>2026-04-30T10:42:28.999Z</time></trkpt><trkpt lat="42.52403241004142" lon="11.959739696306038"><ele>377.0</ele><time>2026-04-30T10:42:29.999Z</time></trkpt><trkpt lat="42.52405931005058" lon="11.960050656459282"><ele>378.0</ele><time>2026-04-30T10:42:30.999Z</time></trkpt><trkpt lat="42.52408961656668" lon="11.960371624909557"><ele>378.0</ele><time>2026-04-30T10:42:31.999Z</time></trkpt><trkpt lat="42.52412352131113" lon="11.960702508638251"><ele>378.0</ele><time>2026-04-30T10:42:32.999Z</time></trkpt><trkpt lat="42.52416714365118" lon="11.961043244771718"><ele>377.5</ele><time>2026-04-30T10:42:33.999Z</time></trkpt><trkpt lat="42.52421793740013" lon="11.961383924654177"><ele>377.0</ele><time>2026-04-30T10:42:34.999Z</time></trkpt><trkpt lat="42.524271376473614" lon="11.961725306667857"><ele>375.5</ele><time>2026-04-30T10:42:35.999Z</time></trkpt><trkpt lat="42.524340607853716" lon="11.96207235818942"><ele>374.0</ele><time>2026-04-30T10:42:36.999Z</time></trkpt><trkpt lat="42.52438349200422" lon="11.962417991409867"><ele>373.5</ele><time>2026-04-30T10:42:37.999Z</time></trkpt><trkpt lat="42.52443293121497" lon="11.96275246990973"><ele>373.0</ele><time>2026-04-30T10:42:38.999Z</time></trkpt><trkpt lat="42.524480603271826" lon="11.963064137662531"><ele>372.0</ele><time>2026-04-30T10:42:39.999Z</time></trkpt><trkpt lat="42.52452626925725" lon="11.963374391177673"><ele>371.0</ele><time>2026-04-30T10:42:40.999Z</time></trkpt><trkpt lat="42.52456235826667" lon="11.963687970687591"><ele>371.33333333333337</ele><time>2026-04-30T10:42:41.999Z</time></trkpt><trkpt lat="42.524566550088636" lon="11.9640017753299"><ele>371.6666666666667</ele><time>2026-04-30T10:42:42.998Z</time></trkpt><trkpt lat="42.52455481277437" lon="11.964291761325567"><ele>372.0</ele><time>2026-04-30T10:42:43.998Z</time></trkpt><trkpt lat="42.52451824629008" lon="11.964562222695767"><ele>372.0</ele><time>2026-04-30T10:42:44.998Z</time></trkpt><trkpt lat="42.524461682481935" lon="11.964827957525596"><ele>372.0</ele><time>2026-04-30T10:42:45.998Z</time></trkpt><trkpt lat="42.52439806018215" lon="11.965087149395286"><ele>372.0</ele><time>2026-04-30T10:42:46.998Z</time></trkpt><trkpt lat="42.52433778402405" lon="11.965327515012273"><ele>373.6666666666667</ele><time>2026-04-30T10:42:47.998Z</time></trkpt><trkpt lat="42.52427964284503" lon="11.965559366886058"><ele>375.33333333333337</ele><time>2026-04-30T10:42:48.998Z</time></trkpt><trkpt lat="42.524226516031355" lon="11.965771222773048"><ele>377.0</ele><time>2026-04-30T10:42:49.998Z</time></trkpt><trkpt lat="42.524178450844886" lon="11.96596289422388"><ele>377.75</ele><time>2026-04-30T10:42:50.998Z</time></trkpt><trkpt lat="42.52413130874251" lon="11.966142621278514"><ele>378.5</ele><time>2026-04-30T10:42:51.998Z</time></trkpt><trkpt lat="42.52408608999148" lon="11.966304923692253"><ele>379.25</ele><time>2026-04-30T10:42:52.998Z</time></trkpt><trkpt lat="42.524044488848105" lon="11.96644248376339"><ele>380.0</ele><time>2026-04-30T10:42:53.998Z</time></trkpt><trkpt lat="42.524007093572585" lon="11.96655314552799"><ele>380.0</ele><time>2026-04-30T10:42:54.998Z</time></trkpt><trkpt lat="42.523975566675865" lon="11.96663430700349"><ele>380.0</ele><time>2026-04-30T10:42:55.998Z</time></trkpt><trkpt lat="42.523930294147966" lon="11.96674855606051"><ele>380.0</ele><time>2026-04-30T10:42:57.998Z</time></trkpt><trkpt lat="42.523937346644516" lon="11.966862526893758"><ele>380.0</ele><time>2026-04-30T10:42:59.998Z</time></trkpt><trkpt lat="42.52393458517418" lon="11.967026011185101"><ele>380.0</ele><time>2026-04-30T10:43:01.998Z</time></trkpt><trkpt lat="42.523952986178585" lon="11.967132078748492"><ele>380.0</ele><time>2026-04-30T10:43:02.998Z</time></trkpt><trkpt lat="42.52397113615416" lon="11.967265751311292"><ele>380.8</ele><time>2026-04-30T10:43:03.998Z</time></trkpt><trkpt lat="42.52395136859322" lon="11.967400939337242"><ele>381.6</ele><time>2026-04-30T10:43:04.998Z</time></trkpt><trkpt lat="42.52393096325987" lon="11.967525750937327"><ele>382.4</ele><time>2026-04-30T10:43:05.998Z</time></trkpt><trkpt lat="42.523906275657204" lon="11.96765509135215"><ele>383.2</ele><time>2026-04-30T10:43:06.998Z</time></trkpt><trkpt lat="42.5238701121348" lon="11.967789688769656"><ele>384.0</ele><time>2026-04-30T10:43:07.998Z</time></trkpt><trkpt lat="42.52382604314792" lon="11.96793179501866"><ele>384.25</ele><time>2026-04-30T10:43:08.998Z</time></trkpt><trkpt lat="42.523768057400204" lon="11.968073390856725"><ele>384.5</ele><time>2026-04-30T10:43:09.998Z</time></trkpt><trkpt lat="42.52370233930464" lon="11.968206712363722"><ele>384.75</ele><time>2026-04-30T10:43:10.998Z</time></trkpt><trkpt lat="42.52362410189678" lon="11.968348813448067"><ele>385.0</ele><time>2026-04-30T10:43:11.998Z</time></trkpt><trkpt lat="42.52353659724774" lon="11.968492131371688"><ele>387.25</ele><time>2026-04-30T10:43:12.998Z</time></trkpt><trkpt lat="42.523447471044555" lon="11.968639264484715"><ele>389.5</ele><time>2026-04-30T10:43:13.998Z</time></trkpt><trkpt lat="42.52335538656348" lon="11.968791117930218"><ele>391.75</ele><time>2026-04-30T10:43:14.998Z</time></trkpt><trkpt lat="42.52327658742949" lon="11.968950148460612"><ele>394.0</ele><time>2026-04-30T10:43:15.998Z</time></trkpt><trkpt lat="42.52317038561807" lon="11.96908651893297"><ele>393.75</ele><time>2026-04-30T10:43:16.998Z</time></trkpt><trkpt lat="42.523077824090116" lon="11.969240135865448"><ele>393.5</ele><time>2026-04-30T10:43:17.998Z</time></trkpt><trkpt lat="42.522986971166375" lon="11.969397362349763"><ele>393.25</ele><time>2026-04-30T10:43:18.998Z</time></trkpt><trkpt lat="42.52290299354983" lon="11.969574379456883"><ele>393.0</ele><time>2026-04-30T10:43:19.998Z</time></trkpt><trkpt lat="42.52282646976824" lon="11.969760944260145"><ele>393.0</ele><time>2026-04-30T10:43:20.998Z</time></trkpt><trkpt lat="42.522770459776055" lon="11.969969423851703"><ele>393.0</ele><time>2026-04-30T10:43:21.998Z</time></trkpt><trkpt lat="42.52271546193722" lon="11.9701717962416"><ele>393.0</ele><time>2026-04-30T10:43:22.998Z</time></trkpt><trkpt lat="42.522673428478235" lon="11.97038057195594"><ele>394.0</ele><time>2026-04-30T10:43:23.998Z</time></trkpt><trkpt lat="42.52264617573209" lon="11.970610102764843"><ele>395.0</ele><time>2026-04-30T10:43:24.998Z</time></trkpt><trkpt lat="42.52262964997515" lon="11.970849958617979"><ele>396.0</ele><time>2026-04-30T10:43:25.998Z</time></trkpt><trkpt lat="42.52261419025834" lon="11.97109718030453"><ele>396.66666666666663</ele><time>2026-04-30T10:43:26.998Z</time></trkpt><trkpt lat="42.52260203338736" lon="11.971348996941494"><ele>397.3333333333333</ele><time>2026-04-30T10:43:27.998Z</time></trkpt><trkpt lat="42.52258965788219" lon="11.971603711788932"><ele>398.0</ele><time>2026-04-30T10:43:28.998Z</time></trkpt><trkpt lat="42.52257748283754" lon="11.97186052794851"><ele>400.0</ele><time>2026-04-30T10:43:29.998Z</time></trkpt><trkpt lat="42.52256628755153" lon="11.972116653092396"><ele>402.0</ele><time>2026-04-30T10:43:30.998Z</time></trkpt><trkpt lat="42.52255275746777" lon="11.972370765363983"><ele>404.0</ele><time>2026-04-30T10:43:31.998Z</time></trkpt><trkpt lat="42.52252845952113" lon="11.972625045529572"><ele>405.0</ele><time>2026-04-30T10:43:32.998Z</time></trkpt><trkpt lat="42.52248882820348" lon="11.972880074937365"><ele>406.0</ele><time>2026-04-30T10:43:33.998Z</time></trkpt><trkpt lat="42.52243090535355" lon="11.973136601995007"><ele>407.0</ele><time>2026-04-30T10:43:34.998Z</time></trkpt><trkpt lat="42.522370127262214" lon="11.973391969129265"><ele>408.3333333333333</ele><time>2026-04-30T10:43:35.998Z</time></trkpt><trkpt lat="42.52228982780303" lon="11.973635750963657"><ele>409.66666666666663</ele><time>2026-04-30T10:43:36.998Z</time></trkpt><trkpt lat="42.52220196580383" lon="11.973871361469346"><ele>411.0</ele><time>2026-04-30T10:43:37.997Z</time></trkpt><trkpt lat="42.52210975226648" lon="11.97410316911678"><ele>410.33333333333337</ele><time>2026-04-30T10:43:38.997Z</time></trkpt><trkpt lat="42.52200680343202" lon="11.974300942515345"><ele>409.6666666666667</ele><time>2026-04-30T10:43:40Z</time></trkpt><trkpt lat="42.52192626625477" lon="11.974499447128363"><ele>409.0</ele><time>2026-04-30T10:43:41Z</time></trkpt><trkpt lat="42.521854266988576" lon="11.974702562016308"><ele>409.0</ele><time>2026-04-30T10:43:42Z</time></trkpt><trkpt lat="42.521785469249544" lon="11.97490176439821"><ele>409.0</ele><time>2026-04-30T10:43:43Z</time></trkpt><trkpt lat="42.521722307626035" lon="11.975084647546284"><ele>409.0</ele><time>2026-04-30T10:43:44Z</time></trkpt><trkpt lat="42.521848795063285" lon="11.975359173952237"><ele>409.33333333333337</ele><time>2026-04-30T10:43:45Z</time></trkpt><trkpt lat="42.521910306599494" lon="11.975554994521142"><ele>409.66666666666663</ele><time>2026-04-30T10:43:46Z</time></trkpt><trkpt lat="42.522006540878515" lon="11.975718602623328"><ele>410.0</ele><time>2026-04-30T10:43:47Z</time></trkpt><trkpt lat="42.52212220787095" lon="11.975856652474588"><ele>410.0</ele><time>2026-04-30T10:43:48Z</time></trkpt><trkpt lat="42.522256661501686" lon="11.975973552268965"><ele>410.0</ele><time>2026-04-30T10:43:49Z</time></trkpt><trkpt lat="42.52239579124935" lon="11.976078850770179"><ele>410.0</ele><time>2026-04-30T10:43:50Z</time></trkpt><trkpt lat="42.52253607936226" lon="11.976196178594517"><ele>410.0</ele><time>2026-04-30T10:43:51Z</time></trkpt><trkpt lat="42.52268347950974" lon="11.976303236131672"><ele>410.0</ele><time>2026-04-30T10:43:52Z</time></trkpt><trkpt lat="42.52283195490012" lon="11.97640931210161"><ele>410.0</ele><time>2026-04-30T10:43:53Z</time></trkpt><trkpt lat="42.5229898347969" lon="11.97650246709933"><ele>413.0</ele><time>2026-04-30T10:43:54Z</time></trkpt><trkpt lat="42.523145401777334" lon="11.976608031837374"><ele>416.0</ele><time>2026-04-30T10:43:55Z</time></trkpt><trkpt lat="42.523302923207304" lon="11.976712071418891"><ele>419.0</ele><time>2026-04-30T10:43:56Z</time></trkpt><trkpt lat="42.523460631847364" lon="11.976821419147633"><ele>419.0</ele><time>2026-04-30T10:43:56.999Z</time></trkpt><trkpt lat="42.52360977851916" lon="11.976951365045943"><ele>419.0</ele><time>2026-04-30T10:43:57.999Z</time></trkpt><trkpt lat="42.52374303869109" lon="11.97711278698292"><ele>419.0</ele><time>2026-04-30T10:43:58.999Z</time></trkpt><trkpt lat="42.523865054523625" lon="11.977297199027314"><ele>422.0</ele><time>2026-04-30T10:43:59.999Z</time></trkpt><trkpt lat="42.52394760403387" lon="11.9775158876089"><ele>425.0</ele><time>2026-04-30T10:44:00.999Z</time></trkpt><trkpt lat="42.52405225877548" lon="11.977711838204666"><ele>428.0</ele><time>2026-04-30T10:44:01.999Z</time></trkpt><trkpt lat="42.524144376399036" lon="11.977916743274303"><ele>428.0</ele><time>2026-04-30T10:44:02.999Z</time></trkpt><trkpt lat="42.52423596507616" lon="11.978120078146365"><ele>428.0</ele><time>2026-04-30T10:44:03.999Z</time></trkpt><trkpt lat="42.52432399927281" lon="11.978328112190562"><ele>428.0</ele><time>2026-04-30T10:44:04.999Z</time></trkpt><trkpt lat="42.52440819811582" lon="11.978544182585058"><ele>427.3333333333333</ele><time>2026-04-30T10:44:05.999Z</time></trkpt><trkpt lat="42.524504402197806" lon="11.978755686742954"><ele>426.66666666666663</ele><time>2026-04-30T10:44:06.999Z</time></trkpt><trkpt lat="42.52459853019986" lon="11.978963564832652"><ele>426.0</ele><time>2026-04-30T10:44:07.999Z</time></trkpt><trkpt lat="42.52469254887989" lon="11.979174251025537"><ele>429.66666666666663</ele><time>2026-04-30T10:44:08.999Z</time></trkpt><trkpt lat="42.52479052139353" lon="11.979384002665975"><ele>433.3333333333333</ele><time>2026-04-30T10:44:09.999Z</time></trkpt><trkpt lat="42.524904729836614" lon="11.979593062588334"><ele>437.0</ele><time>2026-04-30T10:44:10.999Z</time></trkpt><trkpt lat="42.525037486970376" lon="11.979778123569101"><ele>437.0</ele><time>2026-04-30T10:44:11.999Z</time></trkpt><trkpt lat="42.525172613795675" lon="11.97997551833986"><ele>437.0</ele><time>2026-04-30T10:44:12.999Z</time></trkpt><trkpt lat="42.52531230347129" lon="11.980169886429437"><ele>437.0</ele><time>2026-04-30T10:44:13.999Z</time></trkpt><trkpt lat="42.52545676969949" lon="11.980367356607493"><ele>440.0</ele><time>2026-04-30T10:44:14.999Z</time></trkpt><trkpt lat="42.52560269501165" lon="11.980571299001848"><ele>443.0</ele><time>2026-04-30T10:44:15.999Z</time></trkpt><trkpt lat="42.525731938484576" lon="11.980785051160392"><ele>446.0</ele><time>2026-04-30T10:44:16.999Z</time></trkpt><trkpt lat="42.52586883269427" lon="11.9809774988214"><ele>445.66666666666663</ele><time>2026-04-30T10:44:17.999Z</time></trkpt><trkpt lat="42.52599930092965" lon="11.981162734893333"><ele>445.33333333333337</ele><time>2026-04-30T10:44:18.999Z</time></trkpt><trkpt lat="42.52612004081359" lon="11.98134785242695"><ele>445.0</ele><time>2026-04-30T10:44:19.999Z</time></trkpt><trkpt lat="42.526244696060594" lon="11.98152408018358"><ele>446.33333333333337</ele><time>2026-04-30T10:44:20.999Z</time></trkpt><trkpt lat="42.52631008118117" lon="11.98176173501189"><ele>447.66666666666663</ele><time>2026-04-30T10:44:21.999Z</time></trkpt><trkpt lat="42.52637609909995" lon="11.981998996728567"><ele>449.0</ele><time>2026-04-30T10:44:22.999Z</time></trkpt><trkpt lat="42.52643723246672" lon="11.982242269902335"><ele>449.0</ele><time>2026-04-30T10:44:23.999Z</time></trkpt><trkpt lat="42.52649778939661" lon="11.982491354245086"><ele>449.0</ele><time>2026-04-30T10:44:24.999Z</time></trkpt><trkpt lat="42.526558408948574" lon="11.982742315563273"><ele>449.0</ele><time>2026-04-30T10:44:25.999Z</time></trkpt><trkpt lat="42.5266174661545" lon="11.982987778983377"><ele>449.0</ele><time>2026-04-30T10:44:26.999Z</time></trkpt><trkpt lat="42.52667862382783" lon="11.983227857289867"><ele>449.0</ele><time>2026-04-30T10:44:27.999Z</time></trkpt><trkpt lat="42.52675037444446" lon="11.983463892870484"><ele>449.0</ele><time>2026-04-30T10:44:28.999Z</time></trkpt><trkpt lat="42.526834160322544" lon="11.983687634850297"><ele>448.0</ele><time>2026-04-30T10:44:29.999Z</time></trkpt><trkpt lat="42.526920304671734" lon="11.983916906871311"><ele>447.0</ele><time>2026-04-30T10:44:30.999Z</time></trkpt><trkpt lat="42.52700920842075" lon="11.984153523012994"><ele>446.0</ele><time>2026-04-30T10:44:31.999Z</time></trkpt><trkpt lat="42.52723102740231" lon="11.984294343393307"><ele>446.0</ele><time>2026-04-30T10:44:32.999Z</time></trkpt><trkpt lat="42.527357594716385" lon="11.984518249498722"><ele>446.0</ele><time>2026-04-30T10:44:33.999Z</time></trkpt><trkpt lat="42.52746341533794" lon="11.98473952462207"><ele>446.0</ele><time>2026-04-30T10:44:34.999Z</time></trkpt><trkpt lat="42.52755655676226" lon="11.984963476650227"><ele>446.0</ele><time>2026-04-30T10:44:35.999Z</time></trkpt><trkpt lat="42.52762627017802" lon="11.985194928714789"><ele>446.0</ele><time>2026-04-30T10:44:36.999Z</time></trkpt><trkpt lat="42.527661942146075" lon="11.98544314975404"><ele>446.0</ele><time>2026-04-30T10:44:37.999Z</time></trkpt><trkpt lat="42.527681848133724" lon="11.985700713546908"><ele>447.0</ele><time>2026-04-30T10:44:38.999Z</time></trkpt><trkpt lat="42.5277134707724" lon="11.985962857513364"><ele>448.0</ele><time>2026-04-30T10:44:39.999Z</time></trkpt><trkpt lat="42.52771270630008" lon="11.986254367658827"><ele>449.0</ele><time>2026-04-30T10:44:40.999Z</time></trkpt><trkpt lat="42.52769741116108" lon="11.986537300296511"><ele>449.3333333333333</ele><time>2026-04-30T10:44:41.999Z</time></trkpt><trkpt lat="42.52769607620919" lon="11.986826488462448"><ele>449.66666666666663</ele><time>2026-04-30T10:44:42.999Z</time></trkpt><trkpt lat="42.52770280353099" lon="11.987099378892239"><ele>450.0</ele><time>2026-04-30T10:44:43.999Z</time></trkpt><trkpt lat="42.52771283785326" lon="11.987377323916972"><ele>450.66666666666663</ele><time>2026-04-30T10:44:44.999Z</time></trkpt><trkpt lat="42.52772144889255" lon="11.987657053700582"><ele>451.3333333333333</ele><time>2026-04-30T10:44:45.999Z</time></trkpt><trkpt lat="42.52772735301955" lon="11.987937429277068"><ele>452.0</ele><time>2026-04-30T10:44:46.999Z</time></trkpt><trkpt lat="42.527735326330706" lon="11.988218237133584"><ele>453.0</ele><time>2026-04-30T10:44:47.999Z</time></trkpt><trkpt lat="42.52774517622629" lon="11.98849926550595"><ele>454.0</ele><time>2026-04-30T10:44:48.999Z</time></trkpt><trkpt lat="42.52775390262714" lon="11.988778579678643"><ele>455.0</ele><time>2026-04-30T10:44:49.999Z</time></trkpt><trkpt lat="42.52776216613914" lon="11.989047866458217"><ele>455.66666666666663</ele><time>2026-04-30T10:44:50.999Z</time></trkpt><trkpt lat="42.527769042435935" lon="11.98931741485128"><ele>456.33333333333337</ele><time>2026-04-30T10:44:51.999Z</time></trkpt><trkpt lat="42.527778899111816" lon="11.989586201349008"><ele>457.0</ele><time>2026-04-30T10:44:52.998Z</time></trkpt><trkpt lat="42.52778913918937" lon="11.989847799047824"><ele>457.0</ele><time>2026-04-30T10:44:53.998Z</time></trkpt><trkpt lat="42.52779502421254" lon="11.990104860012638"><ele>457.0</ele><time>2026-04-30T10:44:54.998Z</time></trkpt><trkpt lat="42.527804262166796" lon="11.990362353670884"><ele>457.0</ele><time>2026-04-30T10:44:55.998Z</time></trkpt><trkpt lat="42.527817413535985" lon="11.9906135100461"><ele>458.0</ele><time>2026-04-30T10:44:56.998Z</time></trkpt><trkpt lat="42.527833343832675" lon="11.990875139357739"><ele>459.0</ele><time>2026-04-30T10:44:57.998Z</time></trkpt><trkpt lat="42.527837937558886" lon="11.991139914217966"><ele>460.0</ele><time>2026-04-30T10:44:58.998Z</time></trkpt><trkpt lat="42.52781817357516" lon="11.991409467899059"><ele>460.0</ele><time>2026-04-30T10:44:59.998Z</time></trkpt><trkpt lat="42.527765951202774" lon="11.991671838946617"><ele>460.0</ele><time>2026-04-30T10:45:00.998Z</time></trkpt><trkpt lat="42.527685866830446" lon="11.99190833771388"><ele>460.0</ele><time>2026-04-30T10:45:01.998Z</time></trkpt><trkpt lat="42.52753422328296" lon="11.992067650981141"><ele>461.33333333333337</ele><time>2026-04-30T10:45:02.998Z</time></trkpt><trkpt lat="42.52741074126614" lon="11.99225086385727"><ele>462.66666666666663</ele><time>2026-04-30T10:45:03.998Z</time></trkpt><trkpt lat="42.527281008774004" lon="11.992432545413962"><ele>464.0</ele><time>2026-04-30T10:45:04.998Z</time></trkpt><trkpt lat="42.527150221537326" lon="11.992615996267187"><ele>466.66666666666663</ele><time>2026-04-30T10:45:05.998Z</time></trkpt><trkpt lat="42.5270245065213" lon="11.992796119103504"><ele>469.33333333333337</ele><time>2026-04-30T10:45:06.998Z</time></trkpt><trkpt lat="42.52689564712363" lon="11.992980959218647"><ele>472.0</ele><time>2026-04-30T10:45:07.998Z</time></trkpt><trkpt lat="42.52676543406447" lon="11.993168078676748"><ele>473.6666666666667</ele><time>2026-04-30T10:45:08.998Z</time></trkpt><trkpt lat="42.5266396900553" lon="11.993351039732593"><ele>475.33333333333337</ele><time>2026-04-30T10:45:09.998Z</time></trkpt><trkpt lat="42.52651583510868" lon="11.993547929769253"><ele>477.0</ele><time>2026-04-30T10:45:10.998Z</time></trkpt><trkpt lat="42.52641769652833" lon="11.993760648754515"><ele>477.0</ele><time>2026-04-30T10:45:11.998Z</time></trkpt><trkpt lat="42.52634981765619" lon="11.99398938984451"><ele>477.0</ele><time>2026-04-30T10:45:12.998Z</time></trkpt><trkpt lat="42.52630692595876" lon="11.994232782465557"><ele>477.0</ele><time>2026-04-30T10:45:13.998Z</time></trkpt><trkpt lat="42.526286616775884" lon="11.994488135581511"><ele>477.33333333333337</ele><time>2026-04-30T10:45:14.998Z</time></trkpt><trkpt lat="42.52627607431014" lon="11.99473566200211"><ele>477.6666666666667</ele><time>2026-04-30T10:45:15.998Z</time></trkpt><trkpt lat="42.52626555688245" lon="11.994985627267155"><ele>478.0</ele><time>2026-04-30T10:45:16.998Z</time></trkpt><trkpt lat="42.526254437493215" lon="11.995237669844126"><ele>478.0</ele><time>2026-04-30T10:45:17.998Z</time></trkpt><trkpt lat="42.5262425815879" lon="11.995493517533596"><ele>478.0</ele><time>2026-04-30T10:45:18.998Z</time></trkpt><trkpt lat="42.52623076097709" lon="11.995748603553363"><ele>478.0</ele><time>2026-04-30T10:45:19.998Z</time></trkpt><trkpt lat="42.526219147861205" lon="11.995999211876802"><ele>478.6666666666667</ele><time>2026-04-30T10:45:20.998Z</time></trkpt><trkpt lat="42.52620743998867" lon="11.996252604600276"><ele>479.33333333333337</ele><time>2026-04-30T10:45:21.998Z</time></trkpt><trkpt lat="42.52619779968851" lon="11.996506054311336"><ele>480.0</ele><time>2026-04-30T10:45:22.998Z</time></trkpt><trkpt lat="42.52619136283479" lon="11.99676647429228"><ele>480.33333333333337</ele><time>2026-04-30T10:45:23.998Z</time></trkpt><trkpt lat="42.526211439619864" lon="11.997032433834267"><ele>480.6666666666667</ele><time>2026-04-30T10:45:24.998Z</time></trkpt><trkpt lat="42.526220339145425" lon="11.997291314169985"><ele>481.0</ele><time>2026-04-30T10:45:25.998Z</time></trkpt><trkpt lat="42.5262526588456" lon="11.99754940599531"><ele>481.6666666666667</ele><time>2026-04-30T10:45:26.998Z</time></trkpt><trkpt lat="42.526319330184734" lon="11.9978209868588"><ele>482.33333333333337</ele><time>2026-04-30T10:45:27.998Z</time></trkpt><trkpt lat="42.526373771315626" lon="11.998082406074298"><ele>483.0</ele><time>2026-04-30T10:45:28.998Z</time></trkpt><trkpt lat="42.5264176989149" lon="11.99834493111227"><ele>484.0</ele><time>2026-04-30T10:45:29.998Z</time></trkpt><trkpt lat="42.526452200623254" lon="11.998612879375873"><ele>485.0</ele><time>2026-04-30T10:45:30.998Z</time></trkpt><trkpt lat="42.526478282154685" lon="11.998883327269258"><ele>486.0</ele><time>2026-04-30T10:45:31.998Z</time></trkpt><trkpt lat="42.52648665001833" lon="11.999150218747959"><ele>487.33333333333337</ele><time>2026-04-30T10:45:32.998Z</time></trkpt><trkpt lat="42.52647992482142" lon="11.999438639162292"><ele>488.6666666666667</ele><time>2026-04-30T10:45:33.998Z</time></trkpt><trkpt lat="42.52644198125594" lon="11.999723627345784"><ele>490.0</ele><time>2026-04-30T10:45:34.998Z</time></trkpt><trkpt lat="42.52642049546527" lon="11.999998785350455"><ele>490.0</ele><time>2026-04-30T10:45:35.998Z</time></trkpt><trkpt lat="42.52639938273679" lon="12.000273742551055"><ele>490.0</ele><time>2026-04-30T10:45:36.998Z</time></trkpt><trkpt lat="42.52638066974631" lon="12.000549770864628"><ele>490.0</ele><time>2026-04-30T10:45:37.998Z</time></trkpt><trkpt lat="42.526368310133634" lon="12.000829989533074"><ele>491.6666666666667</ele><time>2026-04-30T10:45:38.998Z</time></trkpt><trkpt lat="42.52636928087908" lon="12.001107255235274"><ele>493.33333333333337</ele><time>2026-04-30T10:45:39.998Z</time></trkpt><trkpt lat="42.526387705947386" lon="12.00138460023421"><ele>495.0</ele><time>2026-04-30T10:45:40.998Z</time></trkpt><trkpt lat="42.52643377158872" lon="12.00165314982857"><ele>497.0</ele><time>2026-04-30T10:45:41.998Z</time></trkpt><trkpt lat="42.52646554470452" lon="12.001926314769669"><ele>499.0</ele><time>2026-04-30T10:45:42.998Z</time></trkpt><trkpt lat="42.526494876721515" lon="12.002200466561685"><ele>501.0</ele><time>2026-04-30T10:45:43.998Z</time></trkpt><trkpt lat="42.52652834745421" lon="12.00246802077498"><ele>502.0</ele><time>2026-04-30T10:45:45Z</time></trkpt><trkpt lat="42.52656797950638" lon="12.002745965282108"><ele>503.0</ele><time>2026-04-30T10:45:46Z</time></trkpt><trkpt lat="42.52660210971504" lon="12.003011076497502"><ele>504.0</ele><time>2026-04-30T10:45:47Z</time></trkpt><trkpt lat="42.526630205871456" lon="12.003280911426929"><ele>504.33333333333337</ele><time>2026-04-30T10:45:48Z</time></trkpt><trkpt lat="42.52665109477707" lon="12.003549178946331"><ele>504.6666666666667</ele><time>2026-04-30T10:45:49Z</time></trkpt><trkpt lat="42.52668234640554" lon="12.003821062721341"><ele>505.0</ele><time>2026-04-30T10:45:50Z</time></trkpt><trkpt lat="42.526711472757256" lon="12.00408877271298"><ele>505.6666666666667</ele><time>2026-04-30T10:45:51Z</time></trkpt><trkpt lat="42.5267497819092" lon="12.004353334705552"><ele>506.33333333333337</ele><time>2026-04-30T10:45:52Z</time></trkpt><trkpt lat="42.52679308301062" lon="12.004614635282064"><ele>507.0</ele><time>2026-04-30T10:45:53Z</time></trkpt><trkpt lat="42.52684083546029" lon="12.004874415156705"><ele>509.33333333333337</ele><time>2026-04-30T10:45:54Z</time></trkpt><trkpt lat="42.52688490658653" lon="12.00512731794443"><ele>511.6666666666667</ele><time>2026-04-30T10:45:55Z</time></trkpt><trkpt lat="42.526932915371425" lon="12.00536945237494"><ele>514.0</ele><time>2026-04-30T10:45:56Z</time></trkpt><trkpt lat="42.52699764828758" lon="12.005599278333547"><ele>516.0</ele><time>2026-04-30T10:45:57Z</time></trkpt><trkpt lat="42.52707177112937" lon="12.005835430214939"><ele>518.0</ele><time>2026-04-30T10:45:58Z</time></trkpt><trkpt lat="42.52717885283314" lon="12.006040168962512"><ele>520.0</ele><time>2026-04-30T10:45:59Z</time></trkpt><trkpt lat="42.527275414538664" lon="12.006251184978945"><ele>520.0</ele><time>2026-04-30T10:46:00Z</time></trkpt><trkpt lat="42.52736354001634" lon="12.00644407303494"><ele>520.0</ele><time>2026-04-30T10:46:01Z</time></trkpt><trkpt lat="42.527440546877386" lon="12.006636794279071"><ele>520.0</ele><time>2026-04-30T10:46:02Z</time></trkpt><trkpt lat="42.52749098263641" lon="12.006839418068374"><ele>519.5</ele><time>2026-04-30T10:46:02.999Z</time></trkpt><trkpt lat="42.52750151526483" lon="12.007064374372202"><ele>519.0</ele><time>2026-04-30T10:46:03.999Z</time></trkpt><trkpt lat="42.52747201454106" lon="12.007228319897377"><ele>518.5</ele><time>2026-04-30T10:46:04.999Z</time></trkpt><trkpt lat="42.527423597387646" lon="12.007406822565326"><ele>518.0</ele><time>2026-04-30T10:46:05.999Z</time></trkpt><trkpt lat="42.527372272084456" lon="12.007605284589696"><ele>517.25</ele><time>2026-04-30T10:46:06.999Z</time></trkpt><trkpt lat="42.52732197164667" lon="12.00779022370937"><ele>516.5</ele><time>2026-04-30T10:46:07.999Z</time></trkpt><trkpt lat="42.52727386161951" lon="12.007991455579425"><ele>515.75</ele><time>2026-04-30T10:46:08.999Z</time></trkpt><trkpt lat="42.52724436242133" lon="12.008148335984576"><ele>515.0</ele><time>2026-04-30T10:46:09.999Z</time></trkpt><trkpt lat="42.527218574508105" lon="12.00830676045008"><ele>511.3333333333333</ele><time>2026-04-30T10:46:10.999Z</time></trkpt><trkpt lat="42.527170369107424" lon="12.008493115005454"><ele>507.66666666666663</ele><time>2026-04-30T10:46:11.999Z</time></trkpt><trkpt lat="42.52713669795155" lon="12.00870865136464"><ele>504.0</ele><time>2026-04-30T10:46:12.999Z</time></trkpt><trkpt lat="42.52712718924084" lon="12.008927051038539"><ele>504.0</ele><time>2026-04-30T10:46:13.999Z</time></trkpt><trkpt lat="42.527155134068806" lon="12.009154443106517"><ele>504.0</ele><time>2026-04-30T10:46:14.999Z</time></trkpt><trkpt lat="42.52721763600823" lon="12.009390213207856"><ele>504.0</ele><time>2026-04-30T10:46:15.999Z</time></trkpt><trkpt lat="42.52726632900715" lon="12.009615716388621"><ele>503.33333333333337</ele><time>2026-04-30T10:46:16.999Z</time></trkpt><trkpt lat="42.527319660536094" lon="12.0098399457062"><ele>502.6666666666667</ele><time>2026-04-30T10:46:17.999Z</time></trkpt><trkpt lat="42.527370937386" lon="12.010062573742282"><ele>502.0</ele><time>2026-04-30T10:46:18.999Z</time></trkpt><trkpt lat="42.527419068690726" lon="12.010291968722122"><ele>504.33333333333337</ele><time>2026-04-30T10:46:19.999Z</time></trkpt><trkpt lat="42.52746836341521" lon="12.010522250800687"><ele>506.66666666666663</ele><time>2026-04-30T10:46:20.999Z</time></trkpt><trkpt lat="42.52751690941761" lon="12.010750794925745"><ele>509.0</ele><time>2026-04-30T10:46:21.999Z</time></trkpt><trkpt lat="42.52756831259019" lon="12.010974914965454"><ele>512.0</ele><time>2026-04-30T10:46:22.999Z</time></trkpt><trkpt lat="42.52761392561039" lon="12.011193765338934"><ele>515.0</ele><time>2026-04-30T10:46:23.999Z</time></trkpt><trkpt lat="42.52766051155607" lon="12.011424730223052"><ele>518.0</ele><time>2026-04-30T10:46:24.999Z</time></trkpt><trkpt lat="42.527704262065264" lon="12.01164980244591"><ele>520.3333333333333</ele><time>2026-04-30T10:46:25.999Z</time></trkpt><trkpt lat="42.527745617968286" lon="12.01186208747363"><ele>522.6666666666666</ele><time>2026-04-30T10:46:26.999Z</time></trkpt><trkpt lat="42.52778825030025" lon="12.012062391050723"><ele>525.0</ele><time>2026-04-30T10:46:27.999Z</time></trkpt><trkpt lat="42.52784040948952" lon="12.012262406060861"><ele>525.0</ele><time>2026-04-30T10:46:28.999Z</time></trkpt><trkpt lat="42.527871776558385" lon="12.012471236424195"><ele>525.0</ele><time>2026-04-30T10:46:29.999Z</time></trkpt><trkpt lat="42.527914764202706" lon="12.012678724837313"><ele>525.0</ele><time>2026-04-30T10:46:30.999Z</time></trkpt><trkpt lat="42.52795744570535" lon="12.012885689438926"><ele>524.0</ele><time>2026-04-30T10:46:31.999Z</time></trkpt><trkpt lat="42.527993611099724" lon="12.013063882651148"><ele>523.0</ele><time>2026-04-30T10:46:32.999Z</time></trkpt><trkpt lat="42.528030114227896" lon="12.013243740243471"><ele>522.0</ele><time>2026-04-30T10:46:33.999Z</time></trkpt><trkpt lat="42.528070338783294" lon="12.01343578359187"><ele>521.0</ele><time>2026-04-30T10:46:34.999Z</time></trkpt><trkpt lat="42.52811151418334" lon="12.01363032483157"><ele>524.3333333333333</ele><time>2026-04-30T10:46:35.999Z</time></trkpt><trkpt lat="42.52815430599081" lon="12.01382918521377"><ele>527.6666666666666</ele><time>2026-04-30T10:46:36.999Z</time></trkpt><trkpt lat="42.52819791722219" lon="12.014031636067505"><ele>531.0</ele><time>2026-04-30T10:46:37.999Z</time></trkpt><trkpt lat="42.52824052115857" lon="12.014236117975914"><ele>531.0</ele><time>2026-04-30T10:46:38.999Z</time></trkpt><trkpt lat="42.52828118173786" lon="12.014433253063416"><ele>531.0</ele><time>2026-04-30T10:46:39.999Z</time></trkpt><trkpt lat="42.528336402751144" lon="12.014620637223627"><ele>531.0</ele><time>2026-04-30T10:46:40.999Z</time></trkpt><trkpt lat="42.52837827220471" lon="12.01481225082366"><ele>531.0</ele><time>2026-04-30T10:46:41.999Z</time></trkpt><trkpt lat="42.528413881964795" lon="12.015001942049015"><ele>530.5</ele><time>2026-04-30T10:46:42.999Z</time></trkpt><trkpt lat="42.52845277237369" lon="12.01518715881886"><ele>530.0</ele><time>2026-04-30T10:46:43.999Z</time></trkpt><trkpt lat="42.5284927943587" lon="12.015371057256857"><ele>529.5</ele><time>2026-04-30T10:46:44.999Z</time></trkpt><trkpt lat="42.528515456380354" lon="12.015555582140802"><ele>529.0</ele><time>2026-04-30T10:46:45.999Z</time></trkpt><trkpt lat="42.5285671652159" lon="12.015728523067066"><ele>529.5</ele><time>2026-04-30T10:46:46.999Z</time></trkpt><trkpt lat="42.52858164566418" lon="12.015901416876963"><ele>530.0</ele><time>2026-04-30T10:46:47.999Z</time></trkpt><trkpt lat="42.52861062674527" lon="12.016060690638401"><ele>530.5</ele><time>2026-04-30T10:46:48.999Z</time></trkpt><trkpt lat="42.52863906539869" lon="12.016216983337575"><ele>531.0</ele><time>2026-04-30T10:46:49.999Z</time></trkpt><trkpt lat="42.52866707715821" lon="12.0163709298761"><ele>531.0</ele><time>2026-04-30T10:46:50.999Z</time></trkpt><trkpt lat="42.528696014371825" lon="12.016518640900605"><ele>531.0</ele><time>2026-04-30T10:46:51.999Z</time></trkpt><trkpt lat="42.528725184298374" lon="12.01666848587384"><ele>531.0</ele><time>2026-04-30T10:46:52.999Z</time></trkpt><trkpt lat="42.52875129567536" lon="12.016802619070619"><ele>531.0</ele><time>2026-04-30T10:46:53.999Z</time></trkpt><trkpt lat="42.5287745980174" lon="12.016924522921162"><ele>531.0</ele><time>2026-04-30T10:46:54.999Z</time></trkpt><trkpt lat="42.52879754741798" lon="12.017040906663924"><ele>532.8333333333334</ele><time>2026-04-30T10:46:55.999Z</time></trkpt><trkpt lat="42.52881937893263" lon="12.017146431906268"><ele>534.6666666666666</ele><time>2026-04-30T10:46:56.999Z</time></trkpt><trkpt lat="42.52884252818829" lon="12.017244718804633"><ele>536.5</ele><time>2026-04-30T10:46:57.999Z</time></trkpt><trkpt lat="42.5288709923366" lon="12.017350292048183"><ele>538.3333333333333</ele><time>2026-04-30T10:46:58.999Z</time></trkpt><trkpt lat="42.528901577560546" lon="12.017453777065494"><ele>540.1666666666666</ele><time>2026-04-30T10:46:59.999Z</time></trkpt><trkpt lat="42.528932820442435" lon="12.017558211989215"><ele>542.0</ele><time>2026-04-30T10:47:00.998Z</time></trkpt><trkpt lat="42.52897357919746" lon="12.017677265841858"><ele>542.2</ele><time>2026-04-30T10:47:01.998Z</time></trkpt><trkpt lat="42.52904307229549" lon="12.017782313778541"><ele>542.4000000000001</ele><time>2026-04-30T10:47:02.998Z</time></trkpt><trkpt lat="42.52909099344445" lon="12.017913745125535"><ele>542.5999999999999</ele><time>2026-04-30T10:47:03.998Z</time></trkpt><trkpt lat="42.52914905823617" lon="12.018040984493"><ele>542.8</ele><time>2026-04-30T10:47:04.998Z</time></trkpt><trkpt lat="42.52921095885371" lon="12.018176126360315"><ele>543.0</ele><time>2026-04-30T10:47:05.998Z</time></trkpt><trkpt lat="42.52927865420968" lon="12.018313266999378"><ele>543.0</ele><time>2026-04-30T10:47:06.998Z</time></trkpt><trkpt lat="42.52935120950409" lon="12.018457952131437"><ele>543.0</ele><time>2026-04-30T10:47:07.998Z</time></trkpt><trkpt lat="42.52941130663736" lon="12.018625432968456"><ele>543.0</ele><time>2026-04-30T10:47:08.998Z</time></trkpt><trkpt lat="42.5294936100115" lon="12.018771717389875"><ele>543.0</ele><time>2026-04-30T10:47:09.998Z</time></trkpt><trkpt lat="42.52958876562005" lon="12.0189123023176"><ele>543.0</ele><time>2026-04-30T10:47:10.998Z</time></trkpt><trkpt lat="42.52964807017391" lon="12.01906262016664"><ele>543.0</ele><time>2026-04-30T10:47:11.998Z</time></trkpt><trkpt lat="42.52972162787172" lon="12.019203100206589"><ele>543.0</ele><time>2026-04-30T10:47:12.998Z</time></trkpt><trkpt lat="42.52979690990605" lon="12.019346873364242"><ele>543.0</ele><time>2026-04-30T10:47:13.998Z</time></trkpt><trkpt lat="42.52986239467407" lon="12.019487971631849"><ele>543.0</ele><time>2026-04-30T10:47:14.998Z</time></trkpt><trkpt lat="42.52991564080075" lon="12.019640011308274"><ele>543.0</ele><time>2026-04-30T10:47:15.998Z</time></trkpt><trkpt lat="42.52994193939364" lon="12.019803123894333"><ele>543.0</ele><time>2026-04-30T10:47:16.998Z</time></trkpt><trkpt lat="42.52993133983793" lon="12.01997516977368"><ele>543.0</ele><time>2026-04-30T10:47:17.998Z</time></trkpt><trkpt lat="42.5298941313837" lon="12.020154179065575"><ele>542.5</ele><time>2026-04-30T10:47:18.998Z</time></trkpt><trkpt lat="42.52984141531315" lon="12.020319775103582"><ele>542.0</ele><time>2026-04-30T10:47:19.998Z</time></trkpt><trkpt lat="42.52978658535657" lon="12.020479214696142"><ele>541.5</ele><time>2026-04-30T10:47:20.998Z</time></trkpt><trkpt lat="42.52973525061511" lon="12.020638254801602"><ele>541.0</ele><time>2026-04-30T10:47:21.998Z</time></trkpt><trkpt lat="42.52969200481489" lon="12.020816526189808"><ele>542.0</ele><time>2026-04-30T10:47:22.998Z</time></trkpt><trkpt lat="42.52966371987843" lon="12.020996446466883"><ele>543.0</ele><time>2026-04-30T10:47:23.998Z</time></trkpt><trkpt lat="42.52968930342542" lon="12.021185123218919"><ele>544.0</ele><time>2026-04-30T10:47:24.998Z</time></trkpt><trkpt lat="42.52970349969146" lon="12.02135050962618"><ele>545.0</ele><time>2026-04-30T10:47:25.998Z</time></trkpt><trkpt lat="42.529747255779256" lon="12.021502132352607"><ele>547.0</ele><time>2026-04-30T10:47:26.998Z</time></trkpt><trkpt lat="42.52982963156593" lon="12.02167663396285"><ele>549.0</ele><time>2026-04-30T10:47:27.998Z</time></trkpt><trkpt lat="42.52995557457961" lon="12.021826178253965"><ele>551.0</ele><time>2026-04-30T10:47:28.998Z</time></trkpt><trkpt lat="42.530067273704525" lon="12.021968593075094"><ele>551.0</ele><time>2026-04-30T10:47:29.998Z</time></trkpt><trkpt lat="42.53018057956338" lon="12.022130064495933"><ele>551.0</ele><time>2026-04-30T10:47:30.998Z</time></trkpt><trkpt lat="42.53028924438166" lon="12.022288710683679"><ele>551.0</ele><time>2026-04-30T10:47:31.998Z</time></trkpt><trkpt lat="42.53039994863915" lon="12.022442274164797"><ele>553.0</ele><time>2026-04-30T10:47:32.998Z</time></trkpt><trkpt lat="42.53051050612552" lon="12.022601002509427"><ele>555.0</ele><time>2026-04-30T10:47:33.998Z</time></trkpt><trkpt lat="42.53062103291475" lon="12.022762927062674"><ele>557.0</ele><time>2026-04-30T10:47:34.998Z</time></trkpt><trkpt lat="42.53073624328882" lon="12.022932168136013"><ele>557.0</ele><time>2026-04-30T10:47:35.998Z</time></trkpt><trkpt lat="42.5308497682736" lon="12.02308852404652"><ele>557.0</ele><time>2026-04-30T10:47:36.998Z</time></trkpt><trkpt lat="42.53096628539853" lon="12.023261302527615"><ele>557.0</ele><time>2026-04-30T10:47:37.998Z</time></trkpt><trkpt lat="42.53107886859265" lon="12.023417725771026"><ele>556.0</ele><time>2026-04-30T10:47:38.998Z</time></trkpt><trkpt lat="42.53119262850304" lon="12.023579130254022"><ele>555.0</ele><time>2026-04-30T10:47:39.998Z</time></trkpt><trkpt lat="42.531296480961686" lon="12.023732344916267"><ele>554.0</ele><time>2026-04-30T10:47:40.998Z</time></trkpt><trkpt lat="42.53141327155019" lon="12.02387309014641"><ele>554.0</ele><time>2026-04-30T10:47:41.998Z</time></trkpt><trkpt lat="42.53154206120558" lon="12.023998523901446"><ele>554.0</ele><time>2026-04-30T10:47:42.998Z</time></trkpt><trkpt lat="42.53167364209234" lon="12.024097257152624"><ele>554.0</ele><time>2026-04-30T10:47:43.998Z</time></trkpt><trkpt lat="42.53183142666995" lon="12.024198076709459"><ele>556.3333333333333</ele><time>2026-04-30T10:47:44.998Z</time></trkpt><trkpt lat="42.532003473017916" lon="12.024303631009156"><ele>558.6666666666666</ele><time>2026-04-30T10:47:45.998Z</time></trkpt><trkpt lat="42.532167074760295" lon="12.024375171279477"><ele>561.0</ele><time>2026-04-30T10:47:46.998Z</time></trkpt><trkpt lat="42.53233108670448" lon="12.02447591700821"><ele>561.0</ele><time>2026-04-30T10:47:47.998Z</time></trkpt><trkpt lat="42.53249029758358" lon="12.024582076667091"><ele>561.0</ele><time>2026-04-30T10:47:48.998Z</time></trkpt><trkpt lat="42.5326448726407" lon="12.024705038686289"><ele>561.0</ele><time>2026-04-30T10:47:49.998Z</time></trkpt><trkpt lat="42.53278007643291" lon="12.024858498531197"><ele>563.3333333333334</ele><time>2026-04-30T10:47:51Z</time></trkpt><trkpt lat="42.53292552424656" lon="12.024972715887198"><ele>565.6666666666667</ele><time>2026-04-30T10:47:52Z</time></trkpt><trkpt lat="42.53304700867633" lon="12.025116536475661"><ele>568.0</ele><time>2026-04-30T10:47:53Z</time></trkpt><trkpt lat="42.53317999211962" lon="12.025232497087641"><ele>568.0</ele><time>2026-04-30T10:47:54Z</time></trkpt><trkpt lat="42.53331351686249" lon="12.025332552020188"><ele>568.0</ele><time>2026-04-30T10:47:55Z</time></trkpt><trkpt lat="42.53343630947915" lon="12.0254083449723"><ele>568.0</ele><time>2026-04-30T10:47:56Z</time></trkpt><trkpt lat="42.53354506191133" lon="12.025468623966907"><ele>568.0</ele><time>2026-04-30T10:47:57Z</time></trkpt><trkpt lat="42.53364906791292" lon="12.0255013795593"><ele>567.75</ele><time>2026-04-30T10:47:58Z</time></trkpt><trkpt lat="42.53374842155918" lon="12.025574398095065"><ele>567.5</ele><time>2026-04-30T10:47:59Z</time></trkpt><trkpt lat="42.53384494197186" lon="12.025655972711355"><ele>567.25</ele><time>2026-04-30T10:48:00Z</time></trkpt><trkpt lat="42.53394079526911" lon="12.025746811482644"><ele>567.0</ele><time>2026-04-30T10:48:01Z</time></trkpt><trkpt lat="42.53401905835194" lon="12.02585602596746"><ele>571.0</ele><time>2026-04-30T10:48:02Z</time></trkpt><trkpt lat="42.53409282676471" lon="12.02598149948941"><ele>575.0</ele><time>2026-04-30T10:48:03Z</time></trkpt><trkpt lat="42.534163931841654" lon="12.026137329129677"><ele>579.0</ele><time>2026-04-30T10:48:04Z</time></trkpt><trkpt lat="42.534198043475364" lon="12.026323322504197"><ele>583.0</ele><time>2026-04-30T10:48:05Z</time></trkpt><trkpt lat="42.53426992324433" lon="12.026494536732482"><ele>582.25</ele><time>2026-04-30T10:48:06Z</time></trkpt><trkpt lat="42.53433824227435" lon="12.026657611485996"><ele>581.5</ele><time>2026-04-30T10:48:07Z</time></trkpt><trkpt lat="42.534407089922055" lon="12.026821589136397"><ele>580.75</ele><time>2026-04-30T10:48:08Z</time></trkpt><trkpt lat="42.534478450657936" lon="12.02699094193565"><ele>580.0</ele><time>2026-04-30T10:48:09Z</time></trkpt><trkpt lat="42.53455096742799" lon="12.02716303822717"><ele>582.5</ele><time>2026-04-30T10:48:09.999Z</time></trkpt><trkpt lat="42.53462503650234" lon="12.027338672605373"><ele>585.0</ele><time>2026-04-30T10:48:10.999Z</time></trkpt><trkpt lat="42.53469852675654" lon="12.02751239647494"><ele>587.5</ele><time>2026-04-30T10:48:11.999Z</time></trkpt><trkpt lat="42.53477302686677" lon="12.027688507548193"><ele>590.0</ele><time>2026-04-30T10:48:12.999Z</time></trkpt><trkpt lat="42.53484906520087" lon="12.027868254833908"><ele>590.0</ele><time>2026-04-30T10:48:13.999Z</time></trkpt><trkpt lat="42.534923177873814" lon="12.028043449888933"><ele>590.0</ele><time>2026-04-30T10:48:14.999Z</time></trkpt><trkpt lat="42.53499467980502" lon="12.028217545249845"><ele>590.0</ele><time>2026-04-30T10:48:15.999Z</time></trkpt><trkpt lat="42.53506023946458" lon="12.028388798256197"><ele>590.0</ele><time>2026-04-30T10:48:16.999Z</time></trkpt><trkpt lat="42.53512025578769" lon="12.028567186427306"><ele>589.25</ele><time>2026-04-30T10:48:17.999Z</time></trkpt><trkpt lat="42.535171054796315" lon="12.028738734406705"><ele>588.5</ele><time>2026-04-30T10:48:18.999Z</time></trkpt><trkpt lat="42.535210756762766" lon="12.028913761975318"><ele>587.75</ele><time>2026-04-30T10:48:19.999Z</time></trkpt><trkpt lat="42.535249755295936" lon="12.029089841658415"><ele>587.0</ele><time>2026-04-30T10:48:20.999Z</time></trkpt><trkpt lat="42.53528648517016" lon="12.02927035956002"><ele>586.5</ele><time>2026-04-30T10:48:21.999Z</time></trkpt><trkpt lat="42.535318267949975" lon="12.029444041966473"><ele>586.0</ele><time>2026-04-30T10:48:22.999Z</time></trkpt><trkpt lat="42.5353460732482" lon="12.029626216346447"><ele>585.5</ele><time>2026-04-30T10:48:23.999Z</time></trkpt><trkpt lat="42.535367994537104" lon="12.02980976476807"><ele>585.0</ele><time>2026-04-30T10:48:24.999Z</time></trkpt><trkpt lat="42.53538965572105" lon="12.029995483311529"><ele>589.75</ele><time>2026-04-30T10:48:25.999Z</time></trkpt><trkpt lat="42.535422754432034" lon="12.030167281831599"><ele>594.5</ele><time>2026-04-30T10:48:26.999Z</time></trkpt><trkpt lat="42.53546859325764" lon="12.0303211174388"><ele>599.25</ele><time>2026-04-30T10:48:27.999Z</time></trkpt><trkpt lat="42.53555417555771" lon="12.030443699014524"><ele>604.0</ele><time>2026-04-30T10:48:28.999Z</time></trkpt><trkpt lat="42.53563212359439" lon="12.03054630974527"><ele>604.0</ele><time>2026-04-30T10:48:29.999Z</time></trkpt><trkpt lat="42.53572305515477" lon="12.030588820499409"><ele>604.0</ele><time>2026-04-30T10:48:30.999Z</time></trkpt><trkpt lat="42.5357942012333" lon="12.030656739836562"><ele>604.0</ele><time>2026-04-30T10:48:31.999Z</time></trkpt><trkpt lat="42.53586242931511" lon="12.030705043950588"><ele>604.0</ele><time>2026-04-30T10:48:32.999Z</time></trkpt><trkpt lat="42.53594743550732" lon="12.030746828360261"><ele>604.0</ele><time>2026-04-30T10:48:33.999Z</time></trkpt><trkpt lat="42.53602045397605" lon="12.030801162446725"><ele>604.0</ele><time>2026-04-30T10:48:34.999Z</time></trkpt><trkpt lat="42.53609466228286" lon="12.030864174837271"><ele>604.2</ele><time>2026-04-30T10:48:35.999Z</time></trkpt><trkpt lat="42.53617277669049" lon="12.030933362530838"><ele>604.4</ele><time>2026-04-30T10:48:36.999Z</time></trkpt><trkpt lat="42.53625959132902" lon="12.030994121900994"><ele>604.6</ele><time>2026-04-30T10:48:37.999Z</time></trkpt><trkpt lat="42.53634748088292" lon="12.031040186133321"><ele>604.8</ele><time>2026-04-30T10:48:38.999Z</time></trkpt><trkpt lat="42.53643667653143" lon="12.031056291425692"><ele>605.0</ele><time>2026-04-30T10:48:39.999Z</time></trkpt><trkpt lat="42.5365169107262" lon="12.031071310914744"><ele>605.0</ele><time>2026-04-30T10:48:40.999Z</time></trkpt><trkpt lat="42.536590153459855" lon="12.031084858367654"><ele>605.0</ele><time>2026-04-30T10:48:41.999Z</time></trkpt><trkpt lat="42.53666176671253" lon="12.031094405931137"><ele>605.0</ele><time>2026-04-30T10:48:42.999Z</time></trkpt><trkpt lat="42.536741911745544" lon="12.031125539173248"><ele>605.0</ele><time>2026-04-30T10:48:43.999Z</time></trkpt><trkpt lat="42.536827100602956" lon="12.03115780517655"><ele>605.0</ele><time>2026-04-30T10:48:44.999Z</time></trkpt><trkpt lat="42.53690339462935" lon="12.031180434877498"><ele>605.0</ele><time>2026-04-30T10:48:45.999Z</time></trkpt><trkpt lat="42.53698805439762" lon="12.031223817163239"><ele>604.4</ele><time>2026-04-30T10:48:46.999Z</time></trkpt><trkpt lat="42.537071457670926" lon="12.031252900545324"><ele>603.8</ele><time>2026-04-30T10:48:47.999Z</time></trkpt><trkpt lat="42.53714090977843" lon="12.031247810886937"><ele>603.2</ele><time>2026-04-30T10:48:48.999Z</time></trkpt><trkpt lat="42.53721360429354" lon="12.031285361654184"><ele>602.6</ele><time>2026-04-30T10:48:49.999Z</time></trkpt><trkpt lat="42.53730798380141" lon="12.03143005078019"><ele>602.0</ele><time>2026-04-30T10:48:51.999Z</time></trkpt><trkpt lat="42.53736854150539" lon="12.031524438610143"><ele>602.0</ele><time>2026-04-30T10:48:52.999Z</time></trkpt><trkpt lat="42.53742840309305" lon="12.031624764307123"><ele>602.0</ele><time>2026-04-30T10:48:53.999Z</time></trkpt><trkpt lat="42.537486380468074" lon="12.031726733426028"><ele>602.0</ele><time>2026-04-30T10:48:54.999Z</time></trkpt><trkpt lat="42.53753821962714" lon="12.031838281200661"><ele>602.0</ele><time>2026-04-30T10:48:55.999Z</time></trkpt><trkpt lat="42.537585175749115" lon="12.03195894257192"><ele>602.0</ele><time>2026-04-30T10:48:56.999Z</time></trkpt><trkpt lat="42.53761557745142" lon="12.03208173393001"><ele>599.0</ele><time>2026-04-30T10:48:57.999Z</time></trkpt><trkpt lat="42.53764087989664" lon="12.032204248838436"><ele>596.0</ele><time>2026-04-30T10:48:58.999Z</time></trkpt><trkpt lat="42.53766360721783" lon="12.032321344053658"><ele>593.0</ele><time>2026-04-30T10:48:59.999Z</time></trkpt><trkpt lat="42.53768409157431" lon="12.032440356407623"><ele>590.0</ele><time>2026-04-30T10:49:00.999Z</time></trkpt><trkpt lat="42.53771648805367" lon="12.032562084783981"><ele>587.0</ele><time>2026-04-30T10:49:01.999Z</time></trkpt><trkpt lat="42.53777381254568" lon="12.032676631026275"><ele>587.6</ele><time>2026-04-30T10:49:02.999Z</time></trkpt><trkpt lat="42.53785485412233" lon="12.032762960319797"><ele>588.2</ele><time>2026-04-30T10:49:03.999Z</time></trkpt><trkpt lat="42.53793297124759" lon="12.032862692305235"><ele>588.8</ele><time>2026-04-30T10:49:04.999Z</time></trkpt><trkpt lat="42.538018477293996" lon="12.0329619792445"><ele>589.4</ele><time>2026-04-30T10:49:05.998Z</time></trkpt><trkpt lat="42.53810056272655" lon="12.0330555457297"><ele>590.0</ele><time>2026-04-30T10:49:06.998Z</time></trkpt><trkpt lat="42.53818790707906" lon="12.033136947034055"><ele>590.0</ele><time>2026-04-30T10:49:07.998Z</time></trkpt><trkpt lat="42.53827659936029" lon="12.033199693636194"><ele>590.0</ele><time>2026-04-30T10:49:08.998Z</time></trkpt><trkpt lat="42.53835579741445" lon="12.033278617575293"><ele>590.0</ele><time>2026-04-30T10:49:09.998Z</time></trkpt><trkpt lat="42.538441012408015" lon="12.03333754819055"><ele>590.0</ele><time>2026-04-30T10:49:10.998Z</time></trkpt><trkpt lat="42.53853740854987" lon="12.033384539298568"><ele>590.0</ele><time>2026-04-30T10:49:11.998Z</time></trkpt><trkpt lat="42.53863027740164" lon="12.033444753408348"><ele>588.6</ele><time>2026-04-30T10:49:12.998Z</time></trkpt><trkpt lat="42.538716118591346" lon="12.033518150046671"><ele>587.2</ele><time>2026-04-30T10:49:13.998Z</time></trkpt><trkpt lat="42.53880599752805" lon="12.0335658617403"><ele>585.8</ele><time>2026-04-30T10:49:14.998Z</time></trkpt><trkpt lat="42.538897764519845" lon="12.03359969451229"><ele>584.4</ele><time>2026-04-30T10:49:15.998Z</time></trkpt><trkpt lat="42.53898757519704" lon="12.03362958510859"><ele>583.0</ele><time>2026-04-30T10:49:16.998Z</time></trkpt><trkpt lat="42.539080029134176" lon="12.033636119774423"><ele>583.0</ele><time>2026-04-30T10:49:17.998Z</time></trkpt><trkpt lat="42.539160120972696" lon="12.033672291428632"><ele>583.0</ele><time>2026-04-30T10:49:18.998Z</time></trkpt><trkpt lat="42.539238290934485" lon="12.033702727901831"><ele>583.0</ele><time>2026-04-30T10:49:19.998Z</time></trkpt><trkpt lat="42.539347904708904" lon="12.033756613874354"><ele>583.0</ele><time>2026-04-30T10:49:21.998Z</time></trkpt><trkpt lat="42.53941776936832" lon="12.033793445788461"><ele>583.0</ele><time>2026-04-30T10:49:23.998Z</time></trkpt><trkpt lat="42.5394956136462" lon="12.033795545342256"><ele>583.0</ele><time>2026-04-30T10:49:26.998Z</time></trkpt><trkpt lat="42.539557467634275" lon="12.033828021044894"><ele>583.0</ele><time>2026-04-30T10:49:29.998Z</time></trkpt><trkpt lat="42.53944431802256" lon="12.033909817829791"><ele>583.0</ele><time>2026-04-30T10:49:32.998Z</time></trkpt><trkpt lat="42.53936716190801" lon="12.033894891261491"><ele>583.0</ele><time>2026-04-30T10:49:33.998Z</time></trkpt><trkpt lat="42.5392197406426" lon="12.0339246425294"><ele>583.0</ele><time>2026-04-30T10:49:35.998Z</time></trkpt><trkpt lat="42.539142677711204" lon="12.033941467147562"><ele>583.0</ele><time>2026-04-30T10:49:36.998Z</time></trkpt><trkpt lat="42.539064648571845" lon="12.033944270017557"><ele>583.0</ele><time>2026-04-30T10:49:37.998Z</time></trkpt><trkpt lat="42.53897644625868" lon="12.033929976181387"><ele>583.0</ele><time>2026-04-30T10:49:38.998Z</time></trkpt><trkpt lat="42.538889144415826" lon="12.033908055656882"><ele>583.0</ele><time>2026-04-30T10:49:39.998Z</time></trkpt><trkpt lat="42.538791180197144" lon="12.033870621407024"><ele>583.0</ele><time>2026-04-30T10:49:40.998Z</time></trkpt><trkpt lat="42.5387014015033" lon="12.033848834338468"><ele>583.0</ele><time>2026-04-30T10:49:41.998Z</time></trkpt><trkpt lat="42.538630193105675" lon="12.03381629102501"><ele>583.0</ele><time>2026-04-30T10:49:42.998Z</time></trkpt><trkpt lat="42.53856291843097" lon="12.033797697526243"><ele>581.1666666666667</ele><time>2026-04-30T10:49:43.998Z</time></trkpt><trkpt lat="42.53845783815759" lon="12.033749953438306"><ele>579.3333333333334</ele><time>2026-04-30T10:49:45.998Z</time></trkpt><trkpt lat="42.53840325785376" lon="12.033707107203409"><ele>577.5</ele><time>2026-04-30T10:49:46.998Z</time></trkpt><trkpt lat="42.538351078585485" lon="12.033648327741282"><ele>575.6666666666666</ele><time>2026-04-30T10:49:47.998Z</time></trkpt><trkpt lat="42.538292184701916" lon="12.033578100388208"><ele>573.8333333333333</ele><time>2026-04-30T10:49:48.998Z</time></trkpt><trkpt lat="42.53823425437057" lon="12.033494916517933"><ele>572.0</ele><time>2026-04-30T10:49:49.998Z</time></trkpt><trkpt lat="42.53817171382772" lon="12.033399973936918"><ele>571.4</ele><time>2026-04-30T10:49:50.998Z</time></trkpt><trkpt lat="42.53811599538691" lon="12.033300251029834"><ele>570.8000000000001</ele><time>2026-04-30T10:49:51.998Z</time></trkpt><trkpt lat="42.53805041001037" lon="12.033217792920615"><ele>570.2</ele><time>2026-04-30T10:49:52.998Z</time></trkpt><trkpt lat="42.53796466780839" lon="12.033159223434993"><ele>569.6</ele><time>2026-04-30T10:49:53.998Z</time></trkpt><trkpt lat="42.537861248132835" lon="12.033129193692071"><ele>569.0</ele><time>2026-04-30T10:49:54.998Z</time></trkpt><trkpt lat="42.53776569055382" lon="12.033129137393098"><ele>569.0</ele><time>2026-04-30T10:49:55.998Z</time></trkpt><trkpt lat="42.53767652902839" lon="12.033185086034456"><ele>569.0</ele><time>2026-04-30T10:49:57Z</time></trkpt><trkpt lat="42.53761493835629" lon="12.033276950719912"><ele>569.0</ele><time>2026-04-30T10:49:58Z</time></trkpt><trkpt lat="42.53755971198547" lon="12.033372726952477"><ele>569.0</ele><time>2026-04-30T10:49:59Z</time></trkpt><trkpt lat="42.53750782555461" lon="12.033486276064455"><ele>569.0</ele><time>2026-04-30T10:50:00Z</time></trkpt><trkpt lat="42.537477995054005" lon="12.033598543643484"><ele>567.2</ele><time>2026-04-30T10:50:01Z</time></trkpt><trkpt lat="42.53747397906896" lon="12.03371546207266"><ele>565.4</ele><time>2026-04-30T10:50:02Z</time></trkpt><trkpt lat="42.53752014820707" lon="12.033840824684365"><ele>563.6</ele><time>2026-04-30T10:50:03Z</time></trkpt><trkpt lat="42.537582399435834" lon="12.033949335366858"><ele>561.8</ele><time>2026-04-30T10:50:04Z</time></trkpt><trkpt lat="42.53766284987204" lon="12.034051753442691"><ele>560.0</ele><time>2026-04-30T10:50:05Z</time></trkpt><trkpt lat="42.53772865582143" lon="12.034168397038362"><ele>560.4</ele><time>2026-04-30T10:50:06Z</time></trkpt><trkpt lat="42.537793247432184" lon="12.034279168810885"><ele>560.8</ele><time>2026-04-30T10:50:07Z</time></trkpt><trkpt lat="42.53787901901879" lon="12.034369115580322"><ele>561.2</ele><time>2026-04-30T10:50:08Z</time></trkpt><trkpt lat="42.5379848129754" lon="12.034437439247705"><ele>561.6</ele><time>2026-04-30T10:50:09Z</time></trkpt><trkpt lat="42.53808748581806" lon="12.034486980801859"><ele>562.0</ele><time>2026-04-30T10:50:10Z</time></trkpt><trkpt lat="42.53819158856589" lon="12.034523968415442"><ele>562.0</ele><time>2026-04-30T10:50:11Z</time></trkpt><trkpt lat="42.53828302821965" lon="12.034605202074983"><ele>562.0</ele><time>2026-04-30T10:50:12Z</time></trkpt><trkpt lat="42.53833723475105" lon="12.034736134862333"><ele>562.0</ele><time>2026-04-30T10:50:13Z</time></trkpt><trkpt lat="42.53837942876845" lon="12.03485898394948"><ele>562.0</ele><time>2026-04-30T10:50:14Z</time></trkpt><trkpt lat="42.53840501157482" lon="12.034999332927462"><ele>562.0</ele><time>2026-04-30T10:50:15Z</time></trkpt><trkpt lat="42.538419505378144" lon="12.035124239194587"><ele>559.8000000000001</ele><time>2026-04-30T10:50:16Z</time></trkpt><trkpt lat="42.53842812386459" lon="12.035210832853192"><ele>557.6</ele><time>2026-04-30T10:50:16.999Z</time></trkpt><trkpt lat="42.538441878551744" lon="12.035364815190974"><ele>555.4000000000001</ele><time>2026-04-30T10:50:18.999Z</time></trkpt><trkpt lat="42.53846011593235" lon="12.035512554761617"><ele>553.2</ele><time>2026-04-30T10:50:20.999Z</time></trkpt><trkpt lat="42.53845874483365" lon="12.035636993286735"><ele>551.0</ele><time>2026-04-30T10:50:22.999Z</time></trkpt><trkpt lat="42.53838989804175" lon="12.03580282657384"><ele>550.2</ele><time>2026-04-30T10:50:25.999Z</time></trkpt><trkpt lat="42.5383319405867" lon="12.035910753936507"><ele>549.4000000000001</ele><time>2026-04-30T10:50:26.999Z</time></trkpt><trkpt lat="42.538260004665986" lon="12.035984156271411"><ele>548.6</ele><time>2026-04-30T10:50:27.999Z</time></trkpt><trkpt lat="42.53819902762507" lon="12.036067914303993"><ele>547.8000000000001</ele><time>2026-04-30T10:50:28.999Z</time></trkpt><trkpt lat="42.538146013320386" lon="12.036167320865443"><ele>547.0</ele><time>2026-04-30T10:50:29.999Z</time></trkpt><trkpt lat="42.538087436457964" lon="12.036249506326666"><ele>547.0</ele><time>2026-04-30T10:50:30.999Z</time></trkpt><trkpt lat="42.53801970892474" lon="12.036315553523721"><ele>547.0</ele><time>2026-04-30T10:50:31.999Z</time></trkpt><trkpt lat="42.53797407593021" lon="12.036413753098191"><ele>547.0</ele><time>2026-04-30T10:50:32.999Z</time></trkpt><trkpt lat="42.537907591494765" lon="12.036505442180697"><ele>547.0</ele><time>2026-04-30T10:50:33.999Z</time></trkpt><trkpt lat="42.537834198270886" lon="12.036577515888519"><ele>547.0</ele><time>2026-04-30T10:50:34.999Z</time></trkpt><trkpt lat="42.537779451055954" lon="12.036654215578254"><ele>547.0</ele><time>2026-04-30T10:50:35.999Z</time></trkpt><trkpt lat="42.53772028879271" lon="12.036762910163725"><ele>546.4</ele><time>2026-04-30T10:50:37.999Z</time></trkpt><trkpt lat="42.53767268432965" lon="12.036822050595212"><ele>545.8000000000001</ele><time>2026-04-30T10:51:02.999Z</time></trkpt><trkpt lat="42.5376089720086" lon="12.036917868052976"><ele>545.2</ele><time>2026-04-30T10:51:04.999Z</time></trkpt><trkpt lat="42.53751930229087" lon="12.03701391726567"><ele>544.6</ele><time>2026-04-30T10:51:06.999Z</time></trkpt><trkpt lat="42.53744718896734" lon="12.037112499343959"><ele>544.0</ele><time>2026-04-30T10:51:08.999Z</time></trkpt><trkpt lat="42.53736898039554" lon="12.03722030153493"><ele>544.0</ele><time>2026-04-30T10:51:10.999Z</time></trkpt><trkpt lat="42.537321562138864" lon="12.037283708757073"><ele>544.0</ele><time>2026-04-30T10:51:11.999Z</time></trkpt><trkpt lat="42.53726678247608" lon="12.037357996905751"><ele>544.0</ele><time>2026-04-30T10:51:12.998Z</time></trkpt><trkpt lat="42.53720667263524" lon="12.037439530971639"><ele>544.0</ele><time>2026-04-30T10:51:13.998Z</time></trkpt><trkpt lat="42.53714266064509" lon="12.037526961713493"><ele>544.0</ele><time>2026-04-30T10:51:14.998Z</time></trkpt><trkpt lat="42.53707601568078" lon="12.037617955020234"><ele>544.0</ele><time>2026-04-30T10:51:15.998Z</time></trkpt><trkpt lat="42.537007576592664" lon="12.03771139791075"><ele>543.0</ele><time>2026-04-30T10:51:16.998Z</time></trkpt><trkpt lat="42.53693910884879" lon="12.03780487991232"><ele>542.0</ele><time>2026-04-30T10:51:17.998Z</time></trkpt><trkpt lat="42.53686838530299" lon="12.03790142659418"><ele>541.0</ele><time>2026-04-30T10:51:18.998Z</time></trkpt><trkpt lat="42.53680097611444" lon="12.037993376012736"><ele>540.0</ele><time>2026-04-30T10:51:19.998Z</time></trkpt><trkpt lat="42.53673549597893" lon="12.038082694073836"><ele>539.0</ele><time>2026-04-30T10:51:20.998Z</time></trkpt><trkpt lat="42.536673219041205" lon="12.03816764268795"><ele>539.0</ele><time>2026-04-30T10:51:21.998Z</time></trkpt><trkpt lat="42.53661287289195" lon="12.038248685704934"><ele>539.0</ele><time>2026-04-30T10:51:22.998Z</time></trkpt><trkpt lat="42.536555492318655" lon="12.038325893580206"><ele>539.0</ele><time>2026-04-30T10:51:23.998Z</time></trkpt><trkpt lat="42.53649850673785" lon="12.0384052658958"><ele>539.0</ele><time>2026-04-30T10:51:24.998Z</time></trkpt><trkpt lat="42.53644697864719" lon="12.03850788609803"><ele>539.0</ele><time>2026-04-30T10:51:25.998Z</time></trkpt><trkpt lat="42.53638212159564" lon="12.038605208982263"><ele>539.0</ele><time>2026-04-30T10:51:26.998Z</time></trkpt><trkpt lat="42.536305948850945" lon="12.038700339150656"><ele>539.25</ele><time>2026-04-30T10:51:27.998Z</time></trkpt><trkpt lat="42.536221782978465" lon="12.03879816220633"><ele>539.5</ele><time>2026-04-30T10:51:28.998Z</time></trkpt><trkpt lat="42.53613830034192" lon="12.03889899516088"><ele>539.75</ele><time>2026-04-30T10:51:29.998Z</time></trkpt><trkpt lat="42.536052099613975" lon="12.039006134195928"><ele>540.0</ele><time>2026-04-30T10:51:30.998Z</time></trkpt><trkpt lat="42.5359460688482" lon="12.039093593628827"><ele>539.0</ele><time>2026-04-30T10:51:31.998Z</time></trkpt><trkpt lat="42.5358475440322" lon="12.039212081000642"><ele>538.0</ele><time>2026-04-30T10:51:32.998Z</time></trkpt><trkpt lat="42.535745056240145" lon="12.039336573851115"><ele>537.0</ele><time>2026-04-30T10:51:33.998Z</time></trkpt><trkpt lat="42.53563796521514" lon="12.039467707525938"><ele>536.0</ele><time>2026-04-30T10:51:34.998Z</time></trkpt><trkpt lat="42.53554068794455" lon="12.039615092430632"><ele>536.0</ele><time>2026-04-30T10:51:35.998Z</time></trkpt><trkpt lat="42.53543292314011" lon="12.03974659842674"><ele>536.0</ele><time>2026-04-30T10:51:36.998Z</time></trkpt><trkpt lat="42.53531060844159" lon="12.039870928160088"><ele>536.0</ele><time>2026-04-30T10:51:37.998Z</time></trkpt><trkpt lat="42.535195851808226" lon="12.040016198322501"><ele>534.0</ele><time>2026-04-30T10:51:38.998Z</time></trkpt><trkpt lat="42.535080513082" lon="12.040165958938386"><ele>532.0</ele><time>2026-04-30T10:51:39.998Z</time></trkpt><trkpt lat="42.53496920760575" lon="12.040321055108432"><ele>530.0</ele><time>2026-04-30T10:51:40.998Z</time></trkpt><trkpt lat="42.5348751039962" lon="12.040491146796176"><ele>530.0</ele><time>2026-04-30T10:51:41.998Z</time></trkpt><trkpt lat="42.53477877837356" lon="12.040641142552488"><ele>530.0</ele><time>2026-04-30T10:51:42.998Z</time></trkpt><trkpt lat="42.53468838782541" lon="12.040788443751158"><ele>530.0</ele><time>2026-04-30T10:51:43.998Z</time></trkpt><trkpt lat="42.53460577361179" lon="12.040927167256203"><ele>530.0</ele><time>2026-04-30T10:51:44.998Z</time></trkpt><trkpt lat="42.5345258413671" lon="12.041063855883552"><ele>528.5</ele><time>2026-04-30T10:51:45.998Z</time></trkpt><trkpt lat="42.53444901134412" lon="12.041202046803916"><ele>527.0</ele><time>2026-04-30T10:51:46.998Z</time></trkpt><trkpt lat="42.53436006299119" lon="12.04133055251034"><ele>525.5</ele><time>2026-04-30T10:51:47.998Z</time></trkpt><trkpt lat="42.53430207796159" lon="12.041485452825752"><ele>524.0</ele><time>2026-04-30T10:51:48.998Z</time></trkpt><trkpt lat="42.53423187089521" lon="12.041626782116985"><ele>522.75</ele><time>2026-04-30T10:51:49.998Z</time></trkpt><trkpt lat="42.53416701019093" lon="12.041758198608074"><ele>521.5</ele><time>2026-04-30T10:51:50.998Z</time></trkpt><trkpt lat="42.53410230295078" lon="12.041882201820926"><ele>520.25</ele><time>2026-04-30T10:51:51.998Z</time></trkpt><trkpt lat="42.53404382093596" lon="12.042007685276284"><ele>519.0</ele><time>2026-04-30T10:51:52.998Z</time></trkpt><trkpt lat="42.53398390707163" lon="12.04213870011312"><ele>519.0</ele><time>2026-04-30T10:51:53.998Z</time></trkpt><trkpt lat="42.53392342777802" lon="12.042268578372282"><ele>519.0</ele><time>2026-04-30T10:51:54.998Z</time></trkpt><trkpt lat="42.5338568938553" lon="12.0423955749692"><ele>519.0</ele><time>2026-04-30T10:51:55.998Z</time></trkpt><trkpt lat="42.53378460242055" lon="12.042523243992564"><ele>519.0</ele><time>2026-04-30T10:51:56.998Z</time></trkpt><trkpt lat="42.533714583222654" lon="12.042653044434127"><ele>516.5</ele><time>2026-04-30T10:51:57.998Z</time></trkpt><trkpt lat="42.533641891784875" lon="12.042783690700654"><ele>514.0</ele><time>2026-04-30T10:51:58.998Z</time></trkpt><trkpt lat="42.53356421913215" lon="12.042918995601857"><ele>511.5</ele><time>2026-04-30T10:51:59.998Z</time></trkpt><trkpt lat="42.533484361073604" lon="12.043067915780242"><ele>509.0</ele><time>2026-04-30T10:52:00.998Z</time></trkpt><trkpt lat="42.53338652309115" lon="12.043205208316197"><ele>509.5</ele><time>2026-04-30T10:52:01.998Z</time></trkpt><trkpt lat="42.533297645688144" lon="12.043359172534013"><ele>510.0</ele><time>2026-04-30T10:52:03Z</time></trkpt><trkpt lat="42.53320788355581" lon="12.043513300446525"><ele>510.5</ele><time>2026-04-30T10:52:04Z</time></trkpt><trkpt lat="42.53311933448573" lon="12.04366256478907"><ele>511.0</ele><time>2026-04-30T10:52:05Z</time></trkpt><trkpt lat="42.5330322068072" lon="12.043807170256143"><ele>511.0</ele><time>2026-04-30T10:52:06Z</time></trkpt><trkpt lat="42.53294839899451" lon="12.04394808422769"><ele>511.0</ele><time>2026-04-30T10:52:07Z</time></trkpt><trkpt lat="42.53288062953387" lon="12.044095709217553"><ele>511.0</ele><time>2026-04-30T10:52:08Z</time></trkpt><trkpt lat="42.53278953610329" lon="12.044213117087958"><ele>511.0</ele><time>2026-04-30T10:52:09Z</time></trkpt><trkpt lat="42.53271175647882" lon="12.044345498601995"><ele>508.75</ele><time>2026-04-30T10:52:10Z</time></trkpt><trkpt lat="42.532634095483765" lon="12.044493371760106"><ele>506.5</ele><time>2026-04-30T10:52:11Z</time></trkpt><trkpt lat="42.53258715131938" lon="12.044664185228498"><ele>504.25</ele><time>2026-04-30T10:52:12Z</time></trkpt><trkpt lat="42.53253803535192" lon="12.044837544813811"><ele>502.0</ele><time>2026-04-30T10:52:13Z</time></trkpt><trkpt lat="42.532496231668105" lon="12.04501850603668"><ele>501.75</ele><time>2026-04-30T10:52:14Z</time></trkpt><trkpt lat="42.532462264573546" lon="12.04519943184959"><ele>501.5</ele><time>2026-04-30T10:52:15Z</time></trkpt><trkpt lat="42.532411499518076" lon="12.045382028042223"><ele>501.25</ele><time>2026-04-30T10:52:16Z</time></trkpt><trkpt lat="42.53236852314683" lon="12.045599533433608"><ele>501.0</ele><time>2026-04-30T10:52:17Z</time></trkpt><trkpt lat="42.53232189426397" lon="12.045835524362515"><ele>499.66666666666663</ele><time>2026-04-30T10:52:18Z</time></trkpt><trkpt lat="42.53227113739421" lon="12.046092407093948"><ele>498.3333333333333</ele><time>2026-04-30T10:52:19Z</time></trkpt><trkpt lat="42.53221967305748" lon="12.046349254681239"><ele>497.0</ele><time>2026-04-30T10:52:20Z</time></trkpt><trkpt lat="42.532167169202104" lon="12.046608735641472"><ele>495.3333333333333</ele><time>2026-04-30T10:52:21Z</time></trkpt><trkpt lat="42.53211555885192" lon="12.04685563175668"><ele>493.66666666666663</ele><time>2026-04-30T10:52:21.999Z</time></trkpt><trkpt lat="42.532059580645345" lon="12.047082474846945"><ele>492.0</ele><time>2026-04-30T10:52:22.999Z</time></trkpt><trkpt lat="42.53199476253004" lon="12.047292361917522"><ele>490.75</ele><time>2026-04-30T10:52:23.999Z</time></trkpt><trkpt lat="42.531942483683935" lon="12.04748995018093"><ele>489.5</ele><time>2026-04-30T10:52:24.999Z</time></trkpt><trkpt lat="42.53187361822383" lon="12.047661948272575"><ele>488.25</ele><time>2026-04-30T10:52:25.999Z</time></trkpt><trkpt lat="42.531820847274844" lon="12.047818721075505"><ele>487.0</ele><time>2026-04-30T10:52:26.999Z</time></trkpt><trkpt lat="42.531777160506614" lon="12.047967061048777"><ele>487.0</ele><time>2026-04-30T10:52:27.999Z</time></trkpt><trkpt lat="42.53173634790488" lon="12.048123001304766"><ele>487.0</ele><time>2026-04-30T10:52:28.999Z</time></trkpt><trkpt lat="42.53169900265907" lon="12.04829873602"><ele>487.0</ele><time>2026-04-30T10:52:29.999Z</time></trkpt><trkpt lat="42.53166163884745" lon="12.04850241854616"><ele>487.0</ele><time>2026-04-30T10:52:30.999Z</time></trkpt><trkpt lat="42.53162226961035" lon="12.04871506568767"><ele>487.25</ele><time>2026-04-30T10:52:31.999Z</time></trkpt><trkpt lat="42.53157908646622" lon="12.048912111856373"><ele>487.5</ele><time>2026-04-30T10:52:32.999Z</time></trkpt><trkpt lat="42.531546032721515" lon="12.049095061930686"><ele>487.75</ele><time>2026-04-30T10:52:33.999Z</time></trkpt><trkpt lat="42.531506633479026" lon="12.049267605785655"><ele>488.0</ele><time>2026-04-30T10:52:34.999Z</time></trkpt><trkpt lat="42.53147434752435" lon="12.049437382370495"><ele>487.0</ele><time>2026-04-30T10:52:35.999Z</time></trkpt><trkpt lat="42.531439918148195" lon="12.049607907053687"><ele>486.0</ele><time>2026-04-30T10:52:36.999Z</time></trkpt><trkpt lat="42.531402903458044" lon="12.04978837264758"><ele>485.0</ele><time>2026-04-30T10:52:37.999Z</time></trkpt><trkpt lat="42.53135299836529" lon="12.049976440919359"><ele>484.0</ele><time>2026-04-30T10:52:38.999Z</time></trkpt><trkpt lat="42.5313152861832" lon="12.050162573259419"><ele>483.4</ele><time>2026-04-30T10:52:39.999Z</time></trkpt><trkpt lat="42.531279149276166" lon="12.050340321230447"><ele>482.79999999999995</ele><time>2026-04-30T10:52:40.999Z</time></trkpt><trkpt lat="42.531250086033374" lon="12.050482698453477"><ele>482.20000000000005</ele><time>2026-04-30T10:52:41.999Z</time></trkpt><trkpt lat="42.531223961001025" lon="12.0506173769287"><ele>481.6</ele><time>2026-04-30T10:52:42.999Z</time></trkpt><trkpt lat="42.531212275109766" lon="12.050752025004938"><ele>481.0</ele><time>2026-04-30T10:52:43.999Z</time></trkpt><trkpt lat="42.53117443210188" lon="12.050877013533675"><ele>480.4</ele><time>2026-04-30T10:52:44.999Z</time></trkpt><trkpt lat="42.5311544005276" lon="12.050981845435492"><ele>479.8</ele><time>2026-04-30T10:52:45.999Z</time></trkpt><trkpt lat="42.531138449189896" lon="12.051065324069969"><ele>479.19999999999993</ele><time>2026-04-30T10:52:46.999Z</time></trkpt><trkpt lat="42.53111213465285" lon="12.05120588724123"><ele>478.59999999999997</ele><time>2026-04-30T10:52:48.999Z</time></trkpt><trkpt lat="42.531083898583" lon="12.051358526276207"><ele>478.0</ele><time>2026-04-30T10:52:50.999Z</time></trkpt><trkpt lat="42.531059696123435" lon="12.051489360326228"><ele>477.00000000000006</ele><time>2026-04-30T10:52:52.999Z</time></trkpt><trkpt lat="42.531029020494735" lon="12.051650339816447"><ele>476.0</ele><time>2026-04-30T10:52:54.999Z</time></trkpt><trkpt lat="42.53101263947362" lon="12.05173599890322"><ele>475.0</ele><time>2026-04-30T10:52:55.999Z</time></trkpt><trkpt lat="42.530995279254846" lon="12.051826778374444"><ele>474.0</ele><time>2026-04-30T10:52:56.999Z</time></trkpt><trkpt lat="42.530977173211454" lon="12.051921457450009"><ele>473.00000000000006</ele><time>2026-04-30T10:52:57.999Z</time></trkpt><trkpt lat="42.530960675072606" lon="12.05201178003375"><ele>472.0</ele><time>2026-04-30T10:52:58.999Z</time></trkpt><trkpt lat="42.530929103518" lon="12.05217949307847"><ele>472.0</ele><time>2026-04-30T10:53:00.999Z</time></trkpt><trkpt lat="42.530903589583595" lon="12.052315027096531"><ele>472.00000000000006</ele><time>2026-04-30T10:53:02.999Z</time></trkpt><trkpt lat="42.530877943909694" lon="12.052451260940577"><ele>472.00000000000006</ele><time>2026-04-30T10:53:04.999Z</time></trkpt><trkpt lat="42.530848619662564" lon="12.052607035919822"><ele>472.0</ele><time>2026-04-30T10:53:06.999Z</time></trkpt><trkpt lat="42.53084359021139" lon="12.052703823874582"><ele>472.0</ele><time>2026-04-30T10:53:07.999Z</time></trkpt><trkpt lat="42.53081979521177" lon="12.052804620040128"><ele>471.83333333333337</ele><time>2026-04-30T10:53:08.999Z</time></trkpt><trkpt lat="42.53079758509747" lon="12.052909622456152"><ele>471.6666666666667</ele><time>2026-04-30T10:53:09.999Z</time></trkpt><trkpt lat="42.53077779984493" lon="12.053010014523464"><ele>471.5</ele><time>2026-04-30T10:53:10.999Z</time></trkpt><trkpt lat="42.530753138564165" lon="12.053108543856554"><ele>471.33333333333337</ele><time>2026-04-30T10:53:11.999Z</time></trkpt><trkpt lat="42.53071258109027" lon="12.05320000573565"><ele>471.1666666666667</ele><time>2026-04-30T10:53:12.999Z</time></trkpt><trkpt lat="42.53063943777703" lon="12.05326053273627"><ele>471.0</ele><time>2026-04-30T10:53:13.999Z</time></trkpt><trkpt lat="42.530567287666216" lon="12.05333879357285"><ele>471.0</ele><time>2026-04-30T10:53:14.999Z</time></trkpt><trkpt lat="42.530491284120004" lon="12.053395824072568"><ele>471.0</ele><time>2026-04-30T10:53:15.999Z</time></trkpt><trkpt lat="42.53040730125016" lon="12.053434685019425"><ele>471.0</ele><time>2026-04-30T10:53:16.999Z</time></trkpt><trkpt lat="42.53031359632424" lon="12.053463648597988"><ele>471.0</ele><time>2026-04-30T10:53:17.999Z</time></trkpt><trkpt lat="42.530211074873094" lon="12.053484866618945"><ele>471.0</ele><time>2026-04-30T10:53:18.999Z</time></trkpt><trkpt lat="42.530108315298385" lon="12.053511485114754"><ele>470.0</ele><time>2026-04-30T10:53:19.998Z</time></trkpt><trkpt lat="42.530011409994074" lon="12.053536672459506"><ele>469.0</ele><time>2026-04-30T10:53:20.998Z</time></trkpt><trkpt lat="42.529914368260926" lon="12.053563109661779"><ele>468.0</ele><time>2026-04-30T10:53:21.998Z</time></trkpt><trkpt lat="42.52982201323363" lon="12.053585961093624"><ele>467.0</ele><time>2026-04-30T10:53:22.998Z</time></trkpt><trkpt lat="42.52973018202751" lon="12.05360815978723"><ele>466.0</ele><time>2026-04-30T10:53:23.998Z</time></trkpt><trkpt lat="42.529635456110825" lon="12.053609601755797"><ele>465.33333333333337</ele><time>2026-04-30T10:53:24.998Z</time></trkpt><trkpt lat="42.52954320713516" lon="12.053632207183933"><ele>464.6666666666667</ele><time>2026-04-30T10:53:25.998Z</time></trkpt><trkpt lat="42.52945710628475" lon="12.053653306025055"><ele>464.0</ele><time>2026-04-30T10:53:26.998Z</time></trkpt><trkpt lat="42.52937383825649" lon="12.05367371069466"><ele>463.33333333333337</ele><time>2026-04-30T10:53:27.998Z</time></trkpt><trkpt lat="42.529288859256816" lon="12.053694534624755"><ele>462.6666666666667</ele><time>2026-04-30T10:53:28.998Z</time></trkpt><trkpt lat="42.52920651479698" lon="12.053714651911235"><ele>462.0</ele><time>2026-04-30T10:53:29.998Z</time></trkpt><trkpt lat="42.52912252742113" lon="12.053736887469235"><ele>462.0</ele><time>2026-04-30T10:53:30.998Z</time></trkpt><trkpt lat="42.52903923558175" lon="12.053758938890217"><ele>462.0</ele><time>2026-04-30T10:53:31.998Z</time></trkpt><trkpt lat="42.52895558621257" lon="12.053781084967332"><ele>462.0</ele><time>2026-04-30T10:53:32.998Z</time></trkpt><trkpt lat="42.52887475676641" lon="12.053802484472895"><ele>462.0</ele><time>2026-04-30T10:53:33.998Z</time></trkpt><trkpt lat="42.52879943771461" lon="12.05382242678204"><ele>462.0</ele><time>2026-04-30T10:53:34.998Z</time></trkpt><trkpt lat="42.52872552928534" lon="12.05383588671726"><ele>462.0</ele><time>2026-04-30T10:53:35.998Z</time></trkpt><trkpt lat="42.52865341807105" lon="12.053846674874572"><ele>461.1428571428571</ele><time>2026-04-30T10:53:36.998Z</time></trkpt><trkpt lat="42.528579452290195" lon="12.053854159028711"><ele>460.2857142857143</ele><time>2026-04-30T10:53:37.998Z</time></trkpt><trkpt lat="42.528507107612086" lon="12.053850318432419"><ele>459.42857142857144</ele><time>2026-04-30T10:53:38.998Z</time></trkpt><trkpt lat="42.5284343735563" lon="12.053836392333308"><ele>458.57142857142856</ele><time>2026-04-30T10:53:39.998Z</time></trkpt><trkpt lat="42.52835945129135" lon="12.053816436926274"><ele>457.71428571428567</ele><time>2026-04-30T10:53:40.998Z</time></trkpt><trkpt lat="42.528283845099644" lon="12.053793486503118"><ele>456.85714285714283</ele><time>2026-04-30T10:53:41.998Z</time></trkpt><trkpt lat="42.528213448338434" lon="12.053767842982863"><ele>456.0</ele><time>2026-04-30T10:53:42.998Z</time></trkpt><trkpt lat="42.52813846552154" lon="12.053740798262442"><ele>456.0</ele><time>2026-04-30T10:53:43.998Z</time></trkpt><trkpt lat="42.52805980365722" lon="12.053709945482193"><ele>456.0</ele><time>2026-04-30T10:53:44.998Z</time></trkpt><trkpt lat="42.52797662794955" lon="12.053679058443974"><ele>456.0</ele><time>2026-04-30T10:53:45.998Z</time></trkpt><trkpt lat="42.52788964100143" lon="12.053648179387666"><ele>456.0</ele><time>2026-04-30T10:53:46.998Z</time></trkpt><trkpt lat="42.5277952496182" lon="12.053633523799343"><ele>456.0</ele><time>2026-04-30T10:53:47.998Z</time></trkpt><trkpt lat="42.52769973940905" lon="12.053601352951258"><ele>455.4</ele><time>2026-04-30T10:53:48.998Z</time></trkpt><trkpt lat="42.52759488605172" lon="12.05358468195143"><ele>454.8</ele><time>2026-04-30T10:53:49.998Z</time></trkpt><trkpt lat="42.52749507424087" lon="12.053544753409831"><ele>454.19999999999993</ele><time>2026-04-30T10:53:50.998Z</time></trkpt><trkpt lat="42.52740005908074" lon="12.053528391280423"><ele>453.59999999999997</ele><time>2026-04-30T10:53:51.998Z</time></trkpt><trkpt lat="42.52730690648276" lon="12.053515364336052"><ele>453.0</ele><time>2026-04-30T10:53:52.998Z</time></trkpt><trkpt lat="42.527211778193596" lon="12.053524354950408"><ele>453.0</ele><time>2026-04-30T10:53:53.998Z</time></trkpt><trkpt lat="42.52712024048633" lon="12.05351623101093"><ele>452.99999999999994</ele><time>2026-04-30T10:53:54.998Z</time></trkpt><trkpt lat="42.52702759365931" lon="12.05350804990942"><ele>452.99999999999994</ele><time>2026-04-30T10:53:55.998Z</time></trkpt><trkpt lat="42.52693829805243" lon="12.053505192374677"><ele>453.0</ele><time>2026-04-30T10:53:56.998Z</time></trkpt><trkpt lat="42.526850333258814" lon="12.053484010221474"><ele>453.0</ele><time>2026-04-30T10:53:57.998Z</time></trkpt><trkpt lat="42.52676149037085" lon="12.053480967125171"><ele>452.0</ele><time>2026-04-30T10:53:58.998Z</time></trkpt><trkpt lat="42.52667294960802" lon="12.053477772575938"><ele>450.99999999999994</ele><time>2026-04-30T10:53:59.998Z</time></trkpt><trkpt lat="42.52658218037543" lon="12.053474497622688"><ele>449.99999999999994</ele><time>2026-04-30T10:54:00.998Z</time></trkpt><trkpt lat="42.5264911934681" lon="12.053493583793331"><ele>449.0</ele><time>2026-04-30T10:54:01.998Z</time></trkpt><trkpt lat="42.52639726618474" lon="12.05348706438989"><ele>448.0</ele><time>2026-04-30T10:54:02.998Z</time></trkpt><trkpt lat="42.52630169056831" lon="12.053476246576086"><ele>447.4</ele><time>2026-04-30T10:54:03.998Z</time></trkpt><trkpt lat="42.526204035882905" lon="12.053470675651328"><ele>446.79999999999995</ele><time>2026-04-30T10:54:04.998Z</time></trkpt><trkpt lat="42.526103427752425" lon="12.05346888083884"><ele>446.2</ele><time>2026-04-30T10:54:05.998Z</time></trkpt><trkpt lat="42.526002239355066" lon="12.053462100789774"><ele>445.6</ele><time>2026-04-30T10:54:06.998Z</time></trkpt><trkpt lat="42.52589913719552" lon="12.053459395820864"><ele>445.0</ele><time>2026-04-30T10:54:08Z</time></trkpt><trkpt lat="42.525796490139584" lon="12.053454919914184"><ele>445.0</ele><time>2026-04-30T10:54:09Z</time></trkpt><trkpt lat="42.5256931442036" lon="12.053450442994636"><ele>445.0</ele><time>2026-04-30T10:54:10Z</time></trkpt><trkpt lat="42.52558995574415" lon="12.053438363479438"><ele>445.0</ele><time>2026-04-30T10:54:11Z</time></trkpt><trkpt lat="42.52548637456243" lon="12.053418964560594"><ele>445.0</ele><time>2026-04-30T10:54:12Z</time></trkpt><trkpt lat="42.525384580143026" lon="12.053395206415122"><ele>445.0</ele><time>2026-04-30T10:54:13Z</time></trkpt><trkpt lat="42.52528998267009" lon="12.053369449099046"><ele>444.1666666666667</ele><time>2026-04-30T10:54:14Z</time></trkpt><trkpt lat="42.52519939027367" lon="12.053341391047864"><ele>443.33333333333337</ele><time>2026-04-30T10:54:15Z</time></trkpt><trkpt lat="42.52511334573516" lon="12.053316362129504"><ele>442.5</ele><time>2026-04-30T10:54:16Z</time></trkpt><trkpt lat="42.52502829511488" lon="12.053286179649847"><ele>441.66666666666663</ele><time>2026-04-30T10:54:17Z</time></trkpt><trkpt lat="42.524944862341286" lon="12.053243637898854"><ele>440.8333333333333</ele><time>2026-04-30T10:54:18Z</time></trkpt><trkpt lat="42.52486333300605" lon="12.053188471555456"><ele>440.0</ele><time>2026-04-30T10:54:19Z</time></trkpt><trkpt lat="42.524783832233545" lon="12.05313449230728"><ele>440.0</ele><time>2026-04-30T10:54:20Z</time></trkpt><trkpt lat="42.52470973108853" lon="12.05306911083962"><ele>440.0</ele><time>2026-04-30T10:54:21Z</time></trkpt><trkpt lat="42.52464218867624" lon="12.052989367964427"><ele>440.0</ele><time>2026-04-30T10:54:22Z</time></trkpt><trkpt lat="42.52458023355106" lon="12.052896201050602"><ele>440.0</ele><time>2026-04-30T10:54:23Z</time></trkpt><trkpt lat="42.52452054030478" lon="12.05279596148505"><ele>440.0</ele><time>2026-04-30T10:54:24Z</time></trkpt><trkpt lat="42.52446264468473" lon="12.052683784522753"><ele>439.2</ele><time>2026-04-30T10:54:25Z</time></trkpt><trkpt lat="42.52440181382764" lon="12.052571561199832"><ele>438.4</ele><time>2026-04-30T10:54:26Z</time></trkpt><trkpt lat="42.52433613433822" lon="12.052462348776674"><ele>437.6</ele><time>2026-04-30T10:54:27Z</time></trkpt><trkpt lat="42.52426790615077" lon="12.05234976329138"><ele>436.8</ele><time>2026-04-30T10:54:28Z</time></trkpt><trkpt lat="42.524210207486334" lon="12.052222470054996"><ele>436.0</ele><time>2026-04-30T10:54:28.999Z</time></trkpt><trkpt lat="42.524142874381575" lon="12.05210021199965"><ele>435.5</ele><time>2026-04-30T10:54:29.999Z</time></trkpt><trkpt lat="42.52406199916134" lon="12.051983149813845"><ele>435.0</ele><time>2026-04-30T10:54:30.999Z</time></trkpt><trkpt lat="42.52399187880621" lon="12.051852184205696"><ele>434.5</ele><time>2026-04-30T10:54:31.999Z</time></trkpt><trkpt lat="42.52392346232471" lon="12.051723016005642"><ele>434.0</ele><time>2026-04-30T10:54:32.999Z</time></trkpt><trkpt lat="42.52385800508619" lon="12.051589918799031"><ele>432.75</ele><time>2026-04-30T10:54:33.999Z</time></trkpt><trkpt lat="42.52378863900583" lon="12.051454764258947"><ele>431.5</ele><time>2026-04-30T10:54:34.999Z</time></trkpt><trkpt lat="42.52371298431493" lon="12.051319467254917"><ele>430.25</ele><time>2026-04-30T10:54:35.999Z</time></trkpt><trkpt lat="42.52363586468892" lon="12.051183046973524"><ele>429.0</ele><time>2026-04-30T10:54:36.999Z</time></trkpt><trkpt lat="42.523558253868025" lon="12.051043462918823"><ele>429.0</ele><time>2026-04-30T10:54:37.999Z</time></trkpt><trkpt lat="42.523476084582974" lon="12.050901653925155"><ele>429.0</ele><time>2026-04-30T10:54:38.999Z</time></trkpt><trkpt lat="42.52339804444489" lon="12.050754147642419"><ele>429.0</ele><time>2026-04-30T10:54:39.999Z</time></trkpt><trkpt lat="42.5233195217964" lon="12.050609888941409"><ele>429.0</ele><time>2026-04-30T10:54:40.999Z</time></trkpt><trkpt lat="42.52324469880956" lon="12.050471308333147"><ele>427.75</ele><time>2026-04-30T10:54:41.999Z</time></trkpt><trkpt lat="42.52317430685425" lon="12.050332157569892"><ele>426.5</ele><time>2026-04-30T10:54:42.999Z</time></trkpt><trkpt lat="42.5230991736938" lon="12.050195662601375"><ele>425.25</ele><time>2026-04-30T10:54:43.999Z</time></trkpt><trkpt lat="42.523024554919495" lon="12.050058261277078"><ele>424.0</ele><time>2026-04-30T10:54:44.999Z</time></trkpt><trkpt lat="42.52294207943021" lon="12.049915832784771"><ele>422.75</ele><time>2026-04-30T10:54:45.999Z</time></trkpt><trkpt lat="42.522857866769584" lon="12.049767103873974"><ele>421.5</ele><time>2026-04-30T10:54:46.999Z</time></trkpt><trkpt lat="42.52277342196168" lon="12.04960946415417"><ele>420.25</ele><time>2026-04-30T10:54:47.999Z</time></trkpt><trkpt lat="42.522687151119364" lon="12.04945293952931"><ele>419.0</ele><time>2026-04-30T10:54:48.999Z</time></trkpt><trkpt lat="42.52259303957318" lon="12.049300278318443"><ele>419.0</ele><time>2026-04-30T10:54:49.999Z</time></trkpt><trkpt lat="42.52249014202641" lon="12.049150476033418"><ele>419.0</ele><time>2026-04-30T10:54:50.999Z</time></trkpt><trkpt lat="42.522377685510264" lon="12.049003971309771"><ele>419.0</ele><time>2026-04-30T10:54:51.999Z</time></trkpt><trkpt lat="42.522255291675584" lon="12.048855826968238"><ele>416.66666666666663</ele><time>2026-04-30T10:54:52.999Z</time></trkpt><trkpt lat="42.5221266365496" lon="12.048710428339067"><ele>414.33333333333337</ele><time>2026-04-30T10:54:53.999Z</time></trkpt><trkpt lat="42.521989908001174" lon="12.048566211958885"><ele>412.0</ele><time>2026-04-30T10:54:54.999Z</time></trkpt><trkpt lat="42.52184355020036" lon="12.048425986504533"><ele>411.0</ele><time>2026-04-30T10:54:55.999Z</time></trkpt><trkpt lat="42.52168126695044" lon="12.048300631800341"><ele>410.0</ele><time>2026-04-30T10:54:56.999Z</time></trkpt><trkpt lat="42.52152794793561" lon="12.048162165851934"><ele>409.0</ele><time>2026-04-30T10:54:57.999Z</time></trkpt><trkpt lat="42.52135639227232" lon="12.048081054549085"><ele>408.0</ele><time>2026-04-30T10:54:58.999Z</time></trkpt><trkpt lat="42.521186162260186" lon="12.048010915621589"><ele>407.0</ele><time>2026-04-30T10:54:59.999Z</time></trkpt><trkpt lat="42.52100477991933" lon="12.04794768711521"><ele>406.0</ele><time>2026-04-30T10:55:00.999Z</time></trkpt><trkpt lat="42.52083518976703" lon="12.047908085773747"><ele>406.0</ele><time>2026-04-30T10:55:01.999Z</time></trkpt><trkpt lat="42.52065680918603" lon="12.047882352838545"><ele>406.0</ele><time>2026-04-30T10:55:02.999Z</time></trkpt><trkpt lat="42.52048012187148" lon="12.047851383799857"><ele>406.0</ele><time>2026-04-30T10:55:03.999Z</time></trkpt><trkpt lat="42.520309886568356" lon="12.047864267699588"><ele>406.33333333333337</ele><time>2026-04-30T10:55:04.999Z</time></trkpt><trkpt lat="42.52014119120398" lon="12.047891810928613"><ele>406.66666666666663</ele><time>2026-04-30T10:55:05.999Z</time></trkpt><trkpt lat="42.51997633933605" lon="12.047929499973732"><ele>407.0</ele><time>2026-04-30T10:55:06.999Z</time></trkpt><trkpt lat="42.51981895634446" lon="12.047979271576361"><ele>407.0</ele><time>2026-04-30T10:55:07.999Z</time></trkpt><trkpt lat="42.519668755454326" lon="12.048041749967672"><ele>407.0</ele><time>2026-04-30T10:55:08.999Z</time></trkpt><trkpt lat="42.51952002140028" lon="12.048101485475641"><ele>407.0</ele><time>2026-04-30T10:55:09.999Z</time></trkpt><trkpt lat="42.519373555492926" lon="12.048179107219438"><ele>408.66666666666663</ele><time>2026-04-30T10:55:10.999Z</time></trkpt><trkpt lat="42.51922324457661" lon="12.048267124009842"><ele>410.33333333333337</ele><time>2026-04-30T10:55:11.999Z</time></trkpt><trkpt lat="42.519073781481005" lon="12.048373649770173"><ele>412.0</ele><time>2026-04-30T10:55:12.999Z</time></trkpt><trkpt lat="42.51892763969868" lon="12.048500681173024"><ele>412.0</ele><time>2026-04-30T10:55:13.999Z</time></trkpt><trkpt lat="42.518789841327106" lon="12.048620113131815"><ele>412.0</ele><time>2026-04-30T10:55:14.999Z</time></trkpt><trkpt lat="42.518648842965426" lon="12.048757447952458"><ele>412.0</ele><time>2026-04-30T10:55:15.999Z</time></trkpt><trkpt lat="42.51851224371211" lon="12.048909003914545"><ele>412.0</ele><time>2026-04-30T10:55:16.999Z</time></trkpt><trkpt lat="42.518374028980176" lon="12.049076734394871"><ele>412.0</ele><time>2026-04-30T10:55:17.999Z</time></trkpt><trkpt lat="42.51823026124737" lon="12.049251310678713"><ele>412.0</ele><time>2026-04-30T10:55:18.999Z</time></trkpt><trkpt lat="42.51807596441298" lon="12.049436786906307"><ele>410.5</ele><time>2026-04-30T10:55:19.999Z</time></trkpt><trkpt lat="42.51789776180507" lon="12.04961507411826"><ele>409.0</ele><time>2026-04-30T10:55:20.999Z</time></trkpt><trkpt lat="42.51771702902441" lon="12.049807557154956"><ele>406.0</ele><time>2026-04-30T10:55:21.999Z</time></trkpt><trkpt lat="42.51753568065589" lon="12.050008381829864"><ele>403.0</ele><time>2026-04-30T10:55:22.999Z</time></trkpt><trkpt lat="42.51735779421761" lon="12.05021530484182"><ele>403.0</ele><time>2026-04-30T10:55:23.999Z</time></trkpt><trkpt lat="42.517181975189885" lon="12.050425608781872"><ele>403.0</ele><time>2026-04-30T10:55:24.999Z</time></trkpt><trkpt lat="42.51700497735852" lon="12.05063266763821"><ele>399.5</ele><time>2026-04-30T10:55:25.999Z</time></trkpt><trkpt lat="42.516822854000345" lon="12.050839451456305"><ele>396.0</ele><time>2026-04-30T10:55:26.999Z</time></trkpt><trkpt lat="42.51664599933186" lon="12.051061775634045"><ele>396.0</ele><time>2026-04-30T10:55:27.998Z</time></trkpt><trkpt lat="42.51646168457962" lon="12.05125839148808"><ele>396.0</ele><time>2026-04-30T10:55:28.998Z</time></trkpt><trkpt lat="42.5162810916127" lon="12.051450312196227"><ele>394.0</ele><time>2026-04-30T10:55:29.998Z</time></trkpt><trkpt lat="42.516106796059006" lon="12.051636311121362"><ele>392.0</ele><time>2026-04-30T10:55:30.998Z</time></trkpt><trkpt lat="42.51593129103603" lon="12.051817301953724"><ele>390.0</ele><time>2026-04-30T10:55:31.998Z</time></trkpt><trkpt lat="42.51575289037003" lon="12.051987332956868"><ele>390.0</ele><time>2026-04-30T10:55:32.998Z</time></trkpt><trkpt lat="42.51557167766292" lon="12.052141018986426"><ele>390.0</ele><time>2026-04-30T10:55:33.998Z</time></trkpt><trkpt lat="42.51538938997296" lon="12.052275564187125"><ele>390.0</ele><time>2026-04-30T10:55:34.998Z</time></trkpt><trkpt lat="42.51521391717501" lon="12.05239169348643"><ele>389.0</ele><time>2026-04-30T10:55:35.998Z</time></trkpt><trkpt lat="42.51505026516562" lon="12.052497071178946"><ele>388.0</ele><time>2026-04-30T10:55:36.998Z</time></trkpt><trkpt lat="42.514893072956376" lon="12.052598248217397"><ele>387.0</ele><time>2026-04-30T10:55:37.998Z</time></trkpt><trkpt lat="42.51473593605778" lon="12.05270182035021"><ele>387.0</ele><time>2026-04-30T10:55:38.998Z</time></trkpt><trkpt lat="42.51457978631811" lon="12.052802090449772"><ele>387.0</ele><time>2026-04-30T10:55:39.998Z</time></trkpt><trkpt lat="42.514434955086955" lon="12.052903410108913"><ele>387.0</ele><time>2026-04-30T10:55:40.998Z</time></trkpt><trkpt lat="42.514295254865715" lon="12.052996441199268"><ele>385.5</ele><time>2026-04-30T10:55:41.998Z</time></trkpt><trkpt lat="42.514157796054754" lon="12.053082971598808"><ele>384.0</ele><time>2026-04-30T10:55:42.998Z</time></trkpt><trkpt lat="42.5140267259158" lon="12.053171339178638"><ele>382.5</ele><time>2026-04-30T10:55:43.998Z</time></trkpt><trkpt lat="42.51389750753019" lon="12.053257514396696"><ele>381.0</ele><time>2026-04-30T10:55:44.998Z</time></trkpt><trkpt lat="42.51376878523172" lon="12.053340862448374"><ele>380.25</ele><time>2026-04-30T10:55:45.998Z</time></trkpt><trkpt lat="42.51363835399212" lon="12.053422157908608"><ele>379.5</ele><time>2026-04-30T10:55:46.998Z</time></trkpt><trkpt lat="42.51350210746935" lon="12.053509498709593"><ele>378.75</ele><time>2026-04-30T10:55:47.998Z</time></trkpt><trkpt lat="42.5133656646327" lon="12.05359615158307"><ele>378.0</ele><time>2026-04-30T10:55:48.998Z</time></trkpt><trkpt lat="42.51322764216846" lon="12.053688701290902"><ele>378.0</ele><time>2026-04-30T10:55:49.998Z</time></trkpt><trkpt lat="42.51309071396321" lon="12.053781404006847"><ele>378.0</ele><time>2026-04-30T10:55:50.998Z</time></trkpt><trkpt lat="42.51295639022706" lon="12.053870821485278"><ele>378.0</ele><time>2026-04-30T10:55:51.998Z</time></trkpt><trkpt lat="42.51282555463935" lon="12.05396108885225"><ele>378.0</ele><time>2026-04-30T10:55:52.998Z</time></trkpt><trkpt lat="42.51269597468738" lon="12.054046778309514"><ele>376.5</ele><time>2026-04-30T10:55:53.998Z</time></trkpt><trkpt lat="42.51256666405787" lon="12.054129776081247"><ele>375.0</ele><time>2026-04-30T10:55:54.998Z</time></trkpt><trkpt lat="42.51243809657241" lon="12.05421598741967"><ele>373.5</ele><time>2026-04-30T10:55:55.998Z</time></trkpt><trkpt lat="42.512309165363206" lon="12.054309201836517"><ele>372.0</ele><time>2026-04-30T10:55:56.998Z</time></trkpt><trkpt lat="42.512176356737235" lon="12.05440594368649"><ele>370.3333333333333</ele><time>2026-04-30T10:55:57.998Z</time></trkpt><trkpt lat="42.51203806746217" lon="12.054504491288107"><ele>368.66666666666663</ele><time>2026-04-30T10:55:58.998Z</time></trkpt><trkpt lat="42.51189584782519" lon="12.054603204199964"><ele>367.0</ele><time>2026-04-30T10:55:59.998Z</time></trkpt><trkpt lat="42.51175278381084" lon="12.05470455518307"><ele>367.0</ele><time>2026-04-30T10:56:00.998Z</time></trkpt><trkpt lat="42.511608779641755" lon="12.054810323421377"><ele>367.0</ele><time>2026-04-30T10:56:01.998Z</time></trkpt><trkpt lat="42.51146346451539" lon="12.0549188779617"><ele>367.0</ele><time>2026-04-30T10:56:02.998Z</time></trkpt><trkpt lat="42.51131838011469" lon="12.055032196206662"><ele>365.3333333333333</ele><time>2026-04-30T10:56:03.998Z</time></trkpt><trkpt lat="42.51117571072603" lon="12.055143537236724"><ele>363.6666666666667</ele><time>2026-04-30T10:56:04.998Z</time></trkpt><trkpt lat="42.5110328669748" lon="12.055251568170307"><ele>362.0</ele><time>2026-04-30T10:56:05.998Z</time></trkpt><trkpt lat="42.51088561170417" lon="12.055358272973418"><ele>362.0</ele><time>2026-04-30T10:56:06.998Z</time></trkpt><trkpt lat="42.51073639318377" lon="12.055469527875527"><ele>362.0</ele><time>2026-04-30T10:56:07.998Z</time></trkpt><trkpt lat="42.510589034752655" lon="12.055581862992273"><ele>362.0</ele><time>2026-04-30T10:56:08.998Z</time></trkpt><trkpt lat="42.51044106133259" lon="12.055696434321801"><ele>360.33333333333337</ele><time>2026-04-30T10:56:09.998Z</time></trkpt><trkpt lat="42.510287187379355" lon="12.05581425682747"><ele>358.6666666666667</ele><time>2026-04-30T10:56:10.998Z</time></trkpt><trkpt lat="42.510125419176816" lon="12.0559119218256"><ele>357.0</ele><time>2026-04-30T10:56:11.998Z</time></trkpt><trkpt lat="42.50997986016916" lon="12.05604414932553"><ele>357.0</ele><time>2026-04-30T10:56:12.998Z</time></trkpt><trkpt lat="42.5098241554584" lon="12.056157214742305"><ele>357.0</ele><time>2026-04-30T10:56:14Z</time></trkpt><trkpt lat="42.509667963599924" lon="12.056273756188792"><ele>357.0</ele><time>2026-04-30T10:56:15Z</time></trkpt><trkpt lat="42.50949655248558" lon="12.056381307558166"><ele>356.0</ele><time>2026-04-30T10:56:16Z</time></trkpt><trkpt lat="42.50932091737269" lon="12.056512372480695"><ele>355.0</ele><time>2026-04-30T10:56:17Z</time></trkpt><trkpt lat="42.50913566993742" lon="12.05664757906078"><ele>354.0</ele><time>2026-04-30T10:56:18Z</time></trkpt><trkpt lat="42.5089380013901" lon="12.05678651161745"><ele>353.5</ele><time>2026-04-30T10:56:19Z</time></trkpt><trkpt lat="42.50873573430948" lon="12.056922159174128"><ele>353.0</ele><time>2026-04-30T10:56:20Z</time></trkpt><trkpt lat="42.50853890710921" lon="12.057073155786146"><ele>353.0</ele><time>2026-04-30T10:56:21Z</time></trkpt><trkpt lat="42.5083299182859" lon="12.05719979492022"><ele>353.0</ele><time>2026-04-30T10:56:22Z</time></trkpt><trkpt lat="42.50811973621945" lon="12.057337035395237"><ele>351.5</ele><time>2026-04-30T10:56:23Z</time></trkpt><trkpt lat="42.507905946079994" lon="12.05747478384025"><ele>350.0</ele><time>2026-04-30T10:56:24Z</time></trkpt><trkpt lat="42.50768153116637" lon="12.057587258044352"><ele>350.0</ele><time>2026-04-30T10:56:25Z</time></trkpt><trkpt lat="42.50745872026657" lon="12.0577140400557"><ele>350.0</ele><time>2026-04-30T10:56:26Z</time></trkpt><trkpt lat="42.507233978415854" lon="12.057831333924744"><ele>348.0</ele><time>2026-04-30T10:56:27Z</time></trkpt><trkpt lat="42.50700798820892" lon="12.057943368078362"><ele>346.0</ele><time>2026-04-30T10:56:28Z</time></trkpt><trkpt lat="42.50678218288203" lon="12.058048779646741"><ele>346.0</ele><time>2026-04-30T10:56:29Z</time></trkpt><trkpt lat="42.506560052337676" lon="12.05814553114105"><ele>346.0</ele><time>2026-04-30T10:56:30Z</time></trkpt><trkpt lat="42.50634110874217" lon="12.058238681220041"><ele>346.5</ele><time>2026-04-30T10:56:31Z</time></trkpt><trkpt lat="42.506124799284514" lon="12.05833624932636"><ele>347.0</ele><time>2026-04-30T10:56:32Z</time></trkpt><trkpt lat="42.50591113941404" lon="12.058433750665388"><ele>347.0</ele><time>2026-04-30T10:56:33Z</time></trkpt><trkpt lat="42.50569712561584" lon="12.058540514901525"><ele>347.0</ele><time>2026-04-30T10:56:34Z</time></trkpt><trkpt lat="42.50548857489197" lon="12.058677413726363"><ele>346.5</ele><time>2026-04-30T10:56:35Z</time></trkpt><trkpt lat="42.50528233739496" lon="12.058838582793555"><ele>346.0</ele><time>2026-04-30T10:56:36Z</time></trkpt><trkpt lat="42.50507762192785" lon="12.059010549462524"><ele>345.5</ele><time>2026-04-30T10:56:36.999Z</time></trkpt><trkpt lat="42.504874383850655" lon="12.059185120007143"><ele>345.0</ele><time>2026-04-30T10:56:37.999Z</time></trkpt><trkpt lat="42.50467269091676" lon="12.059355746203673"><ele>344.5</ele><time>2026-04-30T10:56:38.999Z</time></trkpt><trkpt lat="42.50446605211028" lon="12.059518932808729"><ele>344.0</ele><time>2026-04-30T10:56:39.999Z</time></trkpt><trkpt lat="42.504252655071234" lon="12.059671492961462"><ele>344.0</ele><time>2026-04-30T10:56:40.999Z</time></trkpt><trkpt lat="42.50403091485435" lon="12.059816593193695"><ele>344.0</ele><time>2026-04-30T10:56:41.999Z</time></trkpt><trkpt lat="42.503802323681484" lon="12.059951988354515"><ele>344.0</ele><time>2026-04-30T10:56:42.999Z</time></trkpt><trkpt lat="42.503570495096" lon="12.060082458747587"><ele>344.0</ele><time>2026-04-30T10:56:43.999Z</time></trkpt><trkpt lat="42.50333549098133" lon="12.060210438812783"><ele>344.0</ele><time>2026-04-30T10:56:44.999Z</time></trkpt><trkpt lat="42.50309563632124" lon="12.060327492169334"><ele>344.0</ele><time>2026-04-30T10:56:45.999Z</time></trkpt><trkpt lat="42.50285045035095" lon="12.060427116102709"><ele>344.0</ele><time>2026-04-30T10:56:46.999Z</time></trkpt><trkpt lat="42.50259919917552" lon="12.060518452824759"><ele>344.0</ele><time>2026-04-30T10:56:47.999Z</time></trkpt><trkpt lat="42.50234525165891" lon="12.060609921293048"><ele>344.0</ele><time>2026-04-30T10:56:48.999Z</time></trkpt><trkpt lat="42.50208840433696" lon="12.060707454463358"><ele>344.0</ele><time>2026-04-30T10:56:49.999Z</time></trkpt><trkpt lat="42.5018309286806" lon="12.060807114808057"><ele>342.5</ele><time>2026-04-30T10:56:50.999Z</time></trkpt><trkpt lat="42.50157235763411" lon="12.060905398107879"><ele>341.0</ele><time>2026-04-30T10:56:51.999Z</time></trkpt><trkpt lat="42.50131268012957" lon="12.061004110115697"><ele>339.0</ele><time>2026-04-30T10:56:52.999Z</time></trkpt><trkpt lat="42.50105240169979" lon="12.061103712789624"><ele>337.0</ele><time>2026-04-30T10:56:53.999Z</time></trkpt><trkpt lat="42.50079206623588" lon="12.061202244639912"><ele>337.0</ele><time>2026-04-30T10:56:54.999Z</time></trkpt><trkpt lat="42.5005320329175" lon="12.061300381378224"><ele>337.0</ele><time>2026-04-30T10:56:55.999Z</time></trkpt><trkpt lat="42.50027076436258" lon="12.061398117240852"><ele>332.5</ele><time>2026-04-30T10:56:56.999Z</time></trkpt><trkpt lat="42.50001107228368" lon="12.061495797317148"><ele>328.0</ele><time>2026-04-30T10:56:57.999Z</time></trkpt><trkpt lat="42.49975074482732" lon="12.06159468138532"><ele>326.0</ele><time>2026-04-30T10:56:58.999Z</time></trkpt><trkpt lat="42.499491075960265" lon="12.061694461171241"><ele>324.0</ele><time>2026-04-30T10:56:59.999Z</time></trkpt><trkpt lat="42.49923212441287" lon="12.061791119416126"><ele>324.0</ele><time>2026-04-30T10:57:00.999Z</time></trkpt><trkpt lat="42.49897434738012" lon="12.061890518407322"><ele>324.0</ele><time>2026-04-30T10:57:01.999Z</time></trkpt><trkpt lat="42.49872024388577" lon="12.0619900975118"><ele>321.0</ele><time>2026-04-30T10:57:02.999Z</time></trkpt><trkpt lat="42.49846607978344" lon="12.062086614550616"><ele>318.0</ele><time>2026-04-30T10:57:03.999Z</time></trkpt><trkpt lat="42.49821219979939" lon="12.062184693083207"><ele>318.0</ele><time>2026-04-30T10:57:04.999Z</time></trkpt><trkpt lat="42.49795987992733" lon="12.062282283332618"><ele>318.0</ele><time>2026-04-30T10:57:05.999Z</time></trkpt><trkpt lat="42.49770648799776" lon="12.062379065836422"><ele>317.0</ele><time>2026-04-30T10:57:06.999Z</time></trkpt><trkpt lat="42.49745290087858" lon="12.062474753337229"><ele>316.0</ele><time>2026-04-30T10:57:07.999Z</time></trkpt><trkpt lat="42.49720039993603" lon="12.06257373615908"><ele>316.0</ele><time>2026-04-30T10:57:08.999Z</time></trkpt><trkpt lat="42.49694836749871" lon="12.062671756658656"><ele>316.0</ele><time>2026-04-30T10:57:09.999Z</time></trkpt><trkpt lat="42.49669587992295" lon="12.062767304239383"><ele>316.0</ele><time>2026-04-30T10:57:10.999Z</time></trkpt><trkpt lat="42.496444577896625" lon="12.062859804067957"><ele>316.0</ele><time>2026-04-30T10:57:11.999Z</time></trkpt><trkpt lat="42.496194385996326" lon="12.062953317369267"><ele>315.0</ele><time>2026-04-30T10:57:12.999Z</time></trkpt><trkpt lat="42.49594623031025" lon="12.063046767146693"><ele>314.0</ele><time>2026-04-30T10:57:13.999Z</time></trkpt><trkpt lat="42.49570066473378" lon="12.063140315383839"><ele>314.0</ele><time>2026-04-30T10:57:14.999Z</time></trkpt><trkpt lat="42.49545656435409" lon="12.063239699614213"><ele>314.0</ele><time>2026-04-30T10:57:15.999Z</time></trkpt><trkpt lat="42.49521250918234" lon="12.063341305501897"><ele>313.0</ele><time>2026-04-30T10:57:16.999Z</time></trkpt><trkpt lat="42.49496084915982" lon="12.063440142532611"><ele>312.0</ele><time>2026-04-30T10:57:17.999Z</time></trkpt><trkpt lat="42.494704914324316" lon="12.063520699058737"><ele>311.5</ele><time>2026-04-30T10:57:18.999Z</time></trkpt><trkpt lat="42.494445213419226" lon="12.063581838943009"><ele>311.0</ele><time>2026-04-30T10:57:19.999Z</time></trkpt><trkpt lat="42.49418494782042" lon="12.063619596448822"><ele>311.0</ele><time>2026-04-30T10:57:20.999Z</time></trkpt><trkpt lat="42.49392333875445" lon="12.063644031098486"><ele>311.0</ele><time>2026-04-30T10:57:21.999Z</time></trkpt><trkpt lat="42.493660127021144" lon="12.063670726295427"><ele>311.0</ele><time>2026-04-30T10:57:22.999Z</time></trkpt><trkpt lat="42.49339847038583" lon="12.06370709477669"><ele>311.0</ele><time>2026-04-30T10:57:23.999Z</time></trkpt><trkpt lat="42.493139120542665" lon="12.063759840605558"><ele>313.5</ele><time>2026-04-30T10:57:24.999Z</time></trkpt><trkpt lat="42.49288293138471" lon="12.063835134680412"><ele>316.0</ele><time>2026-04-30T10:57:25.999Z</time></trkpt><trkpt lat="42.492636484096344" lon="12.063935826156829"><ele>316.0</ele><time>2026-04-30T10:57:26.999Z</time></trkpt><trkpt lat="42.49240016000733" lon="12.064071225371967"><ele>316.0</ele><time>2026-04-30T10:57:27.999Z</time></trkpt><trkpt lat="42.49216710693171" lon="12.064224101327563"><ele>316.0</ele><time>2026-04-30T10:57:28.999Z</time></trkpt><trkpt lat="42.491936325101356" lon="12.064384780518461"><ele>316.0</ele><time>2026-04-30T10:57:29.999Z</time></trkpt><trkpt lat="42.49171383971544" lon="12.064552686926236"><ele>316.0</ele><time>2026-04-30T10:57:30.999Z</time></trkpt><trkpt lat="42.49149920884205" lon="12.064716409850046"><ele>316.0</ele><time>2026-04-30T10:57:31.999Z</time></trkpt><trkpt lat="42.49128024608678" lon="12.064887048858054"><ele>316.5</ele><time>2026-04-30T10:57:32.998Z</time></trkpt><trkpt lat="42.49105981651009" lon="12.065066778006674"><ele>317.0</ele><time>2026-04-30T10:57:33.998Z</time></trkpt><trkpt lat="42.49084042446758" lon="12.065252129566833"><ele>317.0</ele><time>2026-04-30T10:57:34.998Z</time></trkpt><trkpt lat="42.49062039463883" lon="12.06543889098179"><ele>317.0</ele><time>2026-04-30T10:57:35.998Z</time></trkpt><trkpt lat="42.49040235666432" lon="12.065628524316482"><ele>318.0</ele><time>2026-04-30T10:57:36.998Z</time></trkpt><trkpt lat="42.49018678247642" lon="12.06582384652109"><ele>319.0</ele><time>2026-04-30T10:57:37.998Z</time></trkpt><trkpt lat="42.48997171991684" lon="12.066018692778956"><ele>319.0</ele><time>2026-04-30T10:57:38.998Z</time></trkpt><trkpt lat="42.489752109052894" lon="12.066203060281397"><ele>319.0</ele><time>2026-04-30T10:57:39.998Z</time></trkpt><trkpt lat="42.48952856190699" lon="12.06637166521049"><ele>321.0</ele><time>2026-04-30T10:57:40.998Z</time></trkpt><trkpt lat="42.48930353894969" lon="12.066529226312893"><ele>323.0</ele><time>2026-04-30T10:57:41.998Z</time></trkpt><trkpt lat="42.48907145496708" lon="12.066665257160714"><ele>323.0</ele><time>2026-04-30T10:57:42.998Z</time></trkpt><trkpt lat="42.488846795772126" lon="12.066782842777258"><ele>323.0</ele><time>2026-04-30T10:57:43.998Z</time></trkpt><trkpt lat="42.48864723085015" lon="12.066881118460689"><ele>323.6666666666667</ele><time>2026-04-30T10:57:44.998Z</time></trkpt><trkpt lat="42.48845567236895" lon="12.066975305132237"><ele>324.3333333333333</ele><time>2026-04-30T10:57:45.998Z</time></trkpt><trkpt lat="42.48826818580491" lon="12.067063461974136"><ele>325.0</ele><time>2026-04-30T10:57:46.998Z</time></trkpt><trkpt lat="42.48807497275728" lon="12.067140839233712"><ele>324.0</ele><time>2026-04-30T10:57:47.998Z</time></trkpt><trkpt lat="42.487899888776816" lon="12.067209771780993"><ele>323.0</ele><time>2026-04-30T10:57:48.998Z</time></trkpt><trkpt lat="42.487732594795865" lon="12.06727719817575"><ele>322.0</ele><time>2026-04-30T10:57:49.998Z</time></trkpt><trkpt lat="42.48756064350977" lon="12.06734324916128"><ele>322.0</ele><time>2026-04-30T10:57:50.998Z</time></trkpt><trkpt lat="42.4873840029175" lon="12.067410845637719"><ele>322.0</ele><time>2026-04-30T10:57:51.998Z</time></trkpt><trkpt lat="42.48719801695985" lon="12.067477241832847"><ele>322.0</ele><time>2026-04-30T10:57:52.998Z</time></trkpt><trkpt lat="42.48700643124538" lon="12.067537902763087"><ele>321.0</ele><time>2026-04-30T10:57:53.998Z</time></trkpt><trkpt lat="42.486812093069396" lon="12.067599461946749"><ele>320.0</ele><time>2026-04-30T10:57:54.998Z</time></trkpt><trkpt lat="42.48661724251837" lon="12.067665697394197"><ele>319.0</ele><time>2026-04-30T10:57:55.998Z</time></trkpt><trkpt lat="42.48642082505915" lon="12.067735358107788"><ele>319.3333333333333</ele><time>2026-04-30T10:57:56.998Z</time></trkpt><trkpt lat="42.48622286188426" lon="12.0678066404795"><ele>319.6666666666667</ele><time>2026-04-30T10:57:57.998Z</time></trkpt><trkpt lat="42.48602453665595" lon="12.067878400618321"><ele>320.0</ele><time>2026-04-30T10:57:58.998Z</time></trkpt><trkpt lat="42.485826400556796" lon="12.067945919840536"><ele>320.0</ele><time>2026-04-30T10:57:59.998Z</time></trkpt><trkpt lat="42.4856220892426" lon="12.068007360806584"><ele>320.0</ele><time>2026-04-30T10:58:00.998Z</time></trkpt><trkpt lat="42.48541609623428" lon="12.068069283400757"><ele>320.0</ele><time>2026-04-30T10:58:01.998Z</time></trkpt><trkpt lat="42.485208298638675" lon="12.068136871292232"><ele>319.33333333333337</ele><time>2026-04-30T10:58:02.998Z</time></trkpt><trkpt lat="42.48500164484052" lon="12.068209024484707"><ele>318.6666666666667</ele><time>2026-04-30T10:58:03.998Z</time></trkpt><trkpt lat="42.48479473569019" lon="12.068282498853828"><ele>318.0</ele><time>2026-04-30T10:58:04.998Z</time></trkpt><trkpt lat="42.48458554114606" lon="12.068352320353265"><ele>317.6666666666667</ele><time>2026-04-30T10:58:05.998Z</time></trkpt><trkpt lat="42.48437930256712" lon="12.068424948704557"><ele>317.33333333333337</ele><time>2026-04-30T10:58:06.998Z</time></trkpt><trkpt lat="42.48418441027804" lon="12.06849450930186"><ele>317.0</ele><time>2026-04-30T10:58:07.998Z</time></trkpt><trkpt lat="42.48401006785565" lon="12.068555330293934"><ele>317.0</ele><time>2026-04-30T10:58:08.998Z</time></trkpt><trkpt lat="42.483855485330594" lon="12.068604422211505"><ele>317.0</ele><time>2026-04-30T10:58:09.998Z</time></trkpt><trkpt lat="42.48371881917111" lon="12.068651385758232"><ele>317.0</ele><time>2026-04-30T10:58:10.998Z</time></trkpt><trkpt lat="42.483587337332395" lon="12.068697968645429"><ele>317.0</ele><time>2026-04-30T10:58:11.998Z</time></trkpt><trkpt lat="42.48345391620812" lon="12.068742844577926"><ele>317.33333333333337</ele><time>2026-04-30T10:58:12.998Z</time></trkpt><trkpt lat="42.48330672960097" lon="12.068766369504507"><ele>317.6666666666667</ele><time>2026-04-30T10:58:13.998Z</time></trkpt><trkpt lat="42.483163316406255" lon="12.068835527723937"><ele>318.0</ele><time>2026-04-30T10:58:14.998Z</time></trkpt><trkpt lat="42.483013161314005" lon="12.068885008380517"><ele>318.0</ele><time>2026-04-30T10:58:15.998Z</time></trkpt><trkpt lat="42.48285545774628" lon="12.068918642809217"><ele>318.0</ele><time>2026-04-30T10:58:16.998Z</time></trkpt><trkpt lat="42.482704403191846" lon="12.06896906836165"><ele>318.0</ele><time>2026-04-30T10:58:17.998Z</time></trkpt><trkpt lat="42.482576728916264" lon="12.069031854784226"><ele>318.0</ele><time>2026-04-30T10:58:18.998Z</time></trkpt><trkpt lat="42.48245611653104" lon="12.06906305852792"><ele>318.0</ele><time>2026-04-30T10:58:20Z</time></trkpt><trkpt lat="42.48234182990385" lon="12.069098465576474"><ele>318.0</ele><time>2026-04-30T10:58:21Z</time></trkpt><trkpt lat="42.48222221920131" lon="12.069144759737144"><ele>318.0</ele><time>2026-04-30T10:58:22Z</time></trkpt><trkpt lat="42.48209875564653" lon="12.069191069374996"><ele>319.0</ele><time>2026-04-30T10:58:23Z</time></trkpt><trkpt lat="42.48197251292737" lon="12.069234358193603"><ele>320.0</ele><time>2026-04-30T10:58:24Z</time></trkpt><trkpt lat="42.48184291954262" lon="12.069275748487147"><ele>321.0</ele><time>2026-04-30T10:58:25Z</time></trkpt><trkpt lat="42.481705192509054" lon="12.069318864843394"><ele>322.0</ele><time>2026-04-30T10:58:26Z</time></trkpt><trkpt lat="42.48156343160198" lon="12.069363740036296"><ele>322.0</ele><time>2026-04-30T10:58:27Z</time></trkpt><trkpt lat="42.48142230186593" lon="12.069413567778513"><ele>322.0</ele><time>2026-04-30T10:58:28Z</time></trkpt><trkpt lat="42.481279877284834" lon="12.069463243997193"><ele>322.0</ele><time>2026-04-30T10:58:29Z</time></trkpt><trkpt lat="42.481145677285646" lon="12.069510733570196"><ele>322.0</ele><time>2026-04-30T10:58:30Z</time></trkpt><trkpt lat="42.4810148446044" lon="12.069558192907293"><ele>322.5</ele><time>2026-04-30T10:58:31Z</time></trkpt><trkpt lat="42.48086965481544" lon="12.069588251992789"><ele>323.0</ele><time>2026-04-30T10:58:32Z</time></trkpt><trkpt lat="42.48072138753583" lon="12.069638354057904"><ele>323.5</ele><time>2026-04-30T10:58:33Z</time></trkpt><trkpt lat="42.48058601646967" lon="12.069684098298401"><ele>324.0</ele><time>2026-04-30T10:58:34Z</time></trkpt><trkpt lat="42.48046178344937" lon="12.069743581991165"><ele>324.75</ele><time>2026-04-30T10:58:35Z</time></trkpt><trkpt lat="42.480324458141524" lon="12.069794703443511"><ele>325.5</ele><time>2026-04-30T10:58:36Z</time></trkpt><trkpt lat="42.480178392919846" lon="12.069844805835203"><ele>326.25</ele><time>2026-04-30T10:58:37Z</time></trkpt><trkpt lat="42.48003417549802" lon="12.069889784099555"><ele>327.0</ele><time>2026-04-30T10:58:38Z</time></trkpt><trkpt lat="42.47989347309592" lon="12.069930967271434"><ele>327.0</ele><time>2026-04-30T10:58:39Z</time></trkpt><trkpt lat="42.479766046820004" lon="12.069975796560787"><ele>327.0</ele><time>2026-04-30T10:58:40Z</time></trkpt><trkpt lat="42.47963535699418" lon="12.07002098174712"><ele>327.0</ele><time>2026-04-30T10:58:41Z</time></trkpt><trkpt lat="42.47948878585897" lon="12.07004815129489"><ele>327.0</ele><time>2026-04-30T10:58:42Z</time></trkpt><trkpt lat="42.479347984348074" lon="12.070094205653083"><ele>326.25</ele><time>2026-04-30T10:58:43Z</time></trkpt><trkpt lat="42.47920901014743" lon="12.070140837798853"><ele>325.5</ele><time>2026-04-30T10:58:44Z</time></trkpt><trkpt lat="42.479071481617105" lon="12.070213305468103"><ele>324.75</ele><time>2026-04-30T10:58:44.999Z</time></trkpt><trkpt lat="42.47892812356752" lon="12.070262207115608"><ele>324.0</ele><time>2026-04-30T10:58:45.999Z</time></trkpt><trkpt lat="42.47878140579093" lon="12.070306642292957"><ele>323.0</ele><time>2026-04-30T10:58:46.999Z</time></trkpt><trkpt lat="42.47863506642114" lon="12.070354348813874"><ele>322.0</ele><time>2026-04-30T10:58:47.999Z</time></trkpt><trkpt lat="42.478481221648124" lon="12.070403904767984"><ele>321.0</ele><time>2026-04-30T10:58:48.999Z</time></trkpt><trkpt lat="42.478333070839064" lon="12.070454218874007"><ele>321.0</ele><time>2026-04-30T10:58:49.999Z</time></trkpt><trkpt lat="42.47817797809854" lon="12.070509118832607"><ele>321.0</ele><time>2026-04-30T10:58:50.999Z</time></trkpt><trkpt lat="42.47801970153771" lon="12.07057115065523"><ele>321.0</ele><time>2026-04-30T10:58:51.999Z</time></trkpt><trkpt lat="42.47785755749933" lon="12.070643143779126"><ele>321.0</ele><time>2026-04-30T10:58:52.999Z</time></trkpt><trkpt lat="42.477691976689094" lon="12.070724092129858"><ele>321.0</ele><time>2026-04-30T10:58:53.999Z</time></trkpt><trkpt lat="42.477516015335446" lon="12.070825734251471"><ele>321.0</ele><time>2026-04-30T10:58:54.999Z</time></trkpt><trkpt lat="42.477319031698194" lon="12.070911510570193"><ele>320.3333333333333</ele><time>2026-04-30T10:58:55.999Z</time></trkpt><trkpt lat="42.47712468310257" lon="12.071018688893808"><ele>319.66666666666663</ele><time>2026-04-30T10:58:56.999Z</time></trkpt><trkpt lat="42.476908173780735" lon="12.071138088282906"><ele>319.0</ele><time>2026-04-30T10:58:57.999Z</time></trkpt><trkpt lat="42.47669863043003" lon="12.07125429937815"><ele>319.0</ele><time>2026-04-30T10:58:58.999Z</time></trkpt><trkpt lat="42.47648238810333" lon="12.071375172637973"><ele>319.0</ele><time>2026-04-30T10:58:59.999Z</time></trkpt><trkpt lat="42.47626589094765" lon="12.071496970151669"><ele>318.0</ele><time>2026-04-30T10:59:00.999Z</time></trkpt><trkpt lat="42.4760505212441" lon="12.071618283335475"><ele>317.0</ele><time>2026-04-30T10:59:01.999Z</time></trkpt><trkpt lat="42.47583776405729" lon="12.071738821808667"><ele>317.0</ele><time>2026-04-30T10:59:02.999Z</time></trkpt><trkpt lat="42.475631481787126" lon="12.071855560169933"><ele>317.0</ele><time>2026-04-30T10:59:03.999Z</time></trkpt><trkpt lat="42.47542496276735" lon="12.071972432495569"><ele>317.0</ele><time>2026-04-30T10:59:04.999Z</time></trkpt><trkpt lat="42.47521346988793" lon="12.072091936426883"><ele>317.5</ele><time>2026-04-30T10:59:05.999Z</time></trkpt><trkpt lat="42.475004943946914" lon="12.072234351656748"><ele>318.0</ele><time>2026-04-30T10:59:06.999Z</time></trkpt><trkpt lat="42.47479298749538" lon="12.07236070781721"><ele>317.0</ele><time>2026-04-30T10:59:07.999Z</time></trkpt><trkpt lat="42.47458165930835" lon="12.072495648236576"><ele>316.0</ele><time>2026-04-30T10:59:08.999Z</time></trkpt><trkpt lat="42.4743619333165" lon="12.072607585662485"><ele>316.0</ele><time>2026-04-30T10:59:09.999Z</time></trkpt><trkpt lat="42.474145153502064" lon="12.072734882191966"><ele>316.0</ele><time>2026-04-30T10:59:10.999Z</time></trkpt><trkpt lat="42.47392363472133" lon="12.07285646278048"><ele>316.5</ele><time>2026-04-30T10:59:11.999Z</time></trkpt><trkpt lat="42.47369621438719" lon="12.072969222010938"><ele>317.0</ele><time>2026-04-30T10:59:12.999Z</time></trkpt><trkpt lat="42.473472621313185" lon="12.073091865794911"><ele>317.0</ele><time>2026-04-30T10:59:13.999Z</time></trkpt><trkpt lat="42.47324288454417" lon="12.073189165448285"><ele>317.0</ele><time>2026-04-30T10:59:14.999Z</time></trkpt><trkpt lat="42.47301314982853" lon="12.073288616525813"><ele>315.0</ele><time>2026-04-30T10:59:15.999Z</time></trkpt><trkpt lat="42.47277756561509" lon="12.07336315607013"><ele>313.0</ele><time>2026-04-30T10:59:16.999Z</time></trkpt><trkpt lat="42.47254585475251" lon="12.073473371198247"><ele>313.0</ele><time>2026-04-30T10:59:17.999Z</time></trkpt><trkpt lat="42.47230562454083" lon="12.073544226980317"><ele>313.0</ele><time>2026-04-30T10:59:18.999Z</time></trkpt><trkpt lat="42.472061294437275" lon="12.073602124290979"><ele>312.0</ele><time>2026-04-30T10:59:19.999Z</time></trkpt><trkpt lat="42.47181483867489" lon="12.073650546847984"><ele>311.0</ele><time>2026-04-30T10:59:20.999Z</time></trkpt><trkpt lat="42.47156804728605" lon="12.073695630565668"><ele>311.0</ele><time>2026-04-30T10:59:21.999Z</time></trkpt><trkpt lat="42.47131839197659" lon="12.073712498057645"><ele>311.0</ele><time>2026-04-30T10:59:22.999Z</time></trkpt><trkpt lat="42.471068339622136" lon="12.073749564415857"><ele>310.0</ele><time>2026-04-30T10:59:23.999Z</time></trkpt><trkpt lat="42.47081923130282" lon="12.073785028333816"><ele>309.0</ele><time>2026-04-30T10:59:24.999Z</time></trkpt><trkpt lat="42.470572509185416" lon="12.073820293709783"><ele>312.0</ele><time>2026-04-30T10:59:25.999Z</time></trkpt><trkpt lat="42.470328727149436" lon="12.073855138844232"><ele>315.0</ele><time>2026-04-30T10:59:26.999Z</time></trkpt><trkpt lat="42.47008536530908" lon="12.073889923921177"><ele>315.0</ele><time>2026-04-30T10:59:27.999Z</time></trkpt><trkpt lat="42.46984316773421" lon="12.073917485632728"><ele>315.0</ele><time>2026-04-30T10:59:28.999Z</time></trkpt><trkpt lat="42.469599901900686" lon="12.073929381605302"><ele>315.5</ele><time>2026-04-30T10:59:29.999Z</time></trkpt><trkpt lat="42.46936116862711" lon="12.073917413150733"><ele>316.0</ele><time>2026-04-30T10:59:30.999Z</time></trkpt><trkpt lat="42.469123950498144" lon="12.073890900564137"><ele>316.0</ele><time>2026-04-30T10:59:31.999Z</time></trkpt><trkpt lat="42.46889088526768" lon="12.07387394899286"><ele>316.0</ele><time>2026-04-30T10:59:32.999Z</time></trkpt><trkpt lat="42.46865711459159" lon="12.073826963910232"><ele>315.5</ele><time>2026-04-30T10:59:33.999Z</time></trkpt><trkpt lat="42.468424163861364" lon="12.073769559683651"><ele>315.0</ele><time>2026-04-30T10:59:34.999Z</time></trkpt><trkpt lat="42.46818410735468" lon="12.073726166594572"><ele>315.0</ele><time>2026-04-30T10:59:35.999Z</time></trkpt><trkpt lat="42.46794657798487" lon="12.07368323026446"><ele>315.0</ele><time>2026-04-30T10:59:36.999Z</time></trkpt><trkpt lat="42.46771006229963" lon="12.073640072418437"><ele>315.5</ele><time>2026-04-30T10:59:37.999Z</time></trkpt><trkpt lat="42.46747689026809" lon="12.073596818172817"><ele>316.0</ele><time>2026-04-30T10:59:38.999Z</time></trkpt><trkpt lat="42.46724128910585" lon="12.073585512451977"><ele>317.0</ele><time>2026-04-30T10:59:39.999Z</time></trkpt><trkpt lat="42.46700696569956" lon="12.073538022081305"><ele>318.0</ele><time>2026-04-30T10:59:40.998Z</time></trkpt><trkpt lat="42.46677399735593" lon="12.073487198694638"><ele>318.0</ele><time>2026-04-30T10:59:41.998Z</time></trkpt><trkpt lat="42.466543672131955" lon="12.073434283034143"><ele>318.0</ele><time>2026-04-30T10:59:42.998Z</time></trkpt><trkpt lat="42.4663168754991" lon="12.073381830853249"><ele>317.5</ele><time>2026-04-30T10:59:43.998Z</time></trkpt><trkpt lat="42.46609175829507" lon="12.073331281508123"><ele>317.0</ele><time>2026-04-30T10:59:44.998Z</time></trkpt><trkpt lat="42.46586169230785" lon="12.073285718533974"><ele>316.5</ele><time>2026-04-30T10:59:45.998Z</time></trkpt><trkpt lat="42.465627646451914" lon="12.073258111652438"><ele>316.0</ele><time>2026-04-30T10:59:46.998Z</time></trkpt><trkpt lat="42.46538967611237" lon="12.073260116452227"><ele>315.5</ele><time>2026-04-30T10:59:47.998Z</time></trkpt><trkpt lat="42.465154996429675" lon="12.073295409816197"><ele>315.0</ele><time>2026-04-30T10:59:48.998Z</time></trkpt><trkpt lat="42.464936948161196" lon="12.073498822471732"><ele>315.0</ele><time>2026-04-30T10:59:49.998Z</time></trkpt><trkpt lat="42.46471487961984" lon="12.073546139136587"><ele>315.0</ele><time>2026-04-30T10:59:50.998Z</time></trkpt><trkpt lat="42.46449909253244" lon="12.073598334368473"><ele>315.0</ele><time>2026-04-30T10:59:51.998Z</time></trkpt><trkpt lat="42.46428861239362" lon="12.073649245942327"><ele>315.0</ele><time>2026-04-30T10:59:52.998Z</time></trkpt><trkpt lat="42.46408058203239" lon="12.073693733199597"><ele>315.0</ele><time>2026-04-30T10:59:53.998Z</time></trkpt><trkpt lat="42.463860708711685" lon="12.073637174226304"><ele>315.0</ele><time>2026-04-30T10:59:54.998Z</time></trkpt><trkpt lat="42.46365448838142" lon="12.0737039370978"><ele>315.0</ele><time>2026-04-30T10:59:55.998Z</time></trkpt><trkpt lat="42.463450544559166" lon="12.073799265566546"><ele>315.0</ele><time>2026-04-30T10:59:56.998Z</time></trkpt><trkpt lat="42.463250237998416" lon="12.073907987186663"><ele>315.0</ele><time>2026-04-30T10:59:57.998Z</time></trkpt><trkpt lat="42.463049373150994" lon="12.074013320989623"><ele>314.3333333333333</ele><time>2026-04-30T10:59:58.998Z</time></trkpt><trkpt lat="42.462867232705776" lon="12.074110469030973"><ele>313.66666666666663</ele><time>2026-04-30T10:59:59.998Z</time></trkpt><trkpt lat="42.46270177754268" lon="12.07420030196025"><ele>313.0</ele><time>2026-04-30T11:00:00.998Z</time></trkpt><trkpt lat="42.462546963141904" lon="12.074280319736902"><ele>313.0</ele><time>2026-04-30T11:00:01.998Z</time></trkpt><trkpt lat="42.46240868703725" lon="12.074356284587937"><ele>313.0</ele><time>2026-04-30T11:00:02.998Z</time></trkpt><trkpt lat="42.46228138507589" lon="12.074429869996608"><ele>313.0</ele><time>2026-04-30T11:00:03.998Z</time></trkpt><trkpt lat="42.46215964037188" lon="12.074500386450657"><ele>313.0</ele><time>2026-04-30T11:00:04.998Z</time></trkpt><trkpt lat="42.46204166473446" lon="12.07456805627748"><ele>313.0</ele><time>2026-04-30T11:00:05.998Z</time></trkpt><trkpt lat="42.46192127561839" lon="12.07463631218201"><ele>313.0</ele><time>2026-04-30T11:00:06.998Z</time></trkpt><trkpt lat="42.461796153957316" lon="12.074701177448219"><ele>313.0</ele><time>2026-04-30T11:00:07.998Z</time></trkpt><trkpt lat="42.461673124832004" lon="12.074763755295677"><ele>313.0</ele><time>2026-04-30T11:00:08.998Z</time></trkpt><trkpt lat="42.46154722369142" lon="12.07482961569168"><ele>313.0</ele><time>2026-04-30T11:00:09.998Z</time></trkpt><trkpt lat="42.46141860165283" lon="12.074897869516608"><ele>313.0</ele><time>2026-04-30T11:00:10.998Z</time></trkpt><trkpt lat="42.46128383832713" lon="12.074965485513166"><ele>313.0</ele><time>2026-04-30T11:00:11.998Z</time></trkpt><trkpt lat="42.4611490166144" lon="12.075037101828281"><ele>313.0</ele><time>2026-04-30T11:00:12.998Z</time></trkpt><trkpt lat="42.46101018331624" lon="12.075110742524021"><ele>313.0</ele><time>2026-04-30T11:00:13.998Z</time></trkpt><trkpt lat="42.460867276067894" lon="12.075186990214625"><ele>313.0</ele><time>2026-04-30T11:00:14.998Z</time></trkpt><trkpt lat="42.46072539481121" lon="12.075264571863242"><ele>313.0</ele><time>2026-04-30T11:00:15.998Z</time></trkpt><trkpt lat="42.460585226718216" lon="12.075345579893128"><ele>313.0</ele><time>2026-04-30T11:00:16.998Z</time></trkpt><trkpt lat="42.460434901525595" lon="12.075428349166629"><ele>313.0</ele><time>2026-04-30T11:00:17.998Z</time></trkpt><trkpt lat="42.46027667293846" lon="12.075512336708393"><ele>313.0</ele><time>2026-04-30T11:00:18.998Z</time></trkpt><trkpt lat="42.460122143108066" lon="12.07559740676395"><ele>313.0</ele><time>2026-04-30T11:00:19.998Z</time></trkpt><trkpt lat="42.45996032893149" lon="12.075687592436436"><ele>313.0</ele><time>2026-04-30T11:00:20.998Z</time></trkpt><trkpt lat="42.45979593477518" lon="12.075778905606533"><ele>313.0</ele><time>2026-04-30T11:00:21.998Z</time></trkpt><trkpt lat="42.45963437805209" lon="12.075872909763252"><ele>312.66666666666663</ele><time>2026-04-30T11:00:22.998Z</time></trkpt><trkpt lat="42.459471052295065" lon="12.075972068831819"><ele>312.3333333333333</ele><time>2026-04-30T11:00:23.998Z</time></trkpt><trkpt lat="42.459305889145156" lon="12.076077672140656"><ele>312.0</ele><time>2026-04-30T11:00:24.998Z</time></trkpt><trkpt lat="42.459138031950204" lon="12.076188311382356"><ele>312.0</ele><time>2026-04-30T11:00:26Z</time></trkpt><trkpt lat="42.458976191347304" lon="12.076296230636059"><ele>312.0</ele><time>2026-04-30T11:00:27Z</time></trkpt><trkpt lat="42.45881801473606" lon="12.076401454722012"><ele>312.0</ele><time>2026-04-30T11:00:28Z</time></trkpt><trkpt lat="42.4586687353292" lon="12.076502916025063"><ele>310.6666666666667</ele><time>2026-04-30T11:00:29Z</time></trkpt><trkpt lat="42.45851861994912" lon="12.07660374077133"><ele>309.33333333333337</ele><time>2026-04-30T11:00:30Z</time></trkpt><trkpt lat="42.458371277434274" lon="12.076704347748374"><ele>308.0</ele><time>2026-04-30T11:00:31Z</time></trkpt><trkpt lat="42.45822592133918" lon="12.076802292819606"><ele>308.0</ele><time>2026-04-30T11:00:32Z</time></trkpt><trkpt lat="42.45807930423863" lon="12.076900308399086"><ele>308.0</ele><time>2026-04-30T11:00:33Z</time></trkpt><trkpt lat="42.45793086416615" lon="12.076999656690559"><ele>308.0</ele><time>2026-04-30T11:00:34Z</time></trkpt><trkpt lat="42.45777905056033" lon="12.077100629431994"><ele>307.0</ele><time>2026-04-30T11:00:35Z</time></trkpt><trkpt lat="42.45762511126062" lon="12.077202289938217"><ele>306.0</ele><time>2026-04-30T11:00:36Z</time></trkpt><trkpt lat="42.45746967770726" lon="12.077308290230205"><ele>305.0</ele><time>2026-04-30T11:00:37Z</time></trkpt><trkpt lat="42.45731068248228" lon="12.07742106222408"><ele>305.6666666666667</ele><time>2026-04-30T11:00:38Z</time></trkpt><trkpt lat="42.45714951617434" lon="12.077534256420549"><ele>306.3333333333333</ele><time>2026-04-30T11:00:39Z</time></trkpt><trkpt lat="42.456987415713805" lon="12.07764641182071"><ele>307.0</ele><time>2026-04-30T11:00:40Z</time></trkpt><trkpt lat="42.45682842164423" lon="12.077754989070968"><ele>307.3333333333333</ele><time>2026-04-30T11:00:41Z</time></trkpt><trkpt lat="42.45667103669696" lon="12.07785844474678"><ele>307.6666666666667</ele><time>2026-04-30T11:00:42Z</time></trkpt><trkpt lat="42.4565134027613" lon="12.077962834860186"><ele>308.0</ele><time>2026-04-30T11:00:43Z</time></trkpt><trkpt lat="42.45635624196099" lon="12.078070984820283"><ele>307.33333333333337</ele><time>2026-04-30T11:00:44Z</time></trkpt><trkpt lat="42.456199188528004" lon="12.07818160167723"><ele>306.6666666666667</ele><time>2026-04-30T11:00:45Z</time></trkpt><trkpt lat="42.45604147842365" lon="12.07829063327819"><ele>306.0</ele><time>2026-04-30T11:00:46Z</time></trkpt><trkpt lat="42.455882230567966" lon="12.078396365189908"><ele>306.0</ele><time>2026-04-30T11:00:47Z</time></trkpt><trkpt lat="42.45572441922751" lon="12.07849894855407"><ele>306.0</ele><time>2026-04-30T11:00:48Z</time></trkpt><trkpt lat="42.45556742377036" lon="12.078602899121643"><ele>306.0</ele><time>2026-04-30T11:00:49Z</time></trkpt><trkpt lat="42.455411167617584" lon="12.07871184037512"><ele>307.0</ele><time>2026-04-30T11:00:50Z</time></trkpt><trkpt lat="42.45525479448502" lon="12.078823888142173"><ele>308.0</ele><time>2026-04-30T11:00:51Z</time></trkpt><trkpt lat="42.45510054171795" lon="12.07894371971817"><ele>309.0</ele><time>2026-04-30T11:00:51.999Z</time></trkpt><trkpt lat="42.45494880649321" lon="12.079067753710667"><ele>308.3333333333333</ele><time>2026-04-30T11:00:52.999Z</time></trkpt><trkpt lat="42.45479746554634" lon="12.079193542918514"><ele>307.66666666666663</ele><time>2026-04-30T11:00:53.999Z</time></trkpt><trkpt lat="42.45464791685554" lon="12.079319875827458"><ele>307.0</ele><time>2026-04-30T11:00:54.999Z</time></trkpt><trkpt lat="42.45450038940207" lon="12.079442911454743"><ele>307.0</ele><time>2026-04-30T11:00:55.999Z</time></trkpt><trkpt lat="42.4543606353532" lon="12.079559522023175"><ele>307.0</ele><time>2026-04-30T11:00:56.999Z</time></trkpt><trkpt lat="42.45422979768549" lon="12.079668671837316"><ele>307.0</ele><time>2026-04-30T11:00:57.999Z</time></trkpt><trkpt lat="42.4541089748499" lon="12.079764350249043"><ele>307.0</ele><time>2026-04-30T11:00:58.999Z</time></trkpt><trkpt lat="42.45399428124724" lon="12.079858622255582"><ele>307.0</ele><time>2026-04-30T11:00:59.999Z</time></trkpt><trkpt lat="42.453878315208996" lon="12.079955918000733"><ele>307.0</ele><time>2026-04-30T11:01:00.999Z</time></trkpt><trkpt lat="42.45376346752578" lon="12.080049477320573"><ele>307.0</ele><time>2026-04-30T11:01:01.999Z</time></trkpt><trkpt lat="42.45365099638133" lon="12.080148639672856"><ele>307.5</ele><time>2026-04-30T11:01:02.999Z</time></trkpt><trkpt lat="42.45354032396496" lon="12.08024692101673"><ele>308.0</ele><time>2026-04-30T11:01:03.999Z</time></trkpt><trkpt lat="42.45342934706011" lon="12.08033845692667"><ele>308.5</ele><time>2026-04-30T11:01:04.999Z</time></trkpt><trkpt lat="42.4533176271446" lon="12.080433129302461"><ele>309.0</ele><time>2026-04-30T11:01:05.999Z</time></trkpt><trkpt lat="42.453205459820936" lon="12.080524485979344"><ele>309.0</ele><time>2026-04-30T11:01:06.999Z</time></trkpt><trkpt lat="42.4530905568089" lon="12.080621139474792"><ele>309.0</ele><time>2026-04-30T11:01:07.999Z</time></trkpt><trkpt lat="42.45297434214705" lon="12.080721867608215"><ele>309.0</ele><time>2026-04-30T11:01:08.999Z</time></trkpt><trkpt lat="42.45285190194642" lon="12.080824333250163"><ele>309.0</ele><time>2026-04-30T11:01:09.999Z</time></trkpt><trkpt lat="42.452724114959885" lon="12.080919084502002"><ele>309.75</ele><time>2026-04-30T11:01:10.999Z</time></trkpt><trkpt lat="42.452584911436006" lon="12.080963643017693"><ele>310.5</ele><time>2026-04-30T11:01:11.999Z</time></trkpt><trkpt lat="42.45245960028929" lon="12.081039006997434"><ele>311.25</ele><time>2026-04-30T11:01:12.999Z</time></trkpt><trkpt lat="42.452335258687874" lon="12.081082897245658"><ele>312.0</ele><time>2026-04-30T11:01:13.999Z</time></trkpt><trkpt lat="42.45221007235434" lon="12.081135223880773"><ele>312.25</ele><time>2026-04-30T11:01:14.999Z</time></trkpt><trkpt lat="42.452087658591026" lon="12.08119095301133"><ele>312.5</ele><time>2026-04-30T11:01:15.999Z</time></trkpt><trkpt lat="42.45197290114459" lon="12.081250524992958"><ele>312.75</ele><time>2026-04-30T11:01:16.999Z</time></trkpt><trkpt lat="42.451864029821444" lon="12.081311431183037"><ele>313.0</ele><time>2026-04-30T11:01:17.999Z</time></trkpt><trkpt lat="42.451761214793834" lon="12.081366423682123"><ele>313.0</ele><time>2026-04-30T11:01:18.999Z</time></trkpt><trkpt lat="42.451670594786314" lon="12.081420081559552"><ele>313.0</ele><time>2026-04-30T11:01:19.999Z</time></trkpt><trkpt lat="42.451588693149134" lon="12.081473545917785"><ele>313.0</ele><time>2026-04-30T11:01:20.999Z</time></trkpt><trkpt lat="42.45151776641257" lon="12.081527905108546"><ele>313.0</ele><time>2026-04-30T11:01:21.999Z</time></trkpt><trkpt lat="42.45144870537015" lon="12.081576490787782"><ele>313.0</ele><time>2026-04-30T11:01:22.999Z</time></trkpt><trkpt lat="42.451384025676845" lon="12.081622173624984"><ele>313.0</ele><time>2026-04-30T11:01:23.999Z</time></trkpt><trkpt lat="42.45131976276863" lon="12.08166619993243"><ele>313.3333333333333</ele><time>2026-04-30T11:01:24.999Z</time></trkpt><trkpt lat="42.45124826417106" lon="12.081715849920878"><ele>313.66666666666663</ele><time>2026-04-30T11:01:25.999Z</time></trkpt><trkpt lat="42.451175794419775" lon="12.081770008324481"><ele>314.0</ele><time>2026-04-30T11:01:26.999Z</time></trkpt><trkpt lat="42.4511067198194" lon="12.081820329603612"><ele>314.3333333333333</ele><time>2026-04-30T11:01:27.999Z</time></trkpt><trkpt lat="42.45104839878066" lon="12.081863727304404"><ele>314.6666666666667</ele><time>2026-04-30T11:01:28.999Z</time></trkpt><trkpt lat="42.450952667560465" lon="12.081934904681507"><ele>315.0</ele><time>2026-04-30T11:01:30.999Z</time></trkpt><trkpt lat="42.450867441835" lon="12.081995936395836"><ele>315.0</ele><time>2026-04-30T11:01:32.999Z</time></trkpt><trkpt lat="42.450784727421535" lon="12.082055535813101"><ele>315.0</ele><time>2026-04-30T11:01:34.999Z</time></trkpt><trkpt lat="42.45070699616132" lon="12.082120595838328"><ele>315.0</ele><time>2026-04-30T11:01:36.999Z</time></trkpt><trkpt lat="42.4506438270881" lon="12.082166541162051"><ele>315.0</ele><time>2026-04-30T11:01:38.999Z</time></trkpt><trkpt lat="42.45058373140704" lon="12.082223783047507"><ele>315.0</ele><time>2026-04-30T11:01:42.999Z</time></trkpt><trkpt lat="42.45051618520651" lon="12.082270518323178"><ele>315.0</ele><time>2026-04-30T11:01:44.999Z</time></trkpt><trkpt lat="42.45044021583296" lon="12.082307599746954"><ele>315.0</ele><time>2026-04-30T11:01:46.999Z</time></trkpt><trkpt lat="42.450352125854316" lon="12.08238748136703"><ele>315.0</ele><time>2026-04-30T11:01:48.999Z</time></trkpt><trkpt lat="42.45023455201972" lon="12.082478940705421"><ele>315.0</ele><time>2026-04-30T11:01:50.998Z</time></trkpt><trkpt lat="42.45016795529736" lon="12.082530099623702"><ele>315.0</ele><time>2026-04-30T11:01:51.998Z</time></trkpt><trkpt lat="42.450072114606655" lon="12.08258658294774"><ele>315.0</ele><time>2026-04-30T11:01:53.998Z</time></trkpt><trkpt lat="42.449991774177306" lon="12.082650896650653"><ele>315.1666666666667</ele><time>2026-04-30T11:01:56.998Z</time></trkpt><trkpt lat="42.44991929891537" lon="12.082699581162638"><ele>315.3333333333333</ele><time>2026-04-30T11:01:59.998Z</time></trkpt><trkpt lat="42.449846430751045" lon="12.082760440869272"><ele>315.5</ele><time>2026-04-30T11:02:01.998Z</time></trkpt><trkpt lat="42.44977906644837" lon="12.082812463471406"><ele>315.66666666666663</ele><time>2026-04-30T11:02:03.998Z</time></trkpt><trkpt lat="42.44971147025083" lon="12.082861129999946"><ele>315.8333333333333</ele><time>2026-04-30T11:02:05.998Z</time></trkpt><trkpt lat="42.44962020487134" lon="12.082920160119087"><ele>316.0</ele><time>2026-04-30T11:02:07.998Z</time></trkpt><trkpt lat="42.449534215611266" lon="12.083000488216316"><ele>316.0</ele><time>2026-04-30T11:02:09.998Z</time></trkpt><trkpt lat="42.449478365451874" lon="12.083043773214307"><ele>316.0</ele><time>2026-04-30T11:02:10.998Z</time></trkpt><trkpt lat="42.44936837535015" lon="12.08311889213181"><ele>316.0</ele><time>2026-04-30T11:02:12.998Z</time></trkpt><trkpt lat="42.44925528645692" lon="12.08319620376713"><ele>316.0</ele><time>2026-04-30T11:02:14.998Z</time></trkpt><trkpt lat="42.449196151892885" lon="12.083247872408117"><ele>316.0</ele><time>2026-04-30T11:02:15.998Z</time></trkpt><trkpt lat="42.44913563318388" lon="12.08328849215789"><ele>316.00000000000006</ele><time>2026-04-30T11:02:16.998Z</time></trkpt><trkpt lat="42.44907206237544" lon="12.083335199407532"><ele>316.0</ele><time>2026-04-30T11:02:17.998Z</time></trkpt><trkpt lat="42.44900353307408" lon="12.083388326692258"><ele>316.0</ele><time>2026-04-30T11:02:18.998Z</time></trkpt><trkpt lat="42.44893507133776" lon="12.08344150957469"><ele>316.0</ele><time>2026-04-30T11:02:19.998Z</time></trkpt><trkpt lat="42.448873753669076" lon="12.08349016451286"><ele>316.0</ele><time>2026-04-30T11:02:20.998Z</time></trkpt><trkpt lat="42.448811500641305" lon="12.083537449197527"><ele>316.00000000000006</ele><time>2026-04-30T11:02:21.998Z</time></trkpt><trkpt lat="42.448743675649204" lon="12.083584922135683"><ele>316.0</ele><time>2026-04-30T11:02:22.998Z</time></trkpt><trkpt lat="42.448670564183246" lon="12.08363142475163"><ele>316.0</ele><time>2026-04-30T11:02:23.998Z</time></trkpt><trkpt lat="42.4485994586044" lon="12.083681624927838"><ele>316.0</ele><time>2026-04-30T11:02:24.998Z</time></trkpt><trkpt lat="42.44853225714928" lon="12.08373326976323"><ele>316.0</ele><time>2026-04-30T11:02:25.998Z</time></trkpt><trkpt lat="42.44846776863193" lon="12.08378718655012"><ele>316.0</ele><time>2026-04-30T11:02:26.998Z</time></trkpt><trkpt lat="42.44840477008116" lon="12.083840496344473"><ele>316.0</ele><time>2026-04-30T11:02:27.998Z</time></trkpt><trkpt lat="42.44833727264594" lon="12.083885872525567"><ele>316.0</ele><time>2026-04-30T11:02:28.998Z</time></trkpt><trkpt lat="42.44826495645167" lon="12.083929268420865"><ele>316.00000000000006</ele><time>2026-04-30T11:02:29.998Z</time></trkpt><trkpt lat="42.448198093285384" lon="12.083976714620533"><ele>316.0</ele><time>2026-04-30T11:02:30.998Z</time></trkpt><trkpt lat="42.44813407330869" lon="12.084031585390315"><ele>316.0</ele><time>2026-04-30T11:02:32Z</time></trkpt><trkpt lat="42.44807528412478" lon="12.084088556682651"><ele>316.0</ele><time>2026-04-30T11:02:33Z</time></trkpt><trkpt lat="42.44801690261854" lon="12.084142743027504"><ele>316.0</ele><time>2026-04-30T11:02:34Z</time></trkpt><trkpt lat="42.44796028615844" lon="12.084202320996095"><ele>316.00000000000006</ele><time>2026-04-30T11:02:35Z</time></trkpt><trkpt lat="42.447904549967014" lon="12.084254121308946"><ele>316.0</ele><time>2026-04-30T11:02:36Z</time></trkpt><trkpt lat="42.4478505061376" lon="12.084301465427243"><ele>316.00000000000006</ele><time>2026-04-30T11:02:37Z</time></trkpt><trkpt lat="42.447797285502205" lon="12.084350375610917"><ele>316.0</ele><time>2026-04-30T11:02:38Z</time></trkpt><trkpt lat="42.4477412295183" lon="12.084408811930293"><ele>316.0</ele><time>2026-04-30T11:02:39Z</time></trkpt><trkpt lat="42.44767751801933" lon="12.08447061415372"><ele>316.0</ele><time>2026-04-30T11:02:40Z</time></trkpt><trkpt lat="42.447611155874164" lon="12.084534384973898"><ele>316.0</ele><time>2026-04-30T11:02:41Z</time></trkpt><trkpt lat="42.44754833908502" lon="12.084598817956516"><ele>316.00000000000006</ele><time>2026-04-30T11:02:42Z</time></trkpt><trkpt lat="42.44748941414996" lon="12.0846571954841"><ele>316.0</ele><time>2026-04-30T11:02:43Z</time></trkpt><trkpt lat="42.44742836150251" lon="12.08470750550691"><ele>316.0</ele><time>2026-04-30T11:02:44Z</time></trkpt><trkpt lat="42.44736824701426" lon="12.084754887504847"><ele>316.0</ele><time>2026-04-30T11:02:45Z</time></trkpt><trkpt lat="42.4473057936469" lon="12.084802849084513"><ele>316.0</ele><time>2026-04-30T11:02:46Z</time></trkpt><trkpt lat="42.447242573812744" lon="12.084853495048112"><ele>316.0</ele><time>2026-04-30T11:02:47Z</time></trkpt><trkpt lat="42.44717650592229" lon="12.084906044288303"><ele>316.0</ele><time>2026-04-30T11:02:48Z</time></trkpt><trkpt lat="42.44711414315298" lon="12.084956669138274"><ele>316.0</ele><time>2026-04-30T11:02:49Z</time></trkpt><trkpt lat="42.44703392798755" lon="12.085005271152934"><ele>315.66666666666663</ele><time>2026-04-30T11:02:51Z</time></trkpt><trkpt lat="42.44696768695708" lon="12.085079571017664"><ele>315.3333333333333</ele><time>2026-04-30T11:03:06.999Z</time></trkpt><trkpt lat="42.446899750828365" lon="12.08512707561832"><ele>315.0</ele><time>2026-04-30T11:03:07.999Z</time></trkpt><trkpt lat="42.44683426120991" lon="12.085162728242754"><ele>314.6666666666667</ele><time>2026-04-30T11:03:08.999Z</time></trkpt><trkpt lat="42.4467744796623" lon="12.085222191579055"><ele>314.33333333333337</ele><time>2026-04-30T11:03:09.999Z</time></trkpt><trkpt lat="42.44670559430587" lon="12.08528203022903"><ele>314.0</ele><time>2026-04-30T11:03:10.999Z</time></trkpt><trkpt lat="42.44662821648001" lon="12.085317515644705"><ele>314.0</ele><time>2026-04-30T11:03:11.999Z</time></trkpt><trkpt lat="42.44656823802886" lon="12.08538220865399"><ele>314.0</ele><time>2026-04-30T11:03:12.999Z</time></trkpt><trkpt lat="42.44649730039598" lon="12.085423229968436"><ele>314.0</ele><time>2026-04-30T11:03:13.999Z</time></trkpt><trkpt lat="42.44642217173134" lon="12.085460622772189"><ele>314.0</ele><time>2026-04-30T11:03:14.999Z</time></trkpt><trkpt lat="42.44634713475107" lon="12.08549897617462"><ele>314.0</ele><time>2026-04-30T11:03:15.999Z</time></trkpt><trkpt lat="42.44627554150053" lon="12.085541693775667"><ele>314.0</ele><time>2026-04-30T11:03:16.999Z</time></trkpt><trkpt lat="42.44620051031403" lon="12.085585522280773"><ele>313.83333333333337</ele><time>2026-04-30T11:03:17.999Z</time></trkpt><trkpt lat="42.44612637899796" lon="12.085621597900582"><ele>313.6666666666667</ele><time>2026-04-30T11:03:18.999Z</time></trkpt><trkpt lat="42.446049880206786" lon="12.085654864972682"><ele>313.5</ele><time>2026-04-30T11:03:19.999Z</time></trkpt><trkpt lat="42.44596784020698" lon="12.085688113146002"><ele>313.3333333333333</ele><time>2026-04-30T11:03:20.999Z</time></trkpt><trkpt lat="42.4458903222462" lon="12.085724353819582"><ele>313.16666666666663</ele><time>2026-04-30T11:03:21.999Z</time></trkpt><trkpt lat="42.44582471959973" lon="12.085753765479549"><ele>313.0</ele><time>2026-04-30T11:03:22.999Z</time></trkpt><trkpt lat="42.44571304025377" lon="12.085783586601012"><ele>313.0</ele><time>2026-04-30T11:03:24.999Z</time></trkpt><trkpt lat="42.445653041126285" lon="12.085811181678993"><ele>313.0</ele><time>2026-04-30T11:03:26.999Z</time></trkpt><trkpt lat="42.445570661186814" lon="12.085864457054626"><ele>313.0</ele><time>2026-04-30T11:03:29.999Z</time></trkpt><trkpt lat="42.44548718659502" lon="12.085917472283022"><ele>313.0</ele><time>2026-04-30T11:03:31.999Z</time></trkpt><trkpt lat="42.445384006751915" lon="12.085964840720676"><ele>313.0</ele><time>2026-04-30T11:03:33.999Z</time></trkpt><trkpt lat="42.44527163929745" lon="12.08603975101349"><ele>313.1428571428571</ele><time>2026-04-30T11:03:35.999Z</time></trkpt><trkpt lat="42.4452212277976" lon="12.08609888020969"><ele>313.2857142857143</ele><time>2026-04-30T11:03:36.999Z</time></trkpt><trkpt lat="42.44515686536957" lon="12.086118926252261"><ele>313.42857142857144</ele><time>2026-04-30T11:03:37.999Z</time></trkpt><trkpt lat="42.44509530454516" lon="12.086162275449567"><ele>313.57142857142856</ele><time>2026-04-30T11:03:38.999Z</time></trkpt><trkpt lat="42.44502795473814" lon="12.086211813975222"><ele>313.7142857142857</ele><time>2026-04-30T11:03:39.999Z</time></trkpt><trkpt lat="42.444956705122" lon="12.086265367304682"><ele>313.85714285714283</ele><time>2026-04-30T11:03:40.999Z</time></trkpt><trkpt lat="42.444886345442605" lon="12.086319186556654"><ele>314.0</ele><time>2026-04-30T11:03:41.999Z</time></trkpt><trkpt lat="42.444822498461775" lon="12.086370077396884"><ele>313.99999999999994</ele><time>2026-04-30T11:03:42.999Z</time></trkpt><trkpt lat="42.4447610010712" lon="12.086419095404274"><ele>314.0</ele><time>2026-04-30T11:03:43.999Z</time></trkpt><trkpt lat="42.444704048729434" lon="12.086464492220024"><ele>314.0</ele><time>2026-04-30T11:03:44.999Z</time></trkpt><trkpt lat="42.44464569798779" lon="12.086512504547324"><ele>314.0</ele><time>2026-04-30T11:03:45.999Z</time></trkpt><trkpt lat="42.4445851619502" lon="12.086562916818467"><ele>314.0</ele><time>2026-04-30T11:03:46.999Z</time></trkpt><trkpt lat="42.44452017481967" lon="12.086617372484438"><ele>313.99999999999994</ele><time>2026-04-30T11:03:47.999Z</time></trkpt><trkpt lat="42.44445481938428" lon="12.086672849959447"><ele>314.0</ele><time>2026-04-30T11:03:48.999Z</time></trkpt><trkpt lat="42.44438811724565" lon="12.086729470580702"><ele>314.33333333333337</ele><time>2026-04-30T11:03:49.999Z</time></trkpt><trkpt lat="42.44432238309194" lon="12.08678526951412"><ele>314.6666666666667</ele><time>2026-04-30T11:03:50.999Z</time></trkpt><trkpt lat="42.4442548541251" lon="12.086843465229592"><ele>315.0</ele><time>2026-04-30T11:03:51.999Z</time></trkpt><trkpt lat="42.444190001696484" lon="12.08689948331133"><ele>315.3333333333333</ele><time>2026-04-30T11:03:52.999Z</time></trkpt><trkpt lat="42.444137577352855" lon="12.086969736133037"><ele>315.66666666666663</ele><time>2026-04-30T11:03:53.999Z</time></trkpt><trkpt lat="42.44407086596496" lon="12.087018320363576"><ele>316.0</ele><time>2026-04-30T11:03:54.999Z</time></trkpt><trkpt lat="42.44400886114796" lon="12.087069828479594"><ele>316.0</ele><time>2026-04-30T11:03:55.999Z</time></trkpt><trkpt lat="42.443949586149735" lon="12.087124458784247"><ele>316.0</ele><time>2026-04-30T11:03:56.999Z</time></trkpt><trkpt lat="42.44389721641216" lon="12.087175487028057"><ele>316.0</ele><time>2026-04-30T11:03:57.999Z</time></trkpt><trkpt lat="42.44384394225354" lon="12.087221163478095"><ele>316.0</ele><time>2026-04-30T11:03:58.998Z</time></trkpt><trkpt lat="42.44375396756573" lon="12.087305501471812"><ele>316.0</ele><time>2026-04-30T11:04:00.998Z</time></trkpt><trkpt lat="42.44367424507701" lon="12.08738007012602"><ele>316.0</ele><time>2026-04-30T11:04:02.998Z</time></trkpt><trkpt lat="42.44361366034079" lon="12.087439137730437"><ele>316.5</ele><time>2026-04-30T11:04:04.998Z</time></trkpt><trkpt lat="42.44354623830432" lon="12.087502175296146"><ele>317.0</ele><time>2026-04-30T11:04:07.998Z</time></trkpt><trkpt lat="42.44347584631644" lon="12.08756283285034"><ele>317.5</ele><time>2026-04-30T11:04:09.998Z</time></trkpt><trkpt lat="42.44339172055002" lon="12.087641232292707"><ele>318.0</ele><time>2026-04-30T11:04:11.998Z</time></trkpt><trkpt lat="42.443304169671016" lon="12.087728614131292"><ele>318.5</ele><time>2026-04-30T11:04:13.998Z</time></trkpt><trkpt lat="42.4432505609636" lon="12.087782608918502"><ele>319.0</ele><time>2026-04-30T11:04:14.998Z</time></trkpt><trkpt lat="42.44319404369764" lon="12.08783658062953"><ele>319.0</ele><time>2026-04-30T11:04:15.998Z</time></trkpt><trkpt lat="42.44313197880922" lon="12.087889233318771"><ele>319.0</ele><time>2026-04-30T11:04:16.998Z</time></trkpt><trkpt lat="42.44307420091662" lon="12.087935060386268"><ele>319.0</ele><time>2026-04-30T11:04:17.998Z</time></trkpt><trkpt lat="42.44302084265962" lon="12.087981495060781"><ele>319.0</ele><time>2026-04-30T11:04:18.998Z</time></trkpt><trkpt lat="42.442928970925635" lon="12.088075230530237"><ele>319.0</ele><time>2026-04-30T11:04:20.998Z</time></trkpt><trkpt lat="42.44284625834121" lon="12.088135515717937"><ele>319.0</ele><time>2026-04-30T11:04:22.998Z</time></trkpt><trkpt lat="42.442767612880004" lon="12.088193521366067"><ele>318.59999999999997</ele><time>2026-04-30T11:04:24.998Z</time></trkpt><trkpt lat="42.442675659597995" lon="12.088252650900888"><ele>318.2</ele><time>2026-04-30T11:04:26.998Z</time></trkpt><trkpt lat="42.44255205519511" lon="12.088320399794389"><ele>317.79999999999995</ele><time>2026-04-30T11:04:28.998Z</time></trkpt><trkpt lat="42.44247885426832" lon="12.088367046996083"><ele>317.4</ele><time>2026-04-30T11:04:29.998Z</time></trkpt><trkpt lat="42.44241256628924" lon="12.088411758573862"><ele>317.0</ele><time>2026-04-30T11:04:30.998Z</time></trkpt><trkpt lat="42.442339852379725" lon="12.088431092629325"><ele>317.0</ele><time>2026-04-30T11:04:31.998Z</time></trkpt><trkpt lat="42.44227272394735" lon="12.088466789938598"><ele>317.0</ele><time>2026-04-30T11:04:32.998Z</time></trkpt><trkpt lat="42.44220732069575" lon="12.088499526634383"><ele>317.0</ele><time>2026-04-30T11:04:33.998Z</time></trkpt><trkpt lat="42.4421377926746" lon="12.088532614127557"><ele>317.0</ele><time>2026-04-30T11:04:34.998Z</time></trkpt><trkpt lat="42.44207817100081" lon="12.088581590448348"><ele>317.0</ele><time>2026-04-30T11:04:35.998Z</time></trkpt><trkpt lat="42.44201261194349" lon="12.088612464324031"><ele>317.0</ele><time>2026-04-30T11:04:36.998Z</time></trkpt><trkpt lat="42.44194335244097" lon="12.088619924353399"><ele>317.0</ele><time>2026-04-30T11:04:38Z</time></trkpt><trkpt lat="42.44188084406329" lon="12.088643636309136"><ele>316.25</ele><time>2026-04-30T11:04:39Z</time></trkpt><trkpt lat="42.44176364815875" lon="12.088693328326688"><ele>315.5</ele><time>2026-04-30T11:04:41Z</time></trkpt><trkpt lat="42.441651888948144" lon="12.088765904669286"><ele>314.75</ele><time>2026-04-30T11:04:43Z</time></trkpt><trkpt lat="42.44153521588297" lon="12.088802817511468"><ele>314.0</ele><time>2026-04-30T11:04:45Z</time></trkpt><trkpt lat="42.44142466921536" lon="12.088858901265162"><ele>314.0</ele><time>2026-04-30T11:04:47Z</time></trkpt><trkpt lat="42.44132205017056" lon="12.088923084540692"><ele>314.0</ele><time>2026-04-30T11:04:49Z</time></trkpt><trkpt lat="42.441211802189294" lon="12.088970034539898"><ele>314.0</ele><time>2026-04-30T11:04:51Z</time></trkpt><trkpt lat="42.44114868684751" lon="12.088992061245257"><ele>314.0</ele><time>2026-04-30T11:04:52Z</time></trkpt><trkpt lat="42.441080479578375" lon="12.089008758797737"><ele>314.0</ele><time>2026-04-30T11:04:53Z</time></trkpt><trkpt lat="42.44100031776262" lon="12.08902631312118"><ele>314.0</ele><time>2026-04-30T11:04:54Z</time></trkpt><trkpt lat="42.44091790270876" lon="12.089036546318212"><ele>313.71428571428567</ele><time>2026-04-30T11:04:55Z</time></trkpt><trkpt lat="42.440832272464014" lon="12.089041559091248"><ele>313.42857142857144</ele><time>2026-04-30T11:04:56Z</time></trkpt><trkpt lat="42.44075825518354" lon="12.08903141247901"><ele>313.1428571428571</ele><time>2026-04-30T11:04:57Z</time></trkpt><trkpt lat="42.440690885925825" lon="12.089000391836876"><ele>312.85714285714283</ele><time>2026-04-30T11:04:58Z</time></trkpt><trkpt lat="42.44062279056326" lon="12.088952186471893"><ele>312.57142857142856</ele><time>2026-04-30T11:04:59Z</time></trkpt><trkpt lat="42.44056711597231" lon="12.088898245344808"><ele>312.2857142857143</ele><time>2026-04-30T11:05:00Z</time></trkpt><trkpt lat="42.4405013817453" lon="12.088873440904202"><ele>312.0</ele><time>2026-04-30T11:05:01Z</time></trkpt><trkpt lat="42.44043304203822" lon="12.088890428465747"><ele>311.8</ele><time>2026-04-30T11:05:02Z</time></trkpt><trkpt lat="42.440325185890906" lon="12.088982329738213"><ele>311.6</ele><time>2026-04-30T11:05:04Z</time></trkpt><trkpt lat="42.440287121589286" lon="12.089060141405845"><ele>311.40000000000003</ele><time>2026-04-30T11:05:05Z</time></trkpt><trkpt lat="42.44026123766375" lon="12.089147967122663"><ele>311.2</ele><time>2026-04-30T11:05:06Z</time></trkpt><trkpt lat="42.44025415808875" lon="12.0892362103864"><ele>311.0</ele><time>2026-04-30T11:05:07Z</time></trkpt><trkpt lat="42.44025518279725" lon="12.089398872550959"><ele>311.0</ele><time>2026-04-30T11:05:09Z</time></trkpt><trkpt lat="42.44020726601096" lon="12.089562491823571"><ele>311.0</ele><time>2026-04-30T11:05:10.999Z</time></trkpt><trkpt lat="42.440154296917434" lon="12.089647188079166"><ele>311.0</ele><time>2026-04-30T11:05:11.999Z</time></trkpt><trkpt lat="42.44008526684198" lon="12.089741351442262"><ele>311.0</ele><time>2026-04-30T11:05:12.999Z</time></trkpt><trkpt lat="42.44001173209976" lon="12.089850035542725"><ele>311.0</ele><time>2026-04-30T11:05:13.999Z</time></trkpt><trkpt lat="42.43993459612157" lon="12.089973019377592"><ele>311.5</ele><time>2026-04-30T11:05:14.999Z</time></trkpt><trkpt lat="42.43985495675533" lon="12.09010763887395"><ele>312.0</ele><time>2026-04-30T11:05:15.999Z</time></trkpt><trkpt lat="42.439775366773866" lon="12.090239638664247"><ele>312.5</ele><time>2026-04-30T11:05:16.999Z</time></trkpt><trkpt lat="42.439697045821816" lon="12.090371433471116"><ele>313.0</ele><time>2026-04-30T11:05:17.999Z</time></trkpt><trkpt lat="42.439610906913714" lon="12.090513644655681"><ele>314.0</ele><time>2026-04-30T11:05:18.999Z</time></trkpt><trkpt lat="42.43951404481852" lon="12.090635996944007"><ele>315.0</ele><time>2026-04-30T11:05:19.999Z</time></trkpt><trkpt lat="42.43942500193812" lon="12.090774439118167"><ele>316.0</ele><time>2026-04-30T11:05:20.999Z</time></trkpt><trkpt lat="42.43933203540206" lon="12.090921530060992"><ele>317.0</ele><time>2026-04-30T11:05:21.999Z</time></trkpt><trkpt lat="42.43923963927017" lon="12.091079143579552"><ele>318.0</ele><time>2026-04-30T11:05:22.999Z</time></trkpt><trkpt lat="42.43915267367336" lon="12.091238641223882"><ele>319.0</ele><time>2026-04-30T11:05:23.999Z</time></trkpt><trkpt lat="42.439066042939594" lon="12.091409499843794"><ele>320.0</ele><time>2026-04-30T11:05:24.999Z</time></trkpt><trkpt lat="42.438977645115884" lon="12.091586114512298"><ele>319.6666666666667</ele><time>2026-04-30T11:05:25.999Z</time></trkpt><trkpt lat="42.43889030012533" lon="12.09175901465973"><ele>319.3333333333333</ele><time>2026-04-30T11:05:26.999Z</time></trkpt><trkpt lat="42.43880209318122" lon="12.091933424808566"><ele>319.0</ele><time>2026-04-30T11:05:27.999Z</time></trkpt><trkpt lat="42.43871271412304" lon="12.09210474496114"><ele>319.75</ele><time>2026-04-30T11:05:28.999Z</time></trkpt><trkpt lat="42.43862139926213" lon="12.092269877750928"><ele>320.5</ele><time>2026-04-30T11:05:29.999Z</time></trkpt><trkpt lat="42.438532776229465" lon="12.09241743333269"><ele>321.25</ele><time>2026-04-30T11:05:30.999Z</time></trkpt><trkpt lat="42.438444559095174" lon="12.092558027523676"><ele>322.0</ele><time>2026-04-30T11:05:31.999Z</time></trkpt><trkpt lat="42.43836349078007" lon="12.092734815239723"><ele>323.0</ele><time>2026-04-30T11:05:32.999Z</time></trkpt><trkpt lat="42.43824428393962" lon="12.092881632296164"><ele>324.0</ele><time>2026-04-30T11:05:33.999Z</time></trkpt><trkpt lat="42.43813956673694" lon="12.093029312239766"><ele>325.0</ele><time>2026-04-30T11:05:34.999Z</time></trkpt><trkpt lat="42.43804230673615" lon="12.093195316055882"><ele>324.3333333333333</ele><time>2026-04-30T11:05:35.999Z</time></trkpt><trkpt lat="42.437932416678834" lon="12.093336695959062"><ele>323.6666666666667</ele><time>2026-04-30T11:05:36.999Z</time></trkpt><trkpt lat="42.43781927962967" lon="12.093476336968996"><ele>323.0</ele><time>2026-04-30T11:05:37.999Z</time></trkpt><trkpt lat="42.4377040541783" lon="12.093612987916948"><ele>323.0</ele><time>2026-04-30T11:05:38.999Z</time></trkpt><trkpt lat="42.43758565922214" lon="12.093741693844828"><ele>323.0</ele><time>2026-04-30T11:05:39.999Z</time></trkpt><trkpt lat="42.437463840433715" lon="12.09386050009387"><ele>323.0</ele><time>2026-04-30T11:05:40.999Z</time></trkpt><trkpt lat="42.43733877314424" lon="12.093970925201365"><ele>323.0</ele><time>2026-04-30T11:05:41.999Z</time></trkpt><trkpt lat="42.43721395191389" lon="12.094072141529997"><ele>323.0</ele><time>2026-04-30T11:05:42.999Z</time></trkpt><trkpt lat="42.43708668004255" lon="12.094156927023636"><ele>323.0</ele><time>2026-04-30T11:05:43.999Z</time></trkpt><trkpt lat="42.436947824694386" lon="12.094230943449665"><ele>323.0</ele><time>2026-04-30T11:05:44.999Z</time></trkpt><trkpt lat="42.43679829571342" lon="12.09430061415374"><ele>323.0</ele><time>2026-04-30T11:05:45.999Z</time></trkpt><trkpt lat="42.43663935505665" lon="12.094358146922039"><ele>323.0</ele><time>2026-04-30T11:05:46.999Z</time></trkpt><trkpt lat="42.43647473559779" lon="12.094409113909341"><ele>323.0</ele><time>2026-04-30T11:05:47.999Z</time></trkpt><trkpt lat="42.436301352106774" lon="12.09445630773778"><ele>323.6666666666667</ele><time>2026-04-30T11:05:48.999Z</time></trkpt><trkpt lat="42.43612313560118" lon="12.094492025835956"><ele>324.3333333333333</ele><time>2026-04-30T11:05:49.999Z</time></trkpt><trkpt lat="42.43594129654888" lon="12.09451560257518"><ele>325.0</ele><time>2026-04-30T11:05:50.999Z</time></trkpt><trkpt lat="42.43575725837431" lon="12.094538826773555"><ele>325.0</ele><time>2026-04-30T11:05:51.999Z</time></trkpt><trkpt lat="42.435572699433926" lon="12.094570632012918"><ele>325.0</ele><time>2026-04-30T11:05:52.999Z</time></trkpt><trkpt lat="42.43538394034036" lon="12.094610262264348"><ele>325.0</ele><time>2026-04-30T11:05:53.999Z</time></trkpt><trkpt lat="42.43520312326023" lon="12.094654132816476"><ele>324.66666666666663</ele><time>2026-04-30T11:05:54.999Z</time></trkpt><trkpt lat="42.43502994197729" lon="12.09470537576791"><ele>324.3333333333333</ele><time>2026-04-30T11:05:55.999Z</time></trkpt><trkpt lat="42.43486501567886" lon="12.094752242249315"><ele>324.0</ele><time>2026-04-30T11:05:56.999Z</time></trkpt><trkpt lat="42.434713871582666" lon="12.094791435120193"><ele>324.25</ele><time>2026-04-30T11:05:57.999Z</time></trkpt><trkpt lat="42.43457352126507" lon="12.094829618233984"><ele>324.5</ele><time>2026-04-30T11:05:58.999Z</time></trkpt><trkpt lat="42.43444509495381" lon="12.094874648173173"><ele>324.75</ele><time>2026-04-30T11:05:59.999Z</time></trkpt><trkpt lat="42.43432284909755" lon="12.094935966422554"><ele>325.0</ele><time>2026-04-30T11:06:00.999Z</time></trkpt><trkpt lat="42.434206536345215" lon="12.095013628141727"><ele>325.0</ele><time>2026-04-30T11:06:01.999Z</time></trkpt><trkpt lat="42.4340927607466" lon="12.095097404456322"><ele>325.0</ele><time>2026-04-30T11:06:02.999Z</time></trkpt><trkpt lat="42.43398636722752" lon="12.095164635207178"><ele>325.0</ele><time>2026-04-30T11:06:03.999Z</time></trkpt><trkpt lat="42.43389761330707" lon="12.095213387062286"><ele>325.0</ele><time>2026-04-30T11:06:04.999Z</time></trkpt><trkpt lat="42.43383297600908" lon="12.095248730449956"><ele>325.0</ele><time>2026-04-30T11:06:05.999Z</time></trkpt><trkpt lat="42.4337555936977" lon="12.09529443162981"><ele>324.3333333333333</ele><time>2026-04-30T11:06:07.998Z</time></trkpt><trkpt lat="42.43367216425805" lon="12.095342467725786"><ele>323.66666666666663</ele><time>2026-04-30T11:06:10.998Z</time></trkpt><trkpt lat="42.43360592128006" lon="12.09537490548496"><ele>323.0</ele><time>2026-04-30T11:06:13.998Z</time></trkpt><trkpt lat="42.433537448829405" lon="12.09540911170612"><ele>322.3333333333333</ele><time>2026-04-30T11:06:16.998Z</time></trkpt><trkpt lat="42.43347044023907" lon="12.095440922700373"><ele>321.6666666666667</ele><time>2026-04-30T11:06:18.998Z</time></trkpt><trkpt lat="42.433390592296064" lon="12.095473299554326"><ele>321.0</ele><time>2026-04-30T11:06:20.998Z</time></trkpt><trkpt lat="42.433278843806704" lon="12.095480903817451"><ele>321.0</ele><time>2026-04-30T11:06:22.998Z</time></trkpt><trkpt lat="42.43316711552354" lon="12.095471376743642"><ele>321.0</ele><time>2026-04-30T11:06:24.998Z</time></trkpt><trkpt lat="42.43307474344658" lon="12.095527372843106"><ele>321.0</ele><time>2026-04-30T11:06:26.998Z</time></trkpt><trkpt lat="42.43301304851189" lon="12.09562641367819"><ele>321.0</ele><time>2026-04-30T11:06:28.998Z</time></trkpt><trkpt lat="42.43295799121438" lon="12.095708431327019"><ele>321.0</ele><time>2026-04-30T11:06:30.998Z</time></trkpt><trkpt lat="42.432875007149065" lon="12.09577742511853"><ele>321.3333333333333</ele><time>2026-04-30T11:06:32.998Z</time></trkpt><trkpt lat="42.43275882758326" lon="12.09583049052831"><ele>321.6666666666667</ele><time>2026-04-30T11:06:34.998Z</time></trkpt><trkpt lat="42.43268531073452" lon="12.095854857112338"><ele>322.0</ele><time>2026-04-30T11:06:35.998Z</time></trkpt><trkpt lat="42.43258692438368" lon="12.095880657691408"><ele>322.33333333333337</ele><time>2026-04-30T11:06:37.998Z</time></trkpt><trkpt lat="42.43252233362512" lon="12.095892646084806"><ele>322.6666666666667</ele><time>2026-04-30T11:06:42.998Z</time></trkpt><trkpt lat="42.432446488138346" lon="12.095912973973368"><ele>323.0</ele><time>2026-04-30T11:06:45Z</time></trkpt><trkpt lat="42.432331770912974" lon="12.095944299216516"><ele>323.0</ele><time>2026-04-30T11:06:47Z</time></trkpt><trkpt lat="42.43221028656274" lon="12.09597334972742"><ele>323.0</ele><time>2026-04-30T11:06:49Z</time></trkpt><trkpt lat="42.432098699763145" lon="12.095995324658766"><ele>323.0</ele><time>2026-04-30T11:06:51Z</time></trkpt><trkpt lat="42.43198100980443" lon="12.096015136626368"><ele>323.0</ele><time>2026-04-30T11:06:53Z</time></trkpt><trkpt lat="42.43185311224104" lon="12.096035546921879"><ele>323.14285714285717</ele><time>2026-04-30T11:06:55Z</time></trkpt><trkpt lat="42.43178404357649" lon="12.096051670245732"><ele>323.2857142857143</ele><time>2026-04-30T11:06:56Z</time></trkpt><trkpt lat="42.431711063205334" lon="12.096069175398563"><ele>323.42857142857144</ele><time>2026-04-30T11:06:57Z</time></trkpt><trkpt lat="42.431637656637186" lon="12.096079227715936"><ele>323.57142857142856</ele><time>2026-04-30T11:06:58Z</time></trkpt><trkpt lat="42.43156776424417" lon="12.0960906999321"><ele>323.7142857142857</ele><time>2026-04-30T11:06:59Z</time></trkpt><trkpt lat="42.43149629127141" lon="12.096102079227627"><ele>323.8571428571429</ele><time>2026-04-30T11:07:00Z</time></trkpt><trkpt lat="42.43142057799844" lon="12.096113144850966"><ele>324.0</ele><time>2026-04-30T11:07:01Z</time></trkpt><trkpt lat="42.43134098709594" lon="12.096128130190651"><ele>324.1666666666667</ele><time>2026-04-30T11:07:02Z</time></trkpt><trkpt lat="42.43125505812287" lon="12.096141139196884"><ele>324.3333333333333</ele><time>2026-04-30T11:07:03Z</time></trkpt><trkpt lat="42.43116679919609" lon="12.096157943614818"><ele>324.5</ele><time>2026-04-30T11:07:04Z</time></trkpt><trkpt lat="42.43107941532992" lon="12.096174470218847"><ele>324.66666666666663</ele><time>2026-04-30T11:07:05Z</time></trkpt><trkpt lat="42.43099261110138" lon="12.096191363201712"><ele>324.8333333333333</ele><time>2026-04-30T11:07:06Z</time></trkpt><trkpt lat="42.430905864374466" lon="12.096208803890187"><ele>325.0</ele><time>2026-04-30T11:07:07Z</time></trkpt><trkpt lat="42.43081619581699" lon="12.096227083543123"><ele>325.0</ele><time>2026-04-30T11:07:08Z</time></trkpt><trkpt lat="42.430727512751034" lon="12.096248149829641"><ele>325.0</ele><time>2026-04-30T11:07:09Z</time></trkpt><trkpt lat="42.430638661937216" lon="12.096272126586493"><ele>325.0</ele><time>2026-04-30T11:07:10Z</time></trkpt><trkpt lat="42.43055298107452" lon="12.09629324411459"><ele>325.0</ele><time>2026-04-30T11:07:11Z</time></trkpt><trkpt lat="42.43047255148824" lon="12.096313252879092"><ele>325.0</ele><time>2026-04-30T11:07:12Z</time></trkpt><trkpt lat="42.43039819233045" lon="12.096335740327198"><ele>325.0</ele><time>2026-04-30T11:07:13Z</time></trkpt><trkpt lat="42.43032664737837" lon="12.096359290265465"><ele>325.0</ele><time>2026-04-30T11:07:14Z</time></trkpt><trkpt lat="42.43025996617959" lon="12.096384957675216"><ele>325.0</ele><time>2026-04-30T11:07:15Z</time></trkpt><trkpt lat="42.43019074838218" lon="12.09640419308413"><ele>325.0</ele><time>2026-04-30T11:07:16Z</time></trkpt><trkpt lat="42.430123593933324" lon="12.096422594976145"><ele>325.0</ele><time>2026-04-30T11:07:17Z</time></trkpt><trkpt lat="42.43005598464182" lon="12.096443569478176"><ele>325.0</ele><time>2026-04-30T11:07:18Z</time></trkpt><trkpt lat="42.429984261865876" lon="12.096454664558872"><ele>325.0</ele><time>2026-04-30T11:07:18.999Z</time></trkpt><trkpt lat="42.429912435083935" lon="12.096444770666073"><ele>325.0</ele><time>2026-04-30T11:07:19.999Z</time></trkpt><trkpt lat="42.42985360749564" lon="12.096392413042306"><ele>325.0</ele><time>2026-04-30T11:07:20.999Z</time></trkpt><trkpt lat="42.42980605274036" lon="12.096331841934084"><ele>325.0</ele><time>2026-04-30T11:07:21.999Z</time></trkpt><trkpt lat="42.429732388591354" lon="12.096224258414104"><ele>325.0</ele><time>2026-04-30T11:07:23.999Z</time></trkpt><trkpt lat="42.429693110391995" lon="12.096141392962949"><ele>325.0</ele><time>2026-04-30T11:07:24.999Z</time></trkpt><trkpt lat="42.42964861463428" lon="12.096049058180284"><ele>325.0</ele><time>2026-04-30T11:07:25.999Z</time></trkpt><trkpt lat="42.42960761767994" lon="12.095943866355508"><ele>325.0</ele><time>2026-04-30T11:07:26.999Z</time></trkpt><trkpt lat="42.4295727978604" lon="12.095836181499218"><ele>324.66666666666663</ele><time>2026-04-30T11:07:27.999Z</time></trkpt><trkpt lat="42.429535623786414" lon="12.095735826572529"><ele>324.3333333333333</ele><time>2026-04-30T11:07:28.999Z</time></trkpt><trkpt lat="42.42948993574814" lon="12.095629129206923"><ele>324.0</ele><time>2026-04-30T11:07:29.999Z</time></trkpt><trkpt lat="42.429433989999964" lon="12.09553799738387"><ele>323.6666666666667</ele><time>2026-04-30T11:07:30.999Z</time></trkpt><trkpt lat="42.429373889883564" lon="12.095474161631207"><ele>323.33333333333337</ele><time>2026-04-30T11:07:31.999Z</time></trkpt><trkpt lat="42.42930131924976" lon="12.095438271442704"><ele>323.0</ele><time>2026-04-30T11:07:32.999Z</time></trkpt><trkpt lat="42.42922824498135" lon="12.095426788586604"><ele>323.0</ele><time>2026-04-30T11:07:33.999Z</time></trkpt><trkpt lat="42.429157132783054" lon="12.095440619255468"><ele>323.0</ele><time>2026-04-30T11:07:34.999Z</time></trkpt><trkpt lat="42.42908669134591" lon="12.095476713408452"><ele>323.0</ele><time>2026-04-30T11:07:35.999Z</time></trkpt><trkpt lat="42.42902047592672" lon="12.095536851327644"><ele>323.0</ele><time>2026-04-30T11:07:36.999Z</time></trkpt><trkpt lat="42.42896117312208" lon="12.09562392869967"><ele>323.0</ele><time>2026-04-30T11:07:37.999Z</time></trkpt><trkpt lat="42.428909584493276" lon="12.095719396802412"><ele>323.0</ele><time>2026-04-30T11:07:38.999Z</time></trkpt><trkpt lat="42.428867234531985" lon="12.095815977047138"><ele>323.0</ele><time>2026-04-30T11:07:39.999Z</time></trkpt><trkpt lat="42.42882495169795" lon="12.095918868923423"><ele>323.0</ele><time>2026-04-30T11:07:40.999Z</time></trkpt><trkpt lat="42.428776790213405" lon="12.096018904856363"><ele>323.0</ele><time>2026-04-30T11:07:41.999Z</time></trkpt><trkpt lat="42.428731703632565" lon="12.096114483050203"><ele>323.0</ele><time>2026-04-30T11:07:42.999Z</time></trkpt><trkpt lat="42.428690255794045" lon="12.096209525315233"><ele>323.0</ele><time>2026-04-30T11:07:43.999Z</time></trkpt><trkpt lat="42.428652398574485" lon="12.096301698690107"><ele>323.0</ele><time>2026-04-30T11:07:44.999Z</time></trkpt><trkpt lat="42.42860691529537" lon="12.096389311021671"><ele>323.0</ele><time>2026-04-30T11:07:45.999Z</time></trkpt><trkpt lat="42.428560722179164" lon="12.096478540318827"><ele>323.0</ele><time>2026-04-30T11:07:46.999Z</time></trkpt><trkpt lat="42.42851112411111" lon="12.09658236874102"><ele>323.0</ele><time>2026-04-30T11:07:47.999Z</time></trkpt><trkpt lat="42.428462963724954" lon="12.096690660030285"><ele>323.0</ele><time>2026-04-30T11:07:48.999Z</time></trkpt><trkpt lat="42.42841473616794" lon="12.096794689204337"><ele>323.0</ele><time>2026-04-30T11:07:49.999Z</time></trkpt><trkpt lat="42.42836809654895" lon="12.096900794383451"><ele>323.0</ele><time>2026-04-30T11:07:50.999Z</time></trkpt><trkpt lat="42.428322973621064" lon="12.097018257299858"><ele>322.59999999999997</ele><time>2026-04-30T11:07:51.999Z</time></trkpt><trkpt lat="42.42827336489569" lon="12.097144724582687"><ele>322.2</ele><time>2026-04-30T11:07:52.999Z</time></trkpt><trkpt lat="42.42821663158366" lon="12.097275751009631"><ele>321.8</ele><time>2026-04-30T11:07:53.999Z</time></trkpt><trkpt lat="42.42815962471733" lon="12.097407140543083"><ele>321.4</ele><time>2026-04-30T11:07:54.999Z</time></trkpt><trkpt lat="42.42810388844099" lon="12.097535343320244"><ele>321.0</ele><time>2026-04-30T11:07:55.999Z</time></trkpt><trkpt lat="42.42804548955236" lon="12.097658638293971"><ele>321.0</ele><time>2026-04-30T11:07:56.999Z</time></trkpt><trkpt lat="42.427977681054344" lon="12.097774038608065"><ele>321.0</ele><time>2026-04-30T11:07:57.999Z</time></trkpt><trkpt lat="42.427913386236675" lon="12.097881708640907"><ele>321.0</ele><time>2026-04-30T11:07:58.999Z</time></trkpt><trkpt lat="42.42783979160386" lon="12.097982707695309"><ele>321.0</ele><time>2026-04-30T11:07:59.999Z</time></trkpt><trkpt lat="42.42775721095826" lon="12.098080234790565"><ele>321.0</ele><time>2026-04-30T11:08:00.999Z</time></trkpt><trkpt lat="42.42766759973968" lon="12.098174238378972"><ele>321.20000000000005</ele><time>2026-04-30T11:08:01.999Z</time></trkpt><trkpt lat="42.4275778439947" lon="12.098265254316523"><ele>321.40000000000003</ele><time>2026-04-30T11:08:02.999Z</time></trkpt><trkpt lat="42.42747620658065" lon="12.098331314713482"><ele>321.6</ele><time>2026-04-30T11:08:03.999Z</time></trkpt><trkpt lat="42.42740280362987" lon="12.09844322852764"><ele>321.8</ele><time>2026-04-30T11:08:04.999Z</time></trkpt><trkpt lat="42.42732412379933" lon="12.098512774272747"><ele>322.0</ele><time>2026-04-30T11:08:05.999Z</time></trkpt><trkpt lat="42.427256441263566" lon="12.098563550984437"><ele>322.0</ele><time>2026-04-30T11:08:06.999Z</time></trkpt><trkpt lat="42.42715880204774" lon="12.098606773483207"><ele>322.0</ele><time>2026-04-30T11:08:08.999Z</time></trkpt><trkpt lat="42.427074852000445" lon="12.09859147546067"><ele>322.0</ele><time>2026-04-30T11:08:11.999Z</time></trkpt><trkpt lat="42.42697788344559" lon="12.098518134847984"><ele>322.0</ele><time>2026-04-30T11:08:13.999Z</time></trkpt><trkpt lat="42.42685874648467" lon="12.098454441496026"><ele>322.0</ele><time>2026-04-30T11:08:15.998Z</time></trkpt><trkpt lat="42.426795474603736" lon="12.098446685998159"><ele>321.66666666666663</ele><time>2026-04-30T11:08:16.998Z</time></trkpt><trkpt lat="42.42673226901868" lon="12.098465109186492"><ele>321.3333333333333</ele><time>2026-04-30T11:08:17.998Z</time></trkpt><trkpt lat="42.4266680578423" lon="12.098517712461023"><ele>321.0</ele><time>2026-04-30T11:08:18.998Z</time></trkpt><trkpt lat="42.426600262614" lon="12.098600415230388"><ele>320.6666666666667</ele><time>2026-04-30T11:08:19.998Z</time></trkpt><trkpt lat="42.426546989150935" lon="12.098697684111576"><ele>320.33333333333337</ele><time>2026-04-30T11:08:20.998Z</time></trkpt><trkpt lat="42.426524228564176" lon="12.098804570075899"><ele>320.0</ele><time>2026-04-30T11:08:21.998Z</time></trkpt><trkpt lat="42.426545245528814" lon="12.098913341998594"><ele>320.0</ele><time>2026-04-30T11:08:22.998Z</time></trkpt><trkpt lat="42.426594911836986" lon="12.098998769007194"><ele>320.0</ele><time>2026-04-30T11:08:23.998Z</time></trkpt><trkpt lat="42.42663913400302" lon="12.099061714461811"><ele>320.0</ele><time>2026-04-30T11:08:24.998Z</time></trkpt><trkpt lat="42.426735758204" lon="12.09913213323191"><ele>320.0</ele><time>2026-04-30T11:08:26.998Z</time></trkpt><trkpt lat="42.42686258644805" lon="12.099128474056938"><ele>320.0</ele><time>2026-04-30T11:08:28.998Z</time></trkpt><trkpt lat="42.42693227583029" lon="12.09908569598696"><ele>320.0</ele><time>2026-04-30T11:08:29.998Z</time></trkpt><trkpt lat="42.4269957170114" lon="12.099018815315786"><ele>320.0</ele><time>2026-04-30T11:08:30.998Z</time></trkpt><trkpt lat="42.42702993642756" lon="12.098938970408797"><ele>320.0</ele><time>2026-04-30T11:08:31.998Z</time></trkpt><trkpt lat="42.42706038453764" lon="12.098860754990886"><ele>320.0</ele><time>2026-04-30T11:08:32.998Z</time></trkpt><trkpt lat="42.42704430662322" lon="12.098650070893443"><ele>320.0</ele><time>2026-04-30T11:08:34.998Z</time></trkpt><trkpt lat="42.426968447073975" lon="12.098558376231813"><ele>320.0</ele><time>2026-04-30T11:08:35.998Z</time></trkpt><trkpt lat="42.42691409542551" lon="12.098507170352502"><ele>320.0</ele><time>2026-04-30T11:08:36.998Z</time></trkpt><trkpt lat="42.426798384514434" lon="12.098474551464465"><ele>320.0</ele><time>2026-04-30T11:08:38.998Z</time></trkpt><trkpt lat="42.426725932243784" lon="12.09850556396123"><ele>320.0</ele><time>2026-04-30T11:08:39.998Z</time></trkpt><trkpt lat="42.42665805820011" lon="12.098563610796944"><ele>320.0</ele><time>2026-04-30T11:08:40.998Z</time></trkpt><trkpt lat="42.426599833658244" lon="12.098641188725356"><ele>320.0</ele><time>2026-04-30T11:08:41.998Z</time></trkpt><trkpt lat="42.42655768334897" lon="12.098731311970157"><ele>320.0</ele><time>2026-04-30T11:08:42.998Z</time></trkpt><trkpt lat="42.42652116905837" lon="12.0988225186896"><ele>320.0</ele><time>2026-04-30T11:08:43.998Z</time></trkpt><trkpt lat="42.42647862447087" lon="12.098900876077142"><ele>320.0</ele><time>2026-04-30T11:08:44.998Z</time></trkpt><trkpt lat="42.426418244785346" lon="12.09895340149086"><ele>320.0</ele><time>2026-04-30T11:08:45.998Z</time></trkpt><trkpt lat="42.426341976010455" lon="12.098985759177435"><ele>320.0</ele><time>2026-04-30T11:08:46.998Z</time></trkpt><trkpt lat="42.42625300349624" lon="12.099023210795625"><ele>320.0</ele><time>2026-04-30T11:08:47.998Z</time></trkpt><trkpt lat="42.42615399812858" lon="12.09906535460742"><ele>321.0</ele><time>2026-04-30T11:08:48.998Z</time></trkpt><trkpt lat="42.42605015304175" lon="12.099119587700342"><ele>322.0</ele><time>2026-04-30T11:08:50Z</time></trkpt><trkpt lat="42.42594053521752" lon="12.099175523411594"><ele>323.0</ele><time>2026-04-30T11:08:51Z</time></trkpt><trkpt lat="42.42582599597292" lon="12.09922194833971"><ele>324.0</ele><time>2026-04-30T11:08:52Z</time></trkpt><trkpt lat="42.42570903257646" lon="12.099264053973686"><ele>324.0</ele><time>2026-04-30T11:08:53Z</time></trkpt><trkpt lat="42.42559068365573" lon="12.099310978509866"><ele>324.0</ele><time>2026-04-30T11:08:54Z</time></trkpt><trkpt lat="42.42547214719173" lon="12.09936280165651"><ele>324.0</ele><time>2026-04-30T11:08:55Z</time></trkpt><trkpt lat="42.42535732739876" lon="12.099423509005314"><ele>324.0</ele><time>2026-04-30T11:08:56Z</time></trkpt><trkpt lat="42.425243948085864" lon="12.099498651634663"><ele>325.75</ele><time>2026-04-30T11:08:57Z</time></trkpt><trkpt lat="42.425137113282794" lon="12.09959574137506"><ele>327.5</ele><time>2026-04-30T11:08:58Z</time></trkpt><trkpt lat="42.42503625083799" lon="12.099718166190096"><ele>329.25</ele><time>2026-04-30T11:08:59Z</time></trkpt><trkpt lat="42.42494587907651" lon="12.0998524251214"><ele>331.0</ele><time>2026-04-30T11:09:00Z</time></trkpt><trkpt lat="42.42486489978481" lon="12.099990976067108"><ele>331.0</ele><time>2026-04-30T11:09:01Z</time></trkpt><trkpt lat="42.42479113325985" lon="12.100128896262909"><ele>331.0</ele><time>2026-04-30T11:09:02Z</time></trkpt><trkpt lat="42.42472010234977" lon="12.100262396659971"><ele>331.0</ele><time>2026-04-30T11:09:03Z</time></trkpt><trkpt lat="42.42464959789688" lon="12.100393877668278"><ele>331.0</ele><time>2026-04-30T11:09:04Z</time></trkpt><trkpt lat="42.424582353001284" lon="12.100525879391364"><ele>331.0</ele><time>2026-04-30T11:09:05Z</time></trkpt><trkpt lat="42.42451799276699" lon="12.10065503585325"><ele>331.0</ele><time>2026-04-30T11:09:06Z</time></trkpt><trkpt lat="42.424460241640396" lon="12.100784263083654"><ele>331.0</ele><time>2026-04-30T11:09:07Z</time></trkpt><trkpt lat="42.424398826910284" lon="12.10091079409376"><ele>331.0</ele><time>2026-04-30T11:09:08Z</time></trkpt><trkpt lat="42.42434083683729" lon="12.10103907877385"><ele>331.0</ele><time>2026-04-30T11:09:09Z</time></trkpt><trkpt lat="42.42428526634039" lon="12.101166336472241"><ele>331.20000000000005</ele><time>2026-04-30T11:09:10Z</time></trkpt><trkpt lat="42.424226675470585" lon="12.101286432427946"><ele>331.40000000000003</ele><time>2026-04-30T11:09:11Z</time></trkpt><trkpt lat="42.424168316664876" lon="12.101413547128143"><ele>331.6</ele><time>2026-04-30T11:09:12Z</time></trkpt><trkpt lat="42.42410692714901" lon="12.101541256376137"><ele>331.8</ele><time>2026-04-30T11:09:13Z</time></trkpt><trkpt lat="42.42404671100353" lon="12.101661335373247"><ele>332.0</ele><time>2026-04-30T11:09:14Z</time></trkpt><trkpt lat="42.42398441422488" lon="12.101778906756582"><ele>332.0</ele><time>2026-04-30T11:09:15Z</time></trkpt><trkpt lat="42.42392172330272" lon="12.101898388141858"><ele>332.0</ele><time>2026-04-30T11:09:16Z</time></trkpt><trkpt lat="42.423861691242564" lon="12.10201765658106"><ele>332.0</ele><time>2026-04-30T11:09:17Z</time></trkpt><trkpt lat="42.42380361678682" lon="12.102139771996374"><ele>332.0</ele><time>2026-04-30T11:09:18Z</time></trkpt><trkpt lat="42.42374888492009" lon="12.102256029943591"><ele>332.0</ele><time>2026-04-30T11:09:19Z</time></trkpt><trkpt lat="42.423699795147485" lon="12.102365461579641"><ele>333.0</ele><time>2026-04-30T11:09:20Z</time></trkpt><trkpt lat="42.423655715476734" lon="12.102464908514659"><ele>334.0</ele><time>2026-04-30T11:09:21Z</time></trkpt><trkpt lat="42.42361230438074" lon="12.10255509049318"><ele>335.0</ele><time>2026-04-30T11:09:22Z</time></trkpt><trkpt lat="42.42357176069674" lon="12.102644619209649"><ele>336.0</ele><time>2026-04-30T11:09:23Z</time></trkpt><trkpt lat="42.42353132018365" lon="12.102729170214777"><ele>337.0</ele><time>2026-04-30T11:09:24Z</time></trkpt><trkpt lat="42.42349655477442" lon="12.102809839206737"><ele>338.0</ele><time>2026-04-30T11:09:25Z</time></trkpt><trkpt lat="42.42346224553193" lon="12.10288403395428"><ele>338.0</ele><time>2026-04-30T11:09:25.999Z</time></trkpt><trkpt lat="42.42339608130193" lon="12.103017021541525"><ele>338.0</ele><time>2026-04-30T11:09:27.999Z</time></trkpt><trkpt lat="42.42333524629349" lon="12.103138688556598"><ele>338.0</ele><time>2026-04-30T11:09:29.999Z</time></trkpt><trkpt lat="42.42328016818366" lon="12.103245409927707"><ele>338.0</ele><time>2026-04-30T11:09:31.999Z</time></trkpt><trkpt lat="42.423223844143806" lon="12.10336649742848"><ele>338.0</ele><time>2026-04-30T11:09:33.999Z</time></trkpt><trkpt lat="42.42316263462279" lon="12.103510232697476"><ele>338.33333333333337</ele><time>2026-04-30T11:09:35.999Z</time></trkpt><trkpt lat="42.42312441648083" lon="12.103588864300155"><ele>338.6666666666667</ele><time>2026-04-30T11:09:36.999Z</time></trkpt><trkpt lat="42.42308900079498" lon="12.103667318162026"><ele>339.0</ele><time>2026-04-30T11:09:37.999Z</time></trkpt><trkpt lat="42.42304718695514" lon="12.103756125002578"><ele>339.3333333333333</ele><time>2026-04-30T11:09:38.999Z</time></trkpt><trkpt lat="42.42300866616116" lon="12.103838224898881"><ele>339.66666666666663</ele><time>2026-04-30T11:09:39.999Z</time></trkpt><trkpt lat="42.422970386553736" lon="12.103911099343552"><ele>340.0</ele><time>2026-04-30T11:09:40.999Z</time></trkpt><trkpt lat="42.422902569595955" lon="12.104029508218957"><ele>340.25</ele><time>2026-04-30T11:09:42.999Z</time></trkpt><trkpt lat="42.42283609862657" lon="12.104152717176962"><ele>340.5</ele><time>2026-04-30T11:09:44.999Z</time></trkpt><trkpt lat="42.42277401503148" lon="12.104295289191286"><ele>340.75</ele><time>2026-04-30T11:09:46.999Z</time></trkpt><trkpt lat="42.42271846515338" lon="12.104441737497963"><ele>341.0</ele><time>2026-04-30T11:09:48.999Z</time></trkpt><trkpt lat="42.422674294523944" lon="12.104587261235393"><ele>341.0</ele><time>2026-04-30T11:09:50.999Z</time></trkpt><trkpt lat="42.42264512250974" lon="12.10473951480623"><ele>341.0</ele><time>2026-04-30T11:09:52.999Z</time></trkpt><trkpt lat="42.42260369381735" lon="12.10486301775025"><ele>341.0</ele><time>2026-04-30T11:09:54.999Z</time></trkpt><trkpt lat="42.42260983016461" lon="12.104952631646544"><ele>341.0</ele><time>2026-04-30T11:09:55.999Z</time></trkpt><trkpt lat="42.42264809897665" lon="12.105035166596174"><ele>341.0</ele><time>2026-04-30T11:09:57.999Z</time></trkpt><trkpt lat="42.42268065489109" lon="12.1051282463963"><ele>341.0</ele><time>2026-04-30T11:09:59.999Z</time></trkpt><trkpt lat="42.42269648874651" lon="12.105232573620949"><ele>341.33333333333337</ele><time>2026-04-30T11:10:01.999Z</time></trkpt><trkpt lat="42.422692254992675" lon="12.105334053796268"><ele>341.6666666666667</ele><time>2026-04-30T11:10:03.999Z</time></trkpt><trkpt lat="42.422714439155015" lon="12.105455492906138"><ele>342.0</ele><time>2026-04-30T11:10:05.999Z</time></trkpt><trkpt lat="42.42275075666406" lon="12.105625466992192"><ele>342.3333333333333</ele><time>2026-04-30T11:10:07.999Z</time></trkpt><trkpt lat="42.42277540029563" lon="12.105715151109571"><ele>342.66666666666663</ele><time>2026-04-30T11:10:08.999Z</time></trkpt><trkpt lat="42.42279913985607" lon="12.105800603509847"><ele>343.0</ele><time>2026-04-30T11:10:09.999Z</time></trkpt><trkpt lat="42.42281980141716" lon="12.105883830068308"><ele>343.4</ele><time>2026-04-30T11:10:10.999Z</time></trkpt><trkpt lat="42.42284887174395" lon="12.106043729889906"><ele>343.79999999999995</ele><time>2026-04-30T11:10:12.999Z</time></trkpt><trkpt lat="42.422864078230354" lon="12.106158450962479"><ele>344.2</ele><time>2026-04-30T11:10:14.999Z</time></trkpt><trkpt lat="42.42289349192539" lon="12.10627257287155"><ele>344.6</ele><time>2026-04-30T11:10:16.999Z</time></trkpt><trkpt lat="42.42291604637639" lon="12.106423788035096"><ele>345.0</ele><time>2026-04-30T11:10:18.999Z</time></trkpt><trkpt lat="42.422942190101594" lon="12.106575263508276"><ele>345.2</ele><time>2026-04-30T11:10:20.999Z</time></trkpt><trkpt lat="42.42296231799076" lon="12.106751527689418"><ele>345.4</ele><time>2026-04-30T11:10:22.998Z</time></trkpt><trkpt lat="42.42297405910042" lon="12.106864914746465"><ele>345.6</ele><time>2026-04-30T11:10:23.998Z</time></trkpt><trkpt lat="42.42298200965226" lon="12.106975358997522"><ele>345.8</ele><time>2026-04-30T11:10:24.998Z</time></trkpt><trkpt lat="42.42298809329634" lon="12.107079814077604"><ele>346.0</ele><time>2026-04-30T11:10:25.998Z</time></trkpt><trkpt lat="42.42299098254514" lon="12.107182199229069"><ele>345.57142857142856</ele><time>2026-04-30T11:10:26.998Z</time></trkpt><trkpt lat="42.4229946544358" lon="12.107280767614292"><ele>345.14285714285717</ele><time>2026-04-30T11:10:27.998Z</time></trkpt><trkpt lat="42.4229902688244" lon="12.107377126853098"><ele>344.7142857142857</ele><time>2026-04-30T11:10:28.998Z</time></trkpt><trkpt lat="42.422973038533144" lon="12.107471376327192"><ele>344.2857142857143</ele><time>2026-04-30T11:10:29.998Z</time></trkpt><trkpt lat="42.422945098305966" lon="12.107567353169912"><ele>343.8571428571429</ele><time>2026-04-30T11:10:30.998Z</time></trkpt><trkpt lat="42.42289903440216" lon="12.107660137290054"><ele>343.42857142857144</ele><time>2026-04-30T11:10:31.998Z</time></trkpt><trkpt lat="42.42286171703181" lon="12.107739569908498"><ele>343.0</ele><time>2026-04-30T11:10:32.998Z</time></trkpt><trkpt lat="42.42282053725534" lon="12.107808677012773"><ele>342.8333333333333</ele><time>2026-04-30T11:10:33.998Z</time></trkpt><trkpt lat="42.422762544752786" lon="12.107877400492402"><ele>342.66666666666663</ele><time>2026-04-30T11:10:34.998Z</time></trkpt><trkpt lat="42.42269008655595" lon="12.107949667123656"><ele>342.5</ele><time>2026-04-30T11:10:35.998Z</time></trkpt><trkpt lat="42.42261267779603" lon="12.10802407911854"><ele>342.3333333333333</ele><time>2026-04-30T11:10:36.998Z</time></trkpt><trkpt lat="42.422540009692725" lon="12.108097352060906"><ele>342.1666666666667</ele><time>2026-04-30T11:10:37.998Z</time></trkpt><trkpt lat="42.422504420774935" lon="12.10820572185714"><ele>342.0</ele><time>2026-04-30T11:10:38.998Z</time></trkpt><trkpt lat="42.42241794704167" lon="12.10826877014338"><ele>341.5</ele><time>2026-04-30T11:10:39.998Z</time></trkpt><trkpt lat="42.4223588261994" lon="12.108354968998931"><ele>341.0</ele><time>2026-04-30T11:10:40.998Z</time></trkpt><trkpt lat="42.42229956618994" lon="12.108431680799658"><ele>340.5</ele><time>2026-04-30T11:10:41.998Z</time></trkpt><trkpt lat="42.42224010231828" lon="12.108494196747854"><ele>340.0</ele><time>2026-04-30T11:10:42.998Z</time></trkpt><trkpt lat="42.42216830943526" lon="12.108584648091684"><ele>339.5</ele><time>2026-04-30T11:10:44.998Z</time></trkpt><trkpt lat="42.42212388966918" lon="12.10865329534365"><ele>339.0</ele><time>2026-04-30T11:10:46.998Z</time></trkpt><trkpt lat="42.42207387494957" lon="12.10871514673218"><ele>338.6666666666667</ele><time>2026-04-30T11:10:49.998Z</time></trkpt><trkpt lat="42.42201890511211" lon="12.108769031747773"><ele>338.3333333333333</ele><time>2026-04-30T11:10:59Z</time></trkpt><trkpt lat="42.42193999086146" lon="12.108872508729268"><ele>338.0</ele><time>2026-04-30T11:11:01Z</time></trkpt><trkpt lat="42.42187803332776" lon="12.108958516026101"><ele>337.66666666666663</ele><time>2026-04-30T11:11:03Z</time></trkpt><trkpt lat="42.421839770411516" lon="12.109035198875846"><ele>337.3333333333333</ele><time>2026-04-30T11:11:15Z</time></trkpt><trkpt lat="42.42178057700028" lon="12.109098364746155"><ele>337.0</ele><time>2026-04-30T11:11:17Z</time></trkpt><trkpt lat="42.421695912787634" lon="12.109192991789502"><ele>337.0</ele><time>2026-04-30T11:11:19Z</time></trkpt><trkpt lat="42.4215928675198" lon="12.10931865629341"><ele>337.0</ele><time>2026-04-30T11:11:21Z</time></trkpt><trkpt lat="42.4215178588617" lon="12.109369742472818"><ele>337.0</ele><time>2026-04-30T11:11:22Z</time></trkpt><trkpt lat="42.42144410962414" lon="12.109415254391335"><ele>337.0</ele><time>2026-04-30T11:11:23Z</time></trkpt><trkpt lat="42.42136835443917" lon="12.109468651950962"><ele>337.0</ele><time>2026-04-30T11:11:24Z</time></trkpt><trkpt lat="42.42128970337737" lon="12.10952658764872"><ele>338.0</ele><time>2026-04-30T11:11:25Z</time></trkpt><trkpt lat="42.42120244347097" lon="12.109596510189471"><ele>339.0</ele><time>2026-04-30T11:11:26Z</time></trkpt><trkpt lat="42.421126146940836" lon="12.10967831856974"><ele>340.0</ele><time>2026-04-30T11:11:27Z</time></trkpt><trkpt lat="42.421040693880094" lon="12.109734660431839"><ele>341.0</ele><time>2026-04-30T11:11:28Z</time></trkpt><trkpt lat="42.42095065965759" lon="12.109801486106322"><ele>342.0</ele><time>2026-04-30T11:11:29Z</time></trkpt><trkpt lat="42.420857689773136" lon="12.109865517414098"><ele>342.0</ele><time>2026-04-30T11:11:30Z</time></trkpt><trkpt lat="42.420756345264856" lon="12.109907502262166"><ele>342.0</ele><time>2026-04-30T11:11:31Z</time></trkpt><trkpt lat="42.42065995608178" lon="12.109964419834524"><ele>342.0</ele><time>2026-04-30T11:11:32Z</time></trkpt><trkpt lat="42.420557488529376" lon="12.110020453419942"><ele>342.0</ele><time>2026-04-30T11:11:33Z</time></trkpt><trkpt lat="42.420454678802535" lon="12.110080864558565"><ele>342.0</ele><time>2026-04-30T11:11:34Z</time></trkpt><trkpt lat="42.42033525194993" lon="12.110080859277476"><ele>343.5</ele><time>2026-04-30T11:11:35Z</time></trkpt><trkpt lat="42.42021428808283" lon="12.110082757374851"><ele>345.0</ele><time>2026-04-30T11:11:35.999Z</time></trkpt><trkpt lat="42.4200904304448" lon="12.110078051417124"><ele>346.5</ele><time>2026-04-30T11:11:36.999Z</time></trkpt><trkpt lat="42.419957042130534" lon="12.110067382889845"><ele>348.0</ele><time>2026-04-30T11:11:37.999Z</time></trkpt><trkpt lat="42.41981905112235" lon="12.11006174897617"><ele>348.0</ele><time>2026-04-30T11:11:38.999Z</time></trkpt><trkpt lat="42.41968135756433" lon="12.110039339998103"><ele>348.0</ele><time>2026-04-30T11:11:39.999Z</time></trkpt><trkpt lat="42.419543698672896" lon="12.110025273431345"><ele>348.0</ele><time>2026-04-30T11:11:40.999Z</time></trkpt><trkpt lat="42.41940646772251" lon="12.110013275632776"><ele>348.0</ele><time>2026-04-30T11:11:41.999Z</time></trkpt><trkpt lat="42.41926872531929" lon="12.110015647030856"><ele>348.75</ele><time>2026-04-30T11:11:42.999Z</time></trkpt><trkpt lat="42.41914596837427" lon="12.110021632793874"><ele>349.5</ele><time>2026-04-30T11:11:43.999Z</time></trkpt><trkpt lat="42.41902406827873" lon="12.11003361855134"><ele>350.25</ele><time>2026-04-30T11:11:44.999Z</time></trkpt><trkpt lat="42.41890203420592" lon="12.110048633152921"><ele>351.0</ele><time>2026-04-30T11:11:45.999Z</time></trkpt><trkpt lat="42.41881168702735" lon="12.110053606998479"><ele>351.0</ele><time>2026-04-30T11:11:46.999Z</time></trkpt><trkpt lat="42.41871588646552" lon="12.11006532219467"><ele>351.0</ele><time>2026-04-30T11:11:47.999Z</time></trkpt><trkpt lat="42.41862901739504" lon="12.110075201129712"><ele>351.0</ele><time>2026-04-30T11:11:48.999Z</time></trkpt><trkpt lat="42.418548351588235" lon="12.110090863438883"><ele>351.0</ele><time>2026-04-30T11:11:49.999Z</time></trkpt><trkpt lat="42.41845741482825" lon="12.110105780918511"><ele>351.0</ele><time>2026-04-30T11:11:51.999Z</time></trkpt><trkpt lat="42.418393738751234" lon="12.110107600678823"><ele>351.0</ele><time>2026-04-30T11:11:54.999Z</time></trkpt><trkpt lat="42.418261452606686" lon="12.110110214564406"><ele>351.0</ele><time>2026-04-30T11:12:10.999Z</time></trkpt><trkpt lat="42.418153002935796" lon="12.110125179790174"><ele>351.0</ele><time>2026-04-30T11:12:12.999Z</time></trkpt><trkpt lat="42.4180658777083" lon="12.110134732766937"><ele>351.0</ele><time>2026-04-30T11:12:14.999Z</time></trkpt><trkpt lat="42.417992254867436" lon="12.110145896353776"><ele>351.0</ele><time>2026-04-30T11:12:16.999Z</time></trkpt><trkpt lat="42.41790755052363" lon="12.110144454770085"><ele>351.0</ele><time>2026-04-30T11:12:18.999Z</time></trkpt><trkpt lat="42.41779115750755" lon="12.110164216355514"><ele>351.4</ele><time>2026-04-30T11:12:20.999Z</time></trkpt><trkpt lat="42.41772512681164" lon="12.110175699528781"><ele>351.8</ele><time>2026-04-30T11:12:21.999Z</time></trkpt><trkpt lat="42.41760654372197" lon="12.110168992066013"><ele>352.2</ele><time>2026-04-30T11:12:23.999Z</time></trkpt><trkpt lat="42.41748616022045" lon="12.110179186519225"><ele>352.59999999999997</ele><time>2026-04-30T11:12:25.999Z</time></trkpt><trkpt lat="42.41741540526931" lon="12.110186638872083"><ele>353.0</ele><time>2026-04-30T11:12:26.999Z</time></trkpt><trkpt lat="42.41734179383673" lon="12.110188243001668"><ele>353.0</ele><time>2026-04-30T11:12:27.999Z</time></trkpt><trkpt lat="42.41726293499564" lon="12.11018908673631"><ele>353.0</ele><time>2026-04-30T11:12:28.999Z</time></trkpt><trkpt lat="42.41718364376697" lon="12.110194408915376"><ele>353.0</ele><time>2026-04-30T11:12:29.999Z</time></trkpt><trkpt lat="42.41710379151053" lon="12.110196831916188"><ele>353.0</ele><time>2026-04-30T11:12:30.999Z</time></trkpt><trkpt lat="42.417025931700074" lon="12.110197621973851"><ele>353.0</ele><time>2026-04-30T11:12:31.998Z</time></trkpt><trkpt lat="42.416947234639444" lon="12.110198259735451"><ele>353.0</ele><time>2026-04-30T11:12:32.998Z</time></trkpt><trkpt lat="42.41687988278441" lon="12.11020101745182"><ele>353.4</ele><time>2026-04-30T11:12:33.998Z</time></trkpt><trkpt lat="42.41681385021907" lon="12.110203129525152"><ele>353.79999999999995</ele><time>2026-04-30T11:12:34.998Z</time></trkpt><trkpt lat="42.41670022155588" lon="12.110208468790974"><ele>354.2</ele><time>2026-04-30T11:12:36.998Z</time></trkpt><trkpt lat="42.41658414564873" lon="12.110215189178367"><ele>354.6</ele><time>2026-04-30T11:12:38.998Z</time></trkpt><trkpt lat="42.416486294139986" lon="12.110213135167402"><ele>355.0</ele><time>2026-04-30T11:12:41.998Z</time></trkpt><trkpt lat="42.41641546714703" lon="12.110210409868454"><ele>355.0</ele><time>2026-04-30T11:12:43.998Z</time></trkpt><trkpt lat="42.4163219764445" lon="12.110214863984718"><ele>355.0</ele><time>2026-04-30T11:12:46.998Z</time></trkpt><trkpt lat="42.416244978943666" lon="12.110224958118167"><ele>355.0</ele><time>2026-04-30T11:12:49.998Z</time></trkpt><trkpt lat="42.41616564708928" lon="12.110179339708457"><ele>355.0</ele><time>2026-04-30T11:12:52.998Z</time></trkpt><trkpt lat="42.41608314145132" lon="12.110187349412984"><ele>355.0</ele><time>2026-04-30T11:12:55.998Z</time></trkpt><trkpt lat="42.41599940958024" lon="12.110195943188677"><ele>355.0</ele><time>2026-04-30T11:12:58.998Z</time></trkpt><trkpt lat="42.41593741481543" lon="12.110213284708754"><ele>355.3333333333333</ele><time>2026-04-30T11:13:00.998Z</time></trkpt><trkpt lat="42.415848914950374" lon="12.110211766382008"><ele>355.66666666666663</ele><time>2026-04-30T11:13:04Z</time></trkpt><trkpt lat="42.41577250529494" lon="12.110227386886093"><ele>356.0</ele><time>2026-04-30T11:14:11.999Z</time></trkpt><trkpt lat="42.415708583706326" lon="12.110213782725202"><ele>356.3333333333333</ele><time>2026-04-30T11:14:19.999Z</time></trkpt><trkpt lat="42.41561877410352" lon="12.110218935390991"><ele>356.6666666666667</ele><time>2026-04-30T11:14:26.999Z</time></trkpt><trkpt lat="42.415520333743274" lon="12.11022469828344"><ele>357.0</ele><time>2026-04-30T11:14:29.999Z</time></trkpt><trkpt lat="42.41543962478906" lon="12.110229620324644"><ele>357.3333333333333</ele><time>2026-04-30T11:14:31.999Z</time></trkpt><trkpt lat="42.41537296783567" lon="12.110234242034233"><ele>357.6666666666667</ele><time>2026-04-30T11:14:33.998Z</time></trkpt><trkpt lat="42.41527761300877" lon="12.110287964183428"><ele>358.0</ele><time>2026-04-30T11:14:35.998Z</time></trkpt><trkpt lat="42.41518557951801" lon="12.110272886511126"><ele>358.33333333333337</ele><time>2026-04-30T11:14:37.998Z</time></trkpt><trkpt lat="42.41510343275894" lon="12.110267258136195"><ele>358.6666666666667</ele><time>2026-04-30T11:14:39.998Z</time></trkpt><trkpt lat="42.4150310472996" lon="12.110257048291732"><ele>359.0</ele><time>2026-04-30T11:14:41.998Z</time></trkpt><trkpt lat="42.41495758556446" lon="12.110200411747005"><ele>359.0</ele><time>2026-04-30T11:14:43.998Z</time></trkpt><trkpt lat="42.414887674969656" lon="12.110184923584844"><ele>359.0</ele><time>2026-04-30T11:14:45.998Z</time></trkpt><trkpt lat="42.41482302515743" lon="12.110170600926129"><ele>359.0</ele><time>2026-04-30T11:14:47.998Z</time></trkpt><trkpt lat="42.41473967132143" lon="12.110150827027303"><ele>359.0</ele><time>2026-04-30T11:14:49.998Z</time></trkpt><trkpt lat="42.41464876366755" lon="12.110127811525397"><ele>359.0</ele><time>2026-04-30T11:16:24.999Z</time></trkpt><trkpt lat="42.414572835456575" lon="12.110104349740837"><ele>359.0</ele><time>2026-04-30T11:16:29.999Z</time></trkpt><trkpt lat="42.4144854543879" lon="12.110063231390033"><ele>358.5</ele><time>2026-04-30T11:16:31.999Z</time></trkpt><trkpt lat="42.414408424155916" lon="12.110035310720445"><ele>358.0</ele><time>2026-04-30T11:16:32.999Z</time></trkpt><trkpt lat="42.41426888252452" lon="12.110222892164991"><ele>357.5</ele><time>2026-04-30T11:16:34.999Z</time></trkpt><trkpt lat="42.41419159161727" lon="12.110324049991013"><ele>357.0</ele><time>2026-04-30T11:16:35.999Z</time></trkpt><trkpt lat="42.41411023514876" lon="12.110447632540266"><ele>357.0</ele><time>2026-04-30T11:16:36.999Z</time></trkpt><trkpt lat="42.41403346115854" lon="12.110563902369286"><ele>357.0</ele><time>2026-04-30T11:16:37.999Z</time></trkpt><trkpt lat="42.413946948587146" lon="12.110694920726413"><ele>357.0</ele><time>2026-04-30T11:16:38.999Z</time></trkpt><trkpt lat="42.413858261484975" lon="12.110829232278178"><ele>357.0</ele><time>2026-04-30T11:16:39.998Z</time></trkpt><trkpt lat="42.413763310188386" lon="12.110973032772655"><ele>356.3333333333333</ele><time>2026-04-30T11:16:40.998Z</time></trkpt><trkpt lat="42.41366124017598" lon="12.111121751282706"><ele>355.66666666666663</ele><time>2026-04-30T11:16:41.998Z</time></trkpt><trkpt lat="42.41355707103283" lon="12.111272830056588"><ele>355.0</ele><time>2026-04-30T11:16:42.998Z</time></trkpt><trkpt lat="42.41345185036552" lon="12.11142397028369"><ele>357.3333333333333</ele><time>2026-04-30T11:16:43.998Z</time></trkpt><trkpt lat="42.41334654945823" lon="12.111575271241808"><ele>359.6666666666667</ele><time>2026-04-30T11:16:44.998Z</time></trkpt><trkpt lat="42.413240984586196" lon="12.111726082279583"><ele>362.0</ele><time>2026-04-30T11:16:45.998Z</time></trkpt><trkpt lat="42.413137820251954" lon="12.111872238393525"><ele>362.0</ele><time>2026-04-30T11:16:46.998Z</time></trkpt><trkpt lat="42.41303870072014" lon="12.112012664073001"><ele>362.0</ele><time>2026-04-30T11:16:47.998Z</time></trkpt><trkpt lat="42.412949604817726" lon="12.112137069430922"><ele>362.0</ele><time>2026-04-30T11:16:48.998Z</time></trkpt><trkpt lat="42.412858706710004" lon="12.11226365063799"><ele>362.0</ele><time>2026-04-30T11:16:49.998Z</time></trkpt><trkpt lat="42.41277568807609" lon="12.112379259239898"><ele>361.8</ele><time>2026-04-30T11:16:50.998Z</time></trkpt><trkpt lat="42.412700815485174" lon="12.112483524013209"><ele>361.6</ele><time>2026-04-30T11:16:51.998Z</time></trkpt><trkpt lat="42.41263157616959" lon="12.112580279770125"><ele>361.40000000000003</ele><time>2026-04-30T11:16:52.998Z</time></trkpt><trkpt lat="42.41257118906379" lon="12.11266772375239"><ele>361.20000000000005</ele><time>2026-04-30T11:16:53.998Z</time></trkpt><trkpt lat="42.41250155500224" lon="12.112768557782209"><ele>361.0</ele><time>2026-04-30T11:16:55.998Z</time></trkpt><trkpt lat="42.412453467059585" lon="12.112838478414725"><ele>361.0</ele><time>2026-04-30T11:18:23.999Z</time></trkpt><trkpt lat="42.41236679774157" lon="12.11296610324327"><ele>361.0</ele><time>2026-04-30T11:18:25.999Z</time></trkpt><trkpt lat="42.41231832848238" lon="12.113041922685168"><ele>361.0</ele><time>2026-04-30T11:18:26.999Z</time></trkpt><trkpt lat="42.412265691079234" lon="12.113125524204088"><ele>361.0</ele><time>2026-04-30T11:18:27.999Z</time></trkpt><trkpt lat="42.41220416924883" lon="12.113219138342547"><ele>361.0</ele><time>2026-04-30T11:18:28.999Z</time></trkpt><trkpt lat="42.41213565778019" lon="12.113318308058716"><ele>362.75</ele><time>2026-04-30T11:18:29.999Z</time></trkpt><trkpt lat="42.412065063616204" lon="12.113420082874613"><ele>364.5</ele><time>2026-04-30T11:18:30.999Z</time></trkpt><trkpt lat="42.411997774749764" lon="12.113549270781569"><ele>366.25</ele><time>2026-04-30T11:18:31.999Z</time></trkpt><trkpt lat="42.41190930615728" lon="12.113652517652907"><ele>368.0</ele><time>2026-04-30T11:18:32.999Z</time></trkpt><trkpt lat="42.411831246577975" lon="12.11377645693923"><ele>368.0</ele><time>2026-04-30T11:18:33.999Z</time></trkpt><trkpt lat="42.41175032306586" lon="12.113888848696533"><ele>368.0</ele><time>2026-04-30T11:18:34.999Z</time></trkpt><trkpt lat="42.411671368589985" lon="12.1140135682259"><ele>368.0</ele><time>2026-04-30T11:18:35.999Z</time></trkpt><trkpt lat="42.41157874795331" lon="12.11413857379335"><ele>368.0</ele><time>2026-04-30T11:18:36.999Z</time></trkpt><trkpt lat="42.41147709692732" lon="12.114270128596953"><ele>369.5</ele><time>2026-04-30T11:18:37.999Z</time></trkpt><trkpt lat="42.41138071424655" lon="12.114399283096963"><ele>371.0</ele><time>2026-04-30T11:18:38.999Z</time></trkpt><trkpt lat="42.41128682175393" lon="12.11453460634856"><ele>372.5</ele><time>2026-04-30T11:18:39.999Z</time></trkpt><trkpt lat="42.4111929246794" lon="12.114674682081503"><ele>374.0</ele><time>2026-04-30T11:18:40.999Z</time></trkpt><trkpt lat="42.41109382695677" lon="12.114821002448052"><ele>375.6666666666667</ele><time>2026-04-30T11:18:41.999Z</time></trkpt><trkpt lat="42.41098181216449" lon="12.11495157443424"><ele>377.3333333333333</ele><time>2026-04-30T11:18:42.999Z</time></trkpt><trkpt lat="42.4108792871828" lon="12.115105743387318"><ele>379.0</ele><time>2026-04-30T11:18:43.999Z</time></trkpt><trkpt lat="42.41077340297417" lon="12.115259668070175"><ele>379.0</ele><time>2026-04-30T11:18:44.999Z</time></trkpt><trkpt lat="42.41066725957809" lon="12.115406854613811"><ele>379.0</ele><time>2026-04-30T11:18:45.999Z</time></trkpt><trkpt lat="42.410563757560375" lon="12.115558085274573"><ele>379.0</ele><time>2026-04-30T11:18:46.999Z</time></trkpt><trkpt lat="42.41046044454017" lon="12.11571312315636"><ele>380.25</ele><time>2026-04-30T11:18:47.998Z</time></trkpt><trkpt lat="42.4103493394128" lon="12.115852979425126"><ele>381.5</ele><time>2026-04-30T11:18:48.998Z</time></trkpt><trkpt lat="42.41024952471224" lon="12.115996039605562"><ele>382.75</ele><time>2026-04-30T11:18:49.998Z</time></trkpt><trkpt lat="42.41015223512595" lon="12.116133212665693"><ele>384.0</ele><time>2026-04-30T11:18:50.998Z</time></trkpt><trkpt lat="42.41006173248569" lon="12.116278054479501"><ele>384.0</ele><time>2026-04-30T11:18:51.998Z</time></trkpt><trkpt lat="42.40997362256957" lon="12.116424641556096"><ele>384.0</ele><time>2026-04-30T11:18:52.998Z</time></trkpt><trkpt lat="42.40990748442979" lon="12.11657502090195"><ele>384.0</ele><time>2026-04-30T11:18:53.998Z</time></trkpt><trkpt lat="42.409855342542755" lon="12.11674729918543"><ele>384.0</ele><time>2026-04-30T11:18:54.998Z</time></trkpt><trkpt lat="42.409814301989606" lon="12.116921842941727"><ele>385.33333333333337</ele><time>2026-04-30T11:18:55.998Z</time></trkpt><trkpt lat="42.40978940813777" lon="12.11713596716062"><ele>386.6666666666667</ele><time>2026-04-30T11:18:56.998Z</time></trkpt><trkpt lat="42.40979914553042" lon="12.117341382542989"><ele>388.0</ele><time>2026-04-30T11:18:57.998Z</time></trkpt><trkpt lat="42.409809227565965" lon="12.117535724681312"><ele>389.25</ele><time>2026-04-30T11:18:58.998Z</time></trkpt><trkpt lat="42.40982596414045" lon="12.11773179050057"><ele>390.5</ele><time>2026-04-30T11:18:59.998Z</time></trkpt><trkpt lat="42.40986610297184" lon="12.117920202848039"><ele>391.75</ele><time>2026-04-30T11:19:00.998Z</time></trkpt><trkpt lat="42.40991949397552" lon="12.118105007938553"><ele>393.0</ele><time>2026-04-30T11:19:01.998Z</time></trkpt><trkpt lat="42.40997486928429" lon="12.118282593047123"><ele>394.75</ele><time>2026-04-30T11:19:02.998Z</time></trkpt><trkpt lat="42.41004815439344" lon="12.118442416869465"><ele>396.5</ele><time>2026-04-30T11:19:03.998Z</time></trkpt><trkpt lat="42.41015034412508" lon="12.118562668203381"><ele>398.25</ele><time>2026-04-30T11:19:04.998Z</time></trkpt><trkpt lat="42.41026705389096" lon="12.118660635199424"><ele>400.0</ele><time>2026-04-30T11:19:05.998Z</time></trkpt><trkpt lat="42.410381590184016" lon="12.118759651606911"><ele>400.0</ele><time>2026-04-30T11:19:06.998Z</time></trkpt><trkpt lat="42.41047732363703" lon="12.118879760707902"><ele>400.0</ele><time>2026-04-30T11:19:07.998Z</time></trkpt><trkpt lat="42.41053691807976" lon="12.119021256876593"><ele>400.0</ele><time>2026-04-30T11:19:08.998Z</time></trkpt><trkpt lat="42.41055742802946" lon="12.119161329954414"><ele>400.0</ele><time>2026-04-30T11:19:09.998Z</time></trkpt><trkpt lat="42.41055582216646" lon="12.119334493994975"><ele>401.25</ele><time>2026-04-30T11:19:10.998Z</time></trkpt><trkpt lat="42.41052060067312" lon="12.119499931462482"><ele>402.5</ele><time>2026-04-30T11:19:11.998Z</time></trkpt><trkpt lat="42.4104686064349" lon="12.11965630905305"><ele>403.75</ele><time>2026-04-30T11:19:12.998Z</time></trkpt><trkpt lat="42.41041485878245" lon="12.119814772440286"><ele>405.0</ele><time>2026-04-30T11:19:13.998Z</time></trkpt><trkpt lat="42.410358510910754" lon="12.11997119251434"><ele>406.5</ele><time>2026-04-30T11:19:14.998Z</time></trkpt><trkpt lat="42.41029243417506" lon="12.120132281835614"><ele>408.0</ele><time>2026-04-30T11:19:15.998Z</time></trkpt><trkpt lat="42.410201286445094" lon="12.120280430488952"><ele>409.5</ele><time>2026-04-30T11:19:16.998Z</time></trkpt><trkpt lat="42.410110666112175" lon="12.120421972807387"><ele>411.0</ele><time>2026-04-30T11:19:17.998Z</time></trkpt><trkpt lat="42.410019949962766" lon="12.120556746085288"><ele>411.0</ele><time>2026-04-30T11:19:18.998Z</time></trkpt><trkpt lat="42.409930432094306" lon="12.120686626449654"><ele>411.0</ele><time>2026-04-30T11:19:20Z</time></trkpt><trkpt lat="42.40984199700506" lon="12.120815204857163"><ele>411.0</ele><time>2026-04-30T11:19:21Z</time></trkpt><trkpt lat="42.40977216172621" lon="12.120941478071133"><ele>411.0</ele><time>2026-04-30T11:19:22Z</time></trkpt><trkpt lat="42.409697814202104" lon="12.121041371179686"><ele>411.6</ele><time>2026-04-30T11:19:23Z</time></trkpt><trkpt lat="42.40962524469055" lon="12.12114766348128"><ele>412.20000000000005</ele><time>2026-04-30T11:19:24Z</time></trkpt><trkpt lat="42.40955152044816" lon="12.12126130167451"><ele>412.79999999999995</ele><time>2026-04-30T11:19:25Z</time></trkpt><trkpt lat="42.40947710998602" lon="12.121377855226772"><ele>413.4</ele><time>2026-04-30T11:19:26Z</time></trkpt><trkpt lat="42.4094000608679" lon="12.1214953155003"><ele>414.0</ele><time>2026-04-30T11:19:27Z</time></trkpt><trkpt lat="42.409324184824975" lon="12.121602046435822"><ele>416.0</ele><time>2026-04-30T11:19:28Z</time></trkpt><trkpt lat="42.409250537990545" lon="12.12170783176961"><ele>418.0</ele><time>2026-04-30T11:19:29Z</time></trkpt><trkpt lat="42.40917724188973" lon="12.121814228698337"><ele>420.0</ele><time>2026-04-30T11:19:30Z</time></trkpt><trkpt lat="42.40909865544048" lon="12.121918228215755"><ele>422.0</ele><time>2026-04-30T11:19:31Z</time></trkpt><trkpt lat="42.40902058715405" lon="12.122022129046103"><ele>424.0</ele><time>2026-04-30T11:19:32Z</time></trkpt><trkpt lat="42.40894250877959" lon="12.122131927979662"><ele>424.0</ele><time>2026-04-30T11:19:33Z</time></trkpt><trkpt lat="42.4088624177848" lon="12.122242440217436"><ele>424.0</ele><time>2026-04-30T11:19:34Z</time></trkpt><trkpt lat="42.40877937816444" lon="12.122353960656328"><ele>424.0</ele><time>2026-04-30T11:19:35Z</time></trkpt><trkpt lat="42.40869167148031" lon="12.122469502718516"><ele>424.0</ele><time>2026-04-30T11:19:36Z</time></trkpt><trkpt lat="42.40860130413071" lon="12.122588306611492"><ele>425.0</ele><time>2026-04-30T11:19:37Z</time></trkpt><trkpt lat="42.40851149399578" lon="12.122708207791598"><ele>426.0</ele><time>2026-04-30T11:19:38Z</time></trkpt><trkpt lat="42.40841909004493" lon="12.122833728327217"><ele>427.0</ele><time>2026-04-30T11:19:39Z</time></trkpt><trkpt lat="42.40832484300383" lon="12.122959958247517"><ele>428.0</ele><time>2026-04-30T11:19:40Z</time></trkpt><trkpt lat="42.4082272204763" lon="12.123083558590933"><ele>428.0</ele><time>2026-04-30T11:19:41Z</time></trkpt><trkpt lat="42.40812904964587" lon="12.123204114306331"><ele>428.0</ele><time>2026-04-30T11:19:42Z</time></trkpt><trkpt lat="42.40803355984705" lon="12.123324465034921"><ele>428.0</ele><time>2026-04-30T11:19:43Z</time></trkpt><trkpt lat="42.407937457675" lon="12.123443468039921"><ele>428.0</ele><time>2026-04-30T11:19:44Z</time></trkpt><trkpt lat="42.407840302921414" lon="12.123567481044"><ele>429.0</ele><time>2026-04-30T11:19:45Z</time></trkpt><trkpt lat="42.40774485655638" lon="12.123694458317914"><ele>430.0</ele><time>2026-04-30T11:19:46Z</time></trkpt><trkpt lat="42.407655364569635" lon="12.123828627122762"><ele>431.0</ele><time>2026-04-30T11:19:47Z</time></trkpt><trkpt lat="42.40756713743265" lon="12.1239636194191"><ele>432.0</ele><time>2026-04-30T11:19:48Z</time></trkpt><trkpt lat="42.40748718260311" lon="12.12410492547431"><ele>434.0</ele><time>2026-04-30T11:19:49Z</time></trkpt><trkpt lat="42.40740884154743" lon="12.124241916585616"><ele>436.0</ele><time>2026-04-30T11:19:50Z</time></trkpt><trkpt lat="42.407336481965054" lon="12.124373253216277"><ele>438.0</ele><time>2026-04-30T11:19:51Z</time></trkpt><trkpt lat="42.40726798525164" lon="12.124502598387535"><ele>440.0</ele><time>2026-04-30T11:19:52Z</time></trkpt><trkpt lat="42.40720202045567" lon="12.124631392004135"><ele>440.5</ele><time>2026-04-30T11:19:53Z</time></trkpt><trkpt lat="42.40713577699577" lon="12.1247660943055"><ele>441.0</ele><time>2026-04-30T11:19:54Z</time></trkpt><trkpt lat="42.40707173806904" lon="12.124903010711671"><ele>441.5</ele><time>2026-04-30T11:19:55Z</time></trkpt><trkpt lat="42.407008420680356" lon="12.125039026972631"><ele>442.0</ele><time>2026-04-30T11:19:56Z</time></trkpt><trkpt lat="42.406943819546136" lon="12.12517429062947"><ele>442.0</ele><time>2026-04-30T11:19:57Z</time></trkpt><trkpt lat="42.40687848429851" lon="12.125311393997803"><ele>442.0</ele><time>2026-04-30T11:19:58Z</time></trkpt><trkpt lat="42.40681499349359" lon="12.125449145450556"><ele>442.0</ele><time>2026-04-30T11:19:59Z</time></trkpt><trkpt lat="42.406750321869886" lon="12.125588258093913"><ele>442.0</ele><time>2026-04-30T11:20:00Z</time></trkpt><trkpt lat="42.40669663453" lon="12.125734155919568"><ele>443.25</ele><time>2026-04-30T11:20:01Z</time></trkpt><trkpt lat="42.40664437055141" lon="12.125878063370811"><ele>444.5</ele><time>2026-04-30T11:20:01.999Z</time></trkpt><trkpt lat="42.40659402998626" lon="12.12602145883339"><ele>445.75</ele><time>2026-04-30T11:20:02.999Z</time></trkpt><trkpt lat="42.406548670244014" lon="12.12616403167793"><ele>447.0</ele><time>2026-04-30T11:20:03.999Z</time></trkpt><trkpt lat="42.40650776075169" lon="12.126309028490846"><ele>447.0</ele><time>2026-04-30T11:20:04.999Z</time></trkpt><trkpt lat="42.4064660635485" lon="12.12645385843985"><ele>447.0</ele><time>2026-04-30T11:20:05.999Z</time></trkpt><trkpt lat="42.40642501258106" lon="12.126600983346016"><ele>447.0</ele><time>2026-04-30T11:20:06.999Z</time></trkpt><trkpt lat="42.40638073183803" lon="12.12674688049344"><ele>447.0</ele><time>2026-04-30T11:20:07.999Z</time></trkpt><trkpt lat="42.40632429143254" lon="12.126897401347788"><ele>448.75</ele><time>2026-04-30T11:20:08.999Z</time></trkpt><trkpt lat="42.406276332050936" lon="12.127065457965276"><ele>450.5</ele><time>2026-04-30T11:20:09.999Z</time></trkpt><trkpt lat="42.40622519600476" lon="12.127249265809429"><ele>452.25</ele><time>2026-04-30T11:20:10.999Z</time></trkpt><trkpt lat="42.40614022065386" lon="12.127430968635396"><ele>454.0</ele><time>2026-04-30T11:20:11.999Z</time></trkpt><trkpt lat="42.40607586588648" lon="12.127635653292067"><ele>455.6666666666667</ele><time>2026-04-30T11:20:12.999Z</time></trkpt><trkpt lat="42.406011073780434" lon="12.127841684217278"><ele>457.33333333333337</ele><time>2026-04-30T11:20:13.999Z</time></trkpt><trkpt lat="42.40594349156414" lon="12.128056525383146"><ele>459.0</ele><time>2026-04-30T11:20:14.999Z</time></trkpt><trkpt lat="42.4058693577215" lon="12.128291954977083"><ele>461.33333333333337</ele><time>2026-04-30T11:20:15.999Z</time></trkpt><trkpt lat="42.405788895767245" lon="12.128543088888046"><ele>463.6666666666667</ele><time>2026-04-30T11:20:16.999Z</time></trkpt><trkpt lat="42.40570508620105" lon="12.128804671118155"><ele>466.0</ele><time>2026-04-30T11:20:17.999Z</time></trkpt><trkpt lat="42.405621522535434" lon="12.129070860323585"><ele>466.0</ele><time>2026-04-30T11:20:18.999Z</time></trkpt><trkpt lat="42.40554142778483" lon="12.12932722498674"><ele>466.0</ele><time>2026-04-30T11:20:19.999Z</time></trkpt><trkpt lat="42.405460274405286" lon="12.12958625780368"><ele>466.0</ele><time>2026-04-30T11:20:20.999Z</time></trkpt><trkpt lat="42.405379647172" lon="12.129843611888115"><ele>468.33333333333337</ele><time>2026-04-30T11:20:21.999Z</time></trkpt><trkpt lat="42.405301525498736" lon="12.130092967854754"><ele>470.66666666666663</ele><time>2026-04-30T11:20:22.999Z</time></trkpt><trkpt lat="42.40522431901271" lon="12.130339402565538"><ele>473.0</ele><time>2026-04-30T11:20:23.999Z</time></trkpt><trkpt lat="42.40514785984386" lon="12.130588521528024"><ele>475.66666666666663</ele><time>2026-04-30T11:20:24.999Z</time></trkpt><trkpt lat="42.40507991969063" lon="12.130831031340854"><ele>478.33333333333337</ele><time>2026-04-30T11:20:25.999Z</time></trkpt><trkpt lat="42.405015890791276" lon="12.131077983555452"><ele>481.0</ele><time>2026-04-30T11:20:26.999Z</time></trkpt><trkpt lat="42.40496627431299" lon="12.131328162240086"><ele>482.0</ele><time>2026-04-30T11:20:27.999Z</time></trkpt><trkpt lat="42.404949630586565" lon="12.131587466258425"><ele>483.0</ele><time>2026-04-30T11:20:28.999Z</time></trkpt><trkpt lat="42.40497474142803" lon="12.131839432933273"><ele>484.0</ele><time>2026-04-30T11:20:29.999Z</time></trkpt><trkpt lat="42.40502925225113" lon="12.13207717982349"><ele>484.0</ele><time>2026-04-30T11:20:30.999Z</time></trkpt><trkpt lat="42.405092850770494" lon="12.132304870349536"><ele>484.0</ele><time>2026-04-30T11:20:31.999Z</time></trkpt><trkpt lat="42.405143064143076" lon="12.13252944269262"><ele>484.0</ele><time>2026-04-30T11:20:32.999Z</time></trkpt><trkpt lat="42.405154724369005" lon="12.132752665058804"><ele>485.33333333333337</ele><time>2026-04-30T11:20:33.999Z</time></trkpt><trkpt lat="42.405130112700576" lon="12.132973384417646"><ele>486.66666666666663</ele><time>2026-04-30T11:20:34.999Z</time></trkpt><trkpt lat="42.40508622717386" lon="12.133194023232754"><ele>488.0</ele><time>2026-04-30T11:20:35.999Z</time></trkpt><trkpt lat="42.4050244375704" lon="12.133410387922815"><ele>489.0</ele><time>2026-04-30T11:20:36.999Z</time></trkpt><trkpt lat="42.40494515377104" lon="12.133620250048185"><ele>490.0</ele><time>2026-04-30T11:20:37.999Z</time></trkpt><trkpt lat="42.404839131514976" lon="12.133818595671395"><ele>491.0</ele><time>2026-04-30T11:20:38.999Z</time></trkpt><trkpt lat="42.40473271808583" lon="12.134010952768918"><ele>490.66666666666663</ele><time>2026-04-30T11:20:39.999Z</time></trkpt><trkpt lat="42.40463144623432" lon="12.134191409644837"><ele>490.33333333333337</ele><time>2026-04-30T11:20:40.999Z</time></trkpt><trkpt lat="42.404535328959675" lon="12.134362681503433"><ele>490.0</ele><time>2026-04-30T11:20:41.999Z</time></trkpt><trkpt lat="42.40444679840706" lon="12.13452043450419"><ele>490.0</ele><time>2026-04-30T11:20:42.999Z</time></trkpt><trkpt lat="42.404372800778575" lon="12.13465229154041"><ele>490.0</ele><time>2026-04-30T11:20:43.999Z</time></trkpt><trkpt lat="42.40430998991312" lon="12.1347657760332"><ele>490.0</ele><time>2026-04-30T11:20:44.999Z</time></trkpt><trkpt lat="42.40425849433794" lon="12.134859882582806"><ele>490.0</ele><time>2026-04-30T11:20:45.999Z</time></trkpt><trkpt lat="42.4041883148985" lon="12.134961484768477"><ele>490.0</ele><time>2026-04-30T11:20:47.999Z</time></trkpt><trkpt lat="42.40413669183495" lon="12.135037176648625"><ele>491.4</ele><time>2026-04-30T11:20:49.999Z</time></trkpt><trkpt lat="42.40406000639641" lon="12.135057799824084"><ele>492.8</ele><time>2026-04-30T11:21:27Z</time></trkpt><trkpt lat="42.40400823355325" lon="12.135130209125467"><ele>494.20000000000005</ele><time>2026-04-30T11:27:54Z</time></trkpt><trkpt lat="42.40396403366241" lon="12.135235177816117"><ele>495.6</ele><time>2026-04-30T11:27:56Z</time></trkpt><trkpt lat="42.403935341214655" lon="12.13539713720108"><ele>497.0</ele><time>2026-04-30T11:27:58Z</time></trkpt><trkpt lat="42.40389888218983" lon="12.135505855509608"><ele>496.99999999999994</ele><time>2026-04-30T11:27:59Z</time></trkpt><trkpt lat="42.403863207796135" lon="12.13558452694346"><ele>497.0</ele><time>2026-04-30T11:28:00Z</time></trkpt><trkpt lat="42.40382727183298" lon="12.135693091445528"><ele>497.0</ele><time>2026-04-30T11:28:01Z</time></trkpt><trkpt lat="42.40378120701243" lon="12.13579758693307"><ele>497.0</ele><time>2026-04-30T11:28:02Z</time></trkpt><trkpt lat="42.40369401262648" lon="12.13586938128482"><ele>496.99999999999994</ele><time>2026-04-30T11:28:03Z</time></trkpt><trkpt lat="42.40363479629955" lon="12.135964366676312"><ele>497.0</ele><time>2026-04-30T11:28:04Z</time></trkpt><trkpt lat="42.403604409906414" lon="12.136102198114308"><ele>498.40000000000003</ele><time>2026-04-30T11:28:05Z</time></trkpt><trkpt lat="42.40353639070514" lon="12.136200217151966"><ele>499.80000000000007</ele><time>2026-04-30T11:28:06Z</time></trkpt><trkpt lat="42.40346334387359" lon="12.136297422742151"><ele>501.2</ele><time>2026-04-30T11:28:07Z</time></trkpt><trkpt lat="42.40338967392233" lon="12.136391591211492"><ele>502.6</ele><time>2026-04-30T11:28:08Z</time></trkpt><trkpt lat="42.40329363032325" lon="12.136463761252882"><ele>504.0</ele><time>2026-04-30T11:28:09Z</time></trkpt><trkpt lat="42.40322217756045" lon="12.136565957901174"><ele>504.75</ele><time>2026-04-30T11:28:10Z</time></trkpt><trkpt lat="42.4031531755038" lon="12.136681073438243"><ele>505.5</ele><time>2026-04-30T11:28:11Z</time></trkpt><trkpt lat="42.40308874580694" lon="12.136809491491691"><ele>506.25</ele><time>2026-04-30T11:28:12Z</time></trkpt><trkpt lat="42.40303772956436" lon="12.136966024898046"><ele>507.0</ele><time>2026-04-30T11:28:13Z</time></trkpt><trkpt lat="42.40300150493046" lon="12.137134025470981"><ele>507.0</ele><time>2026-04-30T11:28:14Z</time></trkpt><trkpt lat="42.4030007059274" lon="12.137315491793988"><ele>507.0</ele><time>2026-04-30T11:28:14.999Z</time></trkpt><trkpt lat="42.40298909325746" lon="12.137490955347456"><ele>507.0</ele><time>2026-04-30T11:28:15.999Z</time></trkpt><trkpt lat="42.4030077082088" lon="12.137664977011395"><ele>507.0</ele><time>2026-04-30T11:28:16.999Z</time></trkpt><trkpt lat="42.40303048610425" lon="12.137846916567067"><ele>508.25</ele><time>2026-04-30T11:28:17.999Z</time></trkpt><trkpt lat="42.40306320921196" lon="12.13803984549586"><ele>509.5</ele><time>2026-04-30T11:28:18.999Z</time></trkpt><trkpt lat="42.40310595529681" lon="12.138223434168077"><ele>510.75</ele><time>2026-04-30T11:28:19.999Z</time></trkpt><trkpt lat="42.4031628878577" lon="12.138393298398103"><ele>512.0</ele><time>2026-04-30T11:28:20.999Z</time></trkpt><trkpt lat="42.40324222443674" lon="12.138546342843782"><ele>514.75</ele><time>2026-04-30T11:28:21.999Z</time></trkpt><trkpt lat="42.40333786886705" lon="12.13868217698749"><ele>517.5</ele><time>2026-04-30T11:28:22.999Z</time></trkpt><trkpt lat="42.40342634009046" lon="12.138811403301586"><ele>520.25</ele><time>2026-04-30T11:28:23.999Z</time></trkpt><trkpt lat="42.40350037762153" lon="12.13893558393564"><ele>523.0</ele><time>2026-04-30T11:28:24.999Z</time></trkpt><trkpt lat="42.40356961940832" lon="12.139078989771775"><ele>524.75</ele><time>2026-04-30T11:28:25.999Z</time></trkpt><trkpt lat="42.40359742467588" lon="12.13923776357205"><ele>526.5</ele><time>2026-04-30T11:28:26.999Z</time></trkpt><trkpt lat="42.40360032133971" lon="12.139395192663518"><ele>528.25</ele><time>2026-04-30T11:28:27.999Z</time></trkpt><trkpt lat="42.4035430049514" lon="12.139524422100239"><ele>530.0</ele><time>2026-04-30T11:28:28.999Z</time></trkpt><trkpt lat="42.40345420748132" lon="12.13967021470128"><ele>530.0</ele><time>2026-04-30T11:28:29.999Z</time></trkpt><trkpt lat="42.40335359757799" lon="12.139754573432079"><ele>530.0</ele><time>2026-04-30T11:28:30.999Z</time></trkpt><trkpt lat="42.403222240592974" lon="12.139799235155769"><ele>530.0</ele><time>2026-04-30T11:28:31.999Z</time></trkpt><trkpt lat="42.40308401464336" lon="12.13983530506899"><ele>530.0</ele><time>2026-04-30T11:28:32.999Z</time></trkpt><trkpt lat="42.40291432822687" lon="12.139892113885498"><ele>533.6666666666666</ele><time>2026-04-30T11:28:33.999Z</time></trkpt><trkpt lat="42.40280203400832" lon="12.139952284568576"><ele>537.3333333333334</ele><time>2026-04-30T11:28:34.999Z</time></trkpt><trkpt lat="42.40265330985966" lon="12.140083521846899"><ele>541.0</ele><time>2026-04-30T11:28:35.999Z</time></trkpt><trkpt lat="42.40255094943719" lon="12.140261209690975"><ele>541.0</ele><time>2026-04-30T11:28:36.999Z</time></trkpt><trkpt lat="42.402441131494705" lon="12.140424214066641"><ele>541.0</ele><time>2026-04-30T11:28:37.999Z</time></trkpt><trkpt lat="42.4023432125411" lon="12.140610339452921"><ele>541.0</ele><time>2026-04-30T11:28:38.999Z</time></trkpt><trkpt lat="42.40224794214777" lon="12.140791501474759"><ele>542.0</ele><time>2026-04-30T11:28:39.999Z</time></trkpt><trkpt lat="42.40215390284284" lon="12.14097331207792"><ele>543.0</ele><time>2026-04-30T11:28:40.999Z</time></trkpt><trkpt lat="42.40206607789461" lon="12.14117628295911"><ele>544.0</ele><time>2026-04-30T11:28:41.999Z</time></trkpt><trkpt lat="42.40196205266266" lon="12.141361955158198"><ele>546.3333333333334</ele><time>2026-04-30T11:28:42.999Z</time></trkpt><trkpt lat="42.40186601000347" lon="12.14156299847134"><ele>548.6666666666666</ele><time>2026-04-30T11:28:43.999Z</time></trkpt><trkpt lat="42.40177001505273" lon="12.141761839425433"><ele>551.0</ele><time>2026-04-30T11:28:44.999Z</time></trkpt><trkpt lat="42.40167076507836" lon="12.14195994824729"><ele>551.0</ele><time>2026-04-30T11:28:45.999Z</time></trkpt><trkpt lat="42.40157525440213" lon="12.142162828594417"><ele>551.0</ele><time>2026-04-30T11:28:46.999Z</time></trkpt><trkpt lat="42.401478144510186" lon="12.142364875140974"><ele>551.0</ele><time>2026-04-30T11:28:47.999Z</time></trkpt><trkpt lat="42.40137379265198" lon="12.142557131683777"><ele>551.0</ele><time>2026-04-30T11:28:48.999Z</time></trkpt><trkpt lat="42.4012620807768" lon="12.142740046393707"><ele>551.0</ele><time>2026-04-30T11:28:49.999Z</time></trkpt><trkpt lat="42.40111777400531" lon="12.14289131451944"><ele>551.0</ele><time>2026-04-30T11:28:50.999Z</time></trkpt><trkpt lat="42.4009805633886" lon="12.143051489789332"><ele>551.0</ele><time>2026-04-30T11:28:51.999Z</time></trkpt><trkpt lat="42.40084107370527" lon="12.14320331709114"><ele>551.0</ele><time>2026-04-30T11:28:52.999Z</time></trkpt><trkpt lat="42.40069861199053" lon="12.143354514603718"><ele>551.0</ele><time>2026-04-30T11:28:53.999Z</time></trkpt><trkpt lat="42.40054974594881" lon="12.143510005333683"><ele>553.3333333333333</ele><time>2026-04-30T11:28:54.999Z</time></trkpt><trkpt lat="42.40040296786706" lon="12.143659167177509"><ele>555.6666666666666</ele><time>2026-04-30T11:28:55.999Z</time></trkpt><trkpt lat="42.40025228427533" lon="12.143808065312445"><ele>558.0</ele><time>2026-04-30T11:28:56.999Z</time></trkpt><trkpt lat="42.40010017429743" lon="12.143954688788503"><ele>560.6666666666666</ele><time>2026-04-30T11:28:57.999Z</time></trkpt><trkpt lat="42.39994809720299" lon="12.144105667399614"><ele>563.3333333333333</ele><time>2026-04-30T11:28:58.999Z</time></trkpt><trkpt lat="42.39978915329506" lon="12.144238774733902"><ele>566.0</ele><time>2026-04-30T11:28:59.999Z</time></trkpt><trkpt lat="42.3996155417024" lon="12.144337204390169"><ele>566.0</ele><time>2026-04-30T11:29:00.999Z</time></trkpt><trkpt lat="42.39944477951822" lon="12.144443893341553"><ele>566.0</ele><time>2026-04-30T11:29:01.999Z</time></trkpt><trkpt lat="42.39926630365974" lon="12.144541697893846"><ele>566.0</ele><time>2026-04-30T11:29:02.999Z</time></trkpt><trkpt lat="42.399092362385005" lon="12.144658558324078"><ele>566.0</ele><time>2026-04-30T11:29:03.999Z</time></trkpt><trkpt lat="42.39890848488238" lon="12.144759134279774"><ele>566.0</ele><time>2026-04-30T11:29:04.999Z</time></trkpt><trkpt lat="42.398719837403824" lon="12.144860163254826"><ele>566.0</ele><time>2026-04-30T11:29:05.999Z</time></trkpt><trkpt lat="42.39852917583728" lon="12.144959920864414"><ele>568.0</ele><time>2026-04-30T11:29:06.999Z</time></trkpt><trkpt lat="42.398347558052336" lon="12.145070122497128"><ele>570.0</ele><time>2026-04-30T11:29:07.999Z</time></trkpt><trkpt lat="42.39816114552828" lon="12.1451717323556"><ele>572.0</ele><time>2026-04-30T11:29:08.999Z</time></trkpt><trkpt lat="42.397975312185686" lon="12.145273082338628"><ele>572.6666666666666</ele><time>2026-04-30T11:29:09.999Z</time></trkpt><trkpt lat="42.39778868143495" lon="12.145372544807831"><ele>573.3333333333334</ele><time>2026-04-30T11:29:10.999Z</time></trkpt><trkpt lat="42.39760129620352" lon="12.145471500784293"><ele>574.0</ele><time>2026-04-30T11:29:11.999Z</time></trkpt><trkpt lat="42.39741178194185" lon="12.145570238209661"><ele>574.0</ele><time>2026-04-30T11:29:12.999Z</time></trkpt><trkpt lat="42.39722771307416" lon="12.145675411019216"><ele>574.0</ele><time>2026-04-30T11:29:13.999Z</time></trkpt><trkpt lat="42.3970384107184" lon="12.145756586183149"><ele>574.0</ele><time>2026-04-30T11:29:14.998Z</time></trkpt><trkpt lat="42.39684959250776" lon="12.145849257022675"><ele>577.0</ele><time>2026-04-30T11:29:15.998Z</time></trkpt><trkpt lat="42.396659921311404" lon="12.145932447094802"><ele>580.0</ele><time>2026-04-30T11:29:16.998Z</time></trkpt><trkpt lat="42.3964672948383" lon="12.146001137784925"><ele>583.0</ele><time>2026-04-30T11:29:17.998Z</time></trkpt><trkpt lat="42.39628323502982" lon="12.146074614649699"><ele>584.6666666666667</ele><time>2026-04-30T11:29:18.998Z</time></trkpt><trkpt lat="42.396101698960415" lon="12.146122210416676"><ele>586.3333333333334</ele><time>2026-04-30T11:29:19.998Z</time></trkpt><trkpt lat="42.395926429133596" lon="12.146173135042643"><ele>588.0</ele><time>2026-04-30T11:29:20.998Z</time></trkpt><trkpt lat="42.39575828883478" lon="12.146237470851643"><ele>588.0</ele><time>2026-04-30T11:29:21.998Z</time></trkpt><trkpt lat="42.39559524194828" lon="12.146308907099566"><ele>588.0</ele><time>2026-04-30T11:29:22.998Z</time></trkpt><trkpt lat="42.39543934839105" lon="12.146391615064976"><ele>588.0</ele><time>2026-04-30T11:29:23.998Z</time></trkpt><trkpt lat="42.39529480778571" lon="12.146475386951153"><ele>589.5</ele><time>2026-04-30T11:29:24.998Z</time></trkpt><trkpt lat="42.39516827759482" lon="12.1465532642294"><ele>591.0</ele><time>2026-04-30T11:29:25.998Z</time></trkpt><trkpt lat="42.39504279684691" lon="12.146629094929352"><ele>592.5</ele><time>2026-04-30T11:29:26.998Z</time></trkpt><trkpt lat="42.3949207330353" lon="12.146723038084701"><ele>594.0</ele><time>2026-04-30T11:29:27.998Z</time></trkpt><trkpt lat="42.39480299432438" lon="12.146833636947285"><ele>594.0</ele><time>2026-04-30T11:29:28.998Z</time></trkpt><trkpt lat="42.39468608186773" lon="12.146965043210708"><ele>594.0</ele><time>2026-04-30T11:29:29.998Z</time></trkpt><trkpt lat="42.394590422072355" lon="12.147115288944695"><ele>594.0</ele><time>2026-04-30T11:29:30.998Z</time></trkpt><trkpt lat="42.39452214944383" lon="12.147294547326753"><ele>594.0</ele><time>2026-04-30T11:29:31.998Z</time></trkpt><trkpt lat="42.394438993604396" lon="12.147464382634048"><ele>596.5</ele><time>2026-04-30T11:29:32.998Z</time></trkpt><trkpt lat="42.39436538657195" lon="12.147637096133275"><ele>599.0</ele><time>2026-04-30T11:29:33.998Z</time></trkpt><trkpt lat="42.39429531840842" lon="12.147803405497937"><ele>601.5</ele><time>2026-04-30T11:29:34.998Z</time></trkpt><trkpt lat="42.39423303188047" lon="12.147966945675817"><ele>604.0</ele><time>2026-04-30T11:29:35.998Z</time></trkpt><trkpt lat="42.39416371614498" lon="12.148132227092928"><ele>604.6</ele><time>2026-04-30T11:29:36.998Z</time></trkpt><trkpt lat="42.394105826717826" lon="12.148269929666416"><ele>605.2</ele><time>2026-04-30T11:29:37.998Z</time></trkpt><trkpt lat="42.39406502861305" lon="12.148390369636282"><ele>605.8000000000001</ele><time>2026-04-30T11:29:38.998Z</time></trkpt><trkpt lat="42.394034179830356" lon="12.148506929577504"><ele>606.4</ele><time>2026-04-30T11:29:39.998Z</time></trkpt><trkpt lat="42.394008584892035" lon="12.148626628049973"><ele>607.0</ele><time>2026-04-30T11:29:40.998Z</time></trkpt><trkpt lat="42.393978638911584" lon="12.148752701173105"><ele>607.0</ele><time>2026-04-30T11:29:41.998Z</time></trkpt><trkpt lat="42.393948037553336" lon="12.148880931906373"><ele>607.0</ele><time>2026-04-30T11:29:42.998Z</time></trkpt><trkpt lat="42.39391905476739" lon="12.149016652660851"><ele>607.0</ele><time>2026-04-30T11:29:43.998Z</time></trkpt><trkpt lat="42.39389444434686" lon="12.14915941404171"><ele>607.0</ele><time>2026-04-30T11:29:44.998Z</time></trkpt><trkpt lat="42.393887486521805" lon="12.149322100886673"><ele>607.0</ele><time>2026-04-30T11:29:45.998Z</time></trkpt><trkpt lat="42.39390278157292" lon="12.149489354946951"><ele>607.75</ele><time>2026-04-30T11:29:46.998Z</time></trkpt><trkpt lat="42.39392663287825" lon="12.149655403337826"><ele>608.5</ele><time>2026-04-30T11:29:47.998Z</time></trkpt><trkpt lat="42.39395092036999" lon="12.149820804927895"><ele>609.25</ele><time>2026-04-30T11:29:49Z</time></trkpt><trkpt lat="42.393975424151876" lon="12.14998852116753"><ele>610.0</ele><time>2026-04-30T11:29:50Z</time></trkpt><trkpt lat="42.394006384706096" lon="12.150164392853162"><ele>611.0</ele><time>2026-04-30T11:29:51Z</time></trkpt><trkpt lat="42.394034132159206" lon="12.150342250025789"><ele>612.0</ele><time>2026-04-30T11:29:52Z</time></trkpt><trkpt lat="42.394063385826335" lon="12.15052401258977"><ele>613.0</ele><time>2026-04-30T11:29:53Z</time></trkpt><trkpt lat="42.39409428763966" lon="12.15071338674422"><ele>614.0</ele><time>2026-04-30T11:29:54Z</time></trkpt><trkpt lat="42.394124480086084" lon="12.150916023471517"><ele>615.0</ele><time>2026-04-30T11:29:55Z</time></trkpt><trkpt lat="42.394152314921676" lon="12.151128882275872"><ele>616.0</ele><time>2026-04-30T11:29:56Z</time></trkpt><trkpt lat="42.39418262850045" lon="12.151339414745193"><ele>617.0</ele><time>2026-04-30T11:29:57Z</time></trkpt><trkpt lat="42.3942134439242" lon="12.151564029757704"><ele>618.3333333333333</ele><time>2026-04-30T11:29:58Z</time></trkpt><trkpt lat="42.394252918513125" lon="12.15179523154601"><ele>619.6666666666666</ele><time>2026-04-30T11:29:59Z</time></trkpt><trkpt lat="42.394301079523515" lon="12.152035370558107"><ele>621.0</ele><time>2026-04-30T11:30:00Z</time></trkpt><trkpt lat="42.394349374735945" lon="12.15228349241813"><ele>623.0</ele><time>2026-04-30T11:30:01Z</time></trkpt><trkpt lat="42.394405519585675" lon="12.152543008515003"><ele>625.0</ele><time>2026-04-30T11:30:02Z</time></trkpt><trkpt lat="42.3944583883752" lon="12.152811188270395"><ele>627.0</ele><time>2026-04-30T11:30:03Z</time></trkpt><trkpt lat="42.39450508507982" lon="12.153084594393675"><ele>628.6666666666666</ele><time>2026-04-30T11:30:04Z</time></trkpt><trkpt lat="42.394538421566835" lon="12.153357462961502"><ele>630.3333333333333</ele><time>2026-04-30T11:30:05Z</time></trkpt><trkpt lat="42.39455425581705" lon="12.153622335797426"><ele>632.0</ele><time>2026-04-30T11:30:06Z</time></trkpt><trkpt lat="42.394557618187584" lon="12.153899935425038"><ele>634.0</ele><time>2026-04-30T11:30:07Z</time></trkpt><trkpt lat="42.39452840065169" lon="12.154162918465147"><ele>636.0</ele><time>2026-04-30T11:30:08Z</time></trkpt><trkpt lat="42.39445896627191" lon="12.154406251468822"><ele>638.0</ele><time>2026-04-30T11:30:09Z</time></trkpt><trkpt lat="42.39440264479718" lon="12.154637927597987"><ele>638.0</ele><time>2026-04-30T11:30:10Z</time></trkpt><trkpt lat="42.3943491469331" lon="12.154850457966496"><ele>638.0</ele><time>2026-04-30T11:30:11Z</time></trkpt><trkpt lat="42.39429582129605" lon="12.155046893259447"><ele>638.0</ele><time>2026-04-30T11:30:12Z</time></trkpt><trkpt lat="42.39423483044116" lon="12.155223066108922"><ele>639.5</ele><time>2026-04-30T11:30:13Z</time></trkpt><trkpt lat="42.394164760944285" lon="12.155376874714086"><ele>641.0</ele><time>2026-04-30T11:30:14Z</time></trkpt><trkpt lat="42.39408512891995" lon="12.155512652809927"><ele>642.5</ele><time>2026-04-30T11:30:15Z</time></trkpt><trkpt lat="42.39399650607264" lon="12.1556463225308"><ele>644.0</ele><time>2026-04-30T11:30:16Z</time></trkpt><trkpt lat="42.39390440900481" lon="12.155776698832762"><ele>646.0</ele><time>2026-04-30T11:30:17Z</time></trkpt><trkpt lat="42.39381227971577" lon="12.155911246853083"><ele>648.0</ele><time>2026-04-30T11:30:18Z</time></trkpt><trkpt lat="42.39372579373734" lon="12.156055598011891"><ele>650.0</ele><time>2026-04-30T11:30:19Z</time></trkpt><trkpt lat="42.393650087575494" lon="12.15621317433212"><ele>652.0</ele><time>2026-04-30T11:30:20Z</time></trkpt><trkpt lat="42.39358086707263" lon="12.156392549152399"><ele>652.3333333333334</ele><time>2026-04-30T11:30:21Z</time></trkpt><trkpt lat="42.393525988087454" lon="12.156580057541591"><ele>652.6666666666666</ele><time>2026-04-30T11:30:22Z</time></trkpt><trkpt lat="42.39349360429969" lon="12.156779640905889"><ele>653.0</ele><time>2026-04-30T11:30:23Z</time></trkpt><trkpt lat="42.393451046979635" lon="12.156982502466919"><ele>653.0</ele><time>2026-04-30T11:30:24Z</time></trkpt><trkpt lat="42.39342329366361" lon="12.157196326490954"><ele>653.0</ele><time>2026-04-30T11:30:25Z</time></trkpt><trkpt lat="42.39340837415393" lon="12.157428865024626"><ele>653.0</ele><time>2026-04-30T11:30:26Z</time></trkpt><trkpt lat="42.393365944349945" lon="12.157665985639984"><ele>653.0</ele><time>2026-04-30T11:30:27Z</time></trkpt><trkpt lat="42.39333934830147" lon="12.157922767361786"><ele>653.0</ele><time>2026-04-30T11:30:28Z</time></trkpt><trkpt lat="42.393313956656634" lon="12.158194170709933"><ele>653.0</ele><time>2026-04-30T11:30:29Z</time></trkpt><trkpt lat="42.393292649214494" lon="12.15848745202255"><ele>654.5</ele><time>2026-04-30T11:30:30Z</time></trkpt><trkpt lat="42.39327501475103" lon="12.158796508688184"><ele>656.0</ele><time>2026-04-30T11:30:30.999Z</time></trkpt><trkpt lat="42.39325912399472" lon="12.159113355643536"><ele>657.0</ele><time>2026-04-30T11:30:31.999Z</time></trkpt><trkpt lat="42.393243629509" lon="12.1594393914574"><ele>658.0</ele><time>2026-04-30T11:30:32.999Z</time></trkpt><trkpt lat="42.393242678619444" lon="12.15973749413197"><ele>659.0</ele><time>2026-04-30T11:30:33.999Z</time></trkpt><trkpt lat="42.39319699522229" lon="12.1600083675729"><ele>660.0</ele><time>2026-04-30T11:30:34.999Z</time></trkpt><trkpt lat="42.39311183765724" lon="12.160246793511302"><ele>661.0</ele><time>2026-04-30T11:30:35.999Z</time></trkpt><trkpt lat="42.393023019497306" lon="12.160476663510984"><ele>663.6666666666667</ele><time>2026-04-30T11:30:36.999Z</time></trkpt><trkpt lat="42.39293017585217" lon="12.160710777645946"><ele>666.3333333333334</ele><time>2026-04-30T11:30:37.999Z</time></trkpt><trkpt lat="42.39284380207704" lon="12.16094636483081"><ele>669.0</ele><time>2026-04-30T11:30:38.999Z</time></trkpt><trkpt lat="42.39276555732292" lon="12.161201724353205"><ele>669.0</ele><time>2026-04-30T11:30:39.999Z</time></trkpt><trkpt lat="42.39269762513336" lon="12.161456466939244"><ele>669.0</ele><time>2026-04-30T11:30:40.999Z</time></trkpt><trkpt lat="42.39263535539411" lon="12.161709462390938"><ele>669.0</ele><time>2026-04-30T11:30:41.999Z</time></trkpt><trkpt lat="42.392575811573984" lon="12.161960880175691"><ele>669.6666666666666</ele><time>2026-04-30T11:30:42.999Z</time></trkpt><trkpt lat="42.39251750895486" lon="12.162212808001087"><ele>670.3333333333333</ele><time>2026-04-30T11:30:43.999Z</time></trkpt><trkpt lat="42.39246349057237" lon="12.16246550628399"><ele>671.0</ele><time>2026-04-30T11:30:44.999Z</time></trkpt><trkpt lat="42.392417122382994" lon="12.16271745550438"><ele>672.3333333333333</ele><time>2026-04-30T11:30:45.999Z</time></trkpt><trkpt lat="42.39239924532536" lon="12.162974414793371"><ele>673.6666666666666</ele><time>2026-04-30T11:30:46.999Z</time></trkpt><trkpt lat="42.39243565696785" lon="12.16321483243331"><ele>675.0</ele><time>2026-04-30T11:30:47.999Z</time></trkpt><trkpt lat="42.39248260952343" lon="12.163446275445573"><ele>677.0</ele><time>2026-04-30T11:30:48.999Z</time></trkpt><trkpt lat="42.39255295311706" lon="12.16367482261452"><ele>679.0</ele><time>2026-04-30T11:30:49.999Z</time></trkpt><trkpt lat="42.39263578513033" lon="12.163903523581224"><ele>681.0</ele><time>2026-04-30T11:30:50.999Z</time></trkpt><trkpt lat="42.39273055710415" lon="12.164132164183874"><ele>683.3333333333334</ele><time>2026-04-30T11:30:51.999Z</time></trkpt><trkpt lat="42.392824078583104" lon="12.164367683391811"><ele>685.6666666666667</ele><time>2026-04-30T11:30:52.999Z</time></trkpt><trkpt lat="42.39291255105813" lon="12.164607445026146"><ele>688.0</ele><time>2026-04-30T11:30:53.999Z</time></trkpt><trkpt lat="42.3929939419051" lon="12.164853006011063"><ele>685.3333333333334</ele><time>2026-04-30T11:30:54.999Z</time></trkpt><trkpt lat="42.39306963438215" lon="12.165099728745144"><ele>682.6666666666666</ele><time>2026-04-30T11:30:55.999Z</time></trkpt><trkpt lat="42.3931349316814" lon="12.165346552081955"><ele>680.0</ele><time>2026-04-30T11:30:56.999Z</time></trkpt><trkpt lat="42.39318580872092" lon="12.165589299561521"><ele>681.3333333333333</ele><time>2026-04-30T11:30:57.999Z</time></trkpt><trkpt lat="42.39322976012613" lon="12.1658406170367"><ele>682.6666666666666</ele><time>2026-04-30T11:30:58.999Z</time></trkpt><trkpt lat="42.39326321301783" lon="12.166102075238607"><ele>684.0</ele><time>2026-04-30T11:30:59.999Z</time></trkpt><trkpt lat="42.39327942350032" lon="12.166373166313656"><ele>686.0</ele><time>2026-04-30T11:31:00.999Z</time></trkpt><trkpt lat="42.39325473351572" lon="12.166648928495848"><ele>688.0</ele><time>2026-04-30T11:31:01.999Z</time></trkpt><trkpt lat="42.3932244143494" lon="12.166929850866023"><ele>690.0</ele><time>2026-04-30T11:31:02.999Z</time></trkpt><trkpt lat="42.39318699221344" lon="12.167211617241074"><ele>690.0</ele><time>2026-04-30T11:31:03.999Z</time></trkpt><trkpt lat="42.393159549800444" lon="12.167492376279862"><ele>690.0</ele><time>2026-04-30T11:31:04.999Z</time></trkpt><trkpt lat="42.39312268131923" lon="12.167772011866038"><ele>690.0</ele><time>2026-04-30T11:31:05.999Z</time></trkpt><trkpt lat="42.393090711046014" lon="12.168054083012738"><ele>691.0</ele><time>2026-04-30T11:31:06.999Z</time></trkpt><trkpt lat="42.393059696311944" lon="12.168334175822764"><ele>692.0</ele><time>2026-04-30T11:31:07.999Z</time></trkpt><trkpt lat="42.3930313621763" lon="12.168617089012287"><ele>693.0</ele><time>2026-04-30T11:31:08.999Z</time></trkpt><trkpt lat="42.39300950202152" lon="12.168901780409529"><ele>694.0</ele><time>2026-04-30T11:31:09.999Z</time></trkpt><trkpt lat="42.39299897873089" lon="12.169191059568115"><ele>695.0</ele><time>2026-04-30T11:31:10.999Z</time></trkpt><trkpt lat="42.39300382420874" lon="12.16948269785996"><ele>696.0</ele><time>2026-04-30T11:31:11.999Z</time></trkpt><trkpt lat="42.39301884071263" lon="12.169781265839532"><ele>698.0</ele><time>2026-04-30T11:31:12.999Z</time></trkpt><trkpt lat="42.39303684364801" lon="12.170080449632193"><ele>700.0</ele><time>2026-04-30T11:31:13.999Z</time></trkpt><trkpt lat="42.39304479962031" lon="12.170377771503748"><ele>702.0</ele><time>2026-04-30T11:31:14.999Z</time></trkpt><trkpt lat="42.39303401352105" lon="12.170667879457362"><ele>703.3333333333334</ele><time>2026-04-30T11:31:15.999Z</time></trkpt><trkpt lat="42.3929970304122" lon="12.170944787610466"><ele>704.6666666666667</ele><time>2026-04-30T11:31:16.999Z</time></trkpt><trkpt lat="42.39290030819475" lon="12.171174671663527"><ele>706.0</ele><time>2026-04-30T11:31:17.999Z</time></trkpt><trkpt lat="42.39280736314126" lon="12.171344384393155"><ele>706.0</ele><time>2026-04-30T11:31:18.999Z</time></trkpt><trkpt lat="42.39271308931058" lon="12.171500880570207"><ele>706.0</ele><time>2026-04-30T11:31:19.999Z</time></trkpt><trkpt lat="42.39260605653513" lon="12.171654599518996"><ele>706.0</ele><time>2026-04-30T11:31:20.999Z</time></trkpt><trkpt lat="42.3924720446434" lon="12.171790318611587"><ele>705.0</ele><time>2026-04-30T11:31:21.999Z</time></trkpt><trkpt lat="42.392362036259485" lon="12.171964629718238"><ele>704.0</ele><time>2026-04-30T11:31:22.999Z</time></trkpt><trkpt lat="42.392183382785866" lon="12.172072407220215"><ele>703.0</ele><time>2026-04-30T11:31:23.999Z</time></trkpt><trkpt lat="42.392014313737775" lon="12.172184767826105"><ele>705.6666666666667</ele><time>2026-04-30T11:31:24.999Z</time></trkpt><trkpt lat="42.39183942819391" lon="12.172297765815316"><ele>708.3333333333334</ele><time>2026-04-30T11:31:25.999Z</time></trkpt><trkpt lat="42.39166741815358" lon="12.172406039109113"><ele>711.0</ele><time>2026-04-30T11:31:26.999Z</time></trkpt><trkpt lat="42.39148224637435" lon="12.172516969656298"><ele>710.6666666666666</ele><time>2026-04-30T11:31:27.999Z</time></trkpt><trkpt lat="42.391282279982434" lon="12.172623113932175"><ele>710.3333333333333</ele><time>2026-04-30T11:31:28.999Z</time></trkpt><trkpt lat="42.391092194885886" lon="12.172755401063622"><ele>710.0</ele><time>2026-04-30T11:31:29.999Z</time></trkpt><trkpt lat="42.39090145766985" lon="12.172913559635356"><ele>710.0</ele><time>2026-04-30T11:31:30.998Z</time></trkpt><trkpt lat="42.39072070676216" lon="12.17310848474122"><ele>710.0</ele><time>2026-04-30T11:31:31.998Z</time></trkpt><trkpt lat="42.39054259601279" lon="12.173308029106112"><ele>714.0</ele><time>2026-04-30T11:31:32.998Z</time></trkpt><trkpt lat="42.39038131058791" lon="12.173537133138398"><ele>718.0</ele><time>2026-04-30T11:31:33.998Z</time></trkpt><trkpt lat="42.3902236315051" lon="12.17377405568487"><ele>718.5</ele><time>2026-04-30T11:31:34.998Z</time></trkpt><trkpt lat="42.39011444333696" lon="12.174052134224516"><ele>719.0</ele><time>2026-04-30T11:31:35.998Z</time></trkpt><trkpt lat="42.389986933126345" lon="12.174315273861298"><ele>719.0</ele><time>2026-04-30T11:31:36.998Z</time></trkpt><trkpt lat="42.38986147757366" lon="12.174584478610619"><ele>719.0</ele><time>2026-04-30T11:31:37.998Z</time></trkpt><trkpt lat="42.389722874454975" lon="12.174838929496186"><ele>722.0</ele><time>2026-04-30T11:31:38.998Z</time></trkpt><trkpt lat="42.389579978437375" lon="12.175101911516546"><ele>725.0</ele><time>2026-04-30T11:31:39.998Z</time></trkpt><trkpt lat="42.38944956919223" lon="12.175366396562788"><ele>725.0</ele><time>2026-04-30T11:31:40.998Z</time></trkpt><trkpt lat="42.38931741422945" lon="12.175633060029092"><ele>725.0</ele><time>2026-04-30T11:31:41.998Z</time></trkpt><trkpt lat="42.3891848642568" lon="12.175903579663187"><ele>725.0</ele><time>2026-04-30T11:31:42.998Z</time></trkpt><trkpt lat="42.389044588671474" lon="12.176193232480863"><ele>725.0</ele><time>2026-04-30T11:31:43.998Z</time></trkpt><trkpt lat="42.38894218919516" lon="12.176492092722768"><ele>725.0</ele><time>2026-04-30T11:31:44.998Z</time></trkpt><trkpt lat="42.38884044373686" lon="12.17679714554549"><ele>725.0</ele><time>2026-04-30T11:31:45.998Z</time></trkpt><trkpt lat="42.388720860021444" lon="12.17711737526347"><ele>725.0</ele><time>2026-04-30T11:31:46.998Z</time></trkpt><trkpt lat="42.3886244390855" lon="12.177434978567472"><ele>725.0</ele><time>2026-04-30T11:31:47.998Z</time></trkpt><trkpt lat="42.3885468826546" lon="12.1777795122613"><ele>725.0</ele><time>2026-04-30T11:31:48.998Z</time></trkpt><trkpt lat="42.388451648471936" lon="12.17811014407671"><ele>725.0</ele><time>2026-04-30T11:31:49.998Z</time></trkpt><trkpt lat="42.388352288853" lon="12.178434626271926"><ele>727.0</ele><time>2026-04-30T11:31:50.998Z</time></trkpt><trkpt lat="42.388253567939564" lon="12.178757181335419"><ele>729.0</ele><time>2026-04-30T11:31:51.998Z</time></trkpt><trkpt lat="42.38815181432582" lon="12.17907166249873"><ele>731.0</ele><time>2026-04-30T11:31:52.998Z</time></trkpt><trkpt lat="42.3880536689493" lon="12.17938093767443"><ele>733.0</ele><time>2026-04-30T11:31:54Z</time></trkpt><trkpt lat="42.38796430301168" lon="12.179682460446394"><ele>739.0</ele><time>2026-04-30T11:31:55Z</time></trkpt><trkpt lat="42.38787639025613" lon="12.17997243850315"><ele>745.0</ele><time>2026-04-30T11:31:56Z</time></trkpt><trkpt lat="42.387794967769345" lon="12.180252549102983"><ele>745.0</ele><time>2026-04-30T11:31:57Z</time></trkpt><trkpt lat="42.38771823442084" lon="12.180516523369699"><ele>745.0</ele><time>2026-04-30T11:31:58Z</time></trkpt><trkpt lat="42.38764261118633" lon="12.180763920344038"><ele>745.0</ele><time>2026-04-30T11:31:59Z</time></trkpt><trkpt lat="42.387569029842794" lon="12.180996214319688"><ele>747.6666666666667</ele><time>2026-04-30T11:32:00Z</time></trkpt><trkpt lat="42.387485010494906" lon="12.181202377864976"><ele>750.3333333333334</ele><time>2026-04-30T11:32:01Z</time></trkpt><trkpt lat="42.38737499927202" lon="12.181365457676089"><ele>753.0</ele><time>2026-04-30T11:32:02Z</time></trkpt><trkpt lat="42.387229029543526" lon="12.181506581248469"><ele>754.3333333333334</ele><time>2026-04-30T11:32:03Z</time></trkpt><trkpt lat="42.387065499755636" lon="12.181615802020252"><ele>755.6666666666667</ele><time>2026-04-30T11:32:04Z</time></trkpt><trkpt lat="42.3868934089729" lon="12.181720065853465"><ele>757.0</ele><time>2026-04-30T11:32:05Z</time></trkpt><trkpt lat="42.386722800421914" lon="12.181825575620623"><ele>757.0</ele><time>2026-04-30T11:32:06Z</time></trkpt><trkpt lat="42.38655277773949" lon="12.181929809827775"><ele>757.0</ele><time>2026-04-30T11:32:07Z</time></trkpt><trkpt lat="42.38637527836757" lon="12.182031586894214"><ele>757.0</ele><time>2026-04-30T11:32:08Z</time></trkpt><trkpt lat="42.38619989983425" lon="12.182127845068488"><ele>757.6666666666667</ele><time>2026-04-30T11:32:09Z</time></trkpt><trkpt lat="42.38602099238242" lon="12.182213662968492"><ele>758.3333333333334</ele><time>2026-04-30T11:32:10Z</time></trkpt><trkpt lat="42.385813721024014" lon="12.182285556185729"><ele>759.0</ele><time>2026-04-30T11:32:11Z</time></trkpt><trkpt lat="42.38561606020125" lon="12.182359880771852"><ele>759.3333333333334</ele><time>2026-04-30T11:32:12Z</time></trkpt><trkpt lat="42.385423704482406" lon="12.182436753286659"><ele>759.6666666666667</ele><time>2026-04-30T11:32:13Z</time></trkpt><trkpt lat="42.38522659022995" lon="12.182508086455664"><ele>760.0</ele><time>2026-04-30T11:32:14Z</time></trkpt><trkpt lat="42.38501718385464" lon="12.182575866685147"><ele>760.0</ele><time>2026-04-30T11:32:15Z</time></trkpt><trkpt lat="42.384819610291856" lon="12.182651301875767"><ele>760.0</ele><time>2026-04-30T11:32:16Z</time></trkpt><trkpt lat="42.38462062508919" lon="12.182727904350307"><ele>760.0</ele><time>2026-04-30T11:32:17Z</time></trkpt><trkpt lat="42.38441401401214" lon="12.182792677636725"><ele>761.0</ele><time>2026-04-30T11:32:18Z</time></trkpt><trkpt lat="42.38420535435077" lon="12.182857500342367"><ele>762.0</ele><time>2026-04-30T11:32:19Z</time></trkpt><trkpt lat="42.38399270763399" lon="12.18290965556557"><ele>763.0</ele><time>2026-04-30T11:32:20Z</time></trkpt><trkpt lat="42.3837709741847" lon="12.182941268195206"><ele>764.0</ele><time>2026-04-30T11:32:21Z</time></trkpt><trkpt lat="42.383543552198745" lon="12.182951415243927"><ele>765.0</ele><time>2026-04-30T11:32:22Z</time></trkpt><trkpt lat="42.383318005917396" lon="12.18296277838819"><ele>765.0</ele><time>2026-04-30T11:32:23Z</time></trkpt><trkpt lat="42.38309552884158" lon="12.18299360663006"><ele>765.0</ele><time>2026-04-30T11:32:24Z</time></trkpt><trkpt lat="42.382869765082965" lon="12.183040662762904"><ele>764.5</ele><time>2026-04-30T11:32:25Z</time></trkpt><trkpt lat="42.38264481313248" lon="12.183111832078657"><ele>764.0</ele><time>2026-04-30T11:32:26Z</time></trkpt><trkpt lat="42.38243034831068" lon="12.183214431441263"><ele>766.5</ele><time>2026-04-30T11:32:27Z</time></trkpt><trkpt lat="42.38222335618143" lon="12.18334592686394"><ele>769.0</ele><time>2026-04-30T11:32:28Z</time></trkpt><trkpt lat="42.382029489986614" lon="12.183506374609081"><ele>770.5</ele><time>2026-04-30T11:32:29Z</time></trkpt><trkpt lat="42.381852021888626" lon="12.183698860834188"><ele>772.0</ele><time>2026-04-30T11:32:30Z</time></trkpt><trkpt lat="42.381689673289394" lon="12.183919818775548"><ele>772.5</ele><time>2026-04-30T11:32:31Z</time></trkpt><trkpt lat="42.38155296256243" lon="12.184162466319059"><ele>773.0</ele><time>2026-04-30T11:32:32Z</time></trkpt><trkpt lat="42.381400257443524" lon="12.18439928405758"><ele>773.6666666666667</ele><time>2026-04-30T11:32:33Z</time></trkpt><trkpt lat="42.38125112669998" lon="12.184624676912502"><ele>774.3333333333333</ele><time>2026-04-30T11:32:34Z</time></trkpt><trkpt lat="42.38111681944328" lon="12.184840120388321"><ele>775.0</ele><time>2026-04-30T11:32:35Z</time></trkpt><trkpt lat="42.38096833288085" lon="12.185053207080832"><ele>775.6666666666666</ele><time>2026-04-30T11:32:36Z</time></trkpt><trkpt lat="42.380809620358406" lon="12.185212014672116"><ele>776.3333333333333</ele><time>2026-04-30T11:32:37Z</time></trkpt><trkpt lat="42.38063985316476" lon="12.18532779618976"><ele>777.0</ele><time>2026-04-30T11:32:38Z</time></trkpt><trkpt lat="42.380469546931906" lon="12.185414031509504"><ele>778.6666666666667</ele><time>2026-04-30T11:32:39Z</time></trkpt><trkpt lat="42.38031480761207" lon="12.185436841326233"><ele>780.3333333333334</ele><time>2026-04-30T11:32:40Z</time></trkpt><trkpt lat="42.380170316661925" lon="12.185372952945976"><ele>782.0</ele><time>2026-04-30T11:32:41Z</time></trkpt><trkpt lat="42.38003019129572" lon="12.185262776125414"><ele>782.0</ele><time>2026-04-30T11:32:42Z</time></trkpt><trkpt lat="42.37989125855886" lon="12.185150869052078"><ele>782.0</ele><time>2026-04-30T11:32:43Z</time></trkpt><trkpt lat="42.37974383992844" lon="12.185055130413009"><ele>782.0</ele><time>2026-04-30T11:32:44Z</time></trkpt><trkpt lat="42.379574916212334" lon="12.184991834555024"><ele>783.6666666666667</ele><time>2026-04-30T11:32:45Z</time></trkpt><trkpt lat="42.37940137041166" lon="12.1849341482691"><ele>785.3333333333333</ele><time>2026-04-30T11:32:46Z</time></trkpt><trkpt lat="42.37922231222228" lon="12.184898771191266"><ele>787.0</ele><time>2026-04-30T11:32:47Z</time></trkpt><trkpt lat="42.37904918179823" lon="12.184901201510336"><ele>787.0</ele><time>2026-04-30T11:32:47.999Z</time></trkpt><trkpt lat="42.378877336890945" lon="12.184941023689676"><ele>787.0</ele><time>2026-04-30T11:32:48.999Z</time></trkpt><trkpt lat="42.37870855444407" lon="12.184973816676038"><ele>787.0</ele><time>2026-04-30T11:32:49.999Z</time></trkpt><trkpt lat="42.37855934734161" lon="12.185006815280031"><ele>786.6666666666666</ele><time>2026-04-30T11:32:50.999Z</time></trkpt><trkpt lat="42.37839727972818" lon="12.185002933074507"><ele>786.3333333333333</ele><time>2026-04-30T11:32:51.999Z</time></trkpt><trkpt lat="42.37821820106856" lon="12.184995352261273"><ele>786.0</ele><time>2026-04-30T11:32:52.999Z</time></trkpt><trkpt lat="42.37801371994251" lon="12.184945254199224"><ele>786.0</ele><time>2026-04-30T11:32:53.999Z</time></trkpt><trkpt lat="42.377812922874796" lon="12.184879408453916"><ele>786.0</ele><time>2026-04-30T11:32:54.999Z</time></trkpt><trkpt lat="42.377603321679" lon="12.184813357664463"><ele>786.0</ele><time>2026-04-30T11:32:55.999Z</time></trkpt><trkpt lat="42.377404905411616" lon="12.18476178003368"><ele>783.6666666666667</ele><time>2026-04-30T11:32:56.999Z</time></trkpt><trkpt lat="42.37720306234449" lon="12.18471243227623"><ele>781.3333333333334</ele><time>2026-04-30T11:32:57.999Z</time></trkpt><trkpt lat="42.37699940990686" lon="12.184674877594402"><ele>779.0</ele><time>2026-04-30T11:32:58.999Z</time></trkpt><trkpt lat="42.376794874714" lon="12.18466216147203"><ele>779.0</ele><time>2026-04-30T11:32:59.999Z</time></trkpt><trkpt lat="42.376590695982514" lon="12.184683271599308"><ele>779.0</ele><time>2026-04-30T11:33:00.999Z</time></trkpt><trkpt lat="42.376390787926724" lon="12.184724338897027"><ele>779.0</ele><time>2026-04-30T11:33:01.999Z</time></trkpt><trkpt lat="42.37618245085896" lon="12.184775062261247"><ele>782.6666666666667</ele><time>2026-04-30T11:33:02.999Z</time></trkpt><trkpt lat="42.37597642806335" lon="12.184849236858346"><ele>786.3333333333333</ele><time>2026-04-30T11:33:03.999Z</time></trkpt><trkpt lat="42.37578195738871" lon="12.184956797433587"><ele>790.0</ele><time>2026-04-30T11:33:04.999Z</time></trkpt><trkpt lat="42.3755995298583" lon="12.185092297145932"><ele>790.0</ele><time>2026-04-30T11:33:05.999Z</time></trkpt><trkpt lat="42.37540804538122" lon="12.185227448745394"><ele>790.0</ele><time>2026-04-30T11:33:06.999Z</time></trkpt><trkpt lat="42.375227638106104" lon="12.185353332764585"><ele>790.0</ele><time>2026-04-30T11:33:07.999Z</time></trkpt><trkpt lat="42.3750615521488" lon="12.185439980052573"><ele>790.0</ele><time>2026-04-30T11:33:08.999Z</time></trkpt><trkpt lat="42.374855542291584" lon="12.185592135794634"><ele>790.0</ele><time>2026-04-30T11:33:09.999Z</time></trkpt><trkpt lat="42.374710650226504" lon="12.1857449563725"><ele>790.0</ele><time>2026-04-30T11:33:10.999Z</time></trkpt><trkpt lat="42.374535273938" lon="12.185852846229212"><ele>793.3333333333333</ele><time>2026-04-30T11:33:11.999Z</time></trkpt><trkpt lat="42.3743764740714" lon="12.185957196949207"><ele>796.6666666666667</ele><time>2026-04-30T11:33:12.999Z</time></trkpt><trkpt lat="42.37422735348278" lon="12.186076319590834"><ele>800.0</ele><time>2026-04-30T11:33:13.999Z</time></trkpt><trkpt lat="42.37410329150843" lon="12.18621590896818"><ele>800.0</ele><time>2026-04-30T11:33:14.999Z</time></trkpt><trkpt lat="42.37398915786035" lon="12.18635173529358"><ele>800.0</ele><time>2026-04-30T11:33:15.999Z</time></trkpt><trkpt lat="42.37388366263056" lon="12.186497270528774"><ele>800.0</ele><time>2026-04-30T11:33:16.999Z</time></trkpt><trkpt lat="42.373777598585214" lon="12.186645634443394"><ele>800.6666666666667</ele><time>2026-04-30T11:33:17.999Z</time></trkpt><trkpt lat="42.373669750583716" lon="12.186795787517772"><ele>801.3333333333333</ele><time>2026-04-30T11:33:18.999Z</time></trkpt><trkpt lat="42.373549533285946" lon="12.18693296406443"><ele>802.0</ele><time>2026-04-30T11:33:19.999Z</time></trkpt><trkpt lat="42.373410578521145" lon="12.187044467721282"><ele>802.0</ele><time>2026-04-30T11:33:20.999Z</time></trkpt><trkpt lat="42.37326056575074" lon="12.187130618484913"><ele>802.0</ele><time>2026-04-30T11:33:21.999Z</time></trkpt><trkpt lat="42.373108850179044" lon="12.187198779473261"><ele>802.0</ele><time>2026-04-30T11:33:22.999Z</time></trkpt><trkpt lat="42.37294887889146" lon="12.187242268267436"><ele>801.0</ele><time>2026-04-30T11:33:23.999Z</time></trkpt><trkpt lat="42.37278393186761" lon="12.187270967475385"><ele>800.0</ele><time>2026-04-30T11:33:24.999Z</time></trkpt><trkpt lat="42.372629142544106" lon="12.187313025703117"><ele>799.0</ele><time>2026-04-30T11:33:25.999Z</time></trkpt><trkpt lat="42.372484115629966" lon="12.187359216158073"><ele>801.75</ele><time>2026-04-30T11:33:26.999Z</time></trkpt><trkpt lat="42.372354553334645" lon="12.187404437438062"><ele>804.5</ele><time>2026-04-30T11:33:27.999Z</time></trkpt><trkpt lat="42.37223415085098" lon="12.18745198602294"><ele>807.25</ele><time>2026-04-30T11:33:28.999Z</time></trkpt><trkpt lat="42.372117065421946" lon="12.187486783750588"><ele>810.0</ele><time>2026-04-30T11:33:29.999Z</time></trkpt><trkpt lat="42.37199862531656" lon="12.187532501848723"><ele>810.0</ele><time>2026-04-30T11:33:30.999Z</time></trkpt><trkpt lat="42.371878425993174" lon="12.18757592646195"><ele>810.0</ele><time>2026-04-30T11:33:31.999Z</time></trkpt><trkpt lat="42.37175240480366" lon="12.187606265541268"><ele>810.0</ele><time>2026-04-30T11:33:32.999Z</time></trkpt><trkpt lat="42.371617191560084" lon="12.187616948714073"><ele>810.0</ele><time>2026-04-30T11:33:33.999Z</time></trkpt><trkpt lat="42.37151145611507" lon="12.18758991908508"><ele>810.0</ele><time>2026-04-30T11:33:34.999Z</time></trkpt><trkpt lat="42.37142450649347" lon="12.187482291385377"><ele>810.0</ele><time>2026-04-30T11:33:35.999Z</time></trkpt><trkpt lat="42.37130750248968" lon="12.18738872437102"><ele>810.0</ele><time>2026-04-30T11:33:36.999Z</time></trkpt><trkpt lat="42.37118550989719" lon="12.187313198881869"><ele>810.0</ele><time>2026-04-30T11:33:37.999Z</time></trkpt><trkpt lat="42.371063948008185" lon="12.187233597575224"><ele>809.75</ele><time>2026-04-30T11:33:38.999Z</time></trkpt><trkpt lat="42.370952630415886" lon="12.187157371255086"><ele>809.5</ele><time>2026-04-30T11:33:39.999Z</time></trkpt><trkpt lat="42.370843436740365" lon="12.187092535383243"><ele>809.25</ele><time>2026-04-30T11:33:40.999Z</time></trkpt><trkpt lat="42.37074076545437" lon="12.187048185733277"><ele>809.0</ele><time>2026-04-30T11:33:41.999Z</time></trkpt><trkpt lat="42.3706383972308" lon="12.187020050609783"><ele>809.0</ele><time>2026-04-30T11:33:42.999Z</time></trkpt><trkpt lat="42.37053401852557" lon="12.187021114936398"><ele>809.0</ele><time>2026-04-30T11:33:43.999Z</time></trkpt><trkpt lat="42.37043774081335" lon="12.187080124270057"><ele>809.0</ele><time>2026-04-30T11:33:44.999Z</time></trkpt><trkpt lat="42.37034863480253" lon="12.187151104450459"><ele>809.0</ele><time>2026-04-30T11:33:45.998Z</time></trkpt><trkpt lat="42.37027334315248" lon="12.187264890482226"><ele>809.0</ele><time>2026-04-30T11:33:46.998Z</time></trkpt><trkpt lat="42.37022277590645" lon="12.187398630351199"><ele>814.5</ele><time>2026-04-30T11:33:47.998Z</time></trkpt><trkpt lat="42.37016581261267" lon="12.187545036605574"><ele>820.0</ele><time>2026-04-30T11:33:48.998Z</time></trkpt><trkpt lat="42.37013187699554" lon="12.187695189645895"><ele>825.5</ele><time>2026-04-30T11:33:49.998Z</time></trkpt><trkpt lat="42.3701071269473" lon="12.187844639414566"><ele>831.0</ele><time>2026-04-30T11:33:50.998Z</time></trkpt><trkpt lat="42.37008986700002" lon="12.187991683457069"><ele>831.0</ele><time>2026-04-30T11:33:51.998Z</time></trkpt><trkpt lat="42.37013444738004" lon="12.18814085926868"><ele>831.0</ele><time>2026-04-30T11:33:52.998Z</time></trkpt><trkpt lat="42.370148860696496" lon="12.188281532578705"><ele>831.0</ele><time>2026-04-30T11:33:53.998Z</time></trkpt><trkpt lat="42.37019286762433" lon="12.188405883109171"><ele>831.0</ele><time>2026-04-30T11:33:54.998Z</time></trkpt><trkpt lat="42.370220786550604" lon="12.188514026738883"><ele>831.0</ele><time>2026-04-30T11:33:55.998Z</time></trkpt><trkpt lat="42.37024749755267" lon="12.188617464749838"><ele>830.6666666666666</ele><time>2026-04-30T11:33:56.998Z</time></trkpt><trkpt lat="42.37027036443608" lon="12.188715135301505"><ele>830.3333333333333</ele><time>2026-04-30T11:33:57.998Z</time></trkpt><trkpt lat="42.370275534066714" lon="12.188800237077384"><ele>830.0</ele><time>2026-04-30T11:33:58.998Z</time></trkpt><trkpt lat="42.370246231007236" lon="12.188946371381634"><ele>829.6666666666666</ele><time>2026-04-30T11:34:01Z</time></trkpt><trkpt lat="42.37018825119834" lon="12.188985956805976"><ele>829.3333333333333</ele><time>2026-04-30T11:34:02Z</time></trkpt><trkpt lat="42.370111570104584" lon="12.18899678867409"><ele>829.0</ele><time>2026-04-30T11:34:03Z</time></trkpt><trkpt lat="42.3700341487059" lon="12.188959317404288"><ele>829.0</ele><time>2026-04-30T11:34:04Z</time></trkpt><trkpt lat="42.36995997217125" lon="12.188864926989314"><ele>829.0</ele><time>2026-04-30T11:34:05Z</time></trkpt><trkpt lat="42.36986980177898" lon="12.188752591425695"><ele>829.0</ele><time>2026-04-30T11:34:06Z</time></trkpt><trkpt lat="42.36979776534631" lon="12.188627593583227"><ele>829.0</ele><time>2026-04-30T11:34:07Z</time></trkpt><trkpt lat="42.36972874886196" lon="12.188480251547768"><ele>830.0</ele><time>2026-04-30T11:34:08Z</time></trkpt><trkpt lat="42.36966687173591" lon="12.188319219249346"><ele>831.0</ele><time>2026-04-30T11:34:09Z</time></trkpt><trkpt lat="42.36959746503045" lon="12.188158076850696"><ele>832.0</ele><time>2026-04-30T11:34:10Z</time></trkpt><trkpt lat="42.36952332730635" lon="12.187993241544163"><ele>833.0</ele><time>2026-04-30T11:34:11Z</time></trkpt><trkpt lat="42.36945247501511" lon="12.187826417300165"><ele>833.0</ele><time>2026-04-30T11:34:12Z</time></trkpt><trkpt lat="42.36937538536851" lon="12.187647575888782"><ele>833.0</ele><time>2026-04-30T11:34:13Z</time></trkpt><trkpt lat="42.36929937612199" lon="12.187468695253022"><ele>833.0</ele><time>2026-04-30T11:34:14Z</time></trkpt><trkpt lat="42.369224712083074" lon="12.187295386955157"><ele>832.75</ele><time>2026-04-30T11:34:15Z</time></trkpt><trkpt lat="42.369145238855296" lon="12.18714373153775"><ele>832.5</ele><time>2026-04-30T11:34:16Z</time></trkpt><trkpt lat="42.369050893775764" lon="12.187017208193888"><ele>832.25</ele><time>2026-04-30T11:34:17Z</time></trkpt><trkpt lat="42.36893622162729" lon="12.186898405774944"><ele>832.0</ele><time>2026-04-30T11:34:18Z</time></trkpt><trkpt lat="42.368803747933065" lon="12.186797983407722"><ele>832.6666666666666</ele><time>2026-04-30T11:34:19Z</time></trkpt><trkpt lat="42.3686617429713" lon="12.186709885296844"><ele>833.3333333333333</ele><time>2026-04-30T11:34:20Z</time></trkpt><trkpt lat="42.36852553755087" lon="12.186612204254264"><ele>834.0</ele><time>2026-04-30T11:34:21Z</time></trkpt><trkpt lat="42.368389544428666" lon="12.186509701656858"><ele>834.0</ele><time>2026-04-30T11:34:22Z</time></trkpt><trkpt lat="42.36825951245922" lon="12.186423213130901"><ele>834.0</ele><time>2026-04-30T11:34:23Z</time></trkpt><trkpt lat="42.36813653941759" lon="12.186347551245156"><ele>834.0</ele><time>2026-04-30T11:34:24Z</time></trkpt><trkpt lat="42.36801758215638" lon="12.186284028660546"><ele>834.0</ele><time>2026-04-30T11:34:25Z</time></trkpt><trkpt lat="42.36788795145253" lon="12.186240205122497"><ele>837.25</ele><time>2026-04-30T11:34:26Z</time></trkpt><trkpt lat="42.36775113051688" lon="12.186223053021466"><ele>840.5</ele><time>2026-04-30T11:34:27Z</time></trkpt><trkpt lat="42.367613447051475" lon="12.186242319218875"><ele>843.75</ele><time>2026-04-30T11:34:28Z</time></trkpt><trkpt lat="42.36748893174009" lon="12.186271304483208"><ele>847.0</ele><time>2026-04-30T11:34:29Z</time></trkpt><trkpt lat="42.36737616827585" lon="12.186300060246841"><ele>847.0</ele><time>2026-04-30T11:34:30Z</time></trkpt><trkpt lat="42.36726207348298" lon="12.186333006480183"><ele>847.0</ele><time>2026-04-30T11:34:31Z</time></trkpt><trkpt lat="42.367146942963444" lon="12.186354338007398"><ele>847.0</ele><time>2026-04-30T11:34:32Z</time></trkpt><trkpt lat="42.36703885456289" lon="12.186353649524976"><ele>847.0</ele><time>2026-04-30T11:34:33Z</time></trkpt><trkpt lat="42.36693295183667" lon="12.186322966374503"><ele>847.0</ele><time>2026-04-30T11:34:34Z</time></trkpt><trkpt lat="42.366832073741485" lon="12.186251284349133"><ele>848.5</ele><time>2026-04-30T11:34:35Z</time></trkpt><trkpt lat="42.36674170046293" lon="12.186163222085746"><ele>850.0</ele><time>2026-04-30T11:34:36Z</time></trkpt><trkpt lat="42.366663680965495" lon="12.18604985613662"><ele>851.5</ele><time>2026-04-30T11:34:37Z</time></trkpt><trkpt lat="42.36659460090937" lon="12.185912914139308"><ele>853.0</ele><time>2026-04-30T11:34:38Z</time></trkpt><trkpt lat="42.3665348400802" lon="12.185768585421386"><ele>854.25</ele><time>2026-04-30T11:34:39Z</time></trkpt><trkpt lat="42.36647757720149" lon="12.185624120572223"><ele>855.5</ele><time>2026-04-30T11:34:40Z</time></trkpt><trkpt lat="42.366416677056264" lon="12.18548310792686"><ele>856.75</ele><time>2026-04-30T11:34:41Z</time></trkpt><trkpt lat="42.366354495891244" lon="12.185337584432526"><ele>858.0</ele><time>2026-04-30T11:34:42Z</time></trkpt><trkpt lat="42.36628499136012" lon="12.185187172973222"><ele>858.0</ele><time>2026-04-30T11:34:43Z</time></trkpt><trkpt lat="42.366208314875614" lon="12.185045026007481"><ele>858.0</ele><time>2026-04-30T11:34:44Z</time></trkpt><trkpt lat="42.36611433395232" lon="12.184922176827456"><ele>858.0</ele><time>2026-04-30T11:34:45Z</time></trkpt><trkpt lat="42.36600453100223" lon="12.184822785597067"><ele>858.0</ele><time>2026-04-30T11:34:46Z</time></trkpt><trkpt lat="42.36587239768299" lon="12.184750199858556"><ele>858.25</ele><time>2026-04-30T11:34:47Z</time></trkpt><trkpt lat="42.365728689845554" lon="12.184690628468614"><ele>858.5</ele><time>2026-04-30T11:34:48Z</time></trkpt><trkpt lat="42.36559430321036" lon="12.18462534426525"><ele>858.75</ele><time>2026-04-30T11:34:49Z</time></trkpt><trkpt lat="42.36547033949714" lon="12.184561848900554"><ele>859.0</ele><time>2026-04-30T11:34:50Z</time></trkpt><trkpt lat="42.36536330282963" lon="12.184496255733217"><ele>859.0</ele><time>2026-04-30T11:34:51Z</time></trkpt><trkpt lat="42.3652578475313" lon="12.184438635048151"><ele>859.0</ele><time>2026-04-30T11:34:52Z</time></trkpt><trkpt lat="42.365147122603055" lon="12.184380203304336"><ele>859.0</ele><time>2026-04-30T11:34:53Z</time></trkpt><trkpt lat="42.365025113950985" lon="12.184316892595744"><ele>859.0</ele><time>2026-04-30T11:34:54Z</time></trkpt><trkpt lat="42.36489469080522" lon="12.184252782625055"><ele>859.0</ele><time>2026-04-30T11:34:55Z</time></trkpt><trkpt lat="42.36476170886494" lon="12.184193469879247"><ele>859.0</ele><time>2026-04-30T11:34:56Z</time></trkpt><trkpt lat="42.364626947507276" lon="12.18415172780151"><ele>859.0</ele><time>2026-04-30T11:34:57Z</time></trkpt><trkpt lat="42.36449515113384" lon="12.184132551051347"><ele>859.0</ele><time>2026-04-30T11:34:58Z</time></trkpt><trkpt lat="42.36437768720816" lon="12.184147574401432"><ele>859.8000000000001</ele><time>2026-04-30T11:34:58.999Z</time></trkpt><trkpt lat="42.36427803141562" lon="12.18419454611488"><ele>860.6000000000001</ele><time>2026-04-30T11:34:59.999Z</time></trkpt><trkpt lat="42.36419011273927" lon="12.184268858398166"><ele>861.4</ele><time>2026-04-30T11:35:00.999Z</time></trkpt><trkpt lat="42.36411264218643" lon="12.184363450305032"><ele>862.2</ele><time>2026-04-30T11:35:01.999Z</time></trkpt><trkpt lat="42.36404989914174" lon="12.184483900341913"><ele>863.0</ele><time>2026-04-30T11:35:02.999Z</time></trkpt><trkpt lat="42.363990660100264" lon="12.18461122889496"><ele>863.0</ele><time>2026-04-30T11:35:03.999Z</time></trkpt><trkpt lat="42.36391076516209" lon="12.184764569178602"><ele>863.0</ele><time>2026-04-30T11:35:04.999Z</time></trkpt><trkpt lat="42.363819073845264" lon="12.184959985488613"><ele>863.0</ele><time>2026-04-30T11:35:05.999Z</time></trkpt><trkpt lat="42.36373934251098" lon="12.18516832942287"><ele>863.6666666666667</ele><time>2026-04-30T11:35:06.999Z</time></trkpt><trkpt lat="42.363645020066926" lon="12.185422874156808"><ele>864.3333333333333</ele><time>2026-04-30T11:35:07.999Z</time></trkpt><trkpt lat="42.36357034260161" lon="12.185710779407955"><ele>865.0</ele><time>2026-04-30T11:35:08.999Z</time></trkpt><trkpt lat="42.363480313846125" lon="12.185986555166698"><ele>865.0</ele><time>2026-04-30T11:35:09.999Z</time></trkpt><trkpt lat="42.3633766759864" lon="12.18625207979946"><ele>865.0</ele><time>2026-04-30T11:35:10.999Z</time></trkpt><trkpt lat="42.36327081129889" lon="12.18652230506311"><ele>865.0</ele><time>2026-04-30T11:35:11.999Z</time></trkpt><trkpt lat="42.3631754655294" lon="12.186794333556374"><ele>866.0</ele><time>2026-04-30T11:35:12.999Z</time></trkpt><trkpt lat="42.36308784746191" lon="12.18705382229977"><ele>867.0</ele><time>2026-04-30T11:35:13.999Z</time></trkpt><trkpt lat="42.36300713013001" lon="12.187288939343002"><ele>868.0</ele><time>2026-04-30T11:35:14.999Z</time></trkpt><trkpt lat="42.3629380380214" lon="12.187506759580517"><ele>863.0</ele><time>2026-04-30T11:35:15.999Z</time></trkpt><trkpt lat="42.36287527330107" lon="12.187718293647285"><ele>858.0</ele><time>2026-04-30T11:35:16.999Z</time></trkpt><trkpt lat="42.3628181739245" lon="12.187928109289162"><ele>853.0</ele><time>2026-04-30T11:35:17.999Z</time></trkpt><trkpt lat="42.362759135889576" lon="12.18814309897295"><ele>852.0</ele><time>2026-04-30T11:35:18.999Z</time></trkpt><trkpt lat="42.362691731594325" lon="12.18836118581325"><ele>851.0</ele><time>2026-04-30T11:35:19.999Z</time></trkpt><trkpt lat="42.36260865145168" lon="12.188576947240259"><ele>850.0</ele><time>2026-04-30T11:35:20.999Z</time></trkpt><trkpt lat="42.36253398689852" lon="12.188802274387715"><ele>851.6666666666666</ele><time>2026-04-30T11:35:21.999Z</time></trkpt><trkpt lat="42.36245187637712" lon="12.189021449406793"><ele>853.3333333333333</ele><time>2026-04-30T11:35:22.999Z</time></trkpt><trkpt lat="42.362378599470325" lon="12.189242640553463"><ele>855.0</ele><time>2026-04-30T11:35:23.999Z</time></trkpt><trkpt lat="42.362308773426925" lon="12.189461451554541"><ele>855.0</ele><time>2026-04-30T11:35:24.999Z</time></trkpt><trkpt lat="42.36224528224429" lon="12.189701221793896"><ele>855.0</ele><time>2026-04-30T11:35:25.999Z</time></trkpt><trkpt lat="42.3621715767873" lon="12.189979720341128"><ele>855.0</ele><time>2026-04-30T11:35:26.999Z</time></trkpt><trkpt lat="42.36211535233606" lon="12.19030060103299"><ele>849.0</ele><time>2026-04-30T11:35:27.999Z</time></trkpt><trkpt lat="42.36206900491746" lon="12.190628333604614"><ele>843.0</ele><time>2026-04-30T11:35:28.999Z</time></trkpt><trkpt lat="42.362023044969334" lon="12.190953326418278"><ele>842.5</ele><time>2026-04-30T11:35:29.999Z</time></trkpt><trkpt lat="42.36198106739" lon="12.191271764242579"><ele>842.0</ele><time>2026-04-30T11:35:30.999Z</time></trkpt><trkpt lat="42.361917546158715" lon="12.191575939329246"><ele>842.0</ele><time>2026-04-30T11:35:31.999Z</time></trkpt><trkpt lat="42.361864207527404" lon="12.191880153307103"><ele>842.0</ele><time>2026-04-30T11:35:32.999Z</time></trkpt><trkpt lat="42.36176565210495" lon="12.192206893984933"><ele>843.0</ele><time>2026-04-30T11:35:33.999Z</time></trkpt><trkpt lat="42.361686632047885" lon="12.192521511391883"><ele>844.0</ele><time>2026-04-30T11:35:34.999Z</time></trkpt><trkpt lat="42.36161240249954" lon="12.192849589089581"><ele>844.0</ele><time>2026-04-30T11:35:35.999Z</time></trkpt><trkpt lat="42.36148965914166" lon="12.193138059768053"><ele>844.0</ele><time>2026-04-30T11:35:36.999Z</time></trkpt><trkpt lat="42.36136244239792" lon="12.193397721037949"><ele>836.5</ele><time>2026-04-30T11:35:37.999Z</time></trkpt><trkpt lat="42.36122478509412" lon="12.193648611304157"><ele>829.0</ele><time>2026-04-30T11:35:38.999Z</time></trkpt><trkpt lat="42.36108943378685" lon="12.193914326877696"><ele>833.5</ele><time>2026-04-30T11:35:39.999Z</time></trkpt><trkpt lat="42.3609384717069" lon="12.194181347766818"><ele>838.0</ele><time>2026-04-30T11:35:40.999Z</time></trkpt><trkpt lat="42.3607903014801" lon="12.194438877255454"><ele>838.0</ele><time>2026-04-30T11:35:41.999Z</time></trkpt><trkpt lat="42.360643134085336" lon="12.194690117632007"><ele>838.0</ele><time>2026-04-30T11:35:42.999Z</time></trkpt><trkpt lat="42.360479677107925" lon="12.194921351986705"><ele>835.5</ele><time>2026-04-30T11:35:43.999Z</time></trkpt><trkpt lat="42.36030482232837" lon="12.19514893056542"><ele>833.0</ele><time>2026-04-30T11:35:44.999Z</time></trkpt><trkpt lat="42.36015562460231" lon="12.19539612404564"><ele>833.0</ele><time>2026-04-30T11:35:45.999Z</time></trkpt><trkpt lat="42.360013312252995" lon="12.195638962863907"><ele>833.0</ele><time>2026-04-30T11:35:46.999Z</time></trkpt><trkpt lat="42.35985553566531" lon="12.195858975637993"><ele>832.5</ele><time>2026-04-30T11:35:47.999Z</time></trkpt><trkpt lat="42.3597045524904" lon="12.196083406241819"><ele>832.0</ele><time>2026-04-30T11:35:48.999Z</time></trkpt><trkpt lat="42.359566158055394" lon="12.196328689960184"><ele>835.0</ele><time>2026-04-30T11:35:49.999Z</time></trkpt><trkpt lat="42.359430480847266" lon="12.196567818530102"><ele>838.0</ele><time>2026-04-30T11:35:50.999Z</time></trkpt><trkpt lat="42.35926369197202" lon="12.196792410558121"><ele>838.0</ele><time>2026-04-30T11:35:51.999Z</time></trkpt><trkpt lat="42.3591369627097" lon="12.19698350532952"><ele>838.0</ele><time>2026-04-30T11:35:52.999Z</time></trkpt><trkpt lat="42.358968894457504" lon="12.197202895954174"><ele>838.0</ele><time>2026-04-30T11:35:53.999Z</time></trkpt><trkpt lat="42.35882281179171" lon="12.197415783057801"><ele>836.3333333333333</ele><time>2026-04-30T11:35:54.999Z</time></trkpt><trkpt lat="42.35866161738388" lon="12.19762007979957"><ele>834.6666666666667</ele><time>2026-04-30T11:35:55.999Z</time></trkpt><trkpt lat="42.358489881891096" lon="12.197818653034137"><ele>833.0</ele><time>2026-04-30T11:35:56.998Z</time></trkpt><trkpt lat="42.358326480371524" lon="12.198006623950793"><ele>833.3333333333334</ele><time>2026-04-30T11:35:57.998Z</time></trkpt><trkpt lat="42.35815538493621" lon="12.198193590240463"><ele>833.6666666666667</ele><time>2026-04-30T11:35:58.998Z</time></trkpt><trkpt lat="42.357987712698204" lon="12.198401808715317"><ele>834.0</ele><time>2026-04-30T11:35:59.998Z</time></trkpt><trkpt lat="42.35782305496301" lon="12.198623321607172"><ele>834.5</ele><time>2026-04-30T11:36:00.998Z</time></trkpt><trkpt lat="42.35766409546538" lon="12.198846793685947"><ele>835.0</ele><time>2026-04-30T11:36:01.998Z</time></trkpt><trkpt lat="42.357483853117664" lon="12.199064893994931"><ele>835.5</ele><time>2026-04-30T11:36:02.998Z</time></trkpt><trkpt lat="42.35728598401676" lon="12.19928844113958"><ele>836.0</ele><time>2026-04-30T11:36:03.998Z</time></trkpt><trkpt lat="42.357120020655096" lon="12.199506893125859"><ele>835.0</ele><time>2026-04-30T11:36:04.998Z</time></trkpt><trkpt lat="42.356951534833854" lon="12.199729191182536"><ele>834.0</ele><time>2026-04-30T11:36:06Z</time></trkpt><trkpt lat="42.35679249281863" lon="12.199945763911748"><ele>833.3333333333333</ele><time>2026-04-30T11:36:07Z</time></trkpt><trkpt lat="42.356673445736256" lon="12.200145471003921"><ele>832.6666666666666</ele><time>2026-04-30T11:36:08Z</time></trkpt><trkpt lat="42.35654151845387" lon="12.20031741278186"><ele>832.0</ele><time>2026-04-30T11:36:09Z</time></trkpt><trkpt lat="42.35641484361491" lon="12.200484349753207"><ele>832.3333333333333</ele><time>2026-04-30T11:36:10Z</time></trkpt><trkpt lat="42.35628838159386" lon="12.200631014416304"><ele>832.6666666666667</ele><time>2026-04-30T11:36:11Z</time></trkpt><trkpt lat="42.35616696992909" lon="12.20077673103381"><ele>833.0</ele><time>2026-04-30T11:36:12Z</time></trkpt><trkpt lat="42.356047770433754" lon="12.200918066388734"><ele>833.0</ele><time>2026-04-30T11:36:13Z</time></trkpt><trkpt lat="42.35591215277311" lon="12.201042790325667"><ele>833.0</ele><time>2026-04-30T11:36:14Z</time></trkpt><trkpt lat="42.35578112124554" lon="12.20119328028618"><ele>833.0</ele><time>2026-04-30T11:36:15Z</time></trkpt><trkpt lat="42.35566572488088" lon="12.201349968923138"><ele>831.6666666666667</ele><time>2026-04-30T11:36:16Z</time></trkpt><trkpt lat="42.35554714742667" lon="12.201503048082756"><ele>830.3333333333333</ele><time>2026-04-30T11:36:17Z</time></trkpt><trkpt lat="42.355437525100946" lon="12.201655498389727"><ele>829.0</ele><time>2026-04-30T11:36:18Z</time></trkpt><trkpt lat="42.3553427982413" lon="12.201830974378158"><ele>829.0</ele><time>2026-04-30T11:36:19Z</time></trkpt><trkpt lat="42.35524943812088" lon="12.202047585422944"><ele>829.0</ele><time>2026-04-30T11:36:20Z</time></trkpt><trkpt lat="42.355144046987306" lon="12.202266829455642"><ele>829.0</ele><time>2026-04-30T11:36:21Z</time></trkpt><trkpt lat="42.355066144316375" lon="12.202527067546203"><ele>827.3333333333333</ele><time>2026-04-30T11:36:22Z</time></trkpt><trkpt lat="42.35498516254788" lon="12.202793174585983"><ele>825.6666666666667</ele><time>2026-04-30T11:36:23Z</time></trkpt><trkpt lat="42.3548966691131" lon="12.20307274714472"><ele>824.0</ele><time>2026-04-30T11:36:24Z</time></trkpt><trkpt lat="42.35482257595375" lon="12.203324791791006"><ele>823.6666666666667</ele><time>2026-04-30T11:36:25Z</time></trkpt><trkpt lat="42.3547371881438" lon="12.203571604384273"><ele>823.3333333333333</ele><time>2026-04-30T11:36:26Z</time></trkpt><trkpt lat="42.35468343607168" lon="12.20380689313964"><ele>823.0</ele><time>2026-04-30T11:36:27Z</time></trkpt><trkpt lat="42.35463650969369" lon="12.204027362035688"><ele>822.0</ele><time>2026-04-30T11:36:28Z</time></trkpt><trkpt lat="42.35457497416265" lon="12.204245284572066"><ele>821.0</ele><time>2026-04-30T11:36:29Z</time></trkpt><trkpt lat="42.35451752167004" lon="12.204460807647601"><ele>820.0</ele><time>2026-04-30T11:36:30Z</time></trkpt><trkpt lat="42.35446269236544" lon="12.20465842753903"><ele>819.3333333333333</ele><time>2026-04-30T11:36:31Z</time></trkpt><trkpt lat="42.3543902445" lon="12.20486096631135"><ele>818.6666666666667</ele><time>2026-04-30T11:36:32Z</time></trkpt><trkpt lat="42.354312839080926" lon="12.20503420515284"><ele>818.0</ele><time>2026-04-30T11:36:33Z</time></trkpt><trkpt lat="42.35419826372751" lon="12.205190400054347"><ele>818.0</ele><time>2026-04-30T11:36:34Z</time></trkpt><trkpt lat="42.3540833117599" lon="12.205339826576749"><ele>818.0</ele><time>2026-04-30T11:36:35Z</time></trkpt><trkpt lat="42.353970799871135" lon="12.205488117115186"><ele>818.0</ele><time>2026-04-30T11:36:36Z</time></trkpt><trkpt lat="42.35387208426915" lon="12.205624945729184"><ele>815.3333333333334</ele><time>2026-04-30T11:36:37Z</time></trkpt><trkpt lat="42.353773334927624" lon="12.205774742694215"><ele>812.6666666666667</ele><time>2026-04-30T11:36:38Z</time></trkpt><trkpt lat="42.35367329668951" lon="12.205931683480536"><ele>810.0</ele><time>2026-04-30T11:36:39Z</time></trkpt><trkpt lat="42.353573264689935" lon="12.206088614493156"><ele>810.0</ele><time>2026-04-30T11:36:40Z</time></trkpt><trkpt lat="42.3534665051468" lon="12.206256064339748"><ele>810.0</ele><time>2026-04-30T11:36:41Z</time></trkpt><trkpt lat="42.353417229209356" lon="12.206481994552568"><ele>810.0</ele><time>2026-04-30T11:36:42Z</time></trkpt><trkpt lat="42.35332501526766" lon="12.20664318342153"><ele>808.75</ele><time>2026-04-30T11:36:43Z</time></trkpt><trkpt lat="42.353247026161405" lon="12.206791995812772"><ele>807.5</ele><time>2026-04-30T11:36:44Z</time></trkpt><trkpt lat="42.35319377034572" lon="12.206942745440719"><ele>806.25</ele><time>2026-04-30T11:36:45Z</time></trkpt><trkpt lat="42.35317433325507" lon="12.20709892592478"><ele>805.0</ele><time>2026-04-30T11:36:46Z</time></trkpt><trkpt lat="42.35313670042201" lon="12.207227797274717"><ele>803.2</ele><time>2026-04-30T11:36:47Z</time></trkpt><trkpt lat="42.353084750259306" lon="12.207341214218685"><ele>801.4</ele><time>2026-04-30T11:36:48Z</time></trkpt><trkpt lat="42.353029904099756" lon="12.207396533372602"><ele>799.5999999999999</ele><time>2026-04-30T11:36:49Z</time></trkpt><trkpt lat="42.35291298316207" lon="12.207324138987932"><ele>797.8</ele><time>2026-04-30T11:36:51Z</time></trkpt><trkpt lat="42.35285458394001" lon="12.207241033164493"><ele>796.0</ele><time>2026-04-30T11:36:52Z</time></trkpt><trkpt lat="42.35272637547431" lon="12.20718419002137"><ele>795.25</ele><time>2026-04-30T11:36:53Z</time></trkpt><trkpt lat="42.3525942698348" lon="12.207120779208786"><ele>794.5</ele><time>2026-04-30T11:36:54Z</time></trkpt><trkpt lat="42.35249596015862" lon="12.206991149714128"><ele>793.75</ele><time>2026-04-30T11:36:55Z</time></trkpt><trkpt lat="42.35240708576081" lon="12.206876387989984"><ele>793.0</ele><time>2026-04-30T11:36:56Z</time></trkpt><trkpt lat="42.35230131028109" lon="12.2068382200618"><ele>791.25</ele><time>2026-04-30T11:36:57Z</time></trkpt><trkpt lat="42.352170318975595" lon="12.206800525207088"><ele>789.5</ele><time>2026-04-30T11:36:58Z</time></trkpt><trkpt lat="42.35207506662766" lon="12.206852578642142"><ele>787.75</ele><time>2026-04-30T11:36:59Z</time></trkpt><trkpt lat="42.351993104760865" lon="12.206896553269424"><ele>786.0</ele><time>2026-04-30T11:37:00Z</time></trkpt><trkpt lat="42.35187012605926" lon="12.206931677608088"><ele>786.0</ele><time>2026-04-30T11:37:01Z</time></trkpt><trkpt lat="42.351757517220285" lon="12.207032777298119"><ele>786.0</ele><time>2026-04-30T11:37:02Z</time></trkpt><trkpt lat="42.35161310261138" lon="12.207225362134858"><ele>786.0</ele><time>2026-04-30T11:37:03Z</time></trkpt><trkpt lat="42.351501089681015" lon="12.207422683570288"><ele>785.3333333333333</ele><time>2026-04-30T11:37:04Z</time></trkpt><trkpt lat="42.35140712851777" lon="12.207595727116486"><ele>784.6666666666666</ele><time>2026-04-30T11:37:05Z</time></trkpt><trkpt lat="42.35127793395719" lon="12.207751984467851"><ele>784.0</ele><time>2026-04-30T11:37:05.999Z</time></trkpt><trkpt lat="42.35112520875049" lon="12.207913374691486"><ele>782.3333333333333</ele><time>2026-04-30T11:37:06.999Z</time></trkpt><trkpt lat="42.35115908619439" lon="12.208141179421121"><ele>780.6666666666667</ele><time>2026-04-30T11:37:07.999Z</time></trkpt><trkpt lat="42.35106088254024" lon="12.208271404035361"><ele>779.0</ele><time>2026-04-30T11:37:08.999Z</time></trkpt><trkpt lat="42.350912496168554" lon="12.208379506413747"><ele>777.0</ele><time>2026-04-30T11:37:09.999Z</time></trkpt><trkpt lat="42.35089976522187" lon="12.208557705380825"><ele>775.0</ele><time>2026-04-30T11:37:10.999Z</time></trkpt><trkpt lat="42.35104130233991" lon="12.208233734278693"><ele>773.0</ele><time>2026-04-30T11:37:11.999Z</time></trkpt><trkpt lat="42.350851724724606" lon="12.208277994035127"><ele>773.0</ele><time>2026-04-30T11:37:12.999Z</time></trkpt><trkpt lat="42.350693837954815" lon="12.208286282788395"><ele>773.0</ele><time>2026-04-30T11:37:13.999Z</time></trkpt><trkpt lat="42.35053875226309" lon="12.208307544227212"><ele>773.0</ele><time>2026-04-30T11:37:14.999Z</time></trkpt><trkpt lat="42.350423729398564" lon="12.208336833486966"><ele>773.0</ele><time>2026-04-30T11:37:15.999Z</time></trkpt><trkpt lat="42.35032365531449" lon="12.208356322969216"><ele>770.0</ele><time>2026-04-30T11:37:16.999Z</time></trkpt><trkpt lat="42.35021374021094" lon="12.208489768643135"><ele>767.0</ele><time>2026-04-30T11:37:17.999Z</time></trkpt><trkpt lat="42.350108277177895" lon="12.208620460430952"><ele>764.0</ele><time>2026-04-30T11:37:18.999Z</time></trkpt><trkpt lat="42.350026492442275" lon="12.208904489835353"><ele>763.0</ele><time>2026-04-30T11:37:19.999Z</time></trkpt><trkpt lat="42.34992801307013" lon="12.20920990603873"><ele>762.0</ele><time>2026-04-30T11:37:20.999Z</time></trkpt><trkpt lat="42.34985225084946" lon="12.209483563199404"><ele>762.0</ele><time>2026-04-30T11:37:21.999Z</time></trkpt><trkpt lat="42.34972933728846" lon="12.209804294513976"><ele>762.0</ele><time>2026-04-30T11:37:22.999Z</time></trkpt><trkpt lat="42.34966666733857" lon="12.210118621403325"><ele>757.6666666666666</ele><time>2026-04-30T11:37:23.999Z</time></trkpt><trkpt lat="42.34956998258868" lon="12.210345783291693"><ele>753.3333333333333</ele><time>2026-04-30T11:37:24.999Z</time></trkpt><trkpt lat="42.34947885407841" lon="12.210577704098906"><ele>749.0</ele><time>2026-04-30T11:37:25.999Z</time></trkpt><trkpt lat="42.34941385945051" lon="12.210798951572675"><ele>747.3333333333333</ele><time>2026-04-30T11:37:26.999Z</time></trkpt><trkpt lat="42.349342524287415" lon="12.21098922336271"><ele>745.6666666666666</ele><time>2026-04-30T11:37:27.999Z</time></trkpt><trkpt lat="42.34931006749187" lon="12.211160893604108"><ele>744.0</ele><time>2026-04-30T11:37:28.999Z</time></trkpt><trkpt lat="42.34923356356422" lon="12.211353170421896"><ele>744.0</ele><time>2026-04-30T11:37:29.999Z</time></trkpt><trkpt lat="42.349242739532414" lon="12.211495444786747"><ele>744.0</ele><time>2026-04-30T11:37:30.999Z</time></trkpt><trkpt lat="42.34923175433409" lon="12.211583062101534"><ele>744.0</ele><time>2026-04-30T11:37:31.999Z</time></trkpt><trkpt lat="42.349022086796225" lon="12.211357920988087"><ele>744.0</ele><time>2026-04-30T11:37:32.999Z</time></trkpt><trkpt lat="42.34887343494944" lon="12.211302354011728"><ele>741.0</ele><time>2026-04-30T11:37:33.999Z</time></trkpt><trkpt lat="42.3487212207299" lon="12.211242458177905"><ele>738.0</ele><time>2026-04-30T11:37:34.999Z</time></trkpt><trkpt lat="42.348541928016616" lon="12.211149424390689"><ele>735.0</ele><time>2026-04-30T11:37:35.999Z</time></trkpt><trkpt lat="42.348374193039604" lon="12.211050483216198"><ele>735.0</ele><time>2026-04-30T11:37:36.999Z</time></trkpt><trkpt lat="42.34822907814306" lon="12.211000161434278"><ele>735.0</ele><time>2026-04-30T11:37:37.999Z</time></trkpt><trkpt lat="42.348093693599445" lon="12.210931249473646"><ele>735.0</ele><time>2026-04-30T11:37:38.999Z</time></trkpt><trkpt lat="42.34797865705208" lon="12.210827674392117"><ele>735.0</ele><time>2026-04-30T11:37:39.999Z</time></trkpt><trkpt lat="42.34785563929784" lon="12.210866896216626"><ele>733.5</ele><time>2026-04-30T11:37:40.999Z</time></trkpt><trkpt lat="42.347798942598466" lon="12.210966311033335"><ele>732.0</ele><time>2026-04-30T11:37:41.999Z</time></trkpt><trkpt lat="42.34770200399612" lon="12.211062700071581"><ele>730.5</ele><time>2026-04-30T11:37:42.999Z</time></trkpt><trkpt lat="42.3475759728301" lon="12.21116562268256"><ele>729.0</ele><time>2026-04-30T11:37:43.999Z</time></trkpt><trkpt lat="42.347432134831635" lon="12.211264766036136"><ele>729.0</ele><time>2026-04-30T11:37:44.999Z</time></trkpt><trkpt lat="42.347280933655334" lon="12.211372321202813"><ele>729.0</ele><time>2026-04-30T11:37:45.999Z</time></trkpt><trkpt lat="42.34712532328375" lon="12.211505669539743"><ele>729.0</ele><time>2026-04-30T11:37:46.999Z</time></trkpt><trkpt lat="42.34693892412865" lon="12.2117199838616"><ele>729.0</ele><time>2026-04-30T11:37:47.999Z</time></trkpt><trkpt lat="42.34674423282797" lon="12.21193779662562"><ele>729.0</ele><time>2026-04-30T11:37:48.999Z</time></trkpt><trkpt lat="42.34658054208626" lon="12.212155578055121"><ele>728.5</ele><time>2026-04-30T11:37:49.999Z</time></trkpt><trkpt lat="42.34639490666863" lon="12.212393883892538"><ele>728.0</ele><time>2026-04-30T11:37:50.999Z</time></trkpt><trkpt lat="42.34623056888964" lon="12.212623459470587"><ele>727.0</ele><time>2026-04-30T11:37:51.999Z</time></trkpt><trkpt lat="42.34607240781919" lon="12.212824683326046"><ele>726.0</ele><time>2026-04-30T11:37:52.999Z</time></trkpt><trkpt lat="42.345902675494166" lon="12.213011442848277"><ele>725.0</ele><time>2026-04-30T11:37:53.999Z</time></trkpt><trkpt lat="42.34576914983961" lon="12.213111417665466"><ele>725.6666666666666</ele><time>2026-04-30T11:37:54.999Z</time></trkpt><trkpt lat="42.34565358473765" lon="12.213157434937456"><ele>726.3333333333334</ele><time>2026-04-30T11:37:55.999Z</time></trkpt><trkpt lat="42.3453317398002" lon="12.213124858479121"><ele>727.0</ele><time>2026-04-30T11:37:56.999Z</time></trkpt><trkpt lat="42.345181896032386" lon="12.213110479082259"><ele>726.0</ele><time>2026-04-30T11:37:57.999Z</time></trkpt><trkpt lat="42.34499643909969" lon="12.213114238738777"><ele>725.0</ele><time>2026-04-30T11:37:58.999Z</time></trkpt><trkpt lat="42.344844944043096" lon="12.213164236495562"><ele>724.0</ele><time>2026-04-30T11:37:59.999Z</time></trkpt><trkpt lat="42.34468546290012" lon="12.213235041476443"><ele>724.0</ele><time>2026-04-30T11:38:00.999Z</time></trkpt><trkpt lat="42.34453973840172" lon="12.213377830936581"><ele>724.0</ele><time>2026-04-30T11:38:01.998Z</time></trkpt><trkpt lat="42.3444143817479" lon="12.213577756589642"><ele>724.0</ele><time>2026-04-30T11:38:02.998Z</time></trkpt><trkpt lat="42.34425797185502" lon="12.213733090717179"><ele>724.0</ele><time>2026-04-30T11:38:03.998Z</time></trkpt><trkpt lat="42.34408618277831" lon="12.213865845432448"><ele>724.0</ele><time>2026-04-30T11:38:04.998Z</time></trkpt><trkpt lat="42.34387979758065" lon="12.213954801462934"><ele>724.0</ele><time>2026-04-30T11:38:05.998Z</time></trkpt><trkpt lat="42.34370068780472" lon="12.214000430571266"><ele>724.3333333333334</ele><time>2026-04-30T11:38:06.998Z</time></trkpt><trkpt lat="42.34348894446566" lon="12.214009449044436"><ele>724.6666666666666</ele><time>2026-04-30T11:38:07.998Z</time></trkpt><trkpt lat="42.34329584011654" lon="12.214032349157627"><ele>725.0</ele><time>2026-04-30T11:38:08.998Z</time></trkpt><trkpt lat="42.34310156737016" lon="12.214057233197282"><ele>722.3333333333333</ele><time>2026-04-30T11:38:09.998Z</time></trkpt><trkpt lat="42.34291629941179" lon="12.214076555778382"><ele>719.6666666666666</ele><time>2026-04-30T11:38:10.998Z</time></trkpt><trkpt lat="42.34272433730585" lon="12.21410345969581"><ele>717.0</ele><time>2026-04-30T11:38:12Z</time></trkpt><trkpt lat="42.34253616595689" lon="12.214142901981063"><ele>717.0</ele><time>2026-04-30T11:38:13Z</time></trkpt><trkpt lat="42.34233568635148" lon="12.214189956348473"><ele>717.0</ele><time>2026-04-30T11:38:14Z</time></trkpt><trkpt lat="42.342135872163354" lon="12.214247177436738"><ele>717.0</ele><time>2026-04-30T11:38:15Z</time></trkpt><trkpt lat="42.341926294900695" lon="12.214314529182126"><ele>716.3333333333334</ele><time>2026-04-30T11:38:16Z</time></trkpt><trkpt lat="42.341723641063496" lon="12.214376683910587"><ele>715.6666666666667</ele><time>2026-04-30T11:38:17Z</time></trkpt><trkpt lat="42.34151372280278" lon="12.214438105983916"><ele>715.0</ele><time>2026-04-30T11:38:18Z</time></trkpt><trkpt lat="42.34130501465637" lon="12.214497601640424"><ele>712.6666666666667</ele><time>2026-04-30T11:38:19Z</time></trkpt><trkpt lat="42.34109252060872" lon="12.214562146474597"><ele>710.3333333333334</ele><time>2026-04-30T11:38:20Z</time></trkpt><trkpt lat="42.340873255765004" lon="12.214628765013472"><ele>708.0</ele><time>2026-04-30T11:38:21Z</time></trkpt><trkpt lat="42.340649726157444" lon="12.214700290435985"><ele>710.5</ele><time>2026-04-30T11:38:22Z</time></trkpt><trkpt lat="42.34042692850926" lon="12.214777711608765"><ele>713.0</ele><time>2026-04-30T11:38:23Z</time></trkpt><trkpt lat="42.34019913673938" lon="12.214874605631092"><ele>713.0</ele><time>2026-04-30T11:38:24Z</time></trkpt><trkpt lat="42.33997231550394" lon="12.214973332943106"><ele>713.0</ele><time>2026-04-30T11:38:25Z</time></trkpt><trkpt lat="42.33974212769611" lon="12.21506735663291"><ele>712.0</ele><time>2026-04-30T11:38:26Z</time></trkpt><trkpt lat="42.339535894957336" lon="12.215190401992142"><ele>711.0</ele><time>2026-04-30T11:38:27Z</time></trkpt><trkpt lat="42.33933294991261" lon="12.21528993986928"><ele>710.0</ele><time>2026-04-30T11:38:28Z</time></trkpt><trkpt lat="42.33911739476207" lon="12.21535288421993"><ele>710.0</ele><time>2026-04-30T11:38:29Z</time></trkpt><trkpt lat="42.33890387509265" lon="12.215389051690495"><ele>710.0</ele><time>2026-04-30T11:38:30Z</time></trkpt><trkpt lat="42.338689616884125" lon="12.215426946226478"><ele>710.0</ele><time>2026-04-30T11:38:31Z</time></trkpt><trkpt lat="42.33845600465402" lon="12.215448506180723"><ele>712.0</ele><time>2026-04-30T11:38:32Z</time></trkpt><trkpt lat="42.338215161889785" lon="12.215440898353274"><ele>714.0</ele><time>2026-04-30T11:38:33Z</time></trkpt><trkpt lat="42.33798297229219" lon="12.215455369376377"><ele>716.5</ele><time>2026-04-30T11:38:34Z</time></trkpt><trkpt lat="42.33775534230052" lon="12.215476989231995"><ele>719.0</ele><time>2026-04-30T11:38:35Z</time></trkpt><trkpt lat="42.337522440946366" lon="12.215483557882294"><ele>719.0</ele><time>2026-04-30T11:38:36Z</time></trkpt><trkpt lat="42.3372862702732" lon="12.215493245114638"><ele>719.0</ele><time>2026-04-30T11:38:37Z</time></trkpt><trkpt lat="42.337079170347565" lon="12.215529535514635"><ele>719.0</ele><time>2026-04-30T11:38:38Z</time></trkpt><trkpt lat="42.33686988637956" lon="12.215541108998147"><ele>718.0</ele><time>2026-04-30T11:38:39Z</time></trkpt><trkpt lat="42.33668578503026" lon="12.21554806697992"><ele>717.0</ele><time>2026-04-30T11:38:40Z</time></trkpt><trkpt lat="42.336523347961254" lon="12.215563125652368"><ele>716.0</ele><time>2026-04-30T11:38:41Z</time></trkpt><trkpt lat="42.33635214307091" lon="12.215579974228172"><ele>715.6666666666666</ele><time>2026-04-30T11:38:42Z</time></trkpt><trkpt lat="42.33619364186581" lon="12.215604460465194"><ele>715.3333333333334</ele><time>2026-04-30T11:38:43Z</time></trkpt><trkpt lat="42.3360358783108" lon="12.21564813730501"><ele>715.0</ele><time>2026-04-30T11:38:44Z</time></trkpt><trkpt lat="42.33587952362221" lon="12.215706751563408"><ele>715.25</ele><time>2026-04-30T11:38:45Z</time></trkpt><trkpt lat="42.33576329119605" lon="12.215761377657344"><ele>715.5</ele><time>2026-04-30T11:38:46Z</time></trkpt><trkpt lat="42.335661064355044" lon="12.215828055055116"><ele>715.75</ele><time>2026-04-30T11:38:47Z</time></trkpt><trkpt lat="42.33555785456502" lon="12.215895903863832"><ele>716.0</ele><time>2026-04-30T11:38:48Z</time></trkpt><trkpt lat="42.33544404868428" lon="12.215964259798755"><ele>716.0</ele><time>2026-04-30T11:38:49Z</time></trkpt><trkpt lat="42.33530983670011" lon="12.216035701042221"><ele>716.0</ele><time>2026-04-30T11:38:50Z</time></trkpt><trkpt lat="42.33517098280958" lon="12.21610303300152"><ele>716.0</ele><time>2026-04-30T11:38:51Z</time></trkpt><trkpt lat="42.33502694367441" lon="12.21616938485172"><ele>716.0</ele><time>2026-04-30T11:38:52Z</time></trkpt><trkpt lat="42.334882388865395" lon="12.21623512315905"><ele>716.0</ele><time>2026-04-30T11:38:53Z</time></trkpt><trkpt lat="42.33474370862023" lon="12.216302091534821"><ele>716.0</ele><time>2026-04-30T11:38:54Z</time></trkpt><trkpt lat="42.33460761113841" lon="12.216362611998013"><ele>716.0</ele><time>2026-04-30T11:38:55Z</time></trkpt><trkpt lat="42.3344749742794" lon="12.216422077863497"><ele>716.0</ele><time>2026-04-30T11:38:56Z</time></trkpt><trkpt lat="42.33434360768959" lon="12.216477687310705"><ele>714.25</ele><time>2026-04-30T11:38:57Z</time></trkpt><trkpt lat="42.33421241685435" lon="12.21653632475058"><ele>712.5</ele><time>2026-04-30T11:38:58Z</time></trkpt><trkpt lat="42.33408142463224" lon="12.21659657467247"><ele>710.75</ele><time>2026-04-30T11:38:59Z</time></trkpt><trkpt lat="42.3339527599573" lon="12.216651981836161"><ele>709.0</ele><time>2026-04-30T11:39:00Z</time></trkpt><trkpt lat="42.333820637092906" lon="12.21669996190207"><ele>708.75</ele><time>2026-04-30T11:39:01Z</time></trkpt><trkpt lat="42.33368644843096" lon="12.216737183145982"><ele>708.5</ele><time>2026-04-30T11:39:02Z</time></trkpt><trkpt lat="42.33354401063635" lon="12.21675231268116"><ele>708.25</ele><time>2026-04-30T11:39:03Z</time></trkpt><trkpt lat="42.33339826681836" lon="12.216739888732862"><ele>708.0</ele><time>2026-04-30T11:39:04Z</time></trkpt><trkpt lat="42.333253738358884" lon="12.216708852863102"><ele>708.0</ele><time>2026-04-30T11:39:05Z</time></trkpt><trkpt lat="42.33311834839434" lon="12.216670205697069"><ele>708.0</ele><time>2026-04-30T11:39:06Z</time></trkpt><trkpt lat="42.33300647099633" lon="12.216633825460955"><ele>708.0</ele><time>2026-04-30T11:39:07Z</time></trkpt><trkpt lat="42.3329121865638" lon="12.216603245010557"><ele>708.0</ele><time>2026-04-30T11:39:08Z</time></trkpt><trkpt lat="42.332834436092256" lon="12.216584800201513"><ele>708.0</ele><time>2026-04-30T11:39:09Z</time></trkpt><trkpt lat="42.33272855415193" lon="12.216557609799832"><ele>706.5999999999999</ele><time>2026-04-30T11:39:10.999Z</time></trkpt><trkpt lat="42.3326205688461" lon="12.216519118016326"><ele>705.1999999999999</ele><time>2026-04-30T11:39:12.999Z</time></trkpt><trkpt lat="42.3325538301237" lon="12.216494370617314"><ele>703.8</ele><time>2026-04-30T11:39:13.999Z</time></trkpt><trkpt lat="42.33247344612504" lon="12.216464869843694"><ele>702.4</ele><time>2026-04-30T11:39:14.999Z</time></trkpt><trkpt lat="42.33238345796413" lon="12.216432602186229"><ele>701.0</ele><time>2026-04-30T11:39:15.999Z</time></trkpt><trkpt lat="42.33228138131125" lon="12.216399491364882"><ele>699.8</ele><time>2026-04-30T11:39:16.999Z</time></trkpt><trkpt lat="42.33217263963516" lon="12.216359526453076"><ele>698.5999999999999</ele><time>2026-04-30T11:39:17.999Z</time></trkpt><trkpt lat="42.33206707422634" lon="12.216330645428117"><ele>697.4</ele><time>2026-04-30T11:39:18.999Z</time></trkpt><trkpt lat="42.33196210356495" lon="12.21630024577528"><ele>696.2</ele><time>2026-04-30T11:39:19.999Z</time></trkpt><trkpt lat="42.33185357822279" lon="12.216265682467819"><ele>695.0</ele><time>2026-04-30T11:39:20.999Z</time></trkpt><trkpt lat="42.33174017500869" lon="12.21623199775241"><ele>695.0</ele><time>2026-04-30T11:39:21.999Z</time></trkpt><trkpt lat="42.331632650003634" lon="12.216200502925558"><ele>695.0</ele><time>2026-04-30T11:39:22.999Z</time></trkpt><trkpt lat="42.331555169620806" lon="12.216184059839359"><ele>695.0</ele><time>2026-04-30T11:39:23.999Z</time></trkpt><trkpt lat="42.33146020695911" lon="12.216170874145732"><ele>695.0</ele><time>2026-04-30T11:39:29.999Z</time></trkpt><trkpt lat="42.33139656478207" lon="12.216170556601146"><ele>695.0</ele><time>2026-04-30T11:39:30.999Z</time></trkpt><trkpt lat="42.331257380096304" lon="12.216180153416948"><ele>694.6</ele><time>2026-04-30T11:39:32.999Z</time></trkpt><trkpt lat="42.331162707519496" lon="12.216181112046934"><ele>694.2</ele><time>2026-04-30T11:39:33.999Z</time></trkpt><trkpt lat="42.33105998959864" lon="12.216182083645958"><ele>693.8</ele><time>2026-04-30T11:39:34.999Z</time></trkpt><trkpt lat="42.33095695953722" lon="12.216182480866166"><ele>693.4</ele><time>2026-04-30T11:39:35.999Z</time></trkpt><trkpt lat="42.33084217227445" lon="12.216177739735175"><ele>693.0</ele><time>2026-04-30T11:39:36.999Z</time></trkpt><trkpt lat="42.33071227656162" lon="12.216158074534716"><ele>693.0</ele><time>2026-04-30T11:39:37.999Z</time></trkpt><trkpt lat="42.330580216577964" lon="12.216123474405434"><ele>693.0</ele><time>2026-04-30T11:39:38.999Z</time></trkpt><trkpt lat="42.33044449537513" lon="12.216079014391873"><ele>693.0</ele><time>2026-04-30T11:39:39.999Z</time></trkpt><trkpt lat="42.33029838400424" lon="12.216025248913807"><ele>693.0</ele><time>2026-04-30T11:39:40.999Z</time></trkpt><trkpt lat="42.330143033890515" lon="12.215969288951923"><ele>691.0</ele><time>2026-04-30T11:39:41.999Z</time></trkpt><trkpt lat="42.32998574947184" lon="12.215906913749308"><ele>689.0</ele><time>2026-04-30T11:39:42.999Z</time></trkpt><trkpt lat="42.32982962873345" lon="12.215833047513922"><ele>687.0</ele><time>2026-04-30T11:39:43.999Z</time></trkpt><trkpt lat="42.32966906148792" lon="12.215744388841498"><ele>685.3333333333334</ele><time>2026-04-30T11:39:44.999Z</time></trkpt><trkpt lat="42.32950396979148" lon="12.21565232591083"><ele>683.6666666666667</ele><time>2026-04-30T11:39:45.999Z</time></trkpt><trkpt lat="42.329335318947734" lon="12.215550503136697"><ele>682.0</ele><time>2026-04-30T11:39:46.999Z</time></trkpt><trkpt lat="42.32916644373717" lon="12.21544618771497"><ele>682.0</ele><time>2026-04-30T11:39:47.999Z</time></trkpt><trkpt lat="42.32899697838008" lon="12.215339747068436"><ele>682.0</ele><time>2026-04-30T11:39:48.999Z</time></trkpt><trkpt lat="42.3288201960645" lon="12.215238192681156"><ele>682.0</ele><time>2026-04-30T11:39:49.999Z</time></trkpt><trkpt lat="42.328637442627894" lon="12.21513783767973"><ele>681.6666666666667</ele><time>2026-04-30T11:39:50.999Z</time></trkpt><trkpt lat="42.32845172579945" lon="12.21503976904485"><ele>681.3333333333334</ele><time>2026-04-30T11:39:51.999Z</time></trkpt><trkpt lat="42.32825560659848" lon="12.214955730897442"><ele>681.0</ele><time>2026-04-30T11:39:52.999Z</time></trkpt><trkpt lat="42.32805967393357" lon="12.214865271789256"><ele>679.0</ele><time>2026-04-30T11:39:53.999Z</time></trkpt><trkpt lat="42.32786251768243" lon="12.21476341264055"><ele>677.0</ele><time>2026-04-30T11:39:54.999Z</time></trkpt><trkpt lat="42.327655404476616" lon="12.21470240062336"><ele>675.0</ele><time>2026-04-30T11:39:55.999Z</time></trkpt><trkpt lat="42.32744146885286" lon="12.214651457044695"><ele>673.3333333333334</ele><time>2026-04-30T11:39:56.999Z</time></trkpt><trkpt lat="42.32722560983472" lon="12.214621150413551"><ele>671.6666666666667</ele><time>2026-04-30T11:39:57.999Z</time></trkpt><trkpt lat="42.32700330881363" lon="12.21460603380562"><ele>670.0</ele><time>2026-04-30T11:39:58.999Z</time></trkpt><trkpt lat="42.32677495268192" lon="12.214605505393681"><ele>670.0</ele><time>2026-04-30T11:39:59.999Z</time></trkpt><trkpt lat="42.32654581929782" lon="12.214618436618956"><ele>670.0</ele><time>2026-04-30T11:40:00.999Z</time></trkpt><trkpt lat="42.326317128096306" lon="12.214626070210025"><ele>669.6666666666667</ele><time>2026-04-30T11:40:01.999Z</time></trkpt><trkpt lat="42.32609276609483" lon="12.21463413912965"><ele>669.3333333333334</ele><time>2026-04-30T11:40:02.999Z</time></trkpt><trkpt lat="42.3258722131963" lon="12.214634113001122"><ele>669.0</ele><time>2026-04-30T11:40:03.999Z</time></trkpt><trkpt lat="42.32565435745406" lon="12.214636593069406"><ele>667.6666666666666</ele><time>2026-04-30T11:40:04.999Z</time></trkpt><trkpt lat="42.325441119630554" lon="12.21463458236826"><ele>666.3333333333333</ele><time>2026-04-30T11:40:05.998Z</time></trkpt><trkpt lat="42.32523285172836" lon="12.214632445730876"><ele>665.0</ele><time>2026-04-30T11:40:06.998Z</time></trkpt><trkpt lat="42.32502853508969" lon="12.214625385974808"><ele>665.0</ele><time>2026-04-30T11:40:07.998Z</time></trkpt><trkpt lat="42.32482423295477" lon="12.214616093577364"><ele>665.0</ele><time>2026-04-30T11:40:08.998Z</time></trkpt><trkpt lat="42.32462262733742" lon="12.214589935696761"><ele>665.0</ele><time>2026-04-30T11:40:09.998Z</time></trkpt><trkpt lat="42.3244164001736" lon="12.214540890931115"><ele>664.3333333333333</ele><time>2026-04-30T11:40:10.998Z</time></trkpt><trkpt lat="42.32421604108459" lon="12.214478533342485"><ele>663.6666666666666</ele><time>2026-04-30T11:40:11.998Z</time></trkpt><trkpt lat="42.3240201265264" lon="12.214413405274856"><ele>663.0</ele><time>2026-04-30T11:40:12.998Z</time></trkpt><trkpt lat="42.32382282295117" lon="12.214359562292206"><ele>661.0</ele><time>2026-04-30T11:40:13.998Z</time></trkpt><trkpt lat="42.32363730728179" lon="12.214299381387436"><ele>659.0</ele><time>2026-04-30T11:40:14.998Z</time></trkpt><trkpt lat="42.323449567548366" lon="12.214236381451856"><ele>657.0</ele><time>2026-04-30T11:40:15.998Z</time></trkpt><trkpt lat="42.32325689860455" lon="12.214161037513005"><ele>655.3333333333334</ele><time>2026-04-30T11:40:16.998Z</time></trkpt><trkpt lat="42.32306283483216" lon="12.214079907782764"><ele>653.6666666666667</ele><time>2026-04-30T11:40:18Z</time></trkpt><trkpt lat="42.32286771676324" lon="12.213989974292877"><ele>652.0</ele><time>2026-04-30T11:40:19Z</time></trkpt><trkpt lat="42.32267176243262" lon="12.2138812214939"><ele>651.3333333333334</ele><time>2026-04-30T11:40:20Z</time></trkpt><trkpt lat="42.322468515584184" lon="12.213762263546387"><ele>650.6666666666666</ele><time>2026-04-30T11:40:21Z</time></trkpt><trkpt lat="42.32226012430556" lon="12.213639558253194"><ele>650.0</ele><time>2026-04-30T11:40:22Z</time></trkpt><trkpt lat="42.322042823892545" lon="12.2135158677372"><ele>647.5</ele><time>2026-04-30T11:40:23Z</time></trkpt><trkpt lat="42.321820351717435" lon="12.2133887380379"><ele>645.0</ele><time>2026-04-30T11:40:24Z</time></trkpt><trkpt lat="42.321596567365326" lon="12.213257486005524"><ele>641.5</ele><time>2026-04-30T11:40:25Z</time></trkpt><trkpt lat="42.32137190436025" lon="12.21312145337486"><ele>638.0</ele><time>2026-04-30T11:40:26Z</time></trkpt><trkpt lat="42.32114621192693" lon="12.212984833819629"><ele>638.0</ele><time>2026-04-30T11:40:27Z</time></trkpt><trkpt lat="42.3209156912639" lon="12.21284529069786"><ele>638.0</ele><time>2026-04-30T11:40:28Z</time></trkpt><trkpt lat="42.32068394900215" lon="12.2127081296086"><ele>635.5</ele><time>2026-04-30T11:40:29Z</time></trkpt><trkpt lat="42.320452025009565" lon="12.212565804551172"><ele>633.0</ele><time>2026-04-30T11:40:30Z</time></trkpt><trkpt lat="42.3202189655919" lon="12.212422638031821"><ele>630.5</ele><time>2026-04-30T11:40:31Z</time></trkpt><trkpt lat="42.319988604133655" lon="12.212277738368044"><ele>628.0</ele><time>2026-04-30T11:40:32Z</time></trkpt><trkpt lat="42.319760932471716" lon="12.21213204176133"><ele>628.5</ele><time>2026-04-30T11:40:33Z</time></trkpt><trkpt lat="42.31953621948852" lon="12.211980876263693"><ele>629.0</ele><time>2026-04-30T11:40:34Z</time></trkpt><trkpt lat="42.3193144200531" lon="12.211829413864105"><ele>629.0</ele><time>2026-04-30T11:40:35Z</time></trkpt><trkpt lat="42.319095646963" lon="12.211673654679586"><ele>629.0</ele><time>2026-04-30T11:40:36Z</time></trkpt><trkpt lat="42.31887797883288" lon="12.21150564365246"><ele>626.0</ele><time>2026-04-30T11:40:37Z</time></trkpt><trkpt lat="42.31866522236938" lon="12.211325911736894"><ele>623.0</ele><time>2026-04-30T11:40:38Z</time></trkpt><trkpt lat="42.3184530998378" lon="12.211131188517072"><ele>623.0</ele><time>2026-04-30T11:40:39Z</time></trkpt><trkpt lat="42.31823617126118" lon="12.210949489486302"><ele>623.0</ele><time>2026-04-30T11:40:40Z</time></trkpt><trkpt lat="42.31801515053099" lon="12.2107686425491"><ele>621.5</ele><time>2026-04-30T11:40:41Z</time></trkpt><trkpt lat="42.317797890466" lon="12.210573969131381"><ele>620.0</ele><time>2026-04-30T11:40:42Z</time></trkpt><trkpt lat="42.31758075713626" lon="12.210388520267973"><ele>620.0</ele><time>2026-04-30T11:40:43Z</time></trkpt><trkpt lat="42.317368793512635" lon="12.21021974484448"><ele>620.0</ele><time>2026-04-30T11:40:44Z</time></trkpt><trkpt lat="42.317160657377805" lon="12.21006352786813"><ele>618.0</ele><time>2026-04-30T11:40:45Z</time></trkpt><trkpt lat="42.31694930259698" lon="12.209949041166928"><ele>616.0</ele><time>2026-04-30T11:40:46Z</time></trkpt><trkpt lat="42.316730643083226" lon="12.20989586827408"><ele>616.0</ele><time>2026-04-30T11:40:47Z</time></trkpt><trkpt lat="42.31650947182813" lon="12.209880269641578"><ele>616.0</ele><time>2026-04-30T11:40:48Z</time></trkpt><trkpt lat="42.31628611712764" lon="12.209885210465753"><ele>616.0</ele><time>2026-04-30T11:40:49Z</time></trkpt><trkpt lat="42.316064626133695" lon="12.209900017347659"><ele>615.0</ele><time>2026-04-30T11:40:50Z</time></trkpt><trkpt lat="42.31584643671352" lon="12.20991643563457"><ele>614.0</ele><time>2026-04-30T11:40:51Z</time></trkpt><trkpt lat="42.31562619465639" lon="12.209929462165743"><ele>613.0</ele><time>2026-04-30T11:40:52Z</time></trkpt><trkpt lat="42.31540342942953" lon="12.209939563896597"><ele>612.6666666666667</ele><time>2026-04-30T11:40:53Z</time></trkpt><trkpt lat="42.315180061919534" lon="12.209952925272047"><ele>612.3333333333334</ele><time>2026-04-30T11:40:54Z</time></trkpt><trkpt lat="42.31495527172733" lon="12.209959912191165"><ele>612.0</ele><time>2026-04-30T11:40:55Z</time></trkpt><trkpt lat="42.31472918471791" lon="12.209940153424064"><ele>609.5</ele><time>2026-04-30T11:40:56Z</time></trkpt><trkpt lat="42.314503011053205" lon="12.209889909063433"><ele>607.0</ele><time>2026-04-30T11:40:57Z</time></trkpt><trkpt lat="42.3142784873075" lon="12.20982414937322"><ele>607.0</ele><time>2026-04-30T11:40:58Z</time></trkpt><trkpt lat="42.314060356425905" lon="12.209753742049973"><ele>607.0</ele><time>2026-04-30T11:40:59Z</time></trkpt><trkpt lat="42.31384340041129" lon="12.209675844978456"><ele>607.0</ele><time>2026-04-30T11:41:00Z</time></trkpt><trkpt lat="42.3136310209152" lon="12.209603065099683"><ele>606.0</ele><time>2026-04-30T11:41:01Z</time></trkpt><trkpt lat="42.31342099928152" lon="12.209535844456312"><ele>605.0</ele><time>2026-04-30T11:41:02Z</time></trkpt><trkpt lat="42.3132148983269" lon="12.209463356963182"><ele>604.0</ele><time>2026-04-30T11:41:03Z</time></trkpt><trkpt lat="42.3130135870236" lon="12.209388403052834"><ele>602.6666666666667</ele><time>2026-04-30T11:41:04Z</time></trkpt><trkpt lat="42.31281232164606" lon="12.209315308834876"><ele>601.3333333333334</ele><time>2026-04-30T11:41:05Z</time></trkpt><trkpt lat="42.312614890889705" lon="12.209245522082847"><ele>600.0</ele><time>2026-04-30T11:41:06Z</time></trkpt><trkpt lat="42.312428035415756" lon="12.209174156991578"><ele>600.0</ele><time>2026-04-30T11:41:07Z</time></trkpt><trkpt lat="42.31224160607817" lon="12.209084428963122"><ele>600.0</ele><time>2026-04-30T11:41:08Z</time></trkpt><trkpt lat="42.312065917985095" lon="12.208971659603659"><ele>600.0</ele><time>2026-04-30T11:41:09Z</time></trkpt><trkpt lat="42.31190002849711" lon="12.208835601125404"><ele>599.0</ele><time>2026-04-30T11:41:10Z</time></trkpt><trkpt lat="42.31174070708243" lon="12.208682648075639"><ele>598.0</ele><time>2026-04-30T11:41:11Z</time></trkpt><trkpt lat="42.31159423383916" lon="12.208505074348"><ele>597.0</ele><time>2026-04-30T11:41:12Z</time></trkpt><trkpt lat="42.31145570976083" lon="12.208322064008605"><ele>595.6666666666666</ele><time>2026-04-30T11:41:13Z</time></trkpt><trkpt lat="42.31131203522751" lon="12.208147770287505"><ele>594.3333333333333</ele><time>2026-04-30T11:41:14Z</time></trkpt><trkpt lat="42.31116338593604" lon="12.20797506956418"><ele>593.0</ele><time>2026-04-30T11:41:15Z</time></trkpt><trkpt lat="42.311013534600455" lon="12.207804567904303"><ele>593.0</ele><time>2026-04-30T11:41:16Z</time></trkpt><trkpt lat="42.310864723883874" lon="12.207631495982554"><ele>593.0</ele><time>2026-04-30T11:41:16.999Z</time></trkpt><trkpt lat="42.310716186714636" lon="12.207462090523395"><ele>593.0</ele><time>2026-04-30T11:41:17.999Z</time></trkpt><trkpt lat="42.31056470532732" lon="12.207296621224986"><ele>591.0</ele><time>2026-04-30T11:41:18.999Z</time></trkpt><trkpt lat="42.31041111452554" lon="12.207129984385253"><ele>589.0</ele><time>2026-04-30T11:41:19.999Z</time></trkpt><trkpt lat="42.31026046845283" lon="12.206961034248279"><ele>587.0</ele><time>2026-04-30T11:41:20.999Z</time></trkpt><trkpt lat="42.31011088847221" lon="12.206787986939439"><ele>587.0</ele><time>2026-04-30T11:41:21.999Z</time></trkpt><trkpt lat="42.309963119310446" lon="12.206610506652655"><ele>587.0</ele><time>2026-04-30T11:41:22.999Z</time></trkpt><trkpt lat="42.30981080348707" lon="12.206437275397889"><ele>587.0</ele><time>2026-04-30T11:41:23.999Z</time></trkpt><trkpt lat="42.309667819385105" lon="12.206260396500936"><ele>585.0</ele><time>2026-04-30T11:41:24.999Z</time></trkpt><trkpt lat="42.30953030106704" lon="12.206082099104739"><ele>583.0</ele><time>2026-04-30T11:41:25.999Z</time></trkpt><trkpt lat="42.309392027947304" lon="12.205910380756354"><ele>581.0</ele><time>2026-04-30T11:41:26.999Z</time></trkpt><trkpt lat="42.30925350668749" lon="12.205750398764906"><ele>578.0</ele><time>2026-04-30T11:41:27.999Z</time></trkpt><trkpt lat="42.30909660037351" lon="12.205604351699808"><ele>575.0</ele><time>2026-04-30T11:41:28.999Z</time></trkpt><trkpt lat="42.30892093060313" lon="12.205509870358938"><ele>572.0</ele><time>2026-04-30T11:41:29.999Z</time></trkpt><trkpt lat="42.30874363188636" lon="12.20542569802226"><ele>570.3333333333333</ele><time>2026-04-30T11:41:30.999Z</time></trkpt><trkpt lat="42.30856989347222" lon="12.205327208644343"><ele>568.6666666666666</ele><time>2026-04-30T11:41:31.999Z</time></trkpt><trkpt lat="42.30840163037793" lon="12.205207015073647"><ele>567.0</ele><time>2026-04-30T11:41:32.999Z</time></trkpt><trkpt lat="42.30823280103668" lon="12.205083717913856"><ele>569.3333333333334</ele><time>2026-04-30T11:41:33.999Z</time></trkpt><trkpt lat="42.3080680117947" lon="12.204939225440942"><ele>571.6666666666667</ele><time>2026-04-30T11:41:34.999Z</time></trkpt><trkpt lat="42.30788093094416" lon="12.204831520441362"><ele>574.0</ele><time>2026-04-30T11:41:35.999Z</time></trkpt><trkpt lat="42.30773798218888" lon="12.204698144850147"><ele>568.3333333333334</ele><time>2026-04-30T11:41:36.999Z</time></trkpt><trkpt lat="42.30759836174047" lon="12.204551463104705"><ele>562.6666666666666</ele><time>2026-04-30T11:41:37.999Z</time></trkpt><trkpt lat="42.307448628471626" lon="12.20440046778465"><ele>557.0</ele><time>2026-04-30T11:41:38.999Z</time></trkpt><trkpt lat="42.3072912395524" lon="12.204256069965094"><ele>554.0</ele><time>2026-04-30T11:41:39.999Z</time></trkpt><trkpt lat="42.307146446534325" lon="12.204101513495266"><ele>551.0</ele><time>2026-04-30T11:41:40.999Z</time></trkpt><trkpt lat="42.30700572144215" lon="12.203939720668048"><ele>548.0</ele><time>2026-04-30T11:41:41.999Z</time></trkpt><trkpt lat="42.30688783170769" lon="12.203782146040602"><ele>548.0</ele><time>2026-04-30T11:41:42.999Z</time></trkpt><trkpt lat="42.30676795592499" lon="12.203626454038469"><ele>548.0</ele><time>2026-04-30T11:41:43.999Z</time></trkpt><trkpt lat="42.30664804909871" lon="12.203469845056972"><ele>548.0</ele><time>2026-04-30T11:41:44.999Z</time></trkpt><trkpt lat="42.306535396466714" lon="12.203320238336442"><ele>548.0</ele><time>2026-04-30T11:41:45.999Z</time></trkpt><trkpt lat="42.30642228836437" lon="12.203182029258212"><ele>548.0</ele><time>2026-04-30T11:41:46.999Z</time></trkpt><trkpt lat="42.30630818074988" lon="12.20304486895068"><ele>548.0</ele><time>2026-04-30T11:41:47.999Z</time></trkpt><trkpt lat="42.30620053538154" lon="12.202902460292115"><ele>546.5</ele><time>2026-04-30T11:41:48.999Z</time></trkpt><trkpt lat="42.306097129956534" lon="12.20276649340196"><ele>545.0</ele><time>2026-04-30T11:41:49.999Z</time></trkpt><trkpt lat="42.306000055612635" lon="12.202637091921144"><ele>543.5</ele><time>2026-04-30T11:41:50.999Z</time></trkpt><trkpt lat="42.30591952685551" lon="12.202516391094548"><ele>542.0</ele><time>2026-04-30T11:41:51.999Z</time></trkpt><trkpt lat="42.30584584058849" lon="12.202400467662827"><ele>541.25</ele><time>2026-04-30T11:41:52.999Z</time></trkpt><trkpt lat="42.30577471114233" lon="12.20228202407599"><ele>540.5</ele><time>2026-04-30T11:41:53.999Z</time></trkpt><trkpt lat="42.305702669179674" lon="12.20216563055045"><ele>539.75</ele><time>2026-04-30T11:41:54.999Z</time></trkpt><trkpt lat="42.30562665405313" lon="12.202042408552217"><ele>539.0</ele><time>2026-04-30T11:41:55.999Z</time></trkpt><trkpt lat="42.305541143194475" lon="12.201908421145143"><ele>539.0</ele><time>2026-04-30T11:41:56.999Z</time></trkpt><trkpt lat="42.30545161909097" lon="12.201763022785826"><ele>539.0</ele><time>2026-04-30T11:41:57.999Z</time></trkpt><trkpt lat="42.30535801063329" lon="12.201610109324974"><ele>539.0</ele><time>2026-04-30T11:41:58.999Z</time></trkpt><trkpt lat="42.305258671242704" lon="12.201451600408681"><ele>539.0</ele><time>2026-04-30T11:41:59.999Z</time></trkpt><trkpt lat="42.305152989430624" lon="12.201288407816516"><ele>537.3333333333333</ele><time>2026-04-30T11:42:00.999Z</time></trkpt><trkpt lat="42.30504881919718" lon="12.201117843722944"><ele>535.6666666666666</ele><time>2026-04-30T11:42:01.999Z</time></trkpt><trkpt lat="42.30494980474598" lon="12.20095265692893"><ele>534.0</ele><time>2026-04-30T11:42:02.999Z</time></trkpt><trkpt lat="42.30485130740485" lon="12.200790698453968"><ele>533.6666666666666</ele><time>2026-04-30T11:42:03.999Z</time></trkpt><trkpt lat="42.3047538645852" lon="12.200630191107752"><ele>533.3333333333333</ele><time>2026-04-30T11:42:04.999Z</time></trkpt><trkpt lat="42.30465462487628" lon="12.200475828064148"><ele>533.0</ele><time>2026-04-30T11:42:05.999Z</time></trkpt><trkpt lat="42.30454866867867" lon="12.20032092455089"><ele>533.0</ele><time>2026-04-30T11:42:06.999Z</time></trkpt><trkpt lat="42.30444088536264" lon="12.200159525286383"><ele>533.0</ele><time>2026-04-30T11:42:07.999Z</time></trkpt><trkpt lat="42.30433218241011" lon="12.19999846655765"><ele>533.0</ele><time>2026-04-30T11:42:08.999Z</time></trkpt><trkpt lat="42.30421640659567" lon="12.199844125476696"><ele>532.6666666666666</ele><time>2026-04-30T11:42:09.999Z</time></trkpt><trkpt lat="42.30409225477902" lon="12.199700443516228"><ele>532.3333333333334</ele><time>2026-04-30T11:42:10.999Z</time></trkpt><trkpt lat="42.30395177969054" lon="12.1995794493105"><ele>532.0</ele><time>2026-04-30T11:42:11.998Z</time></trkpt><trkpt lat="42.30380973610094" lon="12.199499242391697"><ele>533.5</ele><time>2026-04-30T11:42:12.998Z</time></trkpt><trkpt lat="42.30367367216394" lon="12.199466150142591"><ele>535.0</ele><time>2026-04-30T11:42:13.998Z</time></trkpt><trkpt lat="42.303536489260175" lon="12.199452414137706"><ele>536.5</ele><time>2026-04-30T11:42:14.998Z</time></trkpt><trkpt lat="42.30339941004821" lon="12.199456789041646"><ele>538.0</ele><time>2026-04-30T11:42:15.998Z</time></trkpt><trkpt lat="42.30327635818533" lon="12.19948646554943"><ele>538.0</ele><time>2026-04-30T11:42:16.998Z</time></trkpt><trkpt lat="42.30315391445895" lon="12.199537558666792"><ele>538.0</ele><time>2026-04-30T11:42:17.998Z</time></trkpt><trkpt lat="42.3030309310222" lon="12.199604525907525"><ele>538.0</ele><time>2026-04-30T11:42:18.998Z</time></trkpt><trkpt lat="42.302901353211304" lon="12.199668874393437"><ele>538.0</ele><time>2026-04-30T11:42:19.998Z</time></trkpt><trkpt lat="42.30277428340715" lon="12.199731332483333"><ele>538.75</ele><time>2026-04-30T11:42:20.998Z</time></trkpt><trkpt lat="42.30263732465658" lon="12.199793459130982"><ele>539.5</ele><time>2026-04-30T11:42:21.998Z</time></trkpt><trkpt lat="42.302504429112936" lon="12.199850840514456"><ele>540.25</ele><time>2026-04-30T11:42:22.998Z</time></trkpt><trkpt lat="42.30236935435263" lon="12.199911825029284"><ele>541.0</ele><time>2026-04-30T11:42:24Z</time></trkpt><trkpt lat="42.302238314099625" lon="12.199976383725781"><ele>542.75</ele><time>2026-04-30T11:42:25Z</time></trkpt><trkpt lat="42.30210553483704" lon="12.200042723475827"><ele>544.5</ele><time>2026-04-30T11:42:26Z</time></trkpt><trkpt lat="42.301973684201094" lon="12.200107315448687"><ele>546.25</ele><time>2026-04-30T11:42:27Z</time></trkpt><trkpt lat="42.30184049461275" lon="12.200173606491969"><ele>548.0</ele><time>2026-04-30T11:42:28Z</time></trkpt><trkpt lat="42.30170867017876" lon="12.200245722891783"><ele>548.0</ele><time>2026-04-30T11:42:29Z</time></trkpt><trkpt lat="42.301580402561356" lon="12.200322179444761"><ele>548.0</ele><time>2026-04-30T11:42:30Z</time></trkpt><trkpt lat="42.301456370374886" lon="12.200404228167933"><ele>548.0</ele><time>2026-04-30T11:42:31Z</time></trkpt><trkpt lat="42.30133412683868" lon="12.200488198537222"><ele>548.0</ele><time>2026-04-30T11:42:32Z</time></trkpt><trkpt lat="42.30120768337148" lon="12.200564241305067"><ele>549.25</ele><time>2026-04-30T11:42:33Z</time></trkpt><trkpt lat="42.30108132413182" lon="12.20063632608695"><ele>550.5</ele><time>2026-04-30T11:42:34Z</time></trkpt><trkpt lat="42.300954863340955" lon="12.20070351651466"><ele>551.75</ele><time>2026-04-30T11:42:35Z</time></trkpt><trkpt lat="42.30082523150197" lon="12.20075881044263"><ele>553.0</ele><time>2026-04-30T11:42:36Z</time></trkpt><trkpt lat="42.30069112680076" lon="12.200802660875754"><ele>552.0</ele><time>2026-04-30T11:42:37Z</time></trkpt><trkpt lat="42.30054852439212" lon="12.20083579502922"><ele>551.0</ele><time>2026-04-30T11:42:38Z</time></trkpt><trkpt lat="42.300399137450405" lon="12.20083333720209"><ele>550.0</ele><time>2026-04-30T11:42:39Z</time></trkpt><trkpt lat="42.30024499722181" lon="12.20084852613984"><ele>549.0</ele><time>2026-04-30T11:42:40Z</time></trkpt><trkpt lat="42.30009948073607" lon="12.200861845319022"><ele>549.0</ele><time>2026-04-30T11:42:41Z</time></trkpt><trkpt lat="42.29995613791366" lon="12.200874965541056"><ele>549.0</ele><time>2026-04-30T11:42:42Z</time></trkpt><trkpt lat="42.29981814971821" lon="12.200893946866387"><ele>549.0</ele><time>2026-04-30T11:42:43Z</time></trkpt><trkpt lat="42.2996843476267" lon="12.200949132693312"><ele>549.0</ele><time>2026-04-30T11:42:44Z</time></trkpt><trkpt lat="42.29955021403264" lon="12.200999507539114"><ele>548.25</ele><time>2026-04-30T11:42:45Z</time></trkpt><trkpt lat="42.299423054069955" lon="12.201086733569062"><ele>547.5</ele><time>2026-04-30T11:42:46Z</time></trkpt><trkpt lat="42.299311624233034" lon="12.20120715738544"><ele>546.75</ele><time>2026-04-30T11:42:47Z</time></trkpt><trkpt lat="42.299210752697945" lon="12.201343009048136"><ele>546.0</ele><time>2026-04-30T11:42:48Z</time></trkpt><trkpt lat="42.29911892351675" lon="12.201488534141495"><ele>545.75</ele><time>2026-04-30T11:42:49Z</time></trkpt><trkpt lat="42.2990316438957" lon="12.201644644640412"><ele>545.5</ele><time>2026-04-30T11:42:50Z</time></trkpt><trkpt lat="42.298941389838575" lon="12.20179940350031"><ele>545.25</ele><time>2026-04-30T11:42:51Z</time></trkpt><trkpt lat="42.29886198256153" lon="12.201959398388189"><ele>545.0</ele><time>2026-04-30T11:42:52Z</time></trkpt><trkpt lat="42.29878244155299" lon="12.202113914341545"><ele>543.5</ele><time>2026-04-30T11:42:53Z</time></trkpt><trkpt lat="42.29871917715029" lon="12.20225992701886"><ele>542.0</ele><time>2026-04-30T11:42:54Z</time></trkpt><trkpt lat="42.298647259242216" lon="12.202404649187221"><ele>540.5</ele><time>2026-04-30T11:42:55Z</time></trkpt><trkpt lat="42.29858120840833" lon="12.202544837232507"><ele>539.0</ele><time>2026-04-30T11:42:56Z</time></trkpt><trkpt lat="42.29851610647265" lon="12.202670531040184"><ele>538.4</ele><time>2026-04-30T11:42:57Z</time></trkpt><trkpt lat="42.298460654222694" lon="12.202782147329776"><ele>537.8</ele><time>2026-04-30T11:42:58Z</time></trkpt><trkpt lat="42.29839688721771" lon="12.202863458959113"><ele>537.2</ele><time>2026-04-30T11:42:59Z</time></trkpt><trkpt lat="42.29833900153822" lon="12.202952230393674"><ele>536.6</ele><time>2026-04-30T11:43:00Z</time></trkpt><trkpt lat="42.29828827672417" lon="12.203060818604126"><ele>536.0</ele><time>2026-04-30T11:43:01Z</time></trkpt><trkpt lat="42.29821487970565" lon="12.20314806222815"><ele>535.2</ele><time>2026-04-30T11:43:02Z</time></trkpt><trkpt lat="42.2981431928719" lon="12.203252813238269"><ele>534.4000000000001</ele><time>2026-04-30T11:43:03Z</time></trkpt><trkpt lat="42.29806978966668" lon="12.203362479437326"><ele>533.6</ele><time>2026-04-30T11:43:04Z</time></trkpt><trkpt lat="42.29799195509533" lon="12.203474505126707"><ele>532.8000000000001</ele><time>2026-04-30T11:43:05Z</time></trkpt><trkpt lat="42.297907320264194" lon="12.203588139950348"><ele>532.0</ele><time>2026-04-30T11:43:06Z</time></trkpt><trkpt lat="42.29782907163493" lon="12.203704345663075"><ele>530.75</ele><time>2026-04-30T11:43:07Z</time></trkpt><trkpt lat="42.29775156123612" lon="12.203821647284109"><ele>529.5</ele><time>2026-04-30T11:43:08Z</time></trkpt><trkpt lat="42.29768216777595" lon="12.20394754990526"><ele>528.25</ele><time>2026-04-30T11:43:09Z</time></trkpt><trkpt lat="42.297622028958585" lon="12.204081349096159"><ele>527.0</ele><time>2026-04-30T11:43:10Z</time></trkpt><trkpt lat="42.29756992977419" lon="12.204214901245072"><ele>527.0</ele><time>2026-04-30T11:43:11Z</time></trkpt><trkpt lat="42.29752524046213" lon="12.204350733114362"><ele>527.0</ele><time>2026-04-30T11:43:12Z</time></trkpt><trkpt lat="42.297484782031546" lon="12.204489603414094"><ele>527.0</ele><time>2026-04-30T11:43:13Z</time></trkpt><trkpt lat="42.297443334609326" lon="12.204625548740534"><ele>527.0</ele><time>2026-04-30T11:43:14Z</time></trkpt><trkpt lat="42.29740363934215" lon="12.204762350206375"><ele>527.0</ele><time>2026-04-30T11:43:15Z</time></trkpt><trkpt lat="42.297346870472914" lon="12.204888095761348"><ele>526.25</ele><time>2026-04-30T11:43:16Z</time></trkpt><trkpt lat="42.297295530119406" lon="12.205021518363733"><ele>525.5</ele><time>2026-04-30T11:43:17Z</time></trkpt><trkpt lat="42.29725336514707" lon="12.20516385542193"><ele>524.75</ele><time>2026-04-30T11:43:18Z</time></trkpt><trkpt lat="42.297197588642234" lon="12.205296572395092"><ele>524.0</ele><time>2026-04-30T11:43:19Z</time></trkpt><trkpt lat="42.29713734278684" lon="12.2054304522187"><ele>523.25</ele><time>2026-04-30T11:43:20Z</time></trkpt><trkpt lat="42.29707736237364" lon="12.20556591105342"><ele>522.5</ele><time>2026-04-30T11:43:21Z</time></trkpt><trkpt lat="42.29701575218511" lon="12.20570189520392"><ele>521.75</ele><time>2026-04-30T11:43:22Z</time></trkpt><trkpt lat="42.296960659954806" lon="12.205844038613153"><ele>521.0</ele><time>2026-04-30T11:43:23Z</time></trkpt><trkpt lat="42.29690477345597" lon="12.205990583190005"><ele>518.25</ele><time>2026-04-30T11:43:23.999Z</time></trkpt><trkpt lat="42.296836445401226" lon="12.206134018948111"><ele>515.5</ele><time>2026-04-30T11:43:24.999Z</time></trkpt><trkpt lat="42.29677303945236" lon="12.206275283651626"><ele>512.75</ele><time>2026-04-30T11:43:25.999Z</time></trkpt><trkpt lat="42.29671047290229" lon="12.206422179851412"><ele>510.0</ele><time>2026-04-30T11:43:26.999Z</time></trkpt><trkpt lat="42.29665077212089" lon="12.206574124818825"><ele>507.5</ele><time>2026-04-30T11:43:27.999Z</time></trkpt><trkpt lat="42.2965954238216" lon="12.206733480345015"><ele>505.0</ele><time>2026-04-30T11:43:28.999Z</time></trkpt><trkpt lat="42.29654804053561" lon="12.20689781625836"><ele>502.5</ele><time>2026-04-30T11:43:29.999Z</time></trkpt><trkpt lat="42.296495341490626" lon="12.207061932479624"><ele>500.0</ele><time>2026-04-30T11:43:30.999Z</time></trkpt><trkpt lat="42.29645074477149" lon="12.20722781993472"><ele>500.5</ele><time>2026-04-30T11:43:31.999Z</time></trkpt><trkpt lat="42.29640926448181" lon="12.207398377916938"><ele>501.0</ele><time>2026-04-30T11:43:32.999Z</time></trkpt><trkpt lat="42.29637820936452" lon="12.20756921526435"><ele>501.5</ele><time>2026-04-30T11:43:33.999Z</time></trkpt><trkpt lat="42.29634436264265" lon="12.20774427041893"><ele>502.0</ele><time>2026-04-30T11:43:34.999Z</time></trkpt><trkpt lat="42.29630451947019" lon="12.207919314303098"><ele>502.0</ele><time>2026-04-30T11:43:35.999Z</time></trkpt><trkpt lat="42.296264157324856" lon="12.208094209307779"><ele>502.0</ele><time>2026-04-30T11:43:36.999Z</time></trkpt><trkpt lat="42.2962245250911" lon="12.208268770386562"><ele>502.0</ele><time>2026-04-30T11:43:37.999Z</time></trkpt><trkpt lat="42.29618933074069" lon="12.208433775748954"><ele>502.0</ele><time>2026-04-30T11:43:38.999Z</time></trkpt><trkpt lat="42.296154981572" lon="12.208585504336133"><ele>500.8</ele><time>2026-04-30T11:43:39.999Z</time></trkpt><trkpt lat="42.29611702705067" lon="12.208726857582391"><ele>499.6</ele><time>2026-04-30T11:43:40.999Z</time></trkpt><trkpt lat="42.296086586406446" lon="12.208859451662333"><ele>498.40000000000003</ele><time>2026-04-30T11:43:41.999Z</time></trkpt><trkpt lat="42.296051052115416" lon="12.208988010095542"><ele>497.20000000000005</ele><time>2026-04-30T11:43:42.999Z</time></trkpt><trkpt lat="42.29601785499224" lon="12.209113385271477"><ele>496.0</ele><time>2026-04-30T11:43:43.999Z</time></trkpt><trkpt lat="42.29598404292703" lon="12.209234867402232"><ele>495.1666666666667</ele><time>2026-04-30T11:43:44.999Z</time></trkpt><trkpt lat="42.29594942505309" lon="12.209352100447454"><ele>494.33333333333337</ele><time>2026-04-30T11:43:45.999Z</time></trkpt><trkpt lat="42.29591270669854" lon="12.209462071464282"><ele>493.5</ele><time>2026-04-30T11:43:46.999Z</time></trkpt><trkpt lat="42.29587768554607" lon="12.209554686237137"><ele>492.66666666666663</ele><time>2026-04-30T11:43:47.999Z</time></trkpt><trkpt lat="42.295844447134975" lon="12.209646828179244"><ele>491.8333333333333</ele><time>2026-04-30T11:43:48.999Z</time></trkpt><trkpt lat="42.29581013203686" lon="12.209738430465226"><ele>491.0</ele><time>2026-04-30T11:43:49.999Z</time></trkpt><trkpt lat="42.29577511579461" lon="12.209824621398873"><ele>490.3333333333333</ele><time>2026-04-30T11:43:50.999Z</time></trkpt><trkpt lat="42.295738366885494" lon="12.209910903919207"><ele>489.66666666666663</ele><time>2026-04-30T11:43:51.999Z</time></trkpt><trkpt lat="42.29570160100939" lon="12.210004713083517"><ele>489.0</ele><time>2026-04-30T11:43:52.999Z</time></trkpt><trkpt lat="42.29565911380909" lon="12.210111398370838"><ele>488.33333333333337</ele><time>2026-04-30T11:43:53.999Z</time></trkpt><trkpt lat="42.29561561665701" lon="12.210221152131338"><ele>487.6666666666667</ele><time>2026-04-30T11:43:54.999Z</time></trkpt><trkpt lat="42.29556902296702" lon="12.210337726211687"><ele>487.0</ele><time>2026-04-30T11:43:55.999Z</time></trkpt><trkpt lat="42.29551553666171" lon="12.210458075471475"><ele>486.75</ele><time>2026-04-30T11:43:56.999Z</time></trkpt><trkpt lat="42.29545873310112" lon="12.210588384776878"><ele>486.5</ele><time>2026-04-30T11:43:57.999Z</time></trkpt><trkpt lat="42.29539977192869" lon="12.210728071517762"><ele>486.25</ele><time>2026-04-30T11:43:58.999Z</time></trkpt><trkpt lat="42.29534865582365" lon="12.210873920171387"><ele>486.0</ele><time>2026-04-30T11:43:59.999Z</time></trkpt><trkpt lat="42.2952991381363" lon="12.211025500251335"><ele>485.25</ele><time>2026-04-30T11:44:00.999Z</time></trkpt><trkpt lat="42.29524248071366" lon="12.21117838638167"><ele>484.5</ele><time>2026-04-30T11:44:01.999Z</time></trkpt><trkpt lat="42.29518541536461" lon="12.211333781393117"><ele>483.75</ele><time>2026-04-30T11:44:02.999Z</time></trkpt><trkpt lat="42.29511950051885" lon="12.211487774456826"><ele>483.0</ele><time>2026-04-30T11:44:03.999Z</time></trkpt><trkpt lat="42.295039797397465" lon="12.211627903002604"><ele>482.5</ele><time>2026-04-30T11:44:04.999Z</time></trkpt><trkpt lat="42.29496926494203" lon="12.21177480933329"><ele>482.0</ele><time>2026-04-30T11:44:05.999Z</time></trkpt><trkpt lat="42.29489168577412" lon="12.21191947683897"><ele>481.5</ele><time>2026-04-30T11:44:06.999Z</time></trkpt><trkpt lat="42.29481208485118" lon="12.212057379526133"><ele>481.0</ele><time>2026-04-30T11:44:07.999Z</time></trkpt><trkpt lat="42.29472557084751" lon="12.212205612430223"><ele>479.75</ele><time>2026-04-30T11:44:08.999Z</time></trkpt><trkpt lat="42.29464055340728" lon="12.212344648832424"><ele>478.5</ele><time>2026-04-30T11:44:09.999Z</time></trkpt><trkpt lat="42.29455393244718" lon="12.212479618680394"><ele>477.25</ele><time>2026-04-30T11:44:10.999Z</time></trkpt><trkpt lat="42.29446952850516" lon="12.212611242549098"><ele>476.0</ele><time>2026-04-30T11:44:11.999Z</time></trkpt><trkpt lat="42.294384254929135" lon="12.212744613119611"><ele>476.0</ele><time>2026-04-30T11:44:12.999Z</time></trkpt><trkpt lat="42.294306658511736" lon="12.212892023915913"><ele>476.0</ele><time>2026-04-30T11:44:13.999Z</time></trkpt><trkpt lat="42.29421553335852" lon="12.213026964663284"><ele>476.0</ele><time>2026-04-30T11:44:14.999Z</time></trkpt><trkpt lat="42.29412115039688" lon="12.213167312070706"><ele>476.0</ele><time>2026-04-30T11:44:15.999Z</time></trkpt><trkpt lat="42.29402692731033" lon="12.213311423328033"><ele>475.5</ele><time>2026-04-30T11:44:16.999Z</time></trkpt><trkpt lat="42.29394414328872" lon="12.213452025010945"><ele>475.0</ele><time>2026-04-30T11:44:17.998Z</time></trkpt><trkpt lat="42.293874928310196" lon="12.213597123423263"><ele>474.5</ele><time>2026-04-30T11:44:18.998Z</time></trkpt><trkpt lat="42.29381016471459" lon="12.213738291862107"><ele>474.0</ele><time>2026-04-30T11:44:19.998Z</time></trkpt><trkpt lat="42.293734058676705" lon="12.213872869188377"><ele>472.25</ele><time>2026-04-30T11:44:20.998Z</time></trkpt><trkpt lat="42.293667297347135" lon="12.214007809620645"><ele>470.5</ele><time>2026-04-30T11:44:21.998Z</time></trkpt><trkpt lat="42.29360831145482" lon="12.21415176545944"><ele>468.75</ele><time>2026-04-30T11:44:22.998Z</time></trkpt><trkpt lat="42.293575018479025" lon="12.214293998175028"><ele>467.0</ele><time>2026-04-30T11:44:23.998Z</time></trkpt><trkpt lat="42.29353462464107" lon="12.214430809932235"><ele>467.0</ele><time>2026-04-30T11:44:24.998Z</time></trkpt><trkpt lat="42.2934962124127" lon="12.214565137525065"><ele>467.00000000000006</ele><time>2026-04-30T11:44:25.998Z</time></trkpt><trkpt lat="42.29345447552112" lon="12.214697139967884"><ele>467.00000000000006</ele><time>2026-04-30T11:44:26.998Z</time></trkpt><trkpt lat="42.29342122706369" lon="12.214824211529592"><ele>467.0</ele><time>2026-04-30T11:44:27.998Z</time></trkpt><trkpt lat="42.29339081254934" lon="12.214944840543257"><ele>467.0</ele><time>2026-04-30T11:44:28.998Z</time></trkpt><trkpt lat="42.293373321020795" lon="12.21506585193003"><ele>466.0</ele><time>2026-04-30T11:44:30Z</time></trkpt><trkpt lat="42.29335722731092" lon="12.215181503950134"><ele>465.00000000000006</ele><time>2026-04-30T11:44:31Z</time></trkpt><trkpt lat="42.29333011229902" lon="12.215306172239089"><ele>464.00000000000006</ele><time>2026-04-30T11:44:32Z</time></trkpt><trkpt lat="42.29326790197481" lon="12.215381519503293"><ele>463.0</ele><time>2026-04-30T11:44:33Z</time></trkpt><trkpt lat="42.293175911232524" lon="12.215344879346768"><ele>462.0</ele><time>2026-04-30T11:44:34Z</time></trkpt><trkpt lat="42.29308550262117" lon="12.215370963223009"><ele>460.8</ele><time>2026-04-30T11:44:35Z</time></trkpt><trkpt lat="42.29302089119839" lon="12.215391519836848"><ele>459.6</ele><time>2026-04-30T11:44:37Z</time></trkpt><trkpt lat="42.29291475863222" lon="12.215428314287188"><ele>458.40000000000003</ele><time>2026-04-30T11:44:39Z</time></trkpt><trkpt lat="42.29281026781202" lon="12.215464539561575"><ele>457.20000000000005</ele><time>2026-04-30T11:44:40Z</time></trkpt><trkpt lat="42.292676975304744" lon="12.215522628158725"><ele>456.0</ele><time>2026-04-30T11:44:41Z</time></trkpt><trkpt lat="42.29257304514386" lon="12.215546542871797"><ele>456.0</ele><time>2026-04-30T11:44:42Z</time></trkpt><trkpt lat="42.29246041209155" lon="12.215581071400447"><ele>456.0</ele><time>2026-04-30T11:44:43Z</time></trkpt><trkpt lat="42.292363566622605" lon="12.215612001449104"><ele>456.0</ele><time>2026-04-30T11:44:44Z</time></trkpt><trkpt lat="42.29227677709565" lon="12.215640190720151"><ele>456.0</ele><time>2026-04-30T11:44:45Z</time></trkpt><trkpt lat="42.29218165271717" lon="12.215672131141277"><ele>456.0</ele><time>2026-04-30T11:44:46Z</time></trkpt><trkpt lat="42.29208100157078" lon="12.215705992706575"><ele>454.4</ele><time>2026-04-30T11:44:47Z</time></trkpt><trkpt lat="42.291963733073715" lon="12.215762014257432"><ele>452.8</ele><time>2026-04-30T11:44:48Z</time></trkpt><trkpt lat="42.29186104586765" lon="12.21578006678571"><ele>451.19999999999993</ele><time>2026-04-30T11:44:49Z</time></trkpt><trkpt lat="42.29177849137801" lon="12.215807483607234"><ele>449.59999999999997</ele><time>2026-04-30T11:44:50Z</time></trkpt><trkpt lat="42.291701356028256" lon="12.21583310070066"><ele>448.0</ele><time>2026-04-30T11:44:51Z</time></trkpt><trkpt lat="42.2916379793601" lon="12.215854148456858"><ele>448.00000000000006</ele><time>2026-04-30T11:44:52Z</time></trkpt><trkpt lat="42.291563920551894" lon="12.215878743828185"><ele>448.0</ele><time>2026-04-30T11:44:53Z</time></trkpt><trkpt lat="42.29148232161556" lon="12.215906618959329"><ele>448.0</ele><time>2026-04-30T11:44:54Z</time></trkpt><trkpt lat="42.29141165270208" lon="12.215930931358212"><ele>448.0</ele><time>2026-04-30T11:44:55Z</time></trkpt><trkpt lat="42.29133572009192" lon="12.2159571351513"><ele>448.00000000000006</ele><time>2026-04-30T11:44:56Z</time></trkpt><trkpt lat="42.29127576357861" lon="12.215997791443876"><ele>448.0</ele><time>2026-04-30T11:44:57Z</time></trkpt><trkpt lat="42.291144498786224" lon="12.216023124250313"><ele>446.59999999999997</ele><time>2026-04-30T11:44:59Z</time></trkpt><trkpt lat="42.291070865672" lon="12.21604820411661"><ele>445.19999999999993</ele><time>2026-04-30T11:45:00Z</time></trkpt><trkpt lat="42.290970537612445" lon="12.21608085493217"><ele>443.8</ele><time>2026-04-30T11:45:02Z</time></trkpt><trkpt lat="42.29084911138088" lon="12.216120372035247"><ele>442.4</ele><time>2026-04-30T11:45:04Z</time></trkpt><trkpt lat="42.29075591913271" lon="12.216139634132315"><ele>441.0</ele><time>2026-04-30T11:45:06Z</time></trkpt><trkpt lat="42.290664843772255" lon="12.216176650362254"><ele>441.0</ele><time>2026-04-30T11:45:08Z</time></trkpt><trkpt lat="42.290600087407" lon="12.21622478640838"><ele>441.0</ele><time>2026-04-30T11:45:09Z</time></trkpt><trkpt lat="42.29053669856941" lon="12.216252833480093"><ele>441.0</ele><time>2026-04-30T11:45:10Z</time></trkpt><trkpt lat="42.29047410689788" lon="12.216298523384626"><ele>441.0</ele><time>2026-04-30T11:45:11Z</time></trkpt><trkpt lat="42.290442299886074" lon="12.216441114844157"><ele>441.0</ele><time>2026-04-30T11:45:13Z</time></trkpt><trkpt lat="42.29040598094118" lon="12.216613841978656"><ele>440.8333333333333</ele><time>2026-04-30T11:45:16Z</time></trkpt><trkpt lat="42.29038246899659" lon="12.21669289859703"><ele>440.66666666666663</ele><time>2026-04-30T11:45:17Z</time></trkpt><trkpt lat="42.29035025822015" lon="12.216791022417832"><ele>440.5</ele><time>2026-04-30T11:45:19Z</time></trkpt><trkpt lat="42.2903343825093" lon="12.216882126562767"><ele>440.3333333333333</ele><time>2026-04-30T11:47:01Z</time></trkpt><trkpt lat="42.2902980714706" lon="12.216987574272713"><ele>440.16666666666663</ele><time>2026-04-30T11:49:31Z</time></trkpt><trkpt lat="42.29023141921614" lon="12.21710577150107"><ele>440.0</ele><time>2026-04-30T11:49:33Z</time></trkpt><trkpt lat="42.29017919797913" lon="12.21715414863172"><ele>439.99999999999994</ele><time>2026-04-30T11:49:34Z</time></trkpt><trkpt lat="42.29012398826464" lon="12.217218830824773"><ele>440.0</ele><time>2026-04-30T11:49:35Z</time></trkpt><trkpt lat="42.290066200358986" lon="12.217286829979603"><ele>440.0</ele><time>2026-04-30T11:49:36Z</time></trkpt><trkpt lat="42.290004807942" lon="12.21735294640017"><ele>440.0</ele><time>2026-04-30T11:49:37Z</time></trkpt><trkpt lat="42.28994170873908" lon="12.217418476291996"><ele>439.99999999999994</ele><time>2026-04-30T11:49:38Z</time></trkpt><trkpt lat="42.289879595267024" lon="12.21750688079204"><ele>440.0</ele><time>2026-04-30T11:49:39Z</time></trkpt><trkpt lat="42.28979571598898" lon="12.217564455799268"><ele>439.66666666666663</ele><time>2026-04-30T11:49:39.999Z</time></trkpt><trkpt lat="42.289727290798815" lon="12.217635300138202"><ele>439.3333333333333</ele><time>2026-04-30T11:49:40.999Z</time></trkpt><trkpt lat="42.28965877822337" lon="12.21770778426936"><ele>439.0</ele><time>2026-04-30T11:49:41.999Z</time></trkpt><trkpt lat="42.28958385465115" lon="12.217770234819483"><ele>438.66666666666663</ele><time>2026-04-30T11:49:42.999Z</time></trkpt><trkpt lat="42.28950983094243" lon="12.217833773390927"><ele>438.3333333333333</ele><time>2026-04-30T11:49:43.999Z</time></trkpt><trkpt lat="42.289438896279556" lon="12.217923055082501"><ele>438.0</ele><time>2026-04-30T11:49:44.999Z</time></trkpt><trkpt lat="42.28936534094486" lon="12.21800712419413"><ele>438.0</ele><time>2026-04-30T11:49:45.999Z</time></trkpt><trkpt lat="42.28928320911835" lon="12.218070555943829"><ele>437.99999999999994</ele><time>2026-04-30T11:49:46.999Z</time></trkpt><trkpt lat="42.289214859184376" lon="12.218160549493229"><ele>437.99999999999994</ele><time>2026-04-30T11:49:47.999Z</time></trkpt><trkpt lat="42.28913921658048" lon="12.21823907631306"><ele>438.0</ele><time>2026-04-30T11:49:48.999Z</time></trkpt><trkpt lat="42.28905423102349" lon="12.218307698749273"><ele>438.0</ele><time>2026-04-30T11:49:49.999Z</time></trkpt><trkpt lat="42.28896363420865" lon="12.218369932240115"><ele>436.6666666666667</ele><time>2026-04-30T11:49:50.999Z</time></trkpt><trkpt lat="42.28886725773129" lon="12.218430353224692"><ele>435.33333333333337</ele><time>2026-04-30T11:49:51.999Z</time></trkpt><trkpt lat="42.28879176363041" lon="12.218494428840229"><ele>434.0</ele><time>2026-04-30T11:49:52.999Z</time></trkpt><trkpt lat="42.288716517531626" lon="12.21854822410448"><ele>432.6666666666667</ele><time>2026-04-30T11:49:53.999Z</time></trkpt><trkpt lat="42.28866913496672" lon="12.218619527722376"><ele>431.33333333333337</ele><time>2026-04-30T11:49:54.999Z</time></trkpt><trkpt lat="42.28859447940962" lon="12.218665443924502"><ele>430.0</ele><time>2026-04-30T11:49:55.999Z</time></trkpt><trkpt lat="42.28852669605531" lon="12.218691960507874"><ele>430.0</ele><time>2026-04-30T11:49:56.999Z</time></trkpt><trkpt lat="42.288443515664966" lon="12.21869740038306"><ele>430.0</ele><time>2026-04-30T11:49:57.999Z</time></trkpt><trkpt lat="42.288365768943684" lon="12.21871408066801"><ele>430.0</ele><time>2026-04-30T11:49:59.999Z</time></trkpt><trkpt lat="42.28821201251695" lon="12.218747721922302"><ele>430.0</ele><time>2026-04-30T11:50:01.999Z</time></trkpt><trkpt lat="42.28813488709986" lon="12.218777041312173"><ele>430.0</ele><time>2026-04-30T11:50:03.999Z</time></trkpt><trkpt lat="42.28801612069933" lon="12.218811602861942"><ele>429.4</ele><time>2026-04-30T11:50:05.999Z</time></trkpt><trkpt lat="42.28793907952705" lon="12.21882419744331"><ele>428.8</ele><time>2026-04-30T11:50:06.999Z</time></trkpt><trkpt lat="42.28784272811254" lon="12.218830878060487"><ele>428.20000000000005</ele><time>2026-04-30T11:50:07.999Z</time></trkpt><trkpt lat="42.28776265497898" lon="12.218871210467205"><ele>427.6</ele><time>2026-04-30T11:50:08.999Z</time></trkpt><trkpt lat="42.287661612603436" lon="12.218871150168912"><ele>427.0</ele><time>2026-04-30T11:50:09.999Z</time></trkpt><trkpt lat="42.287565319858004" lon="12.218901343628902"><ele>427.0</ele><time>2026-04-30T11:50:10.999Z</time></trkpt><trkpt lat="42.28746435794169" lon="12.218922439828308"><ele>427.00000000000006</ele><time>2026-04-30T11:50:11.999Z</time></trkpt><trkpt lat="42.28735250561316" lon="12.218945183027701"><ele>427.00000000000006</ele><time>2026-04-30T11:50:12.999Z</time></trkpt><trkpt lat="42.287255400149114" lon="12.21896744547548"><ele>427.0</ele><time>2026-04-30T11:50:13.999Z</time></trkpt><trkpt lat="42.28715035706702" lon="12.218987935131379"><ele>427.0</ele><time>2026-04-30T11:50:14.999Z</time></trkpt><trkpt lat="42.28702536120001" lon="12.219014254088899"><ele>424.6</ele><time>2026-04-30T11:50:15.999Z</time></trkpt><trkpt lat="42.28690664100534" lon="12.21902847772518"><ele>422.20000000000005</ele><time>2026-04-30T11:50:16.999Z</time></trkpt><trkpt lat="42.28680849671033" lon="12.219045375879213"><ele>419.8</ele><time>2026-04-30T11:50:17.999Z</time></trkpt><trkpt lat="42.286715245064904" lon="12.219065238943875"><ele>417.4</ele><time>2026-04-30T11:50:18.999Z</time></trkpt><trkpt lat="42.28662776270372" lon="12.219082737091206"><ele>415.0</ele><time>2026-04-30T11:50:19.999Z</time></trkpt><trkpt lat="42.28655011079824" lon="12.219103649443058"><ele>415.00000000000006</ele><time>2026-04-30T11:50:20.999Z</time></trkpt><trkpt lat="42.28647950617" lon="12.21912417180875"><ele>415.0</ele><time>2026-04-30T11:50:21.999Z</time></trkpt><trkpt lat="42.28640259736107" lon="12.219156316958024"><ele>415.0</ele><time>2026-04-30T11:50:22.999Z</time></trkpt><trkpt lat="42.28631854911099" lon="12.219195734210354"><ele>415.0</ele><time>2026-04-30T11:50:23.999Z</time></trkpt><trkpt lat="42.28625681300173" lon="12.219242381529904"><ele>415.00000000000006</ele><time>2026-04-30T11:50:24.999Z</time></trkpt><trkpt lat="42.28618979824215" lon="12.21928926108425"><ele>415.0</ele><time>2026-04-30T11:50:25.999Z</time></trkpt><trkpt lat="42.28612971825003" lon="12.21932984122889"><ele>415.6666666666667</ele><time>2026-04-30T11:50:26.999Z</time></trkpt><trkpt lat="42.28608206571885" lon="12.219389344870066"><ele>416.33333333333337</ele><time>2026-04-30T11:50:27.999Z</time></trkpt><trkpt lat="42.286018614200195" lon="12.219431804914183"><ele>417.0</ele><time>2026-04-30T11:50:28.999Z</time></trkpt><trkpt lat="42.28595613818239" lon="12.219473396479268"><ele>417.66666666666663</ele><time>2026-04-30T11:50:29.999Z</time></trkpt><trkpt lat="42.28589654825197" lon="12.2195098462516"><ele>418.3333333333333</ele><time>2026-04-30T11:50:30.999Z</time></trkpt><trkpt lat="42.285819400131565" lon="12.219568847715337"><ele>419.0</ele><time>2026-04-30T11:50:31.999Z</time></trkpt><trkpt lat="42.28572923232777" lon="12.219642576435136"><ele>419.0</ele><time>2026-04-30T11:50:32.999Z</time></trkpt><trkpt lat="42.28564177074573" lon="12.219710606066819"><ele>419.0</ele><time>2026-04-30T11:50:33.999Z</time></trkpt><trkpt lat="42.28554656362161" lon="12.219788534489542"><ele>419.0</ele><time>2026-04-30T11:50:34.998Z</time></trkpt><trkpt lat="42.285460904483465" lon="12.219877254670042"><ele>419.0</ele><time>2026-04-30T11:50:35.998Z</time></trkpt><trkpt lat="42.28536890956976" lon="12.21995826369581"><ele>419.0</ele><time>2026-04-30T11:50:36.998Z</time></trkpt><trkpt lat="42.285266955057025" lon="12.220043224655893"><ele>418.0</ele><time>2026-04-30T11:50:37.998Z</time></trkpt><trkpt lat="42.28515870676582" lon="12.220130020108236"><ele>417.0</ele><time>2026-04-30T11:50:38.998Z</time></trkpt><trkpt lat="42.285053663173954" lon="12.22022767219805"><ele>416.0</ele><time>2026-04-30T11:50:39.998Z</time></trkpt><trkpt lat="42.28495122830029" lon="12.22033057265326"><ele>415.0</ele><time>2026-04-30T11:50:40.998Z</time></trkpt><trkpt lat="42.28483983498679" lon="12.22043352657874"><ele>415.0</ele><time>2026-04-30T11:50:41.998Z</time></trkpt><trkpt lat="42.28473984795191" lon="12.220540688252287"><ele>415.0</ele><time>2026-04-30T11:50:42.998Z</time></trkpt><trkpt lat="42.284642156365926" lon="12.220646861547714"><ele>415.0</ele><time>2026-04-30T11:50:43.998Z</time></trkpt><trkpt lat="42.28453255268668" lon="12.220742117288117"><ele>415.0</ele><time>2026-04-30T11:50:44.998Z</time></trkpt><trkpt lat="42.284426466298434" lon="12.220841771098954"><ele>413.0</ele><time>2026-04-30T11:50:45.998Z</time></trkpt><trkpt lat="42.284312330497535" lon="12.220941474518861"><ele>411.0</ele><time>2026-04-30T11:50:46.998Z</time></trkpt><trkpt lat="42.28419956057604" lon="12.221039762870703"><ele>409.0</ele><time>2026-04-30T11:50:48Z</time></trkpt><trkpt lat="42.28409114777504" lon="12.221137621653833"><ele>407.0</ele><time>2026-04-30T11:50:49Z</time></trkpt><trkpt lat="42.28398163560796" lon="12.22123344459957"><ele>406.75</ele><time>2026-04-30T11:50:50Z</time></trkpt><trkpt lat="42.28387364102795" lon="12.221328089003393"><ele>406.5</ele><time>2026-04-30T11:50:51Z</time></trkpt><trkpt lat="42.283758806921284" lon="12.221418335665534"><ele>406.25</ele><time>2026-04-30T11:50:52Z</time></trkpt><trkpt lat="42.283651473852785" lon="12.221513383053336"><ele>406.0</ele><time>2026-04-30T11:50:53Z</time></trkpt><trkpt lat="42.28353506612753" lon="12.22160940063827"><ele>405.0</ele><time>2026-04-30T11:50:54Z</time></trkpt><trkpt lat="42.2834100672855" lon="12.22170391687453"><ele>404.0</ele><time>2026-04-30T11:50:55Z</time></trkpt><trkpt lat="42.283287468545275" lon="12.2217967469644"><ele>403.0</ele><time>2026-04-30T11:50:56Z</time></trkpt><trkpt lat="42.28316592912388" lon="12.221883366183262"><ele>402.0</ele><time>2026-04-30T11:50:57Z</time></trkpt><trkpt lat="42.28304218306661" lon="12.221981018283596"><ele>400.25</ele><time>2026-04-30T11:50:58Z</time></trkpt><trkpt lat="42.28291948796575" lon="12.222078188299232"><ele>398.5</ele><time>2026-04-30T11:50:59Z</time></trkpt><trkpt lat="42.282788149189216" lon="12.222170728406063"><ele>396.75</ele><time>2026-04-30T11:51:00Z</time></trkpt><trkpt lat="42.28264909971107" lon="12.222252079856093"><ele>395.0</ele><time>2026-04-30T11:51:01Z</time></trkpt><trkpt lat="42.28250624953158" lon="12.222336244498274"><ele>393.3333333333333</ele><time>2026-04-30T11:51:02Z</time></trkpt><trkpt lat="42.28235166564159" lon="12.2223777816854"><ele>391.66666666666663</ele><time>2026-04-30T11:51:03Z</time></trkpt><trkpt lat="42.28219657388331" lon="12.222448523716427"><ele>390.0</ele><time>2026-04-30T11:51:04Z</time></trkpt><trkpt lat="42.282046308290795" lon="12.222511706112543"><ele>390.0</ele><time>2026-04-30T11:51:05Z</time></trkpt><trkpt lat="42.28189990268325" lon="12.222574296720063"><ele>390.0</ele><time>2026-04-30T11:51:06Z</time></trkpt><trkpt lat="42.281746309757416" lon="12.222631795404613"><ele>390.0</ele><time>2026-04-30T11:51:07Z</time></trkpt><trkpt lat="42.28160467095029" lon="12.222710500958321"><ele>390.0</ele><time>2026-04-30T11:51:08Z</time></trkpt><trkpt lat="42.28147492307846" lon="12.222808016804802"><ele>390.0</ele><time>2026-04-30T11:51:09Z</time></trkpt><trkpt lat="42.28136158571719" lon="12.222930567165715"><ele>390.0</ele><time>2026-04-30T11:51:10Z</time></trkpt><trkpt lat="42.28126649071994" lon="12.22307955465192"><ele>390.0</ele><time>2026-04-30T11:51:11Z</time></trkpt><trkpt lat="42.28119114958907" lon="12.223255652586822"><ele>390.5</ele><time>2026-04-30T11:51:12Z</time></trkpt><trkpt lat="42.28111128952204" lon="12.223418056010543"><ele>391.0</ele><time>2026-04-30T11:51:13Z</time></trkpt><trkpt lat="42.28103040725988" lon="12.223588803691932"><ele>391.5</ele><time>2026-04-30T11:51:14Z</time></trkpt><trkpt lat="42.280954189703344" lon="12.223748313875674"><ele>392.0</ele><time>2026-04-30T11:51:15Z</time></trkpt><trkpt lat="42.2808322546834" lon="12.223900627202692"><ele>391.3333333333333</ele><time>2026-04-30T11:51:16Z</time></trkpt><trkpt lat="42.2807458749427" lon="12.224089989459271"><ele>390.66666666666663</ele><time>2026-04-30T11:51:17Z</time></trkpt><trkpt lat="42.280666447381236" lon="12.224293092307692"><ele>390.0</ele><time>2026-04-30T11:51:18Z</time></trkpt><trkpt lat="42.280573358066384" lon="12.22448418222978"><ele>390.0</ele><time>2026-04-30T11:51:19Z</time></trkpt><trkpt lat="42.28048086176497" lon="12.224684379836852"><ele>390.0</ele><time>2026-04-30T11:51:20Z</time></trkpt><trkpt lat="42.28038342028612" lon="12.224890951695091"><ele>390.0</ele><time>2026-04-30T11:51:21Z</time></trkpt><trkpt lat="42.280285611925265" lon="12.225107619117434"><ele>389.33333333333337</ele><time>2026-04-30T11:51:22Z</time></trkpt><trkpt lat="42.28018701886803" lon="12.225320967924988"><ele>388.6666666666667</ele><time>2026-04-30T11:51:23Z</time></trkpt><trkpt lat="42.28008577092201" lon="12.22553082781308"><ele>388.0</ele><time>2026-04-30T11:51:24Z</time></trkpt><trkpt lat="42.279985127021696" lon="12.225744672381166"><ele>387.0</ele><time>2026-04-30T11:51:25Z</time></trkpt><trkpt lat="42.27989380154799" lon="12.225961980462554"><ele>386.0</ele><time>2026-04-30T11:51:26Z</time></trkpt><trkpt lat="42.279793055348485" lon="12.22617073800734"><ele>385.0</ele><time>2026-04-30T11:51:27Z</time></trkpt><trkpt lat="42.279700275547796" lon="12.22638828336857"><ele>384.6666666666667</ele><time>2026-04-30T11:51:28Z</time></trkpt><trkpt lat="42.27961124264729" lon="12.226598494473603"><ele>384.33333333333337</ele><time>2026-04-30T11:51:29Z</time></trkpt><trkpt lat="42.279526827590374" lon="12.226807450716997"><ele>384.0</ele><time>2026-04-30T11:51:30Z</time></trkpt><trkpt lat="42.27944308492255" lon="12.22701907941068"><ele>384.0</ele><time>2026-04-30T11:51:31Z</time></trkpt><trkpt lat="42.279355794023196" lon="12.227224672992795"><ele>384.0</ele><time>2026-04-30T11:51:32Z</time></trkpt><trkpt lat="42.27926789627496" lon="12.227429397629656"><ele>384.0</ele><time>2026-04-30T11:51:33Z</time></trkpt><trkpt lat="42.27918019803066" lon="12.227637750566261"><ele>382.6666666666667</ele><time>2026-04-30T11:51:34Z</time></trkpt><trkpt lat="42.279105100053016" lon="12.227843850643412"><ele>381.33333333333337</ele><time>2026-04-30T11:51:35Z</time></trkpt><trkpt lat="42.279024161634965" lon="12.228051928790494"><ele>380.0</ele><time>2026-04-30T11:51:36Z</time></trkpt><trkpt lat="42.27894712370192" lon="12.228264261917525"><ele>379.33333333333337</ele><time>2026-04-30T11:51:37Z</time></trkpt><trkpt lat="42.27886555286477" lon="12.228483602811973"><ele>378.6666666666667</ele><time>2026-04-30T11:51:38Z</time></trkpt><trkpt lat="42.278777602558456" lon="12.228707528455452"><ele>378.0</ele><time>2026-04-30T11:51:39Z</time></trkpt><trkpt lat="42.27868732641062" lon="12.228936403377523"><ele>377.6666666666667</ele><time>2026-04-30T11:51:40Z</time></trkpt><trkpt lat="42.278595616599475" lon="12.229161756045892"><ele>377.33333333333337</ele><time>2026-04-30T11:51:41Z</time></trkpt><trkpt lat="42.278490995202404" lon="12.229374728485656"><ele>377.0</ele><time>2026-04-30T11:51:42Z</time></trkpt><trkpt lat="42.2783569188003" lon="12.229541040783479"><ele>377.0</ele><time>2026-04-30T11:51:43Z</time></trkpt><trkpt lat="42.278224806611426" lon="12.229700058848255"><ele>377.0</ele><time>2026-04-30T11:51:44Z</time></trkpt><trkpt lat="42.27808639060461" lon="12.229866757941185"><ele>377.0</ele><time>2026-04-30T11:51:45Z</time></trkpt><trkpt lat="42.27795249245039" lon="12.230028017400429"><ele>375.33333333333337</ele><time>2026-04-30T11:51:46Z</time></trkpt><trkpt lat="42.277807319724374" lon="12.23020443208558"><ele>373.6666666666667</ele><time>2026-04-30T11:51:46.999Z</time></trkpt><trkpt lat="42.27766790842627" lon="12.230375351205863"><ele>372.0</ele><time>2026-04-30T11:51:47.999Z</time></trkpt><trkpt lat="42.277527296124894" lon="12.230547742156757"><ele>371.0</ele><time>2026-04-30T11:51:48.999Z</time></trkpt><trkpt lat="42.27737738064847" lon="12.2307312483889"><ele>370.0</ele><time>2026-04-30T11:51:49.999Z</time></trkpt><trkpt lat="42.27721632035813" lon="12.23092692924189"><ele>369.0</ele><time>2026-04-30T11:51:50.999Z</time></trkpt><trkpt lat="42.277056367495106" lon="12.231120232931271"><ele>368.0</ele><time>2026-04-30T11:51:51.999Z</time></trkpt><trkpt lat="42.27689267015064" lon="12.231318061936864"><ele>367.0</ele><time>2026-04-30T11:51:52.999Z</time></trkpt><trkpt lat="42.27672145369254" lon="12.231524977700033"><ele>366.0</ele><time>2026-04-30T11:51:53.999Z</time></trkpt><trkpt lat="42.276549884037394" lon="12.23173232068242"><ele>364.5</ele><time>2026-04-30T11:51:54.999Z</time></trkpt><trkpt lat="42.27637858922821" lon="12.231940310961278"><ele>363.0</ele><time>2026-04-30T11:51:55.999Z</time></trkpt><trkpt lat="42.276206116293864" lon="12.232149100804264"><ele>362.0</ele><time>2026-04-30T11:51:56.999Z</time></trkpt><trkpt lat="42.276041723461724" lon="12.232348109045464"><ele>361.0</ele><time>2026-04-30T11:51:57.999Z</time></trkpt><trkpt lat="42.27586602674483" lon="12.232560801421599"><ele>361.0</ele><time>2026-04-30T11:51:58.999Z</time></trkpt><trkpt lat="42.275690131116725" lon="12.23277373446772"><ele>361.0</ele><time>2026-04-30T11:51:59.999Z</time></trkpt><trkpt lat="42.27551164857053" lon="12.232989799225072"><ele>359.5</ele><time>2026-04-30T11:52:00.999Z</time></trkpt><trkpt lat="42.275325285828906" lon="12.233214091225685"><ele>358.0</ele><time>2026-04-30T11:52:01.999Z</time></trkpt><trkpt lat="42.27515150744594" lon="12.233448335858851"><ele>358.0</ele><time>2026-04-30T11:52:02.999Z</time></trkpt><trkpt lat="42.27496304286501" lon="12.233663216301103"><ele>358.0</ele><time>2026-04-30T11:52:03.999Z</time></trkpt><trkpt lat="42.27478346345009" lon="12.233880975051392"><ele>356.5</ele><time>2026-04-30T11:52:04.999Z</time></trkpt><trkpt lat="42.27460835595219" lon="12.2341004938166"><ele>355.0</ele><time>2026-04-30T11:52:05.999Z</time></trkpt><trkpt lat="42.27442191007964" lon="12.23429826072997"><ele>355.0</ele><time>2026-04-30T11:52:06.999Z</time></trkpt><trkpt lat="42.27425017204128" lon="12.234506018903662"><ele>355.0</ele><time>2026-04-30T11:52:07.999Z</time></trkpt><trkpt lat="42.27407749864575" lon="12.23471490865391"><ele>354.5</ele><time>2026-04-30T11:52:08.999Z</time></trkpt><trkpt lat="42.273907534638" lon="12.234920520761316"><ele>354.0</ele><time>2026-04-30T11:52:09.999Z</time></trkpt><trkpt lat="42.27374015920995" lon="12.235123001343217"><ele>354.0</ele><time>2026-04-30T11:52:10.999Z</time></trkpt><trkpt lat="42.27357914347654" lon="12.235317788397362"><ele>354.0</ele><time>2026-04-30T11:52:11.999Z</time></trkpt><trkpt lat="42.27343645969036" lon="12.235520944637216"><ele>354.0</ele><time>2026-04-30T11:52:12.999Z</time></trkpt><trkpt lat="42.273291349946014" lon="12.235703666128495"><ele>353.3333333333333</ele><time>2026-04-30T11:52:13.999Z</time></trkpt><trkpt lat="42.273161754948845" lon="12.235895297550089"><ele>352.66666666666663</ele><time>2026-04-30T11:52:14.999Z</time></trkpt><trkpt lat="42.273066150320425" lon="12.23611634644804"><ele>352.0</ele><time>2026-04-30T11:52:15.999Z</time></trkpt><trkpt lat="42.27299447746292" lon="12.23637259330308"><ele>349.0</ele><time>2026-04-30T11:52:16.999Z</time></trkpt><trkpt lat="42.27292167945698" lon="12.236641658813319"><ele>346.0</ele><time>2026-04-30T11:52:17.999Z</time></trkpt><trkpt lat="42.272843083273614" lon="12.236909028706272"><ele>343.0</ele><time>2026-04-30T11:52:18.999Z</time></trkpt><trkpt lat="42.27276319960974" lon="12.237184881148606"><ele>342.5</ele><time>2026-04-30T11:52:19.999Z</time></trkpt><trkpt lat="42.27270170474525" lon="12.237473852737251"><ele>342.0</ele><time>2026-04-30T11:52:20.999Z</time></trkpt><trkpt lat="42.27262240580945" lon="12.237768522730981"><ele>342.0</ele><time>2026-04-30T11:52:21.999Z</time></trkpt><trkpt lat="42.27256713279136" lon="12.238069145214912"><ele>342.0</ele><time>2026-04-30T11:52:22.999Z</time></trkpt><trkpt lat="42.272494232461916" lon="12.238374869307432"><ele>341.5</ele><time>2026-04-30T11:52:23.999Z</time></trkpt><trkpt lat="42.27241737282522" lon="12.23867334072126"><ele>341.0</ele><time>2026-04-30T11:52:24.999Z</time></trkpt><trkpt lat="42.27233522526061" lon="12.238979782582227"><ele>337.0</ele><time>2026-04-30T11:52:25.999Z</time></trkpt><trkpt lat="42.27225006278524" lon="12.23929890773445"><ele>333.0</ele><time>2026-04-30T11:52:26.999Z</time></trkpt><trkpt lat="42.272169224410504" lon="12.23960842957828"><ele>332.0</ele><time>2026-04-30T11:52:27.999Z</time></trkpt><trkpt lat="42.27209448013942" lon="12.239912326000493"><ele>331.0</ele><time>2026-04-30T11:52:28.999Z</time></trkpt><trkpt lat="42.272027346854834" lon="12.240208133421033"><ele>331.0</ele><time>2026-04-30T11:52:29.999Z</time></trkpt><trkpt lat="42.27195621876414" lon="12.240502553399086"><ele>331.0</ele><time>2026-04-30T11:52:30.999Z</time></trkpt><trkpt lat="42.271892838465156" lon="12.24078971541625"><ele>330.66666666666663</ele><time>2026-04-30T11:52:31.999Z</time></trkpt><trkpt lat="42.271828906158454" lon="12.241093310906544"><ele>330.3333333333333</ele><time>2026-04-30T11:52:32.999Z</time></trkpt><trkpt lat="42.27179838216006" lon="12.241316130440339"><ele>330.0</ele><time>2026-04-30T11:52:33.999Z</time></trkpt><trkpt lat="42.27173939719204" lon="12.241611974338248"><ele>329.0</ele><time>2026-04-30T11:52:34.999Z</time></trkpt><trkpt lat="42.27168522177345" lon="12.241907770147032"><ele>328.0</ele><time>2026-04-30T11:52:35.999Z</time></trkpt><trkpt lat="42.27162512010231" lon="12.242206937001756"><ele>327.5</ele><time>2026-04-30T11:52:36.999Z</time></trkpt><trkpt lat="42.27161130190596" lon="12.24251382925655"><ele>327.0</ele><time>2026-04-30T11:52:37.999Z</time></trkpt><trkpt lat="42.27159869946527" lon="12.242813821450662"><ele>327.0</ele><time>2026-04-30T11:52:38.999Z</time></trkpt><trkpt lat="42.271609847597595" lon="12.243107403747985"><ele>327.0</ele><time>2026-04-30T11:52:39.999Z</time></trkpt><trkpt lat="42.2716350565068" lon="12.243408365068198"><ele>327.0</ele><time>2026-04-30T11:52:40.999Z</time></trkpt><trkpt lat="42.271674228435344" lon="12.243703686749502"><ele>325.3333333333333</ele><time>2026-04-30T11:52:41.999Z</time></trkpt><trkpt lat="42.27171008000339" lon="12.243995300846516"><ele>323.66666666666663</ele><time>2026-04-30T11:52:42.998Z</time></trkpt><trkpt lat="42.271725607425296" lon="12.244293976867"><ele>322.0</ele><time>2026-04-30T11:52:43.998Z</time></trkpt><trkpt lat="42.271725693880164" lon="12.244594662761113"><ele>321.5</ele><time>2026-04-30T11:52:44.998Z</time></trkpt><trkpt lat="42.27168995835735" lon="12.244908036225159"><ele>321.0</ele><time>2026-04-30T11:52:45.998Z</time></trkpt><trkpt lat="42.27164800697744" lon="12.245219439849777"><ele>321.0</ele><time>2026-04-30T11:52:46.998Z</time></trkpt><trkpt lat="42.27160720270888" lon="12.245525003114718"><ele>321.0</ele><time>2026-04-30T11:52:47.998Z</time></trkpt><trkpt lat="42.2715859334506" lon="12.245831822667485"><ele>321.0</ele><time>2026-04-30T11:52:48.998Z</time></trkpt><trkpt lat="42.27155864393719" lon="12.246128397238957"><ele>321.0</ele><time>2026-04-30T11:52:49.998Z</time></trkpt><trkpt lat="42.27151826599145" lon="12.246427367852574"><ele>321.0</ele><time>2026-04-30T11:52:50.998Z</time></trkpt><trkpt lat="42.27147396484858" lon="12.246722120323424"><ele>318.5</ele><time>2026-04-30T11:52:51.998Z</time></trkpt><trkpt lat="42.27141264455186" lon="12.247017143538086"><ele>316.0</ele><time>2026-04-30T11:52:52.998Z</time></trkpt><trkpt lat="42.2713432212217" lon="12.247318079867703"><ele>316.0</ele><time>2026-04-30T11:52:54Z</time></trkpt><trkpt lat="42.27126286792127" lon="12.247618373805878"><ele>316.0</ele><time>2026-04-30T11:52:55Z</time></trkpt><trkpt lat="42.27118020620188" lon="12.247919982527868"><ele>316.3333333333333</ele><time>2026-04-30T11:52:56Z</time></trkpt><trkpt lat="42.27110485263354" lon="12.248203428783297"><ele>316.6666666666667</ele><time>2026-04-30T11:52:57Z</time></trkpt><trkpt lat="42.27104444753812" lon="12.248476184023925"><ele>317.0</ele><time>2026-04-30T11:52:58Z</time></trkpt><trkpt lat="42.27094327242697" lon="12.248732005101312"><ele>316.0</ele><time>2026-04-30T11:52:59Z</time></trkpt><trkpt lat="42.27083943481776" lon="12.248975513327"><ele>315.0</ele><time>2026-04-30T11:53:00Z</time></trkpt><trkpt lat="42.2707137456704" lon="12.249212410557876"><ele>314.0</ele><time>2026-04-30T11:53:01Z</time></trkpt><trkpt lat="42.27058198875982" lon="12.249472939773709"><ele>311.5</ele><time>2026-04-30T11:53:02Z</time></trkpt><trkpt lat="42.270472439011485" lon="12.249734493744873"><ele>309.0</ele><time>2026-04-30T11:53:03Z</time></trkpt><trkpt lat="42.27034587891175" lon="12.249999066473361"><ele>308.0</ele><time>2026-04-30T11:53:04Z</time></trkpt><trkpt lat="42.27016497810612" lon="12.250319317602967"><ele>307.0</ele><time>2026-04-30T11:53:05Z</time></trkpt><trkpt lat="42.27004055463217" lon="12.250607535609491"><ele>305.0</ele><time>2026-04-30T11:53:06Z</time></trkpt><trkpt lat="42.269946032746276" lon="12.250889936988376"><ele>303.0</ele><time>2026-04-30T11:53:07Z</time></trkpt><trkpt lat="42.26983025492943" lon="12.251176482693504"><ele>302.0</ele><time>2026-04-30T11:53:08Z</time></trkpt><trkpt lat="42.2696478491662" lon="12.251469644983569"><ele>301.0</ele><time>2026-04-30T11:53:09Z</time></trkpt><trkpt lat="42.26951124489808" lon="12.25176899077803"><ele>301.0</ele><time>2026-04-30T11:53:10Z</time></trkpt><trkpt lat="42.269385656954405" lon="12.252056830186431"><ele>301.0</ele><time>2026-04-30T11:53:11Z</time></trkpt><trkpt lat="42.269248416151406" lon="12.252333835344857"><ele>299.0</ele><time>2026-04-30T11:53:12Z</time></trkpt><trkpt lat="42.26912937187262" lon="12.252602576868172"><ele>297.0</ele><time>2026-04-30T11:53:13Z</time></trkpt><trkpt lat="42.26898921506277" lon="12.252887268646104"><ele>297.5</ele><time>2026-04-30T11:53:14Z</time></trkpt><trkpt lat="42.26885808078015" lon="12.253156767391149"><ele>298.0</ele><time>2026-04-30T11:53:15Z</time></trkpt><trkpt lat="42.2687338994914" lon="12.253434164912733"><ele>298.0</ele><time>2026-04-30T11:53:16Z</time></trkpt><trkpt lat="42.268624375450294" lon="12.25367137411684"><ele>298.0</ele><time>2026-04-30T11:53:17Z</time></trkpt><trkpt lat="42.26852233726825" lon="12.25389784641056"><ele>298.0</ele><time>2026-04-30T11:53:18Z</time></trkpt><trkpt lat="42.268426947296575" lon="12.254113480625133"><ele>296.3333333333333</ele><time>2026-04-30T11:53:19Z</time></trkpt><trkpt lat="42.26831938794811" lon="12.254355424965278"><ele>294.6666666666667</ele><time>2026-04-30T11:53:20Z</time></trkpt><trkpt lat="42.26821094244441" lon="12.254583285529119"><ele>293.0</ele><time>2026-04-30T11:53:21Z</time></trkpt><trkpt lat="42.26809997778402" lon="12.254834760963975"><ele>293.0</ele><time>2026-04-30T11:53:22Z</time></trkpt><trkpt lat="42.267988279236306" lon="12.255076036996961"><ele>293.0</ele><time>2026-04-30T11:53:23Z</time></trkpt><trkpt lat="42.26786616897794" lon="12.255299299168717"><ele>293.0</ele><time>2026-04-30T11:53:24Z</time></trkpt><trkpt lat="42.26774307371058" lon="12.255522979212255"><ele>291.6666666666667</ele><time>2026-04-30T11:53:25Z</time></trkpt><trkpt lat="42.26759870508792" lon="12.255716399507964"><ele>290.3333333333333</ele><time>2026-04-30T11:53:26Z</time></trkpt><trkpt lat="42.267464168857636" lon="12.255914875906582"><ele>289.0</ele><time>2026-04-30T11:53:27Z</time></trkpt><trkpt lat="42.26733266899502" lon="12.256113868716563"><ele>289.3333333333333</ele><time>2026-04-30T11:53:28Z</time></trkpt><trkpt lat="42.26719032402745" lon="12.256336405931386"><ele>289.6666666666667</ele><time>2026-04-30T11:53:29Z</time></trkpt><trkpt lat="42.267049905142514" lon="12.256552483778451"><ele>290.0</ele><time>2026-04-30T11:53:30Z</time></trkpt><trkpt lat="42.26690895367579" lon="12.256766959045127"><ele>290.0</ele><time>2026-04-30T11:53:31Z</time></trkpt><trkpt lat="42.26676713006945" lon="12.256988818520302"><ele>290.0</ele><time>2026-04-30T11:53:32Z</time></trkpt><trkpt lat="42.266618404914695" lon="12.25720525573682"><ele>290.0</ele><time>2026-04-30T11:53:33Z</time></trkpt><trkpt lat="42.26646749924106" lon="12.257416820615775"><ele>289.0</ele><time>2026-04-30T11:53:34Z</time></trkpt><trkpt lat="42.266314359218256" lon="12.257635620717702"><ele>288.0</ele><time>2026-04-30T11:53:35Z</time></trkpt><trkpt lat="42.266164699412016" lon="12.257852458700867"><ele>287.0</ele><time>2026-04-30T11:53:36Z</time></trkpt><trkpt lat="42.26601288066142" lon="12.258073321062211"><ele>287.33333333333337</ele><time>2026-04-30T11:53:37Z</time></trkpt><trkpt lat="42.26587011336282" lon="12.258299875117482"><ele>287.6666666666667</ele><time>2026-04-30T11:53:38Z</time></trkpt><trkpt lat="42.26573753976569" lon="12.258531438425596"><ele>288.0</ele><time>2026-04-30T11:53:39Z</time></trkpt><trkpt lat="42.26561069362479" lon="12.258779068418026"><ele>286.3333333333333</ele><time>2026-04-30T11:53:40Z</time></trkpt><trkpt lat="42.265509653044596" lon="12.259031866555324"><ele>284.66666666666663</ele><time>2026-04-30T11:53:41Z</time></trkpt><trkpt lat="42.265425726315456" lon="12.259283765550524"><ele>283.0</ele><time>2026-04-30T11:53:42Z</time></trkpt><trkpt lat="42.265317200104704" lon="12.259495123911334"><ele>283.0</ele><time>2026-04-30T11:53:43Z</time></trkpt><trkpt lat="42.26525451666738" lon="12.259689489738157"><ele>283.0</ele><time>2026-04-30T11:53:44Z</time></trkpt><trkpt lat="42.2652028119407" lon="12.259849813299262"><ele>283.0</ele><time>2026-04-30T11:53:45Z</time></trkpt><trkpt lat="42.26516348079684" lon="12.25997176943985"><ele>283.0</ele><time>2026-04-30T11:53:46Z</time></trkpt><trkpt lat="42.26512168666927" lon="12.260040384860833"><ele>283.0</ele><time>2026-04-30T11:53:47Z</time></trkpt><trkpt lat="42.264976286995655" lon="12.259844565471589"><ele>283.0</ele><time>2026-04-30T11:53:50Z</time></trkpt><trkpt lat="42.264938081049834" lon="12.259720005566635"><ele>283.0</ele><time>2026-04-30T11:53:51Z</time></trkpt><trkpt lat="42.26489142836386" lon="12.259564189291176"><ele>283.0</ele><time>2026-04-30T11:53:52Z</time></trkpt><trkpt lat="42.26483310361508" lon="12.259425472056298"><ele>283.0</ele><time>2026-04-30T11:53:53Z</time></trkpt><trkpt lat="42.264795513359985" lon="12.259257003293149"><ele>283.0</ele><time>2026-04-30T11:53:54Z</time></trkpt><trkpt lat="42.26472874193753" lon="12.259068970481872"><ele>283.0</ele><time>2026-04-30T11:53:55Z</time></trkpt><trkpt lat="42.2646756331822" lon="12.258883967229565"><ele>283.0</ele><time>2026-04-30T11:53:56Z</time></trkpt><trkpt lat="42.264616231768876" lon="12.258679706477748"><ele>282.3333333333333</ele><time>2026-04-30T11:53:57Z</time></trkpt><trkpt lat="42.26453868264992" lon="12.258442859928905"><ele>281.6666666666667</ele><time>2026-04-30T11:53:57.999Z</time></trkpt><trkpt lat="42.2644479602007" lon="12.258223307615689"><ele>281.0</ele><time>2026-04-30T11:53:58.999Z</time></trkpt><trkpt lat="42.26433935227803" lon="12.25800993667875"><ele>280.6666666666667</ele><time>2026-04-30T11:53:59.999Z</time></trkpt><trkpt lat="42.264249890242986" lon="12.257823445996559"><ele>280.3333333333333</ele><time>2026-04-30T11:54:00.999Z</time></trkpt><trkpt lat="42.26413197357893" lon="12.257611559199095"><ele>280.0</ele><time>2026-04-30T11:54:01.999Z</time></trkpt><trkpt lat="42.26400419659814" lon="12.257374856915446"><ele>278.5</ele><time>2026-04-30T11:54:02.999Z</time></trkpt><trkpt lat="42.26388128059692" lon="12.257129838105547"><ele>277.0</ele><time>2026-04-30T11:54:03.999Z</time></trkpt><trkpt lat="42.26374041930009" lon="12.256880489188768"><ele>277.0</ele><time>2026-04-30T11:54:04.999Z</time></trkpt><trkpt lat="42.26359744245546" lon="12.256627413244388"><ele>277.0</ele><time>2026-04-30T11:54:05.999Z</time></trkpt><trkpt lat="42.26344059208739" lon="12.256349780462523"><ele>278.0</ele><time>2026-04-30T11:54:06.999Z</time></trkpt><trkpt lat="42.26330720358773" lon="12.256111604881177"><ele>279.0</ele><time>2026-04-30T11:54:07.999Z</time></trkpt><trkpt lat="42.263161507129176" lon="12.255853874761158"><ele>283.3333333333333</ele><time>2026-04-30T11:54:08.999Z</time></trkpt><trkpt lat="42.26303241736458" lon="12.255593813917814"><ele>287.66666666666663</ele><time>2026-04-30T11:54:09.999Z</time></trkpt><trkpt lat="42.26290577126099" lon="12.255357101624002"><ele>292.0</ele><time>2026-04-30T11:54:10.999Z</time></trkpt><trkpt lat="42.26278851713311" lon="12.255129642155095"><ele>292.0</ele><time>2026-04-30T11:54:11.999Z</time></trkpt><trkpt lat="42.26271413831145" lon="12.254863985635076"><ele>292.0</ele><time>2026-04-30T11:54:12.999Z</time></trkpt><trkpt lat="42.262645157217364" lon="12.254593086226425"><ele>292.0</ele><time>2026-04-30T11:54:13.999Z</time></trkpt><trkpt lat="42.26259138809548" lon="12.254314544356706"><ele>292.0</ele><time>2026-04-30T11:54:14.999Z</time></trkpt><trkpt lat="42.262516455339416" lon="12.254044398995475"><ele>292.0</ele><time>2026-04-30T11:54:15.999Z</time></trkpt><trkpt lat="42.262450139561594" lon="12.253773866056875"><ele>292.0</ele><time>2026-04-30T11:54:16.999Z</time></trkpt><trkpt lat="42.26237503294744" lon="12.25351913993744"><ele>295.3333333333333</ele><time>2026-04-30T11:54:17.999Z</time></trkpt><trkpt lat="42.26227389647392" lon="12.253273161807591"><ele>298.6666666666667</ele><time>2026-04-30T11:54:18.999Z</time></trkpt><trkpt lat="42.26215295776744" lon="12.253032137178575"><ele>302.0</ele><time>2026-04-30T11:54:19.999Z</time></trkpt><trkpt lat="42.26203256653919" lon="12.252790003344511"><ele>302.0</ele><time>2026-04-30T11:54:20.999Z</time></trkpt><trkpt lat="42.26191660704608" lon="12.252535670002827"><ele>302.0</ele><time>2026-04-30T11:54:21.999Z</time></trkpt><trkpt lat="42.261778222834366" lon="12.252301007839828"><ele>302.0</ele><time>2026-04-30T11:54:22.999Z</time></trkpt><trkpt lat="42.26164490905058" lon="12.252055256597552"><ele>302.0</ele><time>2026-04-30T11:54:23.999Z</time></trkpt><trkpt lat="42.261512941041964" lon="12.251806914465726"><ele>302.0</ele><time>2026-04-30T11:54:24.999Z</time></trkpt><trkpt lat="42.261387280053164" lon="12.251545968108044"><ele>304.6666666666667</ele><time>2026-04-30T11:54:25.999Z</time></trkpt><trkpt lat="42.261254731005124" lon="12.251300861468845"><ele>307.3333333333333</ele><time>2026-04-30T11:54:26.999Z</time></trkpt><trkpt lat="42.26113044871678" lon="12.251057132180303"><ele>310.0</ele><time>2026-04-30T11:54:27.999Z</time></trkpt><trkpt lat="42.260981121383296" lon="12.250806776105563"><ele>310.0</ele><time>2026-04-30T11:54:28.999Z</time></trkpt><trkpt lat="42.260849776866294" lon="12.25056061037449"><ele>310.0</ele><time>2026-04-30T11:54:29.999Z</time></trkpt><trkpt lat="42.260713225277065" lon="12.25032288246421"><ele>310.0</ele><time>2026-04-30T11:54:30.999Z</time></trkpt><trkpt lat="42.26056390123293" lon="12.250092717121388"><ele>310.66666666666663</ele><time>2026-04-30T11:54:31.999Z</time></trkpt><trkpt lat="42.260400934369834" lon="12.249880160000325"><ele>311.3333333333333</ele><time>2026-04-30T11:54:32.999Z</time></trkpt><trkpt lat="42.26024201435815" lon="12.249677418746652"><ele>312.0</ele><time>2026-04-30T11:54:33.999Z</time></trkpt><trkpt lat="42.26008309299083" lon="12.249472632975772"><ele>312.0</ele><time>2026-04-30T11:54:34.999Z</time></trkpt><trkpt lat="42.25992900057713" lon="12.249268042702052"><ele>312.0</ele><time>2026-04-30T11:54:35.999Z</time></trkpt><trkpt lat="42.25977083018354" lon="12.249082035310817"><ele>312.0</ele><time>2026-04-30T11:54:36.999Z</time></trkpt><trkpt lat="42.25961116377033" lon="12.248896528469402"><ele>314.6666666666667</ele><time>2026-04-30T11:54:37.999Z</time></trkpt><trkpt lat="42.25943445879724" lon="12.24874104915431"><ele>317.33333333333337</ele><time>2026-04-30T11:54:38.999Z</time></trkpt><trkpt lat="42.25924921083683" lon="12.248610454643607"><ele>320.0</ele><time>2026-04-30T11:54:39.999Z</time></trkpt><trkpt lat="42.259049476518726" lon="12.248499106964314"><ele>322.0</ele><time>2026-04-30T11:54:40.999Z</time></trkpt><trkpt lat="42.25885209306041" lon="12.248396701423664"><ele>324.0</ele><time>2026-04-30T11:54:41.999Z</time></trkpt><trkpt lat="42.25865455069658" lon="12.248341659022179"><ele>326.0</ele><time>2026-04-30T11:54:42.999Z</time></trkpt><trkpt lat="42.25845008089571" lon="12.248286646179974"><ele>326.0</ele><time>2026-04-30T11:54:43.999Z</time></trkpt><trkpt lat="42.25825915240082" lon="12.248241574152175"><ele>326.0</ele><time>2026-04-30T11:54:44.999Z</time></trkpt><trkpt lat="42.25807004958459" lon="12.248199696307429"><ele>326.0</ele><time>2026-04-30T11:54:45.999Z</time></trkpt><trkpt lat="42.25787474269767" lon="12.248155782980252"><ele>326.33333333333337</ele><time>2026-04-30T11:54:46.999Z</time></trkpt><trkpt lat="42.25767743817874" lon="12.248109734855861"><ele>326.6666666666667</ele><time>2026-04-30T11:54:47.999Z</time></trkpt><trkpt lat="42.25747896408178" lon="12.248057916098006"><ele>327.0</ele><time>2026-04-30T11:54:48.999Z</time></trkpt><trkpt lat="42.25729751419985" lon="12.248003372295642"><ele>326.0</ele><time>2026-04-30T11:54:49.999Z</time></trkpt><trkpt lat="42.25709126990806" lon="12.247943743097084"><ele>325.0</ele><time>2026-04-30T11:54:50.999Z</time></trkpt><trkpt lat="42.25689855314052" lon="12.247821891585668"><ele>324.0</ele><time>2026-04-30T11:54:51.999Z</time></trkpt><trkpt lat="42.256690734939454" lon="12.247764765862332"><ele>324.0</ele><time>2026-04-30T11:54:52.999Z</time></trkpt><trkpt lat="42.25648027726423" lon="12.247701212251725"><ele>324.0</ele><time>2026-04-30T11:54:53.998Z</time></trkpt><trkpt lat="42.25629297641228" lon="12.24764656048529"><ele>324.0</ele><time>2026-04-30T11:54:54.998Z</time></trkpt><trkpt lat="42.25609501014595" lon="12.24758497738607"><ele>322.0</ele><time>2026-04-30T11:54:55.998Z</time></trkpt><trkpt lat="42.25591966306613" lon="12.247507153460706"><ele>320.0</ele><time>2026-04-30T11:54:56.998Z</time></trkpt><trkpt lat="42.25575134984076" lon="12.247407445648404"><ele>318.0</ele><time>2026-04-30T11:54:57.998Z</time></trkpt><trkpt lat="42.25559783973733" lon="12.247288581259388"><ele>315.3333333333333</ele><time>2026-04-30T11:54:58.998Z</time></trkpt><trkpt lat="42.255452155545534" lon="12.247126339072963"><ele>312.66666666666663</ele><time>2026-04-30T11:55:00Z</time></trkpt><trkpt lat="42.25530532536402" lon="12.246972485386904"><ele>310.0</ele><time>2026-04-30T11:55:01Z</time></trkpt><trkpt lat="42.25514503641687" lon="12.246802045483008"><ele>310.0</ele><time>2026-04-30T11:55:02Z</time></trkpt><trkpt lat="42.254994734293774" lon="12.246664220880858"><ele>310.0</ele><time>2026-04-30T11:55:03Z</time></trkpt><trkpt lat="42.25484565251709" lon="12.24648344009142"><ele>310.0</ele><time>2026-04-30T11:55:04Z</time></trkpt><trkpt lat="42.25468124216698" lon="12.246338328248855"><ele>306.3333333333333</ele><time>2026-04-30T11:55:05Z</time></trkpt><trkpt lat="42.25452969722325" lon="12.246175517050615"><ele>302.6666666666667</ele><time>2026-04-30T11:55:06Z</time></trkpt><trkpt lat="42.25437902858208" lon="12.24601138742209"><ele>299.0</ele><time>2026-04-30T11:55:07Z</time></trkpt><trkpt lat="42.2542266913227" lon="12.24584884355074"><ele>299.0</ele><time>2026-04-30T11:55:08Z</time></trkpt><trkpt lat="42.25407350824721" lon="12.245688999194982"><ele>299.0</ele><time>2026-04-30T11:55:09Z</time></trkpt><trkpt lat="42.25392115006896" lon="12.245521104822274"><ele>299.0</ele><time>2026-04-30T11:55:10Z</time></trkpt><trkpt lat="42.25376623055603" lon="12.245349244518914"><ele>296.6666666666667</ele><time>2026-04-30T11:55:11Z</time></trkpt><trkpt lat="42.253606802463466" lon="12.245176960699679"><ele>294.3333333333333</ele><time>2026-04-30T11:55:12Z</time></trkpt><trkpt lat="42.253442776962004" lon="12.245005277147452"><ele>292.0</ele><time>2026-04-30T11:55:13Z</time></trkpt><trkpt lat="42.253276769948" lon="12.24483426276422"><ele>291.3333333333333</ele><time>2026-04-30T11:55:14Z</time></trkpt><trkpt lat="42.253107421609094" lon="12.244657260985301"><ele>290.6666666666667</ele><time>2026-04-30T11:55:15Z</time></trkpt><trkpt lat="42.252936978216376" lon="12.24448014656581"><ele>290.0</ele><time>2026-04-30T11:55:16Z</time></trkpt><trkpt lat="42.252769581692725" lon="12.244302816305574"><ele>290.0</ele><time>2026-04-30T11:55:17Z</time></trkpt><trkpt lat="42.25260210198199" lon="12.244128067108145"><ele>290.0</ele><time>2026-04-30T11:55:18Z</time></trkpt><trkpt lat="42.25243531554306" lon="12.243953335011197"><ele>290.0</ele><time>2026-04-30T11:55:19Z</time></trkpt><trkpt lat="42.25226735529809" lon="12.243775252521939"><ele>289.33333333333337</ele><time>2026-04-30T11:55:20Z</time></trkpt><trkpt lat="42.252097993667704" lon="12.243593301040761"><ele>288.6666666666667</ele><time>2026-04-30T11:55:21Z</time></trkpt><trkpt lat="42.251923026299686" lon="12.243410669369629"><ele>288.0</ele><time>2026-04-30T11:55:22Z</time></trkpt><trkpt lat="42.2517439512787" lon="12.243228240427314"><ele>290.0</ele><time>2026-04-30T11:55:23Z</time></trkpt><trkpt lat="42.25156225863339" lon="12.243047020672618"><ele>292.0</ele><time>2026-04-30T11:55:24Z</time></trkpt><trkpt lat="42.251376308261804" lon="12.24286679755678"><ele>292.0</ele><time>2026-04-30T11:55:25Z</time></trkpt><trkpt lat="42.251187255784096" lon="12.24268758236713"><ele>292.0</ele><time>2026-04-30T11:55:26Z</time></trkpt><trkpt lat="42.250997562477004" lon="12.2425091263074"><ele>292.0</ele><time>2026-04-30T11:55:27Z</time></trkpt><trkpt lat="42.25080529061907" lon="12.242327989219262"><ele>292.0</ele><time>2026-04-30T11:55:28Z</time></trkpt><trkpt lat="42.25061216640346" lon="12.242148780067051"><ele>288.5</ele><time>2026-04-30T11:55:29Z</time></trkpt><trkpt lat="42.25041969602574" lon="12.241967892240002"><ele>285.0</ele><time>2026-04-30T11:55:30Z</time></trkpt><trkpt lat="42.25022235992507" lon="12.241785355232107"><ele>285.0</ele><time>2026-04-30T11:55:31Z</time></trkpt><trkpt lat="42.25002497376032" lon="12.241601587427953"><ele>285.0</ele><time>2026-04-30T11:55:32Z</time></trkpt><trkpt lat="42.24982969493761" lon="12.241417469196177"><ele>284.5</ele><time>2026-04-30T11:55:33Z</time></trkpt><trkpt lat="42.24963463418769" lon="12.241226510428248"><ele>284.0</ele><time>2026-04-30T11:55:34Z</time></trkpt><trkpt lat="42.24943684275902" lon="12.241039733543237"><ele>284.0</ele><time>2026-04-30T11:55:35Z</time></trkpt><trkpt lat="42.24923908024521" lon="12.240854859224378"><ele>284.0</ele><time>2026-04-30T11:55:36Z</time></trkpt><trkpt lat="42.249042945240326" lon="12.24067387986341"><ele>284.5</ele><time>2026-04-30T11:55:37Z</time></trkpt><trkpt lat="42.24884791158238" lon="12.2404964183043"><ele>285.0</ele><time>2026-04-30T11:55:38Z</time></trkpt><trkpt lat="42.24865366521495" lon="12.240316757181734"><ele>285.0</ele><time>2026-04-30T11:55:39Z</time></trkpt><trkpt lat="42.24846227631097" lon="12.24013703775088"><ele>285.0</ele><time>2026-04-30T11:55:40Z</time></trkpt><trkpt lat="42.24827223183545" lon="12.23995697378245"><ele>285.5</ele><time>2026-04-30T11:55:41Z</time></trkpt><trkpt lat="42.24808398891748" lon="12.239777514153479"><ele>286.0</ele><time>2026-04-30T11:55:42Z</time></trkpt><trkpt lat="42.2478929487192" lon="12.239595155760572"><ele>286.0</ele><time>2026-04-30T11:55:43Z</time></trkpt><trkpt lat="42.24770394049983" lon="12.239399539154158"><ele>286.0</ele><time>2026-04-30T11:55:44Z</time></trkpt><trkpt lat="42.247516393741144" lon="12.239189288931978"><ele>286.0</ele><time>2026-04-30T11:55:45Z</time></trkpt><trkpt lat="42.24733333287437" lon="12.238972298494456"><ele>286.0</ele><time>2026-04-30T11:55:46Z</time></trkpt><trkpt lat="42.24714788714592" lon="12.238753761296488"><ele>286.0</ele><time>2026-04-30T11:55:47Z</time></trkpt><trkpt lat="42.24696097441048" lon="12.238538692737666"><ele>286.0</ele><time>2026-04-30T11:55:48Z</time></trkpt><trkpt lat="42.24677819383988" lon="12.238314525940696"><ele>285.5</ele><time>2026-04-30T11:55:49Z</time></trkpt><trkpt lat="42.246593994378564" lon="12.238089797199422"><ele>285.0</ele><time>2026-04-30T11:55:50Z</time></trkpt><trkpt lat="42.24640962300336" lon="12.237872938056412"><ele>287.0</ele><time>2026-04-30T11:55:51Z</time></trkpt><trkpt lat="42.24622628165065" lon="12.237655277834248"><ele>289.0</ele><time>2026-04-30T11:55:52Z</time></trkpt><trkpt lat="42.2460458249234" lon="12.237438570608528"><ele>289.5</ele><time>2026-04-30T11:55:53Z</time></trkpt><trkpt lat="42.24586845656813" lon="12.237222862013644"><ele>290.0</ele><time>2026-04-30T11:55:54Z</time></trkpt><trkpt lat="42.24568842293122" lon="12.237011994515209"><ele>291.0</ele><time>2026-04-30T11:55:55Z</time></trkpt><trkpt lat="42.245511922763875" lon="12.23680371524022"><ele>292.0</ele><time>2026-04-30T11:55:56Z</time></trkpt><trkpt lat="42.245335017918485" lon="12.236605919084113"><ele>292.0</ele><time>2026-04-30T11:55:57Z</time></trkpt><trkpt lat="42.24514310869436" lon="12.236432520515411"><ele>292.0</ele><time>2026-04-30T11:55:58Z</time></trkpt><trkpt lat="42.24494190903871" lon="12.236274322465338"><ele>291.5</ele><time>2026-04-30T11:55:59Z</time></trkpt><trkpt lat="42.24473551905347" lon="12.236118717965226"><ele>291.0</ele><time>2026-04-30T11:56:00Z</time></trkpt><trkpt lat="42.24452716137373" lon="12.235950518747371"><ele>291.0</ele><time>2026-04-30T11:56:01Z</time></trkpt><trkpt lat="42.24432522526926" lon="12.235766743590164"><ele>291.0</ele><time>2026-04-30T11:56:02Z</time></trkpt><trkpt lat="42.24412260345111" lon="12.235593911956219"><ele>289.5</ele><time>2026-04-30T11:56:03Z</time></trkpt><trkpt lat="42.24392532386669" lon="12.235421293194667"><ele>288.0</ele><time>2026-04-30T11:56:04Z</time></trkpt><trkpt lat="42.2437263206485" lon="12.23526860766073"><ele>288.0</ele><time>2026-04-30T11:56:04.999Z</time></trkpt><trkpt lat="42.243536054693" lon="12.23511943676979"><ele>288.0</ele><time>2026-04-30T11:56:05.999Z</time></trkpt><trkpt lat="42.24336027038129" lon="12.234958603163143"><ele>288.0</ele><time>2026-04-30T11:56:06.999Z</time></trkpt><trkpt lat="42.24319180898158" lon="12.234783784537367"><ele>289.0</ele><time>2026-04-30T11:56:07.999Z</time></trkpt><trkpt lat="42.242964563316995" lon="12.234683909768325"><ele>290.0</ele><time>2026-04-30T11:56:08.999Z</time></trkpt><trkpt lat="42.24282760730933" lon="12.234465902171937"><ele>290.0</ele><time>2026-04-30T11:56:09.999Z</time></trkpt><trkpt lat="42.24271489870531" lon="12.234228628750046"><ele>290.0</ele><time>2026-04-30T11:56:10.999Z</time></trkpt><trkpt lat="42.242604733273645" lon="12.23398428210968"><ele>290.0</ele><time>2026-04-30T11:56:11.999Z</time></trkpt><trkpt lat="42.242502293305655" lon="12.233748775401"><ele>291.0</ele><time>2026-04-30T11:56:12.999Z</time></trkpt><trkpt lat="42.24241087698682" lon="12.233496319363082"><ele>292.0</ele><time>2026-04-30T11:56:13.999Z</time></trkpt><trkpt lat="42.24229881330014" lon="12.233257239166903"><ele>293.0</ele><time>2026-04-30T11:56:14.999Z</time></trkpt><trkpt lat="42.242207627512535" lon="12.233017440514823"><ele>293.0</ele><time>2026-04-30T11:56:15.999Z</time></trkpt><trkpt lat="42.24212903844736" lon="12.23278817462467"><ele>293.0</ele><time>2026-04-30T11:56:16.999Z</time></trkpt><trkpt lat="42.24208346501379" lon="12.232554713935109"><ele>293.0</ele><time>2026-04-30T11:56:17.999Z</time></trkpt><trkpt lat="42.2420530413478" lon="12.232306885649988"><ele>292.33333333333337</ele><time>2026-04-30T11:56:18.999Z</time></trkpt><trkpt lat="42.2420322424663" lon="12.23206489139128"><ele>291.6666666666667</ele><time>2026-04-30T11:56:19.999Z</time></trkpt><trkpt lat="42.24201242734843" lon="12.231827744998697"><ele>291.0</ele><time>2026-04-30T11:56:20.999Z</time></trkpt><trkpt lat="42.24198111369071" lon="12.231587007919783"><ele>289.6666666666667</ele><time>2026-04-30T11:56:21.999Z</time></trkpt><trkpt lat="42.24192475009536" lon="12.23135536466066"><ele>288.33333333333337</ele><time>2026-04-30T11:56:22.999Z</time></trkpt><trkpt lat="42.2418429276671" lon="12.23110706485837"><ele>287.0</ele><time>2026-04-30T11:56:23.999Z</time></trkpt><trkpt lat="42.24173848171569" lon="12.230857447743547"><ele>286.0</ele><time>2026-04-30T11:56:24.999Z</time></trkpt><trkpt lat="42.241605671877394" lon="12.230639816916089"><ele>285.0</ele><time>2026-04-30T11:56:25.999Z</time></trkpt><trkpt lat="42.24146962696676" lon="12.23045710646531"><ele>284.0</ele><time>2026-04-30T11:56:26.999Z</time></trkpt><trkpt lat="42.24134207512298" lon="12.23029814724437"><ele>280.33333333333337</ele><time>2026-04-30T11:56:27.999Z</time></trkpt><trkpt lat="42.24124465017643" lon="12.23013722081662"><ele>276.6666666666667</ele><time>2026-04-30T11:56:28.999Z</time></trkpt><trkpt lat="42.24116510728569" lon="12.229964536070902"><ele>273.0</ele><time>2026-04-30T11:56:29.999Z</time></trkpt><trkpt lat="42.24109303323045" lon="12.229786126708099"><ele>271.0</ele><time>2026-04-30T11:56:30.999Z</time></trkpt><trkpt lat="42.241014978556464" lon="12.229606177195997"><ele>269.0</ele><time>2026-04-30T11:56:31.999Z</time></trkpt><trkpt lat="42.240909052376594" lon="12.22936565501881"><ele>267.0</ele><time>2026-04-30T11:56:32.999Z</time></trkpt><trkpt lat="42.240830154000264" lon="12.229207637885299"><ele>267.0</ele><time>2026-04-30T11:56:33.999Z</time></trkpt><trkpt lat="42.240749032759915" lon="12.229083345503879"><ele>267.0</ele><time>2026-04-30T11:56:34.999Z</time></trkpt><trkpt lat="42.240661171609766" lon="12.228988464447541"><ele>267.0</ele><time>2026-04-30T11:56:35.999Z</time></trkpt><trkpt lat="42.24056915288726" lon="12.228937423411178"><ele>267.0</ele><time>2026-04-30T11:56:36.999Z</time></trkpt><trkpt lat="42.24048011749531" lon="12.228928424305975"><ele>267.0</ele><time>2026-04-30T11:56:37.999Z</time></trkpt><trkpt lat="42.240409281882265" lon="12.228950508372337"><ele>266.8</ele><time>2026-04-30T11:56:38.999Z</time></trkpt><trkpt lat="42.24030243063965" lon="12.228969828525248"><ele>266.6</ele><time>2026-04-30T11:56:40.999Z</time></trkpt><trkpt lat="42.24022568715675" lon="12.228982158930183"><ele>266.40000000000003</ele><time>2026-04-30T11:56:42.999Z</time></trkpt><trkpt lat="42.24016205963085" lon="12.2289923819951"><ele>266.2</ele><time>2026-04-30T11:56:43.999Z</time></trkpt><trkpt lat="42.240073122121004" lon="12.228956321603011"><ele>266.0</ele><time>2026-04-30T11:56:45.999Z</time></trkpt><trkpt lat="42.23999707709306" lon="12.229061621222238"><ele>266.0</ele><time>2026-04-30T11:56:47.999Z</time></trkpt><trkpt lat="42.239971030984975" lon="12.229140617992398"><ele>266.0</ele><time>2026-04-30T11:56:48.999Z</time></trkpt><trkpt lat="42.23992108148718" lon="12.229221166607894"><ele>266.0</ele><time>2026-04-30T11:56:49.999Z</time></trkpt><trkpt lat="42.23985857150551" lon="12.229299826050902"><ele>266.0</ele><time>2026-04-30T11:56:50.999Z</time></trkpt><trkpt lat="42.23979147954017" lon="12.229371027561253"><ele>266.0</ele><time>2026-04-30T11:56:51.999Z</time></trkpt><trkpt lat="42.23972981248214" lon="12.229453348708244"><ele>266.0</ele><time>2026-04-30T11:56:52.999Z</time></trkpt><trkpt lat="42.23965860066344" lon="12.229542522559289"><ele>266.1666666666667</ele><time>2026-04-30T11:56:53.999Z</time></trkpt><trkpt lat="42.239593132928654" lon="12.229626090902132"><ele>266.33333333333337</ele><time>2026-04-30T11:56:54.999Z</time></trkpt><trkpt lat="42.239529389440065" lon="12.229706433035027"><ele>266.5</ele><time>2026-04-30T11:56:55.999Z</time></trkpt><trkpt lat="42.239464169061876" lon="12.22978086897255"><ele>266.6666666666667</ele><time>2026-04-30T11:56:56.999Z</time></trkpt><trkpt lat="42.23940579539068" lon="12.229860778828787"><ele>266.8333333333333</ele><time>2026-04-30T11:56:57.999Z</time></trkpt><trkpt lat="42.23932294479333" lon="12.229931921742084"><ele>267.0</ele><time>2026-04-30T11:56:58.999Z</time></trkpt><trkpt lat="42.23926796576815" lon="12.229996156493375"><ele>267.0</ele><time>2026-04-30T11:56:59.998Z</time></trkpt><trkpt lat="42.23919581364509" lon="12.23005438297585"><ele>267.0</ele><time>2026-04-30T11:57:00.998Z</time></trkpt><trkpt lat="42.23914566356013" lon="12.23010609089488"><ele>267.0</ele><time>2026-04-30T11:57:01.998Z</time></trkpt><trkpt lat="42.23909689614578" lon="12.230160044440417"><ele>267.0</ele><time>2026-04-30T11:57:02.998Z</time></trkpt><trkpt lat="42.2389863798245" lon="12.23027331257953"><ele>267.0</ele><time>2026-04-30T11:57:04.998Z</time></trkpt><trkpt lat="42.23891905835962" lon="12.230339714372068"><ele>267.0</ele><time>2026-04-30T11:57:06Z</time></trkpt><trkpt lat="42.23885126083753" lon="12.23042046662657"><ele>267.2</ele><time>2026-04-30T11:57:07Z</time></trkpt><trkpt lat="42.23877894297828" lon="12.230500661356862"><ele>267.4</ele><time>2026-04-30T11:57:08Z</time></trkpt><trkpt lat="42.2386955920497" lon="12.230579744611063"><ele>267.6</ele><time>2026-04-30T11:57:09Z</time></trkpt><trkpt lat="42.238616720561055" lon="12.230666855014334"><ele>267.8</ele><time>2026-04-30T11:57:10Z</time></trkpt><trkpt lat="42.238528420148334" lon="12.230759011025127"><ele>268.0</ele><time>2026-04-30T11:57:11Z</time></trkpt><trkpt lat="42.238437797990386" lon="12.230855093641203"><ele>268.0</ele><time>2026-04-30T11:57:12Z</time></trkpt><trkpt lat="42.23835135481953" lon="12.230949325895937"><ele>268.0</ele><time>2026-04-30T11:57:13.001Z</time></trkpt><trkpt lat="42.23825755386319" lon="12.231045924355817"><ele>268.0</ele><time>2026-04-30T11:57:14Z</time></trkpt><trkpt lat="42.2381484557481" lon="12.231132551605544"><ele>268.0</ele><time>2026-04-30T11:57:15Z</time></trkpt><trkpt lat="42.238045809270965" lon="12.231230715905431"><ele>269.25</ele><time>2026-04-30T11:57:16.001Z</time></trkpt><trkpt lat="42.237948632357416" lon="12.231341937474003"><ele>270.5</ele><time>2026-04-30T11:57:17Z</time></trkpt><trkpt lat="42.23784599409902" lon="12.231453415656718"><ele>271.75</ele><time>2026-04-30T11:57:18Z</time></trkpt><trkpt lat="42.23773540377497" lon="12.23154298359686"><ele>273.0</ele><time>2026-04-30T11:57:19.001Z</time></trkpt><trkpt lat="42.23762939779589" lon="12.231634841253145"><ele>273.0</ele><time>2026-04-30T11:57:20Z</time></trkpt><trkpt lat="42.23752999353235" lon="12.231724986195566"><ele>273.0</ele><time>2026-04-30T11:57:21Z</time></trkpt><trkpt lat="42.237424349247064" lon="12.231816174778842"><ele>273.0</ele><time>2026-04-30T11:57:22Z</time></trkpt><trkpt lat="42.23731351564231" lon="12.231903480139469"><ele>273.0</ele><time>2026-04-30T11:57:23Z</time></trkpt><trkpt lat="42.23719520111981" lon="12.231976303984192"><ele>275.5</ele><time>2026-04-30T11:57:24Z</time></trkpt><trkpt lat="42.23707284169786" lon="12.232037725742236"><ele>278.0</ele><time>2026-04-30T11:57:25Z</time></trkpt><trkpt lat="42.23694552171803" lon="12.232092759974623"><ele>280.5</ele><time>2026-04-30T11:57:26Z</time></trkpt><trkpt lat="42.23681470073801" lon="12.232139128967662"><ele>283.0</ele><time>2026-04-30T11:57:27Z</time></trkpt><trkpt lat="42.23668554438745" lon="12.232183993471255"><ele>283.0</ele><time>2026-04-30T11:57:28Z</time></trkpt><trkpt lat="42.23655702304079" lon="12.232232182943342"><ele>283.0</ele><time>2026-04-30T11:57:29Z</time></trkpt><trkpt lat="42.2364308288119" lon="12.232285096212495"><ele>283.0</ele><time>2026-04-30T11:57:30Z</time></trkpt><trkpt lat="42.23630231380894" lon="12.232347647920108"><ele>283.0</ele><time>2026-04-30T11:57:31Z</time></trkpt><trkpt lat="42.236165019839895" lon="12.23241461890379"><ele>282.25</ele><time>2026-04-30T11:57:32Z</time></trkpt><trkpt lat="42.236035894581356" lon="12.232500078603724"><ele>281.5</ele><time>2026-04-30T11:57:33Z</time></trkpt><trkpt lat="42.23591158202031" lon="12.232593051101544"><ele>280.75</ele><time>2026-04-30T11:57:34Z</time></trkpt><trkpt lat="42.235772982847756" lon="12.232667478872347"><ele>280.0</ele><time>2026-04-30T11:57:35Z</time></trkpt><trkpt lat="42.235641057638475" lon="12.232765800583914"><ele>279.25</ele><time>2026-04-30T11:57:36Z</time></trkpt><trkpt lat="42.23551732415207" lon="12.232869026472432"><ele>278.5</ele><time>2026-04-30T11:57:37Z</time></trkpt><trkpt lat="42.23540348774066" lon="12.23297266627356"><ele>277.75</ele><time>2026-04-30T11:57:38Z</time></trkpt><trkpt lat="42.235293034467894" lon="12.233082616263713"><ele>277.0</ele><time>2026-04-30T11:57:39Z</time></trkpt><trkpt lat="42.235181318936185" lon="12.23321027069194"><ele>276.75</ele><time>2026-04-30T11:57:40Z</time></trkpt><trkpt lat="42.23508829661459" lon="12.233360825942556"><ele>276.5</ele><time>2026-04-30T11:57:41Z</time></trkpt><trkpt lat="42.234996364064145" lon="12.233503538693173"><ele>276.25</ele><time>2026-04-30T11:57:42Z</time></trkpt><trkpt lat="42.234914599100954" lon="12.233654488895306"><ele>276.0</ele><time>2026-04-30T11:57:43Z</time></trkpt><trkpt lat="42.23484383522231" lon="12.233807047419651"><ele>276.0</ele><time>2026-04-30T11:57:44Z</time></trkpt><trkpt lat="42.234776919729754" lon="12.233974275071208"><ele>276.0</ele><time>2026-04-30T11:57:45Z</time></trkpt><trkpt lat="42.23469658817727" lon="12.234128139073352"><ele>276.0</ele><time>2026-04-30T11:57:46Z</time></trkpt><trkpt lat="42.23463325510133" lon="12.234278086600911"><ele>276.0</ele><time>2026-04-30T11:57:47Z</time></trkpt><trkpt lat="42.23457385015416" lon="12.234438033013555"><ele>276.0</ele><time>2026-04-30T11:57:48Z</time></trkpt><trkpt lat="42.23451214305142" lon="12.23459463546427"><ele>276.0</ele><time>2026-04-30T11:57:49Z</time></trkpt><trkpt lat="42.23446464546652" lon="12.234755262349966"><ele>276.0</ele><time>2026-04-30T11:57:50Z</time></trkpt><trkpt lat="42.234404591356814" lon="12.234917614371916"><ele>276.0</ele><time>2026-04-30T11:57:51Z</time></trkpt><trkpt lat="42.234339891784444" lon="12.235077117870313"><ele>276.0</ele><time>2026-04-30T11:57:52Z</time></trkpt><trkpt lat="42.23427558203821" lon="12.235232882278197"><ele>276.0</ele><time>2026-04-30T11:57:53Z</time></trkpt><trkpt lat="42.2342075152363" lon="12.235388060806475"><ele>276.0</ele><time>2026-04-30T11:57:54Z</time></trkpt><trkpt lat="42.23414352078672" lon="12.23553857223031"><ele>276.0</ele><time>2026-04-30T11:57:55Z</time></trkpt><trkpt lat="42.23407855442382" lon="12.235684282833118"><ele>276.5</ele><time>2026-04-30T11:57:56Z</time></trkpt><trkpt lat="42.23401027931953" lon="12.23582595211939"><ele>277.0</ele><time>2026-04-30T11:57:57Z</time></trkpt><trkpt lat="42.233948945722524" lon="12.235969825265126"><ele>277.5</ele><time>2026-04-30T11:57:58Z</time></trkpt><trkpt lat="42.233888886115516" lon="12.236112168360084"><ele>278.0</ele><time>2026-04-30T11:57:59Z</time></trkpt><trkpt lat="42.23382323555876" lon="12.23625527402084"><ele>278.0</ele><time>2026-04-30T11:58:00Z</time></trkpt><trkpt lat="42.23376991956818" lon="12.236396772982228"><ele>278.0</ele><time>2026-04-30T11:58:01Z</time></trkpt><trkpt lat="42.23371047235574" lon="12.236534030747855"><ele>278.0</ele><time>2026-04-30T11:58:02Z</time></trkpt><trkpt lat="42.23365383795757" lon="12.236666503523633"><ele>278.0</ele><time>2026-04-30T11:58:03Z</time></trkpt><trkpt lat="42.233596545014535" lon="12.236793143181602"><ele>277.2</ele><time>2026-04-30T11:58:04Z</time></trkpt><trkpt lat="42.233536469202065" lon="12.236915368354712"><ele>276.4</ele><time>2026-04-30T11:58:05Z</time></trkpt><trkpt lat="42.23349134291372" lon="12.237034889638236"><ele>275.59999999999997</ele><time>2026-04-30T11:58:06Z</time></trkpt><trkpt lat="42.233445965223424" lon="12.237146139762912"><ele>274.8</ele><time>2026-04-30T11:58:07Z</time></trkpt><trkpt lat="42.2334015970762" lon="12.237252107985842"><ele>274.0</ele><time>2026-04-30T11:58:08Z</time></trkpt><trkpt lat="42.23336237675465" lon="12.237354236905672"><ele>273.0</ele><time>2026-04-30T11:58:09Z</time></trkpt><trkpt lat="42.23332136782862" lon="12.237462067318807"><ele>272.0</ele><time>2026-04-30T11:58:10Z</time></trkpt><trkpt lat="42.23328395066514" lon="12.237584128918014"><ele>271.0</ele><time>2026-04-30T11:58:11Z</time></trkpt><trkpt lat="42.233248309148046" lon="12.23772141298238"><ele>270.0</ele><time>2026-04-30T11:58:11.999Z</time></trkpt><trkpt lat="42.23321127398199" lon="12.237860674906782"><ele>269.0</ele><time>2026-04-30T11:58:12.999Z</time></trkpt><trkpt lat="42.23316970037975" lon="12.237988439192186"><ele>268.25</ele><time>2026-04-30T11:58:13.999Z</time></trkpt><trkpt lat="42.233110231249306" lon="12.238104883758245"><ele>267.5</ele><time>2026-04-30T11:58:14.999Z</time></trkpt><trkpt lat="42.233031911935434" lon="12.238205953153178"><ele>266.75</ele><time>2026-04-30T11:58:15.999Z</time></trkpt><trkpt lat="42.23292618131994" lon="12.238274398357943"><ele>266.0</ele><time>2026-04-30T11:58:16.999Z</time></trkpt><trkpt lat="42.23279736593064" lon="12.238318483643976"><ele>266.0</ele><time>2026-04-30T11:58:17.999Z</time></trkpt><trkpt lat="42.232676095019336" lon="12.238339702940062"><ele>266.0</ele><time>2026-04-30T11:58:18.999Z</time></trkpt><trkpt lat="42.232542033080385" lon="12.238311252953801"><ele>266.0</ele><time>2026-04-30T11:58:19.999Z</time></trkpt><trkpt lat="42.23239565042468" lon="12.23833445744307"><ele>266.0</ele><time>2026-04-30T11:58:20.999Z</time></trkpt><trkpt lat="42.23225063053523" lon="12.238318222080096"><ele>268.0</ele><time>2026-04-30T11:58:21.999Z</time></trkpt><trkpt lat="42.23210408657272" lon="12.2382672313632"><ele>270.0</ele><time>2026-04-30T11:58:22.999Z</time></trkpt><trkpt lat="42.231957591068365" lon="12.23824226466456"><ele>272.0</ele><time>2026-04-30T11:58:23.999Z</time></trkpt><trkpt lat="42.231806361228365" lon="12.238183821371912"><ele>271.6666666666667</ele><time>2026-04-30T11:58:24.999Z</time></trkpt><trkpt lat="42.231668522961506" lon="12.238092010609085"><ele>271.3333333333333</ele><time>2026-04-30T11:58:25.999Z</time></trkpt><trkpt lat="42.2315272668721" lon="12.23800365627183"><ele>271.0</ele><time>2026-04-30T11:58:26.999Z</time></trkpt><trkpt lat="42.23137760681189" lon="12.237900409275175"><ele>274.3333333333333</ele><time>2026-04-30T11:58:27.999Z</time></trkpt><trkpt lat="42.231230989561894" lon="12.237789512965172"><ele>277.6666666666667</ele><time>2026-04-30T11:58:28.999Z</time></trkpt><trkpt lat="42.23107802669033" lon="12.237685426855712"><ele>281.0</ele><time>2026-04-30T11:58:29.999Z</time></trkpt><trkpt lat="42.23090417882025" lon="12.237607128859187"><ele>281.0</ele><time>2026-04-30T11:58:30.999Z</time></trkpt><trkpt lat="42.23072519445759" lon="12.23756175484818"><ele>281.0</ele><time>2026-04-30T11:58:31.999Z</time></trkpt><trkpt lat="42.230551870326494" lon="12.23753580194705"><ele>281.0</ele><time>2026-04-30T11:58:32.999Z</time></trkpt><trkpt lat="42.230380105471326" lon="12.23750183992894"><ele>281.25</ele><time>2026-04-30T11:58:33.999Z</time></trkpt><trkpt lat="42.230220983684745" lon="12.237466119694748"><ele>281.5</ele><time>2026-04-30T11:58:34.999Z</time></trkpt><trkpt lat="42.23005676144064" lon="12.237432839875849"><ele>281.75</ele><time>2026-04-30T11:58:35.999Z</time></trkpt><trkpt lat="42.22993844406761" lon="12.237420137520953"><ele>282.0</ele><time>2026-04-30T11:58:36.999Z</time></trkpt><trkpt lat="42.229800054670534" lon="12.237424197575052"><ele>282.0</ele><time>2026-04-30T11:58:37.999Z</time></trkpt><trkpt lat="42.229705481464165" lon="12.237437433747454"><ele>282.0</ele><time>2026-04-30T11:58:38.999Z</time></trkpt><trkpt lat="42.22964376084332" lon="12.237465409707186"><ele>282.0</ele><time>2026-04-30T11:58:39.999Z</time></trkpt><trkpt lat="42.229508341639715" lon="12.237508429478158"><ele>282.0</ele><time>2026-04-30T11:58:40.999Z</time></trkpt><trkpt lat="42.22931632999233" lon="12.237575262804034"><ele>282.0</ele><time>2026-04-30T11:58:41.999Z</time></trkpt><trkpt lat="42.22918110874829" lon="12.23764217556084"><ele>282.0</ele><time>2026-04-30T11:58:42.999Z</time></trkpt><trkpt lat="42.228999299073514" lon="12.237731192356955"><ele>282.0</ele><time>2026-04-30T11:58:43.999Z</time></trkpt><trkpt lat="42.228785473855666" lon="12.237840529917138"><ele>281.5</ele><time>2026-04-30T11:58:44.999Z</time></trkpt><trkpt lat="42.22866898652158" lon="12.23789075255842"><ele>281.0</ele><time>2026-04-30T11:58:45.999Z</time></trkpt><trkpt lat="42.228551866277726" lon="12.237967927384801"><ele>280.5</ele><time>2026-04-30T11:58:46.999Z</time></trkpt><trkpt lat="42.228469506892566" lon="12.238062457822922"><ele>280.0</ele><time>2026-04-30T11:58:47.999Z</time></trkpt><trkpt lat="42.22836534939062" lon="12.238170775221858"><ele>280.0</ele><time>2026-04-30T11:58:48.999Z</time></trkpt><trkpt lat="42.228190881021284" lon="12.238309938829044"><ele>280.0</ele><time>2026-04-30T11:58:49.999Z</time></trkpt><trkpt lat="42.22806693154305" lon="12.23847058462571"><ele>280.0</ele><time>2026-04-30T11:58:50.999Z</time></trkpt><trkpt lat="42.227928031715734" lon="12.238649990330304"><ele>278.3333333333333</ele><time>2026-04-30T11:58:51.999Z</time></trkpt><trkpt lat="42.22781505475484" lon="12.238857130914981"><ele>276.6666666666667</ele><time>2026-04-30T11:58:52.999Z</time></trkpt><trkpt lat="42.22768373445323" lon="12.239033547339881"><ele>275.0</ele><time>2026-04-30T11:58:53.999Z</time></trkpt><trkpt lat="42.22756617689883" lon="12.239213485422189"><ele>275.0</ele><time>2026-04-30T11:58:54.999Z</time></trkpt><trkpt lat="42.227449009205294" lon="12.239393923719213"><ele>275.0</ele><time>2026-04-30T11:58:55.999Z</time></trkpt><trkpt lat="42.227349382940545" lon="12.239547348195993"><ele>275.0</ele><time>2026-04-30T11:58:56.999Z</time></trkpt><trkpt lat="42.227198887688324" lon="12.239775133623105"><ele>273.0</ele><time>2026-04-30T11:58:57.999Z</time></trkpt><trkpt lat="42.2270458198244" lon="12.24001357127375"><ele>271.0</ele><time>2026-04-30T11:58:58.999Z</time></trkpt><trkpt lat="42.22691872678738" lon="12.240247740014684"><ele>269.0</ele><time>2026-04-30T11:58:59.999Z</time></trkpt><trkpt lat="42.2268075995155" lon="12.240513985449539"><ele>269.0</ele><time>2026-04-30T11:59:00.999Z</time></trkpt><trkpt lat="42.226725768251995" lon="12.24075160575028"><ele>269.0</ele><time>2026-04-30T11:59:01.999Z</time></trkpt><trkpt lat="42.22664522272208" lon="12.24096678785712"><ele>269.0</ele><time>2026-04-30T11:59:02.999Z</time></trkpt><trkpt lat="42.226565669904936" lon="12.241210188599881"><ele>268.33333333333337</ele><time>2026-04-30T11:59:03.999Z</time></trkpt><trkpt lat="42.226466838875446" lon="12.241486594572855"><ele>267.6666666666667</ele><time>2026-04-30T11:59:04.999Z</time></trkpt><trkpt lat="42.22637595605165" lon="12.241735308964667"><ele>267.0</ele><time>2026-04-30T11:59:05.999Z</time></trkpt><trkpt lat="42.22629844441128" lon="12.241984766613012"><ele>267.0</ele><time>2026-04-30T11:59:06.998Z</time></trkpt><trkpt lat="42.22615752323175" lon="12.242190598883225"><ele>267.0</ele><time>2026-04-30T11:59:07.998Z</time></trkpt><trkpt lat="42.22600571763843" lon="12.242417280601527"><ele>267.0</ele><time>2026-04-30T11:59:08.998Z</time></trkpt><trkpt lat="42.225859960551816" lon="12.242622606410285"><ele>267.3333333333333</ele><time>2026-04-30T11:59:09.998Z</time></trkpt><trkpt lat="42.22571468976567" lon="12.242828732556259"><ele>267.66666666666663</ele><time>2026-04-30T11:59:10.998Z</time></trkpt><trkpt lat="42.225559207751616" lon="12.243024228173999"><ele>268.0</ele><time>2026-04-30T11:59:12Z</time></trkpt><trkpt lat="42.22540146127616" lon="12.243240038675193"><ele>268.3333333333333</ele><time>2026-04-30T11:59:13Z</time></trkpt><trkpt lat="42.225261963374685" lon="12.243458610086114"><ele>268.6666666666667</ele><time>2026-04-30T11:59:14Z</time></trkpt><trkpt lat="42.2251074569965" lon="12.243642261539632"><ele>269.0</ele><time>2026-04-30T11:59:15Z</time></trkpt><trkpt lat="42.22495877708184" lon="12.243845668283457"><ele>271.0</ele><time>2026-04-30T11:59:16Z</time></trkpt><trkpt lat="42.22480846245193" lon="12.244051311433747"><ele>273.0</ele><time>2026-04-30T11:59:17Z</time></trkpt><trkpt lat="42.22466817851494" lon="12.244270026437546"><ele>275.0</ele><time>2026-04-30T11:59:18Z</time></trkpt><trkpt lat="42.22452215957714" lon="12.244473158083354"><ele>275.0</ele><time>2026-04-30T11:59:19Z</time></trkpt><trkpt lat="42.22436769226808" lon="12.24465903754013"><ele>275.0</ele><time>2026-04-30T11:59:20Z</time></trkpt><trkpt lat="42.22424659342446" lon="12.24487096581977"><ele>275.0</ele><time>2026-04-30T11:59:21Z</time></trkpt><trkpt lat="42.224115535315555" lon="12.245070724230299"><ele>275.0</ele><time>2026-04-30T11:59:22Z</time></trkpt><trkpt lat="42.2239865954199" lon="12.245271242011698"><ele>275.0</ele><time>2026-04-30T11:59:23Z</time></trkpt><trkpt lat="42.223855726995964" lon="12.245484183671884"><ele>275.0</ele><time>2026-04-30T11:59:24Z</time></trkpt><trkpt lat="42.223700308627066" lon="12.245661139090075"><ele>275.0</ele><time>2026-04-30T11:59:25Z</time></trkpt><trkpt lat="42.223552522734956" lon="12.245806172066056"><ele>275.0</ele><time>2026-04-30T11:59:26Z</time></trkpt><trkpt lat="42.22339734510192" lon="12.24590540317117"><ele>275.0</ele><time>2026-04-30T11:59:27Z</time></trkpt><trkpt lat="42.223302571714605" lon="12.245938123417963"><ele>275.0</ele><time>2026-04-30T11:59:28Z</time></trkpt><trkpt lat="42.223182545939814" lon="12.245979839388717"><ele>275.0</ele><time>2026-04-30T11:59:29Z</time></trkpt><trkpt lat="42.22304852148716" lon="12.24602806082338"><ele>275.0</ele><time>2026-04-30T11:59:30Z</time></trkpt><trkpt lat="42.22288494714966" lon="12.246087837699278"><ele>275.0</ele><time>2026-04-30T11:59:31Z</time></trkpt><trkpt lat="42.222753695891434" lon="12.246135352901138"><ele>275.33333333333337</ele><time>2026-04-30T11:59:32Z</time></trkpt><trkpt lat="42.222603369779826" lon="12.246153608991943"><ele>275.6666666666667</ele><time>2026-04-30T11:59:33Z</time></trkpt><trkpt lat="42.222418360937326" lon="12.246173596583741"><ele>276.0</ele><time>2026-04-30T11:59:34Z</time></trkpt><trkpt lat="42.22226663751856" lon="12.24615525869612"><ele>274.3333333333333</ele><time>2026-04-30T11:59:35Z</time></trkpt><trkpt lat="42.222091270972626" lon="12.246126950017038"><ele>272.66666666666663</ele><time>2026-04-30T11:59:36Z</time></trkpt><trkpt lat="42.221845564611186" lon="12.246073034917437"><ele>271.0</ele><time>2026-04-30T11:59:37Z</time></trkpt><trkpt lat="42.22160643682703" lon="12.24601670113602"><ele>269.5</ele><time>2026-04-30T11:59:38Z</time></trkpt><trkpt lat="42.22136000032945" lon="12.245953416577352"><ele>268.0</ele><time>2026-04-30T11:59:39Z</time></trkpt><trkpt lat="42.221123775034854" lon="12.245891061002629"><ele>268.0</ele><time>2026-04-30T11:59:40Z</time></trkpt><trkpt lat="42.2208871948717" lon="12.245828611670069"><ele>268.0</ele><time>2026-04-30T11:59:41Z</time></trkpt><trkpt lat="42.22066458536602" lon="12.245766284036176"><ele>268.66666666666663</ele><time>2026-04-30T11:59:42Z</time></trkpt><trkpt lat="42.22044831113503" lon="12.245695142130161"><ele>269.3333333333333</ele><time>2026-04-30T11:59:43Z</time></trkpt><trkpt lat="42.22024992562072" lon="12.245619338321937"><ele>270.0</ele><time>2026-04-30T11:59:44Z</time></trkpt><trkpt lat="42.220032661124435" lon="12.245524631128458"><ele>270.3333333333333</ele><time>2026-04-30T11:59:45Z</time></trkpt><trkpt lat="42.21983292770868" lon="12.245430526296147"><ele>270.66666666666663</ele><time>2026-04-30T11:59:46Z</time></trkpt><trkpt lat="42.219632502103174" lon="12.245330205168955"><ele>271.0</ele><time>2026-04-30T11:59:47Z</time></trkpt><trkpt lat="42.21943176615956" lon="12.245227088745883"><ele>271.66666666666663</ele><time>2026-04-30T11:59:48Z</time></trkpt><trkpt lat="42.21923199381997" lon="12.245125290523436"><ele>272.3333333333333</ele><time>2026-04-30T11:59:49Z</time></trkpt><trkpt lat="42.21902466426834" lon="12.245022003768348"><ele>273.0</ele><time>2026-04-30T11:59:50Z</time></trkpt><trkpt lat="42.218816229711415" lon="12.244918166375033"><ele>273.3333333333333</ele><time>2026-04-30T11:59:51Z</time></trkpt><trkpt lat="42.21861613852395" lon="12.244817226204807"><ele>273.66666666666663</ele><time>2026-04-30T11:59:52Z</time></trkpt><trkpt lat="42.21841463701717" lon="12.244716020716956"><ele>274.0</ele><time>2026-04-30T11:59:53Z</time></trkpt><trkpt lat="42.21821344874116" lon="12.244631060033507"><ele>274.3333333333333</ele><time>2026-04-30T11:59:54Z</time></trkpt><trkpt lat="42.21799710912376" lon="12.244583312662463"><ele>274.6666666666667</ele><time>2026-04-30T11:59:55Z</time></trkpt><trkpt lat="42.217798562539" lon="12.244572675019207"><ele>275.0</ele><time>2026-04-30T11:59:56Z</time></trkpt><trkpt lat="42.21759159361381" lon="12.244612020116762"><ele>275.0</ele><time>2026-04-30T11:59:57Z</time></trkpt><trkpt lat="42.21738207349396" lon="12.244628873942021"><ele>275.0</ele><time>2026-04-30T11:59:58Z</time></trkpt><trkpt lat="42.217153205115444" lon="12.244654821605046"><ele>275.0</ele><time>2026-04-30T11:59:59Z</time></trkpt><trkpt lat="42.21699011390853" lon="12.244707838019202"><ele>276.5</ele><time>2026-04-30T12:00:00Z</time></trkpt><trkpt lat="42.21676493279202" lon="12.244749835077922"><ele>278.0</ele><time>2026-04-30T12:00:01Z</time></trkpt><trkpt lat="42.2165375872511" lon="12.244810878585115"><ele>279.5</ele><time>2026-04-30T12:00:02Z</time></trkpt><trkpt lat="42.21631544233881" lon="12.244851450918585"><ele>281.0</ele><time>2026-04-30T12:00:03Z</time></trkpt><trkpt lat="42.21609010629897" lon="12.244882495187197"><ele>281.0</ele><time>2026-04-30T12:00:04Z</time></trkpt><trkpt lat="42.21586801681396" lon="12.244926441304461"><ele>281.0</ele><time>2026-04-30T12:00:05Z</time></trkpt><trkpt lat="42.21564714977799" lon="12.244963893113932"><ele>281.0</ele><time>2026-04-30T12:00:06Z</time></trkpt><trkpt lat="42.21542909798661" lon="12.245005313041297"><ele>282.33333333333337</ele><time>2026-04-30T12:00:07Z</time></trkpt><trkpt lat="42.21522214484638" lon="12.245050140942556"><ele>283.6666666666667</ele><time>2026-04-30T12:00:08Z</time></trkpt><trkpt lat="42.21500853096594" lon="12.245090399260288"><ele>285.0</ele><time>2026-04-30T12:00:09Z</time></trkpt><trkpt lat="42.21481713738855" lon="12.245126895189554"><ele>286.3333333333333</ele><time>2026-04-30T12:00:10Z</time></trkpt><trkpt lat="42.21462708315068" lon="12.245141599434735"><ele>287.66666666666663</ele><time>2026-04-30T12:00:11Z</time></trkpt><trkpt lat="42.214447022126514" lon="12.245145002073059"><ele>289.0</ele><time>2026-04-30T12:00:12Z</time></trkpt><trkpt lat="42.21430323530597" lon="12.24508885024645"><ele>289.0</ele><time>2026-04-30T12:00:13Z</time></trkpt><trkpt lat="42.21416970500542" lon="12.245001059238906"><ele>289.0</ele><time>2026-04-30T12:00:14Z</time></trkpt><trkpt lat="42.21404215447582" lon="12.244904462815144"><ele>289.0</ele><time>2026-04-30T12:00:15Z</time></trkpt><trkpt lat="42.21388668036863" lon="12.244774236207546"><ele>292.66666666666663</ele><time>2026-04-30T12:00:16Z</time></trkpt><trkpt lat="42.21373754469479" lon="12.244649317282262"><ele>296.3333333333333</ele><time>2026-04-30T12:00:17Z</time></trkpt><trkpt lat="42.21359992887894" lon="12.244534958955825"><ele>300.0</ele><time>2026-04-30T12:00:18Z</time></trkpt><trkpt lat="42.21346676998055" lon="12.24442439970891"><ele>300.0</ele><time>2026-04-30T12:00:19Z</time></trkpt><trkpt lat="42.21332733651803" lon="12.244308407389319"><ele>300.0</ele><time>2026-04-30T12:00:19.999Z</time></trkpt><trkpt lat="42.21317996635554" lon="12.244185812715205"><ele>300.0</ele><time>2026-04-30T12:00:20.999Z</time></trkpt><trkpt lat="42.213023685381685" lon="12.244057264770104"><ele>303.3333333333333</ele><time>2026-04-30T12:00:21.999Z</time></trkpt><trkpt lat="42.21287155143195" lon="12.243932279492492"><ele>306.66666666666663</ele><time>2026-04-30T12:00:22.999Z</time></trkpt><trkpt lat="42.212719799305994" lon="12.243807594882973"><ele>310.0</ele><time>2026-04-30T12:00:23.999Z</time></trkpt><trkpt lat="42.21256314461541" lon="12.243678882106193"><ele>310.0</ele><time>2026-04-30T12:00:24.999Z</time></trkpt><trkpt lat="42.21240597363101" lon="12.243549745140712"><ele>310.0</ele><time>2026-04-30T12:00:25.999Z</time></trkpt><trkpt lat="42.21224980596778" lon="12.243421432452653"><ele>310.0</ele><time>2026-04-30T12:00:26.999Z</time></trkpt><trkpt lat="42.21210288858708" lon="12.243300717849634"><ele>308.3333333333333</ele><time>2026-04-30T12:00:27.999Z</time></trkpt><trkpt lat="42.2119437510919" lon="12.243169962592072"><ele>306.6666666666667</ele><time>2026-04-30T12:00:28.999Z</time></trkpt><trkpt lat="42.21178546898044" lon="12.24305410542794"><ele>305.0</ele><time>2026-04-30T12:00:29.999Z</time></trkpt><trkpt lat="42.211637526540166" lon="12.242911043772224"><ele>306.0</ele><time>2026-04-30T12:00:30.999Z</time></trkpt><trkpt lat="42.21151857025972" lon="12.242790231209781"><ele>307.0</ele><time>2026-04-30T12:00:31.999Z</time></trkpt><trkpt lat="42.21141918082007" lon="12.242637562602964"><ele>308.0</ele><time>2026-04-30T12:00:32.999Z</time></trkpt><trkpt lat="42.21131187263431" lon="12.242438243020576"><ele>310.6666666666667</ele><time>2026-04-30T12:00:33.999Z</time></trkpt><trkpt lat="42.21121160429163" lon="12.242237767742633"><ele>313.3333333333333</ele><time>2026-04-30T12:00:34.999Z</time></trkpt><trkpt lat="42.21110954552953" lon="12.242007371709935"><ele>316.0</ele><time>2026-04-30T12:00:35.999Z</time></trkpt><trkpt lat="42.21099988969177" lon="12.241868132177414"><ele>316.0</ele><time>2026-04-30T12:00:36.999Z</time></trkpt><trkpt lat="42.210899695279885" lon="12.241714175993762"><ele>316.0</ele><time>2026-04-30T12:00:37.999Z</time></trkpt><trkpt lat="42.210799317378324" lon="12.241563790723273"><ele>316.0</ele><time>2026-04-30T12:00:38.999Z</time></trkpt><trkpt lat="42.21070426107666" lon="12.24140585261164"><ele>316.66666666666663</ele><time>2026-04-30T12:00:39.999Z</time></trkpt><trkpt lat="42.21063151926365" lon="12.241200593373026"><ele>317.3333333333333</ele><time>2026-04-30T12:00:40.999Z</time></trkpt><trkpt lat="42.21055285569864" lon="12.240960241160957"><ele>318.0</ele><time>2026-04-30T12:00:41.999Z</time></trkpt><trkpt lat="42.21047237559569" lon="12.2407030775367"><ele>321.3333333333333</ele><time>2026-04-30T12:00:42.999Z</time></trkpt><trkpt lat="42.21038870221455" lon="12.240486458305343"><ele>324.66666666666663</ele><time>2026-04-30T12:00:43.999Z</time></trkpt><trkpt lat="42.21028833326211" lon="12.240314074754393"><ele>328.0</ele><time>2026-04-30T12:00:44.999Z</time></trkpt><trkpt lat="42.21017440798887" lon="12.240146608527585"><ele>328.0</ele><time>2026-04-30T12:00:45.999Z</time></trkpt><trkpt lat="42.210061332063574" lon="12.239997500830322"><ele>328.0</ele><time>2026-04-30T12:00:46.999Z</time></trkpt><trkpt lat="42.2099398233483" lon="12.23985414396949"><ele>328.0</ele><time>2026-04-30T12:00:47.999Z</time></trkpt><trkpt lat="42.20980431442814" lon="12.23966820373719"><ele>331.66666666666663</ele><time>2026-04-30T12:00:48.999Z</time></trkpt><trkpt lat="42.209657043514646" lon="12.239526821731648"><ele>335.3333333333333</ele><time>2026-04-30T12:00:49.999Z</time></trkpt><trkpt lat="42.20952148299726" lon="12.239382622901914"><ele>339.0</ele><time>2026-04-30T12:00:50.999Z</time></trkpt><trkpt lat="42.20938061105713" lon="12.23925623405803"><ele>339.0</ele><time>2026-04-30T12:00:51.999Z</time></trkpt><trkpt lat="42.20924608915544" lon="12.239108831130869"><ele>339.0</ele><time>2026-04-30T12:00:52.999Z</time></trkpt><trkpt lat="42.209118685134364" lon="12.238930987932084"><ele>339.0</ele><time>2026-04-30T12:00:53.999Z</time></trkpt><trkpt lat="42.20897744103428" lon="12.23876664134538"><ele>345.0</ele><time>2026-04-30T12:00:54.999Z</time></trkpt><trkpt lat="42.20885898617367" lon="12.238626257944786"><ele>351.0</ele><time>2026-04-30T12:00:55.999Z</time></trkpt><trkpt lat="42.208751384768405" lon="12.238531918002009"><ele>357.0</ele><time>2026-04-30T12:00:56.999Z</time></trkpt><trkpt lat="42.20864726494499" lon="12.238431758724632"><ele>363.0</ele><time>2026-04-30T12:00:57.999Z</time></trkpt><trkpt lat="42.208510856202196" lon="12.238374361473712"><ele>363.0</ele><time>2026-04-30T12:00:58.999Z</time></trkpt><trkpt lat="42.20838555696157" lon="12.238363184311206"><ele>363.0</ele><time>2026-04-30T12:00:59.999Z</time></trkpt><trkpt lat="42.208263816254636" lon="12.238458954407998"><ele>363.0</ele><time>2026-04-30T12:01:00.999Z</time></trkpt><trkpt lat="42.20817541474634" lon="12.238496974754351"><ele>363.0</ele><time>2026-04-30T12:01:01.999Z</time></trkpt><trkpt lat="42.20805377260553" lon="12.238725441951866"><ele>362.75</ele><time>2026-04-30T12:01:02.999Z</time></trkpt><trkpt lat="42.20794095712453" lon="12.238928741928781"><ele>362.5</ele><time>2026-04-30T12:01:03.999Z</time></trkpt><trkpt lat="42.207891830916886" lon="12.239098218577697"><ele>362.25</ele><time>2026-04-30T12:01:04.999Z</time></trkpt><trkpt lat="42.20789779759732" lon="12.239210156662454"><ele>362.0</ele><time>2026-04-30T12:01:05.999Z</time></trkpt><trkpt lat="42.207908817319804" lon="12.239402749310765"><ele>362.0</ele><time>2026-04-30T12:01:06.999Z</time></trkpt><trkpt lat="42.208060023244" lon="12.239598504047509"><ele>362.0</ele><time>2026-04-30T12:01:07.999Z</time></trkpt><trkpt lat="42.20830070781168" lon="12.23983268701297"><ele>359.33333333333337</ele><time>2026-04-30T12:01:08.999Z</time></trkpt><trkpt lat="42.20836673887769" lon="12.240062680778374"><ele>356.6666666666667</ele><time>2026-04-30T12:01:09.999Z</time></trkpt><trkpt lat="42.20837274442401" lon="12.240301177629984"><ele>354.0</ele><time>2026-04-30T12:01:10.999Z</time></trkpt><trkpt lat="42.20838277817371" lon="12.24051348964549"><ele>352.75</ele><time>2026-04-30T12:01:11.999Z</time></trkpt><trkpt lat="42.20835883918076" lon="12.24067529862527"><ele>351.5</ele><time>2026-04-30T12:01:12.999Z</time></trkpt><trkpt lat="42.208301404789886" lon="12.240837679273486"><ele>350.25</ele><time>2026-04-30T12:01:13.999Z</time></trkpt><trkpt lat="42.208243740708404" lon="12.241030069852119"><ele>349.0</ele><time>2026-04-30T12:01:14.998Z</time></trkpt><trkpt lat="42.2081474855438" lon="12.241200417670717"><ele>352.66666666666663</ele><time>2026-04-30T12:01:15.998Z</time></trkpt><trkpt lat="42.20802376572267" lon="12.241343953240383"><ele>356.3333333333333</ele><time>2026-04-30T12:01:16.998Z</time></trkpt><trkpt lat="42.20793163199617" lon="12.241465059386941"><ele>360.0</ele><time>2026-04-30T12:01:18.001Z</time></trkpt><trkpt lat="42.2077674402928" lon="12.241524056220932"><ele>348.0</ele><time>2026-04-30T12:01:19.001Z</time></trkpt><trkpt lat="42.207496803281295" lon="12.241477596611192"><ele>336.0</ele><time>2026-04-30T12:01:20.001Z</time></trkpt><trkpt lat="42.2073053771522" lon="12.241482580512633"><ele>350.0</ele><time>2026-04-30T12:01:21Z</time></trkpt><trkpt lat="42.2070316822149" lon="12.241402469640056"><ele>364.0</ele><time>2026-04-30T12:01:22Z</time></trkpt><trkpt lat="42.20681255258156" lon="12.241297539935433"><ele>364.0</ele><time>2026-04-30T12:01:23Z</time></trkpt><trkpt lat="42.20657850816326" lon="12.241211960338058"><ele>364.0</ele><time>2026-04-30T12:01:24Z</time></trkpt><trkpt lat="42.20636873452073" lon="12.241172508298478"><ele>365.0</ele><time>2026-04-30T12:01:25Z</time></trkpt><trkpt lat="42.206161571862076" lon="12.241138200389763"><ele>366.0</ele><time>2026-04-30T12:01:26Z</time></trkpt><trkpt lat="42.20595594399644" lon="12.241092558854477"><ele>367.0</ele><time>2026-04-30T12:01:27Z</time></trkpt><trkpt lat="42.205761249982245" lon="12.241053842174791"><ele>367.3333333333333</ele><time>2026-04-30T12:01:28Z</time></trkpt><trkpt lat="42.20554087857709" lon="12.240975447918517"><ele>367.6666666666667</ele><time>2026-04-30T12:01:29Z</time></trkpt><trkpt lat="42.20533519313092" lon="12.240912541388123"><ele>368.0</ele><time>2026-04-30T12:01:30Z</time></trkpt><trkpt lat="42.205169321280835" lon="12.240528298117171"><ele>375.6666666666667</ele><time>2026-04-30T12:01:31Z</time></trkpt><trkpt lat="42.204971119095724" lon="12.240489553524894"><ele>383.33333333333337</ele><time>2026-04-30T12:01:31.999Z</time></trkpt><trkpt lat="42.20481459346326" lon="12.240446178483534"><ele>391.0</ele><time>2026-04-30T12:01:32.999Z</time></trkpt><trkpt lat="42.204615978953" lon="12.240376708587059"><ele>391.0</ele><time>2026-04-30T12:01:33.999Z</time></trkpt><trkpt lat="42.20443915306134" lon="12.240311667939448"><ele>391.0</ele><time>2026-04-30T12:01:34.999Z</time></trkpt><trkpt lat="42.20427454379426" lon="12.240248167329177"><ele>391.0</ele><time>2026-04-30T12:01:35.999Z</time></trkpt><trkpt lat="42.20410057739912" lon="12.240179952266985"><ele>388.75</ele><time>2026-04-30T12:01:36.999Z</time></trkpt><trkpt lat="42.203936073054415" lon="12.240111665337636"><ele>386.5</ele><time>2026-04-30T12:01:37.999Z</time></trkpt><trkpt lat="42.20381046119591" lon="12.240050491885636"><ele>384.25</ele><time>2026-04-30T12:01:38.999Z</time></trkpt><trkpt lat="42.2036783644731" lon="12.2399753145414"><ele>382.0</ele><time>2026-04-30T12:01:39.999Z</time></trkpt><trkpt lat="42.20355788206242" lon="12.239889166768322"><ele>386.25</ele><time>2026-04-30T12:01:40.999Z</time></trkpt><trkpt lat="42.20346525619493" lon="12.23977410991389"><ele>390.5</ele><time>2026-04-30T12:01:41.999Z</time></trkpt><trkpt lat="42.20337601149816" lon="12.239615995869885"><ele>394.75</ele><time>2026-04-30T12:01:42.999Z</time></trkpt><trkpt lat="42.20331172324575" lon="12.239446251980567"><ele>399.0</ele><time>2026-04-30T12:01:43.999Z</time></trkpt><trkpt lat="42.20325850122161" lon="12.239236033592704"><ele>399.0</ele><time>2026-04-30T12:01:44.999Z</time></trkpt><trkpt lat="42.20318003665366" lon="12.238784195980811"><ele>399.0</ele><time>2026-04-30T12:01:45.999Z</time></trkpt><trkpt lat="42.20312526843686" lon="12.238375078784332"><ele>399.0</ele><time>2026-04-30T12:01:46.999Z</time></trkpt><trkpt lat="42.20303983198758" lon="12.238148235939247"><ele>399.0</ele><time>2026-04-30T12:01:47.999Z</time></trkpt><trkpt lat="42.20293490412685" lon="12.238014933232439"><ele>399.0</ele><time>2026-04-30T12:01:48.999Z</time></trkpt><trkpt lat="42.202847805064856" lon="12.237929225950982"><ele>399.0</ele><time>2026-04-30T12:01:49.999Z</time></trkpt><trkpt lat="42.202726192265494" lon="12.2377750873697"><ele>401.33333333333337</ele><time>2026-04-30T12:01:50.999Z</time></trkpt><trkpt lat="42.20259926455627" lon="12.237629557716742"><ele>403.6666666666667</ele><time>2026-04-30T12:01:51.999Z</time></trkpt><trkpt lat="42.20245051034199" lon="12.237467372535304"><ele>406.0</ele><time>2026-04-30T12:01:52.999Z</time></trkpt><trkpt lat="42.20232088340466" lon="12.237327819572753"><ele>407.6666666666667</ele><time>2026-04-30T12:01:53.999Z</time></trkpt><trkpt lat="42.20215478959386" lon="12.237149008935845"><ele>409.33333333333337</ele><time>2026-04-30T12:01:54.999Z</time></trkpt><trkpt lat="42.202045771958765" lon="12.237035814289241"><ele>411.0</ele><time>2026-04-30T12:01:55.999Z</time></trkpt><trkpt lat="42.201820518446986" lon="12.23684032175152"><ele>411.0</ele><time>2026-04-30T12:01:56.999Z</time></trkpt><trkpt lat="42.201606392091605" lon="12.236722794839848"><ele>411.0</ele><time>2026-04-30T12:01:57.999Z</time></trkpt><trkpt lat="42.20141286214412" lon="12.236677901311404"><ele>411.0</ele><time>2026-04-30T12:01:58.999Z</time></trkpt><trkpt lat="42.201245423547626" lon="12.236690756224055"><ele>412.33333333333337</ele><time>2026-04-30T12:01:59.999Z</time></trkpt><trkpt lat="42.201061646336136" lon="12.23672513524171"><ele>413.6666666666667</ele><time>2026-04-30T12:02:00.999Z</time></trkpt><trkpt lat="42.20089173890481" lon="12.236827661460028"><ele>415.0</ele><time>2026-04-30T12:02:01.999Z</time></trkpt><trkpt lat="42.20074510573971" lon="12.236912330565266"><ele>417.5</ele><time>2026-04-30T12:02:02.999Z</time></trkpt><trkpt lat="42.2005257752918" lon="12.236994813623776"><ele>420.0</ele><time>2026-04-30T12:02:03.999Z</time></trkpt><trkpt lat="42.20031229008597" lon="12.237180512709381"><ele>420.0</ele><time>2026-04-30T12:02:04.999Z</time></trkpt><trkpt lat="42.2001325524534" lon="12.237317462610614"><ele>420.0</ele><time>2026-04-30T12:02:05.999Z</time></trkpt><trkpt lat="42.199985566013915" lon="12.237426297169304"><ele>420.0</ele><time>2026-04-30T12:02:06.999Z</time></trkpt><trkpt lat="42.199819594131505" lon="12.23755522269773"><ele>420.0</ele><time>2026-04-30T12:02:07.999Z</time></trkpt><trkpt lat="42.19966245686398" lon="12.23769629490467"><ele>420.0</ele><time>2026-04-30T12:02:08.999Z</time></trkpt><trkpt lat="42.19950657563269" lon="12.237834881812864"><ele>420.0</ele><time>2026-04-30T12:02:09.999Z</time></trkpt><trkpt lat="42.19936172959428" lon="12.23794156745409"><ele>420.0</ele><time>2026-04-30T12:02:10.999Z</time></trkpt><trkpt lat="42.199212890611754" lon="12.23807184715766"><ele>420.0</ele><time>2026-04-30T12:02:11.999Z</time></trkpt><trkpt lat="42.199063758879554" lon="12.23819274417892"><ele>420.0</ele><time>2026-04-30T12:02:12.999Z</time></trkpt><trkpt lat="42.19891703280667" lon="12.238322410880198"><ele>420.66666666666663</ele><time>2026-04-30T12:02:13.999Z</time></trkpt><trkpt lat="42.198763360280125" lon="12.238409548282823"><ele>421.3333333333333</ele><time>2026-04-30T12:02:14.999Z</time></trkpt><trkpt lat="42.19860049715968" lon="12.238534362853219"><ele>422.0</ele><time>2026-04-30T12:02:15.999Z</time></trkpt><trkpt lat="42.19845304253792" lon="12.238638874264558"><ele>422.0</ele><time>2026-04-30T12:02:16.999Z</time></trkpt><trkpt lat="42.1983419703962" lon="12.238711459009323"><ele>422.0</ele><time>2026-04-30T12:02:17.999Z</time></trkpt><trkpt lat="42.1981970107387" lon="12.23881604738135"><ele>422.0</ele><time>2026-04-30T12:02:18.999Z</time></trkpt><trkpt lat="42.198055643329916" lon="12.238926096374092"><ele>421.3333333333333</ele><time>2026-04-30T12:02:19.999Z</time></trkpt><trkpt lat="42.19790418102625" lon="12.239048679416044"><ele>420.66666666666663</ele><time>2026-04-30T12:02:20.999Z</time></trkpt><trkpt lat="42.19771661425066" lon="12.239227305321176"><ele>420.0</ele><time>2026-04-30T12:02:21.999Z</time></trkpt><trkpt lat="42.197509779782926" lon="12.23938388419735"><ele>420.5</ele><time>2026-04-30T12:02:22.999Z</time></trkpt><trkpt lat="42.19731257476878" lon="12.239544100385581"><ele>421.0</ele><time>2026-04-30T12:02:23.999Z</time></trkpt><trkpt lat="42.19711739601823" lon="12.23969015736497"><ele>421.5</ele><time>2026-04-30T12:02:24.999Z</time></trkpt><trkpt lat="42.19692223553388" lon="12.239849643749315"><ele>422.0</ele><time>2026-04-30T12:02:25.999Z</time></trkpt><trkpt lat="42.196730024925536" lon="12.240006633643805"><ele>422.0</ele><time>2026-04-30T12:02:26.999Z</time></trkpt><trkpt lat="42.19652960641246" lon="12.240132467006129"><ele>422.0</ele><time>2026-04-30T12:02:27.999Z</time></trkpt><trkpt lat="42.19633645481609" lon="12.240276141172785"><ele>422.0</ele><time>2026-04-30T12:02:28.998Z</time></trkpt><trkpt lat="42.196152065148006" lon="12.240413297855609"><ele>422.0</ele><time>2026-04-30T12:02:29.998Z</time></trkpt><trkpt lat="42.19597946476307" lon="12.240544541299894"><ele>422.0</ele><time>2026-04-30T12:02:30.998Z</time></trkpt><trkpt lat="42.195823277375624" lon="12.24071979208948"><ele>422.0</ele><time>2026-04-30T12:02:31.998Z</time></trkpt><trkpt lat="42.195653732362" lon="12.240843025632522"><ele>421.0</ele><time>2026-04-30T12:02:32.998Z</time></trkpt><trkpt lat="42.19549533768042" lon="12.24096032401287"><ele>420.0</ele><time>2026-04-30T12:02:33.998Z</time></trkpt><trkpt lat="42.195342571622874" lon="12.241071905663269"><ele>419.0</ele><time>2026-04-30T12:02:34.998Z</time></trkpt><trkpt lat="42.195194442658035" lon="12.241177555367456"><ele>419.0</ele><time>2026-04-30T12:02:35.998Z</time></trkpt><trkpt lat="42.195044041469856" lon="12.241283246046645"><ele>419.0</ele><time>2026-04-30T12:02:36.998Z</time></trkpt><trkpt lat="42.19489710733453" lon="12.24138190026343"><ele>419.0</ele><time>2026-04-30T12:02:37.998Z</time></trkpt><trkpt lat="42.194750817565506" lon="12.241475432671521"><ele>420.66666666666663</ele><time>2026-04-30T12:02:38.998Z</time></trkpt><trkpt lat="42.19460140056673" lon="12.241563596181681"><ele>422.33333333333337</ele><time>2026-04-30T12:02:39.998Z</time></trkpt><trkpt lat="42.19444339649094" lon="12.241628988548507"><ele>424.0</ele><time>2026-04-30T12:02:40.998Z</time></trkpt><trkpt lat="42.194285641331874" lon="12.241662219946889"><ele>424.0</ele><time>2026-04-30T12:02:41.998Z</time></trkpt><trkpt lat="42.19412910164056" lon="12.241675207257813"><ele>424.0</ele><time>2026-04-30T12:02:42.998Z</time></trkpt><trkpt lat="42.19397350196511" lon="12.24167853232183"><ele>424.0</ele><time>2026-04-30T12:02:43.998Z</time></trkpt><trkpt lat="42.193805951483206" lon="12.24165792479562"><ele>423.0</ele><time>2026-04-30T12:02:44.998Z</time></trkpt><trkpt lat="42.193606948251315" lon="12.241642955299165"><ele>422.0</ele><time>2026-04-30T12:02:45.998Z</time></trkpt><trkpt lat="42.19340042279053" lon="12.241633873084906"><ele>421.0</ele><time>2026-04-30T12:02:46.998Z</time></trkpt><trkpt lat="42.19317277323104" lon="12.241624988309857"><ele>421.0</ele><time>2026-04-30T12:02:47.998Z</time></trkpt><trkpt lat="42.19294152612338" lon="12.241605835774594"><ele>421.0</ele><time>2026-04-30T12:02:48.998Z</time></trkpt><trkpt lat="42.192724990156705" lon="12.241581326828719"><ele>421.0</ele><time>2026-04-30T12:02:49.998Z</time></trkpt><trkpt lat="42.19251183150235" lon="12.241551612534591"><ele>421.0</ele><time>2026-04-30T12:02:50.998Z</time></trkpt><trkpt lat="42.192280536296394" lon="12.241511443502514"><ele>421.0</ele><time>2026-04-30T12:02:51.998Z</time></trkpt><trkpt lat="42.19204679914405" lon="12.24147526626733"><ele>420.0</ele><time>2026-04-30T12:02:52.998Z</time></trkpt><trkpt lat="42.191817041762974" lon="12.241441317701767"><ele>419.0</ele><time>2026-04-30T12:02:53.998Z</time></trkpt><trkpt lat="42.19158489852677" lon="12.241407752121134"><ele>420.0</ele><time>2026-04-30T12:02:54.998Z</time></trkpt><trkpt lat="42.19135796177574" lon="12.241377396928755"><ele>421.0</ele><time>2026-04-30T12:02:55.998Z</time></trkpt><trkpt lat="42.19112715268984" lon="12.241348391803413"><ele>421.0</ele><time>2026-04-30T12:02:56.998Z</time></trkpt><trkpt lat="42.19090337291439" lon="12.241326957925567"><ele>421.0</ele><time>2026-04-30T12:02:57.998Z</time></trkpt><trkpt lat="42.190683132628166" lon="12.24130896026063"><ele>421.0</ele><time>2026-04-30T12:02:58.998Z</time></trkpt><trkpt lat="42.19045494977021" lon="12.241280302902975"><ele>422.0</ele><time>2026-04-30T12:02:59.998Z</time></trkpt><trkpt lat="42.19023318304188" lon="12.24125262256182"><ele>423.0</ele><time>2026-04-30T12:03:00.998Z</time></trkpt><trkpt lat="42.190001949297546" lon="12.241241742587349"><ele>422.0</ele><time>2026-04-30T12:03:01.998Z</time></trkpt><trkpt lat="42.18976965558198" lon="12.241237095630037"><ele>421.0</ele><time>2026-04-30T12:03:02.998Z</time></trkpt><trkpt lat="42.189538521854914" lon="12.24122502612799"><ele>421.0</ele><time>2026-04-30T12:03:03.998Z</time></trkpt><trkpt lat="42.18931449945856" lon="12.241220704952928"><ele>421.0</ele><time>2026-04-30T12:03:04.998Z</time></trkpt><trkpt lat="42.189097897544464" lon="12.241213768621627"><ele>421.0</ele><time>2026-04-30T12:03:05.998Z</time></trkpt><trkpt lat="42.18887779365752" lon="12.24121150228797"><ele>421.6666666666667</ele><time>2026-04-30T12:03:06.998Z</time></trkpt><trkpt lat="42.18865859179456" lon="12.24123135402262"><ele>422.33333333333337</ele><time>2026-04-30T12:03:07.998Z</time></trkpt><trkpt lat="42.18844475509175" lon="12.241280242815773"><ele>423.0</ele><time>2026-04-30T12:03:08.998Z</time></trkpt><trkpt lat="42.188242692695916" lon="12.241359909522398"><ele>425.0</ele><time>2026-04-30T12:03:09.998Z</time></trkpt><trkpt lat="42.18805539152529" lon="12.241474332430196"><ele>427.0</ele><time>2026-04-30T12:03:10.998Z</time></trkpt><trkpt lat="42.1878873130953" lon="12.241627347975918"><ele>429.0</ele><time>2026-04-30T12:03:11.998Z</time></trkpt><trkpt lat="42.18774631881365" lon="12.241816818727196"><ele>429.0</ele><time>2026-04-30T12:03:12.998Z</time></trkpt><trkpt lat="42.18763025055597" lon="12.242021813895429"><ele>429.0</ele><time>2026-04-30T12:03:13.998Z</time></trkpt><trkpt lat="42.18753262941469" lon="12.242248095809558"><ele>429.0</ele><time>2026-04-30T12:03:14.998Z</time></trkpt><trkpt lat="42.18746353713962" lon="12.242483320445142"><ele>431.0</ele><time>2026-04-30T12:03:15.998Z</time></trkpt><trkpt lat="42.18740825670328" lon="12.242737768033901"><ele>433.0</ele><time>2026-04-30T12:03:16.998Z</time></trkpt><trkpt lat="42.18737182162682" lon="12.242998814863553"><ele>435.0</ele><time>2026-04-30T12:03:17.998Z</time></trkpt><trkpt lat="42.18733995503721" lon="12.24328009527078"><ele>439.66666666666663</ele><time>2026-04-30T12:03:18.998Z</time></trkpt><trkpt lat="42.18731338722447" lon="12.24356586167191"><ele>444.3333333333333</ele><time>2026-04-30T12:03:19.998Z</time></trkpt><trkpt lat="42.18730381254933" lon="12.243856366310428"><ele>449.0</ele><time>2026-04-30T12:03:20.998Z</time></trkpt><trkpt lat="42.18727342258579" lon="12.24412273657655"><ele>449.0</ele><time>2026-04-30T12:03:21.998Z</time></trkpt><trkpt lat="42.18722523252634" lon="12.244399254698033"><ele>449.0</ele><time>2026-04-30T12:03:23Z</time></trkpt><trkpt lat="42.187147857899895" lon="12.244664656977951"><ele>449.0</ele><time>2026-04-30T12:03:24Z</time></trkpt><trkpt lat="42.187036417448866" lon="12.2449139577388"><ele>445.3333333333333</ele><time>2026-04-30T12:03:25Z</time></trkpt><trkpt lat="42.186905535635205" lon="12.245152546889893"><ele>441.66666666666663</ele><time>2026-04-30T12:03:26Z</time></trkpt><trkpt lat="42.18675767801526" lon="12.245369068263672"><ele>438.0</ele><time>2026-04-30T12:03:27Z</time></trkpt><trkpt lat="42.18664972403756" lon="12.245591485863658"><ele>432.66666666666663</ele><time>2026-04-30T12:03:28Z</time></trkpt><trkpt lat="42.18653144259585" lon="12.245831178746217"><ele>427.3333333333333</ele><time>2026-04-30T12:03:29Z</time></trkpt><trkpt lat="42.186408121243375" lon="12.246058933211025"><ele>422.0</ele><time>2026-04-30T12:03:30Z</time></trkpt><trkpt lat="42.186274922473444" lon="12.246272110800549"><ele>422.0</ele><time>2026-04-30T12:03:31Z</time></trkpt><trkpt lat="42.18610716931469" lon="12.246451894522496"><ele>422.0</ele><time>2026-04-30T12:03:32Z</time></trkpt><trkpt lat="42.18592884933704" lon="12.2466064734247"><ele>422.0</ele><time>2026-04-30T12:03:33Z</time></trkpt><trkpt lat="42.185726485206914" lon="12.246729237341706"><ele>415.66666666666663</ele><time>2026-04-30T12:03:34Z</time></trkpt><trkpt lat="42.18552045922275" lon="12.24684266197876"><ele>409.33333333333337</ele><time>2026-04-30T12:03:35Z</time></trkpt><trkpt lat="42.18531669559838" lon="12.246958653137181"><ele>403.0</ele><time>2026-04-30T12:03:36Z</time></trkpt><trkpt lat="42.18510280321547" lon="12.247071184248425"><ele>403.0</ele><time>2026-04-30T12:03:37Z</time></trkpt><trkpt lat="42.184873768814576" lon="12.247168618043487"><ele>403.0</ele><time>2026-04-30T12:03:38Z</time></trkpt><trkpt lat="42.18462108885092" lon="12.247290220232362"><ele>397.0</ele><time>2026-04-30T12:03:39Z</time></trkpt><trkpt lat="42.184390516028635" lon="12.247430043894731"><ele>391.0</ele><time>2026-04-30T12:03:39.999Z</time></trkpt><trkpt lat="42.184168454582995" lon="12.247559358629145"><ele>391.0</ele><time>2026-04-30T12:03:40.999Z</time></trkpt><trkpt lat="42.18398198785084" lon="12.247682991235573"><ele>391.0</ele><time>2026-04-30T12:03:41.999Z</time></trkpt><trkpt lat="42.18377110020865" lon="12.247815259647309"><ele>391.0</ele><time>2026-04-30T12:03:42.999Z</time></trkpt><trkpt lat="42.183544545056016" lon="12.247957950071056"><ele>391.0</ele><time>2026-04-30T12:03:43.999Z</time></trkpt><trkpt lat="42.18332751130451" lon="12.248104551006678"><ele>391.0</ele><time>2026-04-30T12:03:44.999Z</time></trkpt><trkpt lat="42.18310009848109" lon="12.248246378289766"><ele>390.5</ele><time>2026-04-30T12:03:45.999Z</time></trkpt><trkpt lat="42.182874495815" lon="12.248386005297489"><ele>390.0</ele><time>2026-04-30T12:03:46.999Z</time></trkpt><trkpt lat="42.182645925314844" lon="12.248521522094121"><ele>390.0</ele><time>2026-04-30T12:03:47.999Z</time></trkpt><trkpt lat="42.182420086485415" lon="12.24865922690043"><ele>390.0</ele><time>2026-04-30T12:03:48.999Z</time></trkpt><trkpt lat="42.182197151432305" lon="12.248799247024964"><ele>393.0</ele><time>2026-04-30T12:03:49.999Z</time></trkpt><trkpt lat="42.18197003415246" lon="12.248933170946442"><ele>396.0</ele><time>2026-04-30T12:03:50.999Z</time></trkpt><trkpt lat="42.18174435427498" lon="12.249071026767412"><ele>399.0</ele><time>2026-04-30T12:03:51.999Z</time></trkpt><trkpt lat="42.18151253371286" lon="12.2492070755846"><ele>402.0</ele><time>2026-04-30T12:03:52.999Z</time></trkpt><trkpt lat="42.18127906722735" lon="12.249340922866404"><ele>402.0</ele><time>2026-04-30T12:03:53.999Z</time></trkpt><trkpt lat="42.18106254319047" lon="12.249474443253789"><ele>402.0</ele><time>2026-04-30T12:03:54.999Z</time></trkpt><trkpt lat="42.18085075817938" lon="12.249603836525361"><ele>402.66666666666663</ele><time>2026-04-30T12:03:55.999Z</time></trkpt><trkpt lat="42.18066203814321" lon="12.249722963509821"><ele>403.3333333333333</ele><time>2026-04-30T12:03:56.999Z</time></trkpt><trkpt lat="42.18048192139855" lon="12.249838442401463"><ele>404.0</ele><time>2026-04-30T12:03:57.999Z</time></trkpt><trkpt lat="42.18029324622314" lon="12.24995965954202"><ele>404.0</ele><time>2026-04-30T12:03:58.999Z</time></trkpt><trkpt lat="42.18009153117393" lon="12.25007068780867"><ele>404.0</ele><time>2026-04-30T12:03:59.999Z</time></trkpt><trkpt lat="42.179878868537145" lon="12.250163684676563"><ele>404.0</ele><time>2026-04-30T12:04:00.999Z</time></trkpt><trkpt lat="42.17967442071526" lon="12.250238331933929"><ele>404.3333333333333</ele><time>2026-04-30T12:04:01.999Z</time></trkpt><trkpt lat="42.17946665706941" lon="12.250292471032356"><ele>404.66666666666663</ele><time>2026-04-30T12:04:02.999Z</time></trkpt><trkpt lat="42.17924965052531" lon="12.250331493982065"><ele>405.0</ele><time>2026-04-30T12:04:03.999Z</time></trkpt><trkpt lat="42.179024738125555" lon="12.250361745859378"><ele>405.0</ele><time>2026-04-30T12:04:04.999Z</time></trkpt><trkpt lat="42.17878902442174" lon="12.25037697722894"><ele>405.0</ele><time>2026-04-30T12:04:05.999Z</time></trkpt><trkpt lat="42.17856755589037" lon="12.250371308246944"><ele>405.0</ele><time>2026-04-30T12:04:06.999Z</time></trkpt><trkpt lat="42.178327821471704" lon="12.250357288558963"><ele>405.0</ele><time>2026-04-30T12:04:07.999Z</time></trkpt><trkpt lat="42.17807529099222" lon="12.250350619324056"><ele>404.5</ele><time>2026-04-30T12:04:08.999Z</time></trkpt><trkpt lat="42.17784564629992" lon="12.250328891510591"><ele>404.0</ele><time>2026-04-30T12:04:09.999Z</time></trkpt><trkpt lat="42.17762074838446" lon="12.250299764999134"><ele>404.0</ele><time>2026-04-30T12:04:10.999Z</time></trkpt><trkpt lat="42.17739734467903" lon="12.250268638241282"><ele>404.0</ele><time>2026-04-30T12:04:11.999Z</time></trkpt><trkpt lat="42.17717149629873" lon="12.25024250391809"><ele>402.3333333333333</ele><time>2026-04-30T12:04:12.999Z</time></trkpt><trkpt lat="42.176962596097304" lon="12.250214775084457"><ele>400.66666666666663</ele><time>2026-04-30T12:04:13.999Z</time></trkpt><trkpt lat="42.176762083221256" lon="12.250194314315554"><ele>399.0</ele><time>2026-04-30T12:04:14.999Z</time></trkpt><trkpt lat="42.17655956934535" lon="12.250163689362841"><ele>396.66666666666663</ele><time>2026-04-30T12:04:15.999Z</time></trkpt><trkpt lat="42.17636333460301" lon="12.25012866476598"><ele>394.3333333333333</ele><time>2026-04-30T12:04:16.999Z</time></trkpt><trkpt lat="42.17615573067757" lon="12.250098097298334"><ele>392.0</ele><time>2026-04-30T12:04:17.999Z</time></trkpt><trkpt lat="42.17591727277177" lon="12.250075719337445"><ele>392.0</ele><time>2026-04-30T12:04:18.999Z</time></trkpt><trkpt lat="42.17569752584146" lon="12.250045457121715"><ele>392.0</ele><time>2026-04-30T12:04:19.999Z</time></trkpt><trkpt lat="42.1754856829744" lon="12.249998057183623"><ele>392.0</ele><time>2026-04-30T12:04:20.999Z</time></trkpt><trkpt lat="42.17528999779178" lon="12.249966431376883"><ele>390.66666666666663</ele><time>2026-04-30T12:04:21.999Z</time></trkpt><trkpt lat="42.17512147275046" lon="12.249939319494295"><ele>389.33333333333337</ele><time>2026-04-30T12:04:22.999Z</time></trkpt><trkpt lat="42.17493206103509" lon="12.249916438051681"><ele>388.0</ele><time>2026-04-30T12:04:23.999Z</time></trkpt><trkpt lat="42.17475424232744" lon="12.249891868778722"><ele>385.6666666666667</ele><time>2026-04-30T12:04:24.999Z</time></trkpt><trkpt lat="42.17455416169515" lon="12.249872830887275"><ele>383.33333333333337</ele><time>2026-04-30T12:04:25.999Z</time></trkpt><trkpt lat="42.17433455363379" lon="12.249866132059799"><ele>381.0</ele><time>2026-04-30T12:04:26.999Z</time></trkpt><trkpt lat="42.17411969804822" lon="12.249842873042326"><ele>379.3333333333333</ele><time>2026-04-30T12:04:27.999Z</time></trkpt><trkpt lat="42.17394251775328" lon="12.24982162190129"><ele>377.66666666666663</ele><time>2026-04-30T12:04:28.999Z</time></trkpt><trkpt lat="42.17374909875866" lon="12.249806559268746"><ele>376.0</ele><time>2026-04-30T12:04:29.999Z</time></trkpt><trkpt lat="42.173600709442354" lon="12.249783389241795"><ele>375.66666666666663</ele><time>2026-04-30T12:04:30.999Z</time></trkpt><trkpt lat="42.173402297020566" lon="12.24974939828181"><ele>375.3333333333333</ele><time>2026-04-30T12:04:31.998Z</time></trkpt><trkpt lat="42.17321479219645" lon="12.249713734056336"><ele>375.0</ele><time>2026-04-30T12:04:32.998Z</time></trkpt><trkpt lat="42.17304305611959" lon="12.249693404538034"><ele>373.0</ele><time>2026-04-30T12:04:33.998Z</time></trkpt><trkpt lat="42.17289501864205" lon="12.249664273963383"><ele>371.0</ele><time>2026-04-30T12:04:34.998Z</time></trkpt><trkpt lat="42.17275138877918" lon="12.249603524155834"><ele>369.0</ele><time>2026-04-30T12:04:35.998Z</time></trkpt><trkpt lat="42.17262657438783" lon="12.249498424008705"><ele>367.0</ele><time>2026-04-30T12:04:36.998Z</time></trkpt><trkpt lat="42.17254126558449" lon="12.24935523077751"><ele>367.0</ele><time>2026-04-30T12:04:37.998Z</time></trkpt><trkpt lat="42.17249268822058" lon="12.249187559432729"><ele>367.0</ele><time>2026-04-30T12:04:38.998Z</time></trkpt><trkpt lat="42.17249182379835" lon="12.249011386489908"><ele>367.0</ele><time>2026-04-30T12:04:39.998Z</time></trkpt><trkpt lat="42.172542396714704" lon="12.248856725056639"><ele>367.0</ele><time>2026-04-30T12:04:40.998Z</time></trkpt><trkpt lat="42.17260481204931" lon="12.248744257716838"><ele>365.75</ele><time>2026-04-30T12:04:41.998Z</time></trkpt><trkpt lat="42.17270387166505" lon="12.248611276420451"><ele>364.5</ele><time>2026-04-30T12:04:42.998Z</time></trkpt><trkpt lat="42.17282611806434" lon="12.248487477930398"><ele>363.25</ele><time>2026-04-30T12:04:43.998Z</time></trkpt><trkpt lat="42.17291864325197" lon="12.248380418885247"><ele>362.0</ele><time>2026-04-30T12:04:44.998Z</time></trkpt><trkpt lat="42.17293009045612" lon="12.24820686761406"><ele>360.0</ele><time>2026-04-30T12:04:45.998Z</time></trkpt><trkpt lat="42.17292845988019" lon="12.248046450353957"><ele>358.0</ele><time>2026-04-30T12:04:46.998Z</time></trkpt><trkpt lat="42.17291984172896" lon="12.247829231642166"><ele>356.0</ele><time>2026-04-30T12:04:47.998Z</time></trkpt><trkpt lat="42.172920580413454" lon="12.247601969829848"><ele>354.0</ele><time>2026-04-30T12:04:48.998Z</time></trkpt><trkpt lat="42.17288396024397" lon="12.247407684240446"><ele>352.6666666666667</ele><time>2026-04-30T12:04:49.998Z</time></trkpt><trkpt lat="42.17282182037376" lon="12.247205624209876"><ele>351.33333333333337</ele><time>2026-04-30T12:04:50.998Z</time></trkpt><trkpt lat="42.172708448830335" lon="12.247014344927162"><ele>350.0</ele><time>2026-04-30T12:04:51.998Z</time></trkpt><trkpt lat="42.17257848575756" lon="12.246836385912653"><ele>350.0</ele><time>2026-04-30T12:04:52.998Z</time></trkpt><trkpt lat="42.172408898026895" lon="12.246653127400517"><ele>350.0</ele><time>2026-04-30T12:04:53.998Z</time></trkpt><trkpt lat="42.17230160140938" lon="12.246459556130844"><ele>350.0</ele><time>2026-04-30T12:04:54.998Z</time></trkpt><trkpt lat="42.172165011929806" lon="12.246266227772162"><ele>346.33333333333337</ele><time>2026-04-30T12:04:55.998Z</time></trkpt><trkpt lat="42.17204717034073" lon="12.24609800593126"><ele>342.6666666666667</ele><time>2026-04-30T12:04:56.998Z</time></trkpt><trkpt lat="42.17188143194109" lon="12.245914202749699"><ele>339.0</ele><time>2026-04-30T12:04:57.998Z</time></trkpt><trkpt lat="42.17177817258424" lon="12.24571702838745"><ele>337.0</ele><time>2026-04-30T12:04:58.998Z</time></trkpt><trkpt lat="42.17150782078561" lon="12.245490158276297"><ele>335.0</ele><time>2026-04-30T12:04:59.998Z</time></trkpt><trkpt lat="42.17142922138294" lon="12.245318851211266"><ele>335.0</ele><time>2026-04-30T12:05:00.998Z</time></trkpt><trkpt lat="42.17121956276879" lon="12.2451026242989"><ele>335.0</ele><time>2026-04-30T12:05:01.998Z</time></trkpt><trkpt lat="42.17116845204174" lon="12.244884956061508"><ele>335.0</ele><time>2026-04-30T12:05:02.998Z</time></trkpt><trkpt lat="42.17114885984357" lon="12.244668876700592"><ele>332.6666666666667</ele><time>2026-04-30T12:05:03.998Z</time></trkpt><trkpt lat="42.171086280218525" lon="12.244401583911905"><ele>330.3333333333333</ele><time>2026-04-30T12:05:04.998Z</time></trkpt><trkpt lat="42.1709508242986" lon="12.244172481649024"><ele>328.0</ele><time>2026-04-30T12:05:05.998Z</time></trkpt><trkpt lat="42.170817490751574" lon="12.244003739051934"><ele>326.0</ele><time>2026-04-30T12:05:06.998Z</time></trkpt><trkpt lat="42.170674549273045" lon="12.243797481733347"><ele>324.0</ele><time>2026-04-30T12:05:07.998Z</time></trkpt><trkpt lat="42.17045196111158" lon="12.243664605095415"><ele>324.0</ele><time>2026-04-30T12:05:08.998Z</time></trkpt><trkpt lat="42.170322001933066" lon="12.243324225376417"><ele>324.0</ele><time>2026-04-30T12:05:09.998Z</time></trkpt><trkpt lat="42.17019404113662" lon="12.243030024726696"><ele>324.3333333333333</ele><time>2026-04-30T12:05:10.998Z</time></trkpt><trkpt lat="42.17007715804916" lon="12.242738258340411"><ele>324.66666666666663</ele><time>2026-04-30T12:05:11.998Z</time></trkpt><trkpt lat="42.16991459243552" lon="12.242577507767663"><ele>325.0</ele><time>2026-04-30T12:05:12.998Z</time></trkpt><trkpt lat="42.169775544610204" lon="12.24238164227343"><ele>323.3333333333333</ele><time>2026-04-30T12:05:13.998Z</time></trkpt><trkpt lat="42.16962776154781" lon="12.24220261372719"><ele>321.6666666666667</ele><time>2026-04-30T12:05:14.998Z</time></trkpt><trkpt lat="42.16949617872926" lon="12.241992219825002"><ele>320.0</ele><time>2026-04-30T12:05:15.998Z</time></trkpt><trkpt lat="42.16932237893719" lon="12.241792672395894"><ele>320.0</ele><time>2026-04-30T12:05:16.998Z</time></trkpt><trkpt lat="42.16916255068846" lon="12.241603925492994"><ele>320.0</ele><time>2026-04-30T12:05:17.998Z</time></trkpt><trkpt lat="42.168988760399905" lon="12.241447591319131"><ele>320.0</ele><time>2026-04-30T12:05:18.998Z</time></trkpt><trkpt lat="42.16886309974215" lon="12.241312128314606"><ele>318.0</ele><time>2026-04-30T12:05:19.998Z</time></trkpt><trkpt lat="42.16878010699523" lon="12.241159637554595"><ele>316.0</ele><time>2026-04-30T12:05:20.998Z</time></trkpt><trkpt lat="42.16868191754934" lon="12.241105370726393"><ele>314.0</ele><time>2026-04-30T12:05:21.998Z</time></trkpt><trkpt lat="42.16859519871543" lon="12.241062486162562"><ele>312.0</ele><time>2026-04-30T12:05:22.998Z</time></trkpt><trkpt lat="42.16854049895773" lon="12.241004493495039"><ele>310.0</ele><time>2026-04-30T12:05:23.998Z</time></trkpt><trkpt lat="42.168498580806265" lon="12.24088005883604"><ele>310.0</ele><time>2026-04-30T12:05:24.998Z</time></trkpt><trkpt lat="42.16835870562994" lon="12.24083300384965"><ele>310.0</ele><time>2026-04-30T12:05:26.997Z</time></trkpt><trkpt lat="42.168310648094554" lon="12.240738839116386"><ele>310.0</ele><time>2026-04-30T12:05:27.997Z</time></trkpt><trkpt lat="42.168282046036694" lon="12.240486928057395"><ele>310.0</ele><time>2026-04-30T12:05:29Z</time></trkpt><trkpt lat="42.16821549140072" lon="12.240306556313588"><ele>308.5</ele><time>2026-04-30T12:05:30Z</time></trkpt><trkpt lat="42.16824445039694" lon="12.240433184977508"><ele>307.0</ele><time>2026-04-30T12:05:32Z</time></trkpt><trkpt lat="42.16802832669107" lon="12.240876277374282"><ele>307.0</ele><time>2026-04-30T12:05:33Z</time></trkpt><trkpt lat="42.16808918711388" lon="12.240807726293982"><ele>307.0</ele><time>2026-04-30T12:05:34Z</time></trkpt><trkpt lat="42.16800711935533" lon="12.240795469613724"><ele>307.0</ele><time>2026-04-30T12:05:35Z</time></trkpt><trkpt lat="42.167896396062766" lon="12.24074055257458"><ele>307.0</ele><time>2026-04-30T12:05:37Z</time></trkpt><trkpt lat="42.16782094281901" lon="12.240719118093255"><ele>307.0</ele><time>2026-04-30T12:05:38Z</time></trkpt><trkpt lat="42.167727984729225" lon="12.240716641389627"><ele>307.0</ele><time>2026-04-30T12:05:39Z</time></trkpt><trkpt lat="42.16762394686964" lon="12.240722433687292"><ele>307.0</ele><time>2026-04-30T12:05:40Z</time></trkpt><trkpt lat="42.16747743554632" lon="12.240709948523197"><ele>307.0</ele><time>2026-04-30T12:05:42Z</time></trkpt><trkpt lat="42.16738127140148" lon="12.240721809645587"><ele>307.0</ele><time>2026-04-30T12:05:43Z</time></trkpt><trkpt lat="42.16728781731431" lon="12.240723431736665"><ele>307.0</ele><time>2026-04-30T12:05:44Z</time></trkpt><trkpt lat="42.16719508830726" lon="12.240715309805159"><ele>305.0</ele><time>2026-04-30T12:05:45Z</time></trkpt><trkpt lat="42.16710668258088" lon="12.240712465315978"><ele>303.0</ele><time>2026-04-30T12:05:46Z</time></trkpt><trkpt lat="42.16701842387295" lon="12.240717732744656"><ele>301.0</ele><time>2026-04-30T12:05:46.999Z</time></trkpt><trkpt lat="42.166928927717514" lon="12.240728271392092"><ele>299.0</ele><time>2026-04-30T12:05:47.999Z</time></trkpt><trkpt lat="42.16683955379134" lon="12.240745795663656"><ele>297.0</ele><time>2026-04-30T12:05:48.999Z</time></trkpt><trkpt lat="42.16674743566961" lon="12.240767058058596"><ele>297.0</ele><time>2026-04-30T12:05:49.999Z</time></trkpt><trkpt lat="42.16665992360452" lon="12.24079574341307"><ele>297.0</ele><time>2026-04-30T12:05:50.999Z</time></trkpt><trkpt lat="42.16656525506367" lon="12.240811735013466"><ele>297.0</ele><time>2026-04-30T12:05:51.999Z</time></trkpt><trkpt lat="42.16647881194744" lon="12.240816959489676"><ele>297.0</ele><time>2026-04-30T12:05:52.999Z</time></trkpt><trkpt lat="42.16638748234359" lon="12.240838570997445"><ele>297.0</ele><time>2026-04-30T12:05:53.999Z</time></trkpt><trkpt lat="42.166281082712075" lon="12.240895076358669"><ele>293.25</ele><time>2026-04-30T12:05:54.999Z</time></trkpt><trkpt lat="42.16616577184427" lon="12.240955916633428"><ele>289.5</ele><time>2026-04-30T12:05:55.999Z</time></trkpt><trkpt lat="42.16606493334553" lon="12.241052557869589"><ele>285.75</ele><time>2026-04-30T12:05:56.999Z</time></trkpt><trkpt lat="42.16597708181525" lon="12.24111254133695"><ele>282.0</ele><time>2026-04-30T12:05:57.999Z</time></trkpt><trkpt lat="42.16587184893534" lon="12.241151157426572"><ele>282.0</ele><time>2026-04-30T12:05:58.999Z</time></trkpt><trkpt lat="42.16577376457002" lon="12.24119539338329"><ele>282.0</ele><time>2026-04-30T12:05:59.999Z</time></trkpt><trkpt lat="42.16566428627452" lon="12.241231366950931"><ele>282.0</ele><time>2026-04-30T12:06:00.999Z</time></trkpt><trkpt lat="42.16556516650728" lon="12.241263999481522"><ele>282.0</ele><time>2026-04-30T12:06:01.999Z</time></trkpt><trkpt lat="42.16545579936523" lon="12.241292836048482"><ele>282.0</ele><time>2026-04-30T12:06:02.999Z</time></trkpt><trkpt lat="42.16534663872597" lon="12.241327908053636"><ele>279.6</ele><time>2026-04-30T12:06:03.999Z</time></trkpt><trkpt lat="42.16525815970923" lon="12.241377737060619"><ele>277.2</ele><time>2026-04-30T12:06:04.999Z</time></trkpt><trkpt lat="42.165178149334025" lon="12.241445126211126"><ele>274.8</ele><time>2026-04-30T12:06:05.999Z</time></trkpt><trkpt lat="42.16515719414687" lon="12.241535931680385"><ele>272.4</ele><time>2026-04-30T12:06:06.999Z</time></trkpt><trkpt lat="42.1651249969657" lon="12.241627701004438"><ele>270.0</ele><time>2026-04-30T12:06:07.999Z</time></trkpt><trkpt lat="42.16511486607566" lon="12.24178037796813"><ele>270.0</ele><time>2026-04-30T12:06:08.999Z</time></trkpt><trkpt lat="42.16508470471639" lon="12.241917549799377"><ele>270.0</ele><time>2026-04-30T12:06:09.999Z</time></trkpt><trkpt lat="42.165062853810745" lon="12.242037867003393"><ele>270.0</ele><time>2026-04-30T12:06:10.999Z</time></trkpt><trkpt lat="42.165066287584864" lon="12.242145174782017"><ele>270.0</ele><time>2026-04-30T12:06:11.999Z</time></trkpt><trkpt lat="42.16502983488154" lon="12.242300144343798"><ele>270.0</ele><time>2026-04-30T12:06:13.999Z</time></trkpt><trkpt lat="42.164998371883335" lon="12.242374933143164"><ele>267.6666666666667</ele><time>2026-04-30T12:06:15.999Z</time></trkpt><trkpt lat="42.16484502146115" lon="12.242313733910605"><ele>265.33333333333337</ele><time>2026-04-30T12:06:17.999Z</time></trkpt><trkpt lat="42.16473353985718" lon="12.242230425753633"><ele>263.0</ele><time>2026-04-30T12:06:18.999Z</time></trkpt><trkpt lat="42.16456173551877" lon="12.24221791098736"><ele>261.5</ele><time>2026-04-30T12:06:19.999Z</time></trkpt><trkpt lat="42.164366595996576" lon="12.242098618637444"><ele>260.0</ele><time>2026-04-30T12:06:20.999Z</time></trkpt><trkpt lat="42.16426974231091" lon="12.242075080795642"><ele>258.5</ele><time>2026-04-30T12:06:21.999Z</time></trkpt><trkpt lat="42.16415400244046" lon="12.2420586621307"><ele>257.0</ele><time>2026-04-30T12:06:22.999Z</time></trkpt><trkpt lat="42.16407621343998" lon="12.24202002158383"><ele>255.00000000000003</ele><time>2026-04-30T12:06:23.999Z</time></trkpt><trkpt lat="42.16399216865484" lon="12.242012560089885"><ele>253.0</ele><time>2026-04-30T12:06:24.999Z</time></trkpt><trkpt lat="42.16389687538172" lon="12.24198704073028"><ele>251.0</ele><time>2026-04-30T12:06:25.999Z</time></trkpt><trkpt lat="42.163815623906416" lon="12.241933383052272"><ele>249.0</ele><time>2026-04-30T12:06:26.999Z</time></trkpt><trkpt lat="42.16374638967139" lon="12.24187215833161"><ele>247.00000000000003</ele><time>2026-04-30T12:06:27.999Z</time></trkpt><trkpt lat="42.16368263856519" lon="12.241814577758591"><ele>245.0</ele><time>2026-04-30T12:06:28.999Z</time></trkpt><trkpt lat="42.16361107928682" lon="12.241787728927248"><ele>245.0</ele><time>2026-04-30T12:06:29.999Z</time></trkpt><trkpt lat="42.163523307530696" lon="12.241736531995084"><ele>245.0</ele><time>2026-04-30T12:06:30.999Z</time></trkpt><trkpt lat="42.163427051220005" lon="12.241658379532824"><ele>245.0</ele><time>2026-04-30T12:06:31.999Z</time></trkpt><trkpt lat="42.163326041884936" lon="12.24159752687894"><ele>245.0</ele><time>2026-04-30T12:06:32.999Z</time></trkpt><trkpt lat="42.163227359342734" lon="12.24154371915769"><ele>245.0</ele><time>2026-04-30T12:06:33.999Z</time></trkpt><trkpt lat="42.16312590319647" lon="12.241502627534832"><ele>242.4</ele><time>2026-04-30T12:06:34.999Z</time></trkpt><trkpt lat="42.16301974714458" lon="12.241461952746333"><ele>239.8</ele><time>2026-04-30T12:06:35.999Z</time></trkpt><trkpt lat="42.16291337703226" lon="12.24145332817983"><ele>237.2</ele><time>2026-04-30T12:06:36.999Z</time></trkpt><trkpt lat="42.162822789949196" lon="12.241460091839446"><ele>234.6</ele><time>2026-04-30T12:06:37.999Z</time></trkpt><trkpt lat="42.16270824458194" lon="12.24148884307156"><ele>232.0</ele><time>2026-04-30T12:06:38.999Z</time></trkpt><trkpt lat="42.162596317807754" lon="12.241506405865882"><ele>232.0</ele><time>2026-04-30T12:06:39.999Z</time></trkpt><trkpt lat="42.16248380578026" lon="12.241553492649503"><ele>232.0</ele><time>2026-04-30T12:06:40.999Z</time></trkpt><trkpt lat="42.16239109679362" lon="12.241641566812202"><ele>232.0</ele><time>2026-04-30T12:06:41.998Z</time></trkpt><trkpt lat="42.16231136621858" lon="12.241716168762995"><ele>232.0</ele><time>2026-04-30T12:06:42.998Z</time></trkpt><trkpt lat="42.16224543395314" lon="12.24180456638634"><ele>232.0</ele><time>2026-04-30T12:06:43.998Z</time></trkpt><trkpt lat="42.162186088728106" lon="12.241908689869248"><ele>232.0</ele><time>2026-04-30T12:06:44.998Z</time></trkpt><trkpt lat="42.16213472627801" lon="12.242022526141325"><ele>232.0</ele><time>2026-04-30T12:06:45.998Z</time></trkpt><trkpt lat="42.16209134984457" lon="12.242136228877298"><ele>232.0</ele><time>2026-04-30T12:06:46.998Z</time></trkpt><trkpt lat="42.162107986235064" lon="12.242246847845768"><ele>232.0</ele><time>2026-04-30T12:06:47.998Z</time></trkpt><trkpt lat="42.162101001993356" lon="12.242340452251819"><ele>232.0</ele><time>2026-04-30T12:06:48.998Z</time></trkpt><trkpt lat="42.16199413211578" lon="12.24240907053572"><ele>231.99999999999997</ele><time>2026-04-30T12:06:50.998Z</time></trkpt><trkpt lat="42.161929412066904" lon="12.242389550897487"><ele>232.0</ele><time>2026-04-30T12:06:51.998Z</time></trkpt><trkpt lat="42.16183877482467" lon="12.242365365016836"><ele>232.0</ele><time>2026-04-30T12:06:52.998Z</time></trkpt><trkpt lat="42.16175594573803" lon="12.242321551393054"><ele>232.0</ele><time>2026-04-30T12:06:53.998Z</time></trkpt><trkpt lat="42.16168131287362" lon="12.242275341782607"><ele>231.99999999999997</ele><time>2026-04-30T12:06:54.998Z</time></trkpt><trkpt lat="42.16161254137137" lon="12.242226232737929"><ele>232.0</ele><time>2026-04-30T12:06:55.998Z</time></trkpt><trkpt lat="42.16154464928696" lon="12.242144688719529"><ele>230.39999999999998</ele><time>2026-04-30T12:06:56.998Z</time></trkpt><trkpt lat="42.16147983368967" lon="12.242057637572623"><ele>228.79999999999998</ele><time>2026-04-30T12:06:57.998Z</time></trkpt><trkpt lat="42.16138306751274" lon="12.241929061871787"><ele>227.2</ele><time>2026-04-30T12:06:58.998Z</time></trkpt><trkpt lat="42.16131982469279" lon="12.241808168857007"><ele>225.6</ele><time>2026-04-30T12:06:59.998Z</time></trkpt><trkpt lat="42.161252487700715" lon="12.24169294204838"><ele>224.0</ele><time>2026-04-30T12:07:00.998Z</time></trkpt><trkpt lat="42.161185026795216" lon="12.241600810908624"><ele>224.0</ele><time>2026-04-30T12:07:01.998Z</time></trkpt><trkpt lat="42.16112284939861" lon="12.241508198463919"><ele>223.99999999999997</ele><time>2026-04-30T12:07:02.998Z</time></trkpt><trkpt lat="42.1610649812853" lon="12.241413911053337"><ele>223.99999999999997</ele><time>2026-04-30T12:07:03.998Z</time></trkpt><trkpt lat="42.16100564082727" lon="12.241318065494212"><ele>224.0</ele><time>2026-04-30T12:07:04.998Z</time></trkpt><trkpt lat="42.16095852024919" lon="12.241210146315428"><ele>224.0</ele><time>2026-04-30T12:07:05.998Z</time></trkpt><trkpt lat="42.16092029282667" lon="12.241088990063115"><ele>220.79999999999998</ele><time>2026-04-30T12:07:06.998Z</time></trkpt><trkpt lat="42.160878819065786" lon="12.240972155434676"><ele>217.59999999999997</ele><time>2026-04-30T12:07:07.998Z</time></trkpt><trkpt lat="42.16083146651947" lon="12.240865135596811"><ele>214.4</ele><time>2026-04-30T12:07:08.998Z</time></trkpt><trkpt lat="42.1607824887356" lon="12.240756577900413"><ele>211.2</ele><time>2026-04-30T12:07:09.998Z</time></trkpt><trkpt lat="42.1607016439422" lon="12.240687196485608"><ele>208.0</ele><time>2026-04-30T12:07:10.998Z</time></trkpt><trkpt lat="42.16062301984235" lon="12.240646649171083"><ele>205.8</ele><time>2026-04-30T12:07:11.998Z</time></trkpt><trkpt lat="42.16054327304699" lon="12.240636169387582"><ele>203.60000000000002</ele><time>2026-04-30T12:07:12.998Z</time></trkpt><trkpt lat="42.16045530497012" lon="12.240654081454974"><ele>201.39999999999998</ele><time>2026-04-30T12:07:13.998Z</time></trkpt><trkpt lat="42.1603619822316" lon="12.240691718376866"><ele>199.2</ele><time>2026-04-30T12:07:14.998Z</time></trkpt><trkpt lat="42.16026396701693" lon="12.24073559503815"><ele>197.0</ele><time>2026-04-30T12:07:15.998Z</time></trkpt><trkpt lat="42.160174908722006" lon="12.240776731953142"><ele>197.00000000000003</ele><time>2026-04-30T12:07:16.998Z</time></trkpt><trkpt lat="42.160076649018336" lon="12.240813117500366"><ele>197.0</ele><time>2026-04-30T12:07:17.998Z</time></trkpt><trkpt lat="42.15999600245499" lon="12.240839687778301"><ele>197.0</ele><time>2026-04-30T12:07:18.998Z</time></trkpt><trkpt lat="42.15991033220384" lon="12.240852023226697"><ele>197.0</ele><time>2026-04-30T12:07:19.998Z</time></trkpt><trkpt lat="42.15983203973377" lon="12.24086346672973"><ele>197.00000000000003</ele><time>2026-04-30T12:07:20.998Z</time></trkpt><trkpt lat="42.15974860574577" lon="12.24088738470685"><ele>197.0</ele><time>2026-04-30T12:07:21.998Z</time></trkpt><trkpt lat="42.159674852447004" lon="12.240916893575806"><ele>194.33333333333334</ele><time>2026-04-30T12:07:22.998Z</time></trkpt><trkpt lat="42.15960666295086" lon="12.240967068764192"><ele>191.66666666666669</ele><time>2026-04-30T12:07:23.998Z</time></trkpt><trkpt lat="42.159540606978" lon="12.241026692926168"><ele>189.0</ele><time>2026-04-30T12:07:24.998Z</time></trkpt><trkpt lat="42.15946498329917" lon="12.241058527676222"><ele>186.33333333333334</ele><time>2026-04-30T12:07:25.998Z</time></trkpt><trkpt lat="42.15938042561358" lon="12.241061027246733"><ele>183.66666666666669</ele><time>2026-04-30T12:07:26.998Z</time></trkpt><trkpt lat="42.159291368927406" lon="12.241050098593732"><ele>181.0</ele><time>2026-04-30T12:07:27.998Z</time></trkpt><trkpt lat="42.15918641937093" lon="12.241008812211327"><ele>181.0</ele><time>2026-04-30T12:07:28.998Z</time></trkpt><trkpt lat="42.15909731583422" lon="12.240995311012108"><ele>181.0</ele><time>2026-04-30T12:07:29.998Z</time></trkpt><trkpt lat="42.15899699069249" lon="12.240988585634806"><ele>181.0</ele><time>2026-04-30T12:07:30.998Z</time></trkpt><trkpt lat="42.15891942453993" lon="12.240988728261112"><ele>181.0</ele><time>2026-04-30T12:07:31.998Z</time></trkpt><trkpt lat="42.15883268827499" lon="12.240990875254584"><ele>181.0</ele><time>2026-04-30T12:07:32.998Z</time></trkpt><trkpt lat="42.158762483916966" lon="12.240947050968158"><ele>181.0</ele><time>2026-04-30T12:07:34Z</time></trkpt><trkpt lat="42.15866063390082" lon="12.240945322523517"><ele>179.60000000000002</ele><time>2026-04-30T12:07:36Z</time></trkpt><trkpt lat="42.158581077869734" lon="12.240943972416366"><ele>178.2</ele><time>2026-04-30T12:07:40Z</time></trkpt><trkpt lat="42.158448220140315" lon="12.241038390696195"><ele>176.8</ele><time>2026-04-30T12:07:42Z</time></trkpt><trkpt lat="42.15839743747925" lon="12.241124226315431"><ele>175.39999999999998</ele><time>2026-04-30T12:07:43Z</time></trkpt><trkpt lat="42.158345796021656" lon="12.241211513520852"><ele>174.0</ele><time>2026-04-30T12:07:44Z</time></trkpt><trkpt lat="42.15829539838433" lon="12.241296881081592"><ele>174.0</ele><time>2026-04-30T12:07:45Z</time></trkpt><trkpt lat="42.158242618614885" lon="12.241387053850914"><ele>174.0</ele><time>2026-04-30T12:07:46Z</time></trkpt><trkpt lat="42.15819139341003" lon="12.241479657015326"><ele>174.0</ele><time>2026-04-30T12:07:47Z</time></trkpt><trkpt lat="42.15814954636572" lon="12.241567951182056"><ele>174.0</ele><time>2026-04-30T12:07:48Z</time></trkpt><trkpt lat="42.15811620037597" lon="12.241657060446862"><ele>174.0</ele><time>2026-04-30T12:07:49Z</time></trkpt><trkpt lat="42.15809091126428" lon="12.241747365362185"><ele>174.0</ele><time>2026-04-30T12:07:50Z</time></trkpt><trkpt lat="42.1580659173809" lon="12.241832545188554"><ele>174.16666666666666</ele><time>2026-04-30T12:07:51Z</time></trkpt><trkpt lat="42.15804821924994" lon="12.241919942871993"><ele>174.33333333333334</ele><time>2026-04-30T12:07:52Z</time></trkpt><trkpt lat="42.15800937745959" lon="12.242079382001343"><ele>174.5</ele><time>2026-04-30T12:07:53.999Z</time></trkpt><trkpt lat="42.157952687063165" lon="12.242227722769414"><ele>174.66666666666669</ele><time>2026-04-30T12:07:55.999Z</time></trkpt><trkpt lat="42.15791817020586" lon="12.24230438537662"><ele>174.83333333333334</ele><time>2026-04-30T12:07:56.999Z</time></trkpt><trkpt lat="42.15788255633623" lon="12.242376987590136"><ele>175.0</ele><time>2026-04-30T12:07:57.999Z</time></trkpt><trkpt lat="42.15784642442526" lon="12.242451285183872"><ele>175.0</ele><time>2026-04-30T12:07:58.999Z</time></trkpt><trkpt lat="42.15780920179524" lon="12.242523568300827"><ele>175.0</ele><time>2026-04-30T12:07:59.999Z</time></trkpt><trkpt lat="42.157767365145276" lon="12.242603581348245"><ele>175.0</ele><time>2026-04-30T12:08:00.999Z</time></trkpt><trkpt lat="42.15772936832485" lon="12.24267625068512"><ele>175.0</ele><time>2026-04-30T12:08:01.999Z</time></trkpt><trkpt lat="42.15768555185203" lon="12.242759802434353"><ele>175.0</ele><time>2026-04-30T12:08:02.999Z</time></trkpt><trkpt lat="42.15764388758956" lon="12.242839222010723"><ele>175.0</ele><time>2026-04-30T12:08:03.999Z</time></trkpt><trkpt lat="42.157600849657996" lon="12.242921260045504"><ele>175.0</ele><time>2026-04-30T12:08:04.999Z</time></trkpt><trkpt lat="42.157559970283216" lon="12.242999183483692"><ele>175.0</ele><time>2026-04-30T12:08:05.999Z</time></trkpt><trkpt lat="42.15751845469532" lon="12.243078319665601"><ele>175.0</ele><time>2026-04-30T12:08:06.999Z</time></trkpt><trkpt lat="42.15747729980274" lon="12.243156768299565"><ele>175.0</ele><time>2026-04-30T12:08:07.999Z</time></trkpt><trkpt lat="42.1574363994451" lon="12.24323598161604"><ele>175.0</ele><time>2026-04-30T12:08:08.999Z</time></trkpt><trkpt lat="42.15739639613202" lon="12.243312688534338"><ele>175.0</ele><time>2026-04-30T12:08:09.999Z</time></trkpt><trkpt lat="42.15735711956338" lon="12.243388035216224"><ele>175.0</ele><time>2026-04-30T12:08:10.999Z</time></trkpt><trkpt lat="42.15732092995199" lon="12.243457525431799"><ele>175.0</ele><time>2026-04-30T12:08:11.999Z</time></trkpt><trkpt lat="42.15728530432499" lon="12.243559710218507"><ele>174.33333333333334</ele><time>2026-04-30T12:08:13.999Z</time></trkpt><trkpt lat="42.15724327813751" lon="12.243635233255267"><ele>173.66666666666669</ele><time>2026-04-30T12:08:16.999Z</time></trkpt><trkpt lat="42.1571811340925" lon="12.243725957286957"><ele>173.0</ele><time>2026-04-30T12:08:23.999Z</time></trkpt><trkpt lat="42.1571642103546" lon="12.243852031532473"><ele>172.33333333333334</ele><time>2026-04-30T12:08:25.999Z</time></trkpt><trkpt lat="42.15712101465522" lon="12.24393140142315"><ele>171.66666666666666</ele><time>2026-04-30T12:08:27.999Z</time></trkpt><trkpt lat="42.157069299972825" lon="12.244014937624005"><ele>171.0</ele><time>2026-04-30T12:08:29.999Z</time></trkpt><trkpt lat="42.15700548360839" lon="12.244141634605255"><ele>171.0</ele><time>2026-04-30T12:08:31.999Z</time></trkpt><trkpt lat="42.156968104940994" lon="12.24422192397281"><ele>171.0</ele><time>2026-04-30T12:08:32.999Z</time></trkpt><trkpt lat="42.15689305877511" lon="12.244282231194852"><ele>171.0</ele><time>2026-04-30T12:08:33.999Z</time></trkpt><trkpt lat="42.15684335487057" lon="12.244377837556845"><ele>171.0</ele><time>2026-04-30T12:08:34.999Z</time></trkpt><trkpt lat="42.156791898467326" lon="12.24447687695675"><ele>171.0</ele><time>2026-04-30T12:08:35.999Z</time></trkpt><trkpt lat="42.156743101397424" lon="12.244571240737564"><ele>171.0</ele><time>2026-04-30T12:08:36.999Z</time></trkpt><trkpt lat="42.156695932996726" lon="12.244662454996552"><ele>171.0</ele><time>2026-04-30T12:08:37.999Z</time></trkpt><trkpt lat="42.15665105844888" lon="12.24474923340146"><ele>171.0</ele><time>2026-04-30T12:08:38.999Z</time></trkpt><trkpt lat="42.156604419194046" lon="12.244839424395051"><ele>171.0</ele><time>2026-04-30T12:08:39.999Z</time></trkpt><trkpt lat="42.15656056697449" lon="12.244924225822817"><ele>171.0</ele><time>2026-04-30T12:08:40.999Z</time></trkpt><trkpt lat="42.15651629923028" lon="12.245009830790858"><ele>171.0</ele><time>2026-04-30T12:08:41.999Z</time></trkpt><trkpt lat="42.15647247153957" lon="12.245094568821704"><ele>171.0</ele><time>2026-04-30T12:08:42.999Z</time></trkpt><trkpt lat="42.15643060782754" lon="12.245175465500987"><ele>169.66666666666666</ele><time>2026-04-30T12:08:43.999Z</time></trkpt><trkpt lat="42.15639002700487" lon="12.245253883146248"><ele>168.33333333333334</ele><time>2026-04-30T12:08:44.999Z</time></trkpt><trkpt lat="42.15635134305728" lon="12.245328635305373"><ele>167.0</ele><time>2026-04-30T12:08:45.998Z</time></trkpt><trkpt lat="42.15628246063006" lon="12.245461742457753"><ele>165.66666666666669</ele><time>2026-04-30T12:08:47.998Z</time></trkpt><trkpt lat="42.156235482944254" lon="12.245552521288758"><ele>164.33333333333334</ele><time>2026-04-30T12:08:49.998Z</time></trkpt><trkpt lat="42.1561987683049" lon="12.245623467992258"><ele>163.0</ele><time>2026-04-30T12:08:52.998Z</time></trkpt><trkpt lat="42.15613349021921" lon="12.245585574396578"><ele>163.0</ele><time>2026-04-30T12:08:55.998Z</time></trkpt><trkpt lat="42.15605867415924" lon="12.245540394968323"><ele>163.0</ele><time>2026-04-30T12:08:57.998Z</time></trkpt><trkpt lat="42.155985386501456" lon="12.24546887566654"><ele>163.0</ele><time>2026-04-30T12:09:00.998Z</time></trkpt><trkpt lat="42.15591879049055" lon="12.245418465279569"><ele>163.0</ele><time>2026-04-30T12:09:08.998Z</time></trkpt><trkpt lat="42.1559812970697" lon="12.24521696180974"><ele>163.0</ele><time>2026-04-30T12:09:18.998Z</time></trkpt><trkpt lat="42.15601515858654" lon="12.24512926109007"><ele>163.0</ele><time>2026-04-30T12:09:21.998Z</time></trkpt><trkpt lat="42.1560447371738" lon="12.245036205939694"><ele>163.0</ele><time>2026-04-30T12:09:24.998Z</time></trkpt><trkpt lat="42.15607081464586" lon="12.244941870448802"><ele>163.0</ele><time>2026-04-30T12:09:27.998Z</time></trkpt><trkpt lat="42.15610617654172" lon="12.24483248049961"><ele>163.0</ele><time>2026-04-30T12:09:30.998Z</time></trkpt><trkpt lat="42.15612746068087" lon="12.244742980850678"><ele>163.0</ele><time>2026-04-30T12:09:32.998Z</time></trkpt><trkpt lat="42.15615212716351" lon="12.244653615259718"><ele>163.0</ele><time>2026-04-30T12:09:34.998Z</time></trkpt><trkpt lat="42.15617903592655" lon="12.244553857734138"><ele>163.0</ele><time>2026-04-30T12:09:36.998Z</time></trkpt><trkpt lat="42.15620344636287" lon="12.244465286102395"><ele>163.0</ele><time>2026-04-30T12:09:39Z</time></trkpt><trkpt lat="42.156230720344574" lon="12.24438852519966"><ele>163.0</ele><time>2026-04-30T12:09:41Z</time></trkpt><trkpt lat="42.156253396558974" lon="12.24426894703544"><ele>163.0</ele><time>2026-04-30T12:09:44Z</time></trkpt><trkpt lat="42.156283050286675" lon="12.244144433904447"><ele>163.0</ele><time>2026-04-30T12:09:47Z</time></trkpt><trkpt lat="42.15630751803081" lon="12.244045515280662"><ele>163.0</ele><time>2026-04-30T12:09:49Z</time></trkpt><trkpt lat="42.156314988974" lon="12.243878751235936"><ele>163.0</ele><time>2026-04-30T12:09:51Z</time></trkpt><trkpt lat="42.156326915061236" lon="12.243788692560772"><ele>163.0</ele><time>2026-04-30T12:09:52Z</time></trkpt><trkpt lat="42.15633871522171" lon="12.243699584809807"><ele>163.0</ele><time>2026-04-30T12:09:53Z</time></trkpt><trkpt lat="42.156351496218186" lon="12.243603070373652"><ele>163.0</ele><time>2026-04-30T12:09:54Z</time></trkpt><trkpt lat="42.15636536986855" lon="12.243500745925457"><ele>163.0</ele><time>2026-04-30T12:09:55Z</time></trkpt><trkpt lat="42.156378703763046" lon="12.243401694139083"><ele>163.0</ele><time>2026-04-30T12:09:56Z</time></trkpt><trkpt lat="42.156392042535465" lon="12.2433026061196"><ele>163.0</ele><time>2026-04-30T12:09:57Z</time></trkpt><trkpt lat="42.15640458736989" lon="12.24320760796118"><ele>163.0</ele><time>2026-04-30T12:09:58Z</time></trkpt><trkpt lat="42.156416180726126" lon="12.243112682498316"><ele>163.0</ele><time>2026-04-30T12:09:58.999Z</time></trkpt><trkpt lat="42.15642381147312" lon="12.24302258952765"><ele>163.0</ele><time>2026-04-30T12:09:59.999Z</time></trkpt><trkpt lat="42.15643102970101" lon="12.242933548573655"><ele>163.0</ele><time>2026-04-30T12:10:00.999Z</time></trkpt><trkpt lat="42.1564573383214" lon="12.242771294317496"><ele>163.0</ele><time>2026-04-30T12:10:02.999Z</time></trkpt><trkpt lat="42.15646837448505" lon="12.242611614644971"><ele>163.0</ele><time>2026-04-30T12:10:04.999Z</time></trkpt><trkpt lat="42.156479227663134" lon="12.242473573841714"><ele>163.0</ele><time>2026-04-30T12:10:06.999Z</time></trkpt><trkpt lat="42.156497661047304" lon="12.242316378713157"><ele>163.0</ele><time>2026-04-30T12:10:08.999Z</time></trkpt><trkpt lat="42.156504402806405" lon="12.242230872667378"><ele>163.0</ele><time>2026-04-30T12:10:09.999Z</time></trkpt><trkpt lat="42.15652436941264" lon="12.242071941517493"><ele>163.0</ele><time>2026-04-30T12:10:11.999Z</time></trkpt><trkpt lat="42.15654900322571" lon="12.241929780834525"><ele>163.0</ele><time>2026-04-30T12:10:13.999Z</time></trkpt><trkpt lat="42.156553960542816" lon="12.24183234774997"><ele>163.83333333333334</ele><time>2026-04-30T12:10:16.999Z</time></trkpt><trkpt lat="42.1567207373122" lon="12.241856760381749"><ele>164.66666666666669</ele><time>2026-04-30T12:10:27.999Z</time></trkpt><trkpt lat="42.15678404800051" lon="12.241849793345729"><ele>165.5</ele><time>2026-04-30T12:10:45.999Z</time></trkpt><trkpt lat="42.15674590359364" lon="12.24176247182326"><ele>166.33333333333334</ele><time>2026-04-30T12:17:26.998Z</time></trkpt><trkpt lat="42.156691659276184" lon="12.241711845015713"><ele>167.16666666666666</ele><time>2026-04-30T12:17:35.998Z</time></trkpt><trkpt lat="42.156740589414696" lon="12.24176936307844"><ele>168.0</ele><time>2026-04-30T13:46:19Z</time></trkpt><trkpt lat="42.15677047237489" lon="12.241858507826032"><ele>168.0</ele><time>2026-04-30T13:47:48.351Z</time></trkpt><trkpt lat="42.156638169412766" lon="12.24178407128142"><ele>168.0</ele><time>2026-04-30T13:47:54.488Z</time></trkpt><trkpt lat="42.15682872129151" lon="12.241807293956926"><ele>168.0</ele><time>2026-04-30T13:48:25.998Z</time></trkpt><trkpt lat="42.156657650927734" lon="12.241789088317706"><ele>168.0</ele><time>2026-04-30T13:48:28.998Z</time></trkpt><trkpt lat="42.156769246173845" lon="12.24190251765328"><ele>168.0</ele><time>2026-04-30T13:48:46Z</time></trkpt><trkpt lat="42.15669811992806" lon="12.241880327510398"><ele>168.0</ele><time>2026-04-30T13:50:35.998Z</time></trkpt><trkpt lat="42.15663202757131" lon="12.241855681303292"><ele>168.0</ele><time>2026-04-30T13:50:42Z</time></trkpt><trkpt lat="42.15661931288453" lon="12.241766496696814"><ele>168.0</ele><time>2026-04-30T13:50:48Z</time></trkpt><trkpt lat="42.15661785508308" lon="12.241671240863775"><ele>168.0</ele><time>2026-04-30T13:50:53Z</time></trkpt><trkpt lat="42.15658233104933" lon="12.241598882751973"><ele>168.0</ele><time>2026-04-30T13:51:02Z</time></trkpt><trkpt lat="42.15655231186948" lon="12.241514007189036"><ele>168.0</ele><time>2026-04-30T13:51:10Z</time></trkpt><trkpt lat="42.156506475553854" lon="12.241445757532077"><ele>161.0</ele><time>2026-04-30T13:51:17Z</time></trkpt><trkpt lat="42.15644292145125" lon="12.241400371377285"><ele>161.0</ele><time>2026-04-30T13:51:44.999Z</time></trkpt><trkpt lat="42.15649694332469" lon="12.241343132674327"><ele>161.0</ele><time>2026-04-30T13:51:54.999Z</time></trkpt></trkseg><trkseg><trkpt lat="42.091687134913734" lon="12.357729972642222"><ele>305.0</ele><time>2026-04-30T16:36:09.999Z</time></trkpt><trkpt lat="42.09171716295824" lon="12.35795995909598"><ele>305.0</ele><time>2026-04-30T16:36:10.999Z</time></trkpt><trkpt lat="42.09173481665788" lon="12.358190604919724"><ele>305.0</ele><time>2026-04-30T16:36:11.999Z</time></trkpt><trkpt lat="42.09172026337066" lon="12.358421870068852"><ele>305.6666666666667</ele><time>2026-04-30T16:36:12.999Z</time></trkpt><trkpt lat="42.091729973423476" lon="12.35865416145369"><ele>306.3333333333333</ele><time>2026-04-30T16:36:13.999Z</time></trkpt><trkpt lat="42.09173936100647" lon="12.358880705223719"><ele>307.0</ele><time>2026-04-30T16:36:14.999Z</time></trkpt><trkpt lat="42.09174776591429" lon="12.359102647316588"><ele>305.3333333333333</ele><time>2026-04-30T16:36:15.999Z</time></trkpt><trkpt lat="42.091756217964736" lon="12.359325834306393"><ele>303.6666666666667</ele><time>2026-04-30T16:36:16.999Z</time></trkpt><trkpt lat="42.09176489630999" lon="12.359554996944892"><ele>302.0</ele><time>2026-04-30T16:36:17.999Z</time></trkpt><trkpt lat="42.091773376548744" lon="12.359787028271755"><ele>300.6666666666667</ele><time>2026-04-30T16:36:18.999Z</time></trkpt><trkpt lat="42.091782009924714" lon="12.36002112840333"><ele>299.3333333333333</ele><time>2026-04-30T16:36:19.999Z</time></trkpt><trkpt lat="42.09179170793003" lon="12.360257754226495"><ele>298.0</ele><time>2026-04-30T16:36:20.999Z</time></trkpt><trkpt lat="42.09180149682141" lon="12.36049659761162"><ele>299.3333333333333</ele><time>2026-04-30T16:36:21.999Z</time></trkpt><trkpt lat="42.09182652328659" lon="12.360740811185384"><ele>300.6666666666667</ele><time>2026-04-30T16:36:22.999Z</time></trkpt><trkpt lat="42.09182196638914" lon="12.360990866029317"><ele>302.0</ele><time>2026-04-30T16:36:23.999Z</time></trkpt><trkpt lat="42.0918313961461" lon="12.36124167578421"><ele>300.6666666666667</ele><time>2026-04-30T16:36:24.999Z</time></trkpt><trkpt lat="42.091842667400066" lon="12.36150139332576"><ele>299.3333333333333</ele><time>2026-04-30T16:36:25.999Z</time></trkpt><trkpt lat="42.091853862447564" lon="12.36175935486603"><ele>298.0</ele><time>2026-04-30T16:36:26.999Z</time></trkpt><trkpt lat="42.091864352236485" lon="12.362024479892906"><ele>295.3333333333333</ele><time>2026-04-30T16:36:27.999Z</time></trkpt><trkpt lat="42.0918747420816" lon="12.36229291182097"><ele>292.6666666666667</ele><time>2026-04-30T16:36:28.999Z</time></trkpt><trkpt lat="42.09188623460257" lon="12.36256136898181"><ele>290.0</ele><time>2026-04-30T16:36:29.999Z</time></trkpt><trkpt lat="42.09189724059381" lon="12.362830210922736"><ele>290.33333333333337</ele><time>2026-04-30T16:36:30.999Z</time></trkpt><trkpt lat="42.091907746274586" lon="12.3630984794536"><ele>290.6666666666667</ele><time>2026-04-30T16:36:31.999Z</time></trkpt><trkpt lat="42.0919189480779" lon="12.363364697810505"><ele>291.0</ele><time>2026-04-30T16:36:32.999Z</time></trkpt><trkpt lat="42.091932607267935" lon="12.363630743215598"><ele>291.3333333333333</ele><time>2026-04-30T16:36:33.999Z</time></trkpt><trkpt lat="42.09196926943783" lon="12.363896215100441"><ele>291.66666666666663</ele><time>2026-04-30T16:36:34.999Z</time></trkpt><trkpt lat="42.09200532737189" lon="12.364160138909103"><ele>292.0</ele><time>2026-04-30T16:36:35.999Z</time></trkpt><trkpt lat="42.092053551301476" lon="12.364418841522387"><ele>292.0</ele><time>2026-04-30T16:36:36.999Z</time></trkpt><trkpt lat="42.0921107254065" lon="12.364673095666058"><ele>292.0</ele><time>2026-04-30T16:36:37.999Z</time></trkpt><trkpt lat="42.09216820904039" lon="12.364928570546562"><ele>292.0</ele><time>2026-04-30T16:36:38.999Z</time></trkpt><trkpt lat="42.09222442467862" lon="12.365174069635632"><ele>289.66666666666663</ele><time>2026-04-30T16:36:39.999Z</time></trkpt><trkpt lat="42.09227963758277" lon="12.365414748568256"><ele>287.3333333333333</ele><time>2026-04-30T16:36:40.999Z</time></trkpt><trkpt lat="42.09233662967999" lon="12.365657779013297"><ele>285.0</ele><time>2026-04-30T16:36:41.999Z</time></trkpt><trkpt lat="42.09240274223552" lon="12.365881037843002"><ele>286.0</ele><time>2026-04-30T16:36:42.999Z</time></trkpt><trkpt lat="42.092459197739856" lon="12.366103599938741"><ele>287.0</ele><time>2026-04-30T16:36:43.999Z</time></trkpt><trkpt lat="42.09248286675911" lon="12.366329786854207"><ele>288.0</ele><time>2026-04-30T16:36:44.999Z</time></trkpt><trkpt lat="42.09250988885986" lon="12.366544781932996"><ele>288.0</ele><time>2026-04-30T16:36:45.999Z</time></trkpt><trkpt lat="42.092543697013085" lon="12.36675374677024"><ele>288.0</ele><time>2026-04-30T16:36:46.999Z</time></trkpt><trkpt lat="42.09256242963075" lon="12.366975866438363"><ele>288.0</ele><time>2026-04-30T16:36:47.999Z</time></trkpt><trkpt lat="42.092589479029336" lon="12.367197650765789"><ele>288.0</ele><time>2026-04-30T16:36:48.999Z</time></trkpt><trkpt lat="42.092613502922745" lon="12.367417682611217"><ele>288.0</ele><time>2026-04-30T16:36:49.999Z</time></trkpt><trkpt lat="42.09259185333817" lon="12.367628354925465"><ele>288.0</ele><time>2026-04-30T16:36:50.999Z</time></trkpt><trkpt lat="42.09255797967187" lon="12.367818108761636"><ele>288.0</ele><time>2026-04-30T16:36:51.999Z</time></trkpt><trkpt lat="42.092506452607395" lon="12.36798049821707"><ele>288.0</ele><time>2026-04-30T16:36:52.999Z</time></trkpt><trkpt lat="42.09243427815039" lon="12.36813543215892"><ele>288.0</ele><time>2026-04-30T16:36:53.999Z</time></trkpt><trkpt lat="42.092350331255126" lon="12.368265398098666"><ele>288.0</ele><time>2026-04-30T16:36:55Z</time></trkpt><trkpt lat="42.092254971951334" lon="12.368380185689068"><ele>286.0</ele><time>2026-04-30T16:36:56Z</time></trkpt><trkpt lat="42.09215088672994" lon="12.368494311765932"><ele>284.0</ele><time>2026-04-30T16:36:57Z</time></trkpt><trkpt lat="42.092045952328725" lon="12.36861020324345"><ele>282.0</ele><time>2026-04-30T16:36:58Z</time></trkpt><trkpt lat="42.091952393099234" lon="12.368717568042493"><ele>280.0</ele><time>2026-04-30T16:36:59Z</time></trkpt><trkpt lat="42.09186937837321" lon="12.368818627574683"><ele>279.3333333333333</ele><time>2026-04-30T16:37:00Z</time></trkpt><trkpt lat="42.091820275143064" lon="12.368912756846552"><ele>278.66666666666663</ele><time>2026-04-30T16:37:01Z</time></trkpt><trkpt lat="42.091764784785084" lon="12.368973843092663"><ele>278.0</ele><time>2026-04-30T16:37:02Z</time></trkpt><trkpt lat="42.09172397926103" lon="12.369042363232396"><ele>277.3333333333333</ele><time>2026-04-30T16:37:03Z</time></trkpt><trkpt lat="42.091654401941994" lon="12.369117055417748"><ele>276.6666666666667</ele><time>2026-04-30T16:37:05Z</time></trkpt><trkpt lat="42.091736321605254" lon="12.369247424201252"><ele>276.0</ele><time>2026-04-30T16:37:06Z</time></trkpt><trkpt lat="42.091811571801124" lon="12.369338548030814"><ele>276.0</ele><time>2026-04-30T16:37:08Z</time></trkpt><trkpt lat="42.091893247138465" lon="12.369415979619813"><ele>276.0</ele><time>2026-04-30T16:37:10Z</time></trkpt><trkpt lat="42.09197037748897" lon="12.369502082394547"><ele>276.0</ele><time>2026-04-30T16:37:12Z</time></trkpt><trkpt lat="42.092048075905765" lon="12.36961461318783"><ele>276.0</ele><time>2026-04-30T16:37:14Z</time></trkpt><trkpt lat="42.09210858911311" lon="12.369681701137267"><ele>276.0</ele><time>2026-04-30T16:37:16Z</time></trkpt><trkpt lat="42.092232587257655" lon="12.369623737130375"><ele>276.0</ele><time>2026-04-30T16:37:19Z</time></trkpt><trkpt lat="42.09229250704992" lon="12.369564516546067"><ele>276.0</ele><time>2026-04-30T16:37:21Z</time></trkpt><trkpt lat="42.09237318403343" lon="12.369478445190952"><ele>276.0</ele><time>2026-04-30T16:37:22Z</time></trkpt><trkpt lat="42.09243095612985" lon="12.369328166783065"><ele>276.0</ele><time>2026-04-30T16:37:23Z</time></trkpt><trkpt lat="42.09250894835059" lon="12.369222268520373"><ele>276.0</ele><time>2026-04-30T16:37:24Z</time></trkpt><trkpt lat="42.092605405426845" lon="12.369118365849246"><ele>277.75</ele><time>2026-04-30T16:37:25Z</time></trkpt><trkpt lat="42.09269348155901" lon="12.36898335412082"><ele>279.5</ele><time>2026-04-30T16:37:26Z</time></trkpt><trkpt lat="42.092779551941376" lon="12.368852667138787"><ele>281.25</ele><time>2026-04-30T16:37:27Z</time></trkpt><trkpt lat="42.092857954386275" lon="12.368713934325347"><ele>283.0</ele><time>2026-04-30T16:37:28Z</time></trkpt><trkpt lat="42.09296596644471" lon="12.368586977096365"><ele>283.75</ele><time>2026-04-30T16:37:29Z</time></trkpt><trkpt lat="42.0930636581867" lon="12.368451727129143"><ele>284.5</ele><time>2026-04-30T16:37:30Z</time></trkpt><trkpt lat="42.09316561746308" lon="12.368328006412115"><ele>285.25</ele><time>2026-04-30T16:37:31Z</time></trkpt><trkpt lat="42.093264441207246" lon="12.368213049287226"><ele>286.0</ele><time>2026-04-30T16:37:32Z</time></trkpt><trkpt lat="42.09338233196751" lon="12.36811466976065"><ele>287.75</ele><time>2026-04-30T16:37:33Z</time></trkpt><trkpt lat="42.093504765839526" lon="12.368026111739264"><ele>289.5</ele><time>2026-04-30T16:37:34Z</time></trkpt><trkpt lat="42.093624250357365" lon="12.367941563957293"><ele>291.25</ele><time>2026-04-30T16:37:35Z</time></trkpt><trkpt lat="42.09374449084442" lon="12.367861740455504"><ele>293.0</ele><time>2026-04-30T16:37:36Z</time></trkpt><trkpt lat="42.09386044995348" lon="12.367797484876473"><ele>293.0</ele><time>2026-04-30T16:37:37Z</time></trkpt><trkpt lat="42.09398780520025" lon="12.367743322696835"><ele>293.0</ele><time>2026-04-30T16:37:38Z</time></trkpt><trkpt lat="42.09412162988801" lon="12.367686899978247"><ele>293.0</ele><time>2026-04-30T16:37:39Z</time></trkpt><trkpt lat="42.09425725218787" lon="12.367630553171706"><ele>293.0</ele><time>2026-04-30T16:37:40Z</time></trkpt><trkpt lat="42.094397488963466" lon="12.367576913906916"><ele>294.75</ele><time>2026-04-30T16:37:40.999Z</time></trkpt><trkpt lat="42.09454154288979" lon="12.367538911254808"><ele>296.5</ele><time>2026-04-30T16:37:41.999Z</time></trkpt><trkpt lat="42.09469199374691" lon="12.36751353650826"><ele>298.25</ele><time>2026-04-30T16:37:42.999Z</time></trkpt><trkpt lat="42.09483858976791" lon="12.367484827187525"><ele>300.0</ele><time>2026-04-30T16:37:43.999Z</time></trkpt><trkpt lat="42.094992922477864" lon="12.367468208406724"><ele>301.6666666666667</ele><time>2026-04-30T16:37:44.999Z</time></trkpt><trkpt lat="42.09515613202471" lon="12.367459742237113"><ele>303.33333333333337</ele><time>2026-04-30T16:37:45.999Z</time></trkpt><trkpt lat="42.095318814144285" lon="12.367454908995908"><ele>305.0</ele><time>2026-04-30T16:37:46.999Z</time></trkpt><trkpt lat="42.09548008422318" lon="12.367455924903348"><ele>305.0</ele><time>2026-04-30T16:37:47.999Z</time></trkpt><trkpt lat="42.09563336558565" lon="12.367459675891434"><ele>305.0</ele><time>2026-04-30T16:37:48.999Z</time></trkpt><trkpt lat="42.095774112999905" lon="12.36746353278029"><ele>305.0</ele><time>2026-04-30T16:37:49.999Z</time></trkpt><trkpt lat="42.095901325958614" lon="12.367469749412784"><ele>305.0</ele><time>2026-04-30T16:37:50.999Z</time></trkpt><trkpt lat="42.09603064349891" lon="12.367490513723357"><ele>305.5</ele><time>2026-04-30T16:37:51.999Z</time></trkpt><trkpt lat="42.096166892066464" lon="12.367526112579169"><ele>306.0</ele><time>2026-04-30T16:37:52.999Z</time></trkpt><trkpt lat="42.0963074467443" lon="12.367557453120474"><ele>306.5</ele><time>2026-04-30T16:37:53.999Z</time></trkpt><trkpt lat="42.09645898829463" lon="12.367590361550542"><ele>307.0</ele><time>2026-04-30T16:37:54.999Z</time></trkpt><trkpt lat="42.09661867270974" lon="12.367634540429064"><ele>303.66666666666663</ele><time>2026-04-30T16:37:55.999Z</time></trkpt><trkpt lat="42.09678523972872" lon="12.367679030165041"><ele>300.3333333333333</ele><time>2026-04-30T16:37:56.999Z</time></trkpt><trkpt lat="42.09695907208291" lon="12.367733565312806"><ele>297.0</ele><time>2026-04-30T16:37:57.999Z</time></trkpt><trkpt lat="42.097144315322964" lon="12.367778055691382"><ele>297.0</ele><time>2026-04-30T16:37:58.999Z</time></trkpt><trkpt lat="42.09732939004088" lon="12.367828287857076"><ele>297.0</ele><time>2026-04-30T16:37:59.999Z</time></trkpt><trkpt lat="42.097524690550635" lon="12.367873269119185"><ele>297.0</ele><time>2026-04-30T16:38:00.999Z</time></trkpt><trkpt lat="42.0977253044896" lon="12.367896086345324"><ele>295.3333333333333</ele><time>2026-04-30T16:38:01.999Z</time></trkpt><trkpt lat="42.09793041901671" lon="12.36791024483073"><ele>293.66666666666663</ele><time>2026-04-30T16:38:02.999Z</time></trkpt><trkpt lat="42.098133145151294" lon="12.367911517387922"><ele>292.0</ele><time>2026-04-30T16:38:03.999Z</time></trkpt><trkpt lat="42.09833727714656" lon="12.367879307867778"><ele>290.0</ele><time>2026-04-30T16:38:04.999Z</time></trkpt><trkpt lat="42.0985365190183" lon="12.367840555806216"><ele>288.0</ele><time>2026-04-30T16:38:05.999Z</time></trkpt><trkpt lat="42.098730514007194" lon="12.36779244358435"><ele>286.0</ele><time>2026-04-30T16:38:06.999Z</time></trkpt><trkpt lat="42.09891710524417" lon="12.367731558482898"><ele>286.3333333333333</ele><time>2026-04-30T16:38:07.999Z</time></trkpt><trkpt lat="42.0991000232947" lon="12.367655783437181"><ele>286.6666666666667</ele><time>2026-04-30T16:38:08.999Z</time></trkpt><trkpt lat="42.09928325384614" lon="12.367576823778109"><ele>287.0</ele><time>2026-04-30T16:38:09.999Z</time></trkpt><trkpt lat="42.09946883110264" lon="12.367471921314497"><ele>287.0</ele><time>2026-04-30T16:38:10.999Z</time></trkpt><trkpt lat="42.09965235402824" lon="12.367356094942657"><ele>287.0</ele><time>2026-04-30T16:38:11.999Z</time></trkpt><trkpt lat="42.0998347396745" lon="12.367241147210777"><ele>287.0</ele><time>2026-04-30T16:38:12.999Z</time></trkpt><trkpt lat="42.100015418291605" lon="12.36712953642038"><ele>285.33333333333337</ele><time>2026-04-30T16:38:13.999Z</time></trkpt><trkpt lat="42.10019646079576" lon="12.367022168946216"><ele>283.6666666666667</ele><time>2026-04-30T16:38:14.999Z</time></trkpt><trkpt lat="42.100379148113376" lon="12.366911813283007"><ele>282.0</ele><time>2026-04-30T16:38:15.999Z</time></trkpt><trkpt lat="42.10056404427961" lon="12.366792580345292"><ele>282.6666666666667</ele><time>2026-04-30T16:38:16.999Z</time></trkpt><trkpt lat="42.10075288463568" lon="12.366671554516264"><ele>283.33333333333337</ele><time>2026-04-30T16:38:17.999Z</time></trkpt><trkpt lat="42.100946844345195" lon="12.366556699369852"><ele>284.0</ele><time>2026-04-30T16:38:18.999Z</time></trkpt><trkpt lat="42.101145532329106" lon="12.366439644879975"><ele>278.0</ele><time>2026-04-30T16:38:19.999Z</time></trkpt><trkpt lat="42.101357895443776" lon="12.366319224176282"><ele>272.0</ele><time>2026-04-30T16:38:20.999Z</time></trkpt><trkpt lat="42.10157878077058" lon="12.366190835484925"><ele>272.5</ele><time>2026-04-30T16:38:21.999Z</time></trkpt><trkpt lat="42.10180073604522" lon="12.366060406702921"><ele>273.0</ele><time>2026-04-30T16:38:22.999Z</time></trkpt><trkpt lat="42.10203277382816" lon="12.36592460732455"><ele>273.0</ele><time>2026-04-30T16:38:23.999Z</time></trkpt><trkpt lat="42.1022626828354" lon="12.36579181698658"><ele>273.0</ele><time>2026-04-30T16:38:24.999Z</time></trkpt><trkpt lat="42.1024885817813" lon="12.365667389785267"><ele>273.0</ele><time>2026-04-30T16:38:25.999Z</time></trkpt><trkpt lat="42.10271375096383" lon="12.36554045451502"><ele>273.0</ele><time>2026-04-30T16:38:26.999Z</time></trkpt><trkpt lat="42.102934678794846" lon="12.36541241361489"><ele>273.0</ele><time>2026-04-30T16:38:27.999Z</time></trkpt><trkpt lat="42.10314786272017" lon="12.365292316753335"><ele>273.0</ele><time>2026-04-30T16:38:28.999Z</time></trkpt><trkpt lat="42.103356592726634" lon="12.365174794854584"><ele>271.3333333333333</ele><time>2026-04-30T16:38:29.999Z</time></trkpt><trkpt lat="42.103555178859075" lon="12.365074488161088"><ele>269.66666666666663</ele><time>2026-04-30T16:38:30.999Z</time></trkpt><trkpt lat="42.103749998785545" lon="12.364972368005771"><ele>268.0</ele><time>2026-04-30T16:38:31.999Z</time></trkpt><trkpt lat="42.10393902437412" lon="12.364868098044484"><ele>265.3333333333333</ele><time>2026-04-30T16:38:32.999Z</time></trkpt><trkpt lat="42.10412518320037" lon="12.364763138953816"><ele>262.6666666666667</ele><time>2026-04-30T16:38:33.999Z</time></trkpt><trkpt lat="42.104306621204444" lon="12.364652370160009"><ele>260.0</ele><time>2026-04-30T16:38:34.999Z</time></trkpt><trkpt lat="42.10448764732558" lon="12.364543508053385"><ele>260.0</ele><time>2026-04-30T16:38:35.999Z</time></trkpt><trkpt lat="42.10467174886005" lon="12.364431631653723"><ele>260.0</ele><time>2026-04-30T16:38:36.999Z</time></trkpt><trkpt lat="42.104865393990174" lon="12.364321238920557"><ele>260.0</ele><time>2026-04-30T16:38:37.999Z</time></trkpt><trkpt lat="42.105062791435245" lon="12.364209591365103"><ele>258.33333333333337</ele><time>2026-04-30T16:38:38.999Z</time></trkpt><trkpt lat="42.10526499328337" lon="12.364105105262983"><ele>256.6666666666667</ele><time>2026-04-30T16:38:39.999Z</time></trkpt><trkpt lat="42.105469074403786" lon="12.364002472194764"><ele>255.0</ele><time>2026-04-30T16:38:40.999Z</time></trkpt><trkpt lat="42.10568290980197" lon="12.36390947292846"><ele>253.66666666666669</ele><time>2026-04-30T16:38:41.999Z</time></trkpt><trkpt lat="42.105899916784516" lon="12.363833485989266"><ele>252.33333333333334</ele><time>2026-04-30T16:38:42.999Z</time></trkpt><trkpt lat="42.10611609429812" lon="12.36377900924711"><ele>251.0</ele><time>2026-04-30T16:38:43.999Z</time></trkpt><trkpt lat="42.106338871508896" lon="12.36373705576862"><ele>251.0</ele><time>2026-04-30T16:38:44.999Z</time></trkpt><trkpt lat="42.10656725267166" lon="12.363702286720162"><ele>251.0</ele><time>2026-04-30T16:38:45.999Z</time></trkpt><trkpt lat="42.10679932848993" lon="12.363678821508294"><ele>249.0</ele><time>2026-04-30T16:38:46.999Z</time></trkpt><trkpt lat="42.10703649087666" lon="12.36367364893932"><ele>247.0</ele><time>2026-04-30T16:38:47.999Z</time></trkpt><trkpt lat="42.107276632242424" lon="12.363678532888423"><ele>244.5</ele><time>2026-04-30T16:38:48.999Z</time></trkpt><trkpt lat="42.10752018123311" lon="12.363683399382296"><ele>242.0</ele><time>2026-04-30T16:38:49.999Z</time></trkpt><trkpt lat="42.107769908831955" lon="12.363691665677619"><ele>242.0</ele><time>2026-04-30T16:38:50.998Z</time></trkpt><trkpt lat="42.10802590720409" lon="12.363704065220082"><ele>242.0</ele><time>2026-04-30T16:38:51.998Z</time></trkpt><trkpt lat="42.10828708626913" lon="12.36370974984886"><ele>240.5</ele><time>2026-04-30T16:38:52.998Z</time></trkpt><trkpt lat="42.1085520917702" lon="12.363721347940448"><ele>239.0</ele><time>2026-04-30T16:38:53.998Z</time></trkpt><trkpt lat="42.108819130106404" lon="12.363732183185311"><ele>237.0</ele><time>2026-04-30T16:38:54.998Z</time></trkpt><trkpt lat="42.10908753291661" lon="12.36373788695473"><ele>235.0</ele><time>2026-04-30T16:38:55.998Z</time></trkpt><trkpt lat="42.109355801723034" lon="12.363745074266829"><ele>235.0</ele><time>2026-04-30T16:38:56.998Z</time></trkpt><trkpt lat="42.109626581896606" lon="12.363750468277745"><ele>235.0</ele><time>2026-04-30T16:38:57.998Z</time></trkpt><trkpt lat="42.10990011060614" lon="12.363751388094569"><ele>233.5</ele><time>2026-04-30T16:38:58.998Z</time></trkpt><trkpt lat="42.11017351541788" lon="12.363754328201024"><ele>232.0</ele><time>2026-04-30T16:38:59.998Z</time></trkpt><trkpt lat="42.1104497456261" lon="12.363761534480881"><ele>232.0</ele><time>2026-04-30T16:39:00.999Z</time></trkpt><trkpt lat="42.11072579938782" lon="12.36376961880547"><ele>232.0</ele><time>2026-04-30T16:39:01.999Z</time></trkpt><trkpt lat="42.11099951260705" lon="12.36377888219186"><ele>229.0</ele><time>2026-04-30T16:39:02.999Z</time></trkpt><trkpt lat="42.111268890475216" lon="12.363785948833632"><ele>226.0</ele><time>2026-04-30T16:39:03.999Z</time></trkpt><trkpt lat="42.111531704756764" lon="12.363792343317838"><ele>223.5</ele><time>2026-04-30T16:39:04.999Z</time></trkpt><trkpt lat="42.11179340819499" lon="12.363797544967596"><ele>221.0</ele><time>2026-04-30T16:39:05.999Z</time></trkpt><trkpt lat="42.112052559265436" lon="12.363804879076799"><ele>221.0</ele><time>2026-04-30T16:39:06.999Z</time></trkpt><trkpt lat="42.112311664722256" lon="12.363811774352829"><ele>221.0</ele><time>2026-04-30T16:39:07.999Z</time></trkpt><trkpt lat="42.112569087472345" lon="12.36381714929191"><ele>220.0</ele><time>2026-04-30T16:39:08.999Z</time></trkpt><trkpt lat="42.1128235495798" lon="12.36382226668011"><ele>219.0</ele><time>2026-04-30T16:39:09.999Z</time></trkpt><trkpt lat="42.11307586706474" lon="12.36382723369786"><ele>218.0</ele><time>2026-04-30T16:39:10.999Z</time></trkpt><trkpt lat="42.11332630188207" lon="12.363831939836842"><ele>217.0</ele><time>2026-04-30T16:39:11.999Z</time></trkpt><trkpt lat="42.113575203379355" lon="12.363834263970713"><ele>217.0</ele><time>2026-04-30T16:39:12.999Z</time></trkpt><trkpt lat="42.11382167153695" lon="12.363836874286886"><ele>217.0</ele><time>2026-04-30T16:39:13.999Z</time></trkpt><trkpt lat="42.114068548629405" lon="12.363840515637435"><ele>215.5</ele><time>2026-04-30T16:39:14.999Z</time></trkpt><trkpt lat="42.1143176861151" lon="12.36384459977635"><ele>214.0</ele><time>2026-04-30T16:39:15.999Z</time></trkpt><trkpt lat="42.11456737055636" lon="12.363849939598051"><ele>214.0</ele><time>2026-04-30T16:39:16.999Z</time></trkpt><trkpt lat="42.114818129524984" lon="12.363857836313054"><ele>214.0</ele><time>2026-04-30T16:39:17.999Z</time></trkpt><trkpt lat="42.11506731971034" lon="12.363864956290152"><ele>214.0</ele><time>2026-04-30T16:39:18.999Z</time></trkpt><trkpt lat="42.11531604664701" lon="12.363871145645962"><ele>214.0</ele><time>2026-04-30T16:39:19.999Z</time></trkpt><trkpt lat="42.11556539523539" lon="12.363875679889574"><ele>213.5</ele><time>2026-04-30T16:39:20.999Z</time></trkpt><trkpt lat="42.115816044172966" lon="12.36388240037432"><ele>213.0</ele><time>2026-04-30T16:39:21.999Z</time></trkpt><trkpt lat="42.11606768731945" lon="12.363887423359799"><ele>213.0</ele><time>2026-04-30T16:39:22.999Z</time></trkpt><trkpt lat="42.11631925826646" lon="12.363891027439596"><ele>213.0</ele><time>2026-04-30T16:39:23.999Z</time></trkpt><trkpt lat="42.11657113438518" lon="12.363894740046863"><ele>212.5</ele><time>2026-04-30T16:39:24.999Z</time></trkpt><trkpt lat="42.11681966142742" lon="12.363899896999945"><ele>212.0</ele><time>2026-04-30T16:39:25.999Z</time></trkpt><trkpt lat="42.1170659833106" lon="12.363905630035415"><ele>212.0</ele><time>2026-04-30T16:39:26.999Z</time></trkpt><trkpt lat="42.11730990510107" lon="12.363909523227177"><ele>212.0</ele><time>2026-04-30T16:39:27.999Z</time></trkpt><trkpt lat="42.11755513092887" lon="12.363915981331667"><ele>212.5</ele><time>2026-04-30T16:39:28.999Z</time></trkpt><trkpt lat="42.11780137487306" lon="12.363923185808773"><ele>213.0</ele><time>2026-04-30T16:39:29.999Z</time></trkpt><trkpt lat="42.118050730025445" lon="12.363930172805455"><ele>213.5</ele><time>2026-04-30T16:39:30.999Z</time></trkpt><trkpt lat="42.11829939714062" lon="12.363935699227778"><ele>214.0</ele><time>2026-04-30T16:39:31.999Z</time></trkpt><trkpt lat="42.11854749263904" lon="12.363941052632887"><ele>214.0</ele><time>2026-04-30T16:39:32.999Z</time></trkpt><trkpt lat="42.11879740187474" lon="12.363948378761012"><ele>214.0</ele><time>2026-04-30T16:39:33.999Z</time></trkpt><trkpt lat="42.11904951217958" lon="12.363957615314062"><ele>214.0</ele><time>2026-04-30T16:39:34.999Z</time></trkpt><trkpt lat="42.11930231111676" lon="12.363966205110254"><ele>214.0</ele><time>2026-04-30T16:39:35.999Z</time></trkpt><trkpt lat="42.11955818003853" lon="12.363974301880585"><ele>214.0</ele><time>2026-04-30T16:39:36.999Z</time></trkpt><trkpt lat="42.119818380820846" lon="12.363984552107917"><ele>214.0</ele><time>2026-04-30T16:39:37.999Z</time></trkpt><trkpt lat="42.12007954260821" lon="12.363994717743997"><ele>216.0</ele><time>2026-04-30T16:39:38.999Z</time></trkpt><trkpt lat="42.12034327622271" lon="12.364003088426745"><ele>218.0</ele><time>2026-04-30T16:39:39.999Z</time></trkpt><trkpt lat="42.1206086167488" lon="12.364011267794943"><ele>217.5</ele><time>2026-04-30T16:39:40.999Z</time></trkpt><trkpt lat="42.12087960646823" lon="12.364020595704664"><ele>217.0</ele><time>2026-04-30T16:39:41.999Z</time></trkpt><trkpt lat="42.12114776891178" lon="12.364027964385336"><ele>217.0</ele><time>2026-04-30T16:39:42.999Z</time></trkpt><trkpt lat="42.12141607531749" lon="12.364029023959725"><ele>217.0</ele><time>2026-04-30T16:39:43.999Z</time></trkpt><trkpt lat="42.12168558302243" lon="12.364017860994654"><ele>218.5</ele><time>2026-04-30T16:39:44.999Z</time></trkpt><trkpt lat="42.12195379956332" lon="12.36399086356403"><ele>220.0</ele><time>2026-04-30T16:39:45.999Z</time></trkpt><trkpt lat="42.122221105175406" lon="12.363951733372323"><ele>220.0</ele><time>2026-04-30T16:39:46.999Z</time></trkpt><trkpt lat="42.12248659026473" lon="12.363901584222686"><ele>220.0</ele><time>2026-04-30T16:39:47.999Z</time></trkpt><trkpt lat="42.12275111347097" lon="12.363837523622195"><ele>220.0</ele><time>2026-04-30T16:39:48.999Z</time></trkpt><trkpt lat="42.123008085914805" lon="12.363758738990851"><ele>220.0</ele><time>2026-04-30T16:39:49.999Z</time></trkpt><trkpt lat="42.12326483328877" lon="12.363666940353323"><ele>221.5</ele><time>2026-04-30T16:39:50.999Z</time></trkpt><trkpt lat="42.12351977245728" lon="12.36356367544749"><ele>223.0</ele><time>2026-04-30T16:39:51.999Z</time></trkpt><trkpt lat="42.12376361640264" lon="12.363452758135109"><ele>223.0</ele><time>2026-04-30T16:39:52.999Z</time></trkpt><trkpt lat="42.124005404491804" lon="12.363335192671"><ele>223.0</ele><time>2026-04-30T16:39:53.999Z</time></trkpt><trkpt lat="42.12424708065764" lon="12.363206228129949"><ele>224.0</ele><time>2026-04-30T16:39:54.999Z</time></trkpt><trkpt lat="42.124490083101826" lon="12.363078822969113"><ele>225.0</ele><time>2026-04-30T16:39:55.999Z</time></trkpt><trkpt lat="42.12473758212076" lon="12.362956943830744"><ele>226.0</ele><time>2026-04-30T16:39:56.999Z</time></trkpt><trkpt lat="42.124983376675154" lon="12.362832213915443"><ele>227.0</ele><time>2026-04-30T16:39:57.999Z</time></trkpt><trkpt lat="42.12522810819045" lon="12.362704689354858"><ele>227.0</ele><time>2026-04-30T16:39:58.999Z</time></trkpt><trkpt lat="42.12547388944102" lon="12.362578565420321"><ele>227.0</ele><time>2026-04-30T16:39:59.999Z</time></trkpt><trkpt lat="42.12572162608726" lon="12.362452880752594"><ele>227.5</ele><time>2026-04-30T16:40:00.999Z</time></trkpt><trkpt lat="42.12597021730172" lon="12.36232699537688"><ele>228.0</ele><time>2026-04-30T16:40:01.999Z</time></trkpt><trkpt lat="42.126217954617246" lon="12.3622008426485"><ele>228.5</ele><time>2026-04-30T16:40:02.999Z</time></trkpt><trkpt lat="42.126464504883906" lon="12.362071868009789"><ele>229.0</ele><time>2026-04-30T16:40:03.999Z</time></trkpt><trkpt lat="42.12670629715621" lon="12.361931242538933"><ele>229.0</ele><time>2026-04-30T16:40:04.999Z</time></trkpt><trkpt lat="42.12694419139716" lon="12.36177057593789"><ele>229.0</ele><time>2026-04-30T16:40:05.999Z</time></trkpt><trkpt lat="42.127172651009175" lon="12.361594114778987"><ele>230.0</ele><time>2026-04-30T16:40:06.999Z</time></trkpt><trkpt lat="42.127395595023955" lon="12.361406953331116"><ele>231.0</ele><time>2026-04-30T16:40:07.999Z</time></trkpt><trkpt lat="42.127607159364366" lon="12.361201584448061"><ele>229.0</ele><time>2026-04-30T16:40:08.999Z</time></trkpt><trkpt lat="42.12780501847902" lon="12.360978887998787"><ele>227.0</ele><time>2026-04-30T16:40:09.999Z</time></trkpt><trkpt lat="42.12798760359162" lon="12.360741925800752"><ele>225.5</ele><time>2026-04-30T16:40:10.999Z</time></trkpt><trkpt lat="42.1281636194634" lon="12.360495724340009"><ele>224.0</ele><time>2026-04-30T16:40:11.999Z</time></trkpt><trkpt lat="42.12832785537221" lon="12.360239828937459"><ele>227.5</ele><time>2026-04-30T16:40:12.999Z</time></trkpt><trkpt lat="42.12848500563809" lon="12.359973528367824"><ele>231.0</ele><time>2026-04-30T16:40:13.999Z</time></trkpt><trkpt lat="42.12863262569083" lon="12.359702935564004"><ele>230.5</ele><time>2026-04-30T16:40:14.999Z</time></trkpt><trkpt lat="42.12878306133889" lon="12.359432033440115"><ele>230.0</ele><time>2026-04-30T16:40:15.999Z</time></trkpt><trkpt lat="42.12893214190489" lon="12.359166263636988"><ele>232.0</ele><time>2026-04-30T16:40:16.999Z</time></trkpt><trkpt lat="42.12908619716136" lon="12.358901024673848"><ele>234.0</ele><time>2026-04-30T16:40:17.999Z</time></trkpt><trkpt lat="42.12924750634101" lon="12.358647919811261"><ele>234.0</ele><time>2026-04-30T16:40:18.999Z</time></trkpt><trkpt lat="42.129419802967526" lon="12.35840377134255"><ele>234.0</ele><time>2026-04-30T16:40:19.999Z</time></trkpt><trkpt lat="42.12959919939643" lon="12.358173870038703"><ele>233.0</ele><time>2026-04-30T16:40:20.999Z</time></trkpt><trkpt lat="42.12978481161555" lon="12.357950042501074"><ele>232.0</ele><time>2026-04-30T16:40:21.999Z</time></trkpt><trkpt lat="42.12998046619083" lon="12.357741668117283"><ele>235.5</ele><time>2026-04-30T16:40:22.999Z</time></trkpt><trkpt lat="42.13018383997809" lon="12.35755433798865"><ele>239.0</ele><time>2026-04-30T16:40:23.999Z</time></trkpt><trkpt lat="42.13039324298893" lon="12.35738066049762"><ele>239.0</ele><time>2026-04-30T16:40:24.999Z</time></trkpt><trkpt lat="42.13060742741152" lon="12.35721245028884"><ele>239.0</ele><time>2026-04-30T16:40:25.999Z</time></trkpt><trkpt lat="42.130825369172896" lon="12.357043225767226"><ele>241.0</ele><time>2026-04-30T16:40:26.999Z</time></trkpt><trkpt lat="42.13104473828909" lon="12.356871005717927"><ele>243.0</ele><time>2026-04-30T16:40:27.999Z</time></trkpt><trkpt lat="42.13126588615706" lon="12.356696521832376"><ele>243.0</ele><time>2026-04-30T16:40:28.999Z</time></trkpt><trkpt lat="42.131492370718064" lon="12.356522921818073"><ele>243.0</ele><time>2026-04-30T16:40:29.999Z</time></trkpt><trkpt lat="42.13171996733378" lon="12.356348125042231"><ele>247.0</ele><time>2026-04-30T16:40:30.999Z</time></trkpt><trkpt lat="42.13194846452753" lon="12.356166633597386"><ele>251.0</ele><time>2026-04-30T16:40:31.999Z</time></trkpt><trkpt lat="42.132175612962776" lon="12.355981125756976"><ele>254.0</ele><time>2026-04-30T16:40:32.999Z</time></trkpt><trkpt lat="42.13240461830099" lon="12.35579467952125"><ele>257.0</ele><time>2026-04-30T16:40:33.999Z</time></trkpt><trkpt lat="42.13263552760899" lon="12.355610943173332"><ele>259.5</ele><time>2026-04-30T16:40:34.999Z</time></trkpt><trkpt lat="42.13287022130601" lon="12.355430002242292"><ele>262.0</ele><time>2026-04-30T16:40:35.999Z</time></trkpt><trkpt lat="42.133103606489726" lon="12.355253497791857"><ele>263.5</ele><time>2026-04-30T16:40:36.999Z</time></trkpt><trkpt lat="42.13333297121404" lon="12.355077319909347"><ele>265.0</ele><time>2026-04-30T16:40:37.999Z</time></trkpt><trkpt lat="42.13356196426148" lon="12.354902229103478"><ele>265.0</ele><time>2026-04-30T16:40:38.999Z</time></trkpt><trkpt lat="42.133788864067206" lon="12.354725961975326"><ele>265.0</ele><time>2026-04-30T16:40:39.999Z</time></trkpt><trkpt lat="42.13401568311674" lon="12.354549468564098"><ele>267.5</ele><time>2026-04-30T16:40:40.998Z</time></trkpt><trkpt lat="42.13424064325804" lon="12.35437206351386"><ele>270.0</ele><time>2026-04-30T16:40:41.998Z</time></trkpt><trkpt lat="42.13446528020299" lon="12.354195115115632"><ele>270.0</ele><time>2026-04-30T16:40:42.998Z</time></trkpt><trkpt lat="42.13469345756061" lon="12.354026183120983"><ele>270.0</ele><time>2026-04-30T16:40:43.998Z</time></trkpt><trkpt lat="42.134924006088234" lon="12.353864854111496"><ele>276.0</ele><time>2026-04-30T16:40:44.998Z</time></trkpt><trkpt lat="42.13515625190206" lon="12.353702543100948"><ele>282.0</ele><time>2026-04-30T16:40:45.998Z</time></trkpt><trkpt lat="42.13538567765431" lon="12.353532836117465"><ele>282.0</ele><time>2026-04-30T16:40:46.998Z</time></trkpt><trkpt lat="42.13561215417788" lon="12.353356851637434"><ele>282.0</ele><time>2026-04-30T16:40:47.998Z</time></trkpt><trkpt lat="42.13583767919232" lon="12.353180796677744"><ele>282.0</ele><time>2026-04-30T16:40:48.998Z</time></trkpt><trkpt lat="42.13606502293282" lon="12.353009360589514"><ele>282.0</ele><time>2026-04-30T16:40:49.998Z</time></trkpt><trkpt lat="42.136296469811285" lon="12.35284971385572"><ele>282.0</ele><time>2026-04-30T16:40:50.998Z</time></trkpt><trkpt lat="42.136537560851586" lon="12.352709596814393"><ele>282.0</ele><time>2026-04-30T16:40:51.998Z</time></trkpt><trkpt lat="42.136785164304094" lon="12.352595774063893"><ele>279.5</ele><time>2026-04-30T16:40:52.998Z</time></trkpt><trkpt lat="42.13704198681362" lon="12.35250552148443"><ele>277.0</ele><time>2026-04-30T16:40:53.998Z</time></trkpt><trkpt lat="42.137306008546744" lon="12.352427336557218"><ele>272.0</ele><time>2026-04-30T16:40:54.998Z</time></trkpt><trkpt lat="42.1375736435271" lon="12.352356950178288"><ele>267.0</ele><time>2026-04-30T16:40:55.998Z</time></trkpt><trkpt lat="42.137844751310034" lon="12.352285549065092"><ele>267.0</ele><time>2026-04-30T16:40:56.998Z</time></trkpt><trkpt lat="42.13811957884641" lon="12.352207988107747"><ele>267.0</ele><time>2026-04-30T16:40:57.998Z</time></trkpt><trkpt lat="42.138405098602775" lon="12.352121628758294"><ele>262.0</ele><time>2026-04-30T16:40:58.998Z</time></trkpt><trkpt lat="42.138696975716954" lon="12.352042821526029"><ele>257.0</ele><time>2026-04-30T16:40:59.998Z</time></trkpt><trkpt lat="42.13899231328272" lon="12.351960813120199"><ele>253.0</ele><time>2026-04-30T16:41:00.998Z</time></trkpt><trkpt lat="42.13929132431098" lon="12.351881424663388"><ele>249.0</ele><time>2026-04-30T16:41:01.998Z</time></trkpt><trkpt lat="42.13958658780739" lon="12.351806809344758"><ele>249.0</ele><time>2026-04-30T16:41:02.998Z</time></trkpt><trkpt lat="42.139874379010024" lon="12.35173462934247"><ele>249.0</ele><time>2026-04-30T16:41:03.998Z</time></trkpt><trkpt lat="42.14015627424971" lon="12.351664183298615"><ele>247.0</ele><time>2026-04-30T16:41:04.998Z</time></trkpt><trkpt lat="42.14043284408452" lon="12.351596361933765"><ele>245.0</ele><time>2026-04-30T16:41:05.998Z</time></trkpt><trkpt lat="42.1407103143324" lon="12.351529243731559"><ele>244.5</ele><time>2026-04-30T16:41:06.999Z</time></trkpt><trkpt lat="42.14099216938749" lon="12.351457578625379"><ele>244.0</ele><time>2026-04-30T16:41:07.999Z</time></trkpt><trkpt lat="42.14127683898113" lon="12.351384975559256"><ele>239.5</ele><time>2026-04-30T16:41:08.999Z</time></trkpt><trkpt lat="42.14156268176826" lon="12.351310888647133"><ele>235.0</ele><time>2026-04-30T16:41:09.999Z</time></trkpt><trkpt lat="42.14185103027934" lon="12.351236947028358"><ele>235.0</ele><time>2026-04-30T16:41:10.999Z</time></trkpt><trkpt lat="42.142146278480226" lon="12.351159523494049"><ele>235.0</ele><time>2026-04-30T16:41:11.999Z</time></trkpt><trkpt lat="42.142453722950144" lon="12.35108065324896"><ele>234.0</ele><time>2026-04-30T16:41:12.999Z</time></trkpt><trkpt lat="42.14276851093525" lon="12.35100041753144"><ele>233.0</ele><time>2026-04-30T16:41:13.999Z</time></trkpt><trkpt lat="42.14308653155923" lon="12.350921696967642"><ele>230.0</ele><time>2026-04-30T16:41:14.999Z</time></trkpt><trkpt lat="42.143405219448034" lon="12.350838833631038"><ele>227.0</ele><time>2026-04-30T16:41:15.999Z</time></trkpt><trkpt lat="42.14372615691484" lon="12.350758546284075"><ele>227.0</ele><time>2026-04-30T16:41:16.999Z</time></trkpt><trkpt lat="42.14404544112575" lon="12.350678564876821"><ele>227.0</ele><time>2026-04-30T16:41:17.999Z</time></trkpt><trkpt lat="42.144359966440334" lon="12.350596061134778"><ele>225.5</ele><time>2026-04-30T16:41:18.999Z</time></trkpt><trkpt lat="42.144675432178985" lon="12.350514633628137"><ele>224.0</ele><time>2026-04-30T16:41:19.999Z</time></trkpt><trkpt lat="42.14498861975149" lon="12.350434939717658"><ele>222.5</ele><time>2026-04-30T16:41:20.999Z</time></trkpt><trkpt lat="42.14529252153171" lon="12.350359519835632"><ele>221.0</ele><time>2026-04-30T16:41:21.999Z</time></trkpt><trkpt lat="42.1455876977004" lon="12.3502885506211"><ele>220.5</ele><time>2026-04-30T16:41:22.999Z</time></trkpt><trkpt lat="42.14587037820147" lon="12.350220271796363"><ele>220.0</ele><time>2026-04-30T16:41:23.999Z</time></trkpt><trkpt lat="42.14613986136716" lon="12.350153365247236"><ele>220.0</ele><time>2026-04-30T16:41:24.999Z</time></trkpt><trkpt lat="42.146409805513294" lon="12.350089465857296"><ele>220.0</ele><time>2026-04-30T16:41:25.999Z</time></trkpt><trkpt lat="42.146681555016194" lon="12.350022315327283"><ele>219.0</ele><time>2026-04-30T16:41:26.999Z</time></trkpt><trkpt lat="42.14695403356937" lon="12.34995468084211"><ele>218.0</ele><time>2026-04-30T16:41:27.999Z</time></trkpt><trkpt lat="42.147225612887965" lon="12.349885668207097"><ele>216.5</ele><time>2026-04-30T16:41:28.999Z</time></trkpt><trkpt lat="42.14749838887045" lon="12.349818307528814"><ele>215.0</ele><time>2026-04-30T16:41:29.999Z</time></trkpt><trkpt lat="42.147771756771995" lon="12.3497507075768"><ele>214.5</ele><time>2026-04-30T16:41:30.999Z</time></trkpt><trkpt lat="42.14804448321934" lon="12.34968524259007"><ele>214.0</ele><time>2026-04-30T16:41:31.999Z</time></trkpt><trkpt lat="42.14831663352233" lon="12.349615752536135"><ele>214.0</ele><time>2026-04-30T16:41:32.999Z</time></trkpt><trkpt lat="42.148582107675935" lon="12.349544366626981"><ele>214.0</ele><time>2026-04-30T16:41:33.999Z</time></trkpt><trkpt lat="42.14885128418726" lon="12.349474330173102"><ele>212.0</ele><time>2026-04-30T16:41:34.999Z</time></trkpt><trkpt lat="42.1491215997937" lon="12.349405061757631"><ele>210.0</ele><time>2026-04-30T16:41:35.999Z</time></trkpt><trkpt lat="42.14939074304121" lon="12.349331323208244"><ele>210.0</ele><time>2026-04-30T16:41:36.999Z</time></trkpt><trkpt lat="42.14965801409127" lon="12.349247519631145"><ele>210.0</ele><time>2026-04-30T16:41:37.999Z</time></trkpt><trkpt lat="42.14992158045182" lon="12.349141687976088"><ele>209.5</ele><time>2026-04-30T16:41:38.999Z</time></trkpt><trkpt lat="42.15017811162527" lon="12.349024355241333"><ele>209.0</ele><time>2026-04-30T16:41:39.999Z</time></trkpt><trkpt lat="42.150434471681486" lon="12.348901400652881"><ele>209.0</ele><time>2026-04-30T16:41:40.999Z</time></trkpt><trkpt lat="42.150685237149276" lon="12.34876862556647"><ele>209.0</ele><time>2026-04-30T16:41:41.999Z</time></trkpt><trkpt lat="42.150936107146755" lon="12.348628906255767"><ele>207.5</ele><time>2026-04-30T16:41:42.999Z</time></trkpt><trkpt lat="42.15118191488861" lon="12.348478360504632"><ele>206.0</ele><time>2026-04-30T16:41:43.999Z</time></trkpt><trkpt lat="42.151427632305" lon="12.348316573577492"><ele>205.0</ele><time>2026-04-30T16:41:44.999Z</time></trkpt><trkpt lat="42.15166931711567" lon="12.34814928889812"><ele>204.0</ele><time>2026-04-30T16:41:45.999Z</time></trkpt><trkpt lat="42.15190972015295" lon="12.347973402939367"><ele>204.0</ele><time>2026-04-30T16:41:46.999Z</time></trkpt><trkpt lat="42.152143989628364" lon="12.34779041474967"><ele>204.0</ele><time>2026-04-30T16:41:47.999Z</time></trkpt><trkpt lat="42.15237623385941" lon="12.347596738671134"><ele>203.5</ele><time>2026-04-30T16:41:48.999Z</time></trkpt><trkpt lat="42.15260570179336" lon="12.347398763744774"><ele>203.0</ele><time>2026-04-30T16:41:49.999Z</time></trkpt><trkpt lat="42.15283207486566" lon="12.347192031453037"><ele>203.0</ele><time>2026-04-30T16:41:50.999Z</time></trkpt><trkpt lat="42.153052963888875" lon="12.346972570698167"><ele>203.0</ele><time>2026-04-30T16:41:51.999Z</time></trkpt><trkpt lat="42.153256299793966" lon="12.346732368009231"><ele>201.0</ele><time>2026-04-30T16:41:52.999Z</time></trkpt><trkpt lat="42.153458725528694" lon="12.34649242009204"><ele>199.0</ele><time>2026-04-30T16:41:53.999Z</time></trkpt><trkpt lat="42.15366298731063" lon="12.346246587068737"><ele>198.5</ele><time>2026-04-30T16:41:54.999Z</time></trkpt><trkpt lat="42.15386276695651" lon="12.346003923369423"><ele>198.0</ele><time>2026-04-30T16:41:55.999Z</time></trkpt><trkpt lat="42.154062403443874" lon="12.345766780599536"><ele>199.0</ele><time>2026-04-30T16:41:56.999Z</time></trkpt><trkpt lat="42.1542569782198" lon="12.345531707489624"><ele>200.0</ele><time>2026-04-30T16:41:57.999Z</time></trkpt><trkpt lat="42.15445331597624" lon="12.345299020299722"><ele>200.0</ele><time>2026-04-30T16:41:58.999Z</time></trkpt><trkpt lat="42.15464660047385" lon="12.345064179575928"><ele>200.0</ele><time>2026-04-30T16:41:59.999Z</time></trkpt><trkpt lat="42.15483738939983" lon="12.34483183102191"><ele>198.0</ele><time>2026-04-30T16:42:00.999Z</time></trkpt><trkpt lat="42.15502675142058" lon="12.344599608454322"><ele>196.0</ele><time>2026-04-30T16:42:01.999Z</time></trkpt><trkpt lat="42.15522069836" lon="12.344364558885527"><ele>196.0</ele><time>2026-04-30T16:42:02.999Z</time></trkpt><trkpt lat="42.155417898209116" lon="12.344124758653333"><ele>196.0</ele><time>2026-04-30T16:42:03.999Z</time></trkpt><trkpt lat="42.155619626854744" lon="12.343878069150817"><ele>197.5</ele><time>2026-04-30T16:42:04.999Z</time></trkpt><trkpt lat="42.15582596778659" lon="12.343621424535806"><ele>199.0</ele><time>2026-04-30T16:42:05.999Z</time></trkpt><trkpt lat="42.15603213629226" lon="12.343363249574688"><ele>199.0</ele><time>2026-04-30T16:42:06.999Z</time></trkpt><trkpt lat="42.156244762215294" lon="12.343112865688505"><ele>199.0</ele><time>2026-04-30T16:42:07.999Z</time></trkpt><trkpt lat="42.156457968529516" lon="12.34287365657185"><ele>200.5</ele><time>2026-04-30T16:42:08.999Z</time></trkpt><trkpt lat="42.156667821639516" lon="12.34263661767898"><ele>202.0</ele><time>2026-04-30T16:42:09.999Z</time></trkpt><trkpt lat="42.1568572507981" lon="12.342377945865994"><ele>204.0</ele><time>2026-04-30T16:42:10.999Z</time></trkpt><trkpt lat="42.15705705656269" lon="12.342138315379275"><ele>206.0</ele><time>2026-04-30T16:42:11.999Z</time></trkpt><trkpt lat="42.15725567756084" lon="12.341924026090686"><ele>206.0</ele><time>2026-04-30T16:42:12.999Z</time></trkpt><trkpt lat="42.15743516920486" lon="12.341704566608227"><ele>206.0</ele><time>2026-04-30T16:42:13.999Z</time></trkpt><trkpt lat="42.157600137948286" lon="12.34151285020512"><ele>206.33333333333334</ele><time>2026-04-30T16:42:14.999Z</time></trkpt><trkpt lat="42.15773920689146" lon="12.34131670120397"><ele>206.66666666666669</ele><time>2026-04-30T16:42:15.999Z</time></trkpt><trkpt lat="42.15788288180616" lon="12.34115722823307"><ele>207.0</ele><time>2026-04-30T16:42:16.999Z</time></trkpt><trkpt lat="42.1580241029747" lon="12.341007264769484"><ele>207.0</ele><time>2026-04-30T16:42:17.999Z</time></trkpt><trkpt lat="42.15818786751693" lon="12.3408951770638"><ele>207.0</ele><time>2026-04-30T16:42:18.999Z</time></trkpt><trkpt lat="42.15832997548203" lon="12.340778731928273"><ele>207.0</ele><time>2026-04-30T16:42:19.999Z</time></trkpt><trkpt lat="42.15847322094663" lon="12.340663717128184"><ele>206.66666666666669</ele><time>2026-04-30T16:42:20.999Z</time></trkpt><trkpt lat="42.15861791598528" lon="12.340558559146842"><ele>206.33333333333334</ele><time>2026-04-30T16:42:21.999Z</time></trkpt><trkpt lat="42.15876114641106" lon="12.34045565841138"><ele>206.0</ele><time>2026-04-30T16:42:22.999Z</time></trkpt><trkpt lat="42.158903932453754" lon="12.340353800564388"><ele>207.33333333333334</ele><time>2026-04-30T16:42:23.999Z</time></trkpt><trkpt lat="42.15904469845276" lon="12.340257198860408"><ele>208.66666666666669</ele><time>2026-04-30T16:42:24.999Z</time></trkpt><trkpt lat="42.159180533374595" lon="12.340160174833825"><ele>210.0</ele><time>2026-04-30T16:42:25.999Z</time></trkpt><trkpt lat="42.159313062303546" lon="12.34006073232039"><ele>210.0</ele><time>2026-04-30T16:42:26.999Z</time></trkpt><trkpt lat="42.159441242574694" lon="12.339960510219328"><ele>210.0</ele><time>2026-04-30T16:42:27.999Z</time></trkpt><trkpt lat="42.159561066382054" lon="12.33986400532568"><ele>210.0</ele><time>2026-04-30T16:42:28.999Z</time></trkpt><trkpt lat="42.159660929628444" lon="12.339786437219798"><ele>210.0</ele><time>2026-04-30T16:42:29.999Z</time></trkpt><trkpt lat="42.15974432948788" lon="12.339722565727376"><ele>210.25</ele><time>2026-04-30T16:42:30.999Z</time></trkpt><trkpt lat="42.159813767457294" lon="12.3396749478864"><ele>210.5</ele><time>2026-04-30T16:42:31.999Z</time></trkpt><trkpt lat="42.15988667414672" lon="12.33961397323563"><ele>210.75</ele><time>2026-04-30T16:42:33.999Z</time></trkpt><trkpt lat="42.16004199869981" lon="12.339767987036629"><ele>211.0</ele><time>2026-04-30T16:45:09.999Z</time></trkpt><trkpt lat="42.16009424961024" lon="12.339898508825804"><ele>211.4</ele><time>2026-04-30T16:45:11.999Z</time></trkpt><trkpt lat="42.16016166096894" lon="12.340027607583195"><ele>211.8</ele><time>2026-04-30T16:45:13.998Z</time></trkpt><trkpt lat="42.16019825624732" lon="12.340097690820178"><ele>212.20000000000002</ele><time>2026-04-30T16:45:14.998Z</time></trkpt><trkpt lat="42.16029080857504" lon="12.340237012396965"><ele>212.60000000000002</ele><time>2026-04-30T16:45:16.998Z</time></trkpt><trkpt lat="42.16034673458926" lon="12.340383977374634"><ele>213.0</ele><time>2026-04-30T16:45:19Z</time></trkpt><trkpt lat="42.16038979342178" lon="12.340486819323251"><ele>212.83333333333334</ele><time>2026-04-30T16:45:21Z</time></trkpt><trkpt lat="42.16038149543449" lon="12.340605017043254"><ele>212.66666666666669</ele><time>2026-04-30T16:45:25Z</time></trkpt><trkpt lat="42.16031764107952" lon="12.340594081272526"><ele>212.5</ele><time>2026-04-30T16:45:26Z</time></trkpt><trkpt lat="42.16026335451803" lon="12.340658092369118"><ele>212.33333333333334</ele><time>2026-04-30T16:45:28Z</time></trkpt><trkpt lat="42.16021460030115" lon="12.340713792014956"><ele>212.16666666666669</ele><time>2026-04-30T16:45:30Z</time></trkpt><trkpt lat="42.16015036290543" lon="12.340784739963878"><ele>212.0</ele><time>2026-04-30T16:45:32Z</time></trkpt><trkpt lat="42.16007954806001" lon="12.340862603882698"><ele>212.0</ele><time>2026-04-30T16:45:34Z</time></trkpt><trkpt lat="42.16003003236628" lon="12.340917048525624"><ele>212.0</ele><time>2026-04-30T16:45:36Z</time></trkpt><trkpt lat="42.15996908953744" lon="12.34098405779722"><ele>212.0</ele><time>2026-04-30T16:45:38Z</time></trkpt><trkpt lat="42.15992490036202" lon="12.34105441978699"><ele>212.0</ele><time>2026-04-30T16:45:40Z</time></trkpt><trkpt lat="42.15994939987274" lon="12.340953589213045"><ele>212.0</ele><time>2026-04-30T16:45:46Z</time></trkpt><trkpt lat="42.16000941045908" lon="12.340917101169358"><ele>212.0</ele><time>2026-04-30T16:45:47Z</time></trkpt><trkpt lat="42.160084627527006" lon="12.340857018816713"><ele>212.0</ele><time>2026-04-30T16:45:51Z</time></trkpt><trkpt lat="42.160171421072164" lon="12.340774593488504"><ele>212.0</ele><time>2026-04-30T16:45:53Z</time></trkpt><trkpt lat="42.160214806578985" lon="12.34071166342296"><ele>212.0</ele><time>2026-04-30T16:45:54Z</time></trkpt><trkpt lat="42.16025641358489" lon="12.340625590140606"><ele>212.0</ele><time>2026-04-30T16:45:56Z</time></trkpt><trkpt lat="42.160181926813344" lon="12.34044455740355"><ele>212.0</ele><time>2026-04-30T16:45:58Z</time></trkpt><trkpt lat="42.160152831981414" lon="12.340320061921911"><ele>212.0</ele><time>2026-04-30T16:46:00Z</time></trkpt><trkpt lat="42.16009547034134" lon="12.340214685976974"><ele>212.00000000000003</ele><time>2026-04-30T16:46:01.999Z</time></trkpt><trkpt lat="42.16004085798519" lon="12.340113782911668"><ele>212.0</ele><time>2026-04-30T16:46:03.999Z</time></trkpt><trkpt lat="42.160003653017064" lon="12.340020762481975"><ele>212.0</ele><time>2026-04-30T16:46:05.999Z</time></trkpt><trkpt lat="42.15998961344083" lon="12.339925211839526"><ele>212.0</ele><time>2026-04-30T16:46:07.999Z</time></trkpt><trkpt lat="42.1600233803195" lon="12.33984733454586"><ele>212.00000000000003</ele><time>2026-04-30T16:46:11.999Z</time></trkpt><trkpt lat="42.16004295878981" lon="12.339739493589914"><ele>212.0</ele><time>2026-04-30T16:46:19.999Z</time></trkpt><trkpt lat="42.160055151025055" lon="12.339606817779643"><ele>212.0</ele><time>2026-04-30T16:46:21.999Z</time></trkpt><trkpt lat="42.16003696850087" lon="12.339456708216483"><ele>212.0</ele><time>2026-04-30T16:46:22.999Z</time></trkpt><trkpt lat="42.16008916478055" lon="12.339394014946203"><ele>212.0</ele><time>2026-04-30T16:46:23.999Z</time></trkpt><trkpt lat="42.1601506748936" lon="12.339315319624738"><ele>212.0</ele><time>2026-04-30T16:46:24.999Z</time></trkpt><trkpt lat="42.16021497702356" lon="12.339227639517782"><ele>212.0</ele><time>2026-04-30T16:46:25.999Z</time></trkpt><trkpt lat="42.160278346259965" lon="12.33913928714021"><ele>212.0</ele><time>2026-04-30T16:46:26.999Z</time></trkpt><trkpt lat="42.1603618464833" lon="12.33902991444722"><ele>212.0</ele><time>2026-04-30T16:46:27.999Z</time></trkpt><trkpt lat="42.160450049777616" lon="12.33888649853219"><ele>212.0</ele><time>2026-04-30T16:46:28.999Z</time></trkpt><trkpt lat="42.160554643148465" lon="12.338724995322835"><ele>212.0</ele><time>2026-04-30T16:46:29.999Z</time></trkpt><trkpt lat="42.16067710287477" lon="12.338562933225695"><ele>211.0</ele><time>2026-04-30T16:46:30.999Z</time></trkpt><trkpt lat="42.1607943027528" lon="12.338399850727827"><ele>210.0</ele><time>2026-04-30T16:46:31.999Z</time></trkpt><trkpt lat="42.16091582166675" lon="12.338228717612246"><ele>209.0</ele><time>2026-04-30T16:46:32.999Z</time></trkpt><trkpt lat="42.16103740221415" lon="12.338049552530357"><ele>208.0</ele><time>2026-04-30T16:46:33.999Z</time></trkpt><trkpt lat="42.16116776896803" lon="12.337870371654592"><ele>207.0</ele><time>2026-04-30T16:46:34.999Z</time></trkpt><trkpt lat="42.16131475688846" lon="12.337688362683032"><ele>206.0</ele><time>2026-04-30T16:46:35.999Z</time></trkpt><trkpt lat="42.16144688490039" lon="12.337500865382191"><ele>206.0</ele><time>2026-04-30T16:46:36.999Z</time></trkpt><trkpt lat="42.161603030570895" lon="12.337362683744885"><ele>206.0</ele><time>2026-04-30T16:46:37.999Z</time></trkpt><trkpt lat="42.16175513012386" lon="12.337221078016883"><ele>206.0</ele><time>2026-04-30T16:46:38.999Z</time></trkpt><trkpt lat="42.16192583772329" lon="12.337079078521175"><ele>206.33333333333334</ele><time>2026-04-30T16:46:39.999Z</time></trkpt><trkpt lat="42.16210489712407" lon="12.336927989073125"><ele>206.66666666666669</ele><time>2026-04-30T16:46:40.999Z</time></trkpt><trkpt lat="42.16227122296327" lon="12.336775334581066"><ele>207.0</ele><time>2026-04-30T16:46:41.999Z</time></trkpt><trkpt lat="42.16244356343627" lon="12.336622600051957"><ele>207.0</ele><time>2026-04-30T16:46:42.999Z</time></trkpt><trkpt lat="42.16261035613019" lon="12.33647616487682"><ele>207.0</ele><time>2026-04-30T16:46:43.999Z</time></trkpt><trkpt lat="42.16278771837015" lon="12.336326170428183"><ele>207.0</ele><time>2026-04-30T16:46:44.999Z</time></trkpt><trkpt lat="42.1629592701198" lon="12.336185603838885"><ele>207.33333333333331</ele><time>2026-04-30T16:46:45.999Z</time></trkpt><trkpt lat="42.16313090326038" lon="12.33604733961267"><ele>207.66666666666666</ele><time>2026-04-30T16:46:46.999Z</time></trkpt><trkpt lat="42.16330359051173" lon="12.33590331668467"><ele>208.0</ele><time>2026-04-30T16:46:47.999Z</time></trkpt><trkpt lat="42.16348256053032" lon="12.335759247287882"><ele>208.33333333333331</ele><time>2026-04-30T16:46:48.999Z</time></trkpt><trkpt lat="42.163658978570496" lon="12.335625333588652"><ele>208.66666666666669</ele><time>2026-04-30T16:46:49.999Z</time></trkpt><trkpt lat="42.16385120815391" lon="12.335507738548"><ele>209.0</ele><time>2026-04-30T16:46:50.999Z</time></trkpt><trkpt lat="42.16405321286202" lon="12.3354051744016"><ele>209.0</ele><time>2026-04-30T16:46:51.999Z</time></trkpt><trkpt lat="42.16426461461588" lon="12.335310924107304"><ele>209.0</ele><time>2026-04-30T16:46:52.999Z</time></trkpt><trkpt lat="42.16447169863992" lon="12.335221461942997"><ele>209.0</ele><time>2026-04-30T16:46:53.999Z</time></trkpt><trkpt lat="42.1646715916153" lon="12.335154263096882"><ele>209.66666666666669</ele><time>2026-04-30T16:46:54.999Z</time></trkpt><trkpt lat="42.16487322022416" lon="12.335076733370379"><ele>210.33333333333331</ele><time>2026-04-30T16:46:55.999Z</time></trkpt><trkpt lat="42.165083397354984" lon="12.334996420746137"><ele>211.0</ele><time>2026-04-30T16:46:56.999Z</time></trkpt><trkpt lat="42.165286814334216" lon="12.33490911832648"><ele>211.0</ele><time>2026-04-30T16:46:57.999Z</time></trkpt><trkpt lat="42.16550889195536" lon="12.33483381385594"><ele>211.0</ele><time>2026-04-30T16:46:58.999Z</time></trkpt><trkpt lat="42.165736990572604" lon="12.334750539561705"><ele>213.5</ele><time>2026-04-30T16:46:59.999Z</time></trkpt><trkpt lat="42.165969161618726" lon="12.33466779507966"><ele>216.0</ele><time>2026-04-30T16:47:00.999Z</time></trkpt><trkpt lat="42.16620529629085" lon="12.334596461140531"><ele>216.0</ele><time>2026-04-30T16:47:01.999Z</time></trkpt><trkpt lat="42.166433076657" lon="12.334522867868245"><ele>216.0</ele><time>2026-04-30T16:47:02.999Z</time></trkpt><trkpt lat="42.16666331646243" lon="12.334450998042911"><ele>215.5</ele><time>2026-04-30T16:47:03.999Z</time></trkpt><trkpt lat="42.16690113840377" lon="12.334376880961957"><ele>215.0</ele><time>2026-04-30T16:47:04.999Z</time></trkpt><trkpt lat="42.167143112311564" lon="12.33429804440154"><ele>216.0</ele><time>2026-04-30T16:47:05.999Z</time></trkpt><trkpt lat="42.16738062696575" lon="12.334225410423524"><ele>217.0</ele><time>2026-04-30T16:47:06.999Z</time></trkpt><trkpt lat="42.1676172230489" lon="12.33415516488379"><ele>217.0</ele><time>2026-04-30T16:47:07.999Z</time></trkpt><trkpt lat="42.16784836063387" lon="12.334080756670314"><ele>217.0</ele><time>2026-04-30T16:47:08.999Z</time></trkpt><trkpt lat="42.16808130503675" lon="12.33400165340754"><ele>216.5</ele><time>2026-04-30T16:47:09.999Z</time></trkpt><trkpt lat="42.168315064021364" lon="12.333924947232292"><ele>216.0</ele><time>2026-04-30T16:47:10.999Z</time></trkpt><trkpt lat="42.16853752146233" lon="12.333848894022722"><ele>217.5</ele><time>2026-04-30T16:47:11.999Z</time></trkpt><trkpt lat="42.16875913373041" lon="12.333760469899437"><ele>219.0</ele><time>2026-04-30T16:47:12.999Z</time></trkpt><trkpt lat="42.16897934556386" lon="12.333661457554436"><ele>219.0</ele><time>2026-04-30T16:47:13.999Z</time></trkpt><trkpt lat="42.16920911673158" lon="12.333509433757849"><ele>219.0</ele><time>2026-04-30T16:47:14.999Z</time></trkpt><trkpt lat="42.16940659686078" lon="12.333366477132058"><ele>219.0</ele><time>2026-04-30T16:47:15.999Z</time></trkpt><trkpt lat="42.169590042684895" lon="12.333203258425645"><ele>219.0</ele><time>2026-04-30T16:47:16.999Z</time></trkpt><trkpt lat="42.16975779826022" lon="12.333033411149643"><ele>219.0</ele><time>2026-04-30T16:47:17.999Z</time></trkpt><trkpt lat="42.16992001637953" lon="12.33284279727532"><ele>220.66666666666669</ele><time>2026-04-30T16:47:18.999Z</time></trkpt><trkpt lat="42.17008098191689" lon="12.332624758825808"><ele>222.33333333333334</ele><time>2026-04-30T16:47:19.999Z</time></trkpt><trkpt lat="42.17021012534857" lon="12.332426039805538"><ele>224.0</ele><time>2026-04-30T16:47:20.999Z</time></trkpt><trkpt lat="42.170348909397255" lon="12.332202167528619"><ele>224.5</ele><time>2026-04-30T16:47:21.999Z</time></trkpt><trkpt lat="42.17049076536944" lon="12.331969616554183"><ele>225.0</ele><time>2026-04-30T16:47:22.999Z</time></trkpt><trkpt lat="42.17064609703287" lon="12.331718664911593"><ele>227.0</ele><time>2026-04-30T16:47:24Z</time></trkpt><trkpt lat="42.17079099242581" lon="12.331480576243493"><ele>229.0</ele><time>2026-04-30T16:47:25Z</time></trkpt><trkpt lat="42.17093529030345" lon="12.331242363111889"><ele>229.0</ele><time>2026-04-30T16:47:26Z</time></trkpt><trkpt lat="42.17110395416679" lon="12.330963926951918"><ele>229.0</ele><time>2026-04-30T16:47:27Z</time></trkpt><trkpt lat="42.1712783940943" lon="12.33072102451683"><ele>229.5</ele><time>2026-04-30T16:47:28Z</time></trkpt><trkpt lat="42.17142241565441" lon="12.33048767183826"><ele>230.0</ele><time>2026-04-30T16:47:29Z</time></trkpt><trkpt lat="42.171577735087254" lon="12.330240622053953"><ele>234.5</ele><time>2026-04-30T16:47:30Z</time></trkpt><trkpt lat="42.17173287977485" lon="12.329998639879037"><ele>239.0</ele><time>2026-04-30T16:47:31Z</time></trkpt><trkpt lat="42.171883688670086" lon="12.32975295544729"><ele>239.0</ele><time>2026-04-30T16:47:32Z</time></trkpt><trkpt lat="42.17203796603283" lon="12.329509024147738"><ele>239.0</ele><time>2026-04-30T16:47:33Z</time></trkpt><trkpt lat="42.172189209087705" lon="12.329263852588136"><ele>239.0</ele><time>2026-04-30T16:47:34Z</time></trkpt><trkpt lat="42.17234710248268" lon="12.329020285205566"><ele>239.0</ele><time>2026-04-30T16:47:35Z</time></trkpt><trkpt lat="42.172507853349465" lon="12.328778671924399"><ele>242.5</ele><time>2026-04-30T16:47:36Z</time></trkpt><trkpt lat="42.17266007226667" lon="12.328518938809868"><ele>246.0</ele><time>2026-04-30T16:47:37Z</time></trkpt><trkpt lat="42.17281079598846" lon="12.328268701903054"><ele>245.5</ele><time>2026-04-30T16:47:38Z</time></trkpt><trkpt lat="42.17297200811759" lon="12.328019174974536"><ele>245.0</ele><time>2026-04-30T16:47:39Z</time></trkpt><trkpt lat="42.17313275839716" lon="12.327785911461369"><ele>247.0</ele><time>2026-04-30T16:47:40Z</time></trkpt><trkpt lat="42.17329722540011" lon="12.327553518624063"><ele>249.0</ele><time>2026-04-30T16:47:41Z</time></trkpt><trkpt lat="42.17346324062244" lon="12.327337535165173"><ele>249.0</ele><time>2026-04-30T16:47:42Z</time></trkpt><trkpt lat="42.17364526187015" lon="12.327116211284944"><ele>249.0</ele><time>2026-04-30T16:47:43Z</time></trkpt><trkpt lat="42.17381939730077" lon="12.326900964672687"><ele>249.0</ele><time>2026-04-30T16:47:44Z</time></trkpt><trkpt lat="42.17399471593171" lon="12.326686303744209"><ele>249.0</ele><time>2026-04-30T16:47:45Z</time></trkpt><trkpt lat="42.17417267440836" lon="12.3264743294751"><ele>251.0</ele><time>2026-04-30T16:47:46Z</time></trkpt><trkpt lat="42.174358349456575" lon="12.326277197636937"><ele>253.0</ele><time>2026-04-30T16:47:47Z</time></trkpt><trkpt lat="42.174559397115935" lon="12.326091992878549"><ele>253.0</ele><time>2026-04-30T16:47:48Z</time></trkpt><trkpt lat="42.17475950399267" lon="12.325915037246093"><ele>253.0</ele><time>2026-04-30T16:47:49Z</time></trkpt><trkpt lat="42.1749668278787" lon="12.325755952048743"><ele>255.0</ele><time>2026-04-30T16:47:50Z</time></trkpt><trkpt lat="42.17518153333272" lon="12.325585368424697"><ele>257.0</ele><time>2026-04-30T16:47:51Z</time></trkpt><trkpt lat="42.17540932543757" lon="12.32542130804027"><ele>257.0</ele><time>2026-04-30T16:47:52Z</time></trkpt><trkpt lat="42.17563282316077" lon="12.32526629649838"><ele>257.0</ele><time>2026-04-30T16:47:53Z</time></trkpt><trkpt lat="42.17585818454756" lon="12.325113792935053"><ele>258.0</ele><time>2026-04-30T16:47:54Z</time></trkpt><trkpt lat="42.17607941610689" lon="12.324964075982265"><ele>259.0</ele><time>2026-04-30T16:47:55Z</time></trkpt><trkpt lat="42.17630274879987" lon="12.324812310844845"><ele>258.5</ele><time>2026-04-30T16:47:56Z</time></trkpt><trkpt lat="42.176527483937" lon="12.324672272940795"><ele>258.0</ele><time>2026-04-30T16:47:57Z</time></trkpt><trkpt lat="42.176750304722106" lon="12.324531503276418"><ele>258.0</ele><time>2026-04-30T16:47:58Z</time></trkpt><trkpt lat="42.17696391353877" lon="12.324399998186943"><ele>258.0</ele><time>2026-04-30T16:47:59Z</time></trkpt><trkpt lat="42.177160655947716" lon="12.324283664089277"><ele>257.0</ele><time>2026-04-30T16:48:00Z</time></trkpt><trkpt lat="42.17737058304084" lon="12.324147729127661"><ele>256.0</ele><time>2026-04-30T16:48:01Z</time></trkpt><trkpt lat="42.177569740304534" lon="12.324023475150588"><ele>256.0</ele><time>2026-04-30T16:48:02Z</time></trkpt><trkpt lat="42.177774879714526" lon="12.323900199889195"><ele>256.0</ele><time>2026-04-30T16:48:03Z</time></trkpt><trkpt lat="42.177978808669664" lon="12.323781898643205"><ele>256.0</ele><time>2026-04-30T16:48:04Z</time></trkpt><trkpt lat="42.17818622857966" lon="12.323679420628874"><ele>257.3333333333333</ele><time>2026-04-30T16:48:05Z</time></trkpt><trkpt lat="42.17839458929391" lon="12.32357831267684"><ele>258.6666666666667</ele><time>2026-04-30T16:48:06Z</time></trkpt><trkpt lat="42.17859193483164" lon="12.323463880483029"><ele>260.0</ele><time>2026-04-30T16:48:07Z</time></trkpt><trkpt lat="42.178788046939985" lon="12.323363110876107"><ele>260.0</ele><time>2026-04-30T16:48:08Z</time></trkpt><trkpt lat="42.178990896033724" lon="12.323261124550633"><ele>260.0</ele><time>2026-04-30T16:48:09Z</time></trkpt><trkpt lat="42.179197527555836" lon="12.323159222363433"><ele>260.0</ele><time>2026-04-30T16:48:10Z</time></trkpt><trkpt lat="42.17940681357645" lon="12.32305379636221"><ele>261.0</ele><time>2026-04-30T16:48:11Z</time></trkpt><trkpt lat="42.179617595484956" lon="12.32294996774266"><ele>262.0</ele><time>2026-04-30T16:48:12Z</time></trkpt><trkpt lat="42.17983032880983" lon="12.322851135830996"><ele>263.0</ele><time>2026-04-30T16:48:13Z</time></trkpt><trkpt lat="42.1800480589723" lon="12.322757978235742"><ele>263.5</ele><time>2026-04-30T16:48:14Z</time></trkpt><trkpt lat="42.18027368816634" lon="12.322662379750152"><ele>264.0</ele><time>2026-04-30T16:48:15Z</time></trkpt><trkpt lat="42.18049557671723" lon="12.32257997676259"><ele>263.0</ele><time>2026-04-30T16:48:16Z</time></trkpt><trkpt lat="42.18072761148053" lon="12.322499091761916"><ele>262.0</ele><time>2026-04-30T16:48:17Z</time></trkpt><trkpt lat="42.18096507204229" lon="12.322418479214688"><ele>262.0</ele><time>2026-04-30T16:48:18Z</time></trkpt><trkpt lat="42.181204747608604" lon="12.322334531120868"><ele>262.0</ele><time>2026-04-30T16:48:19Z</time></trkpt><trkpt lat="42.18144983222563" lon="12.322248998103714"><ele>259.0</ele><time>2026-04-30T16:48:20Z</time></trkpt><trkpt lat="42.18168990046136" lon="12.322171886720575"><ele>256.0</ele><time>2026-04-30T16:48:21Z</time></trkpt><trkpt lat="42.18193174992779" lon="12.322089672870359"><ele>256.0</ele><time>2026-04-30T16:48:22Z</time></trkpt><trkpt lat="42.182165377461224" lon="12.322000964003664"><ele>256.0</ele><time>2026-04-30T16:48:23Z</time></trkpt><trkpt lat="42.18239679567905" lon="12.321916280104961"><ele>253.0</ele><time>2026-04-30T16:48:24Z</time></trkpt><trkpt lat="42.182625118785694" lon="12.321827125849586"><ele>250.0</ele><time>2026-04-30T16:48:25Z</time></trkpt><trkpt lat="42.18285179226408" lon="12.321749518819853"><ele>250.0</ele><time>2026-04-30T16:48:26Z</time></trkpt><trkpt lat="42.183083481487344" lon="12.321686505373679"><ele>250.0</ele><time>2026-04-30T16:48:27Z</time></trkpt><trkpt lat="42.18332172880533" lon="12.321606717146821"><ele>248.5</ele><time>2026-04-30T16:48:27.999Z</time></trkpt><trkpt lat="42.18356137909138" lon="12.321532431498628"><ele>247.0</ele><time>2026-04-30T16:48:28.999Z</time></trkpt><trkpt lat="42.18380096724854" lon="12.321468268791875"><ele>245.0</ele><time>2026-04-30T16:48:29.999Z</time></trkpt><trkpt lat="42.18404351485298" lon="12.321400641957492"><ele>243.0</ele><time>2026-04-30T16:48:30.999Z</time></trkpt><trkpt lat="42.184281113077716" lon="12.321308951301726"><ele>242.5</ele><time>2026-04-30T16:48:31.999Z</time></trkpt><trkpt lat="42.1845212698959" lon="12.321220697060642"><ele>242.0</ele><time>2026-04-30T16:48:32.999Z</time></trkpt><trkpt lat="42.18476112541354" lon="12.321132553545567"><ele>242.0</ele><time>2026-04-30T16:48:33.999Z</time></trkpt><trkpt lat="42.18500619559612" lon="12.321044200251244"><ele>242.0</ele><time>2026-04-30T16:48:34.999Z</time></trkpt><trkpt lat="42.18524309079624" lon="12.320961417830354"><ele>242.0</ele><time>2026-04-30T16:48:35.999Z</time></trkpt><trkpt lat="42.18548448302881" lon="12.320877484597995"><ele>242.0</ele><time>2026-04-30T16:48:36.999Z</time></trkpt><trkpt lat="42.18572716990088" lon="12.32079177953214"><ele>241.5</ele><time>2026-04-30T16:48:37.999Z</time></trkpt><trkpt lat="42.185968760219545" lon="12.3207040085017"><ele>241.0</ele><time>2026-04-30T16:48:38.999Z</time></trkpt><trkpt lat="42.186215654064384" lon="12.32061467723168"><ele>240.5</ele><time>2026-04-30T16:48:39.999Z</time></trkpt><trkpt lat="42.186460511928644" lon="12.320526595021665"><ele>240.0</ele><time>2026-04-30T16:48:40.999Z</time></trkpt><trkpt lat="42.18672161645135" lon="12.320432668434858"><ele>240.0</ele><time>2026-04-30T16:48:41.999Z</time></trkpt><trkpt lat="42.18697785815741" lon="12.320340179068294"><ele>240.0</ele><time>2026-04-30T16:48:42.999Z</time></trkpt><trkpt lat="42.18723532936547" lon="12.320244528626592"><ele>240.0</ele><time>2026-04-30T16:48:43.999Z</time></trkpt><trkpt lat="42.1874774900669" lon="12.320146080074345"><ele>240.0</ele><time>2026-04-30T16:48:44.999Z</time></trkpt><trkpt lat="42.187722194938125" lon="12.320033177830167"><ele>240.0</ele><time>2026-04-30T16:48:45.999Z</time></trkpt><trkpt lat="42.187964069198635" lon="12.319909350019882"><ele>240.0</ele><time>2026-04-30T16:48:46.999Z</time></trkpt><trkpt lat="42.18819449874832" lon="12.319766237931162"><ele>240.0</ele><time>2026-04-30T16:48:47.999Z</time></trkpt><trkpt lat="42.188424935743335" lon="12.319593246768765"><ele>240.0</ele><time>2026-04-30T16:48:48.999Z</time></trkpt><trkpt lat="42.18864794182638" lon="12.319409559279105"><ele>240.0</ele><time>2026-04-30T16:48:49.999Z</time></trkpt><trkpt lat="42.18886123728297" lon="12.319215415615556"><ele>240.0</ele><time>2026-04-30T16:48:50.999Z</time></trkpt><trkpt lat="42.189069273201696" lon="12.3189994362123"><ele>241.5</ele><time>2026-04-30T16:48:51.999Z</time></trkpt><trkpt lat="42.189274347325664" lon="12.31875783566746"><ele>243.0</ele><time>2026-04-30T16:48:52.999Z</time></trkpt><trkpt lat="42.18948143889924" lon="12.318490859871444"><ele>243.0</ele><time>2026-04-30T16:48:53.999Z</time></trkpt><trkpt lat="42.18966886930071" lon="12.318228054540748"><ele>243.0</ele><time>2026-04-30T16:48:54.999Z</time></trkpt><trkpt lat="42.18985252039251" lon="12.317968418844464"><ele>244.0</ele><time>2026-04-30T16:48:55.999Z</time></trkpt><trkpt lat="42.190046168101695" lon="12.31769607717851"><ele>245.0</ele><time>2026-04-30T16:48:56.999Z</time></trkpt><trkpt lat="42.1902305319766" lon="12.31743199826996"><ele>245.5</ele><time>2026-04-30T16:48:57.999Z</time></trkpt><trkpt lat="42.19040800384231" lon="12.317177791368163"><ele>246.0</ele><time>2026-04-30T16:48:58.999Z</time></trkpt><trkpt lat="42.19058093168577" lon="12.316928768501581"><ele>247.5</ele><time>2026-04-30T16:48:59.999Z</time></trkpt><trkpt lat="42.19075823006961" lon="12.316672656764977"><ele>249.0</ele><time>2026-04-30T16:49:00.999Z</time></trkpt><trkpt lat="42.19094238542466" lon="12.316406640219425"><ele>250.0</ele><time>2026-04-30T16:49:01.999Z</time></trkpt><trkpt lat="42.19112761039286" lon="12.316139078475116"><ele>251.0</ele><time>2026-04-30T16:49:02.999Z</time></trkpt><trkpt lat="42.191326571635955" lon="12.31585842505898"><ele>253.0</ele><time>2026-04-30T16:49:03.999Z</time></trkpt><trkpt lat="42.191533901449354" lon="12.315580788532953"><ele>255.0</ele><time>2026-04-30T16:49:04.999Z</time></trkpt><trkpt lat="42.19174481955877" lon="12.315317960641213"><ele>255.5</ele><time>2026-04-30T16:49:05.999Z</time></trkpt><trkpt lat="42.19195228284121" lon="12.315071120505436"><ele>256.0</ele><time>2026-04-30T16:49:06.999Z</time></trkpt><trkpt lat="42.19216117776146" lon="12.314852766016832"><ele>257.0</ele><time>2026-04-30T16:49:07.999Z</time></trkpt><trkpt lat="42.19238246516797" lon="12.314656006833173"><ele>258.0</ele><time>2026-04-30T16:49:08.999Z</time></trkpt><trkpt lat="42.19259773862948" lon="12.314486423448377"><ele>258.0</ele><time>2026-04-30T16:49:09.999Z</time></trkpt><trkpt lat="42.19282423568359" lon="12.314326053050392"><ele>258.0</ele><time>2026-04-30T16:49:10.999Z</time></trkpt><trkpt lat="42.19303930502928" lon="12.314190068094396"><ele>257.5</ele><time>2026-04-30T16:49:11.999Z</time></trkpt><trkpt lat="42.193256048958965" lon="12.314074349741235"><ele>257.0</ele><time>2026-04-30T16:49:12.999Z</time></trkpt><trkpt lat="42.19347811736754" lon="12.31393274170704"><ele>258.5</ele><time>2026-04-30T16:49:13.999Z</time></trkpt><trkpt lat="42.19370898810651" lon="12.313799279964417"><ele>260.0</ele><time>2026-04-30T16:49:14.999Z</time></trkpt><trkpt lat="42.19393021771576" lon="12.313739998250737"><ele>260.0</ele><time>2026-04-30T16:49:15.999Z</time></trkpt><trkpt lat="42.19413868599313" lon="12.313681236230867"><ele>260.0</ele><time>2026-04-30T16:49:16.999Z</time></trkpt><trkpt lat="42.194339758521245" lon="12.313633146729032"><ele>260.0</ele><time>2026-04-30T16:49:17.999Z</time></trkpt><trkpt lat="42.19454647812235" lon="12.313583709917314"><ele>260.0</ele><time>2026-04-30T16:49:18.999Z</time></trkpt><trkpt lat="42.19475375452567" lon="12.313529752123271"><ele>260.0</ele><time>2026-04-30T16:49:19.999Z</time></trkpt><trkpt lat="42.194977151305906" lon="12.313410850149255"><ele>260.0</ele><time>2026-04-30T16:49:20.999Z</time></trkpt><trkpt lat="42.19521884242477" lon="12.313367159369404"><ele>260.0</ele><time>2026-04-30T16:49:21.999Z</time></trkpt><trkpt lat="42.19546688054767" lon="12.313324062117594"><ele>258.0</ele><time>2026-04-30T16:49:22.999Z</time></trkpt><trkpt lat="42.19571230074972" lon="12.31327883951789"><ele>256.0</ele><time>2026-04-30T16:49:23.999Z</time></trkpt><trkpt lat="42.195952606957306" lon="12.313235631417461"><ele>256.0</ele><time>2026-04-30T16:49:24.999Z</time></trkpt><trkpt lat="42.19619887016338" lon="12.313181162239818"><ele>256.0</ele><time>2026-04-30T16:49:25.999Z</time></trkpt><trkpt lat="42.196451526477766" lon="12.313129518877382"><ele>255.5</ele><time>2026-04-30T16:49:26.999Z</time></trkpt><trkpt lat="42.19669776889669" lon="12.31308498099239"><ele>255.0</ele><time>2026-04-30T16:49:27.999Z</time></trkpt><trkpt lat="42.19695531591389" lon="12.31303684557531"><ele>255.5</ele><time>2026-04-30T16:49:29Z</time></trkpt><trkpt lat="42.197206018497155" lon="12.312981823723385"><ele>256.0</ele><time>2026-04-30T16:49:30Z</time></trkpt><trkpt lat="42.19745070605891" lon="12.312935714017135"><ele>256.0</ele><time>2026-04-30T16:49:31Z</time></trkpt><trkpt lat="42.19770168930687" lon="12.312881424124173"><ele>256.0</ele><time>2026-04-30T16:49:32Z</time></trkpt><trkpt lat="42.1979570916293" lon="12.31282052241411"><ele>255.5</ele><time>2026-04-30T16:49:33Z</time></trkpt><trkpt lat="42.19820510407179" lon="12.312759059289329"><ele>255.0</ele><time>2026-04-30T16:49:34Z</time></trkpt><trkpt lat="42.19845488815486" lon="12.312696843733445"><ele>255.0</ele><time>2026-04-30T16:49:35Z</time></trkpt><trkpt lat="42.198699950600165" lon="12.312626268300006"><ele>255.0</ele><time>2026-04-30T16:49:36Z</time></trkpt><trkpt lat="42.19894219423559" lon="12.31254270516605"><ele>254.5</ele><time>2026-04-30T16:49:37Z</time></trkpt><trkpt lat="42.19917221166503" lon="12.312450717967105"><ele>254.0</ele><time>2026-04-30T16:49:38Z</time></trkpt><trkpt lat="42.199386955764716" lon="12.312334395113526"><ele>255.0</ele><time>2026-04-30T16:49:39Z</time></trkpt><trkpt lat="42.1995942845996" lon="12.312208176041139"><ele>256.0</ele><time>2026-04-30T16:49:40Z</time></trkpt><trkpt lat="42.19979199563143" lon="12.312066608808655"><ele>254.5</ele><time>2026-04-30T16:49:41Z</time></trkpt><trkpt lat="42.19998410730106" lon="12.311908478024666"><ele>253.0</ele><time>2026-04-30T16:49:42Z</time></trkpt><trkpt lat="42.20017071402219" lon="12.311737179555243"><ele>253.0</ele><time>2026-04-30T16:49:43Z</time></trkpt><trkpt lat="42.200344599356285" lon="12.311567344924983"><ele>253.0</ele><time>2026-04-30T16:49:44Z</time></trkpt><trkpt lat="42.20053028641579" lon="12.311405086527078"><ele>253.0</ele><time>2026-04-30T16:49:45Z</time></trkpt><trkpt lat="42.2007165574271" lon="12.311230745198541"><ele>251.0</ele><time>2026-04-30T16:49:46Z</time></trkpt><trkpt lat="42.20089670468811" lon="12.311066125610248"><ele>249.0</ele><time>2026-04-30T16:49:47Z</time></trkpt><trkpt lat="42.20107817394335" lon="12.310912138530417"><ele>247.0</ele><time>2026-04-30T16:49:48Z</time></trkpt><trkpt lat="42.201262509687254" lon="12.310745165103894"><ele>245.5</ele><time>2026-04-30T16:49:49Z</time></trkpt><trkpt lat="42.20145295907515" lon="12.310565648147241"><ele>244.0</ele><time>2026-04-30T16:49:50Z</time></trkpt><trkpt lat="42.201643846815585" lon="12.310391690870365"><ele>243.5</ele><time>2026-04-30T16:49:51Z</time></trkpt><trkpt lat="42.20183976088667" lon="12.31021653074138"><ele>243.0</ele><time>2026-04-30T16:49:52Z</time></trkpt><trkpt lat="42.20203868179856" lon="12.310046600381614"><ele>243.0</ele><time>2026-04-30T16:49:53Z</time></trkpt><trkpt lat="42.20224674225872" lon="12.309886819259187"><ele>243.0</ele><time>2026-04-30T16:49:54Z</time></trkpt><trkpt lat="42.202462080267516" lon="12.309723670779956"><ele>241.5</ele><time>2026-04-30T16:49:55Z</time></trkpt><trkpt lat="42.20268013207621" lon="12.309566089414169"><ele>240.0</ele><time>2026-04-30T16:49:56Z</time></trkpt><trkpt lat="42.20289081296582" lon="12.30941345056684"><ele>240.0</ele><time>2026-04-30T16:49:57Z</time></trkpt><trkpt lat="42.20310285881145" lon="12.30926491671549"><ele>240.0</ele><time>2026-04-30T16:49:58Z</time></trkpt><trkpt lat="42.203314846306945" lon="12.309123675223248"><ele>240.33333333333331</ele><time>2026-04-30T16:49:59Z</time></trkpt><trkpt lat="42.2035063868862" lon="12.308976041473242"><ele>240.66666666666666</ele><time>2026-04-30T16:50:00Z</time></trkpt><trkpt lat="42.20370437469142" lon="12.30884405372498"><ele>241.0</ele><time>2026-04-30T16:50:01Z</time></trkpt><trkpt lat="42.20386928110166" lon="12.30873622704504"><ele>239.33333333333331</ele><time>2026-04-30T16:50:02Z</time></trkpt><trkpt lat="42.20405876309552" lon="12.308625071592306"><ele>237.66666666666669</ele><time>2026-04-30T16:50:03Z</time></trkpt><trkpt lat="42.204244362342244" lon="12.308517810710393"><ele>236.0</ele><time>2026-04-30T16:50:04Z</time></trkpt><trkpt lat="42.204427145270934" lon="12.30840942079841"><ele>236.0</ele><time>2026-04-30T16:50:05Z</time></trkpt><trkpt lat="42.20461868910285" lon="12.308306048739311"><ele>236.0</ele><time>2026-04-30T16:50:06Z</time></trkpt><trkpt lat="42.20481802345004" lon="12.30820306055713"><ele>236.0</ele><time>2026-04-30T16:50:07Z</time></trkpt><trkpt lat="42.205005580140565" lon="12.30809196326935"><ele>237.0</ele><time>2026-04-30T16:50:08Z</time></trkpt><trkpt lat="42.20519041427011" lon="12.30798923897166"><ele>238.0</ele><time>2026-04-30T16:50:09Z</time></trkpt><trkpt lat="42.20538499741103" lon="12.30788358429477"><ele>239.0</ele><time>2026-04-30T16:50:10Z</time></trkpt><trkpt lat="42.20557890302679" lon="12.307777164427888"><ele>239.33333333333334</ele><time>2026-04-30T16:50:11Z</time></trkpt><trkpt lat="42.20576158233177" lon="12.30766386944423"><ele>239.66666666666669</ele><time>2026-04-30T16:50:12Z</time></trkpt><trkpt lat="42.20593283560747" lon="12.307547688180737"><ele>240.0</ele><time>2026-04-30T16:50:13Z</time></trkpt><trkpt lat="42.206091504077015" lon="12.307429025617848"><ele>240.0</ele><time>2026-04-30T16:50:14Z</time></trkpt><trkpt lat="42.20623066547439" lon="12.307313202027586"><ele>240.0</ele><time>2026-04-30T16:50:15Z</time></trkpt><trkpt lat="42.20636406758448" lon="12.30719853607714"><ele>240.0</ele><time>2026-04-30T16:50:16Z</time></trkpt><trkpt lat="42.20648172760566" lon="12.307078910465403"><ele>241.5</ele><time>2026-04-30T16:50:17Z</time></trkpt><trkpt lat="42.206595379788325" lon="12.306950899176304"><ele>243.0</ele><time>2026-04-30T16:50:18Z</time></trkpt><trkpt lat="42.20669480795533" lon="12.306833864640407"><ele>244.5</ele><time>2026-04-30T16:50:19Z</time></trkpt><trkpt lat="42.206805368819346" lon="12.306712422219457"><ele>246.0</ele><time>2026-04-30T16:50:20Z</time></trkpt><trkpt lat="42.20692461763917" lon="12.306596302517642"><ele>246.0</ele><time>2026-04-30T16:50:21Z</time></trkpt><trkpt lat="42.2070260018331" lon="12.30653558381079"><ele>246.00000000000003</ele><time>2026-04-30T16:50:22Z</time></trkpt><trkpt lat="42.20712347113032" lon="12.306488742809144"><ele>246.00000000000003</ele><time>2026-04-30T16:50:23Z</time></trkpt><trkpt lat="42.20722054894312" lon="12.306458817480904"><ele>246.0</ele><time>2026-04-30T16:50:24Z</time></trkpt><trkpt lat="42.20733002784495" lon="12.306414675077761"><ele>246.0</ele><time>2026-04-30T16:50:25Z</time></trkpt><trkpt lat="42.207422592210314" lon="12.306387092910201"><ele>246.5</ele><time>2026-04-30T16:50:26Z</time></trkpt><trkpt lat="42.20752760139079" lon="12.306350101982277"><ele>247.0</ele><time>2026-04-30T16:50:27Z</time></trkpt><trkpt lat="42.20763596416829" lon="12.3063048219068"><ele>247.5</ele><time>2026-04-30T16:50:28Z</time></trkpt><trkpt lat="42.20775043033645" lon="12.306244841871449"><ele>248.0</ele><time>2026-04-30T16:50:29Z</time></trkpt><trkpt lat="42.207869681686475" lon="12.306184246911426"><ele>248.0</ele><time>2026-04-30T16:50:30Z</time></trkpt><trkpt lat="42.20797887232538" lon="12.3061203069076"><ele>248.0</ele><time>2026-04-30T16:50:31Z</time></trkpt><trkpt lat="42.20812195632035" lon="12.30613748993769"><ele>248.0</ele><time>2026-04-30T16:50:32Z</time></trkpt><trkpt lat="42.208252422879205" lon="12.306084488010782"><ele>248.0</ele><time>2026-04-30T16:50:33Z</time></trkpt><trkpt lat="42.20837498337542" lon="12.306049292810293"><ele>248.0</ele><time>2026-04-30T16:50:34Z</time></trkpt><trkpt lat="42.2085053634065" lon="12.306017941041265"><ele>248.0</ele><time>2026-04-30T16:50:35Z</time></trkpt><trkpt lat="42.208639236616456" lon="12.305994127301288"><ele>248.0</ele><time>2026-04-30T16:50:36Z</time></trkpt><trkpt lat="42.20878130892491" lon="12.305987031585117"><ele>248.0</ele><time>2026-04-30T16:50:37Z</time></trkpt><trkpt lat="42.208935526103275" lon="12.305987729509011"><ele>246.66666666666669</ele><time>2026-04-30T16:50:38Z</time></trkpt><trkpt lat="42.209091254727234" lon="12.305999491845073"><ele>245.33333333333331</ele><time>2026-04-30T16:50:39Z</time></trkpt><trkpt lat="42.20925587828225" lon="12.306014850628383"><ele>244.0</ele><time>2026-04-30T16:50:40Z</time></trkpt><trkpt lat="42.209427094878" lon="12.306033387558726"><ele>244.0</ele><time>2026-04-30T16:50:41Z</time></trkpt><trkpt lat="42.209603624115786" lon="12.306050360213117"><ele>244.0</ele><time>2026-04-30T16:50:42Z</time></trkpt><trkpt lat="42.209778531204684" lon="12.306064850979904"><ele>244.0</ele><time>2026-04-30T16:50:43Z</time></trkpt><trkpt lat="42.209962837629696" lon="12.306074001255656"><ele>241.0</ele><time>2026-04-30T16:50:44Z</time></trkpt><trkpt lat="42.21015107398757" lon="12.306061208735255"><ele>238.0</ele><time>2026-04-30T16:50:45Z</time></trkpt><trkpt lat="42.210343734076396" lon="12.306032561610568"><ele>235.0</ele><time>2026-04-30T16:50:46Z</time></trkpt><trkpt lat="42.21054179103544" lon="12.305985080181996"><ele>232.0</ele><time>2026-04-30T16:50:47Z</time></trkpt><trkpt lat="42.21072165701791" lon="12.305937631693702"><ele>229.0</ele><time>2026-04-30T16:50:48Z</time></trkpt><trkpt lat="42.21090180973234" lon="12.305889465628304"><ele>226.0</ele><time>2026-04-30T16:50:49Z</time></trkpt><trkpt lat="42.21109517637352" lon="12.305838425746717"><ele>226.0</ele><time>2026-04-30T16:50:50Z</time></trkpt><trkpt lat="42.21130172389394" lon="12.30578390671044"><ele>226.0</ele><time>2026-04-30T16:50:51Z</time></trkpt><trkpt lat="42.21153122456759" lon="12.30572332913425"><ele>226.0</ele><time>2026-04-30T16:50:51.999Z</time></trkpt><trkpt lat="42.21176422864153" lon="12.305662100989382"><ele>223.5</ele><time>2026-04-30T16:50:52.999Z</time></trkpt><trkpt lat="42.21203641009874" lon="12.305590866205417"><ele>221.0</ele><time>2026-04-30T16:50:53.999Z</time></trkpt><trkpt lat="42.2122704838979" lon="12.305526436788908"><ele>216.0</ele><time>2026-04-30T16:50:54.999Z</time></trkpt><trkpt lat="42.2125068001816" lon="12.305466242397415"><ele>211.0</ele><time>2026-04-30T16:50:55.999Z</time></trkpt><trkpt lat="42.21273249714236" lon="12.305408477489848"><ele>211.0</ele><time>2026-04-30T16:50:56.999Z</time></trkpt><trkpt lat="42.21295710499407" lon="12.305350303243657"><ele>211.0</ele><time>2026-04-30T16:50:57.999Z</time></trkpt><trkpt lat="42.21318388350229" lon="12.305309677793513"><ele>210.66666666666666</ele><time>2026-04-30T16:50:58.999Z</time></trkpt><trkpt lat="42.21341107824548" lon="12.30529565092616"><ele>210.33333333333331</ele><time>2026-04-30T16:50:59.999Z</time></trkpt><trkpt lat="42.21361860928437" lon="12.305238181742952"><ele>210.0</ele><time>2026-04-30T16:51:00.999Z</time></trkpt><trkpt lat="42.21383435498779" lon="12.305191971301289"><ele>210.66666666666669</ele><time>2026-04-30T16:51:01.999Z</time></trkpt><trkpt lat="42.21403301783405" lon="12.305152092984585"><ele>211.33333333333334</ele><time>2026-04-30T16:51:02.999Z</time></trkpt><trkpt lat="42.21422080423107" lon="12.305102187087538"><ele>212.0</ele><time>2026-04-30T16:51:03.999Z</time></trkpt><trkpt lat="42.21441215999254" lon="12.305067267748475"><ele>212.0</ele><time>2026-04-30T16:51:04.999Z</time></trkpt><trkpt lat="42.214588823703565" lon="12.304991122868653"><ele>212.0</ele><time>2026-04-30T16:51:05.999Z</time></trkpt><trkpt lat="42.21476023694842" lon="12.304940219522084"><ele>212.0</ele><time>2026-04-30T16:51:06.999Z</time></trkpt><trkpt lat="42.214949705005196" lon="12.3048655164066"><ele>211.66666666666669</ele><time>2026-04-30T16:51:07.999Z</time></trkpt><trkpt lat="42.215140325922405" lon="12.304782416256552"><ele>211.33333333333331</ele><time>2026-04-30T16:51:08.999Z</time></trkpt><trkpt lat="42.215331136529365" lon="12.304697307936962"><ele>211.0</ele><time>2026-04-30T16:51:09.999Z</time></trkpt><trkpt lat="42.215513742673394" lon="12.304613312486135"><ele>211.0</ele><time>2026-04-30T16:51:10.999Z</time></trkpt><trkpt lat="42.21569820111236" lon="12.304528465003928"><ele>211.0</ele><time>2026-04-30T16:51:11.999Z</time></trkpt><trkpt lat="42.21590345046418" lon="12.304434054071198"><ele>211.0</ele><time>2026-04-30T16:51:12.999Z</time></trkpt><trkpt lat="42.21609942420906" lon="12.304343909657732"><ele>211.0</ele><time>2026-04-30T16:51:13.999Z</time></trkpt><trkpt lat="42.2162950869795" lon="12.30425071035054"><ele>211.0</ele><time>2026-04-30T16:51:14.999Z</time></trkpt><trkpt lat="42.21647873201686" lon="12.304168126352783"><ele>211.0</ele><time>2026-04-30T16:51:15.999Z</time></trkpt><trkpt lat="42.216682874375074" lon="12.304093750458401"><ele>212.33333333333331</ele><time>2026-04-30T16:51:16.999Z</time></trkpt><trkpt lat="42.216888112032215" lon="12.304064835949736"><ele>213.66666666666669</ele><time>2026-04-30T16:51:17.999Z</time></trkpt><trkpt lat="42.21710865179404" lon="12.30409996353412"><ele>215.0</ele><time>2026-04-30T16:51:18.999Z</time></trkpt><trkpt lat="42.217322620058454" lon="12.304189445494734"><ele>215.33333333333334</ele><time>2026-04-30T16:51:19.999Z</time></trkpt><trkpt lat="42.21750145539005" lon="12.304252229198994"><ele>215.66666666666669</ele><time>2026-04-30T16:51:20.999Z</time></trkpt><trkpt lat="42.217666416289305" lon="12.30429357903533"><ele>216.0</ele><time>2026-04-30T16:51:21.999Z</time></trkpt><trkpt lat="42.21783107255189" lon="12.304325423276685"><ele>216.0</ele><time>2026-04-30T16:51:22.999Z</time></trkpt><trkpt lat="42.21795909769483" lon="12.304388176789695"><ele>216.0</ele><time>2026-04-30T16:51:23.999Z</time></trkpt><trkpt lat="42.21806689063695" lon="12.304437405692369"><ele>216.0</ele><time>2026-04-30T16:51:24.999Z</time></trkpt><trkpt lat="42.21816479626528" lon="12.304483220932802"><ele>216.0</ele><time>2026-04-30T16:51:25.999Z</time></trkpt><trkpt lat="42.218271013589636" lon="12.304532047106727"><ele>215.60000000000002</ele><time>2026-04-30T16:51:26.999Z</time></trkpt><trkpt lat="42.218385320669334" lon="12.30458459199483"><ele>215.20000000000002</ele><time>2026-04-30T16:51:27.999Z</time></trkpt><trkpt lat="42.21847261788723" lon="12.304624720939266"><ele>214.79999999999998</ele><time>2026-04-30T16:51:28.999Z</time></trkpt><trkpt lat="42.21857735463094" lon="12.304672866436718"><ele>214.39999999999998</ele><time>2026-04-30T16:51:29.999Z</time></trkpt><trkpt lat="42.21867742733068" lon="12.30471886788207"><ele>214.0</ele><time>2026-04-30T16:51:30.999Z</time></trkpt><trkpt lat="42.21875811099667" lon="12.304755956572178"><ele>214.0</ele><time>2026-04-30T16:51:31.999Z</time></trkpt><trkpt lat="42.21886646466093" lon="12.30474001235497"><ele>213.99999999999997</ele><time>2026-04-30T16:51:32.999Z</time></trkpt><trkpt lat="42.21894930857893" lon="12.304780536975795"><ele>213.99999999999997</ele><time>2026-04-30T16:51:34Z</time></trkpt><trkpt lat="42.219045833909476" lon="12.304832121082764"><ele>214.0</ele><time>2026-04-30T16:51:35Z</time></trkpt><trkpt lat="42.21914802570568" lon="12.304888705942778"><ele>214.0</ele><time>2026-04-30T16:51:36Z</time></trkpt><trkpt lat="42.21924869912504" lon="12.304927490740177"><ele>215.5</ele><time>2026-04-30T16:51:37Z</time></trkpt><trkpt lat="42.219354554420725" lon="12.304970351570335"><ele>217.0</ele><time>2026-04-30T16:51:38Z</time></trkpt><trkpt lat="42.219467418740194" lon="12.305021979680673"><ele>218.5</ele><time>2026-04-30T16:51:39Z</time></trkpt><trkpt lat="42.21958412649709" lon="12.305073588642887"><ele>220.0</ele><time>2026-04-30T16:51:40Z</time></trkpt><trkpt lat="42.219711279220114" lon="12.305145817925732"><ele>221.25</ele><time>2026-04-30T16:51:41Z</time></trkpt><trkpt lat="42.219822725485756" lon="12.30519155951364"><ele>222.5</ele><time>2026-04-30T16:51:42Z</time></trkpt><trkpt lat="42.219938904867604" lon="12.305242434597929"><ele>223.75</ele><time>2026-04-30T16:51:43Z</time></trkpt><trkpt lat="42.22006901660924" lon="12.30529789593458"><ele>225.0</ele><time>2026-04-30T16:51:44Z</time></trkpt><trkpt lat="42.22019287405093" lon="12.305353215113533"><ele>225.0</ele><time>2026-04-30T16:51:45Z</time></trkpt><trkpt lat="42.22031618597104" lon="12.305414784279115"><ele>225.0</ele><time>2026-04-30T16:51:46Z</time></trkpt><trkpt lat="42.2204371938676" lon="12.305476440840485"><ele>225.0</ele><time>2026-04-30T16:51:47Z</time></trkpt><trkpt lat="42.2205544356848" lon="12.305531296119954"><ele>225.0</ele><time>2026-04-30T16:51:48Z</time></trkpt><trkpt lat="42.220671203931616" lon="12.305593416775748"><ele>226.4</ele><time>2026-04-30T16:51:49Z</time></trkpt><trkpt lat="42.22078189493597" lon="12.305656012782277"><ele>227.8</ele><time>2026-04-30T16:51:50Z</time></trkpt><trkpt lat="42.220882824210534" lon="12.305714868250057"><ele>229.2</ele><time>2026-04-30T16:51:51Z</time></trkpt><trkpt lat="42.22097659122738" lon="12.305775739337882"><ele>230.6</ele><time>2026-04-30T16:51:52Z</time></trkpt><trkpt lat="42.22106272062266" lon="12.305845509242257"><ele>232.0</ele><time>2026-04-30T16:51:53Z</time></trkpt><trkpt lat="42.22114662796064" lon="12.305921523411893"><ele>232.0</ele><time>2026-04-30T16:51:54Z</time></trkpt><trkpt lat="42.221232636351715" lon="12.3060166666228"><ele>232.0</ele><time>2026-04-30T16:51:55Z</time></trkpt><trkpt lat="42.22133094195377" lon="12.306100275167411"><ele>232.0</ele><time>2026-04-30T16:51:56Z</time></trkpt><trkpt lat="42.22143495250153" lon="12.30618580994434"><ele>232.0</ele><time>2026-04-30T16:51:57Z</time></trkpt><trkpt lat="42.221526481828256" lon="12.306304393041847"><ele>232.5</ele><time>2026-04-30T16:51:58Z</time></trkpt><trkpt lat="42.22162654826261" lon="12.306430562912547"><ele>233.0</ele><time>2026-04-30T16:51:59Z</time></trkpt><trkpt lat="42.2217405505555" lon="12.306535695644852"><ele>233.5</ele><time>2026-04-30T16:52:00Z</time></trkpt><trkpt lat="42.2218557634157" lon="12.306632549848873"><ele>234.0</ele><time>2026-04-30T16:52:01Z</time></trkpt><trkpt lat="42.221967530264514" lon="12.306739699558578"><ele>234.0</ele><time>2026-04-30T16:52:02Z</time></trkpt><trkpt lat="42.2220853808203" lon="12.306834185530397"><ele>234.0</ele><time>2026-04-30T16:52:03Z</time></trkpt><trkpt lat="42.22220475347819" lon="12.306952558906987"><ele>234.0</ele><time>2026-04-30T16:52:04Z</time></trkpt><trkpt lat="42.2223249182341" lon="12.307073037994051"><ele>234.0</ele><time>2026-04-30T16:52:05Z</time></trkpt><trkpt lat="42.222451958256414" lon="12.307195636932907"><ele>234.66666666666669</ele><time>2026-04-30T16:52:06Z</time></trkpt><trkpt lat="42.22257515913956" lon="12.307336044568702"><ele>235.33333333333334</ele><time>2026-04-30T16:52:07Z</time></trkpt><trkpt lat="42.222693685142495" lon="12.307449750312825"><ele>236.0</ele><time>2026-04-30T16:52:08Z</time></trkpt><trkpt lat="42.22282439926861" lon="12.307563025897698"><ele>236.0</ele><time>2026-04-30T16:52:09Z</time></trkpt><trkpt lat="42.22296784039514" lon="12.307687539646983"><ele>236.0</ele><time>2026-04-30T16:52:10Z</time></trkpt><trkpt lat="42.223107630012315" lon="12.3078197209696"><ele>236.0</ele><time>2026-04-30T16:52:11Z</time></trkpt><trkpt lat="42.223244736156296" lon="12.30795660159107"><ele>235.66666666666669</ele><time>2026-04-30T16:52:12Z</time></trkpt><trkpt lat="42.22338036299607" lon="12.308088897255576"><ele>235.33333333333331</ele><time>2026-04-30T16:52:13Z</time></trkpt><trkpt lat="42.22351859423664" lon="12.308220984387834"><ele>235.0</ele><time>2026-04-30T16:52:14Z</time></trkpt><trkpt lat="42.22366183411355" lon="12.30835985602789"><ele>235.0</ele><time>2026-04-30T16:52:15Z</time></trkpt><trkpt lat="42.22381035713395" lon="12.30849715653362"><ele>235.0</ele><time>2026-04-30T16:52:16Z</time></trkpt><trkpt lat="42.223964485680696" lon="12.308638635668926"><ele>235.0</ele><time>2026-04-30T16:52:17Z</time></trkpt><trkpt lat="42.22412111839853" lon="12.308774750891601"><ele>233.0</ele><time>2026-04-30T16:52:18Z</time></trkpt><trkpt lat="42.224264094269465" lon="12.308927547547542"><ele>231.0</ele><time>2026-04-30T16:52:19Z</time></trkpt><trkpt lat="42.22440563625121" lon="12.309095268347907"><ele>229.0</ele><time>2026-04-30T16:52:20Z</time></trkpt><trkpt lat="42.22455987493876" lon="12.309260376955994"><ele>229.0</ele><time>2026-04-30T16:52:21Z</time></trkpt><trkpt lat="42.224727955375315" lon="12.309430069452745"><ele>229.0</ele><time>2026-04-30T16:52:22Z</time></trkpt><trkpt lat="42.22489803347128" lon="12.30959572739301"><ele>229.0</ele><time>2026-04-30T16:52:23Z</time></trkpt><trkpt lat="42.225048270646376" lon="12.309753186377613"><ele>228.33333333333331</ele><time>2026-04-30T16:52:24Z</time></trkpt><trkpt lat="42.22521300619614" lon="12.309914677657316"><ele>227.66666666666669</ele><time>2026-04-30T16:52:25Z</time></trkpt><trkpt lat="42.225395906212796" lon="12.310061326401277"><ele>227.0</ele><time>2026-04-30T16:52:26Z</time></trkpt><trkpt lat="42.22556413153551" lon="12.310203662914844"><ele>225.66666666666669</ele><time>2026-04-30T16:52:27Z</time></trkpt><trkpt lat="42.225728703963924" lon="12.310352448798124"><ele>224.33333333333331</ele><time>2026-04-30T16:52:28Z</time></trkpt><trkpt lat="42.225900864255266" lon="12.31049948680018"><ele>223.0</ele><time>2026-04-30T16:52:29Z</time></trkpt><trkpt lat="42.226069290481234" lon="12.310648534628662"><ele>223.0</ele><time>2026-04-30T16:52:30Z</time></trkpt><trkpt lat="42.22624333394437" lon="12.31079761805744"><ele>223.0</ele><time>2026-04-30T16:52:31Z</time></trkpt><trkpt lat="42.22642449156821" lon="12.310966301819072"><ele>223.0</ele><time>2026-04-30T16:52:32Z</time></trkpt><trkpt lat="42.226602568678935" lon="12.311130644413764"><ele>222.33333333333331</ele><time>2026-04-30T16:52:33Z</time></trkpt><trkpt lat="42.22676828537702" lon="12.311325281552053"><ele>221.66666666666669</ele><time>2026-04-30T16:52:34Z</time></trkpt><trkpt lat="42.22693668426756" lon="12.311518154018646"><ele>221.0</ele><time>2026-04-30T16:52:35Z</time></trkpt><trkpt lat="42.227130231353115" lon="12.311682041434587"><ele>223.5</ele><time>2026-04-30T16:52:36Z</time></trkpt><trkpt lat="42.22734343755211" lon="12.311861357383718"><ele>226.0</ele><time>2026-04-30T16:52:37Z</time></trkpt><trkpt lat="42.22754467558687" lon="12.312054402159992"><ele>226.0</ele><time>2026-04-30T16:52:38Z</time></trkpt><trkpt lat="42.22773045649063" lon="12.31222535321162"><ele>226.0</ele><time>2026-04-30T16:52:39Z</time></trkpt><trkpt lat="42.227932988030574" lon="12.312391973090381"><ele>228.0</ele><time>2026-04-30T16:52:40Z</time></trkpt><trkpt lat="42.228118019343285" lon="12.312557477547186"><ele>230.0</ele><time>2026-04-30T16:52:41Z</time></trkpt><trkpt lat="42.22831422954184" lon="12.312717173774143"><ele>230.33333333333334</ele><time>2026-04-30T16:52:42Z</time></trkpt><trkpt lat="42.228506104572865" lon="12.31287563105263"><ele>230.66666666666669</ele><time>2026-04-30T16:52:43Z</time></trkpt><trkpt lat="42.22869765153588" lon="12.313031109330215"><ele>231.0</ele><time>2026-04-30T16:52:44Z</time></trkpt><trkpt lat="42.228880144550686" lon="12.313175141303962"><ele>233.0</ele><time>2026-04-30T16:52:45Z</time></trkpt><trkpt lat="42.22905606439581" lon="12.313315422314771"><ele>235.0</ele><time>2026-04-30T16:52:46Z</time></trkpt><trkpt lat="42.22922714709072" lon="12.313464801309632"><ele>237.0</ele><time>2026-04-30T16:52:47Z</time></trkpt><trkpt lat="42.22940095025263" lon="12.31362586853536"><ele>240.0</ele><time>2026-04-30T16:52:48Z</time></trkpt><trkpt lat="42.18819449874832" lon="12.319766237931162"><ele>240.0</ele><time>2026-04-30T16:48:47.999Z</time></trkpt><trkpt lat="42.188424935743335" lon="12.319593246768765"><ele>240.0</ele><time>2026-04-30T16:48:48.999Z</time></trkpt><trkpt lat="42.18864794182638" lon="12.319409559279105"><ele>240.0</ele><time>2026-04-30T16:48:49.999Z</time></trkpt><trkpt lat="42.18886123728297" lon="12.319215415615556"><ele>240.0</ele><time>2026-04-30T16:48:50.999Z</time></trkpt><trkpt lat="42.189069273201696" lon="12.3189994362123"><ele>241.5</ele><time>2026-04-30T16:48:51.999Z</time></trkpt><trkpt lat="42.189274347325664" lon="12.31875783566746"><ele>243.0</ele><time>2026-04-30T16:48:52.999Z</time></trkpt><trkpt lat="42.18948143889924" lon="12.318490859871444"><ele>243.0</ele><time>2026-04-30T16:48:53.999Z</time></trkpt><trkpt lat="42.18966886930071" lon="12.318228054540748"><ele>243.0</ele><time>2026-04-30T16:48:54.999Z</time></trkpt><trkpt lat="42.18985252039251" lon="12.317968418844464"><ele>244.0</ele><time>2026-04-30T16:48:55.999Z</time></trkpt><trkpt lat="42.190046168101695" lon="12.31769607717851"><ele>245.0</ele><time>2026-04-30T16:48:56.999Z</time></trkpt><trkpt lat="42.1902305319766" lon="12.31743199826996"><ele>245.5</ele><time>2026-04-30T16:48:57.999Z</time></trkpt><trkpt lat="42.19040800384231" lon="12.317177791368163"><ele>246.0</ele><time>2026-04-30T16:48:58.999Z</time></trkpt><trkpt lat="42.19058093168577" lon="12.316928768501581"><ele>247.5</ele><time>2026-04-30T16:48:59.999Z</time></trkpt><trkpt lat="42.19075823006961" lon="12.316672656764977"><ele>249.0</ele><time>2026-04-30T16:49:00.999Z</time></trkpt><trkpt lat="42.19094238542466" lon="12.316406640219425"><ele>250.0</ele><time>2026-04-30T16:49:01.999Z</time></trkpt><trkpt lat="42.19112761039286" lon="12.316139078475116"><ele>251.0</ele><time>2026-04-30T16:49:02.999Z</time></trkpt><trkpt lat="42.191326571635955" lon="12.31585842505898"><ele>253.0</ele><time>2026-04-30T16:49:03.999Z</time></trkpt><trkpt lat="42.191533901449354" lon="12.315580788532953"><ele>255.0</ele><time>2026-04-30T16:49:04.999Z</time></trkpt><trkpt lat="42.19174481955877" lon="12.315317960641213"><ele>255.5</ele><time>2026-04-30T16:49:05.999Z</time></trkpt><trkpt lat="42.19195228284121" lon="12.315071120505436"><ele>256.0</ele><time>2026-04-30T16:49:06.999Z</time></trkpt><trkpt lat="42.19216117776146" lon="12.314852766016832"><ele>257.0</ele><time>2026-04-30T16:49:07.999Z</time></trkpt><trkpt lat="42.19238246516797" lon="12.314656006833173"><ele>258.0</ele><time>2026-04-30T16:49:08.999Z</time></trkpt><trkpt lat="42.19259773862948" lon="12.314486423448377"><ele>258.0</ele><time>2026-04-30T16:49:09.999Z</time></trkpt><trkpt lat="42.19282423568359" lon="12.314326053050392"><ele>258.0</ele><time>2026-04-30T16:49:10.999Z</time></trkpt><trkpt lat="42.19303930502928" lon="12.314190068094396"><ele>257.5</ele><time>2026-04-30T16:49:11.999Z</time></trkpt><trkpt lat="42.193256048958965" lon="12.314074349741235"><ele>257.0</ele><time>2026-04-30T16:49:12.999Z</time></trkpt><trkpt lat="42.19347811736754" lon="12.31393274170704"><ele>258.5</ele><time>2026-04-30T16:49:13.999Z</time></trkpt><trkpt lat="42.19370898810651" lon="12.313799279964417"><ele>260.0</ele><time>2026-04-30T16:49:14.999Z</time></trkpt><trkpt lat="42.19393021771576" lon="12.313739998250737"><ele>260.0</ele><time>2026-04-30T16:49:15.999Z</time></trkpt><trkpt lat="42.19413868599313" lon="12.313681236230867"><ele>260.0</ele><time>2026-04-30T16:49:16.999Z</time></trkpt><trkpt lat="42.194339758521245" lon="12.313633146729032"><ele>260.0</ele><time>2026-04-30T16:49:17.999Z</time></trkpt><trkpt lat="42.19454647812235" lon="12.313583709917314"><ele>260.0</ele><time>2026-04-30T16:49:18.999Z</time></trkpt><trkpt lat="42.19475375452567" lon="12.313529752123271"><ele>260.0</ele><time>2026-04-30T16:49:19.999Z</time></trkpt><trkpt lat="42.194977151305906" lon="12.313410850149255"><ele>260.0</ele><time>2026-04-30T16:49:20.999Z</time></trkpt><trkpt lat="42.19521884242477" lon="12.313367159369404"><ele>260.0</ele><time>2026-04-30T16:49:21.999Z</time></trkpt><trkpt lat="42.19546688054767" lon="12.313324062117594"><ele>258.0</ele><time>2026-04-30T16:49:22.999Z</time></trkpt><trkpt lat="42.19571230074972" lon="12.31327883951789"><ele>256.0</ele><time>2026-04-30T16:49:23.999Z</time></trkpt><trkpt lat="42.195952606957306" lon="12.313235631417461"><ele>256.0</ele><time>2026-04-30T16:49:24.999Z</time></trkpt><trkpt lat="42.19619887016338" lon="12.313181162239818"><ele>256.0</ele><time>2026-04-30T16:49:25.999Z</time></trkpt><trkpt lat="42.196451526477766" lon="12.313129518877382"><ele>255.5</ele><time>2026-04-30T16:49:26.999Z</time></trkpt><trkpt lat="42.19669776889669" lon="12.31308498099239"><ele>255.0</ele><time>2026-04-30T16:49:27.999Z</time></trkpt><trkpt lat="42.19695531591389" lon="12.31303684557531"><ele>255.5</ele><time>2026-04-30T16:49:29Z</time></trkpt><trkpt lat="42.197206018497155" lon="12.312981823723385"><ele>256.0</ele><time>2026-04-30T16:49:30Z</time></trkpt><trkpt lat="42.19745070605891" lon="12.312935714017135"><ele>256.0</ele><time>2026-04-30T16:49:31Z</time></trkpt><trkpt lat="42.19770168930687" lon="12.312881424124173"><ele>256.0</ele><time>2026-04-30T16:49:32Z</time></trkpt><trkpt lat="42.1979570916293" lon="12.31282052241411"><ele>255.5</ele><time>2026-04-30T16:49:33Z</time></trkpt><trkpt lat="42.19820510407179" lon="12.312759059289329"><ele>255.0</ele><time>2026-04-30T16:49:34Z</time></trkpt><trkpt lat="42.19845488815486" lon="12.312696843733445"><ele>255.0</ele><time>2026-04-30T16:49:35Z</time></trkpt><trkpt lat="42.198699950600165" lon="12.312626268300006"><ele>255.0</ele><time>2026-04-30T16:49:36Z</time></trkpt><trkpt lat="42.19894219423559" lon="12.31254270516605"><ele>254.5</ele><time>2026-04-30T16:49:37Z</time></trkpt><trkpt lat="42.19917221166503" lon="12.312450717967105"><ele>254.0</ele><time>2026-04-30T16:49:38Z</time></trkpt><trkpt lat="42.199386955764716" lon="12.312334395113526"><ele>255.0</ele><time>2026-04-30T16:49:39Z</time></trkpt><trkpt lat="42.1995942845996" lon="12.312208176041139"><ele>256.0</ele><time>2026-04-30T16:49:40Z</time></trkpt><trkpt lat="42.19979199563143" lon="12.312066608808655"><ele>254.5</ele><time>2026-04-30T16:49:41Z</time></trkpt><trkpt lat="42.19998410730106" lon="12.311908478024666"><ele>253.0</ele><time>2026-04-30T16:49:42Z</time></trkpt><trkpt lat="42.20017071402219" lon="12.311737179555243"><ele>253.0</ele><time>2026-04-30T16:49:43Z</time></trkpt><trkpt lat="42.200344599356285" lon="12.311567344924983"><ele>253.0</ele><time>2026-04-30T16:49:44Z</time></trkpt><trkpt lat="42.20053028641579" lon="12.311405086527078"><ele>253.0</ele><time>2026-04-30T16:49:45Z</time></trkpt><trkpt lat="42.2007165574271" lon="12.311230745198541"><ele>251.0</ele><time>2026-04-30T16:49:46Z</time></trkpt><trkpt lat="42.20089670468811" lon="12.311066125610248"><ele>249.0</ele><time>2026-04-30T16:49:47Z</time></trkpt><trkpt lat="42.20107817394335" lon="12.310912138530417"><ele>247.0</ele><time>2026-04-30T16:49:48Z</time></trkpt><trkpt lat="42.201262509687254" lon="12.310745165103894"><ele>245.5</ele><time>2026-04-30T16:49:49Z</time></trkpt><trkpt lat="42.20145295907515" lon="12.310565648147241"><ele>244.0</ele><time>2026-04-30T16:49:50Z</time></trkpt><trkpt lat="42.201643846815585" lon="12.310391690870365"><ele>243.5</ele><time>2026-04-30T16:49:51Z</time></trkpt><trkpt lat="42.20183976088667" lon="12.31021653074138"><ele>243.0</ele><time>2026-04-30T16:49:52Z</time></trkpt><trkpt lat="42.20203868179856" lon="12.310046600381614"><ele>243.0</ele><time>2026-04-30T16:49:53Z</time></trkpt><trkpt lat="42.20224674225872" lon="12.309886819259187"><ele>243.0</ele><time>2026-04-30T16:49:54Z</time></trkpt><trkpt lat="42.202462080267516" lon="12.309723670779956"><ele>241.5</ele><time>2026-04-30T16:49:55Z</time></trkpt><trkpt lat="42.20268013207621" lon="12.309566089414169"><ele>240.0</ele><time>2026-04-30T16:49:56Z</time></trkpt><trkpt lat="42.20289081296582" lon="12.30941345056684"><ele>240.0</ele><time>2026-04-30T16:49:57Z</time></trkpt><trkpt lat="42.20310285881145" lon="12.30926491671549"><ele>240.0</ele><time>2026-04-30T16:49:58Z</time></trkpt><trkpt lat="42.203314846306945" lon="12.309123675223248"><ele>240.33333333333331</ele><time>2026-04-30T16:49:59Z</time></trkpt><trkpt lat="42.2035063868862" lon="12.308976041473242"><ele>240.66666666666666</ele><time>2026-04-30T16:50:00Z</time></trkpt><trkpt lat="42.20370437469142" lon="12.30884405372498"><ele>241.0</ele><time>2026-04-30T16:50:01Z</time></trkpt><trkpt lat="42.20386928110166" lon="12.30873622704504"><ele>239.33333333333331</ele><time>2026-04-30T16:50:02Z</time></trkpt><trkpt lat="42.20405876309552" lon="12.308625071592306"><ele>237.66666666666669</ele><time>2026-04-30T16:50:03Z</time></trkpt><trkpt lat="42.204244362342244" lon="12.308517810710393"><ele>236.0</ele><time>2026-04-30T16:50:04Z</time></trkpt><trkpt lat="42.204427145270934" lon="12.30840942079841"><ele>236.0</ele><time>2026-04-30T16:50:05Z</time></trkpt><trkpt lat="42.20461868910285" lon="12.308306048739311"><ele>236.0</ele><time>2026-04-30T16:50:06Z</time></trkpt><trkpt lat="42.20481802345004" lon="12.30820306055713"><ele>236.0</ele><time>2026-04-30T16:50:07Z</time></trkpt><trkpt lat="42.205005580140565" lon="12.30809196326935"><ele>237.0</ele><time>2026-04-30T16:50:08Z</time></trkpt><trkpt lat="42.20519041427011" lon="12.30798923897166"><ele>238.0</ele><time>2026-04-30T16:50:09Z</time></trkpt><trkpt lat="42.20538499741103" lon="12.30788358429477"><ele>239.0</ele><time>2026-04-30T16:50:10Z</time></trkpt><trkpt lat="42.20557890302679" lon="12.307777164427888"><ele>239.33333333333334</ele><time>2026-04-30T16:50:11Z</time></trkpt><trkpt lat="42.20576158233177" lon="12.30766386944423"><ele>239.66666666666669</ele><time>2026-04-30T16:50:12Z</time></trkpt><trkpt lat="42.20593283560747" lon="12.307547688180737"><ele>240.0</ele><time>2026-04-30T16:50:13Z</time></trkpt><trkpt lat="42.206091504077015" lon="12.307429025617848"><ele>240.0</ele><time>2026-04-30T16:50:14Z</time></trkpt><trkpt lat="42.20623066547439" lon="12.307313202027586"><ele>240.0</ele><time>2026-04-30T16:50:15Z</time></trkpt><trkpt lat="42.20636406758448" lon="12.30719853607714"><ele>240.0</ele><time>2026-04-30T16:50:16Z</time></trkpt><trkpt lat="42.20648172760566" lon="12.307078910465403"><ele>241.5</ele><time>2026-04-30T16:50:17Z</time></trkpt><trkpt lat="42.206595379788325" lon="12.306950899176304"><ele>243.0</ele><time>2026-04-30T16:50:18Z</time></trkpt><trkpt lat="42.20669480795533" lon="12.306833864640407"><ele>244.5</ele><time>2026-04-30T16:50:19Z</time></trkpt><trkpt lat="42.206805368819346" lon="12.306712422219457"><ele>246.0</ele><time>2026-04-30T16:50:20Z</time></trkpt><trkpt lat="42.20692461763917" lon="12.306596302517642"><ele>246.0</ele><time>2026-04-30T16:50:21Z</time></trkpt><trkpt lat="42.2070260018331" lon="12.30653558381079"><ele>246.00000000000003</ele><time>2026-04-30T16:50:22Z</time></trkpt><trkpt lat="42.20712347113032" lon="12.306488742809144"><ele>246.00000000000003</ele><time>2026-04-30T16:50:23Z</time></trkpt><trkpt lat="42.20722054894312" lon="12.306458817480904"><ele>246.0</ele><time>2026-04-30T16:50:24Z</time></trkpt><trkpt lat="42.20733002784495" lon="12.306414675077761"><ele>246.0</ele><time>2026-04-30T16:50:25Z</time></trkpt><trkpt lat="42.207422592210314" lon="12.306387092910201"><ele>246.5</ele><time>2026-04-30T16:50:26Z</time></trkpt><trkpt lat="42.20752760139079" lon="12.306350101982277"><ele>247.0</ele><time>2026-04-30T16:50:27Z</time></trkpt><trkpt lat="42.20763596416829" lon="12.3063048219068"><ele>247.5</ele><time>2026-04-30T16:50:28Z</time></trkpt><trkpt lat="42.20775043033645" lon="12.306244841871449"><ele>248.0</ele><time>2026-04-30T16:50:29Z</time></trkpt><trkpt lat="42.207869681686475" lon="12.306184246911426"><ele>248.0</ele><time>2026-04-30T16:50:30Z</time></trkpt><trkpt lat="42.20797887232538" lon="12.3061203069076"><ele>248.0</ele><time>2026-04-30T16:50:31Z</time></trkpt><trkpt lat="42.20812195632035" lon="12.30613748993769"><ele>248.0</ele><time>2026-04-30T16:50:32Z</time></trkpt><trkpt lat="42.208252422879205" lon="12.306084488010782"><ele>248.0</ele><time>2026-04-30T16:50:33Z</time></trkpt><trkpt lat="42.20837498337542" lon="12.306049292810293"><ele>248.0</ele><time>2026-04-30T16:50:34Z</time></trkpt><trkpt lat="42.2085053634065" lon="12.306017941041265"><ele>248.0</ele><time>2026-04-30T16:50:35Z</time></trkpt><trkpt lat="42.208639236616456" lon="12.305994127301288"><ele>248.0</ele><time>2026-04-30T16:50:36Z</time></trkpt><trkpt lat="42.20878130892491" lon="12.305987031585117"><ele>248.0</ele><time>2026-04-30T16:50:37Z</time></trkpt><trkpt lat="42.208935526103275" lon="12.305987729509011"><ele>246.66666666666669</ele><time>2026-04-30T16:50:38Z</time></trkpt><trkpt lat="42.209091254727234" lon="12.305999491845073"><ele>245.33333333333331</ele><time>2026-04-30T16:50:39Z</time></trkpt><trkpt lat="42.20925587828225" lon="12.306014850628383"><ele>244.0</ele><time>2026-04-30T16:50:40Z</time></trkpt><trkpt lat="42.209427094878" lon="12.306033387558726"><ele>244.0</ele><time>2026-04-30T16:50:41Z</time></trkpt><trkpt lat="42.209603624115786" lon="12.306050360213117"><ele>244.0</ele><time>2026-04-30T16:50:42Z</time></trkpt><trkpt lat="42.209778531204684" lon="12.306064850979904"><ele>244.0</ele><time>2026-04-30T16:50:43Z</time></trkpt><trkpt lat="42.209962837629696" lon="12.306074001255656"><ele>241.0</ele><time>2026-04-30T16:50:44Z</time></trkpt><trkpt lat="42.21015107398757" lon="12.306061208735255"><ele>238.0</ele><time>2026-04-30T16:50:45Z</time></trkpt><trkpt lat="42.210343734076396" lon="12.306032561610568"><ele>235.0</ele><time>2026-04-30T16:50:46Z</time></trkpt><trkpt lat="42.21054179103544" lon="12.305985080181996"><ele>232.0</ele><time>2026-04-30T16:50:47Z</time></trkpt><trkpt lat="42.21072165701791" lon="12.305937631693702"><ele>229.0</ele><time>2026-04-30T16:50:48Z</time></trkpt><trkpt lat="42.21090180973234" lon="12.305889465628304"><ele>226.0</ele><time>2026-04-30T16:50:49Z</time></trkpt><trkpt lat="42.21109517637352" lon="12.305838425746717"><ele>226.0</ele><time>2026-04-30T16:50:50Z</time></trkpt><trkpt lat="42.21130172389394" lon="12.30578390671044"><ele>226.0</ele><time>2026-04-30T16:50:51Z</time></trkpt><trkpt lat="42.21153122456759" lon="12.30572332913425"><ele>226.0</ele><time>2026-04-30T16:50:51.999Z</time></trkpt><trkpt lat="42.21176422864153" lon="12.305662100989382"><ele>223.5</ele><time>2026-04-30T16:50:52.999Z</time></trkpt><trkpt lat="42.21203641009874" lon="12.305590866205417"><ele>221.0</ele><time>2026-04-30T16:50:53.999Z</time></trkpt><trkpt lat="42.2122704838979" lon="12.305526436788908"><ele>216.0</ele><time>2026-04-30T16:50:54.999Z</time></trkpt><trkpt lat="42.2125068001816" lon="12.305466242397415"><ele>211.0</ele><time>2026-04-30T16:50:55.999Z</time></trkpt><trkpt lat="42.21273249714236" lon="12.305408477489848"><ele>211.0</ele><time>2026-04-30T16:50:56.999Z</time></trkpt><trkpt lat="42.21295710499407" lon="12.305350303243657"><ele>211.0</ele><time>2026-04-30T16:50:57.999Z</time></trkpt><trkpt lat="42.21318388350229" lon="12.305309677793513"><ele>210.66666666666666</ele><time>2026-04-30T16:50:58.999Z</time></trkpt><trkpt lat="42.21341107824548" lon="12.30529565092616"><ele>210.33333333333331</ele><time>2026-04-30T16:50:59.999Z</time></trkpt><trkpt lat="42.21361860928437" lon="12.305238181742952"><ele>210.0</ele><time>2026-04-30T16:51:00.999Z</time></trkpt><trkpt lat="42.21383435498779" lon="12.305191971301289"><ele>210.66666666666669</ele><time>2026-04-30T16:51:01.999Z</time></trkpt><trkpt lat="42.21403301783405" lon="12.305152092984585"><ele>211.33333333333334</ele><time>2026-04-30T16:51:02.999Z</time></trkpt><trkpt lat="42.21422080423107" lon="12.305102187087538"><ele>212.0</ele><time>2026-04-30T16:51:03.999Z</time></trkpt><trkpt lat="42.21441215999254" lon="12.305067267748475"><ele>212.0</ele><time>2026-04-30T16:51:04.999Z</time></trkpt><trkpt lat="42.214588823703565" lon="12.304991122868653"><ele>212.0</ele><time>2026-04-30T16:51:05.999Z</time></trkpt><trkpt lat="42.21476023694842" lon="12.304940219522084"><ele>212.0</ele><time>2026-04-30T16:51:06.999Z</time></trkpt><trkpt lat="42.214949705005196" lon="12.3048655164066"><ele>211.66666666666669</ele><time>2026-04-30T16:51:07.999Z</time></trkpt><trkpt lat="42.215140325922405" lon="12.304782416256552"><ele>211.33333333333331</ele><time>2026-04-30T16:51:08.999Z</time></trkpt><trkpt lat="42.215331136529365" lon="12.304697307936962"><ele>211.0</ele><time>2026-04-30T16:51:09.999Z</time></trkpt><trkpt lat="42.215513742673394" lon="12.304613312486135"><ele>211.0</ele><time>2026-04-30T16:51:10.999Z</time></trkpt><trkpt lat="42.21569820111236" lon="12.304528465003928"><ele>211.0</ele><time>2026-04-30T16:51:11.999Z</time></trkpt><trkpt lat="42.21590345046418" lon="12.304434054071198"><ele>211.0</ele><time>2026-04-30T16:51:12.999Z</time></trkpt><trkpt lat="42.21609942420906" lon="12.304343909657732"><ele>211.0</ele><time>2026-04-30T16:51:13.999Z</time></trkpt><trkpt lat="42.2162950869795" lon="12.30425071035054"><ele>211.0</ele><time>2026-04-30T16:51:14.999Z</time></trkpt><trkpt lat="42.21647873201686" lon="12.304168126352783"><ele>211.0</ele><time>2026-04-30T16:51:15.999Z</time></trkpt><trkpt lat="42.216682874375074" lon="12.304093750458401"><ele>212.33333333333331</ele><time>2026-04-30T16:51:16.999Z</time></trkpt><trkpt lat="42.216888112032215" lon="12.304064835949736"><ele>213.66666666666669</ele><time>2026-04-30T16:51:17.999Z</time></trkpt><trkpt lat="42.21710865179404" lon="12.30409996353412"><ele>215.0</ele><time>2026-04-30T16:51:18.999Z</time></trkpt><trkpt lat="42.217322620058454" lon="12.304189445494734"><ele>215.33333333333334</ele><time>2026-04-30T16:51:19.999Z</time></trkpt><trkpt lat="42.21750145539005" lon="12.304252229198994"><ele>215.66666666666669</ele><time>2026-04-30T16:51:20.999Z</time></trkpt><trkpt lat="42.217666416289305" lon="12.30429357903533"><ele>216.0</ele><time>2026-04-30T16:51:21.999Z</time></trkpt><trkpt lat="42.21783107255189" lon="12.304325423276685"><ele>216.0</ele><time>2026-04-30T16:51:22.999Z</time></trkpt><trkpt lat="42.21795909769483" lon="12.304388176789695"><ele>216.0</ele><time>2026-04-30T16:51:23.999Z</time></trkpt><trkpt lat="42.21806689063695" lon="12.304437405692369"><ele>216.0</ele><time>2026-04-30T16:51:24.999Z</time></trkpt><trkpt lat="42.21816479626528" lon="12.304483220932802"><ele>216.0</ele><time>2026-04-30T16:51:25.999Z</time></trkpt><trkpt lat="42.218271013589636" lon="12.304532047106727"><ele>215.60000000000002</ele><time>2026-04-30T16:51:26.999Z</time></trkpt><trkpt lat="42.218385320669334" lon="12.30458459199483"><ele>215.20000000000002</ele><time>2026-04-30T16:51:27.999Z</time></trkpt><trkpt lat="42.21847261788723" lon="12.304624720939266"><ele>214.79999999999998</ele><time>2026-04-30T16:51:28.999Z</time></trkpt><trkpt lat="42.21857735463094" lon="12.304672866436718"><ele>214.39999999999998</ele><time>2026-04-30T16:51:29.999Z</time></trkpt><trkpt lat="42.21867742733068" lon="12.30471886788207"><ele>214.0</ele><time>2026-04-30T16:51:30.999Z</time></trkpt><trkpt lat="42.21875811099667" lon="12.304755956572178"><ele>214.0</ele><time>2026-04-30T16:51:31.999Z</time></trkpt><trkpt lat="42.21886646466093" lon="12.30474001235497"><ele>213.99999999999997</ele><time>2026-04-30T16:51:32.999Z</time></trkpt><trkpt lat="42.21894930857893" lon="12.304780536975795"><ele>213.99999999999997</ele><time>2026-04-30T16:51:34Z</time></trkpt><trkpt lat="42.219045833909476" lon="12.304832121082764"><ele>214.0</ele><time>2026-04-30T16:51:35Z</time></trkpt><trkpt lat="42.21914802570568" lon="12.304888705942778"><ele>214.0</ele><time>2026-04-30T16:51:36Z</time></trkpt><trkpt lat="42.21924869912504" lon="12.304927490740177"><ele>215.5</ele><time>2026-04-30T16:51:37Z</time></trkpt><trkpt lat="42.219354554420725" lon="12.304970351570335"><ele>217.0</ele><time>2026-04-30T16:51:38Z</time></trkpt><trkpt lat="42.219467418740194" lon="12.305021979680673"><ele>218.5</ele><time>2026-04-30T16:51:39Z</time></trkpt><trkpt lat="42.21958412649709" lon="12.305073588642887"><ele>220.0</ele><time>2026-04-30T16:51:40Z</time></trkpt><trkpt lat="42.219711279220114" lon="12.305145817925732"><ele>221.25</ele><time>2026-04-30T16:51:41Z</time></trkpt><trkpt lat="42.219822725485756" lon="12.30519155951364"><ele>222.5</ele><time>2026-04-30T16:51:42Z</time></trkpt><trkpt lat="42.219938904867604" lon="12.305242434597929"><ele>223.75</ele><time>2026-04-30T16:51:43Z</time></trkpt><trkpt lat="42.22006901660924" lon="12.30529789593458"><ele>225.0</ele><time>2026-04-30T16:51:44Z</time></trkpt><trkpt lat="42.22019287405093" lon="12.305353215113533"><ele>225.0</ele><time>2026-04-30T16:51:45Z</time></trkpt><trkpt lat="42.22031618597104" lon="12.305414784279115"><ele>225.0</ele><time>2026-04-30T16:51:46Z</time></trkpt><trkpt lat="42.2204371938676" lon="12.305476440840485"><ele>225.0</ele><time>2026-04-30T16:51:47Z</time></trkpt><trkpt lat="42.2205544356848" lon="12.305531296119954"><ele>225.0</ele><time>2026-04-30T16:51:48Z</time></trkpt><trkpt lat="42.220671203931616" lon="12.305593416775748"><ele>226.4</ele><time>2026-04-30T16:51:49Z</time></trkpt><trkpt lat="42.22078189493597" lon="12.305656012782277"><ele>227.8</ele><time>2026-04-30T16:51:50Z</time></trkpt><trkpt lat="42.220882824210534" lon="12.305714868250057"><ele>229.2</ele><time>2026-04-30T16:51:51Z</time></trkpt><trkpt lat="42.22097659122738" lon="12.305775739337882"><ele>230.6</ele><time>2026-04-30T16:51:52Z</time></trkpt><trkpt lat="42.22106272062266" lon="12.305845509242257"><ele>232.0</ele><time>2026-04-30T16:51:53Z</time></trkpt><trkpt lat="42.22114662796064" lon="12.305921523411893"><ele>232.0</ele><time>2026-04-30T16:51:54Z</time></trkpt><trkpt lat="42.221232636351715" lon="12.3060166666228"><ele>232.0</ele><time>2026-04-30T16:51:55Z</time></trkpt><trkpt lat="42.22133094195377" lon="12.306100275167411"><ele>232.0</ele><time>2026-04-30T16:51:56Z</time></trkpt><trkpt lat="42.22143495250153" lon="12.30618580994434"><ele>232.0</ele><time>2026-04-30T16:51:57Z</time></trkpt><trkpt lat="42.221526481828256" lon="12.306304393041847"><ele>232.5</ele><time>2026-04-30T16:51:58Z</time></trkpt><trkpt lat="42.22162654826261" lon="12.306430562912547"><ele>233.0</ele><time>2026-04-30T16:51:59Z</time></trkpt><trkpt lat="42.2217405505555" lon="12.306535695644852"><ele>233.5</ele><time>2026-04-30T16:52:00Z</time></trkpt><trkpt lat="42.2218557634157" lon="12.306632549848873"><ele>234.0</ele><time>2026-04-30T16:52:01Z</time></trkpt><trkpt lat="42.221967530264514" lon="12.306739699558578"><ele>234.0</ele><time>2026-04-30T16:52:02Z</time></trkpt><trkpt lat="42.2220853808203" lon="12.306834185530397"><ele>234.0</ele><time>2026-04-30T16:52:03Z</time></trkpt><trkpt lat="42.22220475347819" lon="12.306952558906987"><ele>234.0</ele><time>2026-04-30T16:52:04Z</time></trkpt><trkpt lat="42.2223249182341" lon="12.307073037994051"><ele>234.0</ele><time>2026-04-30T16:52:05Z</time></trkpt><trkpt lat="42.222451958256414" lon="12.307195636932907"><ele>234.66666666666669</ele><time>2026-04-30T16:52:06Z</time></trkpt><trkpt lat="42.22257515913956" lon="12.307336044568702"><ele>235.33333333333334</ele><time>2026-04-30T16:52:07Z</time></trkpt><trkpt lat="42.222693685142495" lon="12.307449750312825"><ele>236.0</ele><time>2026-04-30T16:52:08Z</time></trkpt><trkpt lat="42.22282439926861" lon="12.307563025897698"><ele>236.0</ele><time>2026-04-30T16:52:09Z</time></trkpt><trkpt lat="42.22296784039514" lon="12.307687539646983"><ele>236.0</ele><time>2026-04-30T16:52:10Z</time></trkpt><trkpt lat="42.223107630012315" lon="12.3078197209696"><ele>236.0</ele><time>2026-04-30T16:52:11Z</time></trkpt><trkpt lat="42.223244736156296" lon="12.30795660159107"><ele>235.66666666666669</ele><time>2026-04-30T16:52:12Z</time></trkpt><trkpt lat="42.22338036299607" lon="12.308088897255576"><ele>235.33333333333331</ele><time>2026-04-30T16:52:13Z</time></trkpt><trkpt lat="42.22351859423664" lon="12.308220984387834"><ele>235.0</ele><time>2026-04-30T16:52:14Z</time></trkpt><trkpt lat="42.22366183411355" lon="12.30835985602789"><ele>235.0</ele><time>2026-04-30T16:52:15Z</time></trkpt><trkpt lat="42.22381035713395" lon="12.30849715653362"><ele>235.0</ele><time>2026-04-30T16:52:16Z</time></trkpt><trkpt lat="42.223964485680696" lon="12.308638635668926"><ele>235.0</ele><time>2026-04-30T16:52:17Z</time></trkpt><trkpt lat="42.22412111839853" lon="12.308774750891601"><ele>233.0</ele><time>2026-04-30T16:52:18Z</time></trkpt><trkpt lat="42.224264094269465" lon="12.308927547547542"><ele>231.0</ele><time>2026-04-30T16:52:19Z</time></trkpt><trkpt lat="42.22440563625121" lon="12.309095268347907"><ele>229.0</ele><time>2026-04-30T16:52:20Z</time></trkpt><trkpt lat="42.22455987493876" lon="12.309260376955994"><ele>229.0</ele><time>2026-04-30T16:52:21Z</time></trkpt><trkpt lat="42.224727955375315" lon="12.309430069452745"><ele>229.0</ele><time>2026-04-30T16:52:22Z</time></trkpt><trkpt lat="42.22489803347128" lon="12.30959572739301"><ele>229.0</ele><time>2026-04-30T16:52:23Z</time></trkpt><trkpt lat="42.225048270646376" lon="12.309753186377613"><ele>228.33333333333331</ele><time>2026-04-30T16:52:24Z</time></trkpt><trkpt lat="42.22521300619614" lon="12.309914677657316"><ele>227.66666666666669</ele><time>2026-04-30T16:52:25Z</time></trkpt><trkpt lat="42.225395906212796" lon="12.310061326401277"><ele>227.0</ele><time>2026-04-30T16:52:26Z</time></trkpt><trkpt lat="42.22556413153551" lon="12.310203662914844"><ele>225.66666666666669</ele><time>2026-04-30T16:52:27Z</time></trkpt><trkpt lat="42.225728703963924" lon="12.310352448798124"><ele>224.33333333333331</ele><time>2026-04-30T16:52:28Z</time></trkpt><trkpt lat="42.225900864255266" lon="12.31049948680018"><ele>223.0</ele><time>2026-04-30T16:52:29Z</time></trkpt><trkpt lat="42.226069290481234" lon="12.310648534628662"><ele>223.0</ele><time>2026-04-30T16:52:30Z</time></trkpt><trkpt lat="42.22624333394437" lon="12.31079761805744"><ele>223.0</ele><time>2026-04-30T16:52:31Z</time></trkpt><trkpt lat="42.22642449156821" lon="12.310966301819072"><ele>223.0</ele><time>2026-04-30T16:52:32Z</time></trkpt><trkpt lat="42.226602568678935" lon="12.311130644413764"><ele>222.33333333333331</ele><time>2026-04-30T16:52:33Z</time></trkpt><trkpt lat="42.22676828537702" lon="12.311325281552053"><ele>221.66666666666669</ele><time>2026-04-30T16:52:34Z</time></trkpt><trkpt lat="42.22693668426756" lon="12.311518154018646"><ele>221.0</ele><time>2026-04-30T16:52:35Z</time></trkpt><trkpt lat="42.227130231353115" lon="12.311682041434587"><ele>223.5</ele><time>2026-04-30T16:52:36Z</time></trkpt><trkpt lat="42.22734343755211" lon="12.311861357383718"><ele>226.0</ele><time>2026-04-30T16:52:37Z</time></trkpt><trkpt lat="42.22754467558687" lon="12.312054402159992"><ele>226.0</ele><time>2026-04-30T16:52:38Z</time></trkpt><trkpt lat="42.22773045649063" lon="12.31222535321162"><ele>226.0</ele><time>2026-04-30T16:52:39Z</time></trkpt><trkpt lat="42.227932988030574" lon="12.312391973090381"><ele>228.0</ele><time>2026-04-30T16:52:40Z</time></trkpt><trkpt lat="42.228118019343285" lon="12.312557477547186"><ele>230.0</ele><time>2026-04-30T16:52:41Z</time></trkpt><trkpt lat="42.22831422954184" lon="12.312717173774143"><ele>230.33333333333334</ele><time>2026-04-30T16:52:42Z</time></trkpt><trkpt lat="42.228506104572865" lon="12.31287563105263"><ele>230.66666666666669</ele><time>2026-04-30T16:52:43Z</time></trkpt><trkpt lat="42.22869765153588" lon="12.313031109330215"><ele>231.0</ele><time>2026-04-30T16:52:44Z</time></trkpt><trkpt lat="42.228880144550686" lon="12.313175141303962"><ele>233.0</ele><time>2026-04-30T16:52:45Z</time></trkpt><trkpt lat="42.22905606439581" lon="12.313315422314771"><ele>235.0</ele><time>2026-04-30T16:52:46Z</time></trkpt><trkpt lat="42.22922714709072" lon="12.313464801309632"><ele>237.0</ele><time>2026-04-30T16:52:47Z</time></trkpt><trkpt lat="42.22940095025263" lon="12.31362586853536"><ele>237.0</ele><time>2026-04-30T16:52:48Z</time></trkpt><trkpt lat="42.22957583222342" lon="12.313788851786704"><ele>237.0</ele><time>2026-04-30T16:52:49Z</time></trkpt><trkpt lat="42.2297464458911" lon="12.31397052888886"><ele>237.0</ele><time>2026-04-30T16:52:49.999Z</time></trkpt><trkpt lat="42.229904415746965" lon="12.31419378889248"><ele>237.66666666666669</ele><time>2026-04-30T16:52:50.999Z</time></trkpt><trkpt lat="42.23007479272093" lon="12.314348211297455"><ele>238.33333333333334</ele><time>2026-04-30T16:52:51.999Z</time></trkpt><trkpt lat="42.23027367641373" lon="12.314464681263646"><ele>239.0</ele><time>2026-04-30T16:52:52.999Z</time></trkpt><trkpt lat="42.23040439416122" lon="12.314664412625845"><ele>239.0</ele><time>2026-04-30T16:52:53.999Z</time></trkpt><trkpt lat="42.23050597506785" lon="12.314921462006652"><ele>239.0</ele><time>2026-04-30T16:52:54.999Z</time></trkpt><trkpt lat="42.23063579925187" lon="12.31516362143807"><ele>239.0</ele><time>2026-04-30T16:52:55.999Z</time></trkpt><trkpt lat="42.23075621081707" lon="12.31538593960599"><ele>239.33333333333334</ele><time>2026-04-30T16:52:56.999Z</time></trkpt><trkpt lat="42.23088396224424" lon="12.315618381688306"><ele>239.66666666666669</ele><time>2026-04-30T16:52:57.999Z</time></trkpt><trkpt lat="42.23103254752916" lon="12.315830623754806"><ele>240.0</ele><time>2026-04-30T16:52:58.999Z</time></trkpt><trkpt lat="42.23116623955757" lon="12.31606492614467"><ele>240.0</ele><time>2026-04-30T16:52:59.999Z</time></trkpt><trkpt lat="42.231295537578575" lon="12.316290841967296"><ele>240.0</ele><time>2026-04-30T16:53:00.999Z</time></trkpt><trkpt lat="42.23142040247684" lon="12.316491543077168"><ele>240.0</ele><time>2026-04-30T16:53:01.999Z</time></trkpt><trkpt lat="42.23155165734399" lon="12.316711658651016"><ele>239.0</ele><time>2026-04-30T16:53:02.999Z</time></trkpt><trkpt lat="42.231680194570764" lon="12.316918860264897"><ele>238.0</ele><time>2026-04-30T16:53:03.999Z</time></trkpt><trkpt lat="42.23179590175887" lon="12.317140846042841"><ele>237.0</ele><time>2026-04-30T16:53:04.999Z</time></trkpt><trkpt lat="42.23191820342483" lon="12.317396748150214"><ele>237.0</ele><time>2026-04-30T16:53:05.999Z</time></trkpt><trkpt lat="42.23203038922994" lon="12.317625156958988"><ele>237.0</ele><time>2026-04-30T16:53:06.999Z</time></trkpt><trkpt lat="42.23214111013457" lon="12.31784118940345"><ele>237.0</ele><time>2026-04-30T16:53:07.999Z</time></trkpt><trkpt lat="42.232262954428926" lon="12.318043890793257"><ele>236.66666666666669</ele><time>2026-04-30T16:53:08.999Z</time></trkpt><trkpt lat="42.23237746955528" lon="12.318247068769356"><ele>236.33333333333334</ele><time>2026-04-30T16:53:09.999Z</time></trkpt><trkpt lat="42.23249374958415" lon="12.318429410605404"><ele>236.0</ele><time>2026-04-30T16:53:10.999Z</time></trkpt><trkpt lat="42.232580624987435" lon="12.318622330787605"><ele>236.0</ele><time>2026-04-30T16:53:11.999Z</time></trkpt><trkpt lat="42.232671785779395" lon="12.318798993761972"><ele>236.0</ele><time>2026-04-30T16:53:12.999Z</time></trkpt><trkpt lat="42.23275100467604" lon="12.31893880141984"><ele>236.0</ele><time>2026-04-30T16:53:13.999Z</time></trkpt><trkpt lat="42.23283059244941" lon="12.319062758121033"><ele>236.0</ele><time>2026-04-30T16:53:14.999Z</time></trkpt><trkpt lat="42.23291099891567" lon="12.319207674839532"><ele>236.0</ele><time>2026-04-30T16:53:15.999Z</time></trkpt><trkpt lat="42.23299152060632" lon="12.319340730754003"><ele>236.0</ele><time>2026-04-30T16:53:16.999Z</time></trkpt><trkpt lat="42.233063157380215" lon="12.319487158813693"><ele>236.0</ele><time>2026-04-30T16:53:17.999Z</time></trkpt><trkpt lat="42.23312395290244" lon="12.319621523514767"><ele>236.0</ele><time>2026-04-30T16:53:18.999Z</time></trkpt><trkpt lat="42.233178096793615" lon="12.319750255112615"><ele>236.0</ele><time>2026-04-30T16:53:19.999Z</time></trkpt><trkpt lat="42.23323786398837" lon="12.319858419094325"><ele>236.00000000000003</ele><time>2026-04-30T16:53:20.999Z</time></trkpt><trkpt lat="42.23331901957014" lon="12.319960575625666"><ele>236.00000000000003</ele><time>2026-04-30T16:53:21.999Z</time></trkpt><trkpt lat="42.23335787389731" lon="12.320066952521783"><ele>236.0</ele><time>2026-04-30T16:53:22.999Z</time></trkpt><trkpt lat="42.233414364997124" lon="12.320234608747434"><ele>236.0</ele><time>2026-04-30T16:53:24.999Z</time></trkpt><trkpt lat="42.23347890918913" lon="12.32032652224761"><ele>236.0</ele><time>2026-04-30T16:53:25.999Z</time></trkpt><trkpt lat="42.23356144516565" lon="12.320390159877913"><ele>236.00000000000003</ele><time>2026-04-30T16:53:26.999Z</time></trkpt><trkpt lat="42.23365541060084" lon="12.320430363226318"><ele>236.00000000000003</ele><time>2026-04-30T16:53:27.999Z</time></trkpt><trkpt lat="42.23374326056961" lon="12.320447226265143"><ele>236.0</ele><time>2026-04-30T16:53:28.999Z</time></trkpt><trkpt lat="42.23381249613977" lon="12.320485241554765"><ele>236.0</ele><time>2026-04-30T16:53:29.999Z</time></trkpt><trkpt lat="42.23389536264893" lon="12.320562649034965"><ele>236.0</ele><time>2026-04-30T16:53:30.999Z</time></trkpt><trkpt lat="42.23396215639109" lon="12.320662394327087"><ele>236.00000000000003</ele><time>2026-04-30T16:53:31.999Z</time></trkpt><trkpt lat="42.23402808684459" lon="12.320851115905825"><ele>236.00000000000003</ele><time>2026-04-30T16:53:33.999Z</time></trkpt><trkpt lat="42.234047564102255" lon="12.320977303792525"><ele>236.0</ele><time>2026-04-30T16:53:34.999Z</time></trkpt><trkpt lat="42.2341006052278" lon="12.32105248336783"><ele>236.0</ele><time>2026-04-30T16:53:35.999Z</time></trkpt><trkpt lat="42.234163011980385" lon="12.321137687990053"><ele>236.20000000000002</ele><time>2026-04-30T16:53:36.999Z</time></trkpt><trkpt lat="42.23422074170499" lon="12.321243201377593"><ele>236.40000000000003</ele><time>2026-04-30T16:53:37.999Z</time></trkpt><trkpt lat="42.23425929976191" lon="12.3213496529169"><ele>236.6</ele><time>2026-04-30T16:53:39Z</time></trkpt><trkpt lat="42.23432845470022" lon="12.321485263822499"><ele>236.8</ele><time>2026-04-30T16:53:40Z</time></trkpt><trkpt lat="42.23438090957052" lon="12.321654230549653"><ele>237.0</ele><time>2026-04-30T16:53:41Z</time></trkpt><trkpt lat="42.2344265269527" lon="12.321820930791317"><ele>237.39999999999998</ele><time>2026-04-30T16:53:42Z</time></trkpt><trkpt lat="42.23445514295694" lon="12.321977976016068"><ele>237.79999999999998</ele><time>2026-04-30T16:53:43Z</time></trkpt><trkpt lat="42.2344764872586" lon="12.322071309190205"><ele>238.2</ele><time>2026-04-30T16:53:44Z</time></trkpt><trkpt lat="42.23451062444619" lon="12.322194299751144"><ele>238.6</ele><time>2026-04-30T16:53:45Z</time></trkpt><trkpt lat="42.23454906540747" lon="12.322348460904633"><ele>239.0</ele><time>2026-04-30T16:53:46Z</time></trkpt><trkpt lat="42.234589185759326" lon="12.322499481726634"><ele>239.33333333333334</ele><time>2026-04-30T16:53:47Z</time></trkpt><trkpt lat="42.234620967644425" lon="12.322633541725144"><ele>239.66666666666669</ele><time>2026-04-30T16:53:48Z</time></trkpt><trkpt lat="42.23468209760846" lon="12.322866363308547"><ele>240.0</ele><time>2026-04-30T16:53:49Z</time></trkpt><trkpt lat="42.2347148157081" lon="12.323084721011025"><ele>240.0</ele><time>2026-04-30T16:53:50Z</time></trkpt><trkpt lat="42.234750287237475" lon="12.323300224155869"><ele>240.0</ele><time>2026-04-30T16:53:51Z</time></trkpt><trkpt lat="42.23481415216507" lon="12.323504544625553"><ele>240.0</ele><time>2026-04-30T16:53:52Z</time></trkpt><trkpt lat="42.234882575713506" lon="12.323686485616598"><ele>240.0</ele><time>2026-04-30T16:53:53Z</time></trkpt><trkpt lat="42.234933549235016" lon="12.323847661621368"><ele>240.0</ele><time>2026-04-30T16:53:54Z</time></trkpt><trkpt lat="42.23497839687343" lon="12.32401453852717"><ele>240.0</ele><time>2026-04-30T16:53:55Z</time></trkpt><trkpt lat="42.235007076236684" lon="12.324192019969788"><ele>240.0</ele><time>2026-04-30T16:53:56Z</time></trkpt><trkpt lat="42.2350430363021" lon="12.324375936509728"><ele>240.0</ele><time>2026-04-30T16:53:57Z</time></trkpt><trkpt lat="42.23506563175696" lon="12.32458157856772"><ele>240.0</ele><time>2026-04-30T16:53:58Z</time></trkpt><trkpt lat="42.23509475403572" lon="12.324774369186251"><ele>240.0</ele><time>2026-04-30T16:53:59Z</time></trkpt><trkpt lat="42.23513143178596" lon="12.324965428343203"><ele>240.0</ele><time>2026-04-30T16:54:00Z</time></trkpt><trkpt lat="42.23516972820361" lon="12.325164708584463"><ele>239.66666666666669</ele><time>2026-04-30T16:54:01Z</time></trkpt><trkpt lat="42.23521231421233" lon="12.325372461697581"><ele>239.33333333333334</ele><time>2026-04-30T16:54:02Z</time></trkpt><trkpt lat="42.23526220095695" lon="12.325574959771709"><ele>239.0</ele><time>2026-04-30T16:54:03Z</time></trkpt><trkpt lat="42.235321724031884" lon="12.325764685503396"><ele>238.66666666666669</ele><time>2026-04-30T16:54:04Z</time></trkpt><trkpt lat="42.23537408221068" lon="12.32596423677013"><ele>238.33333333333331</ele><time>2026-04-30T16:54:05Z</time></trkpt><trkpt lat="42.23541821266771" lon="12.326173864601309"><ele>238.0</ele><time>2026-04-30T16:54:06Z</time></trkpt><trkpt lat="42.23546127303592" lon="12.326392517431845"><ele>238.0</ele><time>2026-04-30T16:54:07Z</time></trkpt><trkpt lat="42.23548583873227" lon="12.326603807678834"><ele>238.0</ele><time>2026-04-30T16:54:08Z</time></trkpt><trkpt lat="42.23552804230696" lon="12.326807961317794"><ele>238.0</ele><time>2026-04-30T16:54:09Z</time></trkpt><trkpt lat="42.23554186827813" lon="12.326990545192428"><ele>238.0</ele><time>2026-04-30T16:54:10Z</time></trkpt><trkpt lat="42.23557469983168" lon="12.32718240421634"><ele>238.0</ele><time>2026-04-30T16:54:11Z</time></trkpt><trkpt lat="42.2356060665948" lon="12.327342164242486"><ele>238.0</ele><time>2026-04-30T16:54:12Z</time></trkpt><trkpt lat="42.23565488569447" lon="12.327465116376583"><ele>238.0</ele><time>2026-04-30T16:54:13Z</time></trkpt><trkpt lat="42.23570522664003" lon="12.327582950662704"><ele>237.49999999999997</ele><time>2026-04-30T16:54:14Z</time></trkpt><trkpt lat="42.23574384822395" lon="12.32767891397285"><ele>237.0</ele><time>2026-04-30T16:54:15Z</time></trkpt><trkpt lat="42.23577524808023" lon="12.327773739064895"><ele>236.5</ele><time>2026-04-30T16:54:16Z</time></trkpt><trkpt lat="42.23583687080698" lon="12.327859419179651"><ele>236.0</ele><time>2026-04-30T16:54:17Z</time></trkpt><trkpt lat="42.23588957314168" lon="12.327948985140313"><ele>235.49999999999997</ele><time>2026-04-30T16:54:18Z</time></trkpt><trkpt lat="42.235937027091175" lon="12.32805089474473"><ele>235.0</ele><time>2026-04-30T16:54:19Z</time></trkpt><trkpt lat="42.235995211639334" lon="12.32814469796457"><ele>234.8</ele><time>2026-04-30T16:54:20Z</time></trkpt><trkpt lat="42.23605200960325" lon="12.328213254434901"><ele>234.6</ele><time>2026-04-30T16:54:21Z</time></trkpt><trkpt lat="42.236110423708794" lon="12.328294018330338"><ele>234.39999999999998</ele><time>2026-04-30T16:54:22Z</time></trkpt><trkpt lat="42.23615971986907" lon="12.328373643709378"><ele>234.2</ele><time>2026-04-30T16:54:23Z</time></trkpt><trkpt lat="42.236189504574966" lon="12.3285161647083"><ele>234.0</ele><time>2026-04-30T16:54:24Z</time></trkpt><trkpt lat="42.236256731121955" lon="12.328718282426056"><ele>234.0</ele><time>2026-04-30T16:54:26Z</time></trkpt><trkpt lat="42.2362925161119" lon="12.32883009227216"><ele>234.0</ele><time>2026-04-30T16:54:27Z</time></trkpt><trkpt lat="42.236349791622395" lon="12.328947272221333"><ele>234.0</ele><time>2026-04-30T16:54:29Z</time></trkpt><trkpt lat="42.23635720355123" lon="12.329048901217492"><ele>234.0</ele><time>2026-04-30T16:54:30Z</time></trkpt><trkpt lat="42.236379134501654" lon="12.32917832382729"><ele>234.0</ele><time>2026-04-30T16:54:31Z</time></trkpt><trkpt lat="42.23641518116605" lon="12.329273928290423"><ele>234.0</ele><time>2026-04-30T16:54:32Z</time></trkpt><trkpt lat="42.23646043837864" lon="12.329348298548906"><ele>234.16666666666666</ele><time>2026-04-30T16:54:33Z</time></trkpt><trkpt lat="42.23651797094462" lon="12.329387965554977"><ele>234.33333333333331</ele><time>2026-04-30T16:54:34Z</time></trkpt><trkpt lat="42.23657041645924" lon="12.329436709772057"><ele>234.5</ele><time>2026-04-30T16:54:35Z</time></trkpt><trkpt lat="42.236613648174306" lon="12.329517424050303"><ele>234.66666666666666</ele><time>2026-04-30T16:54:36Z</time></trkpt><trkpt lat="42.23665525562951" lon="12.329627427250848"><ele>234.83333333333331</ele><time>2026-04-30T16:54:37Z</time></trkpt><trkpt lat="42.23669908311094" lon="12.329723716179805"><ele>235.0</ele><time>2026-04-30T16:54:38Z</time></trkpt><trkpt lat="42.23675317480143" lon="12.329814008168357"><ele>235.4</ele><time>2026-04-30T16:54:39Z</time></trkpt><trkpt lat="42.23679972006354" lon="12.329908032812174"><ele>235.8</ele><time>2026-04-30T16:54:40Z</time></trkpt><trkpt lat="42.236858749711914" lon="12.32999475439615"><ele>236.2</ele><time>2026-04-30T16:54:41Z</time></trkpt><trkpt lat="42.23691805084831" lon="12.330114785131292"><ele>236.6</ele><time>2026-04-30T16:54:42Z</time></trkpt><trkpt lat="42.23697865025281" lon="12.33023396917722"><ele>237.0</ele><time>2026-04-30T16:54:43Z</time></trkpt><trkpt lat="42.2370303335256" lon="12.33034104462921"><ele>237.0</ele><time>2026-04-30T16:54:44Z</time></trkpt><trkpt lat="42.23708070122991" lon="12.330445542659175"><ele>237.0</ele><time>2026-04-30T16:54:45Z</time></trkpt><trkpt lat="42.23713383971663" lon="12.33054868562387"><ele>237.0</ele><time>2026-04-30T16:54:46Z</time></trkpt><trkpt lat="42.23718796689137" lon="12.330643490165825"><ele>237.0</ele><time>2026-04-30T16:54:47Z</time></trkpt><trkpt lat="42.23722968387469" lon="12.33075393802594"><ele>237.0</ele><time>2026-04-30T16:54:47.999Z</time></trkpt><trkpt lat="42.23726611167314" lon="12.330853176312905"><ele>237.0</ele><time>2026-04-30T16:54:48.999Z</time></trkpt><trkpt lat="42.23733250556957" lon="12.330957733137232"><ele>237.0</ele><time>2026-04-30T16:54:49.999Z</time></trkpt><trkpt lat="42.23739806003995" lon="12.331030046422466"><ele>237.0</ele><time>2026-04-30T16:54:50.999Z</time></trkpt><trkpt lat="42.237459378794796" lon="12.331102785223916"><ele>237.0</ele><time>2026-04-30T16:54:51.999Z</time></trkpt><trkpt lat="42.237511047994175" lon="12.331190985867677"><ele>237.0</ele><time>2026-04-30T16:54:52.999Z</time></trkpt><trkpt lat="42.23755550914699" lon="12.331281106630168"><ele>237.0</ele><time>2026-04-30T16:54:53.999Z</time></trkpt><trkpt lat="42.237601586283155" lon="12.331355221444595"><ele>237.0</ele><time>2026-04-30T16:54:54.999Z</time></trkpt><trkpt lat="42.23764913318264" lon="12.331434103263732"><ele>237.0</ele><time>2026-04-30T16:54:55.999Z</time></trkpt><trkpt lat="42.237701645529135" lon="12.331515417150012"><ele>237.0</ele><time>2026-04-30T16:54:56.999Z</time></trkpt><trkpt lat="42.237755677306524" lon="12.331604170902114"><ele>237.0</ele><time>2026-04-30T16:54:57.999Z</time></trkpt><trkpt lat="42.23781137836789" lon="12.33169881390007"><ele>237.0</ele><time>2026-04-30T16:54:58.999Z</time></trkpt><trkpt lat="42.23786707932199" lon="12.331799461278463"><ele>237.0</ele><time>2026-04-30T16:54:59.999Z</time></trkpt><trkpt lat="42.23792588567416" lon="12.331903211139126"><ele>237.0</ele><time>2026-04-30T16:55:00.999Z</time></trkpt><trkpt lat="42.23798790426467" lon="12.332010513133218"><ele>237.0</ele><time>2026-04-30T16:55:01.999Z</time></trkpt><trkpt lat="42.23805281036493" lon="12.332123583320081"><ele>237.0</ele><time>2026-04-30T16:55:02.999Z</time></trkpt><trkpt lat="42.238119190007794" lon="12.332237457178781"><ele>237.0</ele><time>2026-04-30T16:55:03.999Z</time></trkpt><trkpt lat="42.23818258921215" lon="12.33235151998536"><ele>237.0</ele><time>2026-04-30T16:55:04.999Z</time></trkpt><trkpt lat="42.23824487377257" lon="12.33246681009272"><ele>237.0</ele><time>2026-04-30T16:55:05.999Z</time></trkpt><trkpt lat="42.23830305660922" lon="12.33257750806646"><ele>237.0</ele><time>2026-04-30T16:55:06.999Z</time></trkpt><trkpt lat="42.23836134238452" lon="12.332683654035263"><ele>237.0</ele><time>2026-04-30T16:55:07.999Z</time></trkpt><trkpt lat="42.23842120552449" lon="12.332789344075724"><ele>237.0</ele><time>2026-04-30T16:55:08.999Z</time></trkpt><trkpt lat="42.23848037452874" lon="12.332899728694153"><ele>237.0</ele><time>2026-04-30T16:55:09.999Z</time></trkpt><trkpt lat="42.23853944621613" lon="12.333010446390473"><ele>237.0</ele><time>2026-04-30T16:55:10.999Z</time></trkpt><trkpt lat="42.2385970068709" lon="12.33311848835924"><ele>236.8</ele><time>2026-04-30T16:55:11.999Z</time></trkpt><trkpt lat="42.23865659479768" lon="12.333220655787876"><ele>236.6</ele><time>2026-04-30T16:55:12.999Z</time></trkpt><trkpt lat="42.23871211396801" lon="12.333320355865618"><ele>236.40000000000003</ele><time>2026-04-30T16:55:13.999Z</time></trkpt><trkpt lat="42.23876897803326" lon="12.333418871973942"><ele>236.20000000000002</ele><time>2026-04-30T16:55:14.999Z</time></trkpt><trkpt lat="42.23882580291498" lon="12.333518916130695"><ele>236.0</ele><time>2026-04-30T16:55:15.999Z</time></trkpt><trkpt lat="42.23888152563444" lon="12.333618866028363"><ele>236.00000000000003</ele><time>2026-04-30T16:55:16.999Z</time></trkpt><trkpt lat="42.2389356702842" lon="12.333719946069598"><ele>236.0</ele><time>2026-04-30T16:55:17.999Z</time></trkpt><trkpt lat="42.23899100023529" lon="12.333814004210652"><ele>236.0</ele><time>2026-04-30T16:55:18.999Z</time></trkpt><trkpt lat="42.23904539689207" lon="12.333904839563328"><ele>236.0</ele><time>2026-04-30T16:55:19.999Z</time></trkpt><trkpt lat="42.23909977040636" lon="12.333996660559347"><ele>236.00000000000003</ele><time>2026-04-30T16:55:20.999Z</time></trkpt><trkpt lat="42.23915502983391" lon="12.334084081969054"><ele>236.0</ele><time>2026-04-30T16:55:21.999Z</time></trkpt><trkpt lat="42.23920834228924" lon="12.33417075276832"><ele>235.4</ele><time>2026-04-30T16:55:22.999Z</time></trkpt><trkpt lat="42.23925182993729" lon="12.334246823788963"><ele>234.8</ele><time>2026-04-30T16:55:23.999Z</time></trkpt><trkpt lat="42.23931389340357" lon="12.334360957740156"><ele>234.20000000000002</ele><time>2026-04-30T16:55:25.999Z</time></trkpt><trkpt lat="42.239365872788646" lon="12.334451737638018"><ele>233.60000000000002</ele><time>2026-04-30T16:55:27.999Z</time></trkpt><trkpt lat="42.23941231116926" lon="12.334564851678712"><ele>233.0</ele><time>2026-04-30T16:55:29.999Z</time></trkpt><trkpt lat="42.23946546719709" lon="12.33470059506112"><ele>233.16666666666669</ele><time>2026-04-30T16:55:31.999Z</time></trkpt><trkpt lat="42.239551089541045" lon="12.334827100484135"><ele>233.33333333333334</ele><time>2026-04-30T16:55:33.999Z</time></trkpt><trkpt lat="42.23959490563819" lon="12.334899831698635"><ele>233.5</ele><time>2026-04-30T16:55:34.999Z</time></trkpt><trkpt lat="42.23964279529268" lon="12.334981435531521"><ele>233.66666666666669</ele><time>2026-04-30T16:55:35.999Z</time></trkpt><trkpt lat="42.23968674395696" lon="12.335060602791648"><ele>233.83333333333334</ele><time>2026-04-30T16:55:36.999Z</time></trkpt><trkpt lat="42.23973093883352" lon="12.335135631724865"><ele>234.0</ele><time>2026-04-30T16:55:37.999Z</time></trkpt><trkpt lat="42.23977833104174" lon="12.335209099603112"><ele>233.5</ele><time>2026-04-30T16:55:38.999Z</time></trkpt><trkpt lat="42.239825278824696" lon="12.335284739816203"><ele>233.0</ele><time>2026-04-30T16:55:39.999Z</time></trkpt><trkpt lat="42.2398713296505" lon="12.335362025139926"><ele>232.5</ele><time>2026-04-30T16:55:40.999Z</time></trkpt><trkpt lat="42.23991693414944" lon="12.335440801962328"><ele>232.0</ele><time>2026-04-30T16:55:41.999Z</time></trkpt><trkpt lat="42.23996380981162" lon="12.33551904079015"><ele>231.5</ele><time>2026-04-30T16:55:42.999Z</time></trkpt><trkpt lat="42.240016474350924" lon="12.335597446631297"><ele>231.0</ele><time>2026-04-30T16:55:43.999Z</time></trkpt><trkpt lat="42.24006403836483" lon="12.335679013689077"><ele>231.0</ele><time>2026-04-30T16:55:45Z</time></trkpt><trkpt lat="42.2401105159482" lon="12.335762480383558"><ele>231.0</ele><time>2026-04-30T16:55:46Z</time></trkpt><trkpt lat="42.24015442467613" lon="12.335848697047386"><ele>231.0</ele><time>2026-04-30T16:55:47Z</time></trkpt><trkpt lat="42.24019794887272" lon="12.335938760993999"><ele>231.0</ele><time>2026-04-30T16:55:48Z</time></trkpt><trkpt lat="42.24024260900169" lon="12.336027947302538"><ele>231.0</ele><time>2026-04-30T16:55:49Z</time></trkpt><trkpt lat="42.24029384248374" lon="12.33611312519962"><ele>231.0</ele><time>2026-04-30T16:55:50Z</time></trkpt><trkpt lat="42.2403493168509" lon="12.33619708695626"><ele>231.0</ele><time>2026-04-30T16:55:51Z</time></trkpt><trkpt lat="42.24040351850341" lon="12.3362801442353"><ele>231.0</ele><time>2026-04-30T16:55:52Z</time></trkpt><trkpt lat="42.24046132091696" lon="12.336363375221138"><ele>231.0</ele><time>2026-04-30T16:55:53Z</time></trkpt><trkpt lat="42.24052074538534" lon="12.336449007987504"><ele>231.0</ele><time>2026-04-30T16:55:54Z</time></trkpt><trkpt lat="42.24058772361431" lon="12.336533040686573"><ele>231.0</ele><time>2026-04-30T16:55:55Z</time></trkpt><trkpt lat="42.24065942986289" lon="12.33661293180096"><ele>231.0</ele><time>2026-04-30T16:55:56Z</time></trkpt><trkpt lat="42.2407344479339" lon="12.33669215359417"><ele>230.60000000000002</ele><time>2026-04-30T16:55:57Z</time></trkpt><trkpt lat="42.24080945851752" lon="12.336767296308505"><ele>230.20000000000002</ele><time>2026-04-30T16:55:58Z</time></trkpt><trkpt lat="42.24088723677477" lon="12.336830477775155"><ele>229.79999999999998</ele><time>2026-04-30T16:55:59Z</time></trkpt><trkpt lat="42.240962765115306" lon="12.336897911498609"><ele>229.39999999999998</ele><time>2026-04-30T16:56:00Z</time></trkpt><trkpt lat="42.24103083829292" lon="12.33697830469437"><ele>229.0</ele><time>2026-04-30T16:56:01Z</time></trkpt><trkpt lat="42.24109873119306" lon="12.33707098970552"><ele>229.0</ele><time>2026-04-30T16:56:02Z</time></trkpt><trkpt lat="42.24117577722935" lon="12.337162034630188"><ele>228.99999999999997</ele><time>2026-04-30T16:56:03Z</time></trkpt><trkpt lat="42.24125316450138" lon="12.337257678660725"><ele>228.99999999999997</ele><time>2026-04-30T16:56:04Z</time></trkpt><trkpt lat="42.24133239686135" lon="12.33735953253068"><ele>229.0</ele><time>2026-04-30T16:56:05Z</time></trkpt><trkpt lat="42.24140391976326" lon="12.337465075481598"><ele>229.0</ele><time>2026-04-30T16:56:06Z</time></trkpt><trkpt lat="42.24146798630037" lon="12.33757356517076"><ele>228.0</ele><time>2026-04-30T16:56:07Z</time></trkpt><trkpt lat="42.24151899820326" lon="12.337694052684904"><ele>226.99999999999997</ele><time>2026-04-30T16:56:08Z</time></trkpt><trkpt lat="42.24155823149196" lon="12.337818135673036"><ele>225.99999999999997</ele><time>2026-04-30T16:56:09Z</time></trkpt><trkpt lat="42.24159256510011" lon="12.337941581272249"><ele>225.0</ele><time>2026-04-30T16:56:10Z</time></trkpt><trkpt lat="42.2416216780005" lon="12.33806102411809"><ele>224.0</ele><time>2026-04-30T16:56:11Z</time></trkpt><trkpt lat="42.241646262161645" lon="12.33817810644242"><ele>224.0</ele><time>2026-04-30T16:56:12Z</time></trkpt><trkpt lat="42.24166276776814" lon="12.33828659995679"><ele>224.0</ele><time>2026-04-30T16:56:13Z</time></trkpt><trkpt lat="42.24167890384345" lon="12.33838676957494"><ele>224.0</ele><time>2026-04-30T16:56:14Z</time></trkpt><trkpt lat="42.24169683379439" lon="12.338479517345233"><ele>224.0</ele><time>2026-04-30T16:56:15Z</time></trkpt><trkpt lat="42.2417153603982" lon="12.338572104413451"><ele>224.0</ele><time>2026-04-30T16:56:16Z</time></trkpt><trkpt lat="42.24173459866181" lon="12.338659571219353"><ele>224.0</ele><time>2026-04-30T16:56:17Z</time></trkpt><trkpt lat="42.2417552536864" lon="12.338751976902058"><ele>224.0</ele><time>2026-04-30T16:56:18Z</time></trkpt><trkpt lat="42.241779897053114" lon="12.338853443146366"><ele>224.16666666666669</ele><time>2026-04-30T16:56:19Z</time></trkpt><trkpt lat="42.241800418023644" lon="12.338960364511653"><ele>224.33333333333334</ele><time>2026-04-30T16:56:20Z</time></trkpt><trkpt lat="42.24182203711589" lon="12.339072767514157"><ele>224.5</ele><time>2026-04-30T16:56:21Z</time></trkpt><trkpt lat="42.2418439322908" lon="12.339180673420987"><ele>224.66666666666669</ele><time>2026-04-30T16:56:22Z</time></trkpt><trkpt lat="42.24186732747518" lon="12.339290245336946"><ele>224.83333333333334</ele><time>2026-04-30T16:56:23Z</time></trkpt><trkpt lat="42.24189044937842" lon="12.339395608121277"><ele>225.0</ele><time>2026-04-30T16:56:24Z</time></trkpt><trkpt lat="42.241918416233375" lon="12.339496926474034"><ele>225.0</ele><time>2026-04-30T16:56:25Z</time></trkpt><trkpt lat="42.241941786709475" lon="12.339596909339141"><ele>225.0</ele><time>2026-04-30T16:56:26Z</time></trkpt><trkpt lat="42.24196193757023" lon="12.33970753999"><ele>225.0</ele><time>2026-04-30T16:56:27Z</time></trkpt><trkpt lat="42.24198659509767" lon="12.339818512592252"><ele>225.0</ele><time>2026-04-30T16:56:28Z</time></trkpt><trkpt lat="42.24201411533534" lon="12.3399332408218"><ele>225.0</ele><time>2026-04-30T16:56:29Z</time></trkpt><trkpt lat="42.24203917519991" lon="12.340049775262553"><ele>225.0</ele><time>2026-04-30T16:56:30Z</time></trkpt><trkpt lat="42.242060892933935" lon="12.340164892527957"><ele>225.0</ele><time>2026-04-30T16:56:31Z</time></trkpt><trkpt lat="42.24208128854668" lon="12.340277111401061"><ele>225.0</ele><time>2026-04-30T16:56:32Z</time></trkpt><trkpt lat="42.24210254977537" lon="12.340385347144725"><ele>225.0</ele><time>2026-04-30T16:56:33Z</time></trkpt><trkpt lat="42.242123440344514" lon="12.340492721401562"><ele>225.0</ele><time>2026-04-30T16:56:34Z</time></trkpt><trkpt lat="42.24214355042532" lon="12.34059798594537"><ele>225.0</ele><time>2026-04-30T16:56:35Z</time></trkpt><trkpt lat="42.242166411102716" lon="12.340698470791041"><ele>225.0</ele><time>2026-04-30T16:56:36Z</time></trkpt><trkpt lat="42.242194107824524" lon="12.340797453977371"><ele>225.0</ele><time>2026-04-30T16:56:37Z</time></trkpt><trkpt lat="42.24221845567887" lon="12.340893249200446"><ele>225.0</ele><time>2026-04-30T16:56:38Z</time></trkpt><trkpt lat="42.2422228345117" lon="12.340993242462078"><ele>225.0</ele><time>2026-04-30T16:56:39Z</time></trkpt><trkpt lat="42.24224191169598" lon="12.341085647570758"><ele>225.0</ele><time>2026-04-30T16:56:40Z</time></trkpt><trkpt lat="42.24225986637522" lon="12.341172615548103"><ele>225.0</ele><time>2026-04-30T16:56:41Z</time></trkpt><trkpt lat="42.24230166372537" lon="12.341327193382892"><ele>225.0</ele><time>2026-04-30T16:56:43Z</time></trkpt><trkpt lat="42.24231182480036" lon="12.341416011619495"><ele>225.33333333333334</ele><time>2026-04-30T16:56:44Z</time></trkpt><trkpt lat="42.24231555569347" lon="12.34151368436907"><ele>225.66666666666669</ele><time>2026-04-30T16:56:45Z</time></trkpt><trkpt lat="42.242316158539865" lon="12.341612087345146"><ele>226.0</ele><time>2026-04-30T16:56:46Z</time></trkpt><trkpt lat="42.24231736966997" lon="12.341706051414862"><ele>226.33333333333334</ele><time>2026-04-30T16:56:47Z</time></trkpt><trkpt lat="42.242302247836086" lon="12.341795472635965"><ele>226.66666666666669</ele><time>2026-04-30T16:56:48Z</time></trkpt><trkpt lat="42.2423685791582" lon="12.341945166725898"><ele>227.0</ele><time>2026-04-30T16:56:50Z</time></trkpt><trkpt lat="42.242428206426915" lon="12.34204303575053"><ele>227.0</ele><time>2026-04-30T16:56:52Z</time></trkpt><trkpt lat="42.24242684961161" lon="12.342212227911519"><ele>227.0</ele><time>2026-04-30T16:56:54Z</time></trkpt><trkpt lat="42.24242698892738" lon="12.342368967976542"><ele>227.0</ele><time>2026-04-30T16:56:56Z</time></trkpt><trkpt lat="42.24242742948223" lon="12.342472435547656"><ele>227.0</ele><time>2026-04-30T16:56:57Z</time></trkpt><trkpt lat="42.242423220815056" lon="12.342588997839192"><ele>227.0</ele><time>2026-04-30T16:56:58Z</time></trkpt><trkpt lat="42.24243494431327" lon="12.342701016454072"><ele>226.66666666666669</ele><time>2026-04-30T16:56:58.999Z</time></trkpt><trkpt lat="42.242440932871695" lon="12.342804322714086"><ele>226.33333333333334</ele><time>2026-04-30T16:56:59.999Z</time></trkpt><trkpt lat="42.24242457354038" lon="12.342906631797534"><ele>226.0</ele><time>2026-04-30T16:57:00.999Z</time></trkpt><trkpt lat="42.24243760358041" lon="12.343022233374327"><ele>225.66666666666669</ele><time>2026-04-30T16:57:01.999Z</time></trkpt><trkpt lat="42.24243677770583" lon="12.343144117329652"><ele>225.33333333333334</ele><time>2026-04-30T16:57:02.999Z</time></trkpt><trkpt lat="42.24243929211289" lon="12.343248410929304"><ele>225.0</ele><time>2026-04-30T16:57:03.999Z</time></trkpt><trkpt lat="42.242430895622306" lon="12.343365345493613"><ele>224.4</ele><time>2026-04-30T16:57:04.999Z</time></trkpt><trkpt lat="42.242394866106906" lon="12.343479267436527"><ele>223.8</ele><time>2026-04-30T16:57:05.999Z</time></trkpt><trkpt lat="42.24240353868331" lon="12.343592632765588"><ele>223.2</ele><time>2026-04-30T16:57:06.999Z</time></trkpt><trkpt lat="42.24239090532744" lon="12.34369924503318"><ele>222.6</ele><time>2026-04-30T16:57:07.999Z</time></trkpt><trkpt lat="42.242375906905124" lon="12.34379981566903"><ele>222.0</ele><time>2026-04-30T16:57:08.999Z</time></trkpt><trkpt lat="42.242369703445036" lon="12.343981447376342"><ele>221.8</ele><time>2026-04-30T16:57:10.999Z</time></trkpt><trkpt lat="42.242353396887424" lon="12.344133487121201"><ele>221.6</ele><time>2026-04-30T16:57:12.999Z</time></trkpt><trkpt lat="42.242405031735814" lon="12.344268073719926"><ele>221.40000000000003</ele><time>2026-04-30T16:57:14.999Z</time></trkpt><trkpt lat="42.242522257093675" lon="12.34428865130262"><ele>221.20000000000002</ele><time>2026-04-30T16:57:16.999Z</time></trkpt><trkpt lat="42.24261173494545" lon="12.34426166686396"><ele>221.0</ele><time>2026-04-30T16:57:19.999Z</time></trkpt><trkpt lat="42.242694532804094" lon="12.34423429148071"><ele>221.0</ele><time>2026-04-30T16:57:20.999Z</time></trkpt><trkpt lat="42.242789032599326" lon="12.344208926242903"><ele>221.00000000000003</ele><time>2026-04-30T16:57:21.999Z</time></trkpt><trkpt lat="42.242874686627225" lon="12.344193268286732"><ele>221.00000000000003</ele><time>2026-04-30T16:57:22.999Z</time></trkpt><trkpt lat="42.24303336636948" lon="12.344178161885607"><ele>221.0</ele><time>2026-04-30T16:57:24.999Z</time></trkpt><trkpt lat="42.243113657733325" lon="12.344185542799867"><ele>221.0</ele><time>2026-04-30T16:57:25.999Z</time></trkpt><trkpt lat="42.24319773409173" lon="12.344181816561386"><ele>220.50000000000003</ele><time>2026-04-30T16:57:26.999Z</time></trkpt><trkpt lat="42.24328041038243" lon="12.344192014951052"><ele>220.0</ele><time>2026-04-30T16:57:27.999Z</time></trkpt><trkpt lat="42.243372781404005" lon="12.344188321813702"><ele>219.5</ele><time>2026-04-30T16:57:28.999Z</time></trkpt><trkpt lat="42.24344820802523" lon="12.344200826918689"><ele>219.0</ele><time>2026-04-30T16:57:29.999Z</time></trkpt><trkpt lat="42.24353165047449" lon="12.344212260592569"><ele>218.50000000000003</ele><time>2026-04-30T16:57:30.999Z</time></trkpt><trkpt lat="42.243619443792305" lon="12.344216777375964"><ele>218.0</ele><time>2026-04-30T16:57:31.999Z</time></trkpt><trkpt lat="42.24369579050945" lon="12.344220584166036"><ele>218.0</ele><time>2026-04-30T16:57:32.999Z</time></trkpt><trkpt lat="42.243772228592235" lon="12.344223565116122"><ele>218.0</ele><time>2026-04-30T16:57:33.999Z</time></trkpt><trkpt lat="42.24383698484356" lon="12.344221797116967"><ele>218.0</ele><time>2026-04-30T16:57:34.999Z</time></trkpt><trkpt lat="42.24394523826766" lon="12.344239549668323"><ele>218.0</ele><time>2026-04-30T16:57:36.999Z</time></trkpt><trkpt lat="42.244021101865755" lon="12.344337867549763"><ele>218.0</ele><time>2026-04-30T16:57:38.999Z</time></trkpt><trkpt lat="42.24404752509669" lon="12.344494852504717"><ele>217.50000000000003</ele><time>2026-04-30T16:57:40.999Z</time></trkpt><trkpt lat="42.24404375736376" lon="12.344658382952954"><ele>217.0</ele><time>2026-04-30T16:57:42.999Z</time></trkpt><trkpt lat="42.24403049370259" lon="12.344747303084171"><ele>216.5</ele><time>2026-04-30T16:57:43.999Z</time></trkpt><trkpt lat="42.24401654009615" lon="12.344840450324142"><ele>216.0</ele><time>2026-04-30T16:57:44.999Z</time></trkpt><trkpt lat="42.24400505329923" lon="12.344933510124854"><ele>215.50000000000003</ele><time>2026-04-30T16:57:45.999Z</time></trkpt><trkpt lat="42.243996892343205" lon="12.345020278782753"><ele>215.0</ele><time>2026-04-30T16:57:46.999Z</time></trkpt><trkpt lat="42.24398903802829" lon="12.34516839460796"><ele>214.6</ele><time>2026-04-30T16:57:48.999Z</time></trkpt><trkpt lat="42.24398080897651" lon="12.345268219263518"><ele>214.2</ele><time>2026-04-30T16:57:51Z</time></trkpt><trkpt lat="42.24398392976175" lon="12.345409776002974"><ele>213.8</ele><time>2026-04-30T16:57:53Z</time></trkpt><trkpt lat="42.24400249818964" lon="12.345571471997289"><ele>213.4</ele><time>2026-04-30T16:57:55Z</time></trkpt><trkpt lat="42.24402461088964" lon="12.34565141538204"><ele>213.0</ele><time>2026-04-30T16:57:56Z</time></trkpt><trkpt lat="42.24399178381378" lon="12.345785672461234"><ele>213.0</ele><time>2026-04-30T16:57:57Z</time></trkpt><trkpt lat="42.24395089538549" lon="12.345898988991246"><ele>213.0</ele><time>2026-04-30T16:57:58Z</time></trkpt><trkpt lat="42.24392361088004" lon="12.346038988142112"><ele>213.0</ele><time>2026-04-30T16:57:59Z</time></trkpt><trkpt lat="42.24391474559267" lon="12.346198900554693"><ele>213.0</ele><time>2026-04-30T16:58:00Z</time></trkpt><trkpt lat="42.243921588880866" lon="12.346361879727093"><ele>213.0</ele><time>2026-04-30T16:58:01Z</time></trkpt><trkpt lat="42.24392862683064" lon="12.346524432647415"><ele>213.0</ele><time>2026-04-30T16:58:02Z</time></trkpt><trkpt lat="42.24393360596038" lon="12.346693795220979"><ele>213.0</ele><time>2026-04-30T16:58:03Z</time></trkpt><trkpt lat="42.24393268776199" lon="12.34685897191573"><ele>213.0</ele><time>2026-04-30T16:58:04Z</time></trkpt><trkpt lat="42.243921776440814" lon="12.347027714602863"><ele>213.0</ele><time>2026-04-30T16:58:05Z</time></trkpt><trkpt lat="42.2438982816233" lon="12.347197500131093"><ele>212.25</ele><time>2026-04-30T16:58:06Z</time></trkpt><trkpt lat="42.243871047964845" lon="12.34736848087505"><ele>211.5</ele><time>2026-04-30T16:58:07Z</time></trkpt><trkpt lat="42.24384873414909" lon="12.347544022427941"><ele>210.75</ele><time>2026-04-30T16:58:08Z</time></trkpt><trkpt lat="42.24383244791716" lon="12.347718860502836"><ele>210.0</ele><time>2026-04-30T16:58:09Z</time></trkpt><trkpt lat="42.24382006599252" lon="12.347891331813281"><ele>209.5</ele><time>2026-04-30T16:58:10Z</time></trkpt><trkpt lat="42.24381241418" lon="12.348064548506704"><ele>209.0</ele><time>2026-04-30T16:58:11Z</time></trkpt><trkpt lat="42.24381157876543" lon="12.34824147374652"><ele>208.5</ele><time>2026-04-30T16:58:12Z</time></trkpt><trkpt lat="42.24381679587417" lon="12.348417258766782"><ele>208.0</ele><time>2026-04-30T16:58:13Z</time></trkpt><trkpt lat="42.24382672238644" lon="12.348594596113587"><ele>208.0</ele><time>2026-04-30T16:58:14Z</time></trkpt><trkpt lat="42.243856027942094" lon="12.348770222922699"><ele>208.0</ele><time>2026-04-30T16:58:15Z</time></trkpt><trkpt lat="42.243877807490804" lon="12.34894580263635"><ele>208.0</ele><time>2026-04-30T16:58:16Z</time></trkpt><trkpt lat="42.24391108708374" lon="12.349118514406735"><ele>208.0</ele><time>2026-04-30T16:58:17Z</time></trkpt><trkpt lat="42.243965937373936" lon="12.349279667908576"><ele>208.75</ele><time>2026-04-30T16:58:18Z</time></trkpt><trkpt lat="42.24403782792875" lon="12.349433482465354"><ele>209.5</ele><time>2026-04-30T16:58:19Z</time></trkpt><trkpt lat="42.24411068835187" lon="12.349588274005402"><ele>210.25</ele><time>2026-04-30T16:58:20Z</time></trkpt><trkpt lat="42.24419171368407" lon="12.349734512772919"><ele>211.0</ele><time>2026-04-30T16:58:21Z</time></trkpt><trkpt lat="42.24428255058506" lon="12.349870186407156"><ele>208.75</ele><time>2026-04-30T16:58:22Z</time></trkpt><trkpt lat="42.24438768707486" lon="12.349987472097519"><ele>206.5</ele><time>2026-04-30T16:58:23Z</time></trkpt><trkpt lat="42.24449561409251" lon="12.350098007532207"><ele>204.25</ele><time>2026-04-30T16:58:24Z</time></trkpt><trkpt lat="42.24460540469825" lon="12.35020040423326"><ele>202.0</ele><time>2026-04-30T16:58:25Z</time></trkpt><trkpt lat="42.244709302965596" lon="12.350304811635704"><ele>202.0</ele><time>2026-04-30T16:58:26Z</time></trkpt><trkpt lat="42.244781613158914" lon="12.350442712491256"><ele>202.0</ele><time>2026-04-30T16:58:27Z</time></trkpt><trkpt lat="42.24483319976245" lon="12.35058378340703"><ele>202.0</ele><time>2026-04-30T16:58:28Z</time></trkpt><trkpt lat="42.24485832692967" lon="12.35073443060637"><ele>202.0</ele><time>2026-04-30T16:58:29Z</time></trkpt><trkpt lat="42.244864506112414" lon="12.350891611429036"><ele>205.25</ele><time>2026-04-30T16:58:30Z</time></trkpt><trkpt lat="42.24486415956425" lon="12.351053919032193"><ele>208.5</ele><time>2026-04-30T16:58:31Z</time></trkpt><trkpt lat="42.244862654325885" lon="12.35122066928031"><ele>211.75</ele><time>2026-04-30T16:58:32Z</time></trkpt><trkpt lat="42.24486113171429" lon="12.351389344263861"><ele>215.0</ele><time>2026-04-30T16:58:33Z</time></trkpt><trkpt lat="42.24486150685855" lon="12.351560418620178"><ele>215.0</ele><time>2026-04-30T16:58:34Z</time></trkpt><trkpt lat="42.24486829734899" lon="12.351730140697079"><ele>215.0</ele><time>2026-04-30T16:58:35Z</time></trkpt><trkpt lat="42.24488101570035" lon="12.351897437984167"><ele>215.0</ele><time>2026-04-30T16:58:36Z</time></trkpt><trkpt lat="42.24489819550522" lon="12.352061521851565"><ele>215.0</ele><time>2026-04-30T16:58:37Z</time></trkpt><trkpt lat="42.24491774520113" lon="12.352220647820765"><ele>216.0</ele><time>2026-04-30T16:58:38Z</time></trkpt><trkpt lat="42.24493739323479" lon="12.3523764348795"><ele>217.0</ele><time>2026-04-30T16:58:39Z</time></trkpt><trkpt lat="42.24495656397732" lon="12.352528437560053"><ele>218.0</ele><time>2026-04-30T16:58:40Z</time></trkpt><trkpt lat="42.24497545716664" lon="12.352678239547627"><ele>219.0</ele><time>2026-04-30T16:58:41Z</time></trkpt><trkpt lat="42.24499431245969" lon="12.352827741053193"><ele>219.0</ele><time>2026-04-30T16:58:42Z</time></trkpt><trkpt lat="42.24501358472738" lon="12.352980548712654"><ele>219.0</ele><time>2026-04-30T16:58:43Z</time></trkpt><trkpt lat="42.245033661042484" lon="12.353139731571217"><ele>219.0</ele><time>2026-04-30T16:58:44Z</time></trkpt><trkpt lat="42.24505317629172" lon="12.353303566212945"><ele>219.0</ele><time>2026-04-30T16:58:45Z</time></trkpt><trkpt lat="42.24508821465196" lon="12.353464895885594"><ele>220.0</ele><time>2026-04-30T16:58:46Z</time></trkpt><trkpt lat="42.245106130534914" lon="12.353632973195792"><ele>221.0</ele><time>2026-04-30T16:58:47Z</time></trkpt><trkpt lat="42.24510162048853" lon="12.353809150295485"><ele>222.0</ele><time>2026-04-30T16:58:48Z</time></trkpt><trkpt lat="42.24511042971414" lon="12.353992075316627"><ele>223.0</ele><time>2026-04-30T16:58:49Z</time></trkpt><trkpt lat="42.24511896354289" lon="12.354188051698252"><ele>223.0</ele><time>2026-04-30T16:58:50Z</time></trkpt><trkpt lat="42.245126440240504" lon="12.354386087084649"><ele>223.0</ele><time>2026-04-30T16:58:51Z</time></trkpt><trkpt lat="42.245132323051045" lon="12.354589264671178"><ele>223.0</ele><time>2026-04-30T16:58:52Z</time></trkpt><trkpt lat="42.245148799124685" lon="12.354798741075973"><ele>221.66666666666666</ele><time>2026-04-30T16:58:53Z</time></trkpt><trkpt lat="42.245198618333056" lon="12.354996416227772"><ele>220.33333333333331</ele><time>2026-04-30T16:58:54Z</time></trkpt><trkpt lat="42.245251852707334" lon="12.355192090597763"><ele>219.0</ele><time>2026-04-30T16:58:55Z</time></trkpt><trkpt lat="42.24532760013489" lon="12.355384138932465"><ele>219.0</ele><time>2026-04-30T16:58:56Z</time></trkpt><trkpt lat="42.24537565947303" lon="12.355593146036215"><ele>219.0</ele><time>2026-04-30T16:58:57Z</time></trkpt><trkpt lat="42.245419713828845" lon="12.355804313745109"><ele>219.0</ele><time>2026-04-30T16:58:58Z</time></trkpt><trkpt lat="42.24544188864598" lon="12.35602913152437"><ele>219.0</ele><time>2026-04-30T16:58:59Z</time></trkpt><trkpt lat="42.24546363729026" lon="12.356263403503323"><ele>219.0</ele><time>2026-04-30T16:59:00Z</time></trkpt><trkpt lat="42.24549023094745" lon="12.356498606377748"><ele>219.0</ele><time>2026-04-30T16:59:01Z</time></trkpt><trkpt lat="42.24551871110438" lon="12.356737973723899"><ele>217.66666666666669</ele><time>2026-04-30T16:59:01.999Z</time></trkpt><trkpt lat="42.24555420744082" lon="12.356979299523163"><ele>216.33333333333334</ele><time>2026-04-30T16:59:02.999Z</time></trkpt><trkpt lat="42.24559095969952" lon="12.357226419906695"><ele>215.0</ele><time>2026-04-30T16:59:03.999Z</time></trkpt><trkpt lat="42.24562862255222" lon="12.357478603232027"><ele>216.66666666666669</ele><time>2026-04-30T16:59:04.999Z</time></trkpt><trkpt lat="42.24566507930939" lon="12.357726354316807"><ele>218.33333333333331</ele><time>2026-04-30T16:59:05.999Z</time></trkpt><trkpt lat="42.245702260362805" lon="12.357975079893825"><ele>220.0</ele><time>2026-04-30T16:59:06.999Z</time></trkpt><trkpt lat="42.24574196402518" lon="12.35821930137958"><ele>220.0</ele><time>2026-04-30T16:59:07.999Z</time></trkpt><trkpt lat="42.245787374032204" lon="12.358465528804329"><ele>220.0</ele><time>2026-04-30T16:59:08.999Z</time></trkpt><trkpt lat="42.24583579836455" lon="12.358715426153953"><ele>220.0</ele><time>2026-04-30T16:59:09.999Z</time></trkpt><trkpt lat="42.2458838531827" lon="12.35895499743989"><ele>219.0</ele><time>2026-04-30T16:59:10.999Z</time></trkpt><trkpt lat="42.24593537218875" lon="12.359189939399572"><ele>218.0</ele><time>2026-04-30T16:59:11.999Z</time></trkpt><trkpt lat="42.24602670920282" lon="12.359395837090148"><ele>217.0</ele><time>2026-04-30T16:59:12.999Z</time></trkpt><trkpt lat="42.246101752127146" lon="12.35959398190196"><ele>217.33333333333331</ele><time>2026-04-30T16:59:13.999Z</time></trkpt><trkpt lat="42.246177414638915" lon="12.359781833951905"><ele>217.66666666666669</ele><time>2026-04-30T16:59:14.999Z</time></trkpt><trkpt lat="42.2462497236158" lon="12.359962504455359"><ele>218.0</ele><time>2026-04-30T16:59:15.999Z</time></trkpt><trkpt lat="42.24629711679818" lon="12.360159742290696"><ele>218.0</ele><time>2026-04-30T16:59:16.999Z</time></trkpt><trkpt lat="42.24636602321247" lon="12.360338810020009"><ele>218.0</ele><time>2026-04-30T16:59:17.999Z</time></trkpt><trkpt lat="42.24643610535992" lon="12.360517676153213"><ele>218.0</ele><time>2026-04-30T16:59:18.999Z</time></trkpt><trkpt lat="42.24650699556368" lon="12.360695420007374"><ele>218.0</ele><time>2026-04-30T16:59:19.999Z</time></trkpt><trkpt lat="42.24657835428875" lon="12.3608732646466"><ele>219.25</ele><time>2026-04-30T16:59:20.999Z</time></trkpt><trkpt lat="42.24664965003165" lon="12.361050945160182"><ele>220.5</ele><time>2026-04-30T16:59:21.999Z</time></trkpt><trkpt lat="42.24671837056922" lon="12.361228629540276"><ele>221.75</ele><time>2026-04-30T16:59:22.999Z</time></trkpt><trkpt lat="42.246788336246574" lon="12.361405694619203"><ele>223.0</ele><time>2026-04-30T16:59:23.999Z</time></trkpt><trkpt lat="42.246859675426656" lon="12.361585100334644"><ele>223.0</ele><time>2026-04-30T16:59:24.999Z</time></trkpt><trkpt lat="42.24693081141415" lon="12.361761863984"><ele>223.0</ele><time>2026-04-30T16:59:25.999Z</time></trkpt><trkpt lat="42.24699907754864" lon="12.36193149641108"><ele>223.0</ele><time>2026-04-30T16:59:26.999Z</time></trkpt><trkpt lat="42.24706253171313" lon="12.36208917172914"><ele>223.0</ele><time>2026-04-30T16:59:27.999Z</time></trkpt><trkpt lat="42.24711405075757" lon="12.362217189811721"><ele>222.99999999999997</ele><time>2026-04-30T16:59:28.999Z</time></trkpt><trkpt lat="42.24715471875859" lon="12.362318244511114"><ele>223.0</ele><time>2026-04-30T16:59:29.999Z</time></trkpt><trkpt lat="42.247192673061086" lon="12.362412556002216"><ele>223.0</ele><time>2026-04-30T16:59:30.999Z</time></trkpt><trkpt lat="42.247229697326" lon="12.36250455647196"><ele>223.0</ele><time>2026-04-30T16:59:31.999Z</time></trkpt><trkpt lat="42.247268397126334" lon="12.362600720407025"><ele>222.99999999999997</ele><time>2026-04-30T16:59:32.999Z</time></trkpt><trkpt lat="42.24731219258034" lon="12.362708619002929"><ele>223.0</ele><time>2026-04-30T16:59:33.999Z</time></trkpt><trkpt lat="42.247358839814304" lon="12.362823555114558"><ele>222.60000000000002</ele><time>2026-04-30T16:59:34.999Z</time></trkpt><trkpt lat="42.24740778533969" lon="12.362944206461624"><ele>222.20000000000002</ele><time>2026-04-30T16:59:35.999Z</time></trkpt><trkpt lat="42.24745845062581" lon="12.363069082728702"><ele>221.8</ele><time>2026-04-30T16:59:36.999Z</time></trkpt><trkpt lat="42.247511403107595" lon="12.363199582554994"><ele>221.4</ele><time>2026-04-30T16:59:37.999Z</time></trkpt><trkpt lat="42.2475654874264" lon="12.363332319150084"><ele>221.0</ele><time>2026-04-30T16:59:38.999Z</time></trkpt><trkpt lat="42.24762139360756" lon="12.363469527053008"><ele>221.0</ele><time>2026-04-30T16:59:39.999Z</time></trkpt><trkpt lat="42.24767895481701" lon="12.36361079681519"><ele>221.0</ele><time>2026-04-30T16:59:40.999Z</time></trkpt><trkpt lat="42.247737132202545" lon="12.363753953507981"><ele>221.0</ele><time>2026-04-30T16:59:41.999Z</time></trkpt><trkpt lat="42.24779597209136" lon="12.363900667044508"><ele>221.0</ele><time>2026-04-30T16:59:42.999Z</time></trkpt><trkpt lat="42.24785684109541" lon="12.364052440062828"><ele>219.5</ele><time>2026-04-30T16:59:43.999Z</time></trkpt><trkpt lat="42.247917955938526" lon="12.364204826070571"><ele>218.0</ele><time>2026-04-30T16:59:44.999Z</time></trkpt><trkpt lat="42.24797908028311" lon="12.36435723576928"><ele>216.5</ele><time>2026-04-30T16:59:45.999Z</time></trkpt><trkpt lat="42.24803573372805" lon="12.364498497570732"><ele>215.0</ele><time>2026-04-30T16:59:46.999Z</time></trkpt><trkpt lat="42.24808421821506" lon="12.36461939056701"><ele>216.16666666666669</ele><time>2026-04-30T16:59:47.999Z</time></trkpt><trkpt lat="42.248127240930984" lon="12.364726089495477"><ele>217.33333333333334</ele><time>2026-04-30T16:59:48.999Z</time></trkpt><trkpt lat="42.2481664926082" lon="12.364823104830965"><ele>218.5</ele><time>2026-04-30T16:59:49.999Z</time></trkpt><trkpt lat="42.24820290161888" lon="12.364913094165784"><ele>219.66666666666669</ele><time>2026-04-30T16:59:50.999Z</time></trkpt><trkpt lat="42.24823532736021" lon="12.364993238362098"><ele>220.83333333333334</ele><time>2026-04-30T16:59:51.999Z</time></trkpt><trkpt lat="42.248271571672944" lon="12.36508282062557"><ele>222.0</ele><time>2026-04-30T16:59:53.999Z</time></trkpt><trkpt lat="42.24830605943469" lon="12.365168061368832"><ele>222.0</ele><time>2026-04-30T16:59:55.999Z</time></trkpt><trkpt lat="42.248358999066" lon="12.36529890810233"><ele>222.0</ele><time>2026-04-30T16:59:58.001Z</time></trkpt><trkpt lat="42.24839180379809" lon="12.3653799980587"><ele>222.0</ele><time>2026-04-30T16:59:59.001Z</time></trkpt><trkpt lat="42.24842359852659" lon="12.365458589636821"><ele>222.0</ele><time>2026-04-30T17:00:00.001Z</time></trkpt><trkpt lat="42.24845871492366" lon="12.365545391848073"><ele>222.0</ele><time>2026-04-30T17:00:01.001Z</time></trkpt><trkpt lat="42.24849650068283" lon="12.365638792079265"><ele>222.0</ele><time>2026-04-30T17:00:02.001Z</time></trkpt><trkpt lat="42.24853686902646" lon="12.365739001372978"><ele>221.39999999999998</ele><time>2026-04-30T17:00:03.001Z</time></trkpt><trkpt lat="42.248580418099145" lon="12.365846917548502"><ele>220.79999999999998</ele><time>2026-04-30T17:00:04.001Z</time></trkpt><trkpt lat="42.24862755614306" lon="12.36596333531925"><ele>220.2</ele><time>2026-04-30T17:00:05.001Z</time></trkpt><trkpt lat="42.24867887367927" lon="12.366085961066103"><ele>219.6</ele><time>2026-04-30T17:00:06.001Z</time></trkpt><trkpt lat="42.24873160552525" lon="12.366211966381766"><ele>219.0</ele><time>2026-04-30T17:00:07.001Z</time></trkpt><trkpt lat="42.24878196794911" lon="12.366332309854155"><ele>220.0</ele><time>2026-04-30T17:00:08.001Z</time></trkpt><trkpt lat="42.2488312835622" lon="12.36645015191351"><ele>220.99999999999997</ele><time>2026-04-30T17:00:09.001Z</time></trkpt><trkpt lat="42.248874766674504" lon="12.36656483480809"><ele>221.99999999999997</ele><time>2026-04-30T17:00:10.001Z</time></trkpt><trkpt lat="42.24894303360091" lon="12.366653771211574"><ele>223.0</ele><time>2026-04-30T17:00:11.001Z</time></trkpt><trkpt lat="42.24898779826178" lon="12.366747463401133"><ele>224.0</ele><time>2026-04-30T17:00:12Z</time></trkpt><trkpt lat="42.249039050451245" lon="12.366841284758031"><ele>224.00000000000003</ele><time>2026-04-30T17:00:13Z</time></trkpt><trkpt lat="42.24909829008422" lon="12.366923450852482"><ele>224.0</ele><time>2026-04-30T17:00:14Z</time></trkpt><trkpt lat="42.24914417999215" lon="12.367025889458446"><ele>224.0</ele><time>2026-04-30T17:00:15Z</time></trkpt><trkpt lat="42.24918395525701" lon="12.367129854735802"><ele>224.0</ele><time>2026-04-30T17:00:16Z</time></trkpt><trkpt lat="42.24921864795137" lon="12.367234600837483"><ele>224.00000000000003</ele><time>2026-04-30T17:00:17Z</time></trkpt><trkpt lat="42.24925383144458" lon="12.367330657370182"><ele>224.0</ele><time>2026-04-30T17:00:18Z</time></trkpt><trkpt lat="42.24928837941949" lon="12.367426219220462"><ele>223.57142857142858</ele><time>2026-04-30T17:00:19Z</time></trkpt><trkpt lat="42.24930507475443" lon="12.367528951777556"><ele>223.14285714285714</ele><time>2026-04-30T17:00:20Z</time></trkpt><trkpt lat="42.24934909254786" lon="12.36761360578936"><ele>222.71428571428572</ele><time>2026-04-30T17:00:21Z</time></trkpt><trkpt lat="42.24937113843181" lon="12.367710215285555"><ele>222.28571428571428</ele><time>2026-04-30T17:00:22Z</time></trkpt><trkpt lat="42.24939669283647" lon="12.367797301299321"><ele>221.85714285714286</ele><time>2026-04-30T17:00:23Z</time></trkpt><trkpt lat="42.24942444292416" lon="12.36788207376378"><ele>221.42857142857144</ele><time>2026-04-30T17:00:24Z</time></trkpt><trkpt lat="42.249449823551956" lon="12.367966595162253"><ele>221.0</ele><time>2026-04-30T17:00:25Z</time></trkpt><trkpt lat="42.2494758727283" lon="12.368048828889824"><ele>219.4</ele><time>2026-04-30T17:00:26Z</time></trkpt><trkpt lat="42.24950289903228" lon="12.368131276835637"><ele>217.8</ele><time>2026-04-30T17:00:27Z</time></trkpt><trkpt lat="42.24952980510313" lon="12.36821017005999"><ele>216.20000000000002</ele><time>2026-04-30T17:00:28Z</time></trkpt><trkpt lat="42.24957061739107" lon="12.368351903639818"><ele>214.60000000000002</ele><time>2026-04-30T17:00:30Z</time></trkpt><trkpt lat="42.24961638958694" lon="12.368487141343925"><ele>213.0</ele><time>2026-04-30T17:00:32Z</time></trkpt><trkpt lat="42.2496607696389" lon="12.368640514179589"><ele>213.0</ele><time>2026-04-30T17:00:34Z</time></trkpt><trkpt lat="42.249687383759365" lon="12.368718163272822"><ele>213.0</ele><time>2026-04-30T17:00:35Z</time></trkpt><trkpt lat="42.24972539663538" lon="12.368874595973416"><ele>213.0</ele><time>2026-04-30T17:00:37Z</time></trkpt><trkpt lat="42.24976303887453" lon="12.368943490406487"><ele>213.0</ele><time>2026-04-30T17:00:38Z</time></trkpt><trkpt lat="42.24978022844648" lon="12.369026222296005"><ele>213.0</ele><time>2026-04-30T17:00:39Z</time></trkpt><trkpt lat="42.24981809147914" lon="12.369187265200908"><ele>213.0</ele><time>2026-04-30T17:00:41Z</time></trkpt><trkpt lat="42.24985970827027" lon="12.369338564080078"><ele>214.2</ele><time>2026-04-30T17:00:43Z</time></trkpt><trkpt lat="42.249902914728466" lon="12.3694591634025"><ele>215.4</ele><time>2026-04-30T17:00:45Z</time></trkpt><trkpt lat="42.250041202299215" lon="12.369474566782428"><ele>216.59999999999997</ele><time>2026-04-30T17:00:47Z</time></trkpt><trkpt lat="42.25010695253902" lon="12.3694635015314"><ele>217.79999999999998</ele><time>2026-04-30T17:00:48Z</time></trkpt><trkpt lat="42.250224596522905" lon="12.369451191955566"><ele>219.0</ele><time>2026-04-30T17:00:50Z</time></trkpt><trkpt lat="42.25029567186397" lon="12.369454271814876"><ele>219.0</ele><time>2026-04-30T17:00:51Z</time></trkpt><trkpt lat="42.25036321328006" lon="12.369432480062072"><ele>219.0</ele><time>2026-04-30T17:00:52Z</time></trkpt><trkpt lat="42.25042287920391" lon="12.369404186937581"><ele>219.0</ele><time>2026-04-30T17:00:53Z</time></trkpt><trkpt lat="42.250494060365845" lon="12.369403234135214"><ele>219.0</ele><time>2026-04-30T17:00:54Z</time></trkpt><trkpt lat="42.25056228316402" lon="12.3693760210484"><ele>219.0</ele><time>2026-04-30T17:00:55Z</time></trkpt><trkpt lat="42.25067661812924" lon="12.36948003020911"><ele>219.0</ele><time>2026-04-30T17:00:57Z</time></trkpt><trkpt lat="42.250765759598394" lon="12.36961326080084"><ele>218.83333333333334</ele><time>2026-04-30T17:00:59Z</time></trkpt><trkpt lat="42.2507989151531" lon="12.369697276676115"><ele>218.66666666666669</ele><time>2026-04-30T17:01:00Z</time></trkpt><trkpt lat="42.25084053350736" lon="12.369782393765705"><ele>218.5</ele><time>2026-04-30T17:01:01Z</time></trkpt><trkpt lat="42.25088245260923" lon="12.369883186644518"><ele>218.33333333333334</ele><time>2026-04-30T17:01:02Z</time></trkpt><trkpt lat="42.250881713589514" lon="12.36999722310771"><ele>218.16666666666669</ele><time>2026-04-30T17:01:03Z</time></trkpt><trkpt lat="42.25087848590503" lon="12.370114972469043"><ele>218.0</ele><time>2026-04-30T17:01:04Z</time></trkpt><trkpt lat="42.25088281626264" lon="12.370232076322624"><ele>218.0</ele><time>2026-04-30T17:01:05Z</time></trkpt><trkpt lat="42.250886704210096" lon="12.37033721633519"><ele>218.0</ele><time>2026-04-30T17:01:06Z</time></trkpt><trkpt lat="42.25089021908497" lon="12.370432267491825"><ele>218.0</ele><time>2026-04-30T17:01:07Z</time></trkpt><trkpt lat="42.25090942651835" lon="12.370594003707545"><ele>218.0</ele><time>2026-04-30T17:01:09Z</time></trkpt><trkpt lat="42.25090305762914" lon="12.370680531724288"><ele>218.0</ele><time>2026-04-30T17:01:10Z</time></trkpt><trkpt lat="42.250852809713884" lon="12.370838489138249"><ele>217.50000000000003</ele><time>2026-04-30T17:01:12Z</time></trkpt><trkpt lat="42.25081058789764" lon="12.370919139806407"><ele>217.0</ele><time>2026-04-30T17:01:13Z</time></trkpt><trkpt lat="42.25078188321987" lon="12.371018251583884"><ele>216.5</ele><time>2026-04-30T17:01:14Z</time></trkpt><trkpt lat="42.25073226422005" lon="12.371107052865524"><ele>216.0</ele><time>2026-04-30T17:01:15Z</time></trkpt><trkpt lat="42.25071153271128" lon="12.371241768033615"><ele>215.50000000000003</ele><time>2026-04-30T17:01:16Z</time></trkpt><trkpt lat="42.25072331990651" lon="12.371375918836522"><ele>215.0</ele><time>2026-04-30T17:01:17Z</time></trkpt><trkpt lat="42.250724135377595" lon="12.371513158261084"><ele>214.8</ele><time>2026-04-30T17:01:18Z</time></trkpt><trkpt lat="42.2507336728924" lon="12.371655078478105"><ele>214.6</ele><time>2026-04-30T17:01:19Z</time></trkpt><trkpt lat="42.25073186326011" lon="12.371804538177381"><ele>214.39999999999998</ele><time>2026-04-30T17:01:20Z</time></trkpt><trkpt lat="42.25073891624886" lon="12.37196083498857"><ele>214.2</ele><time>2026-04-30T17:01:21Z</time></trkpt><trkpt lat="42.250768171969206" lon="12.37211171837411"><ele>214.0</ele><time>2026-04-30T17:01:21.999Z</time></trkpt><trkpt lat="42.250773141026045" lon="12.372267893958004"><ele>213.79999999999998</ele><time>2026-04-30T17:01:22.999Z</time></trkpt><trkpt lat="42.25078397095902" lon="12.372416651622212"><ele>213.59999999999997</ele><time>2026-04-30T17:01:23.999Z</time></trkpt><trkpt lat="42.250799966670996" lon="12.372563163106223"><ele>213.4</ele><time>2026-04-30T17:01:24.999Z</time></trkpt><trkpt lat="42.250823037818954" lon="12.372698241385471"><ele>213.2</ele><time>2026-04-30T17:01:25.999Z</time></trkpt><trkpt lat="42.25084560863241" lon="12.372806657607198"><ele>213.0</ele><time>2026-04-30T17:01:26.999Z</time></trkpt><trkpt lat="42.25086144424605" lon="12.372894796646209"><ele>213.16666666666666</ele><time>2026-04-30T17:01:27.999Z</time></trkpt><trkpt lat="42.2508886173254" lon="12.373038741101913"><ele>213.33333333333331</ele><time>2026-04-30T17:01:29.999Z</time></trkpt><trkpt lat="42.25091224113017" lon="12.373123233628743"><ele>213.5</ele><time>2026-04-30T17:01:30.999Z</time></trkpt><trkpt lat="42.25093822268887" lon="12.37321396569221"><ele>213.66666666666666</ele><time>2026-04-30T17:01:31.999Z</time></trkpt><trkpt lat="42.25098294438245" lon="12.373295503771445"><ele>213.83333333333331</ele><time>2026-04-30T17:01:32.999Z</time></trkpt><trkpt lat="42.2510343565348" lon="12.373388238739075"><ele>214.0</ele><time>2026-04-30T17:01:33.999Z</time></trkpt><trkpt lat="42.251091287576415" lon="12.373476841114357"><ele>214.0</ele><time>2026-04-30T17:01:34.999Z</time></trkpt><trkpt lat="42.2511617822476" lon="12.37355510838497"><ele>213.99999999999997</ele><time>2026-04-30T17:01:35.999Z</time></trkpt><trkpt lat="42.25123332510176" lon="12.373645388099671"><ele>213.99999999999997</ele><time>2026-04-30T17:01:36.999Z</time></trkpt><trkpt lat="42.251308990251275" lon="12.373745098385674"><ele>214.0</ele><time>2026-04-30T17:01:37.999Z</time></trkpt><trkpt lat="42.251353752184016" lon="12.373869208936448"><ele>214.0</ele><time>2026-04-30T17:01:38.999Z</time></trkpt><trkpt lat="42.251399069902426" lon="12.373997852464303"><ele>214.5</ele><time>2026-04-30T17:01:39.999Z</time></trkpt><trkpt lat="42.25144289795897" lon="12.374135230123976"><ele>215.0</ele><time>2026-04-30T17:01:40.999Z</time></trkpt><trkpt lat="42.251488915242675" lon="12.37428145878665"><ele>215.5</ele><time>2026-04-30T17:01:41.999Z</time></trkpt><trkpt lat="42.25153211944079" lon="12.37442240213593"><ele>216.0</ele><time>2026-04-30T17:01:42.999Z</time></trkpt><trkpt lat="42.251580278911426" lon="12.374582310309517"><ele>216.0</ele><time>2026-04-30T17:01:43.999Z</time></trkpt><trkpt lat="42.25163075082083" lon="12.374752916580393"><ele>216.0</ele><time>2026-04-30T17:01:44.999Z</time></trkpt><trkpt lat="42.251681821036755" lon="12.374926609219697"><ele>216.0</ele><time>2026-04-30T17:01:45.999Z</time></trkpt><trkpt lat="42.25173376512595" lon="12.375106885768483"><ele>216.0</ele><time>2026-04-30T17:01:46.999Z</time></trkpt><trkpt lat="42.251784543707046" lon="12.375288625210741"><ele>216.0</ele><time>2026-04-30T17:01:47.999Z</time></trkpt><trkpt lat="42.251860786369285" lon="12.3754638890599"><ele>216.0</ele><time>2026-04-30T17:01:48.999Z</time></trkpt><trkpt lat="42.25191662791273" lon="12.375651890305308"><ele>216.0</ele><time>2026-04-30T17:01:49.999Z</time></trkpt><trkpt lat="42.25197150861126" lon="12.375844031534522"><ele>216.0</ele><time>2026-04-30T17:01:50.999Z</time></trkpt><trkpt lat="42.25202671794937" lon="12.376036252313163"><ele>216.0</ele><time>2026-04-30T17:01:51.999Z</time></trkpt><trkpt lat="42.252079046329946" lon="12.376233320093501"><ele>216.0</ele><time>2026-04-30T17:01:52.999Z</time></trkpt><trkpt lat="42.25211053803791" lon="12.37644060379206"><ele>216.33333333333331</ele><time>2026-04-30T17:01:53.999Z</time></trkpt><trkpt lat="42.25215301786332" lon="12.376643803015106"><ele>216.66666666666666</ele><time>2026-04-30T17:01:54.999Z</time></trkpt><trkpt lat="42.25219351559943" lon="12.376850992214164"><ele>217.0</ele><time>2026-04-30T17:01:55.999Z</time></trkpt><trkpt lat="42.25223375857526" lon="12.377059646153741"><ele>217.0</ele><time>2026-04-30T17:01:56.999Z</time></trkpt><trkpt lat="42.25226763805319" lon="12.377270712908981"><ele>217.0</ele><time>2026-04-30T17:01:57.999Z</time></trkpt><trkpt lat="42.25230325852734" lon="12.377482471526985"><ele>217.0</ele><time>2026-04-30T17:01:58.999Z</time></trkpt><trkpt lat="42.25233958847469" lon="12.377693597442242"><ele>215.33333333333331</ele><time>2026-04-30T17:01:59.999Z</time></trkpt><trkpt lat="42.25241008705388" lon="12.377896679017473"><ele>213.66666666666669</ele><time>2026-04-30T17:02:00.999Z</time></trkpt><trkpt lat="42.25245268902538" lon="12.378113483281343"><ele>212.0</ele><time>2026-04-30T17:02:02.001Z</time></trkpt><trkpt lat="42.252507326939124" lon="12.378324420240993"><ele>211.66666666666669</ele><time>2026-04-30T17:02:03.001Z</time></trkpt><trkpt lat="42.25257865911822" lon="12.378527349153709"><ele>211.33333333333331</ele><time>2026-04-30T17:02:04.001Z</time></trkpt><trkpt lat="42.25263769917024" lon="12.378746316727856"><ele>211.0</ele><time>2026-04-30T17:02:05.001Z</time></trkpt><trkpt lat="42.25272027140307" lon="12.378956908488552"><ele>211.0</ele><time>2026-04-30T17:02:06.001Z</time></trkpt><trkpt lat="42.25280267652837" lon="12.379172496531096"><ele>211.0</ele><time>2026-04-30T17:02:07.001Z</time></trkpt><trkpt lat="42.25287644091455" lon="12.37938845007609"><ele>211.0</ele><time>2026-04-30T17:02:08.001Z</time></trkpt><trkpt lat="42.25293936266643" lon="12.379613238564941"><ele>211.0</ele><time>2026-04-30T17:02:09.001Z</time></trkpt><trkpt lat="42.25299103695058" lon="12.379849573744831"><ele>211.0</ele><time>2026-04-30T17:02:10.001Z</time></trkpt><trkpt lat="42.25303700832868" lon="12.380093799323593"><ele>211.0</ele><time>2026-04-30T17:02:11.001Z</time></trkpt><trkpt lat="42.25308258399443" lon="12.380347438945632"><ele>210.66666666666666</ele><time>2026-04-30T17:02:12.001Z</time></trkpt><trkpt lat="42.25312781704949" lon="12.380601299911849"><ele>210.33333333333331</ele><time>2026-04-30T17:02:13.001Z</time></trkpt><trkpt lat="42.25317339975894" lon="12.380850929623643"><ele>210.0</ele><time>2026-04-30T17:02:14.001Z</time></trkpt><trkpt lat="42.25321967606728" lon="12.381102333143867"><ele>209.66666666666669</ele><time>2026-04-30T17:02:15.001Z</time></trkpt><trkpt lat="42.25326410218918" lon="12.381352510399498"><ele>209.33333333333334</ele><time>2026-04-30T17:02:16.001Z</time></trkpt><trkpt lat="42.25330720102424" lon="12.381607671245046"><ele>209.0</ele><time>2026-04-30T17:02:17.001Z</time></trkpt><trkpt lat="42.25334598809216" lon="12.381865701543882"><ele>209.0</ele><time>2026-04-30T17:02:18.001Z</time></trkpt><trkpt lat="42.25338258219045" lon="12.38212792593632"><ele>209.0</ele><time>2026-04-30T17:02:19.001Z</time></trkpt><trkpt lat="42.253418512361726" lon="12.382395496817214"><ele>209.0</ele><time>2026-04-30T17:02:20.001Z</time></trkpt><trkpt lat="42.253454498745995" lon="12.382663486279315"><ele>208.66666666666669</ele><time>2026-04-30T17:02:21.001Z</time></trkpt><trkpt lat="42.25349019234711" lon="12.382934497171323"><ele>208.33333333333331</ele><time>2026-04-30T17:02:22.001Z</time></trkpt><trkpt lat="42.253526260116935" lon="12.383209376634834"><ele>208.0</ele><time>2026-04-30T17:02:23.001Z</time></trkpt><trkpt lat="42.25356498779" lon="12.383485279708195"><ele>207.66666666666666</ele><time>2026-04-30T17:02:24.001Z</time></trkpt><trkpt lat="42.25360830297068" lon="12.383763004373577"><ele>207.33333333333331</ele><time>2026-04-30T17:02:25Z</time></trkpt><trkpt lat="42.25366680150212" lon="12.384037461482883"><ele>207.0</ele><time>2026-04-30T17:02:26Z</time></trkpt><trkpt lat="42.253743549800475" lon="12.384306486451091"><ele>206.33333333333331</ele><time>2026-04-30T17:02:27Z</time></trkpt><trkpt lat="42.253828535892744" lon="12.384572066638126"><ele>205.66666666666666</ele><time>2026-04-30T17:02:28Z</time></trkpt><trkpt lat="42.25391526456891" lon="12.384838851528498"><ele>205.0</ele><time>2026-04-30T17:02:29Z</time></trkpt><trkpt lat="42.25400181443972" lon="12.385107756861581"><ele>204.33333333333331</ele><time>2026-04-30T17:02:30Z</time></trkpt><trkpt lat="42.25408665061307" lon="12.385381151236459"><ele>203.66666666666669</ele><time>2026-04-30T17:02:31Z</time></trkpt><trkpt lat="42.25417132966761" lon="12.38565507988175"><ele>203.0</ele><time>2026-04-30T17:02:32Z</time></trkpt><trkpt lat="42.25425541582075" lon="12.385930916333676"><ele>203.33333333333334</ele><time>2026-04-30T17:02:33Z</time></trkpt><trkpt lat="42.2543391037496" lon="12.386205445941703"><ele>203.66666666666669</ele><time>2026-04-30T17:02:34Z</time></trkpt><trkpt lat="42.254422246747254" lon="12.386469645966367"><ele>204.0</ele><time>2026-04-30T17:02:35Z</time></trkpt><trkpt lat="42.25451509357228" lon="12.386716750719735"><ele>204.0</ele><time>2026-04-30T17:02:36Z</time></trkpt><trkpt lat="42.254639814346504" lon="12.386927611654864"><ele>204.0</ele><time>2026-04-30T17:02:37Z</time></trkpt><trkpt lat="42.254773087083436" lon="12.387135797096125"><ele>204.0</ele><time>2026-04-30T17:02:38Z</time></trkpt><trkpt lat="42.254902711079545" lon="12.387347520068419"><ele>203.33333333333331</ele><time>2026-04-30T17:02:39Z</time></trkpt><trkpt lat="42.25507180578919" lon="12.387524574575954"><ele>202.66666666666666</ele><time>2026-04-30T17:02:40Z</time></trkpt><trkpt lat="42.25523529707768" lon="12.38771389255308"><ele>202.0</ele><time>2026-04-30T17:02:41Z</time></trkpt><trkpt lat="42.255391299421284" lon="12.387920443064578"><ele>200.66666666666666</ele><time>2026-04-30T17:02:42Z</time></trkpt><trkpt lat="42.2555530431657" lon="12.388126695627395"><ele>199.33333333333331</ele><time>2026-04-30T17:02:43Z</time></trkpt><trkpt lat="42.25571690561163" lon="12.388326568750989"><ele>198.0</ele><time>2026-04-30T17:02:44Z</time></trkpt><trkpt lat="42.2558778169629" lon="12.388527263807626"><ele>197.66666666666669</ele><time>2026-04-30T17:02:45Z</time></trkpt><trkpt lat="42.2560259947352" lon="12.388751082079613"><ele>197.33333333333334</ele><time>2026-04-30T17:02:46Z</time></trkpt><trkpt lat="42.25619190733579" lon="12.388951882501521"><ele>197.0</ele><time>2026-04-30T17:02:47Z</time></trkpt><trkpt lat="42.25634225805023" lon="12.389169108187652"><ele>194.0</ele><time>2026-04-30T17:02:48Z</time></trkpt><trkpt lat="42.25646981493987" lon="12.389410875529085"><ele>191.0</ele><time>2026-04-30T17:02:49Z</time></trkpt><trkpt lat="42.25661108705912" lon="12.389650373326237"><ele>188.0</ele><time>2026-04-30T17:02:50Z</time></trkpt><trkpt lat="42.256751996618235" lon="12.389889275470832"><ele>186.66666666666666</ele><time>2026-04-30T17:02:51Z</time></trkpt><trkpt lat="42.256910335776176" lon="12.39009849955945"><ele>185.33333333333334</ele><time>2026-04-30T17:02:52Z</time></trkpt><trkpt lat="42.257058453593494" lon="12.390324218568448"><ele>184.0</ele><time>2026-04-30T17:02:53Z</time></trkpt><trkpt lat="42.2572286144573" lon="12.390516642621854"><ele>186.33333333333334</ele><time>2026-04-30T17:02:54Z</time></trkpt><trkpt lat="42.25741107174893" lon="12.390670308034322"><ele>188.66666666666666</ele><time>2026-04-30T17:02:55Z</time></trkpt><trkpt lat="42.257583034976" lon="12.390847127025811"><ele>191.0</ele><time>2026-04-30T17:02:56Z</time></trkpt><trkpt lat="42.257750382303016" lon="12.39102146988193"><ele>191.0</ele><time>2026-04-30T17:02:57Z</time></trkpt><trkpt lat="42.257919883975354" lon="12.391198304614049"><ele>191.0</ele><time>2026-04-30T17:02:58Z</time></trkpt><trkpt lat="42.2580932490406" lon="12.391367728771227"><ele>191.0</ele><time>2026-04-30T17:02:59Z</time></trkpt><trkpt lat="42.25824227903134" lon="12.391578417306953"><ele>191.66666666666666</ele><time>2026-04-30T17:03:00Z</time></trkpt><trkpt lat="42.25839291062726" lon="12.391764256460823"><ele>192.33333333333331</ele><time>2026-04-30T17:03:01Z</time></trkpt><trkpt lat="42.25847141215897" lon="12.392040476661577"><ele>193.0</ele><time>2026-04-30T17:03:02Z</time></trkpt><trkpt lat="42.258552335535306" lon="12.392278623021157"><ele>191.66666666666666</ele><time>2026-04-30T17:03:03Z</time></trkpt><trkpt lat="42.25860327011775" lon="12.392528857598696"><ele>190.33333333333331</ele><time>2026-04-30T17:03:04Z</time></trkpt><trkpt lat="42.25862104079472" lon="12.392767558322399"><ele>189.0</ele><time>2026-04-30T17:03:05Z</time></trkpt><trkpt lat="42.25868287551544" lon="12.392987455768145"><ele>188.33333333333334</ele><time>2026-04-30T17:03:06Z</time></trkpt><trkpt lat="42.25877037372374" lon="12.393189336659317"><ele>187.66666666666669</ele><time>2026-04-30T17:03:07Z</time></trkpt><trkpt lat="42.25889425608337" lon="12.39334257064814"><ele>187.0</ele><time>2026-04-30T17:03:08Z</time></trkpt><trkpt lat="42.259035616029216" lon="12.393475611883144"><ele>189.0</ele><time>2026-04-30T17:03:09Z</time></trkpt><trkpt lat="42.25918591460732" lon="12.393608306339983"><ele>191.0</ele><time>2026-04-30T17:03:10Z</time></trkpt><trkpt lat="42.259337479822676" lon="12.393741880894721"><ele>193.0</ele><time>2026-04-30T17:03:11Z</time></trkpt><trkpt lat="42.2594928003342" lon="12.393885323235459"><ele>192.33333333333331</ele><time>2026-04-30T17:03:12Z</time></trkpt><trkpt lat="42.25964817723415" lon="12.394021388198345"><ele>191.66666666666666</ele><time>2026-04-30T17:03:13Z</time></trkpt><trkpt lat="42.259805100202485" lon="12.394167006603723"><ele>191.0</ele><time>2026-04-30T17:03:14Z</time></trkpt><trkpt lat="42.2599657287989" lon="12.394303164700748"><ele>191.0</ele><time>2026-04-30T17:03:15Z</time></trkpt><trkpt lat="42.260133551593086" lon="12.394434363471797"><ele>191.0</ele><time>2026-04-30T17:03:16Z</time></trkpt><trkpt lat="42.26032265917274" lon="12.394535597302626"><ele>191.0</ele><time>2026-04-30T17:03:17Z</time></trkpt><trkpt lat="42.26051479868226" lon="12.394625261865993"><ele>192.66666666666666</ele><time>2026-04-30T17:03:18Z</time></trkpt><trkpt lat="42.260702714471634" lon="12.394720602844554"><ele>194.33333333333331</ele><time>2026-04-30T17:03:19Z</time></trkpt><trkpt lat="42.26089054625376" lon="12.394823459747128"><ele>196.0</ele><time>2026-04-30T17:03:20Z</time></trkpt><trkpt lat="42.26107690348778" lon="12.394924354461834"><ele>196.0</ele><time>2026-04-30T17:03:21Z</time></trkpt><trkpt lat="42.26126485573545" lon="12.395016237136735"><ele>196.0</ele><time>2026-04-30T17:03:22Z</time></trkpt><trkpt lat="42.26145349481337" lon="12.395110770609827"><ele>196.0</ele><time>2026-04-30T17:03:23Z</time></trkpt><trkpt lat="42.26163974315787" lon="12.395219400899993"><ele>196.0</ele><time>2026-04-30T17:03:24Z</time></trkpt><trkpt lat="42.26182540889767" lon="12.395340521898827"><ele>196.0</ele><time>2026-04-30T17:03:25Z</time></trkpt><trkpt lat="42.26200459432312" lon="12.395476135499491"><ele>196.0</ele><time>2026-04-30T17:03:26Z</time></trkpt><trkpt lat="42.26218114343627" lon="12.395631083881083"><ele>194.66666666666666</ele><time>2026-04-30T17:03:27Z</time></trkpt><trkpt lat="42.26235605437784" lon="12.3957912487048"><ele>193.33333333333331</ele><time>2026-04-30T17:03:28Z</time></trkpt><trkpt lat="42.262534426878524" lon="12.395946365801857"><ele>192.0</ele><time>2026-04-30T17:03:29Z</time></trkpt><trkpt lat="42.26271812322525" lon="12.396101298989644"><ele>192.0</ele><time>2026-04-30T17:03:29.999Z</time></trkpt><trkpt lat="42.26290421232029" lon="12.396257590803053"><ele>192.0</ele><time>2026-04-30T17:03:30.999Z</time></trkpt><trkpt lat="42.26309027727802" lon="12.396418367448426"><ele>192.0</ele><time>2026-04-30T17:03:31.999Z</time></trkpt><trkpt lat="42.263277714341" lon="12.396584435721124"><ele>191.0</ele><time>2026-04-30T17:03:32.999Z</time></trkpt><trkpt lat="42.263464812085395" lon="12.39675929578805"><ele>190.0</ele><time>2026-04-30T17:03:33.999Z</time></trkpt><trkpt lat="42.263648724553" lon="12.396942500707638"><ele>190.0</ele><time>2026-04-30T17:03:34.999Z</time></trkpt><trkpt lat="42.26383247795869" lon="12.3971289492784"><ele>190.0</ele><time>2026-04-30T17:03:35.999Z</time></trkpt><trkpt lat="42.26401688685861" lon="12.397314108002439"><ele>188.5</ele><time>2026-04-30T17:03:36.999Z</time></trkpt><trkpt lat="42.26419889132014" lon="12.397495789472009"><ele>187.0</ele><time>2026-04-30T17:03:37.999Z</time></trkpt><trkpt lat="42.264385526923654" lon="12.397665280692696"><ele>187.0</ele><time>2026-04-30T17:03:38.999Z</time></trkpt><trkpt lat="42.26458331644643" lon="12.397812008435924"><ele>187.0</ele><time>2026-04-30T17:03:39.999Z</time></trkpt><trkpt lat="42.26478579503459" lon="12.397949491540027"><ele>188.5</ele><time>2026-04-30T17:03:40.999Z</time></trkpt><trkpt lat="42.264992874334546" lon="12.398085007532929"><ele>190.0</ele><time>2026-04-30T17:03:41.999Z</time></trkpt><trkpt lat="42.265197871690276" lon="12.398226467504164"><ele>190.0</ele><time>2026-04-30T17:03:42.999Z</time></trkpt><trkpt lat="42.26540463161782" lon="12.398364400264581"><ele>190.0</ele><time>2026-04-30T17:03:43.999Z</time></trkpt><trkpt lat="42.26561126908677" lon="12.398504251086129"><ele>188.0</ele><time>2026-04-30T17:03:44.999Z</time></trkpt><trkpt lat="42.2658157630142" lon="12.398644695672429"><ele>186.0</ele><time>2026-04-30T17:03:45.999Z</time></trkpt><trkpt lat="42.26601829232023" lon="12.398783812334596"><ele>185.66666666666666</ele><time>2026-04-30T17:03:46.999Z</time></trkpt><trkpt lat="42.26621829508813" lon="12.398930412047928"><ele>185.33333333333331</ele><time>2026-04-30T17:03:47.999Z</time></trkpt><trkpt lat="42.26641217859985" lon="12.399071717931726"><ele>185.0</ele><time>2026-04-30T17:03:48.999Z</time></trkpt><trkpt lat="42.266608943115884" lon="12.399200279978302"><ele>184.33333333333331</ele><time>2026-04-30T17:03:49.999Z</time></trkpt><trkpt lat="42.266815204892126" lon="12.399299329533921"><ele>183.66666666666666</ele><time>2026-04-30T17:03:50.999Z</time></trkpt><trkpt lat="42.2670357131813" lon="12.399377395902713"><ele>183.0</ele><time>2026-04-30T17:03:51.999Z</time></trkpt><trkpt lat="42.26726565142622" lon="12.399428538130838"><ele>184.0</ele><time>2026-04-30T17:03:52.999Z</time></trkpt><trkpt lat="42.26749456906552" lon="12.39948170317739"><ele>185.0</ele><time>2026-04-30T17:03:53.999Z</time></trkpt><trkpt lat="42.26772410593982" lon="12.399538477180627"><ele>185.0</ele><time>2026-04-30T17:03:54.999Z</time></trkpt><trkpt lat="42.26795213600776" lon="12.399603461247956"><ele>185.0</ele><time>2026-04-30T17:03:55.999Z</time></trkpt><trkpt lat="42.268178179377855" lon="12.399671947460629"><ele>183.5</ele><time>2026-04-30T17:03:56.999Z</time></trkpt><trkpt lat="42.26840481720537" lon="12.399738978529484"><ele>182.0</ele><time>2026-04-30T17:03:57.999Z</time></trkpt><trkpt lat="42.268631356715446" lon="12.39980138721435"><ele>182.0</ele><time>2026-04-30T17:03:58.999Z</time></trkpt><trkpt lat="42.2688593184958" lon="12.399862615978051"><ele>182.0</ele><time>2026-04-30T17:03:59.999Z</time></trkpt><trkpt lat="42.26908571057537" lon="12.399930769274215"><ele>182.0</ele><time>2026-04-30T17:04:00.999Z</time></trkpt><trkpt lat="42.26931151762888" lon="12.400001639070574"><ele>182.0</ele><time>2026-04-30T17:04:01.999Z</time></trkpt><trkpt lat="42.26953462647777" lon="12.400079314604618"><ele>182.0</ele><time>2026-04-30T17:04:02.999Z</time></trkpt><trkpt lat="42.2697622803727" lon="12.40015895371578"><ele>182.0</ele><time>2026-04-30T17:04:03.999Z</time></trkpt><trkpt lat="42.269990355274544" lon="12.400242419168114"><ele>181.0</ele><time>2026-04-30T17:04:04.999Z</time></trkpt><trkpt lat="42.27021824367243" lon="12.400327641629444"><ele>180.0</ele><time>2026-04-30T17:04:05.999Z</time></trkpt><trkpt lat="42.270447523502106" lon="12.400417595652717"><ele>179.0</ele><time>2026-04-30T17:04:06.999Z</time></trkpt><trkpt lat="42.270671178370606" lon="12.400535604913065"><ele>178.0</ele><time>2026-04-30T17:04:08.001Z</time></trkpt><trkpt lat="42.270896965338146" lon="12.4006390925461"><ele>178.0</ele><time>2026-04-30T17:04:09.001Z</time></trkpt><trkpt lat="42.27111909643768" lon="12.400751295558486"><ele>178.0</ele><time>2026-04-30T17:04:10.001Z</time></trkpt><trkpt lat="42.27133621538909" lon="12.400864894212203"><ele>178.0</ele><time>2026-04-30T17:04:11.001Z</time></trkpt><trkpt lat="42.271546557148056" lon="12.40097694981728"><ele>178.0</ele><time>2026-04-30T17:04:12.001Z</time></trkpt><trkpt lat="42.27174144301209" lon="12.401086333139292"><ele>178.0</ele><time>2026-04-30T17:04:13.001Z</time></trkpt><trkpt lat="42.271921877564004" lon="12.401194413923276"><ele>178.0</ele><time>2026-04-30T17:04:14.001Z</time></trkpt><trkpt lat="42.27208966779292" lon="12.401299424701872"><ele>178.0</ele><time>2026-04-30T17:04:15.001Z</time></trkpt><trkpt lat="42.272257834279486" lon="12.401415992175329"><ele>178.0</ele><time>2026-04-30T17:04:16.001Z</time></trkpt><trkpt lat="42.27242448865959" lon="12.401547213525777"><ele>177.66666666666669</ele><time>2026-04-30T17:04:17.001Z</time></trkpt><trkpt lat="42.272590437525174" lon="12.401704705564967"><ele>177.33333333333334</ele><time>2026-04-30T17:04:18.001Z</time></trkpt><trkpt lat="42.272745328277395" lon="12.401881164464736"><ele>177.0</ele><time>2026-04-30T17:04:19.001Z</time></trkpt><trkpt lat="42.272897320955174" lon="12.402061828494892"><ele>176.66666666666666</ele><time>2026-04-30T17:04:20.001Z</time></trkpt><trkpt lat="42.273050519851864" lon="12.402242083318875"><ele>176.33333333333331</ele><time>2026-04-30T17:04:21.001Z</time></trkpt><trkpt lat="42.273208697274825" lon="12.402427310978833"><ele>176.0</ele><time>2026-04-30T17:04:22.001Z</time></trkpt><trkpt lat="42.27336632834108" lon="12.402623084296492"><ele>176.0</ele><time>2026-04-30T17:04:23.001Z</time></trkpt><trkpt lat="42.27352468777559" lon="12.402822729489037"><ele>176.0</ele><time>2026-04-30T17:04:24.001Z</time></trkpt><trkpt lat="42.27370959368084" lon="12.402996393112176"><ele>176.0</ele><time>2026-04-30T17:04:25.001Z</time></trkpt><trkpt lat="42.27386913288624" lon="12.403209948268662"><ele>175.5</ele><time>2026-04-30T17:04:26.001Z</time></trkpt><trkpt lat="42.27402966288679" lon="12.403426955349945"><ele>175.0</ele><time>2026-04-30T17:04:27.001Z</time></trkpt><trkpt lat="42.27419373583202" lon="12.40364700388413"><ele>173.5</ele><time>2026-04-30T17:04:28.001Z</time></trkpt><trkpt lat="42.27434467285877" lon="12.403893891934358"><ele>172.0</ele><time>2026-04-30T17:04:29.001Z</time></trkpt><trkpt lat="42.27451492216843" lon="12.404116249600055"><ele>172.0</ele><time>2026-04-30T17:04:30.001Z</time></trkpt><trkpt lat="42.274691047746416" lon="12.404340706653866"><ele>172.0</ele><time>2026-04-30T17:04:31.001Z</time></trkpt><trkpt lat="42.27486880702813" lon="12.404564609368146"><ele>170.0</ele><time>2026-04-30T17:04:32.001Z</time></trkpt><trkpt lat="42.27504911507123" lon="12.404792596704285"><ele>168.0</ele><time>2026-04-30T17:04:33.001Z</time></trkpt><trkpt lat="42.27522898180945" lon="12.405020549070247"><ele>168.0</ele><time>2026-04-30T17:04:34Z</time></trkpt><trkpt lat="42.27541186379014" lon="12.40525126484079"><ele>168.0</ele><time>2026-04-30T17:04:35Z</time></trkpt><trkpt lat="42.27559617450001" lon="12.405483064536227"><ele>167.0</ele><time>2026-04-30T17:04:36Z</time></trkpt><trkpt lat="42.27579526829679" lon="12.405694755345317"><ele>166.0</ele><time>2026-04-30T17:04:37Z</time></trkpt><trkpt lat="42.27598027587921" lon="12.405932758327634"><ele>166.0</ele><time>2026-04-30T17:04:38Z</time></trkpt><trkpt lat="42.27616976638974" lon="12.406163691096609"><ele>166.0</ele><time>2026-04-30T17:04:39Z</time></trkpt><trkpt lat="42.276362078933445" lon="12.406397774978084"><ele>165.0</ele><time>2026-04-30T17:04:40Z</time></trkpt><trkpt lat="42.27654336535203" lon="12.406647320705659"><ele>164.0</ele><time>2026-04-30T17:04:41Z</time></trkpt><trkpt lat="42.276755017003076" lon="12.40685597987201"><ele>164.0</ele><time>2026-04-30T17:04:42Z</time></trkpt><trkpt lat="42.27695988079685" lon="12.40707450478002"><ele>164.0</ele><time>2026-04-30T17:04:43Z</time></trkpt><trkpt lat="42.277167562963804" lon="12.407286438853065"><ele>160.5</ele><time>2026-04-30T17:04:44Z</time></trkpt><trkpt lat="42.277327589868" lon="12.407506910086335"><ele>157.0</ele><time>2026-04-30T17:04:45Z</time></trkpt><trkpt lat="42.27747041531369" lon="12.407740365448516"><ele>155.5</ele><time>2026-04-30T17:04:46Z</time></trkpt><trkpt lat="42.277605757334776" lon="12.408007329801793"><ele>154.0</ele><time>2026-04-30T17:04:47Z</time></trkpt><trkpt lat="42.27773615923742" lon="12.408280463827946"><ele>154.0</ele><time>2026-04-30T17:04:48Z</time></trkpt><trkpt lat="42.27786043675768" lon="12.408546674433845"><ele>154.0</ele><time>2026-04-30T17:04:49Z</time></trkpt><trkpt lat="42.27799128572238" lon="12.40881901110276"><ele>153.66666666666669</ele><time>2026-04-30T17:04:50Z</time></trkpt><trkpt lat="42.27811548626217" lon="12.409075915136489"><ele>153.33333333333334</ele><time>2026-04-30T17:04:51Z</time></trkpt><trkpt lat="42.2782319833538" lon="12.409325300794656"><ele>153.0</ele><time>2026-04-30T17:04:52Z</time></trkpt><trkpt lat="42.27832924761439" lon="12.409575676388192"><ele>152.66666666666666</ele><time>2026-04-30T17:04:53Z</time></trkpt><trkpt lat="42.278396223323455" lon="12.409840107562289"><ele>152.33333333333331</ele><time>2026-04-30T17:04:54Z</time></trkpt><trkpt lat="42.27845755669848" lon="12.410117311145946"><ele>152.0</ele><time>2026-04-30T17:04:55Z</time></trkpt><trkpt lat="42.278518619081176" lon="12.410411552060534"><ele>150.0</ele><time>2026-04-30T17:04:56Z</time></trkpt><trkpt lat="42.278580955246056" lon="12.410711930925835"><ele>148.0</ele><time>2026-04-30T17:04:57Z</time></trkpt><trkpt lat="42.278645011449335" lon="12.411020597946232"><ele>148.0</ele><time>2026-04-30T17:04:58Z</time></trkpt><trkpt lat="42.278702235819225" lon="12.411300377933149"><ele>148.0</ele><time>2026-04-30T17:04:59Z</time></trkpt><trkpt lat="42.278758344747075" lon="12.41157403952681"><ele>148.0</ele><time>2026-04-30T17:05:00Z</time></trkpt><trkpt lat="42.278815610743656" lon="12.411853344556318"><ele>147.33333333333334</ele><time>2026-04-30T17:05:01Z</time></trkpt><trkpt lat="42.27887305396899" lon="12.412124295027848"><ele>146.66666666666666</ele><time>2026-04-30T17:05:02Z</time></trkpt><trkpt lat="42.27892997636586" lon="12.412392715950082"><ele>146.0</ele><time>2026-04-30T17:05:03Z</time></trkpt><trkpt lat="42.27898762463279" lon="12.41265027644371"><ele>146.33333333333331</ele><time>2026-04-30T17:05:04Z</time></trkpt><trkpt lat="42.279062773857895" lon="12.412897749912634"><ele>146.66666666666666</ele><time>2026-04-30T17:05:05Z</time></trkpt><trkpt lat="42.27913486074586" lon="12.413151146099331"><ele>147.0</ele><time>2026-04-30T17:05:06Z</time></trkpt><trkpt lat="42.279248742493266" lon="12.413365315811877"><ele>147.0</ele><time>2026-04-30T17:05:07Z</time></trkpt><trkpt lat="42.27935959408029" lon="12.413540111781836"><ele>147.0</ele><time>2026-04-30T17:05:08Z</time></trkpt><trkpt lat="42.279493809942586" lon="12.413717927324303"><ele>147.0</ele><time>2026-04-30T17:05:09Z</time></trkpt><trkpt lat="42.27964391226406" lon="12.413883015756356"><ele>145.0</ele><time>2026-04-30T17:05:10Z</time></trkpt><trkpt lat="42.279805303272596" lon="12.414051449868973"><ele>143.0</ele><time>2026-04-30T17:05:11Z</time></trkpt><trkpt lat="42.27998108630247" lon="12.41423023380721"><ele>141.0</ele><time>2026-04-30T17:05:12Z</time></trkpt><trkpt lat="42.28016084774191" lon="12.41441466890204"><ele>141.0</ele><time>2026-04-30T17:05:13Z</time></trkpt><trkpt lat="42.280342395166414" lon="12.414602157531746"><ele>141.0</ele><time>2026-04-30T17:05:14Z</time></trkpt><trkpt lat="42.28051165902367" lon="12.414789500465387"><ele>141.0</ele><time>2026-04-30T17:05:15Z</time></trkpt><trkpt lat="42.28068447691316" lon="12.414970576630829"><ele>137.33333333333334</ele><time>2026-04-30T17:05:16Z</time></trkpt><trkpt lat="42.28084366427791" lon="12.415119047859971"><ele>133.66666666666669</ele><time>2026-04-30T17:05:17Z</time></trkpt><trkpt lat="42.28101790769376" lon="12.41529525468976"><ele>130.0</ele><time>2026-04-30T17:05:18Z</time></trkpt><trkpt lat="42.28118315219642" lon="12.415482054226128"><ele>128.0</ele><time>2026-04-30T17:05:19Z</time></trkpt><trkpt lat="42.281347763800355" lon="12.415651740879328"><ele>126.0</ele><time>2026-04-30T17:05:20Z</time></trkpt><trkpt lat="42.281509687350066" lon="12.415816911548005"><ele>124.0</ele><time>2026-04-30T17:05:21Z</time></trkpt><trkpt lat="42.28167636810799" lon="12.415991881909804"><ele>124.0</ele><time>2026-04-30T17:05:22Z</time></trkpt><trkpt lat="42.281841515385594" lon="12.416156519637227"><ele>124.0</ele><time>2026-04-30T17:05:23Z</time></trkpt><trkpt lat="42.28200424066942" lon="12.416324670763984"><ele>124.0</ele><time>2026-04-30T17:05:24Z</time></trkpt><trkpt lat="42.28216652266612" lon="12.416486895670154"><ele>122.0</ele><time>2026-04-30T17:05:25Z</time></trkpt><trkpt lat="42.28233227219727" lon="12.416653590788338"><ele>120.0</ele><time>2026-04-30T17:05:26Z</time></trkpt><trkpt lat="42.282492225688756" lon="12.416822667812715"><ele>118.0</ele><time>2026-04-30T17:05:27Z</time></trkpt><trkpt lat="42.28264522635474" lon="12.416966438780394"><ele>118.0</ele><time>2026-04-30T17:05:28Z</time></trkpt><trkpt lat="42.28280562972861" lon="12.41706795358547"><ele>118.0</ele><time>2026-04-30T17:05:29Z</time></trkpt><trkpt lat="42.282995452073536" lon="12.41714366435367"><ele>118.0</ele><time>2026-04-30T17:05:30Z</time></trkpt><trkpt lat="42.283167410267026" lon="12.417235270394732"><ele>117.33333333333334</ele><time>2026-04-30T17:05:31Z</time></trkpt><trkpt lat="42.28332992487005" lon="12.41735240466394"><ele>116.66666666666666</ele><time>2026-04-30T17:05:32Z</time></trkpt><trkpt lat="42.28347932288737" lon="12.417476402743524"><ele>116.0</ele><time>2026-04-30T17:05:33Z</time></trkpt><trkpt lat="42.283631443725206" lon="12.417576829880153"><ele>116.0</ele><time>2026-04-30T17:05:34Z</time></trkpt><trkpt lat="42.2837774290131" lon="12.417649045273793"><ele>116.0</ele><time>2026-04-30T17:05:34.999Z</time></trkpt><trkpt lat="42.283956796493676" lon="12.417705534572018"><ele>116.0</ele><time>2026-04-30T17:05:35.999Z</time></trkpt><trkpt lat="42.284128980239686" lon="12.417764690631094"><ele>118.66666666666666</ele><time>2026-04-30T17:05:36.999Z</time></trkpt><trkpt lat="42.28428970744318" lon="12.417848690510414"><ele>121.33333333333334</ele><time>2026-04-30T17:05:37.999Z</time></trkpt><trkpt lat="42.2844396884119" lon="12.41793437572931"><ele>124.0</ele><time>2026-04-30T17:05:38.999Z</time></trkpt><trkpt lat="42.284584009954706" lon="12.418053978296312"><ele>124.0</ele><time>2026-04-30T17:05:39.999Z</time></trkpt><trkpt lat="42.28472156943643" lon="12.418191297099908"><ele>124.0</ele><time>2026-04-30T17:05:40.999Z</time></trkpt><trkpt lat="42.284858267584646" lon="12.41833694680003"><ele>124.0</ele><time>2026-04-30T17:05:41.999Z</time></trkpt><trkpt lat="42.2850113333112" lon="12.418448711810154"><ele>115.66666666666667</ele><time>2026-04-30T17:05:42.999Z</time></trkpt><trkpt lat="42.28514595818026" lon="12.418522139672804"><ele>107.33333333333334</ele><time>2026-04-30T17:05:43.999Z</time></trkpt><trkpt lat="42.285308172104465" lon="12.418585185392613"><ele>99.0</ele><time>2026-04-30T17:05:44.999Z</time></trkpt><trkpt lat="42.28546629986688" lon="12.41862528271797"><ele>93.75</ele><time>2026-04-30T17:05:45.999Z</time></trkpt><trkpt lat="42.28562599619925" lon="12.418634547967041"><ele>88.5</ele><time>2026-04-30T17:05:46.999Z</time></trkpt><trkpt lat="42.28577122492354" lon="12.41864420103672"><ele>83.25</ele><time>2026-04-30T17:05:47.999Z</time></trkpt><trkpt lat="42.285907848451316" lon="12.418665313676325"><ele>78.0</ele><time>2026-04-30T17:05:48.999Z</time></trkpt><trkpt lat="42.286025856674975" lon="12.418680750680933"><ele>78.0</ele><time>2026-04-30T17:05:49.999Z</time></trkpt><trkpt lat="42.286117963472606" lon="12.418699693221651"><ele>78.0</ele><time>2026-04-30T17:05:50.999Z</time></trkpt><trkpt lat="42.286215821081186" lon="12.418741174320399"><ele>78.0</ele><time>2026-04-30T17:05:51.999Z</time></trkpt><trkpt lat="42.286296741546" lon="12.418815635268166"><ele>78.0</ele><time>2026-04-30T17:05:52.999Z</time></trkpt><trkpt lat="42.286348959446926" lon="12.41892098224283"><ele>78.0</ele><time>2026-04-30T17:05:53.999Z</time></trkpt><trkpt lat="42.286370949478" lon="12.419063290110897"><ele>78.0</ele><time>2026-04-30T17:05:54.999Z</time></trkpt><trkpt lat="42.28638936657463" lon="12.419227507566292"><ele>78.0</ele><time>2026-04-30T17:05:55.999Z</time></trkpt><trkpt lat="42.28641310687839" lon="12.419409565290923"><ele>78.0</ele><time>2026-04-30T17:05:56.999Z</time></trkpt><trkpt lat="42.286445431674466" lon="12.419590733791717"><ele>78.0</ele><time>2026-04-30T17:05:57.999Z</time></trkpt><trkpt lat="42.28647571019838" lon="12.419786371843719"><ele>78.0</ele><time>2026-04-30T17:05:58.999Z</time></trkpt><trkpt lat="42.28650168233833" lon="12.41998735030437"><ele>78.0</ele><time>2026-04-30T17:05:59.999Z</time></trkpt><trkpt lat="42.28652740402557" lon="12.420200417486672"><ele>78.0</ele><time>2026-04-30T17:06:00.999Z</time></trkpt><trkpt lat="42.28654221676104" lon="12.420416615507138"><ele>79.66666666666667</ele><time>2026-04-30T17:06:01.999Z</time></trkpt><trkpt lat="42.28655772002782" lon="12.420649427592798"><ele>81.33333333333334</ele><time>2026-04-30T17:06:02.999Z</time></trkpt><trkpt lat="42.2865726310827" lon="12.420881059930204"><ele>83.0</ele><time>2026-04-30T17:06:03.999Z</time></trkpt><trkpt lat="42.28659334457702" lon="12.42110644627001"><ele>81.33333333333334</ele><time>2026-04-30T17:06:04.999Z</time></trkpt><trkpt lat="42.286609869797395" lon="12.42133440697656"><ele>79.66666666666667</ele><time>2026-04-30T17:06:05.999Z</time></trkpt><trkpt lat="42.286636137859766" lon="12.421563482956085"><ele>78.0</ele><time>2026-04-30T17:06:06.999Z</time></trkpt><trkpt lat="42.286662852364216" lon="12.421756642466956"><ele>78.0</ele><time>2026-04-30T17:06:07.999Z</time></trkpt><trkpt lat="42.28670062528384" lon="12.421911778764374"><ele>78.0</ele><time>2026-04-30T17:06:08.999Z</time></trkpt><trkpt lat="42.28675717388572" lon="12.42202704611772"><ele>78.0</ele><time>2026-04-30T17:06:09.999Z</time></trkpt><trkpt lat="42.28685301020695" lon="12.422105325120905"><ele>78.0</ele><time>2026-04-30T17:06:10.999Z</time></trkpt><trkpt lat="42.28695238418275" lon="12.422147120056701"><ele>78.0</ele><time>2026-04-30T17:06:11.999Z</time></trkpt><trkpt lat="42.287082212364645" lon="12.422147120210061"><ele>78.0</ele><time>2026-04-30T17:06:12.999Z</time></trkpt><trkpt lat="42.28720475159535" lon="12.422125708977203"><ele>78.0</ele><time>2026-04-30T17:06:14.001Z</time></trkpt><trkpt lat="42.28731846178772" lon="12.422109772532165"><ele>78.0</ele><time>2026-04-30T17:06:15.001Z</time></trkpt><trkpt lat="42.28743954801411" lon="12.422103215349114"><ele>78.0</ele><time>2026-04-30T17:06:16.001Z</time></trkpt><trkpt lat="42.28755739075965" lon="12.422068771483824"><ele>74.66666666666667</ele><time>2026-04-30T17:06:17.001Z</time></trkpt><trkpt lat="42.28770371944022" lon="12.422036521756754"><ele>71.33333333333334</ele><time>2026-04-30T17:06:18.001Z</time></trkpt><trkpt lat="42.287859223824796" lon="12.422005478667318"><ele>68.0</ele><time>2026-04-30T17:06:19.001Z</time></trkpt><trkpt lat="42.28801630271451" lon="12.421977474438048"><ele>72.33333333333334</ele><time>2026-04-30T17:06:20.001Z</time></trkpt><trkpt lat="42.28817622794929" lon="12.42194902236562"><ele>76.66666666666667</ele><time>2026-04-30T17:06:21.001Z</time></trkpt><trkpt lat="42.28833894953808" lon="12.421917940617242"><ele>81.0</ele><time>2026-04-30T17:06:22.001Z</time></trkpt><trkpt lat="42.288503231175426" lon="12.421883999098961"><ele>81.0</ele><time>2026-04-30T17:06:23.001Z</time></trkpt><trkpt lat="42.28866812555653" lon="12.421860715953454"><ele>81.0</ele><time>2026-04-30T17:06:24.001Z</time></trkpt><trkpt lat="42.28884003718046" lon="12.421847977070177"><ele>81.0</ele><time>2026-04-30T17:06:25.001Z</time></trkpt><trkpt lat="42.28901463835706" lon="12.421852559064673"><ele>82.66666666666667</ele><time>2026-04-30T17:06:26.001Z</time></trkpt><trkpt lat="42.2891911228775" lon="12.421870730076174"><ele>84.33333333333334</ele><time>2026-04-30T17:06:27.001Z</time></trkpt><trkpt lat="42.28937229651124" lon="12.42190090613028"><ele>86.0</ele><time>2026-04-30T17:06:28.001Z</time></trkpt><trkpt lat="42.2895513889659" lon="12.421931506648674"><ele>86.0</ele><time>2026-04-30T17:06:29.001Z</time></trkpt><trkpt lat="42.28973028140501" lon="12.421954746342683"><ele>86.0</ele><time>2026-04-30T17:06:30.001Z</time></trkpt><trkpt lat="42.289909892530744" lon="12.42197074019897"><ele>86.0</ele><time>2026-04-30T17:06:31.001Z</time></trkpt><trkpt lat="42.29008462856164" lon="12.421989410695575"><ele>90.0</ele><time>2026-04-30T17:06:32.001Z</time></trkpt><trkpt lat="42.290250043762995" lon="12.422032716659373"><ele>94.0</ele><time>2026-04-30T17:06:33.001Z</time></trkpt><trkpt lat="42.29040667143127" lon="12.42206852917538"><ele>98.0</ele><time>2026-04-30T17:06:34.001Z</time></trkpt><trkpt lat="42.29055703250013" lon="12.422076625271147"><ele>99.33333333333333</ele><time>2026-04-30T17:06:35.001Z</time></trkpt><trkpt lat="42.290706481407234" lon="12.422042580176116"><ele>100.66666666666666</ele><time>2026-04-30T17:06:36Z</time></trkpt><trkpt lat="42.29085121643528" lon="12.421980905048319"><ele>102.0</ele><time>2026-04-30T17:06:37Z</time></trkpt><trkpt lat="42.290989731851845" lon="12.421905890278385"><ele>102.0</ele><time>2026-04-30T17:06:38Z</time></trkpt><trkpt lat="42.29112089956732" lon="12.42184641709203"><ele>102.0</ele><time>2026-04-30T17:06:39Z</time></trkpt><trkpt lat="42.29124813664241" lon="12.4218082743147"><ele>102.0</ele><time>2026-04-30T17:06:40Z</time></trkpt><trkpt lat="42.291369701224234" lon="12.421764916108613"><ele>102.0</ele><time>2026-04-30T17:06:41Z</time></trkpt><trkpt lat="42.29149121312061" lon="12.421731357884328"><ele>98.6</ele><time>2026-04-30T17:06:42Z</time></trkpt><trkpt lat="42.29161078592027" lon="12.421720843483513"><ele>95.19999999999999</ele><time>2026-04-30T17:06:43Z</time></trkpt><trkpt lat="42.29171808035775" lon="12.421737021876806"><ele>91.8</ele><time>2026-04-30T17:06:44Z</time></trkpt><trkpt lat="42.2918018390899" lon="12.421757444114165"><ele>88.4</ele><time>2026-04-30T17:06:45Z</time></trkpt><trkpt lat="42.29187906596762" lon="12.4217895891864"><ele>85.0</ele><time>2026-04-30T17:06:46Z</time></trkpt><trkpt lat="42.291946119276986" lon="12.421824236110682"><ele>85.0</ele><time>2026-04-30T17:06:47Z</time></trkpt><trkpt lat="42.292044739291384" lon="12.421870519653519"><ele>85.0</ele><time>2026-04-30T17:06:49Z</time></trkpt><trkpt lat="42.292122551921146" lon="12.421965034672816"><ele>85.0</ele><time>2026-04-30T17:06:51Z</time></trkpt><trkpt lat="42.292158304002236" lon="12.422048551291057"><ele>85.0</ele><time>2026-04-30T17:06:52Z</time></trkpt><trkpt lat="42.292210534806124" lon="12.42213616538071"><ele>85.0</ele><time>2026-04-30T17:06:53Z</time></trkpt><trkpt lat="42.29225961488214" lon="12.42225458289328"><ele>86.75</ele><time>2026-04-30T17:06:54Z</time></trkpt><trkpt lat="42.292302502457844" lon="12.42239317937421"><ele>88.5</ele><time>2026-04-30T17:06:55Z</time></trkpt><trkpt lat="42.292346061106755" lon="12.422536172303088"><ele>90.25</ele><time>2026-04-30T17:06:56Z</time></trkpt><trkpt lat="42.29239730879591" lon="12.422685469729362"><ele>92.0</ele><time>2026-04-30T17:06:57Z</time></trkpt><trkpt lat="42.29244346279917" lon="12.422847710568398"><ele>88.0</ele><time>2026-04-30T17:06:58Z</time></trkpt><trkpt lat="42.29248584071035" lon="12.423020014885907"><ele>84.0</ele><time>2026-04-30T17:06:59Z</time></trkpt><trkpt lat="42.29253520028657" lon="12.42319302044498"><ele>80.0</ele><time>2026-04-30T17:07:00Z</time></trkpt><trkpt lat="42.29259524110194" lon="12.42336614950514"><ele>76.0</ele><time>2026-04-30T17:07:01Z</time></trkpt><trkpt lat="42.29266288535126" lon="12.42353779681486"><ele>76.0</ele><time>2026-04-30T17:07:02Z</time></trkpt><trkpt lat="42.292730847368425" lon="12.423707278502164"><ele>76.0</ele><time>2026-04-30T17:07:03Z</time></trkpt><trkpt lat="42.292794010009814" lon="12.423881296919578"><ele>76.0</ele><time>2026-04-30T17:07:04Z</time></trkpt><trkpt lat="42.292847499502415" lon="12.424063921818583"><ele>76.0</ele><time>2026-04-30T17:07:05Z</time></trkpt><trkpt lat="42.29289216437084" lon="12.42425167696033"><ele>73.0</ele><time>2026-04-30T17:07:06Z</time></trkpt><trkpt lat="42.29292284631544" lon="12.424445515713073"><ele>70.0</ele><time>2026-04-30T17:07:07Z</time></trkpt><trkpt lat="42.292937422241614" lon="12.424641767229762"><ele>67.0</ele><time>2026-04-30T17:07:08Z</time></trkpt><trkpt lat="42.29295447041218" lon="12.424830585819688"><ele>64.0</ele><time>2026-04-30T17:07:09Z</time></trkpt><trkpt lat="42.29298133399209" lon="12.425032295334507"><ele>62.33333333333333</ele><time>2026-04-30T17:07:10Z</time></trkpt><trkpt lat="42.29300813228625" lon="12.425240441084195"><ele>60.66666666666667</ele><time>2026-04-30T17:07:11Z</time></trkpt><trkpt lat="42.29305085750792" lon="12.42545164051809"><ele>59.0</ele><time>2026-04-30T17:07:12Z</time></trkpt><trkpt lat="42.29309711326571" lon="12.425671390812381"><ele>66.0</ele><time>2026-04-30T17:07:13Z</time></trkpt><trkpt lat="42.29314004934904" lon="12.42589934785598"><ele>73.0</ele><time>2026-04-30T17:07:14Z</time></trkpt><trkpt lat="42.29317723646732" lon="12.426136966242051"><ele>80.0</ele><time>2026-04-30T17:07:15Z</time></trkpt><trkpt lat="42.293203967193286" lon="12.42638254788453"><ele>80.0</ele><time>2026-04-30T17:07:16Z</time></trkpt><trkpt lat="42.29322068599793" lon="12.426633243131516"><ele>80.0</ele><time>2026-04-30T17:07:17Z</time></trkpt><trkpt lat="42.293245450714714" lon="12.426877278563632"><ele>80.0</ele><time>2026-04-30T17:07:18Z</time></trkpt><trkpt lat="42.29328379066741" lon="12.42711181293892"><ele>77.66666666666667</ele><time>2026-04-30T17:07:19Z</time></trkpt><trkpt lat="42.29333536414323" lon="12.42733219431027"><ele>75.33333333333333</ele><time>2026-04-30T17:07:20Z</time></trkpt><trkpt lat="42.29340198445104" lon="12.427536865866276"><ele>73.0</ele><time>2026-04-30T17:07:21Z</time></trkpt><trkpt lat="42.29345942623655" lon="12.427718713647998"><ele>73.0</ele><time>2026-04-30T17:07:22Z</time></trkpt><trkpt lat="42.293494885660735" lon="12.42790578107321"><ele>73.0</ele><time>2026-04-30T17:07:23Z</time></trkpt><trkpt lat="42.29350959273995" lon="12.428075466207849"><ele>73.0</ele><time>2026-04-30T17:07:24Z</time></trkpt><trkpt lat="42.29349464894718" lon="12.428210087924143"><ele>73.0</ele><time>2026-04-30T17:07:25Z</time></trkpt><trkpt lat="42.29345083287205" lon="12.428296052624333"><ele>73.0</ele><time>2026-04-30T17:07:26Z</time></trkpt><trkpt lat="42.293381584201285" lon="12.428328302207056"><ele>70.25</ele><time>2026-04-30T17:07:27Z</time></trkpt><trkpt lat="42.29329566079934" lon="12.42830164465741"><ele>67.5</ele><time>2026-04-30T17:07:28Z</time></trkpt><trkpt lat="42.29319828841367" lon="12.4282567157499"><ele>64.75</ele><time>2026-04-30T17:07:29Z</time></trkpt><trkpt lat="42.2930830947373" lon="12.428197162932051"><ele>62.0</ele><time>2026-04-30T17:07:30Z</time></trkpt><trkpt lat="42.29291514645694" lon="12.428159476703199"><ele>58.66666666666667</ele><time>2026-04-30T17:07:30.999Z</time></trkpt><trkpt lat="42.292751932892685" lon="12.42807561423419"><ele>55.33333333333333</ele><time>2026-04-30T17:07:31.999Z</time></trkpt><trkpt lat="42.29260243907739" lon="12.42801412145454"><ele>52.0</ele><time>2026-04-30T17:07:32.999Z</time></trkpt><trkpt lat="42.29242941542678" lon="12.42799603610891"><ele>52.666666666666664</ele><time>2026-04-30T17:07:33.999Z</time></trkpt><trkpt lat="42.29223704336247" lon="12.427997666548052"><ele>53.33333333333333</ele><time>2026-04-30T17:07:34.999Z</time></trkpt><trkpt lat="42.2920602977697" lon="12.42799894751531"><ele>54.0</ele><time>2026-04-30T17:07:35.999Z</time></trkpt><trkpt lat="42.291895811163414" lon="12.42799134836054"><ele>54.0</ele><time>2026-04-30T17:07:36.999Z</time></trkpt><trkpt lat="42.2917148458947" lon="12.428008732640334"><ele>54.0</ele><time>2026-04-30T17:07:37.999Z</time></trkpt><trkpt lat="42.29153524804573" lon="12.428011533475903"><ele>54.0</ele><time>2026-04-30T17:07:38.999Z</time></trkpt><trkpt lat="42.291360600973604" lon="12.427985083323314"><ele>57.25</ele><time>2026-04-30T17:07:39.999Z</time></trkpt><trkpt lat="42.29120724497994" lon="12.427921102664527"><ele>60.5</ele><time>2026-04-30T17:07:40.999Z</time></trkpt><trkpt lat="42.29109394249744" lon="12.427807339773366"><ele>63.75</ele><time>2026-04-30T17:07:41.999Z</time></trkpt><trkpt lat="42.29098583592116" lon="12.427690865052272"><ele>67.0</ele><time>2026-04-30T17:07:42.999Z</time></trkpt><trkpt lat="42.29091338787666" lon="12.427491318006219"><ele>67.0</ele><time>2026-04-30T17:07:43.999Z</time></trkpt><trkpt lat="42.29086148170721" lon="12.427272212626749"><ele>67.0</ele><time>2026-04-30T17:07:44.999Z</time></trkpt><trkpt lat="42.29079830915344" lon="12.426977092257227"><ele>67.0</ele><time>2026-04-30T17:07:45.999Z</time></trkpt><trkpt lat="42.29072774494395" lon="12.426743490900776"><ele>66.0</ele><time>2026-04-30T17:07:46.999Z</time></trkpt><trkpt lat="42.2906653192931" lon="12.42650863010486"><ele>65.0</ele><time>2026-04-30T17:07:47.999Z</time></trkpt><trkpt lat="42.29061286302426" lon="12.426286144453062"><ele>64.0</ele><time>2026-04-30T17:07:48.999Z</time></trkpt><trkpt lat="42.290548090413914" lon="12.426058209432897"><ele>67.0</ele><time>2026-04-30T17:07:49.999Z</time></trkpt><trkpt lat="42.29048723354557" lon="12.425857202263014"><ele>70.0</ele><time>2026-04-30T17:07:50.999Z</time></trkpt><trkpt lat="42.290411394278074" lon="12.42566298565657"><ele>73.0</ele><time>2026-04-30T17:07:51.999Z</time></trkpt><trkpt lat="42.29030744915895" lon="12.425482627938925"><ele>71.0</ele><time>2026-04-30T17:07:52.999Z</time></trkpt><trkpt lat="42.29021029420169" lon="12.42537789808024"><ele>69.0</ele><time>2026-04-30T17:07:53.999Z</time></trkpt><trkpt lat="42.29007606992924" lon="12.425284089614845"><ele>67.0</ele><time>2026-04-30T17:07:54.999Z</time></trkpt><trkpt lat="42.28994298297115" lon="12.425274948058146"><ele>65.0</ele><time>2026-04-30T17:07:55.999Z</time></trkpt><trkpt lat="42.28980708770382" lon="12.425280126899057"><ele>66.25</ele><time>2026-04-30T17:07:56.999Z</time></trkpt><trkpt lat="42.289677814864596" lon="12.425320140641809"><ele>67.5</ele><time>2026-04-30T17:07:57.999Z</time></trkpt><trkpt lat="42.28957418780154" lon="12.42545268228192"><ele>68.75</ele><time>2026-04-30T17:07:58.999Z</time></trkpt><trkpt lat="42.28956920965147" lon="12.425573565716526"><ele>70.0</ele><time>2026-04-30T17:07:59.999Z</time></trkpt><trkpt lat="42.28958497281214" lon="12.425706059289782"><ele>70.75</ele><time>2026-04-30T17:08:00.999Z</time></trkpt><trkpt lat="42.28970118196893" lon="12.425794673015645"><ele>71.5</ele><time>2026-04-30T17:08:01.999Z</time></trkpt><trkpt lat="42.289769468918216" lon="12.425933335168567"><ele>72.25</ele><time>2026-04-30T17:08:02.999Z</time></trkpt><trkpt lat="42.28984005514826" lon="12.426062470615708"><ele>73.0</ele><time>2026-04-30T17:08:03.999Z</time></trkpt><trkpt lat="42.28972830969622" lon="12.424313993660748"><ele>76.5</ele><time>2026-04-30T17:08:04.999Z</time></trkpt><trkpt lat="42.2898388891273" lon="12.424318098266212"><ele>80.0</ele><time>2026-04-30T17:08:07.999Z</time></trkpt><trkpt lat="42.29031220034191" lon="12.426424840038322"><ele>80.0</ele><time>2026-04-30T17:08:08.999Z</time></trkpt><trkpt lat="42.29038536909196" lon="12.426671187083626"><ele>80.0</ele><time>2026-04-30T17:08:09.999Z</time></trkpt><trkpt lat="42.290431527262584" lon="12.426911964066417"><ele>80.0</ele><time>2026-04-30T17:08:10.999Z</time></trkpt><trkpt lat="42.290470959406555" lon="12.427097385070978"><ele>80.75</ele><time>2026-04-30T17:08:11.999Z</time></trkpt><trkpt lat="42.29046670149981" lon="12.427253960484196"><ele>81.5</ele><time>2026-04-30T17:08:12.999Z</time></trkpt><trkpt lat="42.29047118217155" lon="12.427380113468395"><ele>82.25</ele><time>2026-04-30T17:08:13.999Z</time></trkpt><trkpt lat="42.290472309700256" lon="12.427511154465575"><ele>83.0</ele><time>2026-04-30T17:08:14.999Z</time></trkpt><trkpt lat="42.290301816913384" lon="12.427454734850759"><ele>83.0</ele><time>2026-04-30T17:08:16.999Z</time></trkpt><trkpt lat="42.29020567483454" lon="12.427403862119213"><ele>83.0</ele><time>2026-04-30T17:08:17.999Z</time></trkpt><trkpt lat="42.290113577068034" lon="12.427272076391228"><ele>83.0</ele><time>2026-04-30T17:08:18.999Z</time></trkpt><trkpt lat="42.290001550494836" lon="12.427130135421105"><ele>83.0</ele><time>2026-04-30T17:08:20.001Z</time></trkpt><trkpt lat="42.28990397503178" lon="12.426973013504973"><ele>82.0</ele><time>2026-04-30T17:08:21.001Z</time></trkpt><trkpt lat="42.28981039963859" lon="12.426799987873032"><ele>81.0</ele><time>2026-04-30T17:08:22.001Z</time></trkpt><trkpt lat="42.2897305958804" lon="12.426618645435903"><ele>80.0</ele><time>2026-04-30T17:08:23.001Z</time></trkpt><trkpt lat="42.28960143925465" lon="12.426413668754051"><ele>82.33333333333334</ele><time>2026-04-30T17:08:24.001Z</time></trkpt><trkpt lat="42.28950342596827" lon="12.426212087301396"><ele>84.66666666666667</ele><time>2026-04-30T17:08:25.001Z</time></trkpt><trkpt lat="42.28937468406741" lon="12.425984371240382"><ele>87.0</ele><time>2026-04-30T17:08:26.001Z</time></trkpt><trkpt lat="42.28920013458157" lon="12.42581563727219"><ele>87.0</ele><time>2026-04-30T17:08:27.001Z</time></trkpt><trkpt lat="42.28928105540139" lon="12.425757656843786"><ele>87.0</ele><time>2026-04-30T17:08:28.001Z</time></trkpt><trkpt lat="42.28895925229118" lon="12.425757150817821"><ele>87.0</ele><time>2026-04-30T17:08:29.001Z</time></trkpt><trkpt lat="42.28875397977042" lon="12.42566983456279"><ele>90.33333333333334</ele><time>2026-04-30T17:08:30.001Z</time></trkpt><trkpt lat="42.28859500228419" lon="12.42574223037382"><ele>93.66666666666667</ele><time>2026-04-30T17:08:31.001Z</time></trkpt><trkpt lat="42.28843880239128" lon="12.425836619768537"><ele>97.0</ele><time>2026-04-30T17:08:32.001Z</time></trkpt><trkpt lat="42.28826231001653" lon="12.425930579136619"><ele>93.33333333333334</ele><time>2026-04-30T17:08:33.001Z</time></trkpt><trkpt lat="42.287997941744734" lon="12.425994663504369"><ele>89.66666666666667</ele><time>2026-04-30T17:08:34Z</time></trkpt><trkpt lat="42.287861521497895" lon="12.4261071129959"><ele>86.0</ele><time>2026-04-30T17:08:35Z</time></trkpt><trkpt lat="42.287723475006196" lon="12.42622012335817"><ele>93.33333333333334</ele><time>2026-04-30T17:08:36Z</time></trkpt><trkpt lat="42.287607010071994" lon="12.426332814796355"><ele>100.66666666666667</ele><time>2026-04-30T17:08:37Z</time></trkpt><trkpt lat="42.2874770088578" lon="12.426458136673038"><ele>108.0</ele><time>2026-04-30T17:08:38Z</time></trkpt><trkpt lat="42.287349737104165" lon="12.426578811008765"><ele>104.66666666666666</ele><time>2026-04-30T17:08:39Z</time></trkpt><trkpt lat="42.28721569991858" lon="12.426669337577751"><ele>101.33333333333333</ele><time>2026-04-30T17:08:40Z</time></trkpt><trkpt lat="42.28706564414097" lon="12.42672305893535"><ele>98.0</ele><time>2026-04-30T17:08:41Z</time></trkpt><trkpt lat="42.2869189285366" lon="12.426771782241223"><ele>98.0</ele><time>2026-04-30T17:08:42Z</time></trkpt><trkpt lat="42.28676866729064" lon="12.426834415978858"><ele>98.0</ele><time>2026-04-30T17:08:43Z</time></trkpt><trkpt lat="42.286608826993515" lon="12.426896077043228"><ele>98.0</ele><time>2026-04-30T17:08:44Z</time></trkpt><trkpt lat="42.28646133844633" lon="12.426986346189928"><ele>93.0</ele><time>2026-04-30T17:08:45Z</time></trkpt><trkpt lat="42.28631041394775" lon="12.427105106753329"><ele>88.0</ele><time>2026-04-30T17:08:46Z</time></trkpt><trkpt lat="42.28604751766882" lon="12.427248685928161"><ele>94.5</ele><time>2026-04-30T17:08:47Z</time></trkpt><trkpt lat="42.285923127703775" lon="12.427320460446854"><ele>101.0</ele><time>2026-04-30T17:08:48Z</time></trkpt><trkpt lat="42.2858201719624" lon="12.427375712374387"><ele>107.5</ele><time>2026-04-30T17:08:49Z</time></trkpt><trkpt lat="42.28571972936706" lon="12.427424684423025"><ele>114.0</ele><time>2026-04-30T17:08:50Z</time></trkpt><trkpt lat="42.285623039229" lon="12.427449389968228"><ele>113.5</ele><time>2026-04-30T17:08:51Z</time></trkpt><trkpt lat="42.28550175396762" lon="12.427455469814829"><ele>113.0</ele><time>2026-04-30T17:08:52Z</time></trkpt><trkpt lat="42.28537623223251" lon="12.427448979003803"><ele>112.5</ele><time>2026-04-30T17:08:53Z</time></trkpt><trkpt lat="42.285255652437584" lon="12.427436236272937"><ele>112.0</ele><time>2026-04-30T17:08:54Z</time></trkpt><trkpt lat="42.28514250187656" lon="12.427447364890577"><ele>112.0</ele><time>2026-04-30T17:08:55Z</time></trkpt><trkpt lat="42.285034493975424" lon="12.427424029507822"><ele>112.0</ele><time>2026-04-30T17:08:56Z</time></trkpt><trkpt lat="42.28491964985079" lon="12.427435096836854"><ele>112.0</ele><time>2026-04-30T17:08:57Z</time></trkpt><trkpt lat="42.28480747757517" lon="12.427472623827319"><ele>112.0</ele><time>2026-04-30T17:08:58Z</time></trkpt><trkpt lat="42.28470179136472" lon="12.427531300772104"><ele>112.0</ele><time>2026-04-30T17:08:59Z</time></trkpt><trkpt lat="42.28460302895412" lon="12.427606622403724"><ele>111.99999999999999</ele><time>2026-04-30T17:09:00Z</time></trkpt><trkpt lat="42.28453893210827" lon="12.42768060434217"><ele>111.99999999999999</ele><time>2026-04-30T17:09:01Z</time></trkpt><trkpt lat="42.28449708568991" lon="12.427750359028623"><ele>112.0</ele><time>2026-04-30T17:09:02Z</time></trkpt><trkpt lat="42.28442821128881" lon="12.427883843569616"><ele>112.0</ele><time>2026-04-30T17:09:04Z</time></trkpt><trkpt lat="42.284406869257914" lon="12.4279813790218"><ele>112.0</ele><time>2026-04-30T17:09:05Z</time></trkpt><trkpt lat="42.284424095997565" lon="12.428130843022192"><ele>111.99999999999999</ele><time>2026-04-30T17:09:06Z</time></trkpt><trkpt lat="42.28446342392215" lon="12.428258818052123"><ele>111.99999999999999</ele><time>2026-04-30T17:09:07Z</time></trkpt><trkpt lat="42.28451630063022" lon="12.428382972597399"><ele>112.0</ele><time>2026-04-30T17:09:08Z</time></trkpt><trkpt lat="42.28457919003481" lon="12.428508395978149"><ele>112.0</ele><time>2026-04-30T17:09:09Z</time></trkpt><trkpt lat="42.284679245957946" lon="12.428596737594765"><ele>114.25</ele><time>2026-04-30T17:09:10Z</time></trkpt><trkpt lat="42.28478729726087" lon="12.428702154573793"><ele>116.5</ele><time>2026-04-30T17:09:11Z</time></trkpt><trkpt lat="42.28490491153583" lon="12.428812856749373"><ele>118.75</ele><time>2026-04-30T17:09:12Z</time></trkpt><trkpt lat="42.285028876317305" lon="12.428931275451635"><ele>121.0</ele><time>2026-04-30T17:09:13Z</time></trkpt><trkpt lat="42.28515234356347" lon="12.429073511337362"><ele>121.0</ele><time>2026-04-30T17:09:14Z</time></trkpt><trkpt lat="42.28531810238746" lon="12.429217527618524"><ele>121.0</ele><time>2026-04-30T17:09:15Z</time></trkpt><trkpt lat="42.285475660822954" lon="12.429371540448317"><ele>121.0</ele><time>2026-04-30T17:09:16Z</time></trkpt><trkpt lat="42.28565134950837" lon="12.429533265908498"><ele>122.5</ele><time>2026-04-30T17:09:17Z</time></trkpt><trkpt lat="42.28581572774388" lon="12.429692152762147"><ele>124.0</ele><time>2026-04-30T17:09:18Z</time></trkpt><trkpt lat="42.28603044708369" lon="12.429900964073147"><ele>124.0</ele><time>2026-04-30T17:09:19Z</time></trkpt><trkpt lat="42.28622844403252" lon="12.43009404764823"><ele>124.0</ele><time>2026-04-30T17:09:20Z</time></trkpt><trkpt lat="42.286396410984665" lon="12.430285379981683"><ele>125.66666666666667</ele><time>2026-04-30T17:09:21Z</time></trkpt><trkpt lat="42.286570938171394" lon="12.430471635723361"><ele>127.33333333333334</ele><time>2026-04-30T17:09:22Z</time></trkpt><trkpt lat="42.286735939914024" lon="12.430671792180968"><ele>129.0</ele><time>2026-04-30T17:09:23Z</time></trkpt><trkpt lat="42.2868959530519" lon="12.430879020353219"><ele>129.0</ele><time>2026-04-30T17:09:24Z</time></trkpt><trkpt lat="42.28702685981629" lon="12.431084533548223"><ele>129.0</ele><time>2026-04-30T17:09:25Z</time></trkpt><trkpt lat="42.28712770258437" lon="12.431297318779757"><ele>129.0</ele><time>2026-04-30T17:09:26Z</time></trkpt><trkpt lat="42.287208659956484" lon="12.431529322733892"><ele>129.33333333333334</ele><time>2026-04-30T17:09:27Z</time></trkpt><trkpt lat="42.28720725666462" lon="12.43176118028362"><ele>129.66666666666669</ele><time>2026-04-30T17:09:28Z</time></trkpt><trkpt lat="42.28713730255842" lon="12.432014738515152"><ele>130.0</ele><time>2026-04-30T17:09:29Z</time></trkpt><trkpt lat="42.28709165876866" lon="12.432250746718738"><ele>131.33333333333334</ele><time>2026-04-30T17:09:30Z</time></trkpt><trkpt lat="42.28703835065787" lon="12.432492849075194"><ele>132.66666666666666</ele><time>2026-04-30T17:09:31Z</time></trkpt><trkpt lat="42.28697557903109" lon="12.432737834839184"><ele>134.0</ele><time>2026-04-30T17:09:31.999Z</time></trkpt><trkpt lat="42.28690551982754" lon="12.432986318131295"><ele>135.33333333333331</ele><time>2026-04-30T17:09:32.999Z</time></trkpt><trkpt lat="42.28683880730997" lon="12.433237617440753"><ele>136.66666666666666</ele><time>2026-04-30T17:09:33.999Z</time></trkpt><trkpt lat="42.28677067524494" lon="12.43348845621994"><ele>138.0</ele><time>2026-04-30T17:09:34.999Z</time></trkpt><trkpt lat="42.286704109698576" lon="12.433740540452943"><ele>140.66666666666666</ele><time>2026-04-30T17:09:35.999Z</time></trkpt><trkpt lat="42.286636350689484" lon="12.433991120239957"><ele>143.33333333333331</ele><time>2026-04-30T17:09:36.999Z</time></trkpt><trkpt lat="42.28656863069584" lon="12.434239727320856"><ele>146.0</ele><time>2026-04-30T17:09:37.999Z</time></trkpt><trkpt lat="42.286501550478185" lon="12.434494307557284"><ele>147.0</ele><time>2026-04-30T17:09:38.999Z</time></trkpt><trkpt lat="42.28642982983097" lon="12.434746787523983"><ele>148.0</ele><time>2026-04-30T17:09:39.999Z</time></trkpt><trkpt lat="42.28633520038665" lon="12.43497298313736"><ele>149.0</ele><time>2026-04-30T17:09:40.999Z</time></trkpt><trkpt lat="42.286236194950504" lon="12.435192460018417"><ele>149.66666666666666</ele><time>2026-04-30T17:09:41.999Z</time></trkpt><trkpt lat="42.286122667549726" lon="12.435365335646187"><ele>150.33333333333334</ele><time>2026-04-30T17:09:42.999Z</time></trkpt><trkpt lat="42.28608949023431" lon="12.435623818653943"><ele>151.0</ele><time>2026-04-30T17:09:43.999Z</time></trkpt><trkpt lat="42.28595144290741" lon="12.43578231462177"><ele>150.0</ele><time>2026-04-30T17:09:44.999Z</time></trkpt><trkpt lat="42.28578841136097" lon="12.4359368887845"><ele>149.0</ele><time>2026-04-30T17:09:45.999Z</time></trkpt><trkpt lat="42.28557929273481" lon="12.435988746144893"><ele>148.0</ele><time>2026-04-30T17:09:46.999Z</time></trkpt><trkpt lat="42.285383624367" lon="12.436113206796758"><ele>148.0</ele><time>2026-04-30T17:09:47.999Z</time></trkpt><trkpt lat="42.2851535534752" lon="12.436156464686842"><ele>148.0</ele><time>2026-04-30T17:09:48.999Z</time></trkpt><trkpt lat="42.2849825953186" lon="12.436323512375614"><ele>148.0</ele><time>2026-04-30T17:09:49.999Z</time></trkpt><trkpt lat="42.284812738040905" lon="12.436513730734145"><ele>148.0</ele><time>2026-04-30T17:09:50.999Z</time></trkpt><trkpt lat="42.28466567746531" lon="12.436732639200647"><ele>148.0</ele><time>2026-04-30T17:09:51.999Z</time></trkpt><trkpt lat="42.28454945235111" lon="12.436977474182536"><ele>148.0</ele><time>2026-04-30T17:09:52.999Z</time></trkpt><trkpt lat="42.28446334565976" lon="12.437237360197383"><ele>148.0</ele><time>2026-04-30T17:09:53.999Z</time></trkpt><trkpt lat="42.284387654311736" lon="12.43749390978588"><ele>148.0</ele><time>2026-04-30T17:09:54.999Z</time></trkpt><trkpt lat="42.284313263739975" lon="12.437744720300104"><ele>148.0</ele><time>2026-04-30T17:09:55.999Z</time></trkpt><trkpt lat="42.28422148437108" lon="12.437983860968158"><ele>148.0</ele><time>2026-04-30T17:09:56.999Z</time></trkpt><trkpt lat="42.284105037768825" lon="12.43820502840903"><ele>148.0</ele><time>2026-04-30T17:09:57.999Z</time></trkpt><trkpt lat="42.283973300664705" lon="12.438416481629506"><ele>148.0</ele><time>2026-04-30T17:09:58.999Z</time></trkpt><trkpt lat="42.28383290572544" lon="12.438628565985931"><ele>149.0</ele><time>2026-04-30T17:09:59.999Z</time></trkpt><trkpt lat="42.283701915247015" lon="12.438826744815612"><ele>150.0</ele><time>2026-04-30T17:10:00.999Z</time></trkpt><trkpt lat="42.28354037700847" lon="12.439071139933446"><ele>151.0</ele><time>2026-04-30T17:10:01.999Z</time></trkpt><trkpt lat="42.28339440555124" lon="12.439291983658364"><ele>151.0</ele><time>2026-04-30T17:10:02.999Z</time></trkpt><trkpt lat="42.283252071410075" lon="12.43950732397074"><ele>151.0</ele><time>2026-04-30T17:10:03.999Z</time></trkpt><trkpt lat="42.28311184310752" lon="12.439721065230481"><ele>151.0</ele><time>2026-04-30T17:10:04.999Z</time></trkpt><trkpt lat="42.28297733684349" lon="12.439924518064263"><ele>149.66666666666669</ele><time>2026-04-30T17:10:05.999Z</time></trkpt><trkpt lat="42.282840825608666" lon="12.440124248501501"><ele>148.33333333333334</ele><time>2026-04-30T17:10:06.999Z</time></trkpt><trkpt lat="42.28268895054312" lon="12.440328775182182"><ele>147.0</ele><time>2026-04-30T17:10:07.999Z</time></trkpt><trkpt lat="42.282521061763276" lon="12.440530660926646"><ele>146.5</ele><time>2026-04-30T17:10:08.999Z</time></trkpt><trkpt lat="42.28234378111653" lon="12.44073045667779"><ele>146.0</ele><time>2026-04-30T17:10:09.999Z</time></trkpt><trkpt lat="42.28216066434319" lon="12.440923143674228"><ele>146.0</ele><time>2026-04-30T17:10:10.999Z</time></trkpt><trkpt lat="42.281975618299356" lon="12.441116751659449"><ele>146.0</ele><time>2026-04-30T17:10:11.999Z</time></trkpt><trkpt lat="42.281791319525894" lon="12.441310889127136"><ele>147.0</ele><time>2026-04-30T17:10:12.999Z</time></trkpt><trkpt lat="42.28161873263412" lon="12.441521603459446"><ele>148.0</ele><time>2026-04-30T17:10:13.999Z</time></trkpt><trkpt lat="42.28142612646065" lon="12.44169142444644"><ele>148.0</ele><time>2026-04-30T17:10:14.999Z</time></trkpt><trkpt lat="42.28125192132437" lon="12.44187215207215"><ele>148.0</ele><time>2026-04-30T17:10:15.999Z</time></trkpt><trkpt lat="42.28108972243126" lon="12.44204132548625"><ele>148.0</ele><time>2026-04-30T17:10:16.999Z</time></trkpt><trkpt lat="42.2809340828731" lon="12.442197445934745"><ele>149.0</ele><time>2026-04-30T17:10:17.999Z</time></trkpt><trkpt lat="42.28078703869805" lon="12.442338340053718"><ele>150.0</ele><time>2026-04-30T17:10:18.999Z</time></trkpt><trkpt lat="42.28063688840849" lon="12.442477016343252"><ele>151.0</ele><time>2026-04-30T17:10:19.999Z</time></trkpt><trkpt lat="42.28047933451996" lon="12.44261129373768"><ele>149.66666666666669</ele><time>2026-04-30T17:10:20.999Z</time></trkpt><trkpt lat="42.280321379039925" lon="12.442741194725405"><ele>148.33333333333334</ele><time>2026-04-30T17:10:21.999Z</time></trkpt><trkpt lat="42.28016836895536" lon="12.442863614914323"><ele>147.0</ele><time>2026-04-30T17:10:22.999Z</time></trkpt><trkpt lat="42.2800239783796" lon="12.44298456911998"><ele>147.0</ele><time>2026-04-30T17:10:23.999Z</time></trkpt><trkpt lat="42.2798814754663" lon="12.443101790052513"><ele>147.0</ele><time>2026-04-30T17:10:24.999Z</time></trkpt><trkpt lat="42.27974809948255" lon="12.443204228470451"><ele>147.0</ele><time>2026-04-30T17:10:26Z</time></trkpt><trkpt lat="42.279598537442126" lon="12.443304691185624"><ele>148.0</ele><time>2026-04-30T17:10:27Z</time></trkpt><trkpt lat="42.27944416804035" lon="12.443392372741952"><ele>149.0</ele><time>2026-04-30T17:10:28Z</time></trkpt><trkpt lat="42.27928373967962" lon="12.443467919094372"><ele>150.0</ele><time>2026-04-30T17:10:29Z</time></trkpt><trkpt lat="42.27912124529682" lon="12.443564596254628"><ele>150.0</ele><time>2026-04-30T17:10:30Z</time></trkpt><trkpt lat="42.2789434904193" lon="12.443620701820544"><ele>150.0</ele><time>2026-04-30T17:10:31Z</time></trkpt><trkpt lat="42.27877801467245" lon="12.443696564355331"><ele>150.0</ele><time>2026-04-30T17:10:32Z</time></trkpt><trkpt lat="42.27861203309054" lon="12.443773193486582"><ele>151.33333333333334</ele><time>2026-04-30T17:10:33Z</time></trkpt><trkpt lat="42.27845713177305" lon="12.443845476593248"><ele>152.66666666666669</ele><time>2026-04-30T17:10:34Z</time></trkpt><trkpt lat="42.27830778369849" lon="12.443916378717018"><ele>154.0</ele><time>2026-04-30T17:10:35Z</time></trkpt><trkpt lat="42.27815762214547" lon="12.443987665427127"><ele>154.25</ele><time>2026-04-30T17:10:36Z</time></trkpt><trkpt lat="42.278020200764374" lon="12.444052903956123"><ele>154.5</ele><time>2026-04-30T17:10:37Z</time></trkpt><trkpt lat="42.277880904371244" lon="12.444119032614786"><ele>154.75</ele><time>2026-04-30T17:10:38Z</time></trkpt><trkpt lat="42.277745649356305" lon="12.444180242208391"><ele>155.0</ele><time>2026-04-30T17:10:39Z</time></trkpt><trkpt lat="42.27762578404447" lon="12.444231932517244"><ele>155.0</ele><time>2026-04-30T17:10:40Z</time></trkpt><trkpt lat="42.27750148077474" lon="12.444282022891336"><ele>155.0</ele><time>2026-04-30T17:10:41Z</time></trkpt><trkpt lat="42.277384460513694" lon="12.444326661135365"><ele>155.0</ele><time>2026-04-30T17:10:42Z</time></trkpt><trkpt lat="42.27725876735767" lon="12.44437314658666"><ele>155.0</ele><time>2026-04-30T17:10:43Z</time></trkpt><trkpt lat="42.27712993145301" lon="12.444420794231048"><ele>155.0</ele><time>2026-04-30T17:10:44Z</time></trkpt><trkpt lat="42.27700665179981" lon="12.444466386996544"><ele>155.0</ele><time>2026-04-30T17:10:45Z</time></trkpt><trkpt lat="42.27688610814614" lon="12.44453151509525"><ele>155.0</ele><time>2026-04-30T17:10:46Z</time></trkpt><trkpt lat="42.27677239653303" lon="12.444557735280092"><ele>155.0</ele><time>2026-04-30T17:10:47Z</time></trkpt><trkpt lat="42.27665178871346" lon="12.444596933880597"><ele>156.0</ele><time>2026-04-30T17:10:48Z</time></trkpt><trkpt lat="42.27653036531656" lon="12.444639362863809"><ele>157.0</ele><time>2026-04-30T17:10:49Z</time></trkpt><trkpt lat="42.27641451300412" lon="12.444683155039344"><ele>158.0</ele><time>2026-04-30T17:10:50Z</time></trkpt><trkpt lat="42.276284626615826" lon="12.444732375902872"><ele>159.0</ele><time>2026-04-30T17:10:51Z</time></trkpt><trkpt lat="42.27614594972317" lon="12.444784654565506"><ele>159.0</ele><time>2026-04-30T17:10:52Z</time></trkpt><trkpt lat="42.27597957055818" lon="12.444844914734196"><ele>159.0</ele><time>2026-04-30T17:10:53Z</time></trkpt><trkpt lat="42.275812240682455" lon="12.444907530678064"><ele>159.0</ele><time>2026-04-30T17:10:54Z</time></trkpt><trkpt lat="42.27562448190048" lon="12.444968175143197"><ele>159.66666666666666</ele><time>2026-04-30T17:10:55Z</time></trkpt><trkpt lat="42.27540103589695" lon="12.445040580717352"><ele>160.33333333333331</ele><time>2026-04-30T17:10:56Z</time></trkpt><trkpt lat="42.27520020524809" lon="12.445095182565789"><ele>161.0</ele><time>2026-04-30T17:10:57Z</time></trkpt><trkpt lat="42.27501946734747" lon="12.445135360272339"><ele>161.0</ele><time>2026-04-30T17:10:58Z</time></trkpt><trkpt lat="42.27484659826255" lon="12.445162188077118"><ele>161.0</ele><time>2026-04-30T17:10:59Z</time></trkpt><trkpt lat="42.274660782078584" lon="12.445170296389652"><ele>161.0</ele><time>2026-04-30T17:11:00Z</time></trkpt><trkpt lat="42.27448439311579" lon="12.445185155114544"><ele>161.66666666666666</ele><time>2026-04-30T17:11:01Z</time></trkpt><trkpt lat="42.27432800018501" lon="12.445203662564271"><ele>162.33333333333334</ele><time>2026-04-30T17:11:02Z</time></trkpt><trkpt lat="42.27415645939636" lon="12.445227030710917"><ele>163.0</ele><time>2026-04-30T17:11:03Z</time></trkpt><trkpt lat="42.27399312057826" lon="12.445237777641982"><ele>161.0</ele><time>2026-04-30T17:11:04Z</time></trkpt><trkpt lat="42.27382578234632" lon="12.44527350797939"><ele>159.0</ele><time>2026-04-30T17:11:05Z</time></trkpt><trkpt lat="42.27366159725438" lon="12.445310575841221"><ele>157.0</ele><time>2026-04-30T17:11:06Z</time></trkpt><trkpt lat="42.273456718091865" lon="12.445361032957363"><ele>157.0</ele><time>2026-04-30T17:11:07Z</time></trkpt><trkpt lat="42.27324165186178" lon="12.445417670705321"><ele>157.0</ele><time>2026-04-30T17:11:08Z</time></trkpt><trkpt lat="42.27304710468392" lon="12.445506629001398"><ele>157.0</ele><time>2026-04-30T17:11:09Z</time></trkpt><trkpt lat="42.27288742696324" lon="12.445644181953497"><ele>156.0</ele><time>2026-04-30T17:11:10Z</time></trkpt><trkpt lat="42.27271967124557" lon="12.445783902032474"><ele>155.0</ele><time>2026-04-30T17:11:11Z</time></trkpt><trkpt lat="42.27254509433867" lon="12.445943267917723"><ele>154.0</ele><time>2026-04-30T17:11:12Z</time></trkpt><trkpt lat="42.27239604161677" lon="12.446159161560532"><ele>154.33333333333334</ele><time>2026-04-30T17:11:13Z</time></trkpt><trkpt lat="42.27225471318012" lon="12.44634799965826"><ele>154.66666666666666</ele><time>2026-04-30T17:11:14Z</time></trkpt><trkpt lat="42.27209080345781" lon="12.446435843455134"><ele>155.0</ele><time>2026-04-30T17:11:15Z</time></trkpt><trkpt lat="42.27194170960691" lon="12.446589118316165"><ele>155.0</ele><time>2026-04-30T17:11:16Z</time></trkpt><trkpt lat="42.271785013666204" lon="12.446729219717037"><ele>155.0</ele><time>2026-04-30T17:11:17Z</time></trkpt><trkpt lat="42.271614534709784" lon="12.446869740391696"><ele>155.0</ele><time>2026-04-30T17:11:18Z</time></trkpt><trkpt lat="42.27143596478269" lon="12.447020913494157"><ele>155.33333333333331</ele><time>2026-04-30T17:11:19Z</time></trkpt><trkpt lat="42.27124637727935" lon="12.447148686591465"><ele>155.66666666666666</ele><time>2026-04-30T17:11:20Z</time></trkpt><trkpt lat="42.27106254772738" lon="12.447289186901566"><ele>156.0</ele><time>2026-04-30T17:11:21Z</time></trkpt><trkpt lat="42.270883276632645" lon="12.44742781884055"><ele>156.0</ele><time>2026-04-30T17:11:22Z</time></trkpt><trkpt lat="42.270708502140984" lon="12.44757326895841"><ele>156.0</ele><time>2026-04-30T17:11:23Z</time></trkpt><trkpt lat="42.270532928615154" lon="12.447726103328781"><ele>156.0</ele><time>2026-04-30T17:11:24Z</time></trkpt><trkpt lat="42.270355416875745" lon="12.447884725063293"><ele>156.33333333333334</ele><time>2026-04-30T17:11:25Z</time></trkpt><trkpt lat="42.27018138654883" lon="12.448049860047266"><ele>156.66666666666669</ele><time>2026-04-30T17:11:26Z</time></trkpt><trkpt lat="42.270002927542095" lon="12.448223136681165"><ele>157.0</ele><time>2026-04-30T17:11:27Z</time></trkpt><trkpt lat="42.26982213029548" lon="12.448394077653083"><ele>155.5</ele><time>2026-04-30T17:11:28Z</time></trkpt><trkpt lat="42.269638972426286" lon="12.448582165831032"><ele>154.0</ele><time>2026-04-30T17:11:29Z</time></trkpt><trkpt lat="42.26944781722407" lon="12.448773303157699"><ele>156.5</ele><time>2026-04-30T17:11:30Z</time></trkpt><trkpt lat="42.26925514527199" lon="12.448961641444324"><ele>159.0</ele><time>2026-04-30T17:11:31Z</time></trkpt><trkpt lat="42.2690609790018" lon="12.449151280447943"><ele>159.5</ele><time>2026-04-30T17:11:32Z</time></trkpt><trkpt lat="42.26886857440357" lon="12.449344218601288"><ele>160.0</ele><time>2026-04-30T17:11:33Z</time></trkpt><trkpt lat="42.26867465298641" lon="12.449538957399092"><ele>162.5</ele><time>2026-04-30T17:11:34Z</time></trkpt><trkpt lat="42.26848234066674" lon="12.44973081826626"><ele>165.0</ele><time>2026-04-30T17:11:34.999Z</time></trkpt><trkpt lat="42.26829229730843" lon="12.449917648128215"><ele>166.5</ele><time>2026-04-30T17:11:35.999Z</time></trkpt><trkpt lat="42.26810062141205" lon="12.450103965275607"><ele>168.0</ele><time>2026-04-30T17:11:36.999Z</time></trkpt><trkpt lat="42.26791077573087" lon="12.45028959424729"><ele>170.5</ele><time>2026-04-30T17:11:37.999Z</time></trkpt><trkpt lat="42.26772582089783" lon="12.45048635504857"><ele>173.0</ele><time>2026-04-30T17:11:38.999Z</time></trkpt><trkpt lat="42.267555141759665" lon="12.450701370940987"><ele>173.0</ele><time>2026-04-30T17:11:39.999Z</time></trkpt><trkpt lat="42.26740050697667" lon="12.450929792247958"><ele>173.0</ele><time>2026-04-30T17:11:40.999Z</time></trkpt><trkpt lat="42.26724714661298" lon="12.451165451153528"><ele>174.5</ele><time>2026-04-30T17:11:41.999Z</time></trkpt><trkpt lat="42.267092460868604" lon="12.451392862467452"><ele>176.0</ele><time>2026-04-30T17:11:42.999Z</time></trkpt><trkpt lat="42.26692817882352" lon="12.451600441127372"><ele>176.0</ele><time>2026-04-30T17:11:43.999Z</time></trkpt><trkpt lat="42.26675687693724" lon="12.4518051330065"><ele>176.0</ele><time>2026-04-30T17:11:44.999Z</time></trkpt><trkpt lat="42.266579347441116" lon="12.452018207824775"><ele>177.0</ele><time>2026-04-30T17:11:45.999Z</time></trkpt><trkpt lat="42.266395109099264" lon="12.452227440356916"><ele>178.0</ele><time>2026-04-30T17:11:46.999Z</time></trkpt><trkpt lat="42.26620767525506" lon="12.452417268429498"><ele>178.0</ele><time>2026-04-30T17:11:47.999Z</time></trkpt><trkpt lat="42.266016977928935" lon="12.452610146866359"><ele>178.0</ele><time>2026-04-30T17:11:48.999Z</time></trkpt><trkpt lat="42.26581471189551" lon="12.452787225345762"><ele>179.0</ele><time>2026-04-30T17:11:49.999Z</time></trkpt><trkpt lat="42.2656104950909" lon="12.452961228247641"><ele>180.0</ele><time>2026-04-30T17:11:50.999Z</time></trkpt><trkpt lat="42.265411235895904" lon="12.45313284075511"><ele>180.0</ele><time>2026-04-30T17:11:51.999Z</time></trkpt><trkpt lat="42.26521572831742" lon="12.453305126469772"><ele>180.0</ele><time>2026-04-30T17:11:52.999Z</time></trkpt><trkpt lat="42.26502493664053" lon="12.453480756818985"><ele>180.0</ele><time>2026-04-30T17:11:53.999Z</time></trkpt><trkpt lat="42.26483579951271" lon="12.453666488233468"><ele>180.0</ele><time>2026-04-30T17:11:54.999Z</time></trkpt><trkpt lat="42.26465297295401" lon="12.453866566786028"><ele>179.0</ele><time>2026-04-30T17:11:55.999Z</time></trkpt><trkpt lat="42.26446985526937" lon="12.454069113116908"><ele>178.0</ele><time>2026-04-30T17:11:56.999Z</time></trkpt><trkpt lat="42.26428597415989" lon="12.454271382680252"><ele>178.0</ele><time>2026-04-30T17:11:57.999Z</time></trkpt><trkpt lat="42.26411010275477" lon="12.454480834521013"><ele>178.0</ele><time>2026-04-30T17:11:58.999Z</time></trkpt><trkpt lat="42.263954104991925" lon="12.454698917380325"><ele>178.66666666666669</ele><time>2026-04-30T17:11:59.999Z</time></trkpt><trkpt lat="42.26380508741861" lon="12.454910955941434"><ele>179.33333333333334</ele><time>2026-04-30T17:12:00.999Z</time></trkpt><trkpt lat="42.26366876229451" lon="12.455133180983704"><ele>180.0</ele><time>2026-04-30T17:12:01.999Z</time></trkpt><trkpt lat="42.26354415586884" lon="12.455349104827773"><ele>179.33333333333334</ele><time>2026-04-30T17:12:02.999Z</time></trkpt><trkpt lat="42.26343050610481" lon="12.455572808260063"><ele>178.66666666666669</ele><time>2026-04-30T17:12:03.999Z</time></trkpt><trkpt lat="42.263332948092035" lon="12.455813593869516"><ele>178.0</ele><time>2026-04-30T17:12:04.999Z</time></trkpt><trkpt lat="42.26325716577027" lon="12.45605680739575"><ele>177.66666666666669</ele><time>2026-04-30T17:12:05.999Z</time></trkpt><trkpt lat="42.26318516889078" lon="12.456288377757511"><ele>177.33333333333334</ele><time>2026-04-30T17:12:06.999Z</time></trkpt><trkpt lat="42.26310149799189" lon="12.456492897637894"><ele>177.0</ele><time>2026-04-30T17:12:07.999Z</time></trkpt><trkpt lat="42.26300542580353" lon="12.456679122458587"><ele>177.0</ele><time>2026-04-30T17:12:08.999Z</time></trkpt><trkpt lat="42.262893164854766" lon="12.456847322688823"><ele>177.0</ele><time>2026-04-30T17:12:09.999Z</time></trkpt><trkpt lat="42.26276731528624" lon="12.45699809972363"><ele>177.0</ele><time>2026-04-30T17:12:10.999Z</time></trkpt><trkpt lat="42.26265057350158" lon="12.457139268474297"><ele>177.0</ele><time>2026-04-30T17:12:11.999Z</time></trkpt><trkpt lat="42.26253897721479" lon="12.457261086674064"><ele>177.0</ele><time>2026-04-30T17:12:12.999Z</time></trkpt><trkpt lat="42.26242161964274" lon="12.457395169128644"><ele>177.0</ele><time>2026-04-30T17:12:13.999Z</time></trkpt><trkpt lat="42.26228489724191" lon="12.457523577603546"><ele>176.25</ele><time>2026-04-30T17:12:14.999Z</time></trkpt><trkpt lat="42.262144648505505" lon="12.45768935825276"><ele>175.5</ele><time>2026-04-30T17:12:15.999Z</time></trkpt><trkpt lat="42.262023171105774" lon="12.457743865717452"><ele>174.75</ele><time>2026-04-30T17:12:16.999Z</time></trkpt><trkpt lat="42.26191711389323" lon="12.457849596158267"><ele>174.0</ele><time>2026-04-30T17:12:17.999Z</time></trkpt><trkpt lat="42.26182721407349" lon="12.457940745728676"><ele>174.39999999999998</ele><time>2026-04-30T17:12:18.999Z</time></trkpt><trkpt lat="42.2617484413101" lon="12.458014733885646"><ele>174.8</ele><time>2026-04-30T17:12:19.999Z</time></trkpt><trkpt lat="42.261692881306836" lon="12.458071509801357"><ele>175.2</ele><time>2026-04-30T17:12:20.999Z</time></trkpt><trkpt lat="42.261571699660266" lon="12.458131085004666"><ele>175.60000000000002</ele><time>2026-04-30T17:12:22.999Z</time></trkpt><trkpt lat="42.261474346516124" lon="12.458129088178138"><ele>176.0</ele><time>2026-04-30T17:12:23.999Z</time></trkpt><trkpt lat="42.26138986920028" lon="12.458144482259723"><ele>176.0</ele><time>2026-04-30T17:12:24.999Z</time></trkpt><trkpt lat="42.26127888519665" lon="12.458145101173313"><ele>176.0</ele><time>2026-04-30T17:12:25.999Z</time></trkpt><trkpt lat="42.261144504801614" lon="12.458130526486997"><ele>176.0</ele><time>2026-04-30T17:12:26.999Z</time></trkpt><trkpt lat="42.261034877055536" lon="12.458057537458263"><ele>176.0</ele><time>2026-04-30T17:12:27.999Z</time></trkpt><trkpt lat="42.26090809665515" lon="12.4580252448474"><ele>175.25</ele><time>2026-04-30T17:12:28.999Z</time></trkpt><trkpt lat="42.26078780925791" lon="12.457950573961439"><ele>174.5</ele><time>2026-04-30T17:12:29.999Z</time></trkpt><trkpt lat="42.26066560264628" lon="12.457876186332674"><ele>173.75</ele><time>2026-04-30T17:12:30.999Z</time></trkpt><trkpt lat="42.260546046561785" lon="12.457780388454232"><ele>173.0</ele><time>2026-04-30T17:12:32Z</time></trkpt><trkpt lat="42.26040985800203" lon="12.457642852961099"><ele>172.33333333333331</ele><time>2026-04-30T17:12:33Z</time></trkpt><trkpt lat="42.260261360773974" lon="12.457503483422935"><ele>171.66666666666666</ele><time>2026-04-30T17:12:34Z</time></trkpt><trkpt lat="42.26010653009339" lon="12.457362507957905"><ele>171.0</ele><time>2026-04-30T17:12:35Z</time></trkpt><trkpt lat="42.25995018715697" lon="12.457230229951593"><ele>170.33333333333334</ele><time>2026-04-30T17:12:36Z</time></trkpt><trkpt lat="42.25978805786153" lon="12.457083289421144"><ele>169.66666666666669</ele><time>2026-04-30T17:12:37Z</time></trkpt><trkpt lat="42.25962761814018" lon="12.456987024850266"><ele>169.0</ele><time>2026-04-30T17:12:38Z</time></trkpt><trkpt lat="42.25947003099731" lon="12.456882403681268"><ele>168.33333333333334</ele><time>2026-04-30T17:12:39Z</time></trkpt><trkpt lat="42.25930753773464" lon="12.456785081864071"><ele>167.66666666666666</ele><time>2026-04-30T17:12:40Z</time></trkpt><trkpt lat="42.25913887688026" lon="12.45673849624302"><ele>167.0</ele><time>2026-04-30T17:12:41Z</time></trkpt><trkpt lat="42.258974309276425" lon="12.456701670856084"><ele>166.66666666666666</ele><time>2026-04-30T17:12:42Z</time></trkpt><trkpt lat="42.25881599359124" lon="12.456673754856341"><ele>166.33333333333334</ele><time>2026-04-30T17:12:43Z</time></trkpt><trkpt lat="42.25866080240597" lon="12.456606797993249"><ele>166.0</ele><time>2026-04-30T17:12:44Z</time></trkpt><trkpt lat="42.25850438560026" lon="12.456529051569682"><ele>166.0</ele><time>2026-04-30T17:12:45Z</time></trkpt><trkpt lat="42.25836038372608" lon="12.456518624661099"><ele>166.0</ele><time>2026-04-30T17:12:46Z</time></trkpt><trkpt lat="42.25821518647924" lon="12.456470981609664"><ele>166.0</ele><time>2026-04-30T17:12:47Z</time></trkpt><trkpt lat="42.258083116561274" lon="12.456404275463786"><ele>166.0</ele><time>2026-04-30T17:12:48Z</time></trkpt><trkpt lat="42.257943768173185" lon="12.456377623559364"><ele>164.75</ele><time>2026-04-30T17:12:49Z</time></trkpt><trkpt lat="42.25779134372128" lon="12.45639210343332"><ele>163.5</ele><time>2026-04-30T17:12:50Z</time></trkpt><trkpt lat="42.257639061997395" lon="12.45638948078839"><ele>162.25</ele><time>2026-04-30T17:12:51Z</time></trkpt><trkpt lat="42.25750122761977" lon="12.456389533764748"><ele>161.0</ele><time>2026-04-30T17:12:52Z</time></trkpt><trkpt lat="42.25736503280473" lon="12.456398451778304"><ele>159.66666666666666</ele><time>2026-04-30T17:12:53Z</time></trkpt><trkpt lat="42.25720942998554" lon="12.4564574403286"><ele>158.33333333333334</ele><time>2026-04-30T17:12:54Z</time></trkpt><trkpt lat="42.2570427543471" lon="12.456519557121903"><ele>157.0</ele><time>2026-04-30T17:12:55Z</time></trkpt><trkpt lat="42.25684893608964" lon="12.456563729494537"><ele>157.0</ele><time>2026-04-30T17:12:56Z</time></trkpt><trkpt lat="42.25666502548738" lon="12.45658095832553"><ele>157.0</ele><time>2026-04-30T17:12:57Z</time></trkpt><trkpt lat="42.2565070154749" lon="12.456585886883564"><ele>157.0</ele><time>2026-04-30T17:12:58Z</time></trkpt><trkpt lat="42.25635418747244" lon="12.456569488008116"><ele>157.0</ele><time>2026-04-30T17:12:59Z</time></trkpt><trkpt lat="42.25620108886343" lon="12.456520515380292"><ele>157.0</ele><time>2026-04-30T17:13:00Z</time></trkpt><trkpt lat="42.25604495169855" lon="12.456462571553615"><ele>157.0</ele><time>2026-04-30T17:13:01Z</time></trkpt><trkpt lat="42.255881989665895" lon="12.456381667389099"><ele>157.0</ele><time>2026-04-30T17:13:02Z</time></trkpt><trkpt lat="42.25572728305419" lon="12.456297257523259"><ele>157.0</ele><time>2026-04-30T17:13:03Z</time></trkpt><trkpt lat="42.255563377555184" lon="12.45620557169192"><ele>157.0</ele><time>2026-04-30T17:13:04Z</time></trkpt><trkpt lat="42.25539633351434" lon="12.456093883272933"><ele>153.66666666666669</ele><time>2026-04-30T17:13:05Z</time></trkpt><trkpt lat="42.25522349055316" lon="12.455992826958663"><ele>150.33333333333334</ele><time>2026-04-30T17:13:06Z</time></trkpt><trkpt lat="42.255052770126284" lon="12.455880293633676"><ele>147.0</ele><time>2026-04-30T17:13:07Z</time></trkpt><trkpt lat="42.25487655428541" lon="12.455761141007676"><ele>147.66666666666666</ele><time>2026-04-30T17:13:08Z</time></trkpt><trkpt lat="42.254700375562415" lon="12.455647997114166"><ele>148.33333333333331</ele><time>2026-04-30T17:13:09Z</time></trkpt><trkpt lat="42.25453080405979" lon="12.455545595219336"><ele>149.0</ele><time>2026-04-30T17:13:10Z</time></trkpt><trkpt lat="42.254359637046655" lon="12.45545373736103"><ele>150.66666666666666</ele><time>2026-04-30T17:13:11Z</time></trkpt><trkpt lat="42.25419471328254" lon="12.455369641172629"><ele>152.33333333333334</ele><time>2026-04-30T17:13:12Z</time></trkpt><trkpt lat="42.25403178767697" lon="12.455276330591047"><ele>154.0</ele><time>2026-04-30T17:13:13Z</time></trkpt><trkpt lat="42.25387328656386" lon="12.455182059167992"><ele>154.33333333333334</ele><time>2026-04-30T17:13:14Z</time></trkpt><trkpt lat="42.253713856005405" lon="12.455079327051811"><ele>154.66666666666666</ele><time>2026-04-30T17:13:15Z</time></trkpt><trkpt lat="42.25354766694208" lon="12.454983315637154"><ele>155.0</ele><time>2026-04-30T17:13:16Z</time></trkpt><trkpt lat="42.25338111340245" lon="12.454900998465071"><ele>155.0</ele><time>2026-04-30T17:13:17Z</time></trkpt><trkpt lat="42.253216446466084" lon="12.454807196459408"><ele>155.0</ele><time>2026-04-30T17:13:18Z</time></trkpt><trkpt lat="42.253058918174105" lon="12.454716186218935"><ele>155.0</ele><time>2026-04-30T17:13:19Z</time></trkpt><trkpt lat="42.252900330183365" lon="12.454628701812295"><ele>159.66666666666666</ele><time>2026-04-30T17:13:20Z</time></trkpt><trkpt lat="42.252737284744484" lon="12.454546921914092"><ele>164.33333333333334</ele><time>2026-04-30T17:13:21Z</time></trkpt><trkpt lat="42.25256978683499" lon="12.454473605079489"><ele>169.0</ele><time>2026-04-30T17:13:22Z</time></trkpt><trkpt lat="42.25240082083257" lon="12.454406970803316"><ele>169.0</ele><time>2026-04-30T17:13:23Z</time></trkpt><trkpt lat="42.25222348434182" lon="12.454350242737393"><ele>169.0</ele><time>2026-04-30T17:13:24Z</time></trkpt><trkpt lat="42.252047355440034" lon="12.454293624397172"><ele>169.0</ele><time>2026-04-30T17:13:25Z</time></trkpt><trkpt lat="42.25186962676303" lon="12.454251262250938"><ele>169.0</ele><time>2026-04-30T17:13:26Z</time></trkpt><trkpt lat="42.251684534513466" lon="12.45418845788728"><ele>169.0</ele><time>2026-04-30T17:13:27Z</time></trkpt><trkpt lat="42.25150257624512" lon="12.454136527897688"><ele>169.0</ele><time>2026-04-30T17:13:28Z</time></trkpt><trkpt lat="42.251320561168775" lon="12.454089437219348"><ele>168.66666666666669</ele><time>2026-04-30T17:13:29Z</time></trkpt><trkpt lat="42.2511400546875" lon="12.454042576008252"><ele>168.33333333333334</ele><time>2026-04-30T17:13:30Z</time></trkpt><trkpt lat="42.25095719859762" lon="12.453994409726773"><ele>168.0</ele><time>2026-04-30T17:13:31Z</time></trkpt><trkpt lat="42.250769993821" lon="12.453942899785869"><ele>168.66666666666666</ele><time>2026-04-30T17:13:32Z</time></trkpt><trkpt lat="42.250582604087846" lon="12.453897046649326"><ele>169.33333333333331</ele><time>2026-04-30T17:13:33Z</time></trkpt><trkpt lat="42.25039398847768" lon="12.453849584960263"><ele>170.0</ele><time>2026-04-30T17:13:34Z</time></trkpt><trkpt lat="42.25020444732196" lon="12.453800303611018"><ele>174.33333333333331</ele><time>2026-04-30T17:13:35Z</time></trkpt><trkpt lat="42.25000100144821" lon="12.45375961141421"><ele>178.66666666666666</ele><time>2026-04-30T17:13:36Z</time></trkpt><trkpt lat="42.24980957762665" lon="12.453716257126832"><ele>183.0</ele><time>2026-04-30T17:13:37Z</time></trkpt><trkpt lat="42.24961926824849" lon="12.45368284579151"><ele>184.66666666666666</ele><time>2026-04-30T17:13:38Z</time></trkpt><trkpt lat="42.2494306747923" lon="12.45365602496135"><ele>186.33333333333331</ele><time>2026-04-30T17:13:39Z</time></trkpt><trkpt lat="42.24924171508857" lon="12.453633950300166"><ele>188.0</ele><time>2026-04-30T17:13:40Z</time></trkpt><trkpt lat="42.249054797993665" lon="12.45362227436443"><ele>190.66666666666666</ele><time>2026-04-30T17:13:41Z</time></trkpt><trkpt lat="42.248859935595675" lon="12.453629553960608"><ele>193.33333333333331</ele><time>2026-04-30T17:13:42Z</time></trkpt><trkpt lat="42.248669416312616" lon="12.453645427927174"><ele>196.0</ele><time>2026-04-30T17:13:42.999Z</time></trkpt><trkpt lat="42.24847618780143" lon="12.453662179969095"><ele>196.0</ele><time>2026-04-30T17:13:43.999Z</time></trkpt><trkpt lat="42.24828679415058" lon="12.453668450709682"><ele>196.0</ele><time>2026-04-30T17:13:44.999Z</time></trkpt><trkpt lat="42.24811530029162" lon="12.453670279553462"><ele>196.0</ele><time>2026-04-30T17:13:45.999Z</time></trkpt><trkpt lat="42.247958348103474" lon="12.453677440014243"><ele>195.66666666666666</ele><time>2026-04-30T17:13:46.999Z</time></trkpt><trkpt lat="42.247787381606734" lon="12.453644409561882"><ele>195.33333333333331</ele><time>2026-04-30T17:13:47.999Z</time></trkpt><trkpt lat="42.247612491289374" lon="12.453588976440924"><ele>195.0</ele><time>2026-04-30T17:13:48.999Z</time></trkpt><trkpt lat="42.24744157600731" lon="12.45351432609201"><ele>195.66666666666669</ele><time>2026-04-30T17:13:49.999Z</time></trkpt><trkpt lat="42.247273207020505" lon="12.453439557280188"><ele>196.33333333333334</ele><time>2026-04-30T17:13:50.999Z</time></trkpt><trkpt lat="42.24712344882529" lon="12.45336529534548"><ele>197.0</ele><time>2026-04-30T17:13:51.999Z</time></trkpt><trkpt lat="42.246959544222534" lon="12.453311258802618"><ele>197.0</ele><time>2026-04-30T17:13:52.999Z</time></trkpt><trkpt lat="42.24678901904744" lon="12.453263371880189"><ele>197.0</ele><time>2026-04-30T17:13:53.999Z</time></trkpt><trkpt lat="42.246619153242136" lon="12.453247394312507"><ele>197.0</ele><time>2026-04-30T17:13:54.999Z</time></trkpt><trkpt lat="42.246466630859565" lon="12.453257871878487"><ele>198.5</ele><time>2026-04-30T17:13:55.999Z</time></trkpt><trkpt lat="42.24633319573114" lon="12.453311253465936"><ele>200.0</ele><time>2026-04-30T17:13:56.999Z</time></trkpt><trkpt lat="42.24620023583564" lon="12.45339160316783"><ele>201.5</ele><time>2026-04-30T17:13:57.999Z</time></trkpt><trkpt lat="42.2460725731107" lon="12.453469774171346"><ele>203.0</ele><time>2026-04-30T17:13:58.999Z</time></trkpt><trkpt lat="42.24596316587153" lon="12.45356197978301"><ele>203.0</ele><time>2026-04-30T17:13:59.999Z</time></trkpt><trkpt lat="42.245843933478255" lon="12.453628521835306"><ele>203.0</ele><time>2026-04-30T17:14:00.999Z</time></trkpt><trkpt lat="42.24572712328168" lon="12.45366623985845"><ele>203.0</ele><time>2026-04-30T17:14:01.999Z</time></trkpt><trkpt lat="42.24561316574451" lon="12.453711811008748"><ele>203.0</ele><time>2026-04-30T17:14:02.999Z</time></trkpt><trkpt lat="42.245502642202155" lon="12.453759877754255"><ele>203.25</ele><time>2026-04-30T17:14:03.999Z</time></trkpt><trkpt lat="42.24536400066198" lon="12.453792803370064"><ele>203.5</ele><time>2026-04-30T17:14:04.999Z</time></trkpt><trkpt lat="42.24523594776205" lon="12.45379283171872"><ele>203.75</ele><time>2026-04-30T17:14:05.999Z</time></trkpt><trkpt lat="42.24511319731615" lon="12.453770323295652"><ele>204.0</ele><time>2026-04-30T17:14:06.999Z</time></trkpt><trkpt lat="42.24499138275152" lon="12.453727798145016"><ele>204.0</ele><time>2026-04-30T17:14:07.999Z</time></trkpt><trkpt lat="42.24487194556244" lon="12.453657193419309"><ele>204.0</ele><time>2026-04-30T17:14:08.999Z</time></trkpt><trkpt lat="42.244759537428116" lon="12.453546782718526"><ele>204.0</ele><time>2026-04-30T17:14:09.999Z</time></trkpt><trkpt lat="42.24465384374881" lon="12.453452446638426"><ele>204.0</ele><time>2026-04-30T17:14:10.999Z</time></trkpt><trkpt lat="42.244537327116" lon="12.453374918905633"><ele>204.0</ele><time>2026-04-30T17:14:11.999Z</time></trkpt><trkpt lat="42.24440712662614" lon="12.453249458795403"><ele>204.0</ele><time>2026-04-30T17:14:12.999Z</time></trkpt><trkpt lat="42.24427004429408" lon="12.453120016693582"><ele>204.0</ele><time>2026-04-30T17:14:13.999Z</time></trkpt><trkpt lat="42.244133997406266" lon="12.452978509152425"><ele>205.0</ele><time>2026-04-30T17:14:14.999Z</time></trkpt><trkpt lat="42.24399435682553" lon="12.452842426222315"><ele>206.0</ele><time>2026-04-30T17:14:15.999Z</time></trkpt><trkpt lat="42.24385416906067" lon="12.45270706381181"><ele>207.0</ele><time>2026-04-30T17:14:16.999Z</time></trkpt><trkpt lat="42.24371310403387" lon="12.452568186214583"><ele>209.0</ele><time>2026-04-30T17:14:17.999Z</time></trkpt><trkpt lat="42.24357485907655" lon="12.452422432374922"><ele>211.0</ele><time>2026-04-30T17:14:18.999Z</time></trkpt><trkpt lat="42.243435055618406" lon="12.45229380023103"><ele>213.0</ele><time>2026-04-30T17:14:19.999Z</time></trkpt><trkpt lat="42.24329582483778" lon="12.452153371279554"><ele>213.0</ele><time>2026-04-30T17:14:20.999Z</time></trkpt><trkpt lat="42.243157388246495" lon="12.452010848801192"><ele>213.0</ele><time>2026-04-30T17:14:21.999Z</time></trkpt><trkpt lat="42.24301837416941" lon="12.451873032455103"><ele>213.0</ele><time>2026-04-30T17:14:22.999Z</time></trkpt><trkpt lat="42.24288126834334" lon="12.451743909277788"><ele>216.0</ele><time>2026-04-30T17:14:23.999Z</time></trkpt><trkpt lat="42.242752030219975" lon="12.451618112457428"><ele>219.0</ele><time>2026-04-30T17:14:24.999Z</time></trkpt><trkpt lat="42.242610770391536" lon="12.451511522735691"><ele>222.0</ele><time>2026-04-30T17:14:25.999Z</time></trkpt><trkpt lat="42.242470814740315" lon="12.451454461036176"><ele>222.0</ele><time>2026-04-30T17:14:26.999Z</time></trkpt><trkpt lat="42.24232776111215" lon="12.451460506851939"><ele>222.0</ele><time>2026-04-30T17:14:27.999Z</time></trkpt><trkpt lat="42.24218345526607" lon="12.451460216549638"><ele>222.0</ele><time>2026-04-30T17:14:28.999Z</time></trkpt><trkpt lat="42.24203097083379" lon="12.451480744293127"><ele>222.0</ele><time>2026-04-30T17:14:29.999Z</time></trkpt><trkpt lat="42.241882999252624" lon="12.451516611205692"><ele>223.0</ele><time>2026-04-30T17:14:30.999Z</time></trkpt><trkpt lat="42.24173833843241" lon="12.451572067747044"><ele>224.0</ele><time>2026-04-30T17:14:31.999Z</time></trkpt><trkpt lat="42.241600658423366" lon="12.451672050368641"><ele>225.0</ele><time>2026-04-30T17:14:32.999Z</time></trkpt><trkpt lat="42.24146357013224" lon="12.451790335672325"><ele>226.0</ele><time>2026-04-30T17:14:33.999Z</time></trkpt><trkpt lat="42.24131135921856" lon="12.451905964687978"><ele>227.0</ele><time>2026-04-30T17:14:34.999Z</time></trkpt><trkpt lat="42.24116219307076" lon="12.45201384015805"><ele>228.0</ele><time>2026-04-30T17:14:35.999Z</time></trkpt><trkpt lat="42.24101507627999" lon="12.452122483995165"><ele>228.33333333333331</ele><time>2026-04-30T17:14:36.999Z</time></trkpt><trkpt lat="42.24086086647891" lon="12.452220291786578"><ele>228.66666666666666</ele><time>2026-04-30T17:14:38Z</time></trkpt><trkpt lat="42.24070368449452" lon="12.45231016563527"><ele>229.0</ele><time>2026-04-30T17:14:39Z</time></trkpt><trkpt lat="42.24054836364076" lon="12.452405717551988"><ele>229.33333333333331</ele><time>2026-04-30T17:14:40Z</time></trkpt><trkpt lat="42.24038838303209" lon="12.452498646930977"><ele>229.66666666666669</ele><time>2026-04-30T17:14:41Z</time></trkpt><trkpt lat="42.240224204140304" lon="12.452581939827459"><ele>230.0</ele><time>2026-04-30T17:14:42Z</time></trkpt><trkpt lat="42.240053575800886" lon="12.452638549703781"><ele>230.0</ele><time>2026-04-30T17:14:43Z</time></trkpt><trkpt lat="42.23987752990408" lon="12.45267165690774"><ele>230.0</ele><time>2026-04-30T17:14:44Z</time></trkpt><trkpt lat="42.23970317891114" lon="12.45270111345268"><ele>230.0</ele><time>2026-04-30T17:14:45Z</time></trkpt><trkpt lat="42.23952652820326" lon="12.452731390004798"><ele>229.66666666666669</ele><time>2026-04-30T17:14:46Z</time></trkpt><trkpt lat="42.23934960579759" lon="12.452765175385094"><ele>229.33333333333331</ele><time>2026-04-30T17:14:47Z</time></trkpt><trkpt lat="42.23917196834848" lon="12.452789921912649"><ele>229.0</ele><time>2026-04-30T17:14:48Z</time></trkpt><trkpt lat="42.238996223797834" lon="12.452817702964362"><ele>228.66666666666666</ele><time>2026-04-30T17:14:49Z</time></trkpt><trkpt lat="42.23882009297944" lon="12.452859677208803"><ele>228.33333333333331</ele><time>2026-04-30T17:14:50Z</time></trkpt><trkpt lat="42.23864487530462" lon="12.452901530198245"><ele>228.0</ele><time>2026-04-30T17:14:51Z</time></trkpt><trkpt lat="42.238468424771966" lon="12.452926411756218"><ele>228.0</ele><time>2026-04-30T17:14:52Z</time></trkpt><trkpt lat="42.23829325863405" lon="12.452929325840568"><ele>228.0</ele><time>2026-04-30T17:14:53Z</time></trkpt><trkpt lat="42.23811970411203" lon="12.452917092642524"><ele>228.0</ele><time>2026-04-30T17:14:54Z</time></trkpt><trkpt lat="42.23794561391397" lon="12.452922945410243"><ele>227.66666666666669</ele><time>2026-04-30T17:14:55Z</time></trkpt><trkpt lat="42.237771123113326" lon="12.452949799309303"><ele>227.33333333333334</ele><time>2026-04-30T17:14:56Z</time></trkpt><trkpt lat="42.23759168485931" lon="12.452993793717427"><ele>227.0</ele><time>2026-04-30T17:14:57Z</time></trkpt><trkpt lat="42.237413079784645" lon="12.453042832139928"><ele>230.0</ele><time>2026-04-30T17:14:58Z</time></trkpt><trkpt lat="42.23723193442187" lon="12.45309355836539"><ele>233.0</ele><time>2026-04-30T17:14:59Z</time></trkpt><trkpt lat="42.23704649417048" lon="12.453141789739966"><ele>236.0</ele><time>2026-04-30T17:15:00Z</time></trkpt><trkpt lat="42.236858582623945" lon="12.453186384584672"><ele>236.0</ele><time>2026-04-30T17:15:01Z</time></trkpt><trkpt lat="42.23666907130004" lon="12.45322460154408"><ele>236.0</ele><time>2026-04-30T17:15:02Z</time></trkpt><trkpt lat="42.23648067861876" lon="12.453244465415807"><ele>236.0</ele><time>2026-04-30T17:15:03Z</time></trkpt><trkpt lat="42.236290214832756" lon="12.45324361072255"><ele>238.0</ele><time>2026-04-30T17:15:04Z</time></trkpt><trkpt lat="42.23610336705163" lon="12.45322537125511"><ele>240.0</ele><time>2026-04-30T17:15:05Z</time></trkpt><trkpt lat="42.23591336303425" lon="12.453207672353878"><ele>242.0</ele><time>2026-04-30T17:15:06Z</time></trkpt><trkpt lat="42.235723697668014" lon="12.453193706461677"><ele>243.0</ele><time>2026-04-30T17:15:07Z</time></trkpt><trkpt lat="42.23553658468922" lon="12.453176308602433"><ele>244.0</ele><time>2026-04-30T17:15:08Z</time></trkpt><trkpt lat="42.235348836236746" lon="12.453160200398127"><ele>245.0</ele><time>2026-04-30T17:15:09Z</time></trkpt><trkpt lat="42.23516307568575" lon="12.453139601647758"><ele>245.0</ele><time>2026-04-30T17:15:10Z</time></trkpt><trkpt lat="42.23498413774806" lon="12.453119597055858"><ele>245.0</ele><time>2026-04-30T17:15:11Z</time></trkpt><trkpt lat="42.23481060717636" lon="12.4530990635165"><ele>245.0</ele><time>2026-04-30T17:15:12Z</time></trkpt><trkpt lat="42.23464335987561" lon="12.453070569801989"><ele>246.0</ele><time>2026-04-30T17:15:13Z</time></trkpt><trkpt lat="42.234482210234056" lon="12.453038861692477"><ele>247.0</ele><time>2026-04-30T17:15:14Z</time></trkpt><trkpt lat="42.23431611041856" lon="12.452995739642056"><ele>248.0</ele><time>2026-04-30T17:15:15Z</time></trkpt><trkpt lat="42.234155234011794" lon="12.452938928964219"><ele>248.33333333333334</ele><time>2026-04-30T17:15:16Z</time></trkpt><trkpt lat="42.233997593297254" lon="12.452868774629295"><ele>248.66666666666669</ele><time>2026-04-30T17:15:17Z</time></trkpt><trkpt lat="42.23384611248215" lon="12.452785884472467"><ele>249.0</ele><time>2026-04-30T17:15:18Z</time></trkpt><trkpt lat="42.233696362874795" lon="12.452689224035812"><ele>249.0</ele><time>2026-04-30T17:15:19Z</time></trkpt><trkpt lat="42.23354602328643" lon="12.452586649403212"><ele>249.0</ele><time>2026-04-30T17:15:20Z</time></trkpt><trkpt lat="42.23339607652777" lon="12.452484844243175"><ele>249.0</ele><time>2026-04-30T17:15:21Z</time></trkpt><trkpt lat="42.233249275407935" lon="12.452391253051996"><ele>248.66666666666669</ele><time>2026-04-30T17:15:22Z</time></trkpt><trkpt lat="42.2331077770515" lon="12.452301587208725"><ele>248.33333333333334</ele><time>2026-04-30T17:15:23Z</time></trkpt><trkpt lat="42.23297451951944" lon="12.452201285313098"><ele>248.0</ele><time>2026-04-30T17:15:24Z</time></trkpt><trkpt lat="42.232852407644074" lon="12.452075294425436"><ele>248.0</ele><time>2026-04-30T17:15:25Z</time></trkpt><trkpt lat="42.232735530310315" lon="12.451928689285921"><ele>248.0</ele><time>2026-04-30T17:15:26Z</time></trkpt><trkpt lat="42.23261937312251" lon="12.451779756828664"><ele>248.0</ele><time>2026-04-30T17:15:27Z</time></trkpt><trkpt lat="42.232485662243796" lon="12.45165849805263"><ele>248.0</ele><time>2026-04-30T17:15:28Z</time></trkpt><trkpt lat="42.232340803783224" lon="12.45156093502647"><ele>248.0</ele><time>2026-04-30T17:15:29Z</time></trkpt><trkpt lat="42.232187234800215" lon="12.45148524153283"><ele>248.0</ele><time>2026-04-30T17:15:30Z</time></trkpt><trkpt lat="42.23202232993271" lon="12.451410847673396"><ele>249.0</ele><time>2026-04-30T17:15:31Z</time></trkpt><trkpt lat="42.23185863010465" lon="12.45134502752896"><ele>250.0</ele><time>2026-04-30T17:15:32Z</time></trkpt><trkpt lat="42.2316971601045" lon="12.451265430634583"><ele>251.0</ele><time>2026-04-30T17:15:33Z</time></trkpt><trkpt lat="42.231543505121266" lon="12.451182460062446"><ele>249.66666666666669</ele><time>2026-04-30T17:15:34Z</time></trkpt><trkpt lat="42.23139086775951" lon="12.451096217022004"><ele>248.33333333333331</ele><time>2026-04-30T17:15:35Z</time></trkpt><trkpt lat="42.23123824928768" lon="12.451009109721014"><ele>247.0</ele><time>2026-04-30T17:15:36Z</time></trkpt><trkpt lat="42.23108451774025" lon="12.450918772367947"><ele>247.0</ele><time>2026-04-30T17:15:37Z</time></trkpt><trkpt lat="42.23093101198323" lon="12.450813825297082"><ele>247.0</ele><time>2026-04-30T17:15:38Z</time></trkpt><trkpt lat="42.23077850183467" lon="12.450707246900123"><ele>247.0</ele><time>2026-04-30T17:15:39Z</time></trkpt><trkpt lat="42.23062235808022" lon="12.450607028213165"><ele>244.66666666666666</ele><time>2026-04-30T17:15:40Z</time></trkpt><trkpt lat="42.230462430931325" lon="12.450511090953926"><ele>242.33333333333331</ele><time>2026-04-30T17:15:41Z</time></trkpt><trkpt lat="42.23030948802167" lon="12.450407045123962"><ele>240.0</ele><time>2026-04-30T17:15:42Z</time></trkpt><trkpt lat="42.230166847609226" lon="12.450296918822017"><ele>238.75</ele><time>2026-04-30T17:15:43Z</time></trkpt><trkpt lat="42.23003788130711" lon="12.450195641731966"><ele>237.5</ele><time>2026-04-30T17:15:44Z</time></trkpt><trkpt lat="42.229922156567326" lon="12.450076283297115"><ele>236.25</ele><time>2026-04-30T17:15:45Z</time></trkpt><trkpt lat="42.22980728537192" lon="12.449955646240417"><ele>235.0</ele><time>2026-04-30T17:15:46Z</time></trkpt><trkpt lat="42.22969897156116" lon="12.449810491803904"><ele>233.66666666666666</ele><time>2026-04-30T17:15:47Z</time></trkpt><trkpt lat="42.22959122889482" lon="12.449647195686108"><ele>232.33333333333331</ele><time>2026-04-30T17:15:48Z</time></trkpt><trkpt lat="42.22947973977242" lon="12.449489546921107"><ele>231.0</ele><time>2026-04-30T17:15:49Z</time></trkpt><trkpt lat="42.22937520695215" lon="12.449327275339861"><ele>229.75</ele><time>2026-04-30T17:15:49.999Z</time></trkpt><trkpt lat="42.22928254384503" lon="12.449178085294932"><ele>228.5</ele><time>2026-04-30T17:15:50.999Z</time></trkpt><trkpt lat="42.22920434495849" lon="12.449009207227409"><ele>227.25</ele><time>2026-04-30T17:15:51.999Z</time></trkpt><trkpt lat="42.229131153764385" lon="12.448834970869186"><ele>226.0</ele><time>2026-04-30T17:15:52.999Z</time></trkpt><trkpt lat="42.22906478414475" lon="12.44866054092338"><ele>224.66666666666666</ele><time>2026-04-30T17:15:53.999Z</time></trkpt><trkpt lat="42.22900228871883" lon="12.448470363702253"><ele>223.33333333333331</ele><time>2026-04-30T17:15:54.999Z</time></trkpt><trkpt lat="42.2289449890198" lon="12.4482756786065"><ele>222.0</ele><time>2026-04-30T17:15:55.999Z</time></trkpt><trkpt lat="42.22888969290928" lon="12.448060810690214"><ele>219.0</ele><time>2026-04-30T17:15:56.999Z</time></trkpt><trkpt lat="42.228846727931234" lon="12.447850398156307"><ele>216.0</ele><time>2026-04-30T17:15:57.999Z</time></trkpt><trkpt lat="42.22877865566126" lon="12.44764649233267"><ele>213.0</ele><time>2026-04-30T17:15:58.999Z</time></trkpt><trkpt lat="42.228696373030175" lon="12.447449396807391"><ele>213.0</ele><time>2026-04-30T17:15:59.999Z</time></trkpt><trkpt lat="42.22861132390916" lon="12.447251560161469"><ele>213.0</ele><time>2026-04-30T17:16:00.999Z</time></trkpt><trkpt lat="42.228516611418804" lon="12.447050157418543"><ele>213.0</ele><time>2026-04-30T17:16:01.999Z</time></trkpt><trkpt lat="42.22841407870373" lon="12.446854885228047"><ele>213.66666666666669</ele><time>2026-04-30T17:16:02.999Z</time></trkpt><trkpt lat="42.22830288355794" lon="12.446669172025876"><ele>214.33333333333334</ele><time>2026-04-30T17:16:03.999Z</time></trkpt><trkpt lat="42.22818510370359" lon="12.446496486247142"><ele>215.0</ele><time>2026-04-30T17:16:04.999Z</time></trkpt><trkpt lat="42.2280684217095" lon="12.446336262754599"><ele>211.0</ele><time>2026-04-30T17:16:05.999Z</time></trkpt><trkpt lat="42.22795346266068" lon="12.446182888338104"><ele>207.0</ele><time>2026-04-30T17:16:06.999Z</time></trkpt><trkpt lat="42.22784057394529" lon="12.446032404424502"><ele>203.0</ele><time>2026-04-30T17:16:07.999Z</time></trkpt><trkpt lat="42.2277328746257" lon="12.445885415025982"><ele>203.0</ele><time>2026-04-30T17:16:08.999Z</time></trkpt><trkpt lat="42.227632859860805" lon="12.445737417899913"><ele>203.0</ele><time>2026-04-30T17:16:09.999Z</time></trkpt><trkpt lat="42.22754225763456" lon="12.445583115704375"><ele>203.0</ele><time>2026-04-30T17:16:10.999Z</time></trkpt><trkpt lat="42.22745050542978" lon="12.445422290828445"><ele>203.0</ele><time>2026-04-30T17:16:11.999Z</time></trkpt><trkpt lat="42.22735570960892" lon="12.445270704806354"><ele>202.25</ele><time>2026-04-30T17:16:12.999Z</time></trkpt><trkpt lat="42.227272141223516" lon="12.445117015819303"><ele>201.5</ele><time>2026-04-30T17:16:13.999Z</time></trkpt><trkpt lat="42.22718810661579" lon="12.444966791759896"><ele>200.75</ele><time>2026-04-30T17:16:14.999Z</time></trkpt><trkpt lat="42.2271092294757" lon="12.444823780947516"><ele>200.0</ele><time>2026-04-30T17:16:15.999Z</time></trkpt><trkpt lat="42.22704238455375" lon="12.444693113795566"><ele>200.0</ele><time>2026-04-30T17:16:16.999Z</time></trkpt><trkpt lat="42.22698259937227" lon="12.444566261176815"><ele>200.0</ele><time>2026-04-30T17:16:17.999Z</time></trkpt><trkpt lat="42.22692513707529" lon="12.444443780587765"><ele>200.0</ele><time>2026-04-30T17:16:18.999Z</time></trkpt><trkpt lat="42.226878241935026" lon="12.44434213498578"><ele>200.0</ele><time>2026-04-30T17:16:19.999Z</time></trkpt><trkpt lat="42.226843035165324" lon="12.444250700683588"><ele>200.0</ele><time>2026-04-30T17:16:20.999Z</time></trkpt><trkpt lat="42.22680778315785" lon="12.444158470106068"><ele>200.00000000000003</ele><time>2026-04-30T17:16:21.999Z</time></trkpt><trkpt lat="42.226775800415844" lon="12.444066291751032"><ele>200.0</ele><time>2026-04-30T17:16:22.999Z</time></trkpt><trkpt lat="42.22674088826082" lon="12.443985354391698"><ele>200.0</ele><time>2026-04-30T17:16:23.999Z</time></trkpt><trkpt lat="42.226684395174104" lon="12.443870473965426"><ele>200.0</ele><time>2026-04-30T17:16:25.999Z</time></trkpt><trkpt lat="42.22662347635245" lon="12.443791915632094"><ele>200.00000000000003</ele><time>2026-04-30T17:16:28.999Z</time></trkpt><trkpt lat="42.22656062559161" lon="12.443706831382753"><ele>200.0</ele><time>2026-04-30T17:16:30.999Z</time></trkpt><trkpt lat="42.22649251303709" lon="12.443597531145958"><ele>201.00000000000003</ele><time>2026-04-30T17:16:32.999Z</time></trkpt><trkpt lat="42.22643047148665" lon="12.443493103307775"><ele>202.0</ele><time>2026-04-30T17:16:34.999Z</time></trkpt><trkpt lat="42.226354516430874" lon="12.443389556304687"><ele>203.0</ele><time>2026-04-30T17:16:36.999Z</time></trkpt><trkpt lat="42.22631370869871" lon="12.443317637417707"><ele>204.0</ele><time>2026-04-30T17:16:37.999Z</time></trkpt><trkpt lat="42.226245300162454" lon="12.443229927364623"><ele>205.00000000000003</ele><time>2026-04-30T17:16:39.999Z</time></trkpt><trkpt lat="42.22619812875628" lon="12.443166973977334"><ele>206.0</ele><time>2026-04-30T17:16:41.999Z</time></trkpt><trkpt lat="42.22614070718181" lon="12.443114351960016"><ele>206.0</ele><time>2026-04-30T17:16:45.001Z</time></trkpt><trkpt lat="42.22604186224685" lon="12.44309833639279"><ele>206.0</ele><time>2026-04-30T17:16:46Z</time></trkpt><trkpt lat="42.226012572660956" lon="12.443338652879104"><ele>206.0</ele><time>2026-04-30T17:16:48.001Z</time></trkpt><trkpt lat="42.22595802871646" lon="12.443418743253417"><ele>206.0</ele><time>2026-04-30T17:16:49Z</time></trkpt><trkpt lat="42.22593626459764" lon="12.44350868677461"><ele>206.0</ele><time>2026-04-30T17:16:50.001Z</time></trkpt><trkpt lat="42.225876703089185" lon="12.44357327848033"><ele>206.0</ele><time>2026-04-30T17:16:51.001Z</time></trkpt><trkpt lat="42.225813399206565" lon="12.443701182432168"><ele>206.0</ele><time>2026-04-30T17:16:52Z</time></trkpt><trkpt lat="42.22576429761603" lon="12.443813650163493"><ele>206.0</ele><time>2026-04-30T17:16:53.001Z</time></trkpt><trkpt lat="42.22571035647314" lon="12.443937203034434"><ele>206.0</ele><time>2026-04-30T17:16:54.001Z</time></trkpt><trkpt lat="42.22565266285114" lon="12.444069558236569"><ele>206.0</ele><time>2026-04-30T17:16:55.001Z</time></trkpt><trkpt lat="42.22558844530665" lon="12.444181780929062"><ele>207.5</ele><time>2026-04-30T17:16:56.001Z</time></trkpt><trkpt lat="42.22553055080471" lon="12.444316391851103"><ele>209.0</ele><time>2026-04-30T17:16:57.001Z</time></trkpt><trkpt lat="42.225478921089895" lon="12.444448267016034"><ele>210.5</ele><time>2026-04-30T17:16:58Z</time></trkpt><trkpt lat="42.22541831751832" lon="12.444578212451766"><ele>212.0</ele><time>2026-04-30T17:16:59Z</time></trkpt><trkpt lat="42.225341085656844" lon="12.444714694527232"><ele>212.5</ele><time>2026-04-30T17:17:00Z</time></trkpt><trkpt lat="42.22525670986354" lon="12.444840552033794"><ele>213.0</ele><time>2026-04-30T17:17:01Z</time></trkpt><trkpt lat="42.22516544030474" lon="12.444954372041838"><ele>213.5</ele><time>2026-04-30T17:17:02Z</time></trkpt><trkpt lat="42.22507415242031" lon="12.445068728184376"><ele>214.0</ele><time>2026-04-30T17:17:03Z</time></trkpt><trkpt lat="42.22498137246774" lon="12.44519171465536"><ele>214.0</ele><time>2026-04-30T17:17:04Z</time></trkpt><trkpt lat="42.22489162744668" lon="12.445302406597827"><ele>214.0</ele><time>2026-04-30T17:17:05Z</time></trkpt><trkpt lat="42.22479808096068" lon="12.445427192306372"><ele>214.0</ele><time>2026-04-30T17:17:06Z</time></trkpt><trkpt lat="42.22472055676579" lon="12.44555478028129"><ele>214.0</ele><time>2026-04-30T17:17:07Z</time></trkpt><trkpt lat="42.22464607313878" lon="12.445709361083994"><ele>216.75</ele><time>2026-04-30T17:17:08Z</time></trkpt><trkpt lat="42.22460546529404" lon="12.445872685222062"><ele>219.5</ele><time>2026-04-30T17:17:09Z</time></trkpt><trkpt lat="42.22453700892332" lon="12.446023552732916"><ele>222.25</ele><time>2026-04-30T17:17:10Z</time></trkpt><trkpt lat="42.22450524168559" lon="12.446183432334943"><ele>225.0</ele><time>2026-04-30T17:17:11Z</time></trkpt><trkpt lat="42.22446952730517" lon="12.446361606049095"><ele>225.0</ele><time>2026-04-30T17:17:12Z</time></trkpt><trkpt lat="42.22443143405757" lon="12.44652951789967"><ele>225.0</ele><time>2026-04-30T17:17:13Z</time></trkpt><trkpt lat="42.22439119450393" lon="12.446687452264854"><ele>225.0</ele><time>2026-04-30T17:17:14Z</time></trkpt><trkpt lat="42.224348611324984" lon="12.4468447899518"><ele>225.0</ele><time>2026-04-30T17:17:15Z</time></trkpt><trkpt lat="42.224298495564376" lon="12.447000387021667"><ele>224.0</ele><time>2026-04-30T17:17:16Z</time></trkpt><trkpt lat="42.22424287239761" lon="12.447163001932418"><ele>223.0</ele><time>2026-04-30T17:17:17Z</time></trkpt><trkpt lat="42.22419338480999" lon="12.447323099610665"><ele>222.0</ele><time>2026-04-30T17:17:18Z</time></trkpt><trkpt lat="42.22413736827474" lon="12.447480261727549"><ele>221.0</ele><time>2026-04-30T17:17:19Z</time></trkpt><trkpt lat="42.22406751673615" lon="12.447635845375919"><ele>221.0</ele><time>2026-04-30T17:17:20Z</time></trkpt><trkpt lat="42.223989619474835" lon="12.447792398642441"><ele>221.0</ele><time>2026-04-30T17:17:21Z</time></trkpt><trkpt lat="42.22390647334198" lon="12.447958766530869"><ele>221.0</ele><time>2026-04-30T17:17:22Z</time></trkpt><trkpt lat="42.22382886953344" lon="12.448130604819209"><ele>221.0</ele><time>2026-04-30T17:17:23Z</time></trkpt><trkpt lat="42.2237440891502" lon="12.448293096360402"><ele>221.0</ele><time>2026-04-30T17:17:24Z</time></trkpt><trkpt lat="42.22365499942649" lon="12.448444857619945"><ele>221.0</ele><time>2026-04-30T17:17:25Z</time></trkpt><trkpt lat="42.22356569970368" lon="12.448584223699303"><ele>221.0</ele><time>2026-04-30T17:17:26Z</time></trkpt><trkpt lat="42.22347677841259" lon="12.44871043133873"><ele>221.0</ele><time>2026-04-30T17:17:27Z</time></trkpt><trkpt lat="42.223378376461795" lon="12.448772190386316"><ele>221.0</ele><time>2026-04-30T17:17:28Z</time></trkpt><trkpt lat="42.223277924738724" lon="12.448787342986586"><ele>221.0</ele><time>2026-04-30T17:17:29Z</time></trkpt><trkpt lat="42.223156264885645" lon="12.448771198771448"><ele>221.0</ele><time>2026-04-30T17:17:30Z</time></trkpt><trkpt lat="42.223025470122934" lon="12.448751139074618"><ele>221.0</ele><time>2026-04-30T17:17:31Z</time></trkpt><trkpt lat="42.22288300852754" lon="12.448726565634992"><ele>219.0</ele><time>2026-04-30T17:17:32Z</time></trkpt><trkpt lat="42.222732531691" lon="12.448700609621618"><ele>217.0</ele><time>2026-04-30T17:17:33Z</time></trkpt><trkpt lat="42.22256721749424" lon="12.448672094281662"><ele>215.0</ele><time>2026-04-30T17:17:34Z</time></trkpt><trkpt lat="42.222399821812836" lon="12.448643781326727"><ele>213.66666666666669</ele><time>2026-04-30T17:17:35Z</time></trkpt><trkpt lat="42.222242254647625" lon="12.4486183886002"><ele>212.33333333333331</ele><time>2026-04-30T17:17:36Z</time></trkpt><trkpt lat="42.222080855007064" lon="12.448593546622083"><ele>211.0</ele><time>2026-04-30T17:17:37Z</time></trkpt><trkpt lat="42.221922567750866" lon="12.44857014843716"><ele>211.0</ele><time>2026-04-30T17:17:38Z</time></trkpt><trkpt lat="42.22176490912045" lon="12.44855228205461"><ele>211.0</ele><time>2026-04-30T17:17:39Z</time></trkpt><trkpt lat="42.221593756960125" lon="12.448544304435268"><ele>211.0</ele><time>2026-04-30T17:17:40Z</time></trkpt><trkpt lat="42.221430469183964" lon="12.448568620191121"><ele>210.33333333333331</ele><time>2026-04-30T17:17:41Z</time></trkpt><trkpt lat="42.22128582392107" lon="12.448626498300184"><ele>209.66666666666669</ele><time>2026-04-30T17:17:42Z</time></trkpt><trkpt lat="42.221162371004134" lon="12.448743791098"><ele>209.0</ele><time>2026-04-30T17:17:43Z</time></trkpt><trkpt lat="42.22102796056239" lon="12.448841043769608"><ele>208.33333333333334</ele><time>2026-04-30T17:17:44Z</time></trkpt><trkpt lat="42.22089226964879" lon="12.448957935249409"><ele>207.66666666666669</ele><time>2026-04-30T17:17:45Z</time></trkpt><trkpt lat="42.22074850995578" lon="12.44912873033076"><ele>207.0</ele><time>2026-04-30T17:17:46Z</time></trkpt><trkpt lat="42.22063692882961" lon="12.449287296442662"><ele>207.0</ele><time>2026-04-30T17:17:47Z</time></trkpt><trkpt lat="42.22054745570035" lon="12.449436088068392"><ele>207.0</ele><time>2026-04-30T17:17:48Z</time></trkpt><trkpt lat="42.22045534463972" lon="12.449598763171611"><ele>207.0</ele><time>2026-04-30T17:17:49Z</time></trkpt><trkpt lat="42.22036346069415" lon="12.449770187679112"><ele>208.66666666666669</ele><time>2026-04-30T17:17:50Z</time></trkpt><trkpt lat="42.22026567480253" lon="12.449956206044993"><ele>210.33333333333334</ele><time>2026-04-30T17:17:51Z</time></trkpt><trkpt lat="42.2201655500359" lon="12.450151977184458"><ele>212.0</ele><time>2026-04-30T17:17:52Z</time></trkpt><trkpt lat="42.220072504867694" lon="12.4503301986534"><ele>211.66666666666669</ele><time>2026-04-30T17:17:53Z</time></trkpt><trkpt lat="42.21998076114076" lon="12.450490070390389"><ele>211.33333333333331</ele><time>2026-04-30T17:17:54Z</time></trkpt><trkpt lat="42.21986116764698" lon="12.450632168060054"><ele>211.0</ele><time>2026-04-30T17:17:55Z</time></trkpt><trkpt lat="42.21973217375377" lon="12.45073123039611"><ele>211.0</ele><time>2026-04-30T17:17:55.999Z</time></trkpt><trkpt lat="42.21959714981595" lon="12.450812123501096"><ele>211.0</ele><time>2026-04-30T17:17:56.999Z</time></trkpt><trkpt lat="42.21945900047089" lon="12.45087262819227"><ele>211.0</ele><time>2026-04-30T17:17:57.999Z</time></trkpt><trkpt lat="42.219306827318206" lon="12.450908339253683"><ele>211.0</ele><time>2026-04-30T17:17:58.999Z</time></trkpt><trkpt lat="42.21915714662526" lon="12.45092637587268"><ele>211.0</ele><time>2026-04-30T17:17:59.999Z</time></trkpt><trkpt lat="42.21901225086831" lon="12.450951404280756"><ele>211.0</ele><time>2026-04-30T17:18:00.999Z</time></trkpt><trkpt lat="42.218868483172905" lon="12.450990319281688"><ele>211.0</ele><time>2026-04-30T17:18:01.999Z</time></trkpt><trkpt lat="42.218716738277436" lon="12.45103111717844"><ele>211.0</ele><time>2026-04-30T17:18:02.999Z</time></trkpt><trkpt lat="42.21857388317499" lon="12.451113453591603"><ele>208.66666666666666</ele><time>2026-04-30T17:18:03.999Z</time></trkpt><trkpt lat="42.218428559776996" lon="12.451196060638827"><ele>206.33333333333331</ele><time>2026-04-30T17:18:04.999Z</time></trkpt><trkpt lat="42.21828881893568" lon="12.451280047034723"><ele>204.0</ele><time>2026-04-30T17:18:05.999Z</time></trkpt><trkpt lat="42.218145235127366" lon="12.451351141343926"><ele>204.0</ele><time>2026-04-30T17:18:06.999Z</time></trkpt><trkpt lat="42.21800126396553" lon="12.451407422116818"><ele>204.0</ele><time>2026-04-30T17:18:07.999Z</time></trkpt><trkpt lat="42.21785656953469" lon="12.45145190522093"><ele>204.0</ele><time>2026-04-30T17:18:08.999Z</time></trkpt><trkpt lat="42.21770833727539" lon="12.451508179010306"><ele>204.0</ele><time>2026-04-30T17:18:09.999Z</time></trkpt><trkpt lat="42.21756343979015" lon="12.45157923153251"><ele>204.0</ele><time>2026-04-30T17:18:10.999Z</time></trkpt><trkpt lat="42.217427846499405" lon="12.451694835059406"><ele>204.0</ele><time>2026-04-30T17:18:11.999Z</time></trkpt><trkpt lat="42.21730577559015" lon="12.451845661445697"><ele>205.0</ele><time>2026-04-30T17:18:12.999Z</time></trkpt><trkpt lat="42.21718959865007" lon="12.45200940465621"><ele>206.0</ele><time>2026-04-30T17:18:13.999Z</time></trkpt><trkpt lat="42.217063194285544" lon="12.4521684268704"><ele>207.0</ele><time>2026-04-30T17:18:14.999Z</time></trkpt><trkpt lat="42.216941911110204" lon="12.45232797124826"><ele>207.66666666666669</ele><time>2026-04-30T17:18:15.999Z</time></trkpt><trkpt lat="42.21682263692455" lon="12.452488637205187"><ele>208.33333333333334</ele><time>2026-04-30T17:18:16.999Z</time></trkpt><trkpt lat="42.216698086434135" lon="12.452645883188588"><ele>209.0</ele><time>2026-04-30T17:18:17.999Z</time></trkpt><trkpt lat="42.21657002769084" lon="12.452809907964632"><ele>209.66666666666669</ele><time>2026-04-30T17:18:18.999Z</time></trkpt><trkpt lat="42.21644340812672" lon="12.452975912286927"><ele>210.33333333333331</ele><time>2026-04-30T17:18:19.999Z</time></trkpt><trkpt lat="42.2163174147488" lon="12.453140267783857"><ele>211.0</ele><time>2026-04-30T17:18:20.999Z</time></trkpt><trkpt lat="42.21618994014395" lon="12.453313010438432"><ele>211.0</ele><time>2026-04-30T17:18:21.999Z</time></trkpt><trkpt lat="42.21605725559263" lon="12.453471868159594"><ele>211.0</ele><time>2026-04-30T17:18:22.999Z</time></trkpt><trkpt lat="42.21592876299817" lon="12.453645454823203"><ele>211.0</ele><time>2026-04-30T17:18:23.999Z</time></trkpt><trkpt lat="42.21580623695168" lon="12.453817324086202"><ele>211.66666666666666</ele><time>2026-04-30T17:18:24.999Z</time></trkpt><trkpt lat="42.215677104185914" lon="12.453986027709279"><ele>212.33333333333331</ele><time>2026-04-30T17:18:25.999Z</time></trkpt><trkpt lat="42.21554888741801" lon="12.45414945538824"><ele>213.0</ele><time>2026-04-30T17:18:26.999Z</time></trkpt><trkpt lat="42.21542041732099" lon="12.454314922618153"><ele>213.0</ele><time>2026-04-30T17:18:27.999Z</time></trkpt><trkpt lat="42.2152953308999" lon="12.454477721155179"><ele>213.0</ele><time>2026-04-30T17:18:28.999Z</time></trkpt><trkpt lat="42.21517152913649" lon="12.454639204425842"><ele>213.0</ele><time>2026-04-30T17:18:29.999Z</time></trkpt><trkpt lat="42.21504706796912" lon="12.4548032170668"><ele>213.0</ele><time>2026-04-30T17:18:30.999Z</time></trkpt><trkpt lat="42.21492628661039" lon="12.454964741475587"><ele>213.0</ele><time>2026-04-30T17:18:31.999Z</time></trkpt><trkpt lat="42.21480789827946" lon="12.45512307850237"><ele>213.0</ele><time>2026-04-30T17:18:32.999Z</time></trkpt><trkpt lat="42.21469430927533" lon="12.455276928431848"><ele>213.0</ele><time>2026-04-30T17:18:33.999Z</time></trkpt><trkpt lat="42.21459100419162" lon="12.455433898046492"><ele>213.0</ele><time>2026-04-30T17:18:34.999Z</time></trkpt><trkpt lat="42.214504034372986" lon="12.455604330508647"><ele>213.0</ele><time>2026-04-30T17:18:35.999Z</time></trkpt><trkpt lat="42.21444740074899" lon="12.455788143090444"><ele>214.66666666666669</ele><time>2026-04-30T17:18:36.999Z</time></trkpt><trkpt lat="42.214426888668044" lon="12.455987978257868"><ele>216.33333333333334</ele><time>2026-04-30T17:18:37.999Z</time></trkpt><trkpt lat="42.21443348444922" lon="12.456189296533646"><ele>218.0</ele><time>2026-04-30T17:18:38.999Z</time></trkpt><trkpt lat="42.21444902815162" lon="12.45640852917196"><ele>218.66666666666669</ele><time>2026-04-30T17:18:39.999Z</time></trkpt><trkpt lat="42.21446544808784" lon="12.456618682797318"><ele>219.33333333333331</ele><time>2026-04-30T17:18:40.999Z</time></trkpt><trkpt lat="42.21449594408737" lon="12.45683662910228"><ele>220.0</ele><time>2026-04-30T17:18:41.999Z</time></trkpt><trkpt lat="42.21452664912013" lon="12.457058294447442"><ele>219.66666666666666</ele><time>2026-04-30T17:18:42.999Z</time></trkpt><trkpt lat="42.21456155286068" lon="12.457280278629096"><ele>219.33333333333331</ele><time>2026-04-30T17:18:43.999Z</time></trkpt><trkpt lat="42.214596990649156" lon="12.457503070653317"><ele>219.0</ele><time>2026-04-30T17:18:44.999Z</time></trkpt><trkpt lat="42.21463539584424" lon="12.457727427601759"><ele>218.33333333333331</ele><time>2026-04-30T17:18:45.999Z</time></trkpt><trkpt lat="42.2146705520251" lon="12.45795319076921"><ele>217.66666666666666</ele><time>2026-04-30T17:18:46.999Z</time></trkpt><trkpt lat="42.21470339550529" lon="12.458179162107447"><ele>217.0</ele><time>2026-04-30T17:18:47.999Z</time></trkpt><trkpt lat="42.214731764327915" lon="12.45839982430457"><ele>217.0</ele><time>2026-04-30T17:18:49.001Z</time></trkpt><trkpt lat="42.21476604822001" lon="12.458621431005497"><ele>217.0</ele><time>2026-04-30T17:18:50.001Z</time></trkpt><trkpt lat="42.214799940949085" lon="12.458844444201986"><ele>217.0</ele><time>2026-04-30T17:18:51.001Z</time></trkpt><trkpt lat="42.214845799568415" lon="12.459055776409217"><ele>221.33333333333331</ele><time>2026-04-30T17:18:52.001Z</time></trkpt><trkpt lat="42.21491810357871" lon="12.45926727304344"><ele>225.66666666666669</ele><time>2026-04-30T17:18:53.001Z</time></trkpt><trkpt lat="42.21499749888817" lon="12.459467950046218"><ele>230.0</ele><time>2026-04-30T17:18:54.001Z</time></trkpt><trkpt lat="42.215081149620815" lon="12.459661231730719"><ele>230.0</ele><time>2026-04-30T17:18:55.001Z</time></trkpt><trkpt lat="42.21515380966178" lon="12.45985491938739"><ele>230.0</ele><time>2026-04-30T17:18:56.001Z</time></trkpt><trkpt lat="42.21521478405866" lon="12.460044449466178"><ele>230.0</ele><time>2026-04-30T17:18:57.001Z</time></trkpt><trkpt lat="42.21523046822662" lon="12.460232204335574"><ele>230.0</ele><time>2026-04-30T17:18:58.001Z</time></trkpt><trkpt lat="42.21519973046095" lon="12.460405400452345"><ele>230.0</ele><time>2026-04-30T17:18:59.001Z</time></trkpt><trkpt lat="42.215138540783364" lon="12.460560595075812"><ele>230.0</ele><time>2026-04-30T17:19:00.001Z</time></trkpt><trkpt lat="42.21505302763825" lon="12.460691043710604"><ele>230.0</ele><time>2026-04-30T17:19:01.001Z</time></trkpt><trkpt lat="42.21493432447742" lon="12.460760564614175"><ele>230.0</ele><time>2026-04-30T17:19:02.001Z</time></trkpt><trkpt lat="42.21480216014653" lon="12.46075119176962"><ele>230.0</ele><time>2026-04-30T17:19:03.001Z</time></trkpt><trkpt lat="42.21466665559491" lon="12.460738567090816"><ele>230.0</ele><time>2026-04-30T17:19:04.001Z</time></trkpt><trkpt lat="42.21452837232493" lon="12.460719583447254"><ele>230.0</ele><time>2026-04-30T17:19:05.001Z</time></trkpt><trkpt lat="42.21438676233009" lon="12.460726582040385"><ele>230.0</ele><time>2026-04-30T17:19:06.001Z</time></trkpt><trkpt lat="42.21426781720122" lon="12.460776339679937"><ele>230.0</ele><time>2026-04-30T17:19:07Z</time></trkpt><trkpt lat="42.214187215690025" lon="12.460901163707565"><ele>230.0</ele><time>2026-04-30T17:19:08Z</time></trkpt><trkpt lat="42.214139274548835" lon="12.461036792263245"><ele>230.0</ele><time>2026-04-30T17:19:09Z</time></trkpt><trkpt lat="42.21412427411396" lon="12.461195693360839"><ele>232.0</ele><time>2026-04-30T17:19:10Z</time></trkpt><trkpt lat="42.214110017575024" lon="12.46136825269087"><ele>234.0</ele><time>2026-04-30T17:19:11Z</time></trkpt><trkpt lat="42.21410850630408" lon="12.461552157572575"><ele>236.0</ele><time>2026-04-30T17:19:12Z</time></trkpt><trkpt lat="42.21410480864978" lon="12.46172875835282"><ele>238.0</ele><time>2026-04-30T17:19:13Z</time></trkpt><trkpt lat="42.21410443022295" lon="12.46189543673862"><ele>238.0</ele><time>2026-04-30T17:19:14Z</time></trkpt><trkpt lat="42.21408570573976" lon="12.462066992861823"><ele>238.0</ele><time>2026-04-30T17:19:15Z</time></trkpt><trkpt lat="42.21405979574394" lon="12.462246799503975"><ele>238.0</ele><time>2026-04-30T17:19:16Z</time></trkpt><trkpt lat="42.21401386246992" lon="12.462413505158397"><ele>238.0</ele><time>2026-04-30T17:19:17Z</time></trkpt><trkpt lat="42.21397526242507" lon="12.462599661974547"><ele>236.5</ele><time>2026-04-30T17:19:18Z</time></trkpt><trkpt lat="42.21393473098883" lon="12.462795133399435"><ele>235.0</ele><time>2026-04-30T17:19:19Z</time></trkpt><trkpt lat="42.213892010633586" lon="12.462984784671809"><ele>233.5</ele><time>2026-04-30T17:19:20Z</time></trkpt><trkpt lat="42.21385394608197" lon="12.463177136856316"><ele>232.0</ele><time>2026-04-30T17:19:21Z</time></trkpt><trkpt lat="42.21381894941177" lon="12.463372550333048"><ele>232.0</ele><time>2026-04-30T17:19:22Z</time></trkpt><trkpt lat="42.213789458694535" lon="12.46358007436325"><ele>232.0</ele><time>2026-04-30T17:19:23Z</time></trkpt><trkpt lat="42.21378102304974" lon="12.463768119391979"><ele>232.0</ele><time>2026-04-30T17:19:24Z</time></trkpt><trkpt lat="42.21380018726761" lon="12.463948216600206"><ele>232.0</ele><time>2026-04-30T17:19:25Z</time></trkpt><trkpt lat="42.2138578118308" lon="12.464136391378448"><ele>233.33333333333331</ele><time>2026-04-30T17:19:26Z</time></trkpt><trkpt lat="42.21394122561703" lon="12.464287814537725"><ele>234.66666666666669</ele><time>2026-04-30T17:19:27Z</time></trkpt><trkpt lat="42.214042917083496" lon="12.46443451944126"><ele>236.0</ele><time>2026-04-30T17:19:28Z</time></trkpt><trkpt lat="42.2141787166433" lon="12.464588729921031"><ele>241.33333333333334</ele><time>2026-04-30T17:19:29Z</time></trkpt><trkpt lat="42.2143028420912" lon="12.464750007991062"><ele>246.66666666666669</ele><time>2026-04-30T17:19:30Z</time></trkpt><trkpt lat="42.21442468796329" lon="12.464896802431197"><ele>252.0</ele><time>2026-04-30T17:19:31Z</time></trkpt><trkpt lat="42.21453390035181" lon="12.465061113569236"><ele>252.0</ele><time>2026-04-30T17:19:32Z</time></trkpt><trkpt lat="42.21462793646732" lon="12.465217876682653"><ele>252.0</ele><time>2026-04-30T17:19:33Z</time></trkpt><trkpt lat="42.21470227925817" lon="12.465381610689052"><ele>252.0</ele><time>2026-04-30T17:19:34Z</time></trkpt><trkpt lat="42.21476641010512" lon="12.465563754473274"><ele>252.0</ele><time>2026-04-30T17:19:35Z</time></trkpt><trkpt lat="42.21480253118736" lon="12.465725730623817"><ele>252.5</ele><time>2026-04-30T17:19:36Z</time></trkpt><trkpt lat="42.214814465745164" lon="12.465879903491198"><ele>253.0</ele><time>2026-04-30T17:19:37Z</time></trkpt><trkpt lat="42.21479900243096" lon="12.466059355215577"><ele>253.5</ele><time>2026-04-30T17:19:38Z</time></trkpt><trkpt lat="42.21475774216148" lon="12.46624011931199"><ele>254.0</ele><time>2026-04-30T17:19:39Z</time></trkpt><trkpt lat="42.214699228462244" lon="12.46641174986585"><ele>257.5</ele><time>2026-04-30T17:19:40Z</time></trkpt><trkpt lat="42.214633422180746" lon="12.466584682225168"><ele>261.0</ele><time>2026-04-30T17:19:41Z</time></trkpt><trkpt lat="42.214564457152385" lon="12.466751049311803"><ele>264.5</ele><time>2026-04-30T17:19:42Z</time></trkpt><trkpt lat="42.21449076961755" lon="12.466921475923339"><ele>268.0</ele><time>2026-04-30T17:19:43Z</time></trkpt><trkpt lat="42.21441063989675" lon="12.467103715007536"><ele>270.0</ele><time>2026-04-30T17:19:44Z</time></trkpt><trkpt lat="42.21434241445332" lon="12.467297820249959"><ele>272.0</ele><time>2026-04-30T17:19:45Z</time></trkpt><trkpt lat="42.2142629136364" lon="12.467466429474907"><ele>274.0</ele><time>2026-04-30T17:19:46Z</time></trkpt><trkpt lat="42.214169607926074" lon="12.467655883854512"><ele>274.0</ele><time>2026-04-30T17:19:47Z</time></trkpt><trkpt lat="42.2141152596395" lon="12.467826914208308"><ele>274.0</ele><time>2026-04-30T17:19:48Z</time></trkpt><trkpt lat="42.21408872020845" lon="12.467999158819401"><ele>274.0</ele><time>2026-04-30T17:19:49Z</time></trkpt><trkpt lat="42.21413800840045" lon="12.468145584447775"><ele>274.0</ele><time>2026-04-30T17:19:50Z</time></trkpt><trkpt lat="42.214179850577935" lon="12.468283537690125"><ele>273.75</ele><time>2026-04-30T17:19:51Z</time></trkpt><trkpt lat="42.2142377176837" lon="12.468459800794822"><ele>273.5</ele><time>2026-04-30T17:19:52Z</time></trkpt><trkpt lat="42.21429734737725" lon="12.468633526180279"><ele>273.25</ele><time>2026-04-30T17:19:53Z</time></trkpt><trkpt lat="42.214343483976876" lon="12.46882006456928"><ele>273.0</ele><time>2026-04-30T17:19:54Z</time></trkpt><trkpt lat="42.21436282164652" lon="12.469037173364395"><ele>271.6666666666667</ele><time>2026-04-30T17:19:55Z</time></trkpt><trkpt lat="42.214334492571666" lon="12.469266761978574"><ele>270.33333333333337</ele><time>2026-04-30T17:19:56Z</time></trkpt><trkpt lat="42.21430666403349" lon="12.469475176815033"><ele>269.0</ele><time>2026-04-30T17:19:57Z</time></trkpt><trkpt lat="42.21423790960247" lon="12.469660951282771"><ele>270.75</ele><time>2026-04-30T17:19:58Z</time></trkpt><trkpt lat="42.214161736109155" lon="12.469814672792927"><ele>272.5</ele><time>2026-04-30T17:19:59Z</time></trkpt><trkpt lat="42.21406602743032" lon="12.469950930791523"><ele>274.25</ele><time>2026-04-30T17:20:00Z</time></trkpt><trkpt lat="42.213951099561505" lon="12.470057811712113"><ele>276.0</ele><time>2026-04-30T17:20:01Z</time></trkpt><trkpt lat="42.213815591904904" lon="12.470116016186894"><ele>276.0</ele><time>2026-04-30T17:20:02Z</time></trkpt><trkpt lat="42.21368190779105" lon="12.470177799138385"><ele>276.0</ele><time>2026-04-30T17:20:03Z</time></trkpt><trkpt lat="42.2135432131944" lon="12.47022032917591"><ele>276.0</ele><time>2026-04-30T17:20:04Z</time></trkpt><trkpt lat="42.21340166790944" lon="12.470228786360446"><ele>276.0</ele><time>2026-04-30T17:20:05Z</time></trkpt><trkpt lat="42.21325507573934" lon="12.470223806013847"><ele>277.6666666666667</ele><time>2026-04-30T17:20:06Z</time></trkpt><trkpt lat="42.21310430813805" lon="12.470215730175669"><ele>279.33333333333337</ele><time>2026-04-30T17:20:07Z</time></trkpt><trkpt lat="42.212952394764734" lon="12.470206328937602"><ele>281.0</ele><time>2026-04-30T17:20:07.999Z</time></trkpt><trkpt lat="42.21280090025079" lon="12.470196700415732"><ele>281.0</ele><time>2026-04-30T17:20:08.999Z</time></trkpt><trkpt lat="42.212650652786046" lon="12.470187170688416"><ele>281.0</ele><time>2026-04-30T17:20:09.999Z</time></trkpt><trkpt lat="42.212502541528565" lon="12.47019569838018"><ele>281.0</ele><time>2026-04-30T17:20:10.999Z</time></trkpt><trkpt lat="42.21236591270379" lon="12.470225975017641"><ele>281.0</ele><time>2026-04-30T17:20:11.999Z</time></trkpt><trkpt lat="42.21224193924553" lon="12.4702779924815"><ele>282.75</ele><time>2026-04-30T17:20:12.999Z</time></trkpt><trkpt lat="42.2121391105915" lon="12.470364975991014"><ele>284.5</ele><time>2026-04-30T17:20:13.999Z</time></trkpt><trkpt lat="42.212056177856034" lon="12.470475722533712"><ele>286.25</ele><time>2026-04-30T17:20:14.999Z</time></trkpt><trkpt lat="42.211979696170104" lon="12.470593091864782"><ele>288.0</ele><time>2026-04-30T17:20:15.999Z</time></trkpt><trkpt lat="42.21187848711337" lon="12.470686636522968"><ele>288.0</ele><time>2026-04-30T17:20:16.999Z</time></trkpt><trkpt lat="42.21176278657807" lon="12.470727489815799"><ele>288.0</ele><time>2026-04-30T17:20:17.999Z</time></trkpt><trkpt lat="42.211646667989434" lon="12.470745832777503"><ele>288.0</ele><time>2026-04-30T17:20:18.999Z</time></trkpt><trkpt lat="42.211545086476946" lon="12.470709895520065"><ele>288.0</ele><time>2026-04-30T17:20:19.999Z</time></trkpt><trkpt lat="42.21145512884086" lon="12.470630608937881"><ele>288.0</ele><time>2026-04-30T17:20:20.999Z</time></trkpt><trkpt lat="42.21136439909411" lon="12.47053221126581"><ele>283.0</ele><time>2026-04-30T17:20:21.999Z</time></trkpt><trkpt lat="42.21125460943478" lon="12.470432899275531"><ele>278.0</ele><time>2026-04-30T17:20:22.999Z</time></trkpt><trkpt lat="42.21111447604986" lon="12.470384672246334"><ele>273.0</ele><time>2026-04-30T17:20:23.999Z</time></trkpt><trkpt lat="42.21099038935372" lon="12.470397309601962"><ele>268.0</ele><time>2026-04-30T17:20:24.999Z</time></trkpt><trkpt lat="42.21087607592963" lon="12.470439891679431"><ele>273.3333333333333</ele><time>2026-04-30T17:20:25.998Z</time></trkpt><trkpt lat="42.21074307011291" lon="12.470497190914617"><ele>278.6666666666667</ele><time>2026-04-30T17:20:26.998Z</time></trkpt><trkpt lat="42.21059809746859" lon="12.470570249925785"><ele>284.0</ele><time>2026-04-30T17:20:27.998Z</time></trkpt><trkpt lat="42.21044380299016" lon="12.470632869524547"><ele>284.0</ele><time>2026-04-30T17:20:28.998Z</time></trkpt><trkpt lat="42.21029350251922" lon="12.47068690306753"><ele>284.0</ele><time>2026-04-30T17:20:29.998Z</time></trkpt><trkpt lat="42.210137445521966" lon="12.47076440144829"><ele>284.0</ele><time>2026-04-30T17:20:30.998Z</time></trkpt><trkpt lat="42.209996468445794" lon="12.470829184322174"><ele>284.0</ele><time>2026-04-30T17:20:31.998Z</time></trkpt><trkpt lat="42.20986982313538" lon="12.47088764412202"><ele>284.0</ele><time>2026-04-30T17:20:32.998Z</time></trkpt><trkpt lat="42.20975420166598" lon="12.470951761045248"><ele>284.0</ele><time>2026-04-30T17:20:33.998Z</time></trkpt><trkpt lat="42.20964617227551" lon="12.471030306393022"><ele>284.0</ele><time>2026-04-30T17:20:34.998Z</time></trkpt><trkpt lat="42.209543604550035" lon="12.471126117762164"><ele>284.25</ele><time>2026-04-30T17:20:35.998Z</time></trkpt><trkpt lat="42.20944548625201" lon="12.471236348916564"><ele>284.5</ele><time>2026-04-30T17:20:36.998Z</time></trkpt><trkpt lat="42.20936037935068" lon="12.471341411655883"><ele>284.75</ele><time>2026-04-30T17:20:37.998Z</time></trkpt><trkpt lat="42.20928357057987" lon="12.47143880382328"><ele>285.0</ele><time>2026-04-30T17:20:38.998Z</time></trkpt><trkpt lat="42.20923851287488" lon="12.471561544543857"><ele>283.5</ele><time>2026-04-30T17:20:39.998Z</time></trkpt><trkpt lat="42.209214281314026" lon="12.471666991776814"><ele>282.0</ele><time>2026-04-30T17:20:40.998Z</time></trkpt><trkpt lat="42.20922862919254" lon="12.471866234915167"><ele>280.5</ele><time>2026-04-30T17:20:42.998Z</time></trkpt><trkpt lat="42.20925521957155" lon="12.472020670355649"><ele>279.0</ele><time>2026-04-30T17:20:43.998Z</time></trkpt><trkpt lat="42.209288091886236" lon="12.472188023425371"><ele>278.25</ele><time>2026-04-30T17:20:44.998Z</time></trkpt><trkpt lat="42.20932059726224" lon="12.472353443033239"><ele>277.5</ele><time>2026-04-30T17:20:45.998Z</time></trkpt><trkpt lat="42.20935268416982" lon="12.472515095084054"><ele>276.75</ele><time>2026-04-30T17:20:46.998Z</time></trkpt><trkpt lat="42.20937466948409" lon="12.472702670876947"><ele>276.0</ele><time>2026-04-30T17:20:47.998Z</time></trkpt><trkpt lat="42.209410143095646" lon="12.472873055866865"><ele>275.5</ele><time>2026-04-30T17:20:48.998Z</time></trkpt><trkpt lat="42.20945030204353" lon="12.473040944283062"><ele>275.0</ele><time>2026-04-30T17:20:49.998Z</time></trkpt><trkpt lat="42.20949559462504" lon="12.473202800663882"><ele>274.5</ele><time>2026-04-30T17:20:50.998Z</time></trkpt><trkpt lat="42.20954170265007" lon="12.473359464432066"><ele>274.0</ele><time>2026-04-30T17:20:51.998Z</time></trkpt><trkpt lat="42.20959785561621" lon="12.473521297973157"><ele>274.0</ele><time>2026-04-30T17:20:52.998Z</time></trkpt><trkpt lat="42.20967164741093" lon="12.473668685284247"><ele>274.0</ele><time>2026-04-30T17:20:53.998Z</time></trkpt><trkpt lat="42.20976014946085" lon="12.473821819258438"><ele>274.0</ele><time>2026-04-30T17:20:55Z</time></trkpt><trkpt lat="42.20984907157104" lon="12.473974285568456"><ele>274.0</ele><time>2026-04-30T17:20:56Z</time></trkpt><trkpt lat="42.20994066952756" lon="12.474140635240856"><ele>275.3333333333333</ele><time>2026-04-30T17:20:57Z</time></trkpt><trkpt lat="42.21003275083463" lon="12.474312429392418"><ele>276.6666666666667</ele><time>2026-04-30T17:20:58Z</time></trkpt><trkpt lat="42.21012568196043" lon="12.474488319978974"><ele>278.0</ele><time>2026-04-30T17:20:59Z</time></trkpt><trkpt lat="42.210222785722706" lon="12.474659845990507"><ele>281.5</ele><time>2026-04-30T17:21:00Z</time></trkpt><trkpt lat="42.210315001200044" lon="12.474826442808768"><ele>285.0</ele><time>2026-04-30T17:21:01Z</time></trkpt><trkpt lat="42.210404979731244" lon="12.474977471748502"><ele>288.5</ele><time>2026-04-30T17:21:02Z</time></trkpt><trkpt lat="42.210481717911094" lon="12.47513020548655"><ele>292.0</ele><time>2026-04-30T17:21:03Z</time></trkpt><trkpt lat="42.21054737585167" lon="12.475297492472373"><ele>292.0</ele><time>2026-04-30T17:21:04Z</time></trkpt><trkpt lat="42.21060190924135" lon="12.475469636429711"><ele>292.0</ele><time>2026-04-30T17:21:05Z</time></trkpt><trkpt lat="42.210641863024975" lon="12.475646910861593"><ele>292.0</ele><time>2026-04-30T17:21:06Z</time></trkpt><trkpt lat="42.21067469183172" lon="12.475819713306601"><ele>292.0</ele><time>2026-04-30T17:21:07Z</time></trkpt><trkpt lat="42.210713230989086" lon="12.475980727669453"><ele>290.2</ele><time>2026-04-30T17:21:08Z</time></trkpt><trkpt lat="42.21076588481616" lon="12.476120724420626"><ele>288.4</ele><time>2026-04-30T17:21:09Z</time></trkpt><trkpt lat="42.21082779137366" lon="12.47624446361116"><ele>286.6</ele><time>2026-04-30T17:21:10Z</time></trkpt><trkpt lat="42.21090483116044" lon="12.47636037982659"><ele>284.8</ele><time>2026-04-30T17:21:11Z</time></trkpt><trkpt lat="42.21096080330861" lon="12.476476562038114"><ele>283.0</ele><time>2026-04-30T17:21:11.999Z</time></trkpt><trkpt lat="42.211005952622926" lon="12.476583916755043"><ele>282.6</ele><time>2026-04-30T17:21:12.999Z</time></trkpt><trkpt lat="42.21102774184476" lon="12.476702238584371"><ele>282.20000000000005</ele><time>2026-04-30T17:21:13.999Z</time></trkpt><trkpt lat="42.21102893307067" lon="12.476813572326986"><ele>281.8</ele><time>2026-04-30T17:21:14.999Z</time></trkpt><trkpt lat="42.21100835958994" lon="12.476911010697389"><ele>281.40000000000003</ele><time>2026-04-30T17:21:15.999Z</time></trkpt><trkpt lat="42.21091134912898" lon="12.4770110815119"><ele>281.0</ele><time>2026-04-30T17:21:17.999Z</time></trkpt><trkpt lat="42.210833049073884" lon="12.477047113705055"><ele>281.0</ele><time>2026-04-30T17:21:18.999Z</time></trkpt><trkpt lat="42.21073960474186" lon="12.47704449501192"><ele>281.0</ele><time>2026-04-30T17:21:19.999Z</time></trkpt><trkpt lat="42.210654620519236" lon="12.477071759347712"><ele>281.0</ele><time>2026-04-30T17:21:20.999Z</time></trkpt><trkpt lat="42.21057323355676" lon="12.477077086053395"><ele>281.0</ele><time>2026-04-30T17:21:21.999Z</time></trkpt><trkpt lat="42.210506658699316" lon="12.477105688063222"><ele>281.0</ele><time>2026-04-30T17:21:22.999Z</time></trkpt><trkpt lat="42.210404304001436" lon="12.477219730887015"><ele>279.8571428571429</ele><time>2026-04-30T17:21:24.999Z</time></trkpt><trkpt lat="42.21036804665416" lon="12.477299780417361"><ele>278.7142857142857</ele><time>2026-04-30T17:21:25.999Z</time></trkpt><trkpt lat="42.21034322356317" lon="12.477396474750476"><ele>277.57142857142856</ele><time>2026-04-30T17:21:26.999Z</time></trkpt><trkpt lat="42.21033083601919" lon="12.47748656463351"><ele>276.42857142857144</ele><time>2026-04-30T17:21:27.999Z</time></trkpt><trkpt lat="42.21031144748305" lon="12.477585124675604"><ele>275.2857142857143</ele><time>2026-04-30T17:21:28.999Z</time></trkpt><trkpt lat="42.210292994487816" lon="12.4776799595086"><ele>274.14285714285717</ele><time>2026-04-30T17:21:29.999Z</time></trkpt><trkpt lat="42.21027669056982" lon="12.477779865900573"><ele>273.0</ele><time>2026-04-30T17:21:30.999Z</time></trkpt><trkpt lat="42.2102634164147" lon="12.477865269632067"><ele>272.0</ele><time>2026-04-30T17:21:31.999Z</time></trkpt><trkpt lat="42.21023460253715" lon="12.478024785781106"><ele>271.0</ele><time>2026-04-30T17:21:33.999Z</time></trkpt><trkpt lat="42.210228230866576" lon="12.478161532157111"><ele>270.0</ele><time>2026-04-30T17:21:35.999Z</time></trkpt><trkpt lat="42.21022621364939" lon="12.478278621255338"><ele>269.0</ele><time>2026-04-30T17:21:37.999Z</time></trkpt><trkpt lat="42.21021441143393" lon="12.478406911101501"><ele>268.0</ele><time>2026-04-30T17:21:39.999Z</time></trkpt><trkpt lat="42.21020405482021" lon="12.478556062625126"><ele>268.0</ele><time>2026-04-30T17:21:41.999Z</time></trkpt><trkpt lat="42.21026408474377" lon="12.478699686296103"><ele>268.0</ele><time>2026-04-30T17:21:43.999Z</time></trkpt><trkpt lat="42.21031870650776" lon="12.478758513861054"><ele>268.0</ele><time>2026-04-30T17:21:44.999Z</time></trkpt><trkpt lat="42.210370209831744" lon="12.478815160762412"><ele>268.0</ele><time>2026-04-30T17:21:45.999Z</time></trkpt><trkpt lat="42.210437667174794" lon="12.478926578757104"><ele>268.0</ele><time>2026-04-30T17:21:47.999Z</time></trkpt><trkpt lat="42.21051175241416" lon="12.479015679452589"><ele>266.4</ele><time>2026-04-30T17:21:49.999Z</time></trkpt><trkpt lat="42.21055688774365" lon="12.479141744510375"><ele>264.8</ele><time>2026-04-30T17:21:51.999Z</time></trkpt><trkpt lat="42.21057022719429" lon="12.47928897807861"><ele>263.2</ele><time>2026-04-30T17:21:53.999Z</time></trkpt><trkpt lat="42.21053132589762" lon="12.479416401760668"><ele>261.6</ele><time>2026-04-30T17:21:55.999Z</time></trkpt><trkpt lat="42.21047398735835" lon="12.479501923777743"><ele>260.0</ele><time>2026-04-30T17:21:57.999Z</time></trkpt><trkpt lat="42.210431536322744" lon="12.4795749974589"><ele>259.1666666666667</ele><time>2026-04-30T17:22:00.999Z</time></trkpt><trkpt lat="42.21039245592219" lon="12.479642269320786"><ele>258.33333333333337</ele><time>2026-04-30T17:22:02.999Z</time></trkpt><trkpt lat="42.21033501778629" lon="12.47973167875859"><ele>257.5</ele><time>2026-04-30T17:22:05.999Z</time></trkpt><trkpt lat="42.210298822262814" lon="12.47980141382419"><ele>256.6666666666667</ele><time>2026-04-30T17:22:08.999Z</time></trkpt><trkpt lat="42.21022938158859" lon="12.479867818641898"><ele>255.83333333333334</ele><time>2026-04-30T17:22:11.998Z</time></trkpt><trkpt lat="42.21018797211881" lon="12.479948229058984"><ele>255.0</ele><time>2026-04-30T17:22:13.998Z</time></trkpt><trkpt lat="42.21012049299443" lon="12.480064092646748"><ele>255.0</ele><time>2026-04-30T17:22:15.998Z</time></trkpt><trkpt lat="42.21003757254557" lon="12.480205524612739"><ele>255.0</ele><time>2026-04-30T17:22:17.998Z</time></trkpt><trkpt lat="42.20999671424827" lon="12.480277227541759"><ele>255.0</ele><time>2026-04-30T17:22:18.998Z</time></trkpt><trkpt lat="42.20995482145534" lon="12.480350351320189"><ele>255.0</ele><time>2026-04-30T17:22:19.998Z</time></trkpt><trkpt lat="42.20988577745315" lon="12.480470868725288"><ele>255.0</ele><time>2026-04-30T17:22:21.998Z</time></trkpt><trkpt lat="42.20987530687141" lon="12.480557598796969"><ele>255.0</ele><time>2026-04-30T17:22:23.998Z</time></trkpt><trkpt lat="42.20995844291688" lon="12.480595049351814"><ele>254.66666666666666</ele><time>2026-04-30T17:22:24.998Z</time></trkpt><trkpt lat="42.21002736748807" lon="12.480696814159105"><ele>254.33333333333331</ele><time>2026-04-30T17:22:25.998Z</time></trkpt><trkpt lat="42.21008381582923" lon="12.48076400101053"><ele>254.0</ele><time>2026-04-30T17:22:26.998Z</time></trkpt><trkpt lat="42.2101427001633" lon="12.480831844548502"><ele>253.66666666666666</ele><time>2026-04-30T17:22:27.998Z</time></trkpt><trkpt lat="42.21019700130602" lon="12.480888353776141"><ele>253.33333333333331</ele><time>2026-04-30T17:22:28.998Z</time></trkpt><trkpt lat="42.21024987568501" lon="12.480936035267002"><ele>253.0</ele><time>2026-04-30T17:22:29.998Z</time></trkpt><trkpt lat="42.21030804925781" lon="12.480985372932338"><ele>253.0</ele><time>2026-04-30T17:22:30.998Z</time></trkpt><trkpt lat="42.21041904457168" lon="12.48104053927403"><ele>253.0</ele><time>2026-04-30T17:22:39.998Z</time></trkpt><trkpt lat="42.21056899726569" lon="12.481059381359255"><ele>253.0</ele><time>2026-04-30T17:22:43.998Z</time></trkpt><trkpt lat="42.21074623553354" lon="12.481052263994071"><ele>253.0</ele><time>2026-04-30T17:23:12Z</time></trkpt><trkpt lat="42.21088082559682" lon="12.480983637797879"><ele>254.60000000000002</ele><time>2026-04-30T17:23:13Z</time></trkpt><trkpt lat="42.21099591963468" lon="12.480932457194113"><ele>256.20000000000005</ele><time>2026-04-30T17:23:14Z</time></trkpt><trkpt lat="42.21110583937102" lon="12.480879328788227"><ele>257.8</ele><time>2026-04-30T17:23:15Z</time></trkpt><trkpt lat="42.211203498415145" lon="12.48084872568452"><ele>259.40000000000003</ele><time>2026-04-30T17:23:16Z</time></trkpt><trkpt lat="42.211311395762394" lon="12.480828001062388"><ele>261.0</ele><time>2026-04-30T17:23:16.999Z</time></trkpt><trkpt lat="42.211441907842925" lon="12.48079245269931"><ele>261.0</ele><time>2026-04-30T17:23:17.999Z</time></trkpt><trkpt lat="42.21155805889312" lon="12.480756551400868"><ele>261.0</ele><time>2026-04-30T17:23:18.999Z</time></trkpt><trkpt lat="42.211751039364664" lon="12.48073508495101"><ele>261.0</ele><time>2026-04-30T17:23:20.999Z</time></trkpt><trkpt lat="42.211813537543" lon="12.480724402354411"><ele>261.0</ele><time>2026-04-30T17:23:21.999Z</time></trkpt><trkpt lat="42.21201135720003" lon="12.480690589331777"><ele>261.0</ele><time>2026-04-30T17:23:22.999Z</time></trkpt><trkpt lat="42.21221976929625" lon="12.480633317635956"><ele>261.0</ele><time>2026-04-30T17:23:23.999Z</time></trkpt><trkpt lat="42.21235156831763" lon="12.480597433462874"><ele>261.0</ele><time>2026-04-30T17:23:24.999Z</time></trkpt><trkpt lat="42.21249208737751" lon="12.480545834195546"><ele>263.6666666666667</ele><time>2026-04-30T17:23:25.999Z</time></trkpt><trkpt lat="42.21269407507511" lon="12.48042095377342"><ele>266.33333333333337</ele><time>2026-04-30T17:23:26.999Z</time></trkpt><trkpt lat="42.2128304841176" lon="12.480302242936167"><ele>269.0</ele><time>2026-04-30T17:23:27.999Z</time></trkpt><trkpt lat="42.21297570797247" lon="12.480175583637106"><ele>269.0</ele><time>2026-04-30T17:23:28.999Z</time></trkpt><trkpt lat="42.21310368591816" lon="12.480066244660074"><ele>269.0</ele><time>2026-04-30T17:23:29.999Z</time></trkpt><trkpt lat="42.21324006336687" lon="12.480021665811854"><ele>269.0</ele><time>2026-04-30T17:23:30.999Z</time></trkpt><trkpt lat="42.213380215395844" lon="12.479991923111411"><ele>269.0</ele><time>2026-04-30T17:23:31.999Z</time></trkpt><trkpt lat="42.213537868319236" lon="12.479996890977604"><ele>269.33333333333337</ele><time>2026-04-30T17:23:32.999Z</time></trkpt><trkpt lat="42.21369927757679" lon="12.479995990035574"><ele>269.6666666666667</ele><time>2026-04-30T17:23:33.999Z</time></trkpt><trkpt lat="42.21387692187211" lon="12.479988939674424"><ele>270.0</ele><time>2026-04-30T17:23:34.999Z</time></trkpt><trkpt lat="42.214049443430994" lon="12.47997623389345"><ele>270.0</ele><time>2026-04-30T17:23:35.999Z</time></trkpt><trkpt lat="42.21420689886325" lon="12.479976219903024"><ele>270.0</ele><time>2026-04-30T17:23:36.999Z</time></trkpt><trkpt lat="42.214352610480944" lon="12.480008293219754"><ele>270.0</ele><time>2026-04-30T17:23:37.999Z</time></trkpt><trkpt lat="42.214488870218325" lon="12.48008362598249"><ele>270.0</ele><time>2026-04-30T17:23:38.999Z</time></trkpt><trkpt lat="42.214654030213495" lon="12.480172835926174"><ele>270.0</ele><time>2026-04-30T17:23:39.999Z</time></trkpt><trkpt lat="42.214786299656076" lon="12.480283789119783"><ele>270.0</ele><time>2026-04-30T17:23:40.999Z</time></trkpt><trkpt lat="42.214906435732914" lon="12.48040892116182"><ele>269.5</ele><time>2026-04-30T17:23:41.999Z</time></trkpt><trkpt lat="42.214987520019335" lon="12.480551736461665"><ele>269.0</ele><time>2026-04-30T17:23:42.999Z</time></trkpt><trkpt lat="42.215075614573124" lon="12.480698683739316"><ele>268.5</ele><time>2026-04-30T17:23:43.999Z</time></trkpt><trkpt lat="42.21517552292897" lon="12.480842355494591"><ele>268.0</ele><time>2026-04-30T17:23:44.999Z</time></trkpt><trkpt lat="42.215200810165264" lon="12.480991890322663"><ele>268.0</ele><time>2026-04-30T17:23:45.999Z</time></trkpt><trkpt lat="42.215263204085026" lon="12.481100938283953"><ele>268.0</ele><time>2026-04-30T17:23:46.999Z</time></trkpt><trkpt lat="42.21534257726893" lon="12.481192270139623"><ele>268.0</ele><time>2026-04-30T17:23:47.999Z</time></trkpt><trkpt lat="42.21542271111627" lon="12.48126548343725"><ele>268.0</ele><time>2026-04-30T17:23:48.999Z</time></trkpt><trkpt lat="42.215507032619165" lon="12.481332599702512"><ele>268.0</ele><time>2026-04-30T17:23:49.999Z</time></trkpt><trkpt lat="42.21558855849236" lon="12.481389797873803"><ele>268.16666666666663</ele><time>2026-04-30T17:23:50.999Z</time></trkpt><trkpt lat="42.21566293916355" lon="12.48143113251323"><ele>268.3333333333333</ele><time>2026-04-30T17:23:51.999Z</time></trkpt><trkpt lat="42.2157302198704" lon="12.481463410912614"><ele>268.5</ele><time>2026-04-30T17:23:52.999Z</time></trkpt><trkpt lat="42.21579843591667" lon="12.48149499004191"><ele>268.6666666666667</ele><time>2026-04-30T17:23:53.999Z</time></trkpt><trkpt lat="42.215883628013685" lon="12.481520360727647"><ele>268.83333333333337</ele><time>2026-04-30T17:23:54.999Z</time></trkpt><trkpt lat="42.21598492939499" lon="12.481538148041162"><ele>269.0</ele><time>2026-04-30T17:23:55.999Z</time></trkpt><trkpt lat="42.21609565389003" lon="12.481567560081304"><ele>269.0</ele><time>2026-04-30T17:23:56.999Z</time></trkpt><trkpt lat="42.216216202770056" lon="12.481595472470145"><ele>269.0</ele><time>2026-04-30T17:23:57.999Z</time></trkpt><trkpt lat="42.21634353882674" lon="12.481634523507006"><ele>269.0</ele><time>2026-04-30T17:23:58.999Z</time></trkpt><trkpt lat="42.21647167294421" lon="12.481667660901737"><ele>269.0</ele><time>2026-04-30T17:23:59.999Z</time></trkpt><trkpt lat="42.216604491786114" lon="12.481704886658791"><ele>269.25</ele><time>2026-04-30T17:24:00.999Z</time></trkpt><trkpt lat="42.21674374103422" lon="12.481742980730994"><ele>269.5</ele><time>2026-04-30T17:24:01.999Z</time></trkpt><trkpt lat="42.21688850852383" lon="12.481779812378385"><ele>269.75</ele><time>2026-04-30T17:24:02.999Z</time></trkpt><trkpt lat="42.217035343503724" lon="12.481817120487234"><ele>270.0</ele><time>2026-04-30T17:24:03.999Z</time></trkpt><trkpt lat="42.21718598115138" lon="12.481855760468116"><ele>272.3333333333333</ele><time>2026-04-30T17:24:04.999Z</time></trkpt><trkpt lat="42.21734113220672" lon="12.48189605625695"><ele>274.66666666666663</ele><time>2026-04-30T17:24:05.999Z</time></trkpt><trkpt lat="42.21749854054429" lon="12.481938110490153"><ele>277.0</ele><time>2026-04-30T17:24:06.999Z</time></trkpt><trkpt lat="42.217659137442155" lon="12.481974385407907"><ele>277.0</ele><time>2026-04-30T17:24:07.999Z</time></trkpt><trkpt lat="42.21782236555723" lon="12.482000638769405"><ele>277.0</ele><time>2026-04-30T17:24:08.999Z</time></trkpt><trkpt lat="42.2179905884114" lon="12.48201098527077"><ele>277.0</ele><time>2026-04-30T17:24:09.999Z</time></trkpt><trkpt lat="42.218157039552935" lon="12.482009305453076"><ele>277.0</ele><time>2026-04-30T17:24:10.999Z</time></trkpt><trkpt lat="42.21832230136228" lon="12.48199377225055"><ele>277.0</ele><time>2026-04-30T17:24:11.999Z</time></trkpt><trkpt lat="42.21849067677875" lon="12.481971340638198"><ele>277.0</ele><time>2026-04-30T17:24:12.999Z</time></trkpt><trkpt lat="42.21866156581959" lon="12.481952134824704"><ele>277.0</ele><time>2026-04-30T17:24:13.999Z</time></trkpt><trkpt lat="42.218842737080266" lon="12.481937645623223"><ele>277.0</ele><time>2026-04-30T17:24:14.998Z</time></trkpt><trkpt lat="42.21902310419165" lon="12.481931350198508"><ele>277.0</ele><time>2026-04-30T17:24:15.998Z</time></trkpt><trkpt lat="42.21920449193882" lon="12.48193243351149"><ele>275.3333333333333</ele><time>2026-04-30T17:24:16.998Z</time></trkpt><trkpt lat="42.2193843881735" lon="12.481932788993204"><ele>273.6666666666667</ele><time>2026-04-30T17:24:17.998Z</time></trkpt><trkpt lat="42.21956187879761" lon="12.481940126908855"><ele>272.0</ele><time>2026-04-30T17:24:18.998Z</time></trkpt><trkpt lat="42.21972853494307" lon="12.481973031278077"><ele>271.33333333333337</ele><time>2026-04-30T17:24:19.998Z</time></trkpt><trkpt lat="42.219881789031774" lon="12.48202794028296"><ele>270.6666666666667</ele><time>2026-04-30T17:24:20.998Z</time></trkpt><trkpt lat="42.21999582322033" lon="12.482158147196381"><ele>270.0</ele><time>2026-04-30T17:24:21.998Z</time></trkpt><trkpt lat="42.220106240699344" lon="12.482313069541553"><ele>267.6666666666667</ele><time>2026-04-30T17:24:22.998Z</time></trkpt><trkpt lat="42.22019074320435" lon="12.482481135980745"><ele>265.33333333333337</ele><time>2026-04-30T17:24:23.998Z</time></trkpt><trkpt lat="42.22026766593067" lon="12.482687746632944"><ele>263.0</ele><time>2026-04-30T17:24:24.998Z</time></trkpt><trkpt lat="42.220334487038265" lon="12.482908465656926"><ele>262.0</ele><time>2026-04-30T17:24:25.998Z</time></trkpt><trkpt lat="42.22039930803461" lon="12.483139677945012"><ele>261.0</ele><time>2026-04-30T17:24:26.998Z</time></trkpt><trkpt lat="42.220467309199435" lon="12.483381380602662"><ele>260.0</ele><time>2026-04-30T17:24:27.998Z</time></trkpt><trkpt lat="42.22054503212104" lon="12.483624704315442"><ele>260.6666666666667</ele><time>2026-04-30T17:24:28.998Z</time></trkpt><trkpt lat="42.22062171726191" lon="12.483872330692881"><ele>261.3333333333333</ele><time>2026-04-30T17:24:29.998Z</time></trkpt><trkpt lat="42.22070158027902" lon="12.484110229688191"><ele>262.0</ele><time>2026-04-30T17:24:30.998Z</time></trkpt><trkpt lat="42.22078493368401" lon="12.484343332303814"><ele>262.0</ele><time>2026-04-30T17:24:31.998Z</time></trkpt><trkpt lat="42.22086356204984" lon="12.48457404056762"><ele>262.0</ele><time>2026-04-30T17:24:32.998Z</time></trkpt><trkpt lat="42.22095310928655" lon="12.484793917806902"><ele>262.0</ele><time>2026-04-30T17:24:33.998Z</time></trkpt><trkpt lat="42.22103586029915" lon="12.485017144039475"><ele>262.66666666666663</ele><time>2026-04-30T17:24:34.998Z</time></trkpt><trkpt lat="42.22111366921663" lon="12.48522851912769"><ele>263.3333333333333</ele><time>2026-04-30T17:24:35.998Z</time></trkpt><trkpt lat="42.22120718775263" lon="12.485449213971703"><ele>264.0</ele><time>2026-04-30T17:24:36.998Z</time></trkpt><trkpt lat="42.22132908327246" lon="12.48565810983663"><ele>264.0</ele><time>2026-04-30T17:24:37.998Z</time></trkpt><trkpt lat="42.221422066554155" lon="12.48587615915345"><ele>264.0</ele><time>2026-04-30T17:24:38.998Z</time></trkpt><trkpt lat="42.221509866703876" lon="12.486099356972051"><ele>264.0</ele><time>2026-04-30T17:24:39.998Z</time></trkpt><trkpt lat="42.2215998546931" lon="12.486324857908748"><ele>261.6666666666667</ele><time>2026-04-30T17:24:40.998Z</time></trkpt><trkpt lat="42.221690459560364" lon="12.48655132130946"><ele>259.33333333333337</ele><time>2026-04-30T17:24:41.998Z</time></trkpt><trkpt lat="42.22178406137012" lon="12.48677978608753"><ele>257.0</ele><time>2026-04-30T17:24:42.998Z</time></trkpt><trkpt lat="42.22188102825827" lon="12.487011627637774"><ele>256.6666666666667</ele><time>2026-04-30T17:24:43.998Z</time></trkpt><trkpt lat="42.22197758189203" lon="12.487238570847493"><ele>256.3333333333333</ele><time>2026-04-30T17:24:44.998Z</time></trkpt><trkpt lat="42.2220666805608" lon="12.487464058187983"><ele>256.0</ele><time>2026-04-30T17:24:45.998Z</time></trkpt><trkpt lat="42.22216199671761" lon="12.487677721983113"><ele>256.0</ele><time>2026-04-30T17:24:46.998Z</time></trkpt><trkpt lat="42.22226270835448" lon="12.487880632900126"><ele>256.0</ele><time>2026-04-30T17:24:47.998Z</time></trkpt><trkpt lat="42.222363085215406" lon="12.488068562985353"><ele>256.0</ele><time>2026-04-30T17:24:48.998Z</time></trkpt><trkpt lat="42.22246781885217" lon="12.48823287993296"><ele>257.0</ele><time>2026-04-30T17:24:49.998Z</time></trkpt><trkpt lat="42.22259355177279" lon="12.488369220425755"><ele>258.0</ele><time>2026-04-30T17:24:50.998Z</time></trkpt><trkpt lat="42.22273597923761" lon="12.488472951418938"><ele>259.0</ele><time>2026-04-30T17:24:51.998Z</time></trkpt><trkpt lat="42.22289641675279" lon="12.488542671518685"><ele>259.0</ele><time>2026-04-30T17:24:52.998Z</time></trkpt><trkpt lat="42.22306581513824" lon="12.488587505022457"><ele>259.0</ele><time>2026-04-30T17:24:53.998Z</time></trkpt><trkpt lat="42.223232364726925" lon="12.488633146995971"><ele>259.0</ele><time>2026-04-30T17:24:54.998Z</time></trkpt><trkpt lat="42.22340871296474" lon="12.488679358578288"><ele>259.0</ele><time>2026-04-30T17:24:55.998Z</time></trkpt><trkpt lat="42.223559552756704" lon="12.488743118682281"><ele>259.0</ele><time>2026-04-30T17:24:56.998Z</time></trkpt><trkpt lat="42.22370250994061" lon="12.488820491727292"><ele>259.0</ele><time>2026-04-30T17:24:57.998Z</time></trkpt><trkpt lat="42.22384211049124" lon="12.488902265401922"><ele>258.75</ele><time>2026-04-30T17:24:58.998Z</time></trkpt><trkpt lat="42.223977830190435" lon="12.488976093174093"><ele>258.5</ele><time>2026-04-30T17:24:59.998Z</time></trkpt><trkpt lat="42.224094183425144" lon="12.489061608643262"><ele>258.25</ele><time>2026-04-30T17:25:00.998Z</time></trkpt><trkpt lat="42.224190580676115" lon="12.489162347642031"><ele>258.0</ele><time>2026-04-30T17:25:01.998Z</time></trkpt><trkpt lat="42.2242692281517" lon="12.489274319961279"><ele>258.0</ele><time>2026-04-30T17:25:02.998Z</time></trkpt><trkpt lat="42.224330236374705" lon="12.48938829382683"><ele>258.0</ele><time>2026-04-30T17:25:03.998Z</time></trkpt><trkpt lat="42.22438528223484" lon="12.489510599459178"><ele>258.0</ele><time>2026-04-30T17:25:04.998Z</time></trkpt><trkpt lat="42.22443925954961" lon="12.48964548795571"><ele>258.0</ele><time>2026-04-30T17:25:05.998Z</time></trkpt><trkpt lat="42.2244951117679" lon="12.489788470128701"><ele>258.0</ele><time>2026-04-30T17:25:06.999Z</time></trkpt><trkpt lat="42.22454487276325" lon="12.489946211159722"><ele>259.25</ele><time>2026-04-30T17:25:07.999Z</time></trkpt><trkpt lat="42.224595696615" lon="12.490107250734951"><ele>260.5</ele><time>2026-04-30T17:25:08.999Z</time></trkpt><trkpt lat="42.224654636889056" lon="12.490274050691834"><ele>261.75</ele><time>2026-04-30T17:25:09.999Z</time></trkpt><trkpt lat="42.224714529358586" lon="12.490444626501155"><ele>263.0</ele><time>2026-04-30T17:25:10.999Z</time></trkpt><trkpt lat="42.22477225935547" lon="12.490618429624991"><ele>261.75</ele><time>2026-04-30T17:25:11.999Z</time></trkpt><trkpt lat="42.22482780423032" lon="12.4907899954781"><ele>260.5</ele><time>2026-04-30T17:25:12.999Z</time></trkpt><trkpt lat="42.224881737671815" lon="12.490954455610806"><ele>259.25</ele><time>2026-04-30T17:25:13.999Z</time></trkpt><trkpt lat="42.224937475490584" lon="12.491113537156341"><ele>258.0</ele><time>2026-04-30T17:25:14.999Z</time></trkpt><trkpt lat="42.224989197085456" lon="12.491253213120359"><ele>257.6</ele><time>2026-04-30T17:25:15.999Z</time></trkpt><trkpt lat="42.22503717934429" lon="12.491373062722088"><ele>257.20000000000005</ele><time>2026-04-30T17:25:16.999Z</time></trkpt><trkpt lat="42.225082573895214" lon="12.491496373894648"><ele>256.8</ele><time>2026-04-30T17:25:17.999Z</time></trkpt><trkpt lat="42.22514641620179" lon="12.491588717621772"><ele>256.40000000000003</ele><time>2026-04-30T17:25:18.999Z</time></trkpt><trkpt lat="42.22527176623465" lon="12.491677464567543"><ele>256.0</ele><time>2026-04-30T17:25:20.999Z</time></trkpt><trkpt lat="42.22533939826321" lon="12.491716599474067"><ele>255.99999999999997</ele><time>2026-04-30T17:25:21.999Z</time></trkpt><trkpt lat="42.225403880655875" lon="12.491741035230973"><ele>256.0</ele><time>2026-04-30T17:25:22.999Z</time></trkpt><trkpt lat="42.2255016914435" lon="12.491783171362838"><ele>256.0</ele><time>2026-04-30T17:25:24.999Z</time></trkpt><trkpt lat="42.22547964307849" lon="12.491886894775327"><ele>256.0</ele><time>2026-04-30T17:25:29.999Z</time></trkpt><trkpt lat="42.22551371493029" lon="12.49199089968908"><ele>255.99999999999997</ele><time>2026-04-30T17:25:30.999Z</time></trkpt><trkpt lat="42.225464784200184" lon="12.492053137743628"><ele>256.0</ele><time>2026-04-30T17:25:31.999Z</time></trkpt><trkpt lat="42.22541083832949" lon="12.492131276418643"><ele>254.8</ele><time>2026-04-30T17:25:32.999Z</time></trkpt><trkpt lat="42.2253409137653" lon="12.492206545240514"><ele>253.60000000000002</ele><time>2026-04-30T17:25:33.999Z</time></trkpt><trkpt lat="42.225260814910975" lon="12.492291815473296"><ele>252.4</ele><time>2026-04-30T17:25:34.999Z</time></trkpt><trkpt lat="42.22513804109517" lon="12.492301799657016"><ele>251.2</ele><time>2026-04-30T17:25:35.999Z</time></trkpt><trkpt lat="42.22504532583501" lon="12.49237064740662"><ele>250.0</ele><time>2026-04-30T17:25:36.999Z</time></trkpt><trkpt lat="42.224945982830405" lon="12.49244142469754"><ele>250.0</ele><time>2026-04-30T17:25:37.999Z</time></trkpt><trkpt lat="42.22484670276803" lon="12.492509909047529"><ele>250.0</ele><time>2026-04-30T17:25:38.999Z</time></trkpt><trkpt lat="42.22473992772499" lon="12.492585780010554"><ele>250.0</ele><time>2026-04-30T17:25:39.999Z</time></trkpt><trkpt lat="42.22464158717489" lon="12.49265921856896"><ele>250.0</ele><time>2026-04-30T17:25:40.999Z</time></trkpt><trkpt lat="42.224551651765566" lon="12.492754326061108"><ele>250.0</ele><time>2026-04-30T17:25:41.999Z</time></trkpt><trkpt lat="42.22448603145382" lon="12.492922694349588"><ele>250.0</ele><time>2026-04-30T17:25:42.999Z</time></trkpt><trkpt lat="42.22449277192889" lon="12.493153637674888"><ele>250.0</ele><time>2026-04-30T17:25:43.999Z</time></trkpt><trkpt lat="42.22451638140641" lon="12.49333324640929"><ele>250.0</ele><time>2026-04-30T17:25:44.999Z</time></trkpt><trkpt lat="42.224528782017444" lon="12.493515048526366"><ele>250.0</ele><time>2026-04-30T17:25:45.999Z</time></trkpt><trkpt lat="42.224521937424086" lon="12.493678604418523"><ele>250.0</ele><time>2026-04-30T17:25:46.999Z</time></trkpt><trkpt lat="42.22452564410485" lon="12.493834176824093"><ele>250.0</ele><time>2026-04-30T17:25:47.999Z</time></trkpt><trkpt lat="42.224512833816235" lon="12.49397633146909"><ele>250.0</ele><time>2026-04-30T17:25:48.999Z</time></trkpt><trkpt lat="42.22448478745345" lon="12.494117112181044"><ele>249.0</ele><time>2026-04-30T17:25:49.999Z</time></trkpt><trkpt lat="42.224436192243246" lon="12.494284078876802"><ele>248.0</ele><time>2026-04-30T17:25:50.999Z</time></trkpt><trkpt lat="42.224390929010625" lon="12.494444587742462"><ele>247.0</ele><time>2026-04-30T17:25:51.999Z</time></trkpt><trkpt lat="42.2243257566276" lon="12.4946125901362"><ele>246.0</ele><time>2026-04-30T17:25:52.999Z</time></trkpt><trkpt lat="42.2242471418104" lon="12.49479906158698"><ele>243.0</ele><time>2026-04-30T17:25:53.999Z</time></trkpt><trkpt lat="42.22416061466114" lon="12.49495012177305"><ele>240.0</ele><time>2026-04-30T17:25:54.999Z</time></trkpt><trkpt lat="42.22406658844187" lon="12.495167673096976"><ele>237.0</ele><time>2026-04-30T17:25:55.999Z</time></trkpt><trkpt lat="42.224004568582906" lon="12.495347775471387"><ele>235.75</ele><time>2026-04-30T17:25:56.999Z</time></trkpt><trkpt lat="42.223938487337534" lon="12.495529617699438"><ele>234.5</ele><time>2026-04-30T17:25:57.999Z</time></trkpt><trkpt lat="42.22387490448342" lon="12.495710054384382"><ele>233.25</ele><time>2026-04-30T17:25:58.999Z</time></trkpt><trkpt lat="42.223820419451286" lon="12.495857774820609"><ele>232.0</ele><time>2026-04-30T17:25:59.999Z</time></trkpt><trkpt lat="42.223790740807026" lon="12.496010281239714"><ele>232.0</ele><time>2026-04-30T17:26:00.999Z</time></trkpt><trkpt lat="42.22376717882438" lon="12.496207653793755"><ele>232.0</ele><time>2026-04-30T17:26:01.999Z</time></trkpt><trkpt lat="42.22376796482014" lon="12.496424918057384"><ele>232.0</ele><time>2026-04-30T17:26:02.999Z</time></trkpt><trkpt lat="42.22377243510441" lon="12.496662219556448"><ele>231.33333333333331</ele><time>2026-04-30T17:26:03.999Z</time></trkpt><trkpt lat="42.22379938213038" lon="12.49688684878291"><ele>230.66666666666669</ele><time>2026-04-30T17:26:04.999Z</time></trkpt><trkpt lat="42.22380564363634" lon="12.497104375073679"><ele>230.0</ele><time>2026-04-30T17:26:05.999Z</time></trkpt><trkpt lat="42.22379835217508" lon="12.497349549621514"><ele>229.33333333333334</ele><time>2026-04-30T17:26:06.999Z</time></trkpt><trkpt lat="42.22375701584377" lon="12.497598515189328"><ele>228.66666666666669</ele><time>2026-04-30T17:26:07.999Z</time></trkpt><trkpt lat="42.223722014277506" lon="12.49783891859038"><ele>228.0</ele><time>2026-04-30T17:26:08.999Z</time></trkpt><trkpt lat="42.223647943704" lon="12.498049493066457"><ele>226.66666666666669</ele><time>2026-04-30T17:26:09.999Z</time></trkpt><trkpt lat="42.22359302353521" lon="12.498275367782586"><ele>225.33333333333334</ele><time>2026-04-30T17:26:10.999Z</time></trkpt><trkpt lat="42.223525790442004" lon="12.498488975409733"><ele>224.0</ele><time>2026-04-30T17:26:11.999Z</time></trkpt><trkpt lat="42.22346684643461" lon="12.49868492415345"><ele>223.33333333333334</ele><time>2026-04-30T17:26:12.999Z</time></trkpt><trkpt lat="42.22340860270941" lon="12.498901621940483"><ele>222.66666666666669</ele><time>2026-04-30T17:26:13.999Z</time></trkpt><trkpt lat="42.22331567839059" lon="12.499089253164467"><ele>222.0</ele><time>2026-04-30T17:26:14.999Z</time></trkpt><trkpt lat="42.223230854042676" lon="12.499297914796461"><ele>222.0</ele><time>2026-04-30T17:26:15.999Z</time></trkpt><trkpt lat="42.223137370271964" lon="12.499526237697916"><ele>222.0</ele><time>2026-04-30T17:26:16.999Z</time></trkpt><trkpt lat="42.22302542481215" lon="12.499795631666629"><ele>222.0</ele><time>2026-04-30T17:26:17.999Z</time></trkpt><trkpt lat="42.222922727811735" lon="12.500039265654161"><ele>222.0</ele><time>2026-04-30T17:26:18.999Z</time></trkpt><trkpt lat="42.22281480498883" lon="12.500284324415908"><ele>222.0</ele><time>2026-04-30T17:26:19.999Z</time></trkpt><trkpt lat="42.22270656225867" lon="12.500531910842518"><ele>222.0</ele><time>2026-04-30T17:26:20.999Z</time></trkpt><trkpt lat="42.222603951592355" lon="12.500766067055602"><ele>221.66666666666669</ele><time>2026-04-30T17:26:21.999Z</time></trkpt><trkpt lat="42.22251134884693" lon="12.500973725783203"><ele>221.33333333333334</ele><time>2026-04-30T17:26:22.999Z</time></trkpt><trkpt lat="42.2224102466401" lon="12.50119597541165"><ele>221.0</ele><time>2026-04-30T17:26:23.998Z</time></trkpt><trkpt lat="42.22230362396737" lon="12.501426735083552"><ele>222.0</ele><time>2026-04-30T17:26:24.998Z</time></trkpt><trkpt lat="42.22220291598331" lon="12.501646699122604"><ele>223.0</ele><time>2026-04-30T17:26:25.998Z</time></trkpt><trkpt lat="42.222113133542244" lon="12.501850048151852"><ele>224.0</ele><time>2026-04-30T17:26:26.998Z</time></trkpt><trkpt lat="42.22206621794204" lon="12.502003320056598"><ele>225.25</ele><time>2026-04-30T17:26:27.998Z</time></trkpt><trkpt lat="42.221999417682305" lon="12.502184386317726"><ele>226.5</ele><time>2026-04-30T17:26:28.998Z</time></trkpt><trkpt lat="42.22198240233923" lon="12.502359048814762"><ele>227.75</ele><time>2026-04-30T17:26:29.998Z</time></trkpt><trkpt lat="42.221948350517884" lon="12.50256227999744"><ele>229.0</ele><time>2026-04-30T17:26:30.998Z</time></trkpt><trkpt lat="42.221951818358896" lon="12.50277163352477"><ele>229.33333333333331</ele><time>2026-04-30T17:26:31.998Z</time></trkpt><trkpt lat="42.22198092916764" lon="12.502972514107714"><ele>229.66666666666669</ele><time>2026-04-30T17:26:32.998Z</time></trkpt><trkpt lat="42.22202862765881" lon="12.50316864250698"><ele>230.0</ele><time>2026-04-30T17:26:33.998Z</time></trkpt><trkpt lat="42.22207654820087" lon="12.503367183450441"><ele>228.5</ele><time>2026-04-30T17:26:34.998Z</time></trkpt><trkpt lat="42.22217287013406" lon="12.503770994384363"><ele>227.0</ele><time>2026-04-30T17:26:36.998Z</time></trkpt><trkpt lat="42.22221791002869" lon="12.503975203965277"><ele>227.0</ele><time>2026-04-30T17:26:37.998Z</time></trkpt><trkpt lat="42.22226133943348" lon="12.50418769914687"><ele>227.0</ele><time>2026-04-30T17:26:38.998Z</time></trkpt><trkpt lat="42.222305666376464" lon="12.504404586656898"><ele>227.0</ele><time>2026-04-30T17:26:39.998Z</time></trkpt><trkpt lat="42.22235723602557" lon="12.504620358968506"><ele>225.66666666666669</ele><time>2026-04-30T17:26:40.998Z</time></trkpt><trkpt lat="42.222416720554534" lon="12.504833732985292"><ele>224.33333333333331</ele><time>2026-04-30T17:26:41.998Z</time></trkpt><trkpt lat="42.222478096915054" lon="12.505044848513391"><ele>223.0</ele><time>2026-04-30T17:26:42.998Z</time></trkpt><trkpt lat="42.22254612974324" lon="12.505254748221969"><ele>223.33333333333331</ele><time>2026-04-30T17:26:43.998Z</time></trkpt><trkpt lat="42.22261538969539" lon="12.505461462681055"><ele>223.66666666666669</ele><time>2026-04-30T17:26:44.998Z</time></trkpt><trkpt lat="42.22269602324815" lon="12.505662457232217"><ele>224.0</ele><time>2026-04-30T17:26:45.998Z</time></trkpt><trkpt lat="42.22278649460039" lon="12.505855419990766"><ele>224.0</ele><time>2026-04-30T17:26:46.998Z</time></trkpt><trkpt lat="42.22288599989651" lon="12.506036815836184"><ele>224.0</ele><time>2026-04-30T17:26:47.998Z</time></trkpt><trkpt lat="42.22299226611901" lon="12.506210202545379"><ele>224.0</ele><time>2026-04-30T17:26:48.998Z</time></trkpt><trkpt lat="42.223103715957336" lon="12.506369021847682"><ele>225.0</ele><time>2026-04-30T17:26:49.998Z</time></trkpt><trkpt lat="42.22321022969858" lon="12.506511286017721"><ele>226.0</ele><time>2026-04-30T17:26:50.998Z</time></trkpt><trkpt lat="42.22330819742013" lon="12.50663732199596"><ele>227.0</ele><time>2026-04-30T17:26:51.998Z</time></trkpt><trkpt lat="42.223398856930366" lon="12.506753645469626"><ele>228.0</ele><time>2026-04-30T17:26:52.998Z</time></trkpt><trkpt lat="42.223482475729014" lon="12.506859475554448"><ele>228.0</ele><time>2026-04-30T17:26:53.998Z</time></trkpt><trkpt lat="42.22356076260565" lon="12.506958557163301"><ele>228.0</ele><time>2026-04-30T17:26:54.998Z</time></trkpt><trkpt lat="42.223632135058466" lon="12.507049496867102"><ele>228.0</ele><time>2026-04-30T17:26:55.998Z</time></trkpt><trkpt lat="42.22369674141844" lon="12.507131903861039"><ele>228.0</ele><time>2026-04-30T17:26:56.998Z</time></trkpt><trkpt lat="42.223760239176876" lon="12.507217533685559"><ele>228.0</ele><time>2026-04-30T17:26:57.998Z</time></trkpt><trkpt lat="42.22381924312885" lon="12.507305436228755"><ele>229.2</ele><time>2026-04-30T17:26:58.998Z</time></trkpt><trkpt lat="42.22387330749905" lon="12.507401806831382"><ele>230.4</ele><time>2026-04-30T17:26:59.998Z</time></trkpt><trkpt lat="42.22392184018053" lon="12.507504987777908"><ele>231.59999999999997</ele><time>2026-04-30T17:27:00.998Z</time></trkpt><trkpt lat="42.22396439504785" lon="12.507618612221801"><ele>232.79999999999998</ele><time>2026-04-30T17:27:01.998Z</time></trkpt><trkpt lat="42.22399480944077" lon="12.50774399137823"><ele>234.0</ele><time>2026-04-30T17:27:02.998Z</time></trkpt><trkpt lat="42.22401466903625" lon="12.507881301200634"><ele>235.39999999999998</ele><time>2026-04-30T17:27:03.998Z</time></trkpt><trkpt lat="42.22402879650908" lon="12.508020704202927"><ele>236.79999999999998</ele><time>2026-04-30T17:27:04.998Z</time></trkpt><trkpt lat="42.22403817600887" lon="12.508162726484688"><ele>238.20000000000002</ele><time>2026-04-30T17:27:05.998Z</time></trkpt><trkpt lat="42.22404375043839" lon="12.508305743318044"><ele>239.60000000000002</ele><time>2026-04-30T17:27:06.998Z</time></trkpt><trkpt lat="42.22404626437434" lon="12.508450601577291"><ele>241.0</ele><time>2026-04-30T17:27:07.998Z</time></trkpt><trkpt lat="42.2240472870414" lon="12.50860216063399"><ele>241.75</ele><time>2026-04-30T17:27:08.998Z</time></trkpt><trkpt lat="42.224047911904584" lon="12.508753767127562"><ele>242.5</ele><time>2026-04-30T17:27:09.998Z</time></trkpt><trkpt lat="42.22404638621437" lon="12.508914422486924"><ele>243.25</ele><time>2026-04-30T17:27:10.998Z</time></trkpt><trkpt lat="42.224046145622346" lon="12.509082701878043"><ele>244.0</ele><time>2026-04-30T17:27:11.999Z</time></trkpt><trkpt lat="42.22407206811375" lon="12.509262130528185"><ele>244.0</ele><time>2026-04-30T17:27:12.999Z</time></trkpt><trkpt lat="42.224112796232426" lon="12.509440560334806"><ele>244.0</ele><time>2026-04-30T17:27:13.999Z</time></trkpt><trkpt lat="42.224167093511014" lon="12.509611194798985"><ele>244.0</ele><time>2026-04-30T17:27:14.999Z</time></trkpt><trkpt lat="42.22422586149895" lon="12.509775158741927"><ele>244.0</ele><time>2026-04-30T17:27:15.999Z</time></trkpt><trkpt lat="42.22428198670875" lon="12.509928567717104"><ele>244.39999999999998</ele><time>2026-04-30T17:27:16.999Z</time></trkpt><trkpt lat="42.22433294505399" lon="12.510072925866279"><ele>244.79999999999998</ele><time>2026-04-30T17:27:17.999Z</time></trkpt><trkpt lat="42.224377772905605" lon="12.510211665174864"><ele>245.20000000000002</ele><time>2026-04-30T17:27:18.999Z</time></trkpt><trkpt lat="42.22440997864125" lon="12.51034599089546"><ele>245.60000000000002</ele><time>2026-04-30T17:27:19.999Z</time></trkpt><trkpt lat="42.2244370113976" lon="12.51048196549289"><ele>246.0</ele><time>2026-04-30T17:27:20.999Z</time></trkpt><trkpt lat="42.224457650976646" lon="12.510618987345355"><ele>246.4</ele><time>2026-04-30T17:27:21.999Z</time></trkpt><trkpt lat="42.22447729156849" lon="12.510765146487351"><ele>246.8</ele><time>2026-04-30T17:27:22.999Z</time></trkpt><trkpt lat="42.22449593947974" lon="12.510903918779102"><ele>247.20000000000002</ele><time>2026-04-30T17:27:23.999Z</time></trkpt><trkpt lat="42.22451229392718" lon="12.511031993086295"><ele>247.60000000000002</ele><time>2026-04-30T17:27:24.999Z</time></trkpt><trkpt lat="42.22452573890556" lon="12.511153305530783"><ele>248.0</ele><time>2026-04-30T17:27:25.999Z</time></trkpt><trkpt lat="42.22453790701073" lon="12.511263097027996"><ele>248.50000000000003</ele><time>2026-04-30T17:27:26.999Z</time></trkpt><trkpt lat="42.22454918303397" lon="12.511364839299437"><ele>249.0</ele><time>2026-04-30T17:27:27.999Z</time></trkpt><trkpt lat="42.22456122216475" lon="12.511460103765433"><ele>249.5</ele><time>2026-04-30T17:27:28.999Z</time></trkpt><trkpt lat="42.22457289777418" lon="12.511548604184616"><ele>250.0</ele><time>2026-04-30T17:27:29.999Z</time></trkpt><trkpt lat="42.22458396689045" lon="12.51163250663157"><ele>250.50000000000003</ele><time>2026-04-30T17:27:30.999Z</time></trkpt><trkpt lat="42.22459717903885" lon="12.511717196742337"><ele>251.0</ele><time>2026-04-30T17:27:31.999Z</time></trkpt><trkpt lat="42.22463185569474" lon="12.511872804999006"><ele>251.00000000000003</ele><time>2026-04-30T17:27:33.999Z</time></trkpt><trkpt lat="42.224660971809215" lon="12.511960687987575"><ele>251.0</ele><time>2026-04-30T17:27:35.999Z</time></trkpt><trkpt lat="42.22467838488945" lon="12.51205842164352"><ele>251.0</ele><time>2026-04-30T17:27:37.999Z</time></trkpt><trkpt lat="42.224650588244415" lon="12.512138260310223"><ele>251.0</ele><time>2026-04-30T17:27:38.999Z</time></trkpt><trkpt lat="42.22467740280473" lon="12.512300138646708"><ele>251.00000000000003</ele><time>2026-04-30T17:27:40.999Z</time></trkpt><trkpt lat="42.224710272569524" lon="12.512375525586135"><ele>251.0</ele><time>2026-04-30T17:27:41.999Z</time></trkpt><trkpt lat="42.22468531305469" lon="12.51246844511467"><ele>251.16666666666669</ele><time>2026-04-30T17:27:42.999Z</time></trkpt><trkpt lat="42.22468869719061" lon="12.512564886111292"><ele>251.33333333333334</ele><time>2026-04-30T17:27:43.999Z</time></trkpt><trkpt lat="42.224695153236965" lon="12.512665094712569"><ele>251.5</ele><time>2026-04-30T17:27:44.999Z</time></trkpt><trkpt lat="42.224694525530985" lon="12.512782466651814"><ele>251.66666666666669</ele><time>2026-04-30T17:27:45.999Z</time></trkpt><trkpt lat="42.22469258224102" lon="12.512916762125874"><ele>251.83333333333334</ele><time>2026-04-30T17:27:46.999Z</time></trkpt><trkpt lat="42.22468922987556" lon="12.513062603615204"><ele>252.0</ele><time>2026-04-30T17:27:47.999Z</time></trkpt><trkpt lat="42.224722084503995" lon="12.51322087534119"><ele>250.75</ele><time>2026-04-30T17:27:48.999Z</time></trkpt><trkpt lat="42.22471799466608" lon="12.513385827583491"><ele>249.5</ele><time>2026-04-30T17:27:49.999Z</time></trkpt><trkpt lat="42.22471127026668" lon="12.513549227350799"><ele>248.25</ele><time>2026-04-30T17:27:50.999Z</time></trkpt><trkpt lat="42.22470710151277" lon="12.513718773875352"><ele>247.0</ele><time>2026-04-30T17:27:51.999Z</time></trkpt><trkpt lat="42.2246698675393" lon="12.513893630370621"><ele>244.5</ele><time>2026-04-30T17:27:52.999Z</time></trkpt><trkpt lat="42.22466754015408" lon="12.514074943858365"><ele>242.0</ele><time>2026-04-30T17:27:53.999Z</time></trkpt><trkpt lat="42.22466625676979" lon="12.51425994393696"><ele>239.5</ele><time>2026-04-30T17:27:54.999Z</time></trkpt><trkpt lat="42.224666562053265" lon="12.514449640315108"><ele>237.0</ele><time>2026-04-30T17:27:55.999Z</time></trkpt><trkpt lat="42.22467068756889" lon="12.51464720813823"><ele>235.66666666666669</ele><time>2026-04-30T17:27:56.999Z</time></trkpt><trkpt lat="42.224682728877255" lon="12.514848947271341"><ele>234.33333333333334</ele><time>2026-04-30T17:27:57.999Z</time></trkpt><trkpt lat="42.224709167670106" lon="12.515055728027457"><ele>233.0</ele><time>2026-04-30T17:27:58.999Z</time></trkpt><trkpt lat="42.224750094976976" lon="12.51525856295548"><ele>232.66666666666669</ele><time>2026-04-30T17:27:59.999Z</time></trkpt><trkpt lat="42.2248020036325" lon="12.515456669235785"><ele>232.33333333333331</ele><time>2026-04-30T17:28:00.999Z</time></trkpt><trkpt lat="42.22487485560384" lon="12.515651879812884"><ele>232.0</ele><time>2026-04-30T17:28:01.999Z</time></trkpt><trkpt lat="42.22495678395757" lon="12.515839065616218"><ele>231.66666666666666</ele><time>2026-04-30T17:28:02.999Z</time></trkpt><trkpt lat="42.22505008584613" lon="12.51601968807023"><ele>231.33333333333331</ele><time>2026-04-30T17:28:03.999Z</time></trkpt><trkpt lat="42.22515919400076" lon="12.51618919078694"><ele>231.0</ele><time>2026-04-30T17:28:04.999Z</time></trkpt><trkpt lat="42.22528501760459" lon="12.51633700815788"><ele>231.0</ele><time>2026-04-30T17:28:05.999Z</time></trkpt><trkpt lat="42.22541978915649" lon="12.516457960454108"><ele>231.0</ele><time>2026-04-30T17:28:06.999Z</time></trkpt><trkpt lat="42.225561907273786" lon="12.51654939995839"><ele>231.0</ele><time>2026-04-30T17:28:07.999Z</time></trkpt><trkpt lat="42.225713578490115" lon="12.51660045161938"><ele>234.0</ele><time>2026-04-30T17:28:08.999Z</time></trkpt><trkpt lat="42.225867244102716" lon="12.516593855846578"><ele>237.0</ele><time>2026-04-30T17:28:09.999Z</time></trkpt><trkpt lat="42.22601868863725" lon="12.516580588014056"><ele>240.0</ele><time>2026-04-30T17:28:10.999Z</time></trkpt><trkpt lat="42.22617143500116" lon="12.516538781710462"><ele>240.0</ele><time>2026-04-30T17:28:11.999Z</time></trkpt><trkpt lat="42.226328607848444" lon="12.516524318491035"><ele>240.0</ele><time>2026-04-30T17:28:12.999Z</time></trkpt><trkpt lat="42.22647827737956" lon="12.51648836197994"><ele>240.0</ele><time>2026-04-30T17:28:13.999Z</time></trkpt><trkpt lat="42.226623780052456" lon="12.516508309797823"><ele>240.75</ele><time>2026-04-30T17:28:14.999Z</time></trkpt><trkpt lat="42.22675343013207" lon="12.516590862339049"><ele>241.5</ele><time>2026-04-30T17:28:15.999Z</time></trkpt><trkpt lat="42.22687204059597" lon="12.516684457791543"><ele>242.25</ele><time>2026-04-30T17:28:16.999Z</time></trkpt><trkpt lat="42.22697373169588" lon="12.516801037035055"><ele>243.0</ele><time>2026-04-30T17:28:17.999Z</time></trkpt><trkpt lat="42.22705178417424" lon="12.516939307333237"><ele>241.25</ele><time>2026-04-30T17:28:18.999Z</time></trkpt><trkpt lat="42.22712470997216" lon="12.517094528535146"><ele>239.5</ele><time>2026-04-30T17:28:19.999Z</time></trkpt><trkpt lat="42.22717363135576" lon="12.517257519818008"><ele>237.75</ele><time>2026-04-30T17:28:20.999Z</time></trkpt><trkpt lat="42.22720125636331" lon="12.517427156720226"><ele>236.0</ele><time>2026-04-30T17:28:21.999Z</time></trkpt><trkpt lat="42.227204624142004" lon="12.51759699684535"><ele>236.0</ele><time>2026-04-30T17:28:22.999Z</time></trkpt><trkpt lat="42.22718950066991" lon="12.517758007216486"><ele>236.0</ele><time>2026-04-30T17:28:23.998Z</time></trkpt><trkpt lat="42.22716078322481" lon="12.517920884948442"><ele>236.0</ele><time>2026-04-30T17:28:24.998Z</time></trkpt><trkpt lat="42.227111975694235" lon="12.518080221197273"><ele>236.0</ele><time>2026-04-30T17:28:25.998Z</time></trkpt><trkpt lat="42.22705435780819" lon="12.5182472388052"><ele>238.0</ele><time>2026-04-30T17:28:26.998Z</time></trkpt><trkpt lat="42.22699688611925" lon="12.518413832610237"><ele>240.0</ele><time>2026-04-30T17:28:27.998Z</time></trkpt><trkpt lat="42.22693970076012" lon="12.518581753540522"><ele>242.0</ele><time>2026-04-30T17:28:28.998Z</time></trkpt><trkpt lat="42.22688261485189" lon="12.518752540011805"><ele>244.0</ele><time>2026-04-30T17:28:29.998Z</time></trkpt><trkpt lat="42.22682910498082" lon="12.518921066181642"><ele>246.25</ele><time>2026-04-30T17:28:30.998Z</time></trkpt><trkpt lat="42.22679039157916" lon="12.519101200066952"><ele>248.5</ele><time>2026-04-30T17:28:31.998Z</time></trkpt><trkpt lat="42.22676609918742" lon="12.519290221023184"><ele>250.75</ele><time>2026-04-30T17:28:32.998Z</time></trkpt><trkpt lat="42.22676523526212" lon="12.519476684893947"><ele>253.0</ele><time>2026-04-30T17:28:33.998Z</time></trkpt><trkpt lat="42.226789665753245" lon="12.51966164919447"><ele>253.25</ele><time>2026-04-30T17:28:34.998Z</time></trkpt><trkpt lat="42.22683526498887" lon="12.519832297356931"><ele>253.5</ele><time>2026-04-30T17:28:35.998Z</time></trkpt><trkpt lat="42.22688889322564" lon="12.519980752651843"><ele>253.75</ele><time>2026-04-30T17:28:36.998Z</time></trkpt><trkpt lat="42.226953295620795" lon="12.520121241239533"><ele>254.0</ele><time>2026-04-30T17:28:37.998Z</time></trkpt><trkpt lat="42.22702031244923" lon="12.520261930989944"><ele>254.75</ele><time>2026-04-30T17:28:38.998Z</time></trkpt><trkpt lat="42.227094929515594" lon="12.52040441173907"><ele>255.5</ele><time>2026-04-30T17:28:39.998Z</time></trkpt><trkpt lat="42.22718010937333" lon="12.520538191647125"><ele>256.25</ele><time>2026-04-30T17:28:40.998Z</time></trkpt><trkpt lat="42.22725507035765" lon="12.520670532009362"><ele>257.0</ele><time>2026-04-30T17:28:41.998Z</time></trkpt><trkpt lat="42.22731939101874" lon="12.52081135244856"><ele>257.0</ele><time>2026-04-30T17:28:42.998Z</time></trkpt><trkpt lat="42.22737358971801" lon="12.520955403311957"><ele>257.0</ele><time>2026-04-30T17:28:43.998Z</time></trkpt><trkpt lat="42.227412308855705" lon="12.521096675928362"><ele>257.0</ele><time>2026-04-30T17:28:44.998Z</time></trkpt><trkpt lat="42.22743069947481" lon="12.52123167999435"><ele>257.0</ele><time>2026-04-30T17:28:45.998Z</time></trkpt><trkpt lat="42.22743437415891" lon="12.521366551887358"><ele>257.0</ele><time>2026-04-30T17:28:46.998Z</time></trkpt><trkpt lat="42.227427698523556" lon="12.521500537543584"><ele>257.2</ele><time>2026-04-30T17:28:47.998Z</time></trkpt><trkpt lat="42.22741605006567" lon="12.521641897556538"><ele>257.4</ele><time>2026-04-30T17:28:48.998Z</time></trkpt><trkpt lat="42.227396680082656" lon="12.521784798996135"><ele>257.6</ele><time>2026-04-30T17:28:49.998Z</time></trkpt><trkpt lat="42.22737298121793" lon="12.521929564132545"><ele>257.8</ele><time>2026-04-30T17:28:50.998Z</time></trkpt><trkpt lat="42.22734901019417" lon="12.522070896648984"><ele>258.0</ele><time>2026-04-30T17:28:51.998Z</time></trkpt><trkpt lat="42.227324801038705" lon="12.52221363319855"><ele>256.6</ele><time>2026-04-30T17:28:52.998Z</time></trkpt><trkpt lat="42.22729321795637" lon="12.522347554582213"><ele>255.20000000000002</ele><time>2026-04-30T17:28:53.998Z</time></trkpt><trkpt lat="42.22725609211478" lon="12.522485099810961"><ele>253.8</ele><time>2026-04-30T17:28:54.998Z</time></trkpt><trkpt lat="42.227200562989" lon="12.522606658882815"><ele>252.4</ele><time>2026-04-30T17:28:55.998Z</time></trkpt><trkpt lat="42.22716374985327" lon="12.522752799093274"><ele>251.0</ele><time>2026-04-30T17:28:56.998Z</time></trkpt><trkpt lat="42.227093030222576" lon="12.522881227531329"><ele>252.0</ele><time>2026-04-30T17:28:57.998Z</time></trkpt><trkpt lat="42.2270218292777" lon="12.523007291244227"><ele>253.0</ele><time>2026-04-30T17:28:58.998Z</time></trkpt><trkpt lat="42.22695317777699" lon="12.523130735940374"><ele>254.0</ele><time>2026-04-30T17:28:59.998Z</time></trkpt><trkpt lat="42.22685329906791" lon="12.523220208035903"><ele>255.0</ele><time>2026-04-30T17:29:00.998Z</time></trkpt><trkpt lat="42.22678727104821" lon="12.523334949546172"><ele>255.0</ele><time>2026-04-30T17:29:01.998Z</time></trkpt><trkpt lat="42.22671413632584" lon="12.52344290571136"><ele>255.0</ele><time>2026-04-30T17:29:02.998Z</time></trkpt><trkpt lat="42.22663895554043" lon="12.52353512152907"><ele>255.0</ele><time>2026-04-30T17:29:03.998Z</time></trkpt><trkpt lat="42.22655662450182" lon="12.523615915111847"><ele>255.0</ele><time>2026-04-30T17:29:04.998Z</time></trkpt><trkpt lat="42.22646639085402" lon="12.52369272319338"><ele>255.0</ele><time>2026-04-30T17:29:05.998Z</time></trkpt><trkpt lat="42.2263735588866" lon="12.523756846673594"><ele>255.4</ele><time>2026-04-30T17:29:06.998Z</time></trkpt><trkpt lat="42.22629603150749" lon="12.523786151343442"><ele>255.8</ele><time>2026-04-30T17:29:07.998Z</time></trkpt><trkpt lat="42.22620696919165" lon="12.523807629863837"><ele>256.2</ele><time>2026-04-30T17:29:08.998Z</time></trkpt><trkpt lat="42.2261140266779" lon="12.523815967804406"><ele>256.6</ele><time>2026-04-30T17:29:09.998Z</time></trkpt><trkpt lat="42.225980482734805" lon="12.523807573993327"><ele>257.0</ele><time>2026-04-30T17:29:10.998Z</time></trkpt><trkpt lat="42.2258611600705" lon="12.523791535682316"><ele>257.0</ele><time>2026-04-30T17:29:11.998Z</time></trkpt><trkpt lat="42.225756106990545" lon="12.523774582370894"><ele>257.0</ele><time>2026-04-30T17:29:12.998Z</time></trkpt><trkpt lat="42.22563370239745" lon="12.523753436925677"><ele>257.0</ele><time>2026-04-30T17:29:13.998Z</time></trkpt><trkpt lat="42.225510805842234" lon="12.523730905840619"><ele>257.0</ele><time>2026-04-30T17:29:14.998Z</time></trkpt><trkpt lat="42.22538898103173" lon="12.523722059320418"><ele>255.75</ele><time>2026-04-30T17:29:15.998Z</time></trkpt><trkpt lat="42.22527067169012" lon="12.523687410518747"><ele>254.5</ele><time>2026-04-30T17:29:16.998Z</time></trkpt><trkpt lat="42.22513706896579" lon="12.523665318902962"><ele>253.25</ele><time>2026-04-30T17:29:17.999Z</time></trkpt><trkpt lat="42.22499694786793" lon="12.523636458041736"><ele>252.0</ele><time>2026-04-30T17:29:18.999Z</time></trkpt><trkpt lat="42.224851393739826" lon="12.52360824169128"><ele>251.0</ele><time>2026-04-30T17:29:19.999Z</time></trkpt><trkpt lat="42.22471253087983" lon="12.523575026754337"><ele>250.0</ele><time>2026-04-30T17:29:20.999Z</time></trkpt><trkpt lat="42.22458007271167" lon="12.523549101918393"><ele>249.0</ele><time>2026-04-30T17:29:21.999Z</time></trkpt><trkpt lat="42.224452375103404" lon="12.52351839451781"><ele>248.0</ele><time>2026-04-30T17:29:22.999Z</time></trkpt><trkpt lat="42.22432925055735" lon="12.523486072726149"><ele>248.0</ele><time>2026-04-30T17:29:23.999Z</time></trkpt><trkpt lat="42.22421561876589" lon="12.523465540604676"><ele>248.0</ele><time>2026-04-30T17:29:24.999Z</time></trkpt><trkpt lat="42.22409994722667" lon="12.523442989639314"><ele>248.0</ele><time>2026-04-30T17:29:25.999Z</time></trkpt><trkpt lat="42.223983805874155" lon="12.523410684824313"><ele>248.0</ele><time>2026-04-30T17:29:26.999Z</time></trkpt><trkpt lat="42.22386064352192" lon="12.523369496059088"><ele>247.5</ele><time>2026-04-30T17:29:27.999Z</time></trkpt><trkpt lat="42.22373983888409" lon="12.523326390549165"><ele>247.0</ele><time>2026-04-30T17:29:28.999Z</time></trkpt><trkpt lat="42.22361899704279" lon="12.523265417892032"><ele>246.5</ele><time>2026-04-30T17:29:29.999Z</time></trkpt><trkpt lat="42.22349188784401" lon="12.52319330735303"><ele>246.0</ele><time>2026-04-30T17:29:30.999Z</time></trkpt><trkpt lat="42.22336696045957" lon="12.523108069389172"><ele>246.0</ele><time>2026-04-30T17:29:31.999Z</time></trkpt><trkpt lat="42.22324686075873" lon="12.523010679878743"><ele>246.0</ele><time>2026-04-30T17:29:32.999Z</time></trkpt><trkpt lat="42.22311967520145" lon="12.522923037228939"><ele>246.0</ele><time>2026-04-30T17:29:33.999Z</time></trkpt><trkpt lat="42.22298988123179" lon="12.522841554057493"><ele>246.0</ele><time>2026-04-30T17:29:34.999Z</time></trkpt><trkpt lat="42.222864643479156" lon="12.522756772508215"><ele>246.25</ele><time>2026-04-30T17:29:35.999Z</time></trkpt><trkpt lat="42.22274926027903" lon="12.52267602367714"><ele>246.5</ele><time>2026-04-30T17:29:36.999Z</time></trkpt><trkpt lat="42.22263461829887" lon="12.522592082778893"><ele>246.75</ele><time>2026-04-30T17:29:37.999Z</time></trkpt><trkpt lat="42.22252216793525" lon="12.522510568244948"><ele>247.0</ele><time>2026-04-30T17:29:38.999Z</time></trkpt><trkpt lat="42.22240973331719" lon="12.52242116377599"><ele>246.0</ele><time>2026-04-30T17:29:39.999Z</time></trkpt><trkpt lat="42.2222967113645" lon="12.522330077547295"><ele>245.0</ele><time>2026-04-30T17:29:40.999Z</time></trkpt><trkpt lat="42.22218778849843" lon="12.522242152377176"><ele>244.0</ele><time>2026-04-30T17:29:41.999Z</time></trkpt><trkpt lat="42.22207778801243" lon="12.522158000468657"><ele>243.0</ele><time>2026-04-30T17:29:42.999Z</time></trkpt><trkpt lat="42.221971049382624" lon="12.522074285096545"><ele>244.75</ele><time>2026-04-30T17:29:43.999Z</time></trkpt><trkpt lat="42.22186664349239" lon="12.521995500177725"><ele>246.5</ele><time>2026-04-30T17:29:44.999Z</time></trkpt><trkpt lat="42.22176326991781" lon="12.521923679307905"><ele>248.25</ele><time>2026-04-30T17:29:45.999Z</time></trkpt><trkpt lat="42.22166027857817" lon="12.521868132391102"><ele>250.0</ele><time>2026-04-30T17:29:46.999Z</time></trkpt><trkpt lat="42.22155613618994" lon="12.521832795179224"><ele>251.4</ele><time>2026-04-30T17:29:47.999Z</time></trkpt><trkpt lat="42.221454347722016" lon="12.521817586048028"><ele>252.8</ele><time>2026-04-30T17:29:48.999Z</time></trkpt><trkpt lat="42.22135312906208" lon="12.521828111867682"><ele>254.2</ele><time>2026-04-30T17:29:49.999Z</time></trkpt><trkpt lat="42.22125287184596" lon="12.521860100132491"><ele>255.6</ele><time>2026-04-30T17:29:50.999Z</time></trkpt><trkpt lat="42.22115517666464" lon="12.521915994216968"><ele>257.0</ele><time>2026-04-30T17:29:51.999Z</time></trkpt><trkpt lat="42.22106500067693" lon="12.522001080936844"><ele>256.0</ele><time>2026-04-30T17:29:52.999Z</time></trkpt><trkpt lat="42.22098110870096" lon="12.522110986917179"><ele>255.0</ele><time>2026-04-30T17:29:53.999Z</time></trkpt><trkpt lat="42.220908667685094" lon="12.522221774616872"><ele>254.0</ele><time>2026-04-30T17:29:54.999Z</time></trkpt><trkpt lat="42.22083649128411" lon="12.522326800761416"><ele>253.0</ele><time>2026-04-30T17:29:55.999Z</time></trkpt><trkpt lat="42.220766508034465" lon="12.522427819571629"><ele>252.0</ele><time>2026-04-30T17:29:56.999Z</time></trkpt><trkpt lat="42.220697405251684" lon="12.522528467726245"><ele>251.8</ele><time>2026-04-30T17:29:57.999Z</time></trkpt><trkpt lat="42.220624126082974" lon="12.522637367632937"><ele>251.6</ele><time>2026-04-30T17:29:58.999Z</time></trkpt><trkpt lat="42.2205492310565" lon="12.52275383115853"><ele>251.40000000000003</ele><time>2026-04-30T17:29:59.999Z</time></trkpt><trkpt lat="42.22047067095324" lon="12.522867743773244"><ele>251.20000000000002</ele><time>2026-04-30T17:30:00.999Z</time></trkpt><trkpt lat="42.22040089318464" lon="12.522983703137893"><ele>251.0</ele><time>2026-04-30T17:30:01.999Z</time></trkpt><trkpt lat="42.22032568133276" lon="12.523098527135014"><ele>250.5</ele><time>2026-04-30T17:30:02.999Z</time></trkpt><trkpt lat="42.22024429276238" lon="12.52321015101238"><ele>250.0</ele><time>2026-04-30T17:30:03.999Z</time></trkpt><trkpt lat="42.22014673828488" lon="12.523315568180386"><ele>249.5</ele><time>2026-04-30T17:30:04.999Z</time></trkpt><trkpt lat="42.22004202369555" lon="12.523414411801697"><ele>249.0</ele><time>2026-04-30T17:30:05.999Z</time></trkpt><trkpt lat="42.219928556525474" lon="12.523515095038954"><ele>248.0</ele><time>2026-04-30T17:30:06.999Z</time></trkpt><trkpt lat="42.21980469910728" lon="12.52362096708032"><ele>247.0</ele><time>2026-04-30T17:30:07.999Z</time></trkpt><trkpt lat="42.219673025841765" lon="12.523737125631603"><ele>246.0</ele><time>2026-04-30T17:30:08.999Z</time></trkpt><trkpt lat="42.21954700580686" lon="12.523847754001553"><ele>245.75</ele><time>2026-04-30T17:30:09.999Z</time></trkpt><trkpt lat="42.21942445139801" lon="12.523945541839751"><ele>245.5</ele><time>2026-04-30T17:30:10.999Z</time></trkpt><trkpt lat="42.21931782674434" lon="12.524024291413673"><ele>245.25</ele><time>2026-04-30T17:30:11.999Z</time></trkpt><trkpt lat="42.21922961444654" lon="12.524115370220832"><ele>245.0</ele><time>2026-04-30T17:30:12.999Z</time></trkpt><trkpt lat="42.21913145906594" lon="12.524186572346634"><ele>245.0</ele><time>2026-04-30T17:30:13.999Z</time></trkpt><trkpt lat="42.21902867767776" lon="12.524218470618864"><ele>245.0</ele><time>2026-04-30T17:30:14.999Z</time></trkpt><trkpt lat="42.21891391049806" lon="12.524271319137641"><ele>245.0</ele><time>2026-04-30T17:30:15.999Z</time></trkpt><trkpt lat="42.218791533946444" lon="12.5242950516145"><ele>245.0</ele><time>2026-04-30T17:30:16.999Z</time></trkpt><trkpt lat="42.21865340248406" lon="12.524279946492765"><ele>244.75</ele><time>2026-04-30T17:30:17.999Z</time></trkpt><trkpt lat="42.21850817831313" lon="12.524275386806671"><ele>244.5</ele><time>2026-04-30T17:30:18.999Z</time></trkpt><trkpt lat="42.218372435692935" lon="12.524266333091239"><ele>244.25</ele><time>2026-04-30T17:30:19.999Z</time></trkpt><trkpt lat="42.21822334592456" lon="12.524256124589172"><ele>244.0</ele><time>2026-04-30T17:30:20.999Z</time></trkpt><trkpt lat="42.21807770616403" lon="12.524247075768566"><ele>244.0</ele><time>2026-04-30T17:30:21.999Z</time></trkpt><trkpt lat="42.217937465138846" lon="12.52425542705277"><ele>244.0</ele><time>2026-04-30T17:30:22.999Z</time></trkpt><trkpt lat="42.21779454230235" lon="12.524272695311941"><ele>244.0</ele><time>2026-04-30T17:30:23.999Z</time></trkpt><trkpt lat="42.21764045147228" lon="12.524301852184841"><ele>244.0</ele><time>2026-04-30T17:30:24.999Z</time></trkpt><trkpt lat="42.21749413063261" lon="12.524342522648674"><ele>245.0</ele><time>2026-04-30T17:30:25.999Z</time></trkpt><trkpt lat="42.21730941320302" lon="12.524405209119967"><ele>246.0</ele><time>2026-04-30T17:30:26.999Z</time></trkpt><trkpt lat="42.21710882486274" lon="12.52446515376263"><ele>247.0</ele><time>2026-04-30T17:30:27.998Z</time></trkpt><trkpt lat="42.21689710882038" lon="12.52449653501772"><ele>247.0</ele><time>2026-04-30T17:30:28.998Z</time></trkpt><trkpt lat="42.216693778337884" lon="12.524560487901523"><ele>247.0</ele><time>2026-04-30T17:30:29.998Z</time></trkpt><trkpt lat="42.21649875297337" lon="12.524628642296687"><ele>247.0</ele><time>2026-04-30T17:30:30.998Z</time></trkpt><trkpt lat="42.21631396134775" lon="12.524695607801732"><ele>248.33333333333331</ele><time>2026-04-30T17:30:31.998Z</time></trkpt><trkpt lat="42.21612050746152" lon="12.52476566026609"><ele>249.66666666666669</ele><time>2026-04-30T17:30:32.998Z</time></trkpt><trkpt lat="42.21593984983594" lon="12.524832398934045"><ele>251.0</ele><time>2026-04-30T17:30:33.998Z</time></trkpt><trkpt lat="42.2157636022473" lon="12.524897508470973"><ele>254.0</ele><time>2026-04-30T17:30:34.998Z</time></trkpt><trkpt lat="42.215551013580445" lon="12.524989197972342"><ele>257.0</ele><time>2026-04-30T17:30:35.998Z</time></trkpt><trkpt lat="42.21536179847673" lon="12.525069636486515"><ele>260.0</ele><time>2026-04-30T17:30:36.998Z</time></trkpt><trkpt lat="42.21517698840573" lon="12.525136032901479"><ele>260.0</ele><time>2026-04-30T17:30:37.998Z</time></trkpt><trkpt lat="42.21499167443219" lon="12.52519527715367"><ele>260.0</ele><time>2026-04-30T17:30:38.998Z</time></trkpt><trkpt lat="42.21481810740955" lon="12.525260621454617"><ele>260.0</ele><time>2026-04-30T17:30:39.998Z</time></trkpt><trkpt lat="42.21465428358418" lon="12.525322923442339"><ele>260.33333333333337</ele><time>2026-04-30T17:30:40.998Z</time></trkpt><trkpt lat="42.21449844464226" lon="12.525359292855766"><ele>260.6666666666667</ele><time>2026-04-30T17:30:41.998Z</time></trkpt><trkpt lat="42.214338888645884" lon="12.525402579811262"><ele>261.0</ele><time>2026-04-30T17:30:42.998Z</time></trkpt><trkpt lat="42.214157661207025" lon="12.525449476064342"><ele>257.6666666666667</ele><time>2026-04-30T17:30:43.998Z</time></trkpt><trkpt lat="42.2139760540578" lon="12.525495511521209"><ele>254.33333333333334</ele><time>2026-04-30T17:30:44.998Z</time></trkpt><trkpt lat="42.21378296446325" lon="12.525520183893097"><ele>251.0</ele><time>2026-04-30T17:30:45.998Z</time></trkpt><trkpt lat="42.213587133078086" lon="12.525562387706746"><ele>251.0</ele><time>2026-04-30T17:30:46.998Z</time></trkpt><trkpt lat="42.21339547815488" lon="12.5255866044746"><ele>251.0</ele><time>2026-04-30T17:30:47.998Z</time></trkpt><trkpt lat="42.21320519303459" lon="12.525622939961563"><ele>251.0</ele><time>2026-04-30T17:30:48.998Z</time></trkpt><trkpt lat="42.213019584586604" lon="12.525673829970755"><ele>251.0</ele><time>2026-04-30T17:30:49.998Z</time></trkpt><trkpt lat="42.21284767843321" lon="12.525733184424544"><ele>251.0</ele><time>2026-04-30T17:30:50.998Z</time></trkpt><trkpt lat="42.21268130169159" lon="12.52578745758373"><ele>251.0</ele><time>2026-04-30T17:30:51.998Z</time></trkpt><trkpt lat="42.21251789492162" lon="12.525848634460763"><ele>251.0</ele><time>2026-04-30T17:30:52.998Z</time></trkpt><trkpt lat="42.21236032377512" lon="12.525926332436306"><ele>251.0</ele><time>2026-04-30T17:30:53.998Z</time></trkpt><trkpt lat="42.21221738023812" lon="12.52602841864799"><ele>251.0</ele><time>2026-04-30T17:30:54.998Z</time></trkpt><trkpt lat="42.212075035219556" lon="12.526158612628222"><ele>248.33333333333334</ele><time>2026-04-30T17:30:55.998Z</time></trkpt><trkpt lat="42.21193858852738" lon="12.526308590086979"><ele>245.66666666666669</ele><time>2026-04-30T17:30:56.998Z</time></trkpt><trkpt lat="42.21182067788713" lon="12.526483003183744"><ele>243.0</ele><time>2026-04-30T17:30:57.998Z</time></trkpt><trkpt lat="42.21171982071079" lon="12.526679613834887"><ele>243.0</ele><time>2026-04-30T17:30:58.998Z</time></trkpt><trkpt lat="42.2116365280843" lon="12.526908109918349"><ele>243.0</ele><time>2026-04-30T17:30:59.998Z</time></trkpt><trkpt lat="42.21156910207535" lon="12.52715326273821"><ele>243.0</ele><time>2026-04-30T17:31:00.998Z</time></trkpt><trkpt lat="42.2115138371777" lon="12.527412781026582"><ele>242.33333333333331</ele><time>2026-04-30T17:31:01.998Z</time></trkpt><trkpt lat="42.21146452962462" lon="12.527669593858988"><ele>241.66666666666666</ele><time>2026-04-30T17:31:02.998Z</time></trkpt><trkpt lat="42.211414199532484" lon="12.527946820659889"><ele>241.0</ele><time>2026-04-30T17:31:03.998Z</time></trkpt><trkpt lat="42.21136271183093" lon="12.528222930417462"><ele>241.0</ele><time>2026-04-30T17:31:04.998Z</time></trkpt><trkpt lat="42.21130320798054" lon="12.528493273432048"><ele>241.0</ele><time>2026-04-30T17:31:05.998Z</time></trkpt><trkpt lat="42.211247366682684" lon="12.52875837753562"><ele>241.0</ele><time>2026-04-30T17:31:06.998Z</time></trkpt><trkpt lat="42.21118952701251" lon="12.52902722473227"><ele>243.33333333333331</ele><time>2026-04-30T17:31:07.998Z</time></trkpt><trkpt lat="42.21112635604806" lon="12.529281777857419"><ele>245.66666666666669</ele><time>2026-04-30T17:31:08.998Z</time></trkpt><trkpt lat="42.21105604368927" lon="12.529524606980473"><ele>248.0</ele><time>2026-04-30T17:31:09.998Z</time></trkpt><trkpt lat="42.21097304109268" lon="12.529732570167074"><ele>248.66666666666669</ele><time>2026-04-30T17:31:10.998Z</time></trkpt><trkpt lat="42.21087241410697" lon="12.529933839630019"><ele>249.33333333333331</ele><time>2026-04-30T17:31:11.998Z</time></trkpt><trkpt lat="42.21077041368455" lon="12.53014212602063"><ele>250.0</ele><time>2026-04-30T17:31:12.998Z</time></trkpt><trkpt lat="42.2106716006551" lon="12.530354027263048"><ele>251.33333333333331</ele><time>2026-04-30T17:31:13.998Z</time></trkpt><trkpt lat="42.21056834754349" lon="12.530572117456812"><ele>252.66666666666669</ele><time>2026-04-30T17:31:14.998Z</time></trkpt><trkpt lat="42.21046946304303" lon="12.530794436791146"><ele>254.0</ele><time>2026-04-30T17:31:15.998Z</time></trkpt><trkpt lat="42.210368252100416" lon="12.53101509557704"><ele>253.66666666666669</ele><time>2026-04-30T17:31:16.998Z</time></trkpt><trkpt lat="42.210262059295964" lon="12.531240039262407"><ele>253.33333333333331</ele><time>2026-04-30T17:31:17.998Z</time></trkpt><trkpt lat="42.21016271956237" lon="12.53146885579806"><ele>253.0</ele><time>2026-04-30T17:31:18.998Z</time></trkpt><trkpt lat="42.21007200594111" lon="12.531692458455787"><ele>253.0</ele><time>2026-04-30T17:31:19.998Z</time></trkpt><trkpt lat="42.209987739004994" lon="12.531916107495952"><ele>253.0</ele><time>2026-04-30T17:31:20.998Z</time></trkpt><trkpt lat="42.209935215443174" lon="12.532129783361366"><ele>253.0</ele><time>2026-04-30T17:31:21.998Z</time></trkpt><trkpt lat="42.209935187138306" lon="12.53232754402941"><ele>253.33333333333331</ele><time>2026-04-30T17:31:22.998Z</time></trkpt><trkpt lat="42.20995654065482" lon="12.532506021767073"><ele>253.66666666666669</ele><time>2026-04-30T17:31:23.999Z</time></trkpt><trkpt lat="42.210006930570486" lon="12.532695513090372"><ele>254.0</ele><time>2026-04-30T17:31:24.999Z</time></trkpt><trkpt lat="42.21007800887518" lon="12.53291560231778"><ele>254.0</ele><time>2026-04-30T17:31:25.999Z</time></trkpt><trkpt lat="42.21015048537647" lon="12.533118558864711"><ele>254.0</ele><time>2026-04-30T17:31:26.999Z</time></trkpt><trkpt lat="42.21022640574441" lon="12.533330792993027"><ele>254.0</ele><time>2026-04-30T17:31:27.999Z</time></trkpt><trkpt lat="42.210293245810526" lon="12.533524226755105"><ele>254.0</ele><time>2026-04-30T17:31:28.999Z</time></trkpt><trkpt lat="42.21035839549479" lon="12.533718013135909"><ele>254.0</ele><time>2026-04-30T17:31:29.999Z</time></trkpt><trkpt lat="42.21043721170668" lon="12.533995714706364"><ele>254.0</ele><time>2026-04-30T17:31:30.999Z</time></trkpt><trkpt lat="42.21046130959055" lon="12.534263262909532"><ele>251.33333333333334</ele><time>2026-04-30T17:31:31.999Z</time></trkpt><trkpt lat="42.21042776072488" lon="12.53452060742566"><ele>248.66666666666669</ele><time>2026-04-30T17:31:32.999Z</time></trkpt><trkpt lat="42.210386589376405" lon="12.534706209880307"><ele>246.0</ele><time>2026-04-30T17:31:33.999Z</time></trkpt><trkpt lat="42.21033413136628" lon="12.534923627018415"><ele>243.0</ele><time>2026-04-30T17:31:34.999Z</time></trkpt><trkpt lat="42.210293439468984" lon="12.53514846120386"><ele>240.0</ele><time>2026-04-30T17:31:35.999Z</time></trkpt><trkpt lat="42.210254852207925" lon="12.535382001583457"><ele>237.0</ele><time>2026-04-30T17:31:37Z</time></trkpt><trkpt lat="42.21021202995846" lon="12.535627466108046"><ele>236.66666666666669</ele><time>2026-04-30T17:31:37.999Z</time></trkpt><trkpt lat="42.210149505671275" lon="12.535868838283042"><ele>236.33333333333334</ele><time>2026-04-30T17:31:38.999Z</time></trkpt><trkpt lat="42.21004392977987" lon="12.536113102686203"><ele>236.0</ele><time>2026-04-30T17:31:39.999Z</time></trkpt><trkpt lat="42.20999783881156" lon="12.536323052014561"><ele>235.66666666666669</ele><time>2026-04-30T17:31:40.999Z</time></trkpt><trkpt lat="42.20995897918427" lon="12.53652463189996"><ele>235.33333333333331</ele><time>2026-04-30T17:31:41.999Z</time></trkpt><trkpt lat="42.20988324574466" lon="12.536728985192788"><ele>235.0</ele><time>2026-04-30T17:31:42.999Z</time></trkpt><trkpt lat="42.209781587970255" lon="12.536934212391861"><ele>233.33333333333331</ele><time>2026-04-30T17:31:43.999Z</time></trkpt><trkpt lat="42.209684435204224" lon="12.537150418792226"><ele>231.66666666666669</ele><time>2026-04-30T17:31:44.999Z</time></trkpt><trkpt lat="42.20959677249521" lon="12.537381909281043"><ele>230.0</ele><time>2026-04-30T17:31:45.999Z</time></trkpt><trkpt lat="42.209459115321664" lon="12.537617443854403"><ele>230.0</ele><time>2026-04-30T17:31:46.999Z</time></trkpt><trkpt lat="42.20933382385914" lon="12.537845590491537"><ele>230.0</ele><time>2026-04-30T17:31:47.999Z</time></trkpt><trkpt lat="42.209211671833316" lon="12.538071031394876"><ele>230.0</ele><time>2026-04-30T17:31:48.999Z</time></trkpt><trkpt lat="42.20910100870513" lon="12.538285508574814"><ele>230.66666666666669</ele><time>2026-04-30T17:31:49.999Z</time></trkpt><trkpt lat="42.20898589454106" lon="12.538489664533145"><ele>231.33333333333331</ele><time>2026-04-30T17:31:50.999Z</time></trkpt><trkpt lat="42.208883588551494" lon="12.538694271494032"><ele>232.0</ele><time>2026-04-30T17:31:51.999Z</time></trkpt><trkpt lat="42.20880147760819" lon="12.538890443558444"><ele>232.33333333333331</ele><time>2026-04-30T17:31:52.999Z</time></trkpt><trkpt lat="42.20875810762384" lon="12.539095718532325"><ele>232.66666666666669</ele><time>2026-04-30T17:31:53.999Z</time></trkpt><trkpt lat="42.20871937907925" lon="12.539309786126575"><ele>233.0</ele><time>2026-04-30T17:31:54.999Z</time></trkpt><trkpt lat="42.20868780057919" lon="12.539540480575244"><ele>233.33333333333334</ele><time>2026-04-30T17:31:55.999Z</time></trkpt><trkpt lat="42.208642897619896" lon="12.539801289720293"><ele>233.66666666666669</ele><time>2026-04-30T17:31:56.999Z</time></trkpt><trkpt lat="42.20859983939319" lon="12.540056237091504"><ele>234.0</ele><time>2026-04-30T17:31:57.999Z</time></trkpt><trkpt lat="42.208613448394956" lon="12.540328771575766"><ele>233.33333333333331</ele><time>2026-04-30T17:31:58.999Z</time></trkpt><trkpt lat="42.208611739977314" lon="12.540574910252412"><ele>232.66666666666666</ele><time>2026-04-30T17:31:59.999Z</time></trkpt><trkpt lat="42.208625518811736" lon="12.540822236974037"><ele>232.0</ele><time>2026-04-30T17:32:00.999Z</time></trkpt><trkpt lat="42.20864982361419" lon="12.541080067204364"><ele>233.0</ele><time>2026-04-30T17:32:01.999Z</time></trkpt><trkpt lat="42.2086813809679" lon="12.541322242260346"><ele>234.0</ele><time>2026-04-30T17:32:02.999Z</time></trkpt><trkpt lat="42.20871275753762" lon="12.54156462974347"><ele>235.0</ele><time>2026-04-30T17:32:03.999Z</time></trkpt><trkpt lat="42.20874324348364" lon="12.541816004943241"><ele>236.66666666666666</ele><time>2026-04-30T17:32:04.999Z</time></trkpt><trkpt lat="42.20880237843922" lon="12.542064664993323"><ele>238.33333333333331</ele><time>2026-04-30T17:32:05.999Z</time></trkpt><trkpt lat="42.2088237366708" lon="12.542327668935302"><ele>240.0</ele><time>2026-04-30T17:32:06.999Z</time></trkpt><trkpt lat="42.20883945254758" lon="12.5425874529231"><ele>240.0</ele><time>2026-04-30T17:32:07.999Z</time></trkpt><trkpt lat="42.20885176397487" lon="12.542823407893973"><ele>240.0</ele><time>2026-04-30T17:32:08.999Z</time></trkpt><trkpt lat="42.20884594517377" lon="12.543049580941473"><ele>240.0</ele><time>2026-04-30T17:32:09.999Z</time></trkpt><trkpt lat="42.208805704351086" lon="12.543261920547458"><ele>242.0</ele><time>2026-04-30T17:32:10.999Z</time></trkpt><trkpt lat="42.20874022455759" lon="12.5434664057192"><ele>244.0</ele><time>2026-04-30T17:32:11.999Z</time></trkpt><trkpt lat="42.20865073408324" lon="12.543652886867322"><ele>246.0</ele><time>2026-04-30T17:32:12.999Z</time></trkpt><trkpt lat="42.20853898105994" lon="12.543811769535044"><ele>247.66666666666669</ele><time>2026-04-30T17:32:13.999Z</time></trkpt><trkpt lat="42.208367513535045" lon="12.543912609620108"><ele>249.33333333333334</ele><time>2026-04-30T17:32:14.999Z</time></trkpt><trkpt lat="42.20821838579875" lon="12.544001440195222"><ele>251.0</ele><time>2026-04-30T17:32:15.999Z</time></trkpt><trkpt lat="42.20805677174591" lon="12.544109224866553"><ele>251.66666666666669</ele><time>2026-04-30T17:32:16.999Z</time></trkpt><trkpt lat="42.207906290887976" lon="12.544239096634364"><ele>252.33333333333331</ele><time>2026-04-30T17:32:17.999Z</time></trkpt><trkpt lat="42.20775975793617" lon="12.54434626951469"><ele>253.0</ele><time>2026-04-30T17:32:18.999Z</time></trkpt><trkpt lat="42.20761357017794" lon="12.544456692712606"><ele>251.0</ele><time>2026-04-30T17:32:19.999Z</time></trkpt><trkpt lat="42.207463532315586" lon="12.54454878314483"><ele>249.0</ele><time>2026-04-30T17:32:20.999Z</time></trkpt><trkpt lat="42.207315062793704" lon="12.54459294418168"><ele>247.0</ele><time>2026-04-30T17:32:21.999Z</time></trkpt><trkpt lat="42.20715341746068" lon="12.544621697675247"><ele>247.0</ele><time>2026-04-30T17:32:22.999Z</time></trkpt><trkpt lat="42.206979427431804" lon="12.544688196442536"><ele>247.0</ele><time>2026-04-30T17:32:23.999Z</time></trkpt><trkpt lat="42.20680890503722" lon="12.544717017150658"><ele>247.0</ele><time>2026-04-30T17:32:24.999Z</time></trkpt><trkpt lat="42.20662748405539" lon="12.544744271160832"><ele>249.33333333333331</ele><time>2026-04-30T17:32:25.999Z</time></trkpt><trkpt lat="42.20644777917113" lon="12.54477877625204"><ele>251.66666666666669</ele><time>2026-04-30T17:32:26.999Z</time></trkpt><trkpt lat="42.20628390001968" lon="12.544808283332612"><ele>254.0</ele><time>2026-04-30T17:32:27.999Z</time></trkpt><trkpt lat="42.206092094550456" lon="12.544835933658206"><ele>254.0</ele><time>2026-04-30T17:32:28.999Z</time></trkpt><trkpt lat="42.20594677612445" lon="12.544858546127019"><ele>254.0</ele><time>2026-04-30T17:32:29.999Z</time></trkpt><trkpt lat="42.20577508107006" lon="12.544884262457492"><ele>254.0</ele><time>2026-04-30T17:32:30.999Z</time></trkpt><trkpt lat="42.20559939319555" lon="12.544974091343608"><ele>254.33333333333334</ele><time>2026-04-30T17:32:31.999Z</time></trkpt><trkpt lat="42.20545602114802" lon="12.545094902488005"><ele>254.66666666666669</ele><time>2026-04-30T17:32:32.999Z</time></trkpt><trkpt lat="42.20530544605041" lon="12.545223083751468"><ele>255.0</ele><time>2026-04-30T17:32:33.999Z</time></trkpt><trkpt lat="42.205176342998186" lon="12.545381681629657"><ele>255.0</ele><time>2026-04-30T17:32:34.999Z</time></trkpt><trkpt lat="42.205048541368946" lon="12.545540168474966"><ele>255.0</ele><time>2026-04-30T17:32:35.999Z</time></trkpt><trkpt lat="42.20494920102148" lon="12.545748161960681"><ele>255.0</ele><time>2026-04-30T17:32:36.999Z</time></trkpt><trkpt lat="42.20488230294633" lon="12.545975325642122"><ele>255.0</ele><time>2026-04-30T17:32:37.999Z</time></trkpt><trkpt lat="42.20483459777611" lon="12.546184008934858"><ele>255.0</ele><time>2026-04-30T17:32:38.999Z</time></trkpt><trkpt lat="42.204797453146234" lon="12.546392003850585"><ele>255.0</ele><time>2026-04-30T17:32:39.999Z</time></trkpt><trkpt lat="42.20473675709116" lon="12.546524115994355"><ele>255.0</ele><time>2026-04-30T17:32:40.999Z</time></trkpt><trkpt lat="42.20468383921531" lon="12.546660392753926"><ele>256.0</ele><time>2026-04-30T17:32:41.999Z</time></trkpt><trkpt lat="42.20456367391172" lon="12.546746176147398"><ele>257.0</ele><time>2026-04-30T17:32:42.999Z</time></trkpt><trkpt lat="42.20447411516904" lon="12.546796985448932"><ele>258.0</ele><time>2026-04-30T17:32:43.999Z</time></trkpt><trkpt lat="42.204352205513395" lon="12.546854858938651"><ele>259.0</ele><time>2026-04-30T17:32:45.999Z</time></trkpt><trkpt lat="42.204245686173955" lon="12.54686562321448"><ele>259.0</ele><time>2026-04-30T17:32:46.999Z</time></trkpt><trkpt lat="42.204145114848245" lon="12.54692186160851"><ele>259.0</ele><time>2026-04-30T17:32:47.999Z</time></trkpt><trkpt lat="42.20399983378335" lon="12.546957994123778"><ele>259.0</ele><time>2026-04-30T17:32:48.998Z</time></trkpt><trkpt lat="42.20382190589816" lon="12.546978594084216"><ele>259.0</ele><time>2026-04-30T17:32:49.998Z</time></trkpt><trkpt lat="42.20363884510441" lon="12.546977649475972"><ele>259.3333333333333</ele><time>2026-04-30T17:32:50.998Z</time></trkpt><trkpt lat="42.2034970826004" lon="12.546994584777782"><ele>259.6666666666667</ele><time>2026-04-30T17:32:51.998Z</time></trkpt><trkpt lat="42.20330146825695" lon="12.547067510688702"><ele>260.0</ele><time>2026-04-30T17:32:52.998Z</time></trkpt><trkpt lat="42.20310727326528" lon="12.547119416668457"><ele>255.0</ele><time>2026-04-30T17:32:53.998Z</time></trkpt><trkpt lat="42.2029380355475" lon="12.547116550838432"><ele>250.0</ele><time>2026-04-30T17:32:54.998Z</time></trkpt><trkpt lat="42.20276854702687" lon="12.547170912966141"><ele>245.0</ele><time>2026-04-30T17:32:55.998Z</time></trkpt><trkpt lat="42.202616505649004" lon="12.547261340675842"><ele>245.0</ele><time>2026-04-30T17:32:56.998Z</time></trkpt><trkpt lat="42.20246664390203" lon="12.547316444495596"><ele>245.0</ele><time>2026-04-30T17:32:57.998Z</time></trkpt><trkpt lat="42.20232916365132" lon="12.547371870799958"><ele>245.0</ele><time>2026-04-30T17:32:58.998Z</time></trkpt><trkpt lat="42.20218417109911" lon="12.547388085504318"><ele>245.0</ele><time>2026-04-30T17:32:59.998Z</time></trkpt><trkpt lat="42.20208345842299" lon="12.547353587454872"><ele>244.75</ele><time>2026-04-30T17:33:00.998Z</time></trkpt><trkpt lat="42.20194629625968" lon="12.547319741517864"><ele>244.5</ele><time>2026-04-30T17:33:01.998Z</time></trkpt><trkpt lat="42.20182035262688" lon="12.547276456901319"><ele>244.25</ele><time>2026-04-30T17:33:02.998Z</time></trkpt><trkpt lat="42.201683320053206" lon="12.547238807405517"><ele>244.0</ele><time>2026-04-30T17:33:03.998Z</time></trkpt><trkpt lat="42.20153592440494" lon="12.547186901130843"><ele>242.66666666666666</ele><time>2026-04-30T17:33:04.998Z</time></trkpt><trkpt lat="42.20138261043355" lon="12.54714805381163"><ele>241.33333333333331</ele><time>2026-04-30T17:33:05.998Z</time></trkpt><trkpt lat="42.20123827156897" lon="12.547115826974473"><ele>240.0</ele><time>2026-04-30T17:33:06.998Z</time></trkpt><trkpt lat="42.201085439114195" lon="12.547131477355714"><ele>240.0</ele><time>2026-04-30T17:33:07.998Z</time></trkpt><trkpt lat="42.20094605330094" lon="12.54716992112665"><ele>240.0</ele><time>2026-04-30T17:33:08.998Z</time></trkpt><trkpt lat="42.20080463485178" lon="12.547179551508846"><ele>240.0</ele><time>2026-04-30T17:33:09.998Z</time></trkpt><trkpt lat="42.20065496669944" lon="12.547228851324194"><ele>240.0</ele><time>2026-04-30T17:33:10.998Z</time></trkpt><trkpt lat="42.20051189689268" lon="12.547245176724797"><ele>240.5</ele><time>2026-04-30T17:33:11.998Z</time></trkpt><trkpt lat="42.20037087648519" lon="12.547248248638374"><ele>241.0</ele><time>2026-04-30T17:33:12.998Z</time></trkpt><trkpt lat="42.20024282197442" lon="12.547235099436522"><ele>241.5</ele><time>2026-04-30T17:33:13.998Z</time></trkpt><trkpt lat="42.20010702859183" lon="12.547253947228402"><ele>242.0</ele><time>2026-04-30T17:33:14.998Z</time></trkpt><trkpt lat="42.19997336440823" lon="12.547284573335173"><ele>242.0</ele><time>2026-04-30T17:33:15.998Z</time></trkpt><trkpt lat="42.19983735020757" lon="12.547332817906693"><ele>242.0</ele><time>2026-04-30T17:33:16.998Z</time></trkpt><trkpt lat="42.199693229406826" lon="12.547326039590553"><ele>242.0</ele><time>2026-04-30T17:33:17.998Z</time></trkpt><trkpt lat="42.19952625365608" lon="12.547301336891481"><ele>241.0</ele><time>2026-04-30T17:33:18.998Z</time></trkpt><trkpt lat="42.19936878262904" lon="12.547250633253327"><ele>240.0</ele><time>2026-04-30T17:33:19.998Z</time></trkpt><trkpt lat="42.19921245309991" lon="12.547228594394848"><ele>239.0</ele><time>2026-04-30T17:33:20.998Z</time></trkpt><trkpt lat="42.1990586577377" lon="12.547253119107884"><ele>240.0</ele><time>2026-04-30T17:33:21.998Z</time></trkpt><trkpt lat="42.1988957734338" lon="12.547309608131812"><ele>241.0</ele><time>2026-04-30T17:33:22.998Z</time></trkpt><trkpt lat="42.19871989827355" lon="12.547318639769243"><ele>242.0</ele><time>2026-04-30T17:33:23.998Z</time></trkpt><trkpt lat="42.19855941282935" lon="12.547381263666624"><ele>242.0</ele><time>2026-04-30T17:33:24.998Z</time></trkpt><trkpt lat="42.198403177527894" lon="12.54747734808432"><ele>242.0</ele><time>2026-04-30T17:33:25.998Z</time></trkpt><trkpt lat="42.198277443611914" lon="12.547582310694462"><ele>242.0</ele><time>2026-04-30T17:33:26.998Z</time></trkpt><trkpt lat="42.19817936432817" lon="12.547671427257374"><ele>242.0</ele><time>2026-04-30T17:33:27.998Z</time></trkpt><trkpt lat="42.19808018181957" lon="12.547758126045993"><ele>244.39999999999998</ele><time>2026-04-30T17:33:28.998Z</time></trkpt><trkpt lat="42.19800313908452" lon="12.547849993078877"><ele>246.79999999999998</ele><time>2026-04-30T17:33:29.999Z</time></trkpt><trkpt lat="42.197936399649926" lon="12.547957528139376"><ele>249.2</ele><time>2026-04-30T17:33:30.999Z</time></trkpt><trkpt lat="42.197878196139435" lon="12.548098332474042"><ele>251.6</ele><time>2026-04-30T17:33:31.999Z</time></trkpt><trkpt lat="42.19783336602765" lon="12.54825195556409"><ele>254.0</ele><time>2026-04-30T17:33:32.999Z</time></trkpt><trkpt lat="42.197806828898024" lon="12.548394995571947"><ele>254.0</ele><time>2026-04-30T17:33:33.999Z</time></trkpt><trkpt lat="42.19777101831769" lon="12.548548328487731"><ele>254.0</ele><time>2026-04-30T17:33:34.999Z</time></trkpt><trkpt lat="42.197706960173825" lon="12.548695060228319"><ele>254.0</ele><time>2026-04-30T17:33:35.999Z</time></trkpt><trkpt lat="42.19763117281901" lon="12.548830350209853"><ele>254.0</ele><time>2026-04-30T17:33:36.999Z</time></trkpt><trkpt lat="42.19752609305323" lon="12.549021564958823"><ele>255.33333333333334</ele><time>2026-04-30T17:33:37.999Z</time></trkpt><trkpt lat="42.19740862913335" lon="12.549215301532472"><ele>256.6666666666667</ele><time>2026-04-30T17:33:38.999Z</time></trkpt><trkpt lat="42.19727693300044" lon="12.549363221197085"><ele>258.0</ele><time>2026-04-30T17:33:40Z</time></trkpt><trkpt lat="42.19711972585075" lon="12.549514347833274"><ele>260.3333333333333</ele><time>2026-04-30T17:33:40.999Z</time></trkpt><trkpt lat="42.19695388575878" lon="12.54965741229954"><ele>262.66666666666663</ele><time>2026-04-30T17:33:42Z</time></trkpt><trkpt lat="42.19677961544042" lon="12.549831461349982"><ele>265.0</ele><time>2026-04-30T17:33:43Z</time></trkpt><trkpt lat="42.19661380887439" lon="12.549999277664307"><ele>265.66666666666663</ele><time>2026-04-30T17:33:44Z</time></trkpt><trkpt lat="42.19644795030222" lon="12.550166623117724"><ele>266.3333333333333</ele><time>2026-04-30T17:33:45Z</time></trkpt><trkpt lat="42.19629229125426" lon="12.550305638041268"><ele>267.0</ele><time>2026-04-30T17:33:45.999Z</time></trkpt><trkpt lat="42.196105332547276" lon="12.550491728964396"><ele>267.0</ele><time>2026-04-30T17:33:46.999Z</time></trkpt><trkpt lat="42.1962238423961" lon="12.550699576339873"><ele>267.0</ele><time>2026-04-30T17:33:47.999Z</time></trkpt><trkpt lat="42.19610974009042" lon="12.550845052131233"><ele>267.0</ele><time>2026-04-30T17:33:48.999Z</time></trkpt><trkpt lat="42.19600466315223" lon="12.551030381334508"><ele>266.0</ele><time>2026-04-30T17:33:49.999Z</time></trkpt><trkpt lat="42.19590418991695" lon="12.551239480681962"><ele>265.0</ele><time>2026-04-30T17:33:50.999Z</time></trkpt><trkpt lat="42.19581092553954" lon="12.551458143356593"><ele>264.0</ele><time>2026-04-30T17:33:51.999Z</time></trkpt><trkpt lat="42.1951310019369" lon="12.551558653982038"><ele>266.5</ele><time>2026-04-30T17:33:54.999Z</time></trkpt><trkpt lat="42.194984722015825" lon="12.551716418936254"><ele>269.0</ele><time>2026-04-30T17:33:55.999Z</time></trkpt><trkpt lat="42.195079788099086" lon="12.552085617331059"><ele>269.0</ele><time>2026-04-30T17:33:56.999Z</time></trkpt><trkpt lat="42.19493090346467" lon="12.552624257371107"><ele>269.0</ele><time>2026-04-30T17:33:58.999Z</time></trkpt><trkpt lat="42.19490890719753" lon="12.55288369055841"><ele>266.0</ele><time>2026-04-30T17:33:59.999Z</time></trkpt><trkpt lat="42.195433346168365" lon="12.553495169163158"><ele>266.0</ele><time>2026-04-30T17:34:00.999Z</time></trkpt><trkpt lat="42.195468170739424" lon="12.553672764668002"><ele>266.0</ele><time>2026-04-30T17:34:01.999Z</time></trkpt><trkpt lat="42.19523390357773" lon="12.553798986949891"><ele>266.0</ele><time>2026-04-30T17:34:02.999Z</time></trkpt><trkpt lat="42.195204023815286" lon="12.55397667216121"><ele>264.5</ele><time>2026-04-30T17:34:03.999Z</time></trkpt><trkpt lat="42.19510238153299" lon="12.55411953564968"><ele>263.0</ele><time>2026-04-30T17:34:04.999Z</time></trkpt><trkpt lat="42.19501930107221" lon="12.554257410370488"><ele>261.5</ele><time>2026-04-30T17:34:05.999Z</time></trkpt><trkpt lat="42.19491918534977" lon="12.554402836915733"><ele>260.0</ele><time>2026-04-30T17:34:06.999Z</time></trkpt><trkpt lat="42.19485550260458" lon="12.554562951371953"><ele>257.6666666666667</ele><time>2026-04-30T17:34:07.999Z</time></trkpt><trkpt lat="42.19478198756033" lon="12.554733866453924"><ele>255.33333333333331</ele><time>2026-04-30T17:34:08.999Z</time></trkpt><trkpt lat="42.194715104566946" lon="12.554928400159788"><ele>253.0</ele><time>2026-04-30T17:34:09.999Z</time></trkpt><trkpt lat="42.1946684846237" lon="12.555136530848964"><ele>253.0</ele><time>2026-04-30T17:34:10.999Z</time></trkpt><trkpt lat="42.19458494552425" lon="12.555353975652405"><ele>253.0</ele><time>2026-04-30T17:34:11.999Z</time></trkpt><trkpt lat="42.194517638389435" lon="12.555553583091472"><ele>253.0</ele><time>2026-04-30T17:34:12.999Z</time></trkpt><trkpt lat="42.194471972590534" lon="12.555766866886714"><ele>254.0</ele><time>2026-04-30T17:34:13.999Z</time></trkpt><trkpt lat="42.19443011737553" lon="12.555987934308929"><ele>255.0</ele><time>2026-04-30T17:34:14.999Z</time></trkpt><trkpt lat="42.19438085454721" lon="12.556209904901838"><ele>256.0</ele><time>2026-04-30T17:34:15.999Z</time></trkpt><trkpt lat="42.19436012294378" lon="12.556454757640909"><ele>256.0</ele><time>2026-04-30T17:34:16.999Z</time></trkpt><trkpt lat="42.19438076138647" lon="12.55667813591323"><ele>256.0</ele><time>2026-04-30T17:34:17.999Z</time></trkpt><trkpt lat="42.19441327494251" lon="12.556868154266924"><ele>256.0</ele><time>2026-04-30T17:34:18.999Z</time></trkpt><trkpt lat="42.194450968510765" lon="12.557107384571657"><ele>255.75</ele><time>2026-04-30T17:34:19.999Z</time></trkpt><trkpt lat="42.19448798557011" lon="12.557293384593322"><ele>255.5</ele><time>2026-04-30T17:34:20.999Z</time></trkpt><trkpt lat="42.19454776920578" lon="12.557488237806243"><ele>255.25</ele><time>2026-04-30T17:34:21.999Z</time></trkpt><trkpt lat="42.1945842823314" lon="12.557655046104024"><ele>255.0</ele><time>2026-04-30T17:34:22.999Z</time></trkpt><trkpt lat="42.194613967028786" lon="12.557837534838173"><ele>257.6666666666667</ele><time>2026-04-30T17:34:23.999Z</time></trkpt><trkpt lat="42.19466964446819" lon="12.558042394952752"><ele>260.33333333333337</ele><time>2026-04-30T17:34:24.999Z</time></trkpt><trkpt lat="42.194739951601285" lon="12.558205852332822"><ele>263.0</ele><time>2026-04-30T17:34:25.999Z</time></trkpt><trkpt lat="42.19485331467985" lon="12.55835965104066"><ele>263.0</ele><time>2026-04-30T17:34:26.999Z</time></trkpt><trkpt lat="42.19495210753414" lon="12.558528162915634"><ele>263.0</ele><time>2026-04-30T17:34:27.999Z</time></trkpt><trkpt lat="42.195081792603375" lon="12.558694544830399"><ele>263.0</ele><time>2026-04-30T17:34:28.999Z</time></trkpt><trkpt lat="42.19532201635671" lon="12.558826884208788"><ele>263.8</ele><time>2026-04-30T17:34:29.999Z</time></trkpt><trkpt lat="42.1953924135682" lon="12.558946112522936"><ele>264.6</ele><time>2026-04-30T17:34:30.999Z</time></trkpt><trkpt lat="42.195473012437674" lon="12.559047488633576"><ele>265.4</ele><time>2026-04-30T17:34:31.999Z</time></trkpt><trkpt lat="42.1955426835824" lon="12.559098417133963"><ele>266.2</ele><time>2026-04-30T17:34:32.999Z</time></trkpt><trkpt lat="42.195596876129066" lon="12.559177908946662"><ele>267.0</ele><time>2026-04-30T17:34:33.999Z</time></trkpt><trkpt lat="42.19563334845388" lon="12.559286848822746"><ele>267.0</ele><time>2026-04-30T17:34:34.999Z</time></trkpt><trkpt lat="42.195664550783654" lon="12.559435341695814"><ele>267.0</ele><time>2026-04-30T17:34:36.999Z</time></trkpt><trkpt lat="42.195675830830055" lon="12.55957772825216"><ele>267.0</ele><time>2026-04-30T17:34:37.999Z</time></trkpt><trkpt lat="42.195633792035096" lon="12.559726600531729"><ele>267.0</ele><time>2026-04-30T17:34:38.999Z</time></trkpt><trkpt lat="42.19561327426847" lon="12.559864113585352"><ele>267.0</ele><time>2026-04-30T17:34:39.999Z</time></trkpt><trkpt lat="42.19557433334257" lon="12.559996769201502"><ele>266.0</ele><time>2026-04-30T17:34:41.999Z</time></trkpt><trkpt lat="42.19550186974991" lon="12.560039810910284"><ele>265.0</ele><time>2026-04-30T17:34:42.999Z</time></trkpt><trkpt lat="42.195413770730426" lon="12.56010761539895"><ele>264.0</ele><time>2026-04-30T17:34:43.999Z</time></trkpt><trkpt lat="42.195305157907185" lon="12.560200490914054"><ele>263.0</ele><time>2026-04-30T17:34:44.999Z</time></trkpt><trkpt lat="42.195194799584606" lon="12.560259068443328"><ele>262.0</ele><time>2026-04-30T17:34:45.999Z</time></trkpt><trkpt lat="42.195063521335015" lon="12.560301593785951"><ele>262.0</ele><time>2026-04-30T17:34:46.999Z</time></trkpt><trkpt lat="42.19492786200867" lon="12.560321769052264"><ele>262.0</ele><time>2026-04-30T17:34:47.999Z</time></trkpt><trkpt lat="42.19478477489893" lon="12.560333947835433"><ele>262.0</ele><time>2026-04-30T17:34:48.999Z</time></trkpt><trkpt lat="42.19464294942729" lon="12.560324644784874"><ele>262.0</ele><time>2026-04-30T17:34:49.999Z</time></trkpt><trkpt lat="42.19448651063023" lon="12.560307564762928"><ele>263.66666666666663</ele><time>2026-04-30T17:34:50.999Z</time></trkpt><trkpt lat="42.19433202458746" lon="12.56031266597744"><ele>265.3333333333333</ele><time>2026-04-30T17:34:51.999Z</time></trkpt><trkpt lat="42.19417851935376" lon="12.560316796574405"><ele>267.0</ele><time>2026-04-30T17:34:52.999Z</time></trkpt><trkpt lat="42.194027974601326" lon="12.560304999093992"><ele>265.75</ele><time>2026-04-30T17:34:53.999Z</time></trkpt><trkpt lat="42.19388457025291" lon="12.560302664566857"><ele>264.5</ele><time>2026-04-30T17:34:54.999Z</time></trkpt><trkpt lat="42.19374276559083" lon="12.560314679302797"><ele>263.25</ele><time>2026-04-30T17:34:55.999Z</time></trkpt><trkpt lat="42.19361526005794" lon="12.560364168741309"><ele>262.0</ele><time>2026-04-30T17:34:56.999Z</time></trkpt><trkpt lat="42.193506231724626" lon="12.560454047064365"><ele>262.0</ele><time>2026-04-30T17:34:57.999Z</time></trkpt><trkpt lat="42.19341935368726" lon="12.560571678270215"><ele>262.0</ele><time>2026-04-30T17:34:58.998Z</time></trkpt><trkpt lat="42.193352690704046" lon="12.560717651000509"><ele>262.0</ele><time>2026-04-30T17:34:59.998Z</time></trkpt><trkpt lat="42.193302361768474" lon="12.56088903156116"><ele>262.0</ele><time>2026-04-30T17:35:00.998Z</time></trkpt><trkpt lat="42.19325023985562" lon="12.561098075529575"><ele>260.0</ele><time>2026-04-30T17:35:01.998Z</time></trkpt><trkpt lat="42.1931830755503" lon="12.561312041672021"><ele>258.0</ele><time>2026-04-30T17:35:02.998Z</time></trkpt><trkpt lat="42.193103759131155" lon="12.561522211587615"><ele>256.0</ele><time>2026-04-30T17:35:03.998Z</time></trkpt><trkpt lat="42.19300464030369" lon="12.561713074280426"><ele>256.0</ele><time>2026-04-30T17:35:04.998Z</time></trkpt><trkpt lat="42.19288276832302" lon="12.561874300665725"><ele>256.0</ele><time>2026-04-30T17:35:05.998Z</time></trkpt><trkpt lat="42.19278615227782" lon="12.562026580723956"><ele>256.0</ele><time>2026-04-30T17:35:06.998Z</time></trkpt><trkpt lat="42.19265747500745" lon="12.562188790062633"><ele>254.66666666666666</ele><time>2026-04-30T17:35:07.998Z</time></trkpt><trkpt lat="42.19253179091706" lon="12.562354036111785"><ele>253.33333333333331</ele><time>2026-04-30T17:35:08.998Z</time></trkpt><trkpt lat="42.19239896538792" lon="12.562533779106905"><ele>252.0</ele><time>2026-04-30T17:35:09.998Z</time></trkpt><trkpt lat="42.19227309438875" lon="12.562706010258266"><ele>249.33333333333331</ele><time>2026-04-30T17:35:10.998Z</time></trkpt><trkpt lat="42.1921494129915" lon="12.562878370925338"><ele>246.66666666666666</ele><time>2026-04-30T17:35:11.998Z</time></trkpt><trkpt lat="42.192031849369016" lon="12.56304766860442"><ele>244.0</ele><time>2026-04-30T17:35:12.998Z</time></trkpt><trkpt lat="42.191916021050545" lon="12.563222291872394"><ele>244.0</ele><time>2026-04-30T17:35:13.998Z</time></trkpt><trkpt lat="42.19181005253717" lon="12.563413567512981"><ele>244.0</ele><time>2026-04-30T17:35:14.998Z</time></trkpt><trkpt lat="42.191714691836125" lon="12.563610477199276"><ele>244.0</ele><time>2026-04-30T17:35:15.998Z</time></trkpt><trkpt lat="42.19161930361165" lon="12.563797300859102"><ele>244.0</ele><time>2026-04-30T17:35:16.998Z</time></trkpt><trkpt lat="42.19151456817934" lon="12.563967709858302"><ele>244.0</ele><time>2026-04-30T17:35:17.998Z</time></trkpt><trkpt lat="42.19138916841497" lon="12.564128997943746"><ele>244.0</ele><time>2026-04-30T17:35:18.998Z</time></trkpt><trkpt lat="42.19125003367214" lon="12.564279699101466"><ele>244.0</ele><time>2026-04-30T17:35:19.998Z</time></trkpt><trkpt lat="42.191117611308776" lon="12.56442582795816"><ele>244.0</ele><time>2026-04-30T17:35:20.998Z</time></trkpt><trkpt lat="42.191000541471446" lon="12.564590417323876"><ele>244.0</ele><time>2026-04-30T17:35:21.998Z</time></trkpt><trkpt lat="42.19090545604806" lon="12.564789831043353"><ele>243.66666666666666</ele><time>2026-04-30T17:35:22.998Z</time></trkpt><trkpt lat="42.190826188059596" lon="12.565015035026688"><ele>243.33333333333331</ele><time>2026-04-30T17:35:23.998Z</time></trkpt><trkpt lat="42.19075000147066" lon="12.565247643408458"><ele>243.0</ele><time>2026-04-30T17:35:24.998Z</time></trkpt><trkpt lat="42.19068178925391" lon="12.56548169507892"><ele>244.0</ele><time>2026-04-30T17:35:25.998Z</time></trkpt><trkpt lat="42.19060829450346" lon="12.565714479521395"><ele>245.0</ele><time>2026-04-30T17:35:26.998Z</time></trkpt><trkpt lat="42.190543273325844" lon="12.565942286758478"><ele>246.0</ele><time>2026-04-30T17:35:27.998Z</time></trkpt><trkpt lat="42.190486125074784" lon="12.566165488689435"><ele>245.33333333333331</ele><time>2026-04-30T17:35:28.998Z</time></trkpt><trkpt lat="42.1904469245069" lon="12.566376548548595"><ele>244.66666666666666</ele><time>2026-04-30T17:35:29.998Z</time></trkpt><trkpt lat="42.19043562311507" lon="12.566586700652902"><ele>244.0</ele><time>2026-04-30T17:35:30.998Z</time></trkpt><trkpt lat="42.19045667242873" lon="12.566792461906807"><ele>244.0</ele><time>2026-04-30T17:35:31.998Z</time></trkpt><trkpt lat="42.19048824921217" lon="12.567013220157998"><ele>244.0</ele><time>2026-04-30T17:35:32.998Z</time></trkpt><trkpt lat="42.19051744211187" lon="12.567234245995264"><ele>244.0</ele><time>2026-04-30T17:35:33.998Z</time></trkpt><trkpt lat="42.19054444179447" lon="12.567459306845349"><ele>244.33333333333331</ele><time>2026-04-30T17:35:34.998Z</time></trkpt><trkpt lat="42.190565879908505" lon="12.567690437769159"><ele>244.66666666666669</ele><time>2026-04-30T17:35:36Z</time></trkpt><trkpt lat="42.19059508826589" lon="12.56791898488633"><ele>245.0</ele><time>2026-04-30T17:35:37Z</time></trkpt><trkpt lat="42.19063635236418" lon="12.568148308582625"><ele>245.66666666666669</ele><time>2026-04-30T17:35:38Z</time></trkpt><trkpt lat="42.19067392838651" lon="12.568361523331747"><ele>246.33333333333331</ele><time>2026-04-30T17:35:39Z</time></trkpt><trkpt lat="42.19070437853726" lon="12.568564618616216"><ele>247.0</ele><time>2026-04-30T17:35:40Z</time></trkpt><trkpt lat="42.19071237622371" lon="12.56876318240385"><ele>247.6</ele><time>2026-04-30T17:35:41Z</time></trkpt><trkpt lat="42.19070646440213" lon="12.568908316314976"><ele>248.2</ele><time>2026-04-30T17:35:42Z</time></trkpt><trkpt lat="42.19067314103236" lon="12.569048647911323"><ele>248.8</ele><time>2026-04-30T17:35:43Z</time></trkpt><trkpt lat="42.190601243821064" lon="12.569161562572184"><ele>249.4</ele><time>2026-04-30T17:35:44Z</time></trkpt><trkpt lat="42.19050662642842" lon="12.569251328464343"><ele>250.0</ele><time>2026-04-30T17:35:45Z</time></trkpt><trkpt lat="42.19040968581444" lon="12.569311708928199"><ele>248.66666666666666</ele><time>2026-04-30T17:35:46Z</time></trkpt><trkpt lat="42.19032406015822" lon="12.569368729477832"><ele>247.33333333333331</ele><time>2026-04-30T17:35:47Z</time></trkpt><trkpt lat="42.19025541428712" lon="12.569425188034188"><ele>246.0</ele><time>2026-04-30T17:35:48Z</time></trkpt><trkpt lat="42.19019083456204" lon="12.56945251538244"><ele>244.66666666666669</ele><time>2026-04-30T17:35:49Z</time></trkpt><trkpt lat="42.190145370271296" lon="12.569379992291164"><ele>243.33333333333334</ele><time>2026-04-30T17:35:52Z</time></trkpt><trkpt lat="42.19020745774247" lon="12.569364356180236"><ele>242.0</ele><time>2026-04-30T17:35:59Z</time></trkpt><trkpt lat="42.190309810987436" lon="12.56932298452561"><ele>242.0</ele><time>2026-04-30T17:36:01Z</time></trkpt><trkpt lat="42.190391218253986" lon="12.569216986471961"><ele>242.0</ele><time>2026-04-30T17:36:02Z</time></trkpt><trkpt lat="42.1905105114065" lon="12.569158430076156"><ele>242.0</ele><time>2026-04-30T17:36:03Z</time></trkpt><trkpt lat="42.19058159031788" lon="12.569106837099152"><ele>242.0</ele><time>2026-04-30T17:36:04Z</time></trkpt><trkpt lat="42.19067528534779" lon="12.569036016413971"><ele>242.0</ele><time>2026-04-30T17:36:05Z</time></trkpt><trkpt lat="42.19076438051083" lon="12.568960768487926"><ele>242.0</ele><time>2026-04-30T17:36:06Z</time></trkpt><trkpt lat="42.19084499648652" lon="12.568902492247002"><ele>242.0</ele><time>2026-04-30T17:36:07Z</time></trkpt><trkpt lat="42.19065594659489" lon="12.569056029562768"><ele>242.0</ele><time>2026-04-30T17:36:08Z</time></trkpt><trkpt lat="42.19059512897971" lon="12.569097174838125"><ele>242.0</ele><time>2026-04-30T17:36:17.999Z</time></trkpt><trkpt lat="42.19050536089024" lon="12.569140859741317"><ele>242.0</ele><time>2026-04-30T17:37:09.999Z</time></trkpt><trkpt lat="42.19040976807447" lon="12.569236789056607"><ele>242.0</ele><time>2026-04-30T17:37:11.999Z</time></trkpt><trkpt lat="42.19032624590407" lon="12.569279048961752"><ele>242.0</ele><time>2026-04-30T17:37:12.999Z</time></trkpt><trkpt lat="42.19021656504941" lon="12.569346113720098"><ele>242.0</ele><time>2026-04-30T17:37:13.999Z</time></trkpt><trkpt lat="42.1901219665647" lon="12.5694060999505"><ele>242.0</ele><time>2026-04-30T17:37:14.999Z</time></trkpt><trkpt lat="42.19001992038119" lon="12.569486977942756"><ele>243.75</ele><time>2026-04-30T17:37:15.999Z</time></trkpt><trkpt lat="42.18991584772765" lon="12.569560260735884"><ele>245.5</ele><time>2026-04-30T17:37:16.998Z</time></trkpt><trkpt lat="42.18981312922664" lon="12.569633035609499"><ele>247.25</ele><time>2026-04-30T17:37:17.998Z</time></trkpt><trkpt lat="42.189706488326465" lon="12.56970600447373"><ele>249.0</ele><time>2026-04-30T17:37:18.998Z</time></trkpt><trkpt lat="42.189595532129744" lon="12.569764854196055"><ele>249.0</ele><time>2026-04-30T17:37:19.998Z</time></trkpt><trkpt lat="42.18947773339501" lon="12.569823175024448"><ele>249.0</ele><time>2026-04-30T17:37:20.998Z</time></trkpt><trkpt lat="42.189369569297064" lon="12.569859490844546"><ele>249.0</ele><time>2026-04-30T17:37:21.998Z</time></trkpt><trkpt lat="42.18925821277374" lon="12.569886617589598"><ele>249.0</ele><time>2026-04-30T17:37:22.998Z</time></trkpt><trkpt lat="42.18915731621523" lon="12.569925165482404"><ele>249.0</ele><time>2026-04-30T17:37:23.998Z</time></trkpt><trkpt lat="42.18901255430487" lon="12.569854924909578"><ele>249.0</ele><time>2026-04-30T17:37:24.998Z</time></trkpt><trkpt lat="42.188792033044486" lon="12.569840232045769"><ele>249.0</ele><time>2026-04-30T17:37:25.998Z</time></trkpt><trkpt lat="42.18860804669927" lon="12.569819205798101"><ele>249.0</ele><time>2026-04-30T17:37:26.998Z</time></trkpt><trkpt lat="42.18846151781685" lon="12.56975853760008"><ele>249.0</ele><time>2026-04-30T17:37:27.998Z</time></trkpt><trkpt lat="42.18828790759135" lon="12.569702466473784"><ele>249.0</ele><time>2026-04-30T17:37:28.998Z</time></trkpt><trkpt lat="42.188140280250664" lon="12.569626828564276"><ele>247.33333333333331</ele><time>2026-04-30T17:37:29.998Z</time></trkpt><trkpt lat="42.18798751130588" lon="12.569508707125953"><ele>245.66666666666666</ele><time>2026-04-30T17:37:30.998Z</time></trkpt><trkpt lat="42.18785391465568" lon="12.56938265393554"><ele>244.0</ele><time>2026-04-30T17:37:31.998Z</time></trkpt><trkpt lat="42.18771362311849" lon="12.569270025162204"><ele>244.0</ele><time>2026-04-30T17:37:32.998Z</time></trkpt><trkpt lat="42.18758258624732" lon="12.569156026323418"><ele>244.0</ele><time>2026-04-30T17:37:33.998Z</time></trkpt><trkpt lat="42.18742844372009" lon="12.569041317408628"><ele>244.0</ele><time>2026-04-30T17:37:34.998Z</time></trkpt><trkpt lat="42.18726886995109" lon="12.568968456046909"><ele>243.66666666666666</ele><time>2026-04-30T17:37:35.998Z</time></trkpt><trkpt lat="42.18712092704829" lon="12.568908439776967"><ele>243.33333333333331</ele><time>2026-04-30T17:37:36.998Z</time></trkpt><trkpt lat="42.186968141841206" lon="12.568865090610593"><ele>243.0</ele><time>2026-04-30T17:37:37.998Z</time></trkpt><trkpt lat="42.18680627326232" lon="12.568839958211658"><ele>243.0</ele><time>2026-04-30T17:37:38.998Z</time></trkpt><trkpt lat="42.186635658221576" lon="12.56882091766431"><ele>243.0</ele><time>2026-04-30T17:37:39.998Z</time></trkpt><trkpt lat="42.18647310438155" lon="12.568815838764328"><ele>243.0</ele><time>2026-04-30T17:37:41Z</time></trkpt><trkpt lat="42.18631323803568" lon="12.56879719964207"><ele>240.33333333333331</ele><time>2026-04-30T17:37:42Z</time></trkpt><trkpt lat="42.18615159706038" lon="12.568780919198385"><ele>237.66666666666666</ele><time>2026-04-30T17:37:43Z</time></trkpt><trkpt lat="42.185987062818256" lon="12.568762936646852"><ele>235.0</ele><time>2026-04-30T17:37:44Z</time></trkpt><trkpt lat="42.18582873332533" lon="12.568750425208899"><ele>233.33333333333331</ele><time>2026-04-30T17:37:45Z</time></trkpt><trkpt lat="42.1856621042175" lon="12.56872921211385"><ele>231.66666666666669</ele><time>2026-04-30T17:37:46Z</time></trkpt><trkpt lat="42.18549330337889" lon="12.568710213313427"><ele>230.0</ele><time>2026-04-30T17:37:47Z</time></trkpt><trkpt lat="42.18532570289752" lon="12.568688210391837"><ele>230.0</ele><time>2026-04-30T17:37:48Z</time></trkpt><trkpt lat="42.18514412586285" lon="12.568669506592096"><ele>230.0</ele><time>2026-04-30T17:37:49Z</time></trkpt><trkpt lat="42.184945050932335" lon="12.56863938478517"><ele>230.0</ele><time>2026-04-30T17:37:50Z</time></trkpt><trkpt lat="42.18474714483696" lon="12.568620596186836"><ele>228.33333333333334</ele><time>2026-04-30T17:37:51Z</time></trkpt><trkpt lat="42.184556200962454" lon="12.568596165465276"><ele>226.66666666666669</ele><time>2026-04-30T17:37:52Z</time></trkpt><trkpt lat="42.18435714776342" lon="12.568576800345523"><ele>225.0</ele><time>2026-04-30T17:37:53Z</time></trkpt><trkpt lat="42.1841579811772" lon="12.568556529686042"><ele>225.0</ele><time>2026-04-30T17:37:54Z</time></trkpt><trkpt lat="42.18394645541937" lon="12.568526607395325"><ele>225.0</ele><time>2026-04-30T17:37:55Z</time></trkpt><trkpt lat="42.18373331039516" lon="12.568502132339752"><ele>225.0</ele><time>2026-04-30T17:37:56Z</time></trkpt><trkpt lat="42.1835204460471" lon="12.568479539884722"><ele>225.0</ele><time>2026-04-30T17:37:57Z</time></trkpt><trkpt lat="42.183305963441086" lon="12.568458062991462"><ele>225.0</ele><time>2026-04-30T17:37:58Z</time></trkpt><trkpt lat="42.183093631423624" lon="12.568431870116719"><ele>225.0</ele><time>2026-04-30T17:37:59Z</time></trkpt><trkpt lat="42.1828829489623" lon="12.568405232978595"><ele>222.66666666666669</ele><time>2026-04-30T17:38:00Z</time></trkpt><trkpt lat="42.182675357129206" lon="12.56838091638643"><ele>220.33333333333334</ele><time>2026-04-30T17:38:01Z</time></trkpt><trkpt lat="42.18247012671409" lon="12.568359859616875"><ele>218.0</ele><time>2026-04-30T17:38:02Z</time></trkpt><trkpt lat="42.182267624373786" lon="12.5683390503347"><ele>217.0</ele><time>2026-04-30T17:38:03Z</time></trkpt><trkpt lat="42.18207229673906" lon="12.56830162561348"><ele>216.0</ele><time>2026-04-30T17:38:04Z</time></trkpt><trkpt lat="42.18188502822082" lon="12.568236600248781"><ele>215.0</ele><time>2026-04-30T17:38:05Z</time></trkpt><trkpt lat="42.181704408887505" lon="12.568146127618771"><ele>215.0</ele><time>2026-04-30T17:38:06Z</time></trkpt><trkpt lat="42.18153603291749" lon="12.568014285844574"><ele>215.0</ele><time>2026-04-30T17:38:07Z</time></trkpt><trkpt lat="42.181374215504746" lon="12.567879153130674"><ele>215.0</ele><time>2026-04-30T17:38:08Z</time></trkpt><trkpt lat="42.18119312280074" lon="12.567740776412363"><ele>216.33333333333334</ele><time>2026-04-30T17:38:09Z</time></trkpt><trkpt lat="42.18101092205834" lon="12.567601554726926"><ele>217.66666666666669</ele><time>2026-04-30T17:38:10Z</time></trkpt><trkpt lat="42.18084233874186" lon="12.567472739278465"><ele>219.0</ele><time>2026-04-30T17:38:11Z</time></trkpt><trkpt lat="42.18067842752572" lon="12.56734749380748"><ele>219.0</ele><time>2026-04-30T17:38:12Z</time></trkpt><trkpt lat="42.18050864525532" lon="12.56722204819635"><ele>219.0</ele><time>2026-04-30T17:38:13Z</time></trkpt><trkpt lat="42.18030396655804" lon="12.567244226619668"><ele>219.0</ele><time>2026-04-30T17:38:14Z</time></trkpt><trkpt lat="42.180109728154015" lon="12.567214306808857"><ele>219.0</ele><time>2026-04-30T17:38:14.999Z</time></trkpt><trkpt lat="42.17991578726636" lon="12.567191780878192"><ele>219.0</ele><time>2026-04-30T17:38:15.999Z</time></trkpt><trkpt lat="42.1797194944437" lon="12.567167409602163"><ele>219.0</ele><time>2026-04-30T17:38:16.999Z</time></trkpt><trkpt lat="42.179523114345585" lon="12.567144468995297"><ele>219.33333333333331</ele><time>2026-04-30T17:38:17.999Z</time></trkpt><trkpt lat="42.17932565131168" lon="12.567141897971773"><ele>219.66666666666666</ele><time>2026-04-30T17:38:18.999Z</time></trkpt><trkpt lat="42.179131878934136" lon="12.56714609065804"><ele>220.0</ele><time>2026-04-30T17:38:19.999Z</time></trkpt><trkpt lat="42.17893608618213" lon="12.567148156655689"><ele>220.0</ele><time>2026-04-30T17:38:20.999Z</time></trkpt><trkpt lat="42.178740987246954" lon="12.56715836094348"><ele>220.0</ele><time>2026-04-30T17:38:21.999Z</time></trkpt><trkpt lat="42.17854466748043" lon="12.56716876892213"><ele>220.0</ele><time>2026-04-30T17:38:22.999Z</time></trkpt><trkpt lat="42.17835383698974" lon="12.567176466627224"><ele>219.0</ele><time>2026-04-30T17:38:23.999Z</time></trkpt><trkpt lat="42.17817302127259" lon="12.567182554545264"><ele>218.0</ele><time>2026-04-30T17:38:24.999Z</time></trkpt><trkpt lat="42.178008445438174" lon="12.567178550789203"><ele>217.0</ele><time>2026-04-30T17:38:25.999Z</time></trkpt><trkpt lat="42.177854409469326" lon="12.567174131134585"><ele>217.0</ele><time>2026-04-30T17:38:26.999Z</time></trkpt><trkpt lat="42.177716918759884" lon="12.567197481801404"><ele>217.0</ele><time>2026-04-30T17:38:27.999Z</time></trkpt><trkpt lat="42.17757625814027" lon="12.567234382533162"><ele>217.0</ele><time>2026-04-30T17:38:28.999Z</time></trkpt><trkpt lat="42.17743046546481" lon="12.567310881430332"><ele>217.0</ele><time>2026-04-30T17:38:29.999Z</time></trkpt><trkpt lat="42.17729080386371" lon="12.567412420903564"><ele>214.66666666666666</ele><time>2026-04-30T17:38:30.999Z</time></trkpt><trkpt lat="42.17715903111029" lon="12.567521697876689"><ele>212.33333333333331</ele><time>2026-04-30T17:38:31.999Z</time></trkpt><trkpt lat="42.177024260891734" lon="12.567688730915187"><ele>210.0</ele><time>2026-04-30T17:38:32.999Z</time></trkpt><trkpt lat="42.17689424496327" lon="12.567814223933166"><ele>210.66666666666669</ele><time>2026-04-30T17:38:33.999Z</time></trkpt><trkpt lat="42.17674512755644" lon="12.567960805492781"><ele>211.33333333333334</ele><time>2026-04-30T17:38:34.999Z</time></trkpt><trkpt lat="42.176557402045745" lon="12.56812599266791"><ele>212.0</ele><time>2026-04-30T17:38:35.999Z</time></trkpt><trkpt lat="42.176393246521165" lon="12.5682739102579"><ele>209.66666666666669</ele><time>2026-04-30T17:38:36.999Z</time></trkpt><trkpt lat="42.176236134078515" lon="12.568416207099776"><ele>207.33333333333331</ele><time>2026-04-30T17:38:37.999Z</time></trkpt><trkpt lat="42.17608016344987" lon="12.568560542670655"><ele>205.0</ele><time>2026-04-30T17:38:38.999Z</time></trkpt><trkpt lat="42.175934951963306" lon="12.568704481303893"><ele>205.0</ele><time>2026-04-30T17:38:39.999Z</time></trkpt><trkpt lat="42.1758018128054" lon="12.568865409113627"><ele>205.0</ele><time>2026-04-30T17:38:40.999Z</time></trkpt><trkpt lat="42.17570154306089" lon="12.569061876891677"><ele>205.0</ele><time>2026-04-30T17:38:41.999Z</time></trkpt><trkpt lat="42.17562514994306" lon="12.569282036703902"><ele>208.0</ele><time>2026-04-30T17:38:42.999Z</time></trkpt><trkpt lat="42.17557294252895" lon="12.569518898069962"><ele>211.0</ele><time>2026-04-30T17:38:43.999Z</time></trkpt><trkpt lat="42.17551411742716" lon="12.56975154699683"><ele>214.0</ele><time>2026-04-30T17:38:44.999Z</time></trkpt><trkpt lat="42.17543530857801" lon="12.569985753174985"><ele>214.0</ele><time>2026-04-30T17:38:45.999Z</time></trkpt><trkpt lat="42.17535621179109" lon="12.570208601855407"><ele>214.0</ele><time>2026-04-30T17:38:46.999Z</time></trkpt><trkpt lat="42.175263833965985" lon="12.570428254905547"><ele>214.0</ele><time>2026-04-30T17:38:47.999Z</time></trkpt><trkpt lat="42.17516063116597" lon="12.57063828322898"><ele>214.33333333333331</ele><time>2026-04-30T17:38:48.999Z</time></trkpt><trkpt lat="42.17504487891676" lon="12.570788803938067"><ele>214.66666666666669</ele><time>2026-04-30T17:38:49.999Z</time></trkpt><trkpt lat="42.17492139687014" lon="12.570957986167736"><ele>215.0</ele><time>2026-04-30T17:38:50.999Z</time></trkpt><trkpt lat="42.17478790607785" lon="12.571107603804188"><ele>211.33333333333334</ele><time>2026-04-30T17:38:51.999Z</time></trkpt><trkpt lat="42.174631751863" lon="12.571223592143308"><ele>207.66666666666669</ele><time>2026-04-30T17:38:52.999Z</time></trkpt><trkpt lat="42.174485323897265" lon="12.571359015834451"><ele>204.0</ele><time>2026-04-30T17:38:53.999Z</time></trkpt><trkpt lat="42.17434103612448" lon="12.571517262087875"><ele>204.0</ele><time>2026-04-30T17:38:54.999Z</time></trkpt><trkpt lat="42.17420938604098" lon="12.571682986470169"><ele>204.0</ele><time>2026-04-30T17:38:55.999Z</time></trkpt><trkpt lat="42.174090501088436" lon="12.571863944683368"><ele>204.0</ele><time>2026-04-30T17:38:56.999Z</time></trkpt><trkpt lat="42.17394772317809" lon="12.572043868354484"><ele>203.33333333333331</ele><time>2026-04-30T17:38:57.999Z</time></trkpt><trkpt lat="42.173836166114896" lon="12.572195979844835"><ele>202.66666666666666</ele><time>2026-04-30T17:38:58.999Z</time></trkpt><trkpt lat="42.17372567745409" lon="12.572346928954028"><ele>202.0</ele><time>2026-04-30T17:38:59.999Z</time></trkpt><trkpt lat="42.1736468474088" lon="12.572501663342173"><ele>202.0</ele><time>2026-04-30T17:39:00.999Z</time></trkpt><trkpt lat="42.17362999755563" lon="12.5726464333698"><ele>202.0</ele><time>2026-04-30T17:39:01.999Z</time></trkpt><trkpt lat="42.17369894993045" lon="12.5727960122597"><ele>202.0</ele><time>2026-04-30T17:39:02.999Z</time></trkpt><trkpt lat="42.173728116925574" lon="12.572927397011366"><ele>202.0</ele><time>2026-04-30T17:39:03.999Z</time></trkpt><trkpt lat="42.17383846714494" lon="12.573057124189843"><ele>203.0</ele><time>2026-04-30T17:39:04.999Z</time></trkpt><trkpt lat="42.17404335673969" lon="12.573010963310463"><ele>204.0</ele><time>2026-04-30T17:39:05.999Z</time></trkpt><trkpt lat="42.174165090728636" lon="12.573147319098158"><ele>205.0</ele><time>2026-04-30T17:39:06.999Z</time></trkpt><trkpt lat="42.17419007019846" lon="12.573499394665506"><ele>204.75</ele><time>2026-04-30T17:39:07.999Z</time></trkpt><trkpt lat="42.1741103367972" lon="12.573706701158098"><ele>204.5</ele><time>2026-04-30T17:39:08.999Z</time></trkpt><trkpt lat="42.174065449112916" lon="12.573832565821876"><ele>204.25</ele><time>2026-04-30T17:39:09.999Z</time></trkpt><trkpt lat="42.17400981266978" lon="12.573992082851898"><ele>204.0</ele><time>2026-04-30T17:39:10.999Z</time></trkpt><trkpt lat="42.173968427986296" lon="12.574113049339699"><ele>205.0</ele><time>2026-04-30T17:39:11.999Z</time></trkpt><trkpt lat="42.173939521092734" lon="12.574202790828764"><ele>206.0</ele><time>2026-04-30T17:39:12.999Z</time></trkpt><trkpt lat="42.17391237405687" lon="12.574325683277358"><ele>207.0</ele><time>2026-04-30T17:39:13.999Z</time></trkpt><trkpt lat="42.173890705547926" lon="12.574445584737834"><ele>208.0</ele><time>2026-04-30T17:39:14.999Z</time></trkpt><trkpt lat="42.17389160885682" lon="12.574550625600605"><ele>209.0</ele><time>2026-04-30T17:39:15.999Z</time></trkpt><trkpt lat="42.17391542998355" lon="12.574654476523861"><ele>210.0</ele><time>2026-04-30T17:39:16.999Z</time></trkpt><trkpt lat="42.17396306303903" lon="12.574751683574501"><ele>209.25</ele><time>2026-04-30T17:39:17.998Z</time></trkpt><trkpt lat="42.17403846885393" lon="12.57490910473374"><ele>208.5</ele><time>2026-04-30T17:39:18.998Z</time></trkpt><trkpt lat="42.17414317439679" lon="12.575008282366158"><ele>207.75</ele><time>2026-04-30T17:39:19.998Z</time></trkpt><trkpt lat="42.17423017961937" lon="12.575158727427144"><ele>207.0</ele><time>2026-04-30T17:39:20.998Z</time></trkpt><trkpt lat="42.17428689021209" lon="12.57531140903661"><ele>207.25</ele><time>2026-04-30T17:39:21.998Z</time></trkpt><trkpt lat="42.17433237787318" lon="12.575475682652732"><ele>207.5</ele><time>2026-04-30T17:39:22.998Z</time></trkpt><trkpt lat="42.17435982487079" lon="12.57563566280245"><ele>207.75</ele><time>2026-04-30T17:39:23.998Z</time></trkpt><trkpt lat="42.17436677073391" lon="12.575789181255384"><ele>208.0</ele><time>2026-04-30T17:39:24.998Z</time></trkpt><trkpt lat="42.174342883187954" lon="12.575939572234768"><ele>208.0</ele><time>2026-04-30T17:39:25.998Z</time></trkpt><trkpt lat="42.174297134226656" lon="12.576063364434296"><ele>208.0</ele><time>2026-04-30T17:39:26.998Z</time></trkpt><trkpt lat="42.17424498783625" lon="12.576171999879971"><ele>208.0</ele><time>2026-04-30T17:39:27.998Z</time></trkpt><trkpt lat="42.174179012386105" lon="12.576291901113445"><ele>208.0</ele><time>2026-04-30T17:39:28.998Z</time></trkpt><trkpt lat="42.1740940243113" lon="12.57643405301985"><ele>208.0</ele><time>2026-04-30T17:39:29.998Z</time></trkpt><trkpt lat="42.17401575084585" lon="12.576575746446515"><ele>208.25</ele><time>2026-04-30T17:39:30.998Z</time></trkpt><trkpt lat="42.17393229391805" lon="12.57672644348805"><ele>208.5</ele><time>2026-04-30T17:39:31.998Z</time></trkpt><trkpt lat="42.173845824121464" lon="12.576909387409373"><ele>208.75</ele><time>2026-04-30T17:39:32.998Z</time></trkpt><trkpt lat="42.173794920677274" lon="12.57706959596071"><ele>209.0</ele><time>2026-04-30T17:39:33.998Z</time></trkpt><trkpt lat="42.17374057864343" lon="12.57723656548201"><ele>207.5</ele><time>2026-04-30T17:39:34.998Z</time></trkpt><trkpt lat="42.17374880168446" lon="12.577429221155839"><ele>206.0</ele><time>2026-04-30T17:39:35.998Z</time></trkpt><trkpt lat="42.17378641449848" lon="12.577593398573908"><ele>204.5</ele><time>2026-04-30T17:39:36.998Z</time></trkpt><trkpt lat="42.17383016370987" lon="12.577731058288673"><ele>203.0</ele><time>2026-04-30T17:39:37.998Z</time></trkpt><trkpt lat="42.17386337257387" lon="12.577867005020162"><ele>201.0</ele><time>2026-04-30T17:39:38.998Z</time></trkpt><trkpt lat="42.17385877983024" lon="12.57802896953486"><ele>199.0</ele><time>2026-04-30T17:39:39.998Z</time></trkpt><trkpt lat="42.17382131131518" lon="12.57817540079215"><ele>197.0</ele><time>2026-04-30T17:39:40.998Z</time></trkpt><trkpt lat="42.173729596333644" lon="12.578313135759815"><ele>195.0</ele><time>2026-04-30T17:39:41.998Z</time></trkpt><trkpt lat="42.17364852758862" lon="12.578464478849554"><ele>195.0</ele><time>2026-04-30T17:39:42.998Z</time></trkpt><trkpt lat="42.17355061523198" lon="12.578631619255006"><ele>195.0</ele><time>2026-04-30T17:39:43.998Z</time></trkpt><trkpt lat="42.173453566389014" lon="12.578772338682061"><ele>195.0</ele><time>2026-04-30T17:39:44.998Z</time></trkpt><trkpt lat="42.173355008643874" lon="12.578923622786947"><ele>193.5</ele><time>2026-04-30T17:39:45.998Z</time></trkpt><trkpt lat="42.17328401059432" lon="12.579103474798327"><ele>192.0</ele><time>2026-04-30T17:39:47Z</time></trkpt><trkpt lat="42.17324980813448" lon="12.579283529858959"><ele>190.5</ele><time>2026-04-30T17:39:48Z</time></trkpt><trkpt lat="42.173251265756214" lon="12.57944525437871"><ele>189.0</ele><time>2026-04-30T17:39:49Z</time></trkpt><trkpt lat="42.17329106971839" lon="12.57960106269904"><ele>187.0</ele><time>2026-04-30T17:39:50Z</time></trkpt><trkpt lat="42.17336105191699" lon="12.5797475536741"><ele>185.0</ele><time>2026-04-30T17:39:51Z</time></trkpt><trkpt lat="42.173434052288215" lon="12.579887239100561"><ele>183.0</ele><time>2026-04-30T17:39:52Z</time></trkpt><trkpt lat="42.17350795739909" lon="12.580006866678568"><ele>181.0</ele><time>2026-04-30T17:39:53Z</time></trkpt><trkpt lat="42.173555588354034" lon="12.580125862525213"><ele>181.0</ele><time>2026-04-30T17:39:54Z</time></trkpt><trkpt lat="42.173573944558456" lon="12.580250996202036"><ele>181.0</ele><time>2026-04-30T17:39:55Z</time></trkpt><trkpt lat="42.17356492222509" lon="12.580376463401045"><ele>181.0</ele><time>2026-04-30T17:39:56Z</time></trkpt><trkpt lat="42.17350814061473" lon="12.580481362468623"><ele>181.0</ele><time>2026-04-30T17:39:57Z</time></trkpt><trkpt lat="42.173439471679146" lon="12.580586243479454"><ele>181.0</ele><time>2026-04-30T17:39:58Z</time></trkpt><trkpt lat="42.17336949179288" lon="12.5806965869213"><ele>181.8</ele><time>2026-04-30T17:39:59Z</time></trkpt><trkpt lat="42.17329299643043" lon="12.580778825632152"><ele>182.60000000000002</ele><time>2026-04-30T17:40:00Z</time></trkpt><trkpt lat="42.17322799597385" lon="12.580872655447418"><ele>183.4</ele><time>2026-04-30T17:40:01Z</time></trkpt><trkpt lat="42.17317738692071" lon="12.580983865172882"><ele>184.2</ele><time>2026-04-30T17:40:02Z</time></trkpt><trkpt lat="42.17314075794161" lon="12.581119073230111"><ele>185.0</ele><time>2026-04-30T17:40:03Z</time></trkpt><trkpt lat="42.17313575157639" lon="12.581263652734034"><ele>185.0</ele><time>2026-04-30T17:40:04Z</time></trkpt><trkpt lat="42.17313512033299" lon="12.58141398232259"><ele>185.0</ele><time>2026-04-30T17:40:05Z</time></trkpt><trkpt lat="42.173130293615145" lon="12.581565358507206"><ele>185.0</ele><time>2026-04-30T17:40:06Z</time></trkpt><trkpt lat="42.1731232451747" lon="12.58171410236643"><ele>185.0</ele><time>2026-04-30T17:40:07Z</time></trkpt><trkpt lat="42.17311561770061" lon="12.581860061811597"><ele>185.0</ele><time>2026-04-30T17:40:08Z</time></trkpt><trkpt lat="42.17310213979587" lon="12.582005757642298"><ele>183.5</ele><time>2026-04-30T17:40:09Z</time></trkpt><trkpt lat="42.173083997885136" lon="12.58215277117126"><ele>182.0</ele><time>2026-04-30T17:40:10Z</time></trkpt><trkpt lat="42.173044977903736" lon="12.582298353900496"><ele>180.5</ele><time>2026-04-30T17:40:11Z</time></trkpt><trkpt lat="42.17302103592147" lon="12.582461813038721"><ele>179.0</ele><time>2026-04-30T17:40:12Z</time></trkpt><trkpt lat="42.17298222844574" lon="12.582618832328071"><ele>179.0</ele><time>2026-04-30T17:40:13Z</time></trkpt><trkpt lat="42.17294159038882" lon="12.58277748890758"><ele>179.0</ele><time>2026-04-30T17:40:14Z</time></trkpt><trkpt lat="42.172899621340136" lon="12.582939773542213"><ele>179.0</ele><time>2026-04-30T17:40:15Z</time></trkpt><trkpt lat="42.17284985984927" lon="12.583106600670122"><ele>179.0</ele><time>2026-04-30T17:40:16Z</time></trkpt><trkpt lat="42.1727903711153" lon="12.58328796165865"><ele>175.5</ele><time>2026-04-30T17:40:17Z</time></trkpt><trkpt lat="42.172728997155176" lon="12.583456208334823"><ele>172.0</ele><time>2026-04-30T17:40:17.999Z</time></trkpt><trkpt lat="42.1726457768093" lon="12.583627857606125"><ele>168.5</ele><time>2026-04-30T17:40:18.999Z</time></trkpt><trkpt lat="42.172575996693" lon="12.58378408698138"><ele>165.0</ele><time>2026-04-30T17:40:19.999Z</time></trkpt><trkpt lat="42.17250896949294" lon="12.583929519081135"><ele>164.2</ele><time>2026-04-30T17:40:20.999Z</time></trkpt><trkpt lat="42.17245264667787" lon="12.58406450564894"><ele>163.4</ele><time>2026-04-30T17:40:21.999Z</time></trkpt><trkpt lat="42.17239680242227" lon="12.584194848907883"><ele>162.60000000000002</ele><time>2026-04-30T17:40:22.999Z</time></trkpt><trkpt lat="42.172342427167926" lon="12.584317771306484"><ele>161.8</ele><time>2026-04-30T17:40:23.999Z</time></trkpt><trkpt lat="42.17226209080727" lon="12.5844307291129"><ele>161.0</ele><time>2026-04-30T17:40:24.999Z</time></trkpt><trkpt lat="42.17217245241502" lon="12.58452936701917"><ele>158.8</ele><time>2026-04-30T17:40:25.999Z</time></trkpt><trkpt lat="42.17207097330046" lon="12.584606025035427"><ele>156.60000000000002</ele><time>2026-04-30T17:40:26.999Z</time></trkpt><trkpt lat="42.171976597876665" lon="12.58468272428445"><ele>154.4</ele><time>2026-04-30T17:40:27.999Z</time></trkpt><trkpt lat="42.17189336143663" lon="12.584778863811282"><ele>152.2</ele><time>2026-04-30T17:40:28.999Z</time></trkpt><trkpt lat="42.17181959143593" lon="12.584893837709581"><ele>150.0</ele><time>2026-04-30T17:40:29.999Z</time></trkpt><trkpt lat="42.171756894114466" lon="12.5850440224858"><ele>150.0</ele><time>2026-04-30T17:40:30.999Z</time></trkpt><trkpt lat="42.17169933562573" lon="12.585201889089713"><ele>150.0</ele><time>2026-04-30T17:40:31.999Z</time></trkpt><trkpt lat="42.17165132038363" lon="12.585344234674105"><ele>150.0</ele><time>2026-04-30T17:40:32.999Z</time></trkpt><trkpt lat="42.17161832068377" lon="12.585482214558764"><ele>150.0</ele><time>2026-04-30T17:40:33.999Z</time></trkpt><trkpt lat="42.1715715941111" lon="12.58559233561983"><ele>150.0</ele><time>2026-04-30T17:40:34.999Z</time></trkpt><trkpt lat="42.17155024853938" lon="12.585716717407124"><ele>149.0</ele><time>2026-04-30T17:40:35.999Z</time></trkpt><trkpt lat="42.17151982556616" lon="12.585820019598845"><ele>148.0</ele><time>2026-04-30T17:40:36.999Z</time></trkpt><trkpt lat="42.171479582772754" lon="12.585893423140812"><ele>147.0</ele><time>2026-04-30T17:40:37.999Z</time></trkpt><trkpt lat="42.171437907591894" lon="12.58602965379967"><ele>146.0</ele><time>2026-04-30T17:40:39.999Z</time></trkpt><trkpt lat="42.171342405922886" lon="12.586143502534455"><ele>145.0</ele><time>2026-04-30T17:40:41.999Z</time></trkpt><trkpt lat="42.17125980862661" lon="12.586188418098375"><ele>145.0</ele><time>2026-04-30T17:40:42.999Z</time></trkpt><trkpt lat="42.171157631782066" lon="12.586210065433878"><ele>145.0</ele><time>2026-04-30T17:40:43.999Z</time></trkpt><trkpt lat="42.171046036125865" lon="12.586210024717586"><ele>145.0</ele><time>2026-04-30T17:40:44.999Z</time></trkpt><trkpt lat="42.17093613279696" lon="12.586190139149268"><ele>145.0</ele><time>2026-04-30T17:40:45.999Z</time></trkpt><trkpt lat="42.17082030951223" lon="12.586144990298061"><ele>145.0</ele><time>2026-04-30T17:40:46.999Z</time></trkpt><trkpt lat="42.17070075223694" lon="12.586125198467478"><ele>143.0</ele><time>2026-04-30T17:40:47.999Z</time></trkpt><trkpt lat="42.17058600969208" lon="12.586105904916858"><ele>141.0</ele><time>2026-04-30T17:40:48.999Z</time></trkpt><trkpt lat="42.17046924734087" lon="12.586088513319252"><ele>139.0</ele><time>2026-04-30T17:40:49.999Z</time></trkpt><trkpt lat="42.17035216868868" lon="12.586049371463698"><ele>137.0</ele><time>2026-04-30T17:40:50.999Z</time></trkpt><trkpt lat="42.170232256013605" lon="12.585981035276845"><ele>137.0</ele><time>2026-04-30T17:40:51.999Z</time></trkpt><trkpt lat="42.170122284333246" lon="12.585891979631688"><ele>137.0</ele><time>2026-04-30T17:40:52.999Z</time></trkpt><trkpt lat="42.17001883934673" lon="12.585804881635477"><ele>137.0</ele><time>2026-04-30T17:40:53.999Z</time></trkpt><trkpt lat="42.16991968382833" lon="12.585719016931987"><ele>137.0</ele><time>2026-04-30T17:40:54.999Z</time></trkpt><trkpt lat="42.169831729643995" lon="12.58564308789891"><ele>135.16666666666666</ele><time>2026-04-30T17:40:55.999Z</time></trkpt><trkpt lat="42.16975068924494" lon="12.585573819770723"><ele>133.33333333333331</ele><time>2026-04-30T17:40:56.999Z</time></trkpt><trkpt lat="42.169673226755584" lon="12.585512751633148"><ele>131.5</ele><time>2026-04-30T17:40:57.999Z</time></trkpt><trkpt lat="42.16960647662642" lon="12.585452782047769"><ele>129.66666666666666</ele><time>2026-04-30T17:40:58.999Z</time></trkpt><trkpt lat="42.16955282641542" lon="12.585372641872455"><ele>127.83333333333333</ele><time>2026-04-30T17:40:59.999Z</time></trkpt><trkpt lat="42.169526684255565" lon="12.585262683163803"><ele>126.0</ele><time>2026-04-30T17:41:00.999Z</time></trkpt><trkpt lat="42.16949550409633" lon="12.58515355595955"><ele>125.83333333333333</ele><time>2026-04-30T17:41:01.999Z</time></trkpt><trkpt lat="42.16943757558713" lon="12.585059684568263"><ele>125.66666666666666</ele><time>2026-04-30T17:41:02.999Z</time></trkpt><trkpt lat="42.16936916525226" lon="12.58498025328316"><ele>125.5</ele><time>2026-04-30T17:41:03.999Z</time></trkpt><trkpt lat="42.16928561815354" lon="12.58492757715683"><ele>125.33333333333333</ele><time>2026-04-30T17:41:04.999Z</time></trkpt><trkpt lat="42.16919785578622" lon="12.584887991443201"><ele>125.16666666666666</ele><time>2026-04-30T17:41:05.999Z</time></trkpt><trkpt lat="42.169120059832174" lon="12.584868461465701"><ele>125.0</ele><time>2026-04-30T17:41:06.999Z</time></trkpt><trkpt lat="42.16904470934041" lon="12.584862504698382"><ele>123.99999999999999</ele><time>2026-04-30T17:41:07.999Z</time></trkpt><trkpt lat="42.16896950398428" lon="12.58485357493309"><ele>123.0</ele><time>2026-04-30T17:41:08.999Z</time></trkpt><trkpt lat="42.1688921506565" lon="12.58484386497135"><ele>122.0</ele><time>2026-04-30T17:41:09.999Z</time></trkpt><trkpt lat="42.16880762935444" lon="12.584835992874437"><ele>121.0</ele><time>2026-04-30T17:41:10.999Z</time></trkpt><trkpt lat="42.16872836118145" lon="12.584828062593838"><ele>119.99999999999999</ele><time>2026-04-30T17:41:11.999Z</time></trkpt><trkpt lat="42.16864997842082" lon="12.584822321869106"><ele>119.0</ele><time>2026-04-30T17:41:12.999Z</time></trkpt><trkpt lat="42.16857324404856" lon="12.584813832016744"><ele>118.99999999999999</ele><time>2026-04-30T17:41:13.999Z</time></trkpt><trkpt lat="42.16850119181637" lon="12.584803510953153"><ele>119.0</ele><time>2026-04-30T17:41:14.999Z</time></trkpt><trkpt lat="42.16842411391426" lon="12.584793615875288"><ele>119.0</ele><time>2026-04-30T17:41:15.999Z</time></trkpt><trkpt lat="42.168351200197414" lon="12.584786793116974"><ele>119.0</ele><time>2026-04-30T17:41:16.999Z</time></trkpt><trkpt lat="42.168285087027144" lon="12.584778764199779"><ele>118.99999999999999</ele><time>2026-04-30T17:41:17.999Z</time></trkpt><trkpt lat="42.168221717991585" lon="12.58476480115218"><ele>119.0</ele><time>2026-04-30T17:41:18.999Z</time></trkpt><trkpt lat="42.168114416304725" lon="12.584748489474663"><ele>120.80000000000001</ele><time>2026-04-30T17:41:20.999Z</time></trkpt><trkpt lat="42.16807433604541" lon="12.584872633793628"><ele>122.60000000000001</ele><time>2026-04-30T17:41:22.999Z</time></trkpt><trkpt lat="42.168070083964075" lon="12.585045895907239"><ele>124.4</ele><time>2026-04-30T17:41:24.998Z</time></trkpt><trkpt lat="42.16805934902954" lon="12.58515373255899"><ele>126.2</ele><time>2026-04-30T17:41:25.998Z</time></trkpt><trkpt lat="42.16805199616389" lon="12.58527553289096"><ele>128.0</ele><time>2026-04-30T17:41:26.998Z</time></trkpt><trkpt lat="42.168048248039916" lon="12.585404224014212"><ele>127.99999999999999</ele><time>2026-04-30T17:41:27.998Z</time></trkpt><trkpt lat="42.16804580580963" lon="12.58553389503714"><ele>128.0</ele><time>2026-04-30T17:41:28.998Z</time></trkpt><trkpt lat="42.168052262533806" lon="12.585656240336666"><ele>128.0</ele><time>2026-04-30T17:41:29.998Z</time></trkpt><trkpt lat="42.168068019055255" lon="12.58577036002535"><ele>128.0</ele><time>2026-04-30T17:41:30.998Z</time></trkpt><trkpt lat="42.16806537860812" lon="12.585886343155027"><ele>127.99999999999999</ele><time>2026-04-30T17:41:31.998Z</time></trkpt><trkpt lat="42.168074609151255" lon="12.586003580775357"><ele>128.0</ele><time>2026-04-30T17:41:32.998Z</time></trkpt><trkpt lat="42.16807148955175" lon="12.586120689154086"><ele>126.16666666666666</ele><time>2026-04-30T17:41:33.998Z</time></trkpt><trkpt lat="42.168039633773255" lon="12.58623263810824"><ele>124.33333333333333</ele><time>2026-04-30T17:41:34.998Z</time></trkpt><trkpt lat="42.167989975324836" lon="12.58633009415322"><ele>122.5</ele><time>2026-04-30T17:41:35.998Z</time></trkpt><trkpt lat="42.16795307014551" lon="12.586438572432714"><ele>120.66666666666666</ele><time>2026-04-30T17:41:36.998Z</time></trkpt><trkpt lat="42.16793424878827" lon="12.586546906206967"><ele>118.83333333333333</ele><time>2026-04-30T17:41:37.998Z</time></trkpt><trkpt lat="42.167947098962" lon="12.586660740545435"><ele>117.0</ele><time>2026-04-30T17:41:38.998Z</time></trkpt><trkpt lat="42.16795816812943" lon="12.586798277783426"><ele>117.0</ele><time>2026-04-30T17:41:40.998Z</time></trkpt><trkpt lat="42.1679625723035" lon="12.58689386880822"><ele>117.0</ele><time>2026-04-30T17:41:42.998Z</time></trkpt><trkpt lat="42.16795841512167" lon="12.587005865855069"><ele>117.0</ele><time>2026-04-30T17:41:45.998Z</time></trkpt><trkpt lat="42.16789561743699" lon="12.58708207155864"><ele>117.0</ele><time>2026-04-30T17:41:47.998Z</time></trkpt><trkpt lat="42.16781545946004" lon="12.587101658160352"><ele>117.0</ele><time>2026-04-30T17:41:49.998Z</time></trkpt><trkpt lat="42.16775597010427" lon="12.587134645865843"><ele>117.0</ele><time>2026-04-30T17:41:52Z</time></trkpt><trkpt lat="42.16763278789116" lon="12.587179275055648"><ele>116.66666666666667</ele><time>2026-04-30T17:41:54Z</time></trkpt><trkpt lat="42.16756606040544" lon="12.587215940630793"><ele>116.33333333333334</ele><time>2026-04-30T17:41:55Z</time></trkpt><trkpt lat="42.167495866553054" lon="12.587253530470116"><ele>116.0</ele><time>2026-04-30T17:41:56Z</time></trkpt><trkpt lat="42.167415398129435" lon="12.587298487020679"><ele>115.66666666666667</ele><time>2026-04-30T17:41:57Z</time></trkpt><trkpt lat="42.16733243433881" lon="12.587347947315932"><ele>115.33333333333334</ele><time>2026-04-30T17:41:58Z</time></trkpt><trkpt lat="42.167260149577736" lon="12.587391203935653"><ele>115.0</ele><time>2026-04-30T17:42:00Z</time></trkpt><trkpt lat="42.16734462400963" lon="12.58751166405926"><ele>115.16666666666667</ele><time>2026-04-30T17:42:02Z</time></trkpt><trkpt lat="42.16740540128169" lon="12.587537916778201"><ele>115.33333333333334</ele><time>2026-04-30T17:42:03Z</time></trkpt><trkpt lat="42.16744737985429" lon="12.587609407000805"><ele>115.5</ele><time>2026-04-30T17:42:04Z</time></trkpt><trkpt lat="42.16750109027736" lon="12.587678789307596"><ele>115.66666666666666</ele><time>2026-04-30T17:42:05Z</time></trkpt><trkpt lat="42.16755650950118" lon="12.587757603190525"><ele>115.83333333333333</ele><time>2026-04-30T17:42:06Z</time></trkpt><trkpt lat="42.16761658239212" lon="12.587854725494589"><ele>116.0</ele><time>2026-04-30T17:42:07Z</time></trkpt><trkpt lat="42.16767703339755" lon="12.587955557985218"><ele>116.0</ele><time>2026-04-30T17:42:08Z</time></trkpt><trkpt lat="42.16773889366938" lon="12.58805940959031"><ele>116.0</ele><time>2026-04-30T17:42:09Z</time></trkpt><trkpt lat="42.16780435088701" lon="12.588169299859405"><ele>116.0</ele><time>2026-04-30T17:42:10Z</time></trkpt><trkpt lat="42.1678737577464" lon="12.588286316002712"><ele>116.0</ele><time>2026-04-30T17:42:11Z</time></trkpt><trkpt lat="42.16794651916575" lon="12.588409245683756"><ele>116.0</ele><time>2026-04-30T17:42:12Z</time></trkpt><trkpt lat="42.1680222386051" lon="12.588537172954076"><ele>116.0</ele><time>2026-04-30T17:42:13Z</time></trkpt><trkpt lat="42.16809789433695" lon="12.588664992564228"><ele>116.0</ele><time>2026-04-30T17:42:14Z</time></trkpt><trkpt lat="42.16817471040466" lon="12.588794772514357"><ele>116.0</ele><time>2026-04-30T17:42:15Z</time></trkpt><trkpt lat="42.16825123750254" lon="12.58892438055335"><ele>116.0</ele><time>2026-04-30T17:42:16Z</time></trkpt><trkpt lat="42.168331620098854" lon="12.589060554628833"><ele>113.5</ele><time>2026-04-30T17:42:17Z</time></trkpt><trkpt lat="42.16841282342013" lon="12.589197887803133"><ele>111.0</ele><time>2026-04-30T17:42:18Z</time></trkpt><trkpt lat="42.168494867555296" lon="12.589335399032805"><ele>108.5</ele><time>2026-04-30T17:42:19Z</time></trkpt><trkpt lat="42.168576678446264" lon="12.589472519330778"><ele>106.0</ele><time>2026-04-30T17:42:20Z</time></trkpt><trkpt lat="42.168658148156375" lon="12.589611911046177"><ele>106.0</ele><time>2026-04-30T17:42:21Z</time></trkpt><trkpt lat="42.16874076163801" lon="12.589751970766057"><ele>106.0</ele><time>2026-04-30T17:42:22Z</time></trkpt><trkpt lat="42.16882497785553" lon="12.589892256611643"><ele>106.0</ele><time>2026-04-30T17:42:23Z</time></trkpt><trkpt lat="42.168909529993094" lon="12.5900331020196"><ele>106.0</ele><time>2026-04-30T17:42:23.999Z</time></trkpt><trkpt lat="42.16899427336804" lon="12.590174265987152"><ele>105.0</ele><time>2026-04-30T17:42:24.999Z</time></trkpt><trkpt lat="42.169079320524524" lon="12.590315936545126"><ele>104.0</ele><time>2026-04-30T17:42:25.999Z</time></trkpt><trkpt lat="42.16916370597729" lon="12.590459054899393"><ele>103.0</ele><time>2026-04-30T17:42:26.999Z</time></trkpt><trkpt lat="42.16927191338476" lon="12.590574280544326"><ele>102.0</ele><time>2026-04-30T17:42:27.999Z</time></trkpt><trkpt lat="42.16935829684137" lon="12.59071265625152"><ele>101.75</ele><time>2026-04-30T17:42:28.999Z</time></trkpt><trkpt lat="42.16944532003907" lon="12.590852553734463"><ele>101.5</ele><time>2026-04-30T17:42:29.999Z</time></trkpt><trkpt lat="42.16953109795358" lon="12.590992727715696"><ele>101.25</ele><time>2026-04-30T17:42:30.999Z</time></trkpt><trkpt lat="42.16961896028078" lon="12.591143595375163"><ele>101.0</ele><time>2026-04-30T17:42:31.999Z</time></trkpt><trkpt lat="42.16971135467815" lon="12.591299232757486"><ele>101.75</ele><time>2026-04-30T17:42:32.999Z</time></trkpt><trkpt lat="42.169803704853024" lon="12.591459464064126"><ele>102.5</ele><time>2026-04-30T17:42:33.999Z</time></trkpt><trkpt lat="42.1698927836486" lon="12.591613291990157"><ele>103.25</ele><time>2026-04-30T17:42:34.999Z</time></trkpt><trkpt lat="42.16997679000681" lon="12.591766978325978"><ele>104.0</ele><time>2026-04-30T17:42:35.999Z</time></trkpt><trkpt lat="42.17005073223415" lon="12.59191719367814"><ele>102.0</ele><time>2026-04-30T17:42:36.999Z</time></trkpt><trkpt lat="42.17008458064992" lon="12.592084690870989"><ele>100.0</ele><time>2026-04-30T17:42:37.999Z</time></trkpt><trkpt lat="42.170107961349146" lon="12.592234975695703"><ele>98.0</ele><time>2026-04-30T17:42:38.999Z</time></trkpt><trkpt lat="42.170127938306095" lon="12.592407236541339"><ele>96.0</ele><time>2026-04-30T17:42:39.999Z</time></trkpt><trkpt lat="42.170143823672994" lon="12.592598244185325"><ele>96.0</ele><time>2026-04-30T17:42:40.999Z</time></trkpt><trkpt lat="42.17015830994762" lon="12.592805972509296"><ele>96.0</ele><time>2026-04-30T17:42:41.999Z</time></trkpt><trkpt lat="42.17020326004582" lon="12.593017041669935"><ele>96.0</ele><time>2026-04-30T17:42:42.999Z</time></trkpt><trkpt lat="42.17022129387859" lon="12.593230926211714"><ele>95.33333333333333</ele><time>2026-04-30T17:42:43.999Z</time></trkpt><trkpt lat="42.17024008849688" lon="12.593441585335515"><ele>94.66666666666666</ele><time>2026-04-30T17:42:44.999Z</time></trkpt><trkpt lat="42.170259229813645" lon="12.593655300642789"><ele>94.0</ele><time>2026-04-30T17:42:45.999Z</time></trkpt><trkpt lat="42.17023813613362" lon="12.593863076992042"><ele>94.0</ele><time>2026-04-30T17:42:46.999Z</time></trkpt><trkpt lat="42.17025475214046" lon="12.594065172854057"><ele>94.0</ele><time>2026-04-30T17:42:47.999Z</time></trkpt><trkpt lat="42.17027138665508" lon="12.594267493838267"><ele>94.0</ele><time>2026-04-30T17:42:48.999Z</time></trkpt><trkpt lat="42.17028712922607" lon="12.59447144292359"><ele>92.33333333333333</ele><time>2026-04-30T17:42:49.999Z</time></trkpt><trkpt lat="42.170294291671595" lon="12.594677160606379"><ele>90.66666666666667</ele><time>2026-04-30T17:42:50.999Z</time></trkpt><trkpt lat="42.17028197574845" lon="12.594881431662062"><ele>89.0</ele><time>2026-04-30T17:42:51.999Z</time></trkpt><trkpt lat="42.17025390889236" lon="12.595087564916014"><ele>89.0</ele><time>2026-04-30T17:42:52.999Z</time></trkpt><trkpt lat="42.170220386393616" lon="12.595301919265156"><ele>89.0</ele><time>2026-04-30T17:42:53.999Z</time></trkpt><trkpt lat="42.17018818404052" lon="12.595522427945927"><ele>89.0</ele><time>2026-04-30T17:42:54.999Z</time></trkpt><trkpt lat="42.170167242592214" lon="12.595742120211392"><ele>88.5</ele><time>2026-04-30T17:42:55.999Z</time></trkpt><trkpt lat="42.17017199515991" lon="12.595962943105324"><ele>88.0</ele><time>2026-04-30T17:42:56.999Z</time></trkpt><trkpt lat="42.170181400633325" lon="12.596154319242386"><ele>87.5</ele><time>2026-04-30T17:42:57.999Z</time></trkpt><trkpt lat="42.170190528753665" lon="12.596308504285942"><ele>87.0</ele><time>2026-04-30T17:42:58.999Z</time></trkpt><trkpt lat="42.170197760612716" lon="12.596430659158528"><ele>87.0</ele><time>2026-04-30T17:42:59.999Z</time></trkpt><trkpt lat="42.17020200571098" lon="12.596522315102314"><ele>87.0</ele><time>2026-04-30T17:43:00.999Z</time></trkpt><trkpt lat="42.170205212004575" lon="12.596629552583455"><ele>87.0</ele><time>2026-04-30T17:43:02.999Z</time></trkpt><trkpt lat="42.17023161353045" lon="12.596736480694291"><ele>87.0</ele><time>2026-04-30T17:44:18Z</time></trkpt><trkpt lat="42.17023118254748" lon="12.596897625652584"><ele>87.0</ele><time>2026-04-30T17:44:20Z</time></trkpt><trkpt lat="42.170205215832" lon="12.596983535352672"><ele>87.0</ele><time>2026-04-30T17:44:21Z</time></trkpt><trkpt lat="42.170203896235456" lon="12.597085125202156"><ele>87.5</ele><time>2026-04-30T17:44:22Z</time></trkpt><trkpt lat="42.17020248273612" lon="12.59719394419994"><ele>88.0</ele><time>2026-04-30T17:44:23Z</time></trkpt><trkpt lat="42.1702009769841" lon="12.59730986536172"><ele>88.5</ele><time>2026-04-30T17:44:24Z</time></trkpt><trkpt lat="42.170199772595595" lon="12.597425920477956"><ele>89.0</ele><time>2026-04-30T17:44:25Z</time></trkpt><trkpt lat="42.17020160898996" lon="12.597546218495387"><ele>89.5</ele><time>2026-04-30T17:44:25.999Z</time></trkpt><trkpt lat="42.17020546432286" lon="12.597655120600145"><ele>90.0</ele><time>2026-04-30T17:44:26.999Z</time></trkpt><trkpt lat="42.1702099573209" lon="12.59774183557758"><ele>90.0</ele><time>2026-04-30T17:44:27.999Z</time></trkpt><trkpt lat="42.1702191610887" lon="12.597825975427412"><ele>90.0</ele><time>2026-04-30T17:44:28.999Z</time></trkpt><trkpt lat="42.17023699981788" lon="12.597966405824454"><ele>90.0</ele><time>2026-04-30T17:44:30.999Z</time></trkpt><trkpt lat="42.17025112622403" lon="12.598060842557274"><ele>90.0</ele><time>2026-04-30T17:44:32.999Z</time></trkpt><trkpt lat="42.17026764800202" lon="12.598175516709135"><ele>90.0</ele><time>2026-04-30T17:44:35.999Z</time></trkpt><trkpt lat="42.17027914341296" lon="12.598274962205053"><ele>90.0</ele><time>2026-04-30T17:44:37.999Z</time></trkpt><trkpt lat="42.170249265039246" lon="12.59837695113274"><ele>90.0</ele><time>2026-04-30T17:44:41.999Z</time></trkpt><trkpt lat="42.170165998375914" lon="12.598400429393198"><ele>90.0</ele><time>2026-04-30T17:44:44.999Z</time></trkpt><trkpt lat="42.17010364064551" lon="12.598337285169766"><ele>90.0</ele><time>2026-04-30T17:44:46.999Z</time></trkpt><trkpt lat="42.1700442765345" lon="12.598268448674867"><ele>90.0</ele><time>2026-04-30T17:44:47.999Z</time></trkpt><trkpt lat="42.16997973149035" lon="12.598215796589821"><ele>90.0</ele><time>2026-04-30T17:44:48.999Z</time></trkpt><trkpt lat="42.169917247395226" lon="12.598157663808362"><ele>90.0</ele><time>2026-04-30T17:44:49.999Z</time></trkpt><trkpt lat="42.16984661654937" lon="12.598111777992118"><ele>90.4</ele><time>2026-04-30T17:44:50.999Z</time></trkpt><trkpt lat="42.16976694631196" lon="12.598078550725267"><ele>90.8</ele><time>2026-04-30T17:44:51.999Z</time></trkpt><trkpt lat="42.16967252288976" lon="12.598072467506192"><ele>91.19999999999999</ele><time>2026-04-30T17:44:52.999Z</time></trkpt><trkpt lat="42.1695470628354" lon="12.598090483377794"><ele>91.6</ele><time>2026-04-30T17:44:53.999Z</time></trkpt><trkpt lat="42.169433370103505" lon="12.598096067494922"><ele>92.0</ele><time>2026-04-30T17:44:54.999Z</time></trkpt><trkpt lat="42.169315879678415" lon="12.598082552854251"><ele>92.0</ele><time>2026-04-30T17:44:55.999Z</time></trkpt><trkpt lat="42.16919429643427" lon="12.59806608539399"><ele>92.0</ele><time>2026-04-30T17:44:56.999Z</time></trkpt><trkpt lat="42.16906448914761" lon="12.598050455160266"><ele>92.0</ele><time>2026-04-30T17:44:57.999Z</time></trkpt><trkpt lat="42.1689228482076" lon="12.598030647585144"><ele>92.0</ele><time>2026-04-30T17:44:58.999Z</time></trkpt><trkpt lat="42.1687857855577" lon="12.59801065423584"><ele>92.5</ele><time>2026-04-30T17:44:59.999Z</time></trkpt><trkpt lat="42.16864328561287" lon="12.597992007418808"><ele>93.0</ele><time>2026-04-30T17:45:00.999Z</time></trkpt><trkpt lat="42.16850406539566" lon="12.597975713181238"><ele>93.5</ele><time>2026-04-30T17:45:01.999Z</time></trkpt><trkpt lat="42.16836872810584" lon="12.597961788692821"><ele>94.0</ele><time>2026-04-30T17:45:02.999Z</time></trkpt><trkpt lat="42.168232495261314" lon="12.59793875259526"><ele>94.5</ele><time>2026-04-30T17:45:03.999Z</time></trkpt><trkpt lat="42.16810164817875" lon="12.597916908644363"><ele>95.0</ele><time>2026-04-30T17:45:04.999Z</time></trkpt><trkpt lat="42.167977820449096" lon="12.597903074712884"><ele>95.5</ele><time>2026-04-30T17:45:05.999Z</time></trkpt><trkpt lat="42.1678609211654" lon="12.597890976873312"><ele>96.0</ele><time>2026-04-30T17:45:06.999Z</time></trkpt><trkpt lat="42.167753279769094" lon="12.597883236695258"><ele>96.0</ele><time>2026-04-30T17:45:07.999Z</time></trkpt><trkpt lat="42.16765288355622" lon="12.59789162175137"><ele>96.0</ele><time>2026-04-30T17:45:08.999Z</time></trkpt><trkpt lat="42.16755114266181" lon="12.59790929735182"><ele>96.0</ele><time>2026-04-30T17:45:09.999Z</time></trkpt><trkpt lat="42.16744745451676" lon="12.597936299108708"><ele>96.0</ele><time>2026-04-30T17:45:10.999Z</time></trkpt><trkpt lat="42.16734785829752" lon="12.597972692539328"><ele>96.0</ele><time>2026-04-30T17:45:11.999Z</time></trkpt><trkpt lat="42.167252965018314" lon="12.598014732097852"><ele>96.4</ele><time>2026-04-30T17:45:12.999Z</time></trkpt><trkpt lat="42.167158051846556" lon="12.598060591020955"><ele>96.8</ele><time>2026-04-30T17:45:13.999Z</time></trkpt><trkpt lat="42.16706470348642" lon="12.598108606885809"><ele>97.2</ele><time>2026-04-30T17:45:14.999Z</time></trkpt><trkpt lat="42.166982014226434" lon="12.598153255868443"><ele>97.60000000000001</ele><time>2026-04-30T17:45:15.999Z</time></trkpt><trkpt lat="42.166908082804646" lon="12.598199794641921"><ele>98.0</ele><time>2026-04-30T17:45:16.999Z</time></trkpt><trkpt lat="42.1668289801087" lon="12.598245793707266"><ele>98.0</ele><time>2026-04-30T17:45:17.999Z</time></trkpt><trkpt lat="42.16674258697965" lon="12.598293711356751"><ele>98.0</ele><time>2026-04-30T17:45:18.999Z</time></trkpt><trkpt lat="42.1666518131264" lon="12.598345877370953"><ele>98.0</ele><time>2026-04-30T17:45:19.999Z</time></trkpt><trkpt lat="42.16656239105182" lon="12.598404017735223"><ele>98.0</ele><time>2026-04-30T17:45:20.999Z</time></trkpt><trkpt lat="42.16646874037823" lon="12.598474430265897"><ele>98.0</ele><time>2026-04-30T17:45:21.999Z</time></trkpt><trkpt lat="42.166376272521944" lon="12.598554697832"><ele>98.0</ele><time>2026-04-30T17:45:22.999Z</time></trkpt><trkpt lat="42.166282520636656" lon="12.598648349591336"><ele>98.0</ele><time>2026-04-30T17:45:23.999Z</time></trkpt><trkpt lat="42.16618328656262" lon="12.598737279063224"><ele>98.0</ele><time>2026-04-30T17:45:24.999Z</time></trkpt><trkpt lat="42.16609241853224" lon="12.598837700620749"><ele>98.0</ele><time>2026-04-30T17:45:25.999Z</time></trkpt><trkpt lat="42.16600067503025" lon="12.598939089715419"><ele>98.5</ele><time>2026-04-30T17:45:26.999Z</time></trkpt><trkpt lat="42.16590770416789" lon="12.59904170977585"><ele>99.0</ele><time>2026-04-30T17:45:27.999Z</time></trkpt><trkpt lat="42.16581508030259" lon="12.599143314534416"><ele>99.5</ele><time>2026-04-30T17:45:28.999Z</time></trkpt><trkpt lat="42.1657283203716" lon="12.599239666802164"><ele>100.0</ele><time>2026-04-30T17:45:29.999Z</time></trkpt><trkpt lat="42.165648763574474" lon="12.599328599395701"><ele>100.00000000000001</ele><time>2026-04-30T17:45:30.999Z</time></trkpt><trkpt lat="42.16558689670069" lon="12.599420676572187"><ele>100.0</ele><time>2026-04-30T17:45:31.999Z</time></trkpt><trkpt lat="42.16552278530914" lon="12.599487869358878"><ele>100.0</ele><time>2026-04-30T17:45:32.998Z</time></trkpt><trkpt lat="42.165462832834855" lon="12.599551626938643"><ele>100.0</ele><time>2026-04-30T17:45:33.998Z</time></trkpt><trkpt lat="42.16540718871433" lon="12.599613069697476"><ele>100.00000000000001</ele><time>2026-04-30T17:45:34.998Z</time></trkpt><trkpt lat="42.16534782737632" lon="12.599678022415247"><ele>100.0</ele><time>2026-04-30T17:45:35.998Z</time></trkpt><trkpt lat="42.16527823380164" lon="12.599749528747676"><ele>100.0</ele><time>2026-04-30T17:45:36.998Z</time></trkpt><trkpt lat="42.165203109934815" lon="12.599825914691504"><ele>100.0</ele><time>2026-04-30T17:45:37.998Z</time></trkpt><trkpt lat="42.16512368319122" lon="12.599906268506428"><ele>100.0</ele><time>2026-04-30T17:45:38.998Z</time></trkpt><trkpt lat="42.16504222136463" lon="12.599989907933775"><ele>100.0</ele><time>2026-04-30T17:45:39.998Z</time></trkpt><trkpt lat="42.16496168498707" lon="12.600077812383992"><ele>100.0</ele><time>2026-04-30T17:45:40.998Z</time></trkpt><trkpt lat="42.16487248874002" lon="12.600174164007612"><ele>100.5</ele><time>2026-04-30T17:45:41.998Z</time></trkpt><trkpt lat="42.16477822540503" lon="12.600272221940887"><ele>101.0</ele><time>2026-04-30T17:45:42.998Z</time></trkpt><trkpt lat="42.16467919726948" lon="12.600374596066557"><ele>101.5</ele><time>2026-04-30T17:45:43.998Z</time></trkpt><trkpt lat="42.16458631168788" lon="12.60047781807041"><ele>102.0</ele><time>2026-04-30T17:45:44.998Z</time></trkpt><trkpt lat="42.16450349583041" lon="12.600575269086857"><ele>102.0</ele><time>2026-04-30T17:45:45.998Z</time></trkpt><trkpt lat="42.1644361970926" lon="12.600644018727523"><ele>102.0</ele><time>2026-04-30T17:45:46.998Z</time></trkpt><trkpt lat="42.16437395624338" lon="12.600690484717608"><ele>102.0</ele><time>2026-04-30T17:45:47.998Z</time></trkpt><trkpt lat="42.16429374512468" lon="12.600777356869267"><ele>102.0</ele><time>2026-04-30T17:45:49.998Z</time></trkpt><trkpt lat="42.16418586217035" lon="12.600879001097324"><ele>102.0</ele><time>2026-04-30T17:45:51.998Z</time></trkpt><trkpt lat="42.164126074668026" lon="12.600961020252669"><ele>102.0</ele><time>2026-04-30T17:45:52.998Z</time></trkpt><trkpt lat="42.164044334971535" lon="12.601029824204582"><ele>102.0</ele><time>2026-04-30T17:45:53.998Z</time></trkpt><trkpt lat="42.163955749839815" lon="12.60112604491984"><ele>102.0</ele><time>2026-04-30T17:45:54.998Z</time></trkpt><trkpt lat="42.16385276679064" lon="12.601239110930015"><ele>102.0</ele><time>2026-04-30T17:45:55.998Z</time></trkpt><trkpt lat="42.16373099889022" lon="12.6013571345538"><ele>101.33333333333334</ele><time>2026-04-30T17:45:56.998Z</time></trkpt><trkpt lat="42.16359757359054" lon="12.601439245138781"><ele>100.66666666666667</ele><time>2026-04-30T17:45:57.998Z</time></trkpt><trkpt lat="42.16346898977739" lon="12.601550010210836"><ele>100.0</ele><time>2026-04-30T17:45:58.998Z</time></trkpt><trkpt lat="42.163343253484655" lon="12.601678676115762"><ele>100.0</ele><time>2026-04-30T17:45:59.998Z</time></trkpt><trkpt lat="42.163207548458445" lon="12.601789547081179"><ele>100.0</ele><time>2026-04-30T17:46:00.998Z</time></trkpt><trkpt lat="42.1630701033813" lon="12.601904783622045"><ele>100.0</ele><time>2026-04-30T17:46:01.998Z</time></trkpt><trkpt lat="42.162934832181755" lon="12.602022543163287"><ele>99.66666666666667</ele><time>2026-04-30T17:46:02.998Z</time></trkpt><trkpt lat="42.16280199152625" lon="12.602139305911919"><ele>99.33333333333334</ele><time>2026-04-30T17:46:04Z</time></trkpt><trkpt lat="42.162670615744915" lon="12.60224918830889"><ele>99.0</ele><time>2026-04-30T17:46:05Z</time></trkpt><trkpt lat="42.162542495836945" lon="12.602353914588605"><ele>99.0</ele><time>2026-04-30T17:46:06Z</time></trkpt><trkpt lat="42.16241921584647" lon="12.602459123390057"><ele>99.0</ele><time>2026-04-30T17:46:07Z</time></trkpt><trkpt lat="42.162301884836246" lon="12.602564767976212"><ele>99.0</ele><time>2026-04-30T17:46:08Z</time></trkpt><trkpt lat="42.16218660201599" lon="12.602664290578304"><ele>99.0</ele><time>2026-04-30T17:46:09Z</time></trkpt><trkpt lat="42.16207791103567" lon="12.602757824399212"><ele>98.2</ele><time>2026-04-30T17:46:10Z</time></trkpt><trkpt lat="42.16197639421987" lon="12.602840927386067"><ele>97.4</ele><time>2026-04-30T17:46:11Z</time></trkpt><trkpt lat="42.16188146105707" lon="12.602917315572268"><ele>96.6</ele><time>2026-04-30T17:46:12Z</time></trkpt><trkpt lat="42.16179380957109" lon="12.602987999173724"><ele>95.8</ele><time>2026-04-30T17:46:13Z</time></trkpt><trkpt lat="42.16170905570804" lon="12.60306095823709"><ele>95.0</ele><time>2026-04-30T17:46:14Z</time></trkpt><trkpt lat="42.16161485179304" lon="12.603140781391378"><ele>94.5</ele><time>2026-04-30T17:46:15Z</time></trkpt><trkpt lat="42.161511475421825" lon="12.60323141836058"><ele>94.0</ele><time>2026-04-30T17:46:16Z</time></trkpt><trkpt lat="42.16139628344161" lon="12.603331266464929"><ele>93.5</ele><time>2026-04-30T17:46:17Z</time></trkpt><trkpt lat="42.161275047746685" lon="12.603435700552122"><ele>93.0</ele><time>2026-04-30T17:46:18Z</time></trkpt><trkpt lat="42.16115323159367" lon="12.60353962031392"><ele>93.0</ele><time>2026-04-30T17:46:19Z</time></trkpt><trkpt lat="42.16105454064747" lon="12.603623607550603"><ele>93.0</ele><time>2026-04-30T17:46:20Z</time></trkpt><trkpt lat="42.16097141224981" lon="12.603697689319052"><ele>93.0</ele><time>2026-04-30T17:46:21Z</time></trkpt><trkpt lat="42.16089506676574" lon="12.603764786813597"><ele>93.0</ele><time>2026-04-30T17:46:22Z</time></trkpt><trkpt lat="42.16082152119571" lon="12.603829776886178"><ele>93.0</ele><time>2026-04-30T17:46:23Z</time></trkpt><trkpt lat="42.16075119164501" lon="12.603893352545198"><ele>92.2</ele><time>2026-04-30T17:46:24Z</time></trkpt><trkpt lat="42.1606879154378" lon="12.603950576807105"><ele>91.4</ele><time>2026-04-30T17:46:25Z</time></trkpt><trkpt lat="42.16063793388932" lon="12.604009526138048"><ele>90.60000000000001</ele><time>2026-04-30T17:46:26Z</time></trkpt><trkpt lat="42.16056217940744" lon="12.604053340076806"><ele>89.80000000000001</ele><time>2026-04-30T17:46:28Z</time></trkpt><trkpt lat="42.16063365819052" lon="12.60423947583387"><ele>89.0</ele><time>2026-04-30T17:46:30Z</time></trkpt><trkpt lat="42.160684562135295" lon="12.60430393035178"><ele>89.33333333333334</ele><time>2026-04-30T17:46:32Z</time></trkpt><trkpt lat="42.160748390154936" lon="12.604355638435237"><ele>89.66666666666667</ele><time>2026-04-30T17:46:34Z</time></trkpt><trkpt lat="42.160824283111786" lon="12.604282569579494"><ele>90.0</ele><time>2026-04-30T17:46:37Z</time></trkpt><trkpt lat="42.16088224847028" lon="12.604221816884277"><ele>90.33333333333333</ele><time>2026-04-30T17:46:41Z</time></trkpt><trkpt lat="42.16090692835538" lon="12.604317007864847"><ele>90.66666666666666</ele><time>2026-04-30T17:51:54.999Z</time></trkpt><trkpt lat="42.16086953376217" lon="12.604388132943722"><ele>91.0</ele><time>2026-04-30T17:53:14.999Z</time></trkpt><trkpt lat="42.16090058202736" lon="12.604476962269274"><ele>91.0</ele><time>2026-04-30T17:53:25.999Z</time></trkpt><trkpt lat="42.16087314094499" lon="12.604396651087516"><ele>91.0</ele><time>2026-04-30T17:56:31.998Z</time></trkpt><trkpt lat="42.16088002925601" lon="12.604311841861703"><ele>91.0</ele><time>2026-04-30T17:56:40Z</time></trkpt><trkpt lat="42.16097210137796" lon="12.604276524124547"><ele>91.0</ele><time>2026-04-30T17:59:14Z</time></trkpt><trkpt lat="42.160988229122516" lon="12.604182163112222"><ele>91.0</ele><time>2026-04-30T17:59:17Z</time></trkpt><trkpt lat="42.16096325054939" lon="12.604066910191836"><ele>91.0</ele><time>2026-04-30T17:59:21.999Z</time></trkpt><trkpt lat="42.16093170765164" lon="12.60397371449071"><ele>91.0</ele><time>2026-04-30T17:59:24.999Z</time></trkpt><trkpt lat="42.160951356743126" lon="12.60388914290517"><ele>91.0</ele><time>2026-04-30T17:59:34.999Z</time></trkpt><trkpt lat="42.16087354145108" lon="12.603904372928017"><ele>91.0</ele><time>2026-04-30T17:59:38.999Z</time></trkpt><trkpt lat="42.16081972164263" lon="12.603988841277756"><ele>91.0</ele><time>2026-04-30T17:59:40.999Z</time></trkpt><trkpt lat="42.16076510532183" lon="12.604041450459238"><ele>91.0</ele><time>2026-04-30T17:59:41.999Z</time></trkpt><trkpt lat="42.16070183687891" lon="12.604100556766195"><ele>91.0</ele><time>2026-04-30T17:59:42.999Z</time></trkpt><trkpt lat="42.16062888892644" lon="12.604182625945175"><ele>91.0</ele><time>2026-04-30T17:59:43.999Z</time></trkpt><trkpt lat="42.16049204923424" lon="12.60429583986674"><ele>91.0</ele><time>2026-04-30T17:59:44.999Z</time></trkpt><trkpt lat="42.16034327053673" lon="12.604250864150371"><ele>91.0</ele><time>2026-04-30T17:59:45.999Z</time></trkpt><trkpt lat="42.16077194417625" lon="12.603863988012519"><ele>91.0</ele><time>2026-04-30T17:59:46.999Z</time></trkpt><trkpt lat="42.16071638272105" lon="12.603914128305334"><ele>91.0</ele><time>2026-04-30T17:59:48.999Z</time></trkpt><trkpt lat="42.16055218115799" lon="12.604062313775087"><ele>91.0</ele><time>2026-04-30T17:59:51.999Z</time></trkpt><trkpt lat="42.160404820093085" lon="12.60419531312918"><ele>91.0</ele><time>2026-04-30T17:59:52.999Z</time></trkpt><trkpt lat="42.160240068806154" lon="12.604344008179085"><ele>90.33333333333333</ele><time>2026-04-30T17:59:53.999Z</time></trkpt><trkpt lat="42.160114283319544" lon="12.604457535444348"><ele>89.66666666666667</ele><time>2026-04-30T17:59:54.999Z</time></trkpt><trkpt lat="42.15999386288544" lon="12.604566220415823"><ele>89.0</ele><time>2026-04-30T17:59:55.999Z</time></trkpt><trkpt lat="42.159851741605316" lon="12.6046956058242"><ele>87.5</ele><time>2026-04-30T17:59:56.999Z</time></trkpt><trkpt lat="42.15962883110856" lon="12.604907157419774"><ele>86.0</ele><time>2026-04-30T17:59:57.999Z</time></trkpt><trkpt lat="42.1594117141346" lon="12.605070069036975"><ele>86.0</ele><time>2026-04-30T17:59:58.999Z</time></trkpt><trkpt lat="42.15921098378751" lon="12.605222024069446"><ele>86.0</ele><time>2026-04-30T17:59:59.999Z</time></trkpt><trkpt lat="42.15901820628238" lon="12.605371360343403"><ele>85.5</ele><time>2026-04-30T18:00:00.999Z</time></trkpt><trkpt lat="42.15887189920866" lon="12.605484697993957"><ele>85.0</ele><time>2026-04-30T18:00:01.999Z</time></trkpt><trkpt lat="42.15874696564718" lon="12.605581372342717"><ele>84.5</ele><time>2026-04-30T18:00:02.999Z</time></trkpt><trkpt lat="42.15863085955397" lon="12.605670989474326"><ele>84.0</ele><time>2026-04-30T18:00:03.999Z</time></trkpt><trkpt lat="42.15849869386015" lon="12.605773002281362"><ele>83.5</ele><time>2026-04-30T18:00:04.999Z</time></trkpt><trkpt lat="42.1581189049079" lon="12.606067210742156"><ele>83.0</ele><time>2026-04-30T18:00:05.999Z</time></trkpt><trkpt lat="42.15800576101777" lon="12.606155095909807"><ele>82.75</ele><time>2026-04-30T18:00:06.999Z</time></trkpt><trkpt lat="42.157889325498964" lon="12.606245537997628"><ele>82.5</ele><time>2026-04-30T18:00:07.999Z</time></trkpt><trkpt lat="42.157774250038756" lon="12.606334421099282"><ele>82.25</ele><time>2026-04-30T18:00:08.999Z</time></trkpt><trkpt lat="42.15766374604854" lon="12.606419170346575"><ele>82.0</ele><time>2026-04-30T18:00:09.999Z</time></trkpt><trkpt lat="42.157551657012505" lon="12.606526430008165"><ele>82.0</ele><time>2026-04-30T18:00:10.999Z</time></trkpt><trkpt lat="42.15742606344257" lon="12.606620820379016"><ele>82.0</ele><time>2026-04-30T18:00:11.999Z</time></trkpt><trkpt lat="42.15730429778796" lon="12.606707692575739"><ele>82.0</ele><time>2026-04-30T18:00:12.999Z</time></trkpt><trkpt lat="42.15718102929798" lon="12.606789240708075"><ele>82.0</ele><time>2026-04-30T18:00:13.999Z</time></trkpt><trkpt lat="42.15705586327313" lon="12.60688865238949"><ele>81.75</ele><time>2026-04-30T18:00:14.999Z</time></trkpt><trkpt lat="42.15692838920487" lon="12.606995825314257"><ele>81.5</ele><time>2026-04-30T18:00:15.999Z</time></trkpt><trkpt lat="42.15680122550916" lon="12.60709397454898"><ele>81.25</ele><time>2026-04-30T18:00:16.999Z</time></trkpt><trkpt lat="42.15667169188529" lon="12.60717223163668"><ele>81.0</ele><time>2026-04-30T18:00:17.999Z</time></trkpt><trkpt lat="42.1565320181015" lon="12.607270384672889"><ele>80.66666666666667</ele><time>2026-04-30T18:00:18.999Z</time></trkpt><trkpt lat="42.15639004151648" lon="12.607368441008878"><ele>80.33333333333334</ele><time>2026-04-30T18:00:19.999Z</time></trkpt><trkpt lat="42.15624919315715" lon="12.60746313401663"><ele>80.0</ele><time>2026-04-30T18:00:20.999Z</time></trkpt><trkpt lat="42.15610800968434" lon="12.607558873995382"><ele>80.0</ele><time>2026-04-30T18:00:21.999Z</time></trkpt><trkpt lat="42.15597243897458" lon="12.60765820229709"><ele>80.0</ele><time>2026-04-30T18:00:22.999Z</time></trkpt><trkpt lat="42.155837816961885" lon="12.607786113295237"><ele>80.0</ele><time>2026-04-30T18:00:23.999Z</time></trkpt><trkpt lat="42.15569251904787" lon="12.60789171627086"><ele>79.25</ele><time>2026-04-30T18:00:24.999Z</time></trkpt><trkpt lat="42.15557128296804" lon="12.608010308846273"><ele>78.5</ele><time>2026-04-30T18:00:25.999Z</time></trkpt><trkpt lat="42.15544165008662" lon="12.608138080582457"><ele>77.75</ele><time>2026-04-30T18:00:26.999Z</time></trkpt><trkpt lat="42.155341375784026" lon="12.608256093821275"><ele>77.0</ele><time>2026-04-30T18:00:27.999Z</time></trkpt><trkpt lat="42.15522177094473" lon="12.6083910191612"><ele>77.0</ele><time>2026-04-30T18:00:28.998Z</time></trkpt><trkpt lat="42.155119725807346" lon="12.608495687130052"><ele>77.0</ele><time>2026-04-30T18:00:29.998Z</time></trkpt><trkpt lat="42.15503329786364" lon="12.608603188526303"><ele>77.0</ele><time>2026-04-30T18:00:30.998Z</time></trkpt><trkpt lat="42.15493480218205" lon="12.608696410978117"><ele>77.0</ele><time>2026-04-30T18:00:31.998Z</time></trkpt><trkpt lat="42.154840226480374" lon="12.608776834877274"><ele>76.75</ele><time>2026-04-30T18:00:32.998Z</time></trkpt><trkpt lat="42.15472334693928" lon="12.608858767734226"><ele>76.5</ele><time>2026-04-30T18:00:33.998Z</time></trkpt><trkpt lat="42.15462514813889" lon="12.60897698060968"><ele>76.25</ele><time>2026-04-30T18:00:34.998Z</time></trkpt><trkpt lat="42.154537088487494" lon="12.609145839248415"><ele>76.0</ele><time>2026-04-30T18:00:35.998Z</time></trkpt><trkpt lat="42.15441332246409" lon="12.609280116365504"><ele>76.0</ele><time>2026-04-30T18:00:36.998Z</time></trkpt><trkpt lat="42.154298735897434" lon="12.609404000318486"><ele>76.0</ele><time>2026-04-30T18:00:37.998Z</time></trkpt><trkpt lat="42.15418086434643" lon="12.609531265818255"><ele>76.0</ele><time>2026-04-30T18:00:38.998Z</time></trkpt><trkpt lat="42.15405692825374" lon="12.609643233467194"><ele>76.0</ele><time>2026-04-30T18:00:39.998Z</time></trkpt><trkpt lat="42.153942535720965" lon="12.609787336287752"><ele>75.33333333333333</ele><time>2026-04-30T18:00:40.998Z</time></trkpt><trkpt lat="42.153829909148406" lon="12.609917508495116"><ele>74.66666666666667</ele><time>2026-04-30T18:00:41.998Z</time></trkpt><trkpt lat="42.15371656450195" lon="12.610060582235354"><ele>74.0</ele><time>2026-04-30T18:00:42.998Z</time></trkpt><trkpt lat="42.15359144355426" lon="12.610206994615838"><ele>73.66666666666667</ele><time>2026-04-30T18:00:43.998Z</time></trkpt><trkpt lat="42.153458116266314" lon="12.61034954957566"><ele>73.33333333333333</ele><time>2026-04-30T18:00:44.998Z</time></trkpt><trkpt lat="42.153333616651196" lon="12.610497935970786"><ele>73.0</ele><time>2026-04-30T18:00:46Z</time></trkpt><trkpt lat="42.15321124600728" lon="12.610649006741419"><ele>72.66666666666666</ele><time>2026-04-30T18:00:47Z</time></trkpt><trkpt lat="42.15308037308173" lon="12.610797519445455"><ele>72.33333333333333</ele><time>2026-04-30T18:00:48Z</time></trkpt><trkpt lat="42.15295171018874" lon="12.61095440505297"><ele>72.0</ele><time>2026-04-30T18:00:49Z</time></trkpt><trkpt lat="42.15283826219008" lon="12.611124868136669"><ele>72.0</ele><time>2026-04-30T18:00:50Z</time></trkpt><trkpt lat="42.15274419565781" lon="12.611321137284376"><ele>72.0</ele><time>2026-04-30T18:00:51Z</time></trkpt><trkpt lat="42.15271106530633" lon="12.611541674069473"><ele>72.0</ele><time>2026-04-30T18:00:52Z</time></trkpt><trkpt lat="42.15265074682197" lon="12.611728732283916"><ele>72.0</ele><time>2026-04-30T18:00:53Z</time></trkpt><trkpt lat="42.15259007758184" lon="12.611919912927432"><ele>72.0</ele><time>2026-04-30T18:00:54Z</time></trkpt><trkpt lat="42.15252726429453" lon="12.61211724910702"><ele>72.0</ele><time>2026-04-30T18:00:55Z</time></trkpt><trkpt lat="42.152462763852476" lon="12.612317972747853"><ele>71.66666666666667</ele><time>2026-04-30T18:00:56Z</time></trkpt><trkpt lat="42.152398595085415" lon="12.612522829548885"><ele>71.33333333333334</ele><time>2026-04-30T18:00:57Z</time></trkpt><trkpt lat="42.15233531877312" lon="12.612716054285496"><ele>71.0</ele><time>2026-04-30T18:00:58Z</time></trkpt><trkpt lat="42.15227069446825" lon="12.612914338454713"><ele>70.0</ele><time>2026-04-30T18:00:59Z</time></trkpt><trkpt lat="42.15220867226281" lon="12.613106254590495"><ele>69.0</ele><time>2026-04-30T18:01:00Z</time></trkpt><trkpt lat="42.1521395988845" lon="12.613284221903278"><ele>68.0</ele><time>2026-04-30T18:01:01Z</time></trkpt><trkpt lat="42.1520826720844" lon="12.613484276925432"><ele>66.66666666666667</ele><time>2026-04-30T18:01:02Z</time></trkpt><trkpt lat="42.15201893247225" lon="12.61367663331483"><ele>65.33333333333333</ele><time>2026-04-30T18:01:03Z</time></trkpt><trkpt lat="42.151952658943195" lon="12.613870300828777"><ele>64.0</ele><time>2026-04-30T18:01:04Z</time></trkpt><trkpt lat="42.15189883766526" lon="12.614051144951922"><ele>64.0</ele><time>2026-04-30T18:01:05Z</time></trkpt><trkpt lat="42.15183011406827" lon="12.614237877372274"><ele>64.0</ele><time>2026-04-30T18:01:06Z</time></trkpt><trkpt lat="42.151781006879034" lon="12.61440949986453"><ele>64.0</ele><time>2026-04-30T18:01:07Z</time></trkpt><trkpt lat="42.15172937740076" lon="12.614579939830572"><ele>64.0</ele><time>2026-04-30T18:01:08Z</time></trkpt><trkpt lat="42.15168312189422" lon="12.614744520203939"><ele>64.0</ele><time>2026-04-30T18:01:09Z</time></trkpt><trkpt lat="42.151636544653584" lon="12.614892465253375"><ele>64.0</ele><time>2026-04-30T18:01:10Z</time></trkpt><trkpt lat="42.15158770312017" lon="12.615018601346732"><ele>64.0</ele><time>2026-04-30T18:01:11Z</time></trkpt><trkpt lat="42.15154140150012" lon="12.615125222577218"><ele>64.0</ele><time>2026-04-30T18:01:12Z</time></trkpt><trkpt lat="42.15148021882622" lon="12.615206525960124"><ele>64.0</ele><time>2026-04-30T18:01:13Z</time></trkpt><trkpt lat="42.15141520248265" lon="12.615257334208179"><ele>62.99999999999999</ele><time>2026-04-30T18:01:14Z</time></trkpt><trkpt lat="42.15130373876576" lon="12.615325428417105"><ele>62.0</ele><time>2026-04-30T18:01:16Z</time></trkpt><trkpt lat="42.15123501142405" lon="12.615377449998638"><ele>61.0</ele><time>2026-04-30T18:01:17Z</time></trkpt><trkpt lat="42.1511934725108" lon="12.61544551828516"><ele>60.0</ele><time>2026-04-30T18:01:18Z</time></trkpt><trkpt lat="42.15117021886835" lon="12.615548965065292"><ele>58.99999999999999</ele><time>2026-04-30T18:01:19Z</time></trkpt><trkpt lat="42.15116491161085" lon="12.615662468223201"><ele>58.0</ele><time>2026-04-30T18:01:20Z</time></trkpt><trkpt lat="42.151134137020314" lon="12.615763344042561"><ele>58.0</ele><time>2026-04-30T18:01:21Z</time></trkpt><trkpt lat="42.15108318457484" lon="12.615893239338025"><ele>58.0</ele><time>2026-04-30T18:01:22Z</time></trkpt><trkpt lat="42.151028839609026" lon="12.616018331727393"><ele>58.0</ele><time>2026-04-30T18:01:23Z</time></trkpt><trkpt lat="42.15086595086024" lon="12.616052912284148"><ele>58.0</ele><time>2026-04-30T18:01:24Z</time></trkpt><trkpt lat="42.15076688219199" lon="12.616138453664847"><ele>56.25</ele><time>2026-04-30T18:01:25Z</time></trkpt><trkpt lat="42.15065349481303" lon="12.616217466910065"><ele>54.5</ele><time>2026-04-30T18:01:26Z</time></trkpt><trkpt lat="42.15053091455781" lon="12.616301409552353"><ele>52.75</ele><time>2026-04-30T18:01:27Z</time></trkpt><trkpt lat="42.15040724520141" lon="12.616395539782735"><ele>51.0</ele><time>2026-04-30T18:01:28Z</time></trkpt><trkpt lat="42.150257219769976" lon="12.616490447849715"><ele>51.0</ele><time>2026-04-30T18:01:29Z</time></trkpt><trkpt lat="42.15010078356168" lon="12.616607810053052"><ele>51.0</ele><time>2026-04-30T18:01:30Z</time></trkpt><trkpt lat="42.14995101861249" lon="12.616727101647191"><ele>51.0</ele><time>2026-04-30T18:01:31Z</time></trkpt><trkpt lat="42.149801779235524" lon="12.616841872791545"><ele>50.66666666666667</ele><time>2026-04-30T18:01:31.999Z</time></trkpt><trkpt lat="42.14963668170568" lon="12.616954504331503"><ele>50.333333333333336</ele><time>2026-04-30T18:01:32.999Z</time></trkpt><trkpt lat="42.14948248964616" lon="12.617065298639424"><ele>50.0</ele><time>2026-04-30T18:01:33.999Z</time></trkpt><trkpt lat="42.14932570538668" lon="12.617182022194964"><ele>48.66666666666667</ele><time>2026-04-30T18:01:34.999Z</time></trkpt><trkpt lat="42.14916157955038" lon="12.617294533743818"><ele>47.333333333333336</ele><time>2026-04-30T18:01:35.999Z</time></trkpt><trkpt lat="42.14900278302296" lon="12.61739696235925"><ele>46.0</ele><time>2026-04-30T18:01:36.999Z</time></trkpt><trkpt lat="42.14887403348506" lon="12.617494747654554"><ele>45.5</ele><time>2026-04-30T18:01:37.999Z</time></trkpt><trkpt lat="42.14875656689103" lon="12.617590664653981"><ele>45.0</ele><time>2026-04-30T18:01:38.999Z</time></trkpt><trkpt lat="42.14864564159602" lon="12.617693763335701"><ele>44.5</ele><time>2026-04-30T18:01:39.999Z</time></trkpt><trkpt lat="42.14852070317287" lon="12.617796058137264"><ele>44.0</ele><time>2026-04-30T18:01:40.999Z</time></trkpt><trkpt lat="42.14841110173573" lon="12.61788852128862"><ele>43.0</ele><time>2026-04-30T18:01:41.999Z</time></trkpt><trkpt lat="42.14830366420524" lon="12.618001187624262"><ele>42.0</ele><time>2026-04-30T18:01:42.999Z</time></trkpt><trkpt lat="42.14822085514365" lon="12.618132114097591"><ele>41.0</ele><time>2026-04-30T18:01:43.999Z</time></trkpt><trkpt lat="42.14814930491937" lon="12.61824936854746"><ele>40.0</ele><time>2026-04-30T18:01:44.999Z</time></trkpt><trkpt lat="42.148101021792876" lon="12.61839139899523"><ele>38.75</ele><time>2026-04-30T18:01:45.999Z</time></trkpt><trkpt lat="42.14806104750021" lon="12.61853819965596"><ele>37.5</ele><time>2026-04-30T18:01:46.999Z</time></trkpt><trkpt lat="42.148040670667704" lon="12.618725485755492"><ele>36.25</ele><time>2026-04-30T18:01:47.999Z</time></trkpt><trkpt lat="42.14796371363404" lon="12.618874348189376"><ele>35.0</ele><time>2026-04-30T18:01:48.999Z</time></trkpt><trkpt lat="42.147873382916806" lon="12.619003581758648"><ele>34.75</ele><time>2026-04-30T18:01:49.999Z</time></trkpt><trkpt lat="42.147790889405236" lon="12.619158031261385"><ele>34.5</ele><time>2026-04-30T18:01:50.999Z</time></trkpt><trkpt lat="42.14770258065748" lon="12.619288623511276"><ele>34.25</ele><time>2026-04-30T18:01:51.999Z</time></trkpt><trkpt lat="42.14761617156148" lon="12.619433649268156"><ele>34.0</ele><time>2026-04-30T18:01:52.999Z</time></trkpt><trkpt lat="42.14750854774722" lon="12.619569594951718"><ele>33.5</ele><time>2026-04-30T18:01:53.999Z</time></trkpt><trkpt lat="42.147404485783156" lon="12.619709996214555"><ele>33.0</ele><time>2026-04-30T18:01:54.999Z</time></trkpt><trkpt lat="42.14729982771326" lon="12.619845161447708"><ele>32.5</ele><time>2026-04-30T18:01:55.999Z</time></trkpt><trkpt lat="42.14719875895067" lon="12.619993562882051"><ele>32.0</ele><time>2026-04-30T18:01:56.999Z</time></trkpt><trkpt lat="42.14711991130498" lon="12.62017042913939"><ele>31.0</ele><time>2026-04-30T18:01:57.999Z</time></trkpt><trkpt lat="42.14703197926572" lon="12.620328788340254"><ele>30.0</ele><time>2026-04-30T18:01:58.999Z</time></trkpt><trkpt lat="42.14697012768934" lon="12.620517741289309"><ele>29.0</ele><time>2026-04-30T18:01:59.999Z</time></trkpt><trkpt lat="42.146930135719124" lon="12.620713034824545"><ele>29.0</ele><time>2026-04-30T18:02:00.999Z</time></trkpt><trkpt lat="42.146914478892015" lon="12.620916513614823"><ele>29.0</ele><time>2026-04-30T18:02:01.999Z</time></trkpt><trkpt lat="42.14693765910417" lon="12.621093998700564"><ele>29.0</ele><time>2026-04-30T18:02:02.999Z</time></trkpt><trkpt lat="42.14696101345912" lon="12.621282963454897"><ele>29.0</ele><time>2026-04-30T18:02:03.999Z</time></trkpt><trkpt lat="42.14698766000536" lon="12.621480871972098"><ele>28.75</ele><time>2026-04-30T18:02:04.999Z</time></trkpt><trkpt lat="42.14704231670465" lon="12.621635677967001"><ele>28.5</ele><time>2026-04-30T18:02:05.999Z</time></trkpt><trkpt lat="42.14709804655265" lon="12.621820088061448"><ele>28.25</ele><time>2026-04-30T18:02:06.999Z</time></trkpt><trkpt lat="42.14719494515958" lon="12.621967840973923"><ele>28.0</ele><time>2026-04-30T18:02:07.999Z</time></trkpt><trkpt lat="42.14730468978412" lon="12.62210324713742"><ele>27.599999999999998</ele><time>2026-04-30T18:02:08.999Z</time></trkpt><trkpt lat="42.14741222351194" lon="12.622227715287732"><ele>27.199999999999996</ele><time>2026-04-30T18:02:09.999Z</time></trkpt><trkpt lat="42.14750191546613" lon="12.622337851711704"><ele>26.8</ele><time>2026-04-30T18:02:10.999Z</time></trkpt><trkpt lat="42.147574015442125" lon="12.622396522528934"><ele>26.4</ele><time>2026-04-30T18:02:11.999Z</time></trkpt><trkpt lat="42.14763601743733" lon="12.622461290128053"><ele>26.0</ele><time>2026-04-30T18:02:12.999Z</time></trkpt><trkpt lat="42.1476873291106" lon="12.6225425865563"><ele>26.0</ele><time>2026-04-30T18:02:13.999Z</time></trkpt><trkpt lat="42.147766873556904" lon="12.622617158012819"><ele>26.0</ele><time>2026-04-30T18:02:14.999Z</time></trkpt><trkpt lat="42.14783511392383" lon="12.622692926219036"><ele>26.0</ele><time>2026-04-30T18:02:15.999Z</time></trkpt><trkpt lat="42.14791238948662" lon="12.622718755853935"><ele>26.0</ele><time>2026-04-30T18:02:17.999Z</time></trkpt><trkpt lat="42.14797110472154" lon="12.622471486799148"><ele>26.0</ele><time>2026-04-30T18:02:18.999Z</time></trkpt><trkpt lat="42.14805351069611" lon="12.622376038767097"><ele>26.0</ele><time>2026-04-30T18:02:19.999Z</time></trkpt><trkpt lat="42.14812655932271" lon="12.622223573433343"><ele>26.0</ele><time>2026-04-30T18:02:20.999Z</time></trkpt><trkpt lat="42.14820429011022" lon="12.62213017002839"><ele>26.0</ele><time>2026-04-30T18:02:21.999Z</time></trkpt><trkpt lat="42.148266232651345" lon="12.622032314418394"><ele>26.0</ele><time>2026-04-30T18:02:22.999Z</time></trkpt><trkpt lat="42.14833886478321" lon="12.621917963589794"><ele>26.4</ele><time>2026-04-30T18:02:23.999Z</time></trkpt><trkpt lat="42.148398797397014" lon="12.621768279700273"><ele>26.8</ele><time>2026-04-30T18:02:24.999Z</time></trkpt><trkpt lat="42.148478367224506" lon="12.621712618663715"><ele>27.199999999999996</ele><time>2026-04-30T18:02:25.999Z</time></trkpt><trkpt lat="42.14858676802687" lon="12.621681965522432"><ele>27.599999999999998</ele><time>2026-04-30T18:02:26.999Z</time></trkpt><trkpt lat="42.14867340337802" lon="12.621695234273696"><ele>28.0</ele><time>2026-04-30T18:02:27.999Z</time></trkpt><trkpt lat="42.14875798742273" lon="12.621772059319923"><ele>28.0</ele><time>2026-04-30T18:02:28.999Z</time></trkpt><trkpt lat="42.148828657119076" lon="12.621854788303306"><ele>27.999999999999996</ele><time>2026-04-30T18:02:29.999Z</time></trkpt><trkpt lat="42.14890724542435" lon="12.621949871594309"><ele>27.999999999999996</ele><time>2026-04-30T18:02:31.999Z</time></trkpt><trkpt lat="42.14893448624856" lon="12.622052638927663"><ele>28.0</ele><time>2026-04-30T18:02:32.999Z</time></trkpt><trkpt lat="42.148961354799425" lon="12.622144861830572"><ele>28.0</ele><time>2026-04-30T18:02:33.999Z</time></trkpt><trkpt lat="42.149040224909484" lon="12.622250997857435"><ele>27.5</ele><time>2026-04-30T18:02:34.999Z</time></trkpt><trkpt lat="42.14909764211806" lon="12.622380369793223"><ele>27.0</ele><time>2026-04-30T18:02:35.999Z</time></trkpt><trkpt lat="42.14913871651867" lon="12.622548058888418"><ele>26.5</ele><time>2026-04-30T18:02:36.999Z</time></trkpt><trkpt lat="42.14920499923918" lon="12.62273438674298"><ele>26.0</ele><time>2026-04-30T18:02:37.999Z</time></trkpt><trkpt lat="42.14927224966452" lon="12.622936059218768"><ele>25.666666666666664</ele><time>2026-04-30T18:02:38.999Z</time></trkpt><trkpt lat="42.149317290641214" lon="12.62314219171847"><ele>25.333333333333336</ele><time>2026-04-30T18:02:39.999Z</time></trkpt><trkpt lat="42.14937984005395" lon="12.623372878562714"><ele>25.0</ele><time>2026-04-30T18:02:40.998Z</time></trkpt><trkpt lat="42.14943975905475" lon="12.62360424198207"><ele>25.333333333333336</ele><time>2026-04-30T18:02:41.998Z</time></trkpt><trkpt lat="42.14950161469994" lon="12.623833178219153"><ele>25.666666666666664</ele><time>2026-04-30T18:02:42.998Z</time></trkpt><trkpt lat="42.149535871684996" lon="12.62406881710785"><ele>26.0</ele><time>2026-04-30T18:02:43.998Z</time></trkpt><trkpt lat="42.14955809556577" lon="12.624289641305705"><ele>25.666666666666664</ele><time>2026-04-30T18:02:44.998Z</time></trkpt><trkpt lat="42.149574273211066" lon="12.624530087371832"><ele>25.333333333333336</ele><time>2026-04-30T18:02:45.998Z</time></trkpt><trkpt lat="42.14958484050375" lon="12.624780412569457"><ele>25.0</ele><time>2026-04-30T18:02:46.998Z</time></trkpt><trkpt lat="42.14959543941906" lon="12.625019843783516"><ele>25.0</ele><time>2026-04-30T18:02:47.998Z</time></trkpt><trkpt lat="42.149606457658564" lon="12.62525034165311"><ele>25.0</ele><time>2026-04-30T18:02:48.998Z</time></trkpt><trkpt lat="42.14962550466188" lon="12.62547997712976"><ele>25.0</ele><time>2026-04-30T18:02:49.998Z</time></trkpt><trkpt lat="42.14965402047185" lon="12.625705444582085"><ele>25.0</ele><time>2026-04-30T18:02:50.998Z</time></trkpt><trkpt lat="42.14967548816962" lon="12.625944472150447"><ele>25.0</ele><time>2026-04-30T18:02:52Z</time></trkpt><trkpt lat="42.14969201102325" lon="12.626180953085827"><ele>25.0</ele><time>2026-04-30T18:02:53Z</time></trkpt><trkpt lat="42.14968584182626" lon="12.626422424340637"><ele>25.333333333333336</ele><time>2026-04-30T18:02:54Z</time></trkpt><trkpt lat="42.14971153396403" lon="12.626656055340705"><ele>25.666666666666664</ele><time>2026-04-30T18:02:55Z</time></trkpt><trkpt lat="42.14973126733409" lon="12.626898325799239"><ele>26.0</ele><time>2026-04-30T18:02:56Z</time></trkpt><trkpt lat="42.14974867017534" lon="12.627135683942987"><ele>26.0</ele><time>2026-04-30T18:02:57Z</time></trkpt><trkpt lat="42.149747773993546" lon="12.627387240565927"><ele>26.0</ele><time>2026-04-30T18:02:58Z</time></trkpt><trkpt lat="42.149761846302354" lon="12.627635476270818"><ele>26.0</ele><time>2026-04-30T18:02:59Z</time></trkpt><trkpt lat="42.14977605604148" lon="12.627887838073422"><ele>25.666666666666664</ele><time>2026-04-30T18:03:00Z</time></trkpt><trkpt lat="42.14979063866407" lon="12.628146822117932"><ele>25.333333333333336</ele><time>2026-04-30T18:03:01Z</time></trkpt><trkpt lat="42.14981737633922" lon="12.628402140036465"><ele>25.0</ele><time>2026-04-30T18:03:02Z</time></trkpt><trkpt lat="42.149831390070354" lon="12.628656369732454"><ele>24.666666666666668</ele><time>2026-04-30T18:03:03Z</time></trkpt><trkpt lat="42.14983370239936" lon="12.628918069127064"><ele>24.333333333333336</ele><time>2026-04-30T18:03:04Z</time></trkpt><trkpt lat="42.149864865406805" lon="12.62918659728396"><ele>24.0</ele><time>2026-04-30T18:03:05Z</time></trkpt><trkpt lat="42.1498780129194" lon="12.62945975982318"><ele>25.0</ele><time>2026-04-30T18:03:06Z</time></trkpt><trkpt lat="42.14989061463205" lon="12.629731449617047"><ele>26.0</ele><time>2026-04-30T18:03:07Z</time></trkpt><trkpt lat="42.14989985190073" lon="12.630014536722374"><ele>27.0</ele><time>2026-04-30T18:03:08Z</time></trkpt><trkpt lat="42.149910930751545" lon="12.630292441008931"><ele>26.666666666666664</ele><time>2026-04-30T18:03:09Z</time></trkpt><trkpt lat="42.149929197412" lon="12.63057230628344"><ele>26.333333333333332</ele><time>2026-04-30T18:03:10Z</time></trkpt><trkpt lat="42.14994616211314" lon="12.630852876971973"><ele>26.0</ele><time>2026-04-30T18:03:11Z</time></trkpt><trkpt lat="42.14996496450409" lon="12.63112829467259"><ele>26.0</ele><time>2026-04-30T18:03:12Z</time></trkpt><trkpt lat="42.14998725611716" lon="12.631414834278885"><ele>26.0</ele><time>2026-04-30T18:03:13Z</time></trkpt><trkpt lat="42.150017663542194" lon="12.63170728495851"><ele>26.0</ele><time>2026-04-30T18:03:14Z</time></trkpt><trkpt lat="42.150051054441946" lon="12.632004297516636"><ele>26.0</ele><time>2026-04-30T18:03:15Z</time></trkpt><trkpt lat="42.15010385059333" lon="12.632288167737165"><ele>26.0</ele><time>2026-04-30T18:03:16Z</time></trkpt><trkpt lat="42.15016726090091" lon="12.632568855668655"><ele>26.0</ele><time>2026-04-30T18:03:17Z</time></trkpt><trkpt lat="42.15024448716942" lon="12.632847956685127"><ele>26.0</ele><time>2026-04-30T18:03:18Z</time></trkpt><trkpt lat="42.15032883585681" lon="12.633123260693674"><ele>26.0</ele><time>2026-04-30T18:03:19Z</time></trkpt><trkpt lat="42.150419453563444" lon="12.633399451738141"><ele>26.0</ele><time>2026-04-30T18:03:20Z</time></trkpt><trkpt lat="42.150500258599" lon="12.633677007426078"><ele>26.0</ele><time>2026-04-30T18:03:21Z</time></trkpt><trkpt lat="42.15058473868883" lon="12.63394604505694"><ele>26.0</ele><time>2026-04-30T18:03:22Z</time></trkpt><trkpt lat="42.15067176799708" lon="12.634220854742434"><ele>26.0</ele><time>2026-04-30T18:03:23Z</time></trkpt><trkpt lat="42.15076546304061" lon="12.634497729982611"><ele>26.5</ele><time>2026-04-30T18:03:24Z</time></trkpt><trkpt lat="42.15085708210239" lon="12.634782257890711"><ele>27.0</ele><time>2026-04-30T18:03:25Z</time></trkpt><trkpt lat="42.150948241147425" lon="12.635074494635568"><ele>27.0</ele><time>2026-04-30T18:03:26Z</time></trkpt><trkpt lat="42.15103854006098" lon="12.635354021727446"><ele>27.0</ele><time>2026-04-30T18:03:27Z</time></trkpt><trkpt lat="42.15113766849577" lon="12.635633804954923"><ele>27.0</ele><time>2026-04-30T18:03:28Z</time></trkpt><trkpt lat="42.15123218973072" lon="12.63591240146861"><ele>27.0</ele><time>2026-04-30T18:03:29Z</time></trkpt><trkpt lat="42.15132273258611" lon="12.636191514450646"><ele>26.666666666666664</ele><time>2026-04-30T18:03:30Z</time></trkpt><trkpt lat="42.151405482875774" lon="12.636461702700029"><ele>26.333333333333332</ele><time>2026-04-30T18:03:31Z</time></trkpt><trkpt lat="42.15149344402565" lon="12.63673016947351"><ele>26.0</ele><time>2026-04-30T18:03:32Z</time></trkpt><trkpt lat="42.15157277504749" lon="12.637004388544314"><ele>26.0</ele><time>2026-04-30T18:03:33Z</time></trkpt><trkpt lat="42.15165760198528" lon="12.637276336188584"><ele>26.0</ele><time>2026-04-30T18:03:34Z</time></trkpt><trkpt lat="42.15175390011098" lon="12.637549463973047"><ele>26.0</ele><time>2026-04-30T18:03:35Z</time></trkpt><trkpt lat="42.151842391427515" lon="12.637816235892618"><ele>26.666666666666664</ele><time>2026-04-30T18:03:36Z</time></trkpt><trkpt lat="42.151926038786435" lon="12.638093129087931"><ele>27.333333333333336</ele><time>2026-04-30T18:03:37Z</time></trkpt><trkpt lat="42.15200423850185" lon="12.638351490048212"><ele>28.0</ele><time>2026-04-30T18:03:38Z</time></trkpt><trkpt lat="42.15209147711074" lon="12.63861297532523"><ele>28.0</ele><time>2026-04-30T18:03:39Z</time></trkpt><trkpt lat="42.15218263860906" lon="12.638884774111341"><ele>28.0</ele><time>2026-04-30T18:03:40Z</time></trkpt><trkpt lat="42.15228250219303" lon="12.639163247963541"><ele>28.0</ele><time>2026-04-30T18:03:41Z</time></trkpt><trkpt lat="42.15237798579013" lon="12.639426776565745"><ele>28.0</ele><time>2026-04-30T18:03:42Z</time></trkpt><trkpt lat="42.15247653589247" lon="12.639704703294283"><ele>28.0</ele><time>2026-04-30T18:03:43Z</time></trkpt><trkpt lat="42.15257922826389" lon="12.639975739488674"><ele>27.5</ele><time>2026-04-30T18:03:43.999Z</time></trkpt><trkpt lat="42.152677172463754" lon="12.64025055724676"><ele>27.0</ele><time>2026-04-30T18:03:44.999Z</time></trkpt><trkpt lat="42.15276065213727" lon="12.64053668584094"><ele>26.5</ele><time>2026-04-30T18:03:45.999Z</time></trkpt><trkpt lat="42.1528568039028" lon="12.640828045729762"><ele>26.0</ele><time>2026-04-30T18:03:46.999Z</time></trkpt><trkpt lat="42.152958492178826" lon="12.641134940998926"><ele>25.5</ele><time>2026-04-30T18:03:47.999Z</time></trkpt><trkpt lat="42.153048052908346" lon="12.641428718723452"><ele>25.0</ele><time>2026-04-30T18:03:48.999Z</time></trkpt><trkpt lat="42.15312737187979" lon="12.641726261770907"><ele>25.5</ele><time>2026-04-30T18:03:49.999Z</time></trkpt><trkpt lat="42.153201245614135" lon="12.642045018580093"><ele>26.0</ele><time>2026-04-30T18:03:50.999Z</time></trkpt><trkpt lat="42.153262304892436" lon="12.642366233107303"><ele>26.5</ele><time>2026-04-30T18:03:51.999Z</time></trkpt><trkpt lat="42.15330509941916" lon="12.642704355949801"><ele>27.0</ele><time>2026-04-30T18:03:52.999Z</time></trkpt><trkpt lat="42.15332639547251" lon="12.643065309127426"><ele>27.0</ele><time>2026-04-30T18:03:53.999Z</time></trkpt><trkpt lat="42.153326722138246" lon="12.643413714373688"><ele>27.0</ele><time>2026-04-30T18:03:54.999Z</time></trkpt><trkpt lat="42.15330570732919" lon="12.64375630551042"><ele>27.0</ele><time>2026-04-30T18:03:55.999Z</time></trkpt><trkpt lat="42.153268137212244" lon="12.644092386730277"><ele>27.0</ele><time>2026-04-30T18:03:56.999Z</time></trkpt><trkpt lat="42.153216891838284" lon="12.644429780912795"><ele>26.5</ele><time>2026-04-30T18:03:57.999Z</time></trkpt><trkpt lat="42.15314888007069" lon="12.644728063920342"><ele>26.0</ele><time>2026-04-30T18:03:58.999Z</time></trkpt><trkpt lat="42.153068437751955" lon="12.645011223113439"><ele>26.0</ele><time>2026-04-30T18:03:59.999Z</time></trkpt><trkpt lat="42.152977801317654" lon="12.645291118299825"><ele>26.0</ele><time>2026-04-30T18:04:00.999Z</time></trkpt><trkpt lat="42.15287583941848" lon="12.645565646082158"><ele>26.0</ele><time>2026-04-30T18:04:01.999Z</time></trkpt><trkpt lat="42.15278161413655" lon="12.645839781852482"><ele>26.0</ele><time>2026-04-30T18:04:02.999Z</time></trkpt><trkpt lat="42.15269146394836" lon="12.6461118102007"><ele>26.0</ele><time>2026-04-30T18:04:03.999Z</time></trkpt><trkpt lat="42.152604078722" lon="12.646378179533894"><ele>26.333333333333332</ele><time>2026-04-30T18:04:04.999Z</time></trkpt><trkpt lat="42.15251109816574" lon="12.646635910265188"><ele>26.666666666666664</ele><time>2026-04-30T18:04:05.999Z</time></trkpt><trkpt lat="42.15241959931845" lon="12.646887060452293"><ele>27.0</ele><time>2026-04-30T18:04:06.999Z</time></trkpt><trkpt lat="42.1523240985855" lon="12.647140964527246"><ele>27.333333333333336</ele><time>2026-04-30T18:04:07.999Z</time></trkpt><trkpt lat="42.15223168948921" lon="12.647393571883915"><ele>27.666666666666668</ele><time>2026-04-30T18:04:08.999Z</time></trkpt><trkpt lat="42.152142317696914" lon="12.647649175752639"><ele>28.0</ele><time>2026-04-30T18:04:09.999Z</time></trkpt><trkpt lat="42.15205435428639" lon="12.647901454286288"><ele>29.666666666666668</ele><time>2026-04-30T18:04:10.999Z</time></trkpt><trkpt lat="42.15195994633972" lon="12.648154545875643"><ele>31.333333333333336</ele><time>2026-04-30T18:04:11.999Z</time></trkpt><trkpt lat="42.15186565093576" lon="12.648406113328312"><ele>33.0</ele><time>2026-04-30T18:04:12.999Z</time></trkpt><trkpt lat="42.151778196230545" lon="12.648637356118051"><ele>34.0</ele><time>2026-04-30T18:04:13.999Z</time></trkpt><trkpt lat="42.15170142135143" lon="12.64884834425492"><ele>35.0</ele><time>2026-04-30T18:04:14.999Z</time></trkpt><trkpt lat="42.151628724354026" lon="12.649054523525132"><ele>36.0</ele><time>2026-04-30T18:04:15.999Z</time></trkpt><trkpt lat="42.15155597551526" lon="12.649259936873591"><ele>35.333333333333336</ele><time>2026-04-30T18:04:16.999Z</time></trkpt><trkpt lat="42.151480829522825" lon="12.64946599077605"><ele>34.66666666666667</ele><time>2026-04-30T18:04:17.999Z</time></trkpt><trkpt lat="42.15140880668539" lon="12.649681212643209"><ele>34.0</ele><time>2026-04-30T18:04:18.999Z</time></trkpt><trkpt lat="42.151333244974374" lon="12.649904900307943"><ele>34.0</ele><time>2026-04-30T18:04:19.999Z</time></trkpt><trkpt lat="42.151257258323305" lon="12.65013416414294"><ele>34.0</ele><time>2026-04-30T18:04:20.999Z</time></trkpt><trkpt lat="42.15117738572348" lon="12.650367295739303"><ele>34.0</ele><time>2026-04-30T18:04:21.999Z</time></trkpt><trkpt lat="42.151095435091236" lon="12.650602440734644"><ele>33.66666666666667</ele><time>2026-04-30T18:04:22.999Z</time></trkpt><trkpt lat="42.15100894854709" lon="12.65083151542379"><ele>33.333333333333336</ele><time>2026-04-30T18:04:23.999Z</time></trkpt><trkpt lat="42.15092224591915" lon="12.651062352261997"><ele>33.0</ele><time>2026-04-30T18:04:24.999Z</time></trkpt><trkpt lat="42.15082632678577" lon="12.651283275480452"><ele>32.666666666666664</ele><time>2026-04-30T18:04:25.999Z</time></trkpt><trkpt lat="42.15074796839905" lon="12.651511701609218"><ele>32.33333333333333</ele><time>2026-04-30T18:04:26.999Z</time></trkpt><trkpt lat="42.15066971820868" lon="12.651725250564773"><ele>32.0</ele><time>2026-04-30T18:04:27.999Z</time></trkpt><trkpt lat="42.15060121524754" lon="12.651923117191735"><ele>32.25</ele><time>2026-04-30T18:04:28.999Z</time></trkpt><trkpt lat="42.15054178974987" lon="12.652108157908978"><ele>32.5</ele><time>2026-04-30T18:04:29.999Z</time></trkpt><trkpt lat="42.15050281626982" lon="12.652279537112712"><ele>32.75</ele><time>2026-04-30T18:04:30.999Z</time></trkpt><trkpt lat="42.150489447241696" lon="12.652450060682249"><ele>33.0</ele><time>2026-04-30T18:04:31.999Z</time></trkpt><trkpt lat="42.1504956555944" lon="12.65262588233452"><ele>33.25</ele><time>2026-04-30T18:04:32.999Z</time></trkpt><trkpt lat="42.150517900596554" lon="12.65279008815115"><ele>33.5</ele><time>2026-04-30T18:04:33.999Z</time></trkpt><trkpt lat="42.15056118843765" lon="12.652954367290144"><ele>33.75</ele><time>2026-04-30T18:04:34.999Z</time></trkpt><trkpt lat="42.15062590257314" lon="12.653115746809604"><ele>34.0</ele><time>2026-04-30T18:04:35.999Z</time></trkpt><trkpt lat="42.15070568250071" lon="12.653262197933602"><ele>33.5</ele><time>2026-04-30T18:04:36.999Z</time></trkpt><trkpt lat="42.150786919217154" lon="12.653402900999867"><ele>33.0</ele><time>2026-04-30T18:04:37.999Z</time></trkpt><trkpt lat="42.15087221386027" lon="12.653555586140035"><ele>32.5</ele><time>2026-04-30T18:04:38.999Z</time></trkpt><trkpt lat="42.150956121567205" lon="12.653712787376492"><ele>32.0</ele><time>2026-04-30T18:04:39.999Z</time></trkpt><trkpt lat="42.15106584682816" lon="12.653867717042893"><ele>32.0</ele><time>2026-04-30T18:04:40.999Z</time></trkpt><trkpt lat="42.151172791467204" lon="12.654012250762953"><ele>32.0</ele><time>2026-04-30T18:04:41.999Z</time></trkpt><trkpt lat="42.1513210804753" lon="12.6541148121401"><ele>32.0</ele><time>2026-04-30T18:04:42.999Z</time></trkpt><trkpt lat="42.15143030588382" lon="12.654271286096629"><ele>32.0</ele><time>2026-04-30T18:04:43.999Z</time></trkpt><trkpt lat="42.15153960340942" lon="12.654428652759828"><ele>32.0</ele><time>2026-04-30T18:04:44.999Z</time></trkpt><trkpt lat="42.151644522456955" lon="12.65457971971088"><ele>32.0</ele><time>2026-04-30T18:04:45.999Z</time></trkpt><trkpt lat="42.151753638267785" lon="12.654736829558665"><ele>31.75</ele><time>2026-04-30T18:04:46.999Z</time></trkpt><trkpt lat="42.15185952566502" lon="12.654889290916445"><ele>31.5</ele><time>2026-04-30T18:04:47.999Z</time></trkpt><trkpt lat="42.15196159176042" lon="12.655036250142855"><ele>31.25</ele><time>2026-04-30T18:04:48.999Z</time></trkpt><trkpt lat="42.1520596257019" lon="12.655177403709041"><ele>31.0</ele><time>2026-04-30T18:04:49.999Z</time></trkpt><trkpt lat="42.15215485103423" lon="12.655314513284154"><ele>30.75</ele><time>2026-04-30T18:04:50.999Z</time></trkpt><trkpt lat="42.15224710540505" lon="12.6554478798275"><ele>30.5</ele><time>2026-04-30T18:04:51.998Z</time></trkpt><trkpt lat="42.15233650372064" lon="12.655579189699033"><ele>30.25</ele><time>2026-04-30T18:04:52.998Z</time></trkpt><trkpt lat="42.15242726086002" lon="12.655717204926189"><ele>30.0</ele><time>2026-04-30T18:04:53.998Z</time></trkpt><trkpt lat="42.15252406878673" lon="12.655829704078572"><ele>30.333333333333336</ele><time>2026-04-30T18:04:54.998Z</time></trkpt><trkpt lat="42.152563452604106" lon="12.656067219471876"><ele>30.666666666666668</ele><time>2026-04-30T18:04:55.998Z</time></trkpt><trkpt lat="42.15265523042327" lon="12.65623357049506"><ele>31.0</ele><time>2026-04-30T18:04:56.998Z</time></trkpt><trkpt lat="42.152748925058425" lon="12.656407711727644"><ele>31.0</ele><time>2026-04-30T18:04:58Z</time></trkpt><trkpt lat="42.15282349145144" lon="12.656574544360124"><ele>31.0</ele><time>2026-04-30T18:04:59Z</time></trkpt><trkpt lat="42.152892642590075" lon="12.656743685654048"><ele>31.0</ele><time>2026-04-30T18:05:00Z</time></trkpt><trkpt lat="42.15297242023304" lon="12.656901216541002"><ele>31.0</ele><time>2026-04-30T18:05:01Z</time></trkpt><trkpt lat="42.1530493875765" lon="12.657058012208571"><ele>31.200000000000003</ele><time>2026-04-30T18:05:02Z</time></trkpt><trkpt lat="42.15312202891149" lon="12.657204313441772"><ele>31.400000000000002</ele><time>2026-04-30T18:05:03Z</time></trkpt><trkpt lat="42.153190742933155" lon="12.657338602711592"><ele>31.6</ele><time>2026-04-30T18:05:04Z</time></trkpt><trkpt lat="42.153249521820825" lon="12.657457249263508"><ele>31.8</ele><time>2026-04-30T18:05:05Z</time></trkpt><trkpt lat="42.153297995787625" lon="12.657558911651144"><ele>32.0</ele><time>2026-04-30T18:05:06Z</time></trkpt><trkpt lat="42.1533311647439" lon="12.657652215160702"><ele>32.166666666666664</ele><time>2026-04-30T18:05:07Z</time></trkpt><trkpt lat="42.15335302438006" lon="12.657742788910541"><ele>32.33333333333333</ele><time>2026-04-30T18:05:08Z</time></trkpt><trkpt lat="42.15336616485007" lon="12.657830286389089"><ele>32.5</ele><time>2026-04-30T18:05:09Z</time></trkpt><trkpt lat="42.153377471207" lon="12.657924632775272"><ele>32.666666666666664</ele><time>2026-04-30T18:05:10Z</time></trkpt><trkpt lat="42.1533866885109" lon="12.658028740855354"><ele>32.833333333333336</ele><time>2026-04-30T18:05:11Z</time></trkpt><trkpt lat="42.15340192888022" lon="12.658147019268728"><ele>33.0</ele><time>2026-04-30T18:05:12Z</time></trkpt><trkpt lat="42.15343836413788" lon="12.658237943370938"><ele>33.0</ele><time>2026-04-30T18:05:13Z</time></trkpt><trkpt lat="42.15351255722906" lon="12.65829599677644"><ele>33.0</ele><time>2026-04-30T18:05:14Z</time></trkpt><trkpt lat="42.153577243411036" lon="12.658333751915489"><ele>33.0</ele><time>2026-04-30T18:05:15Z</time></trkpt><trkpt lat="42.15365044433964" lon="12.658402583793249"><ele>33.0</ele><time>2026-04-30T18:05:16Z</time></trkpt><trkpt lat="42.153717247861394" lon="12.658471623436736"><ele>33.0</ele><time>2026-04-30T18:05:17Z</time></trkpt><trkpt lat="42.15378905810589" lon="12.65855379301309"><ele>33.0</ele><time>2026-04-30T18:05:18Z</time></trkpt><trkpt lat="42.15385620018488" lon="12.658646142821796"><ele>33.199999999999996</ele><time>2026-04-30T18:05:19Z</time></trkpt><trkpt lat="42.153930584269276" lon="12.658690806386252"><ele>33.4</ele><time>2026-04-30T18:05:20Z</time></trkpt><trkpt lat="42.15396622530188" lon="12.658867098408148"><ele>33.599999999999994</ele><time>2026-04-30T18:05:21Z</time></trkpt><trkpt lat="42.15402602346285" lon="12.658986075440197"><ele>33.8</ele><time>2026-04-30T18:05:22Z</time></trkpt><trkpt lat="42.15409725129591" lon="12.659119152782226"><ele>34.0</ele><time>2026-04-30T18:05:23Z</time></trkpt><trkpt lat="42.15418005486649" lon="12.659270895263946"><ele>34.0</ele><time>2026-04-30T18:05:24Z</time></trkpt><trkpt lat="42.1542591442326" lon="12.659428618925343"><ele>34.0</ele><time>2026-04-30T18:05:25Z</time></trkpt><trkpt lat="42.15433965413176" lon="12.659586634367738"><ele>34.0</ele><time>2026-04-30T18:05:26Z</time></trkpt><trkpt lat="42.15442424029267" lon="12.659753695429321"><ele>34.0</ele><time>2026-04-30T18:05:27Z</time></trkpt><trkpt lat="42.1545107291088" lon="12.659922496317918"><ele>34.0</ele><time>2026-04-30T18:05:28Z</time></trkpt><trkpt lat="42.154597588417786" lon="12.660096069199223"><ele>34.0</ele><time>2026-04-30T18:05:29Z</time></trkpt><trkpt lat="42.15468834854642" lon="12.660274124760027"><ele>34.0</ele><time>2026-04-30T18:05:30Z</time></trkpt><trkpt lat="42.154779774030494" lon="12.660454427466616"><ele>34.0</ele><time>2026-04-30T18:05:31Z</time></trkpt><trkpt lat="42.15487249365446" lon="12.660644640335189"><ele>34.0</ele><time>2026-04-30T18:05:32Z</time></trkpt><trkpt lat="42.154970174852046" lon="12.660846339994457"><ele>34.0</ele><time>2026-04-30T18:05:33Z</time></trkpt><trkpt lat="42.15507662045568" lon="12.661055312845319"><ele>34.66666666666667</ele><time>2026-04-30T18:05:34Z</time></trkpt><trkpt lat="42.15518461472233" lon="12.661275045989953"><ele>35.333333333333336</ele><time>2026-04-30T18:05:35Z</time></trkpt><trkpt lat="42.15528733800885" lon="12.661503706656177"><ele>36.0</ele><time>2026-04-30T18:05:36Z</time></trkpt><trkpt lat="42.155385515815" lon="12.661744116685728"><ele>36.333333333333336</ele><time>2026-04-30T18:05:37Z</time></trkpt><trkpt lat="42.15547470513676" lon="12.661991218547023"><ele>36.66666666666667</ele><time>2026-04-30T18:05:38Z</time></trkpt><trkpt lat="42.15554944076856" lon="12.662237501413834"><ele>37.0</ele><time>2026-04-30T18:05:39Z</time></trkpt><trkpt lat="42.15562792071156" lon="12.662488977729529"><ele>37.0</ele><time>2026-04-30T18:05:40Z</time></trkpt><trkpt lat="42.15569780674195" lon="12.662740549198519"><ele>37.0</ele><time>2026-04-30T18:05:41Z</time></trkpt><trkpt lat="42.15576290610258" lon="12.66298137778835"><ele>37.0</ele><time>2026-04-30T18:05:42Z</time></trkpt><trkpt lat="42.15583749293883" lon="12.663206424962556"><ele>36.66666666666667</ele><time>2026-04-30T18:05:43Z</time></trkpt><trkpt lat="42.155873833128005" lon="12.663465675046297"><ele>36.333333333333336</ele><time>2026-04-30T18:05:44Z</time></trkpt><trkpt lat="42.15592550973421" lon="12.663714608901056"><ele>36.0</ele><time>2026-04-30T18:05:45Z</time></trkpt><trkpt lat="42.15597671712493" lon="12.663958173951299"><ele>36.666666666666664</ele><time>2026-04-30T18:05:46Z</time></trkpt><trkpt lat="42.1560212037454" lon="12.664193852070648"><ele>37.33333333333333</ele><time>2026-04-30T18:05:47Z</time></trkpt><trkpt lat="42.156071408960806" lon="12.664452841795537"><ele>38.0</ele><time>2026-04-30T18:05:48Z</time></trkpt><trkpt lat="42.1561218775484" lon="12.664713190092279"><ele>38.666666666666664</ele><time>2026-04-30T18:05:49Z</time></trkpt><trkpt lat="42.15617167798451" lon="12.664970091689128"><ele>39.333333333333336</ele><time>2026-04-30T18:05:50Z</time></trkpt><trkpt lat="42.15621901464796" lon="12.665214078121876"><ele>40.0</ele><time>2026-04-30T18:05:51Z</time></trkpt><trkpt lat="42.15626594450349" lon="12.665455312179967"><ele>40.66666666666667</ele><time>2026-04-30T18:05:52Z</time></trkpt><trkpt lat="42.15631129191265" lon="12.665690254575273"><ele>41.333333333333336</ele><time>2026-04-30T18:05:53Z</time></trkpt><trkpt lat="42.15635324111537" lon="12.665915515097266"><ele>42.0</ele><time>2026-04-30T18:05:54Z</time></trkpt><trkpt lat="42.15639637895227" lon="12.666139757724382"><ele>43.333333333333336</ele><time>2026-04-30T18:05:55Z</time></trkpt><trkpt lat="42.15644109750095" lon="12.666371044459233"><ele>44.66666666666667</ele><time>2026-04-30T18:05:56Z</time></trkpt><trkpt lat="42.156485491222945" lon="12.666600651206952"><ele>46.0</ele><time>2026-04-30T18:05:57Z</time></trkpt><trkpt lat="42.156530373242724" lon="12.666832783636155"><ele>48.333333333333336</ele><time>2026-04-30T18:05:58Z</time></trkpt><trkpt lat="42.15657405212551" lon="12.667058693015646"><ele>50.66666666666667</ele><time>2026-04-30T18:05:59Z</time></trkpt><trkpt lat="42.15661489111936" lon="12.667269848617787"><ele>53.0</ele><time>2026-04-30T18:05:59.999Z</time></trkpt><trkpt lat="42.15665826518601" lon="12.667493651432952"><ele>53.0</ele><time>2026-04-30T18:06:00.999Z</time></trkpt><trkpt lat="42.15670226250981" lon="12.667720670091342"><ele>53.0</ele><time>2026-04-30T18:06:01.999Z</time></trkpt><trkpt lat="42.1567628336565" lon="12.6679515539881"><ele>53.0</ele><time>2026-04-30T18:06:02.999Z</time></trkpt><trkpt lat="42.156809196750906" lon="12.668189491384851"><ele>54.0</ele><time>2026-04-30T18:06:03.999Z</time></trkpt><trkpt lat="42.15685249771797" lon="12.668422354449056"><ele>55.0</ele><time>2026-04-30T18:06:04.999Z</time></trkpt><trkpt lat="42.156893127625565" lon="12.66865967701064"><ele>56.0</ele><time>2026-04-30T18:06:05.999Z</time></trkpt><trkpt lat="42.15693393415052" lon="12.66889755449472"><ele>56.333333333333336</ele><time>2026-04-30T18:06:06.999Z</time></trkpt><trkpt lat="42.156976140466845" lon="12.669126888442348"><ele>56.66666666666667</ele><time>2026-04-30T18:06:07.999Z</time></trkpt><trkpt lat="42.15702019284492" lon="12.669355370468312"><ele>57.0</ele><time>2026-04-30T18:06:08.999Z</time></trkpt><trkpt lat="42.1570629944868" lon="12.669583111648217"><ele>57.66666666666667</ele><time>2026-04-30T18:06:09.999Z</time></trkpt><trkpt lat="42.15710515188327" lon="12.669810809426892"><ele>58.333333333333336</ele><time>2026-04-30T18:06:10.999Z</time></trkpt><trkpt lat="42.15715004692638" lon="12.670028084286693"><ele>59.0</ele><time>2026-04-30T18:06:11.999Z</time></trkpt><trkpt lat="42.15719289701273" lon="12.670257083052794"><ele>60.333333333333336</ele><time>2026-04-30T18:06:12.999Z</time></trkpt><trkpt lat="42.157238010940596" lon="12.670481033562886"><ele>61.66666666666667</ele><time>2026-04-30T18:06:13.999Z</time></trkpt><trkpt lat="42.15728336450662" lon="12.670705622938874"><ele>63.0</ele><time>2026-04-30T18:06:14.999Z</time></trkpt><trkpt lat="42.15732732794641" lon="12.67093039496663"><ele>65.0</ele><time>2026-04-30T18:06:15.999Z</time></trkpt><trkpt lat="42.15736493278819" lon="12.67115138250636"><ele>67.0</ele><time>2026-04-30T18:06:16.999Z</time></trkpt><trkpt lat="42.15737185068681" lon="12.671381475509572"><ele>69.0</ele><time>2026-04-30T18:06:17.999Z</time></trkpt><trkpt lat="42.15738552922266" lon="12.671603672160428"><ele>69.0</ele><time>2026-04-30T18:06:18.999Z</time></trkpt><trkpt lat="42.157392851129835" lon="12.671828354984212"><ele>69.0</ele><time>2026-04-30T18:06:19.999Z</time></trkpt><trkpt lat="42.15738976087949" lon="12.672063680659072"><ele>69.0</ele><time>2026-04-30T18:06:20.999Z</time></trkpt><trkpt lat="42.157377449837185" lon="12.672300653481503"><ele>70.0</ele><time>2026-04-30T18:06:21.999Z</time></trkpt><trkpt lat="42.1573589338605" lon="12.672535076996173"><ele>71.0</ele><time>2026-04-30T18:06:22.999Z</time></trkpt><trkpt lat="42.15733182385522" lon="12.672774154744731"><ele>72.0</ele><time>2026-04-30T18:06:23.999Z</time></trkpt><trkpt lat="42.15729590186305" lon="12.673002337045743"><ele>72.0</ele><time>2026-04-30T18:06:24.999Z</time></trkpt><trkpt lat="42.157250085768524" lon="12.67324162190442"><ele>72.0</ele><time>2026-04-30T18:06:25.999Z</time></trkpt><trkpt lat="42.15719832243053" lon="12.67347458010564"><ele>72.0</ele><time>2026-04-30T18:06:26.999Z</time></trkpt><trkpt lat="42.157145889092234" lon="12.673702277070978"><ele>72.0</ele><time>2026-04-30T18:06:27.999Z</time></trkpt><trkpt lat="42.1570927267527" lon="12.67392960904874"><ele>72.0</ele><time>2026-04-30T18:06:28.999Z</time></trkpt><trkpt lat="42.15704168429314" lon="12.674157287569493"><ele>72.0</ele><time>2026-04-30T18:06:29.999Z</time></trkpt><trkpt lat="42.15698740644981" lon="12.674394697528433"><ele>72.66666666666667</ele><time>2026-04-30T18:06:30.999Z</time></trkpt><trkpt lat="42.15698195672396" lon="12.674645771113871"><ele>73.33333333333334</ele><time>2026-04-30T18:06:31.999Z</time></trkpt><trkpt lat="42.15692338764422" lon="12.674869111112434"><ele>74.0</ele><time>2026-04-30T18:06:32.999Z</time></trkpt><trkpt lat="42.15687418151555" lon="12.67508901554869"><ele>75.0</ele><time>2026-04-30T18:06:33.999Z</time></trkpt><trkpt lat="42.15682207577369" lon="12.675308179944855"><ele>76.0</ele><time>2026-04-30T18:06:34.999Z</time></trkpt><trkpt lat="42.156730466992464" lon="12.675509377340212"><ele>77.0</ele><time>2026-04-30T18:06:35.999Z</time></trkpt><trkpt lat="42.15668141567718" lon="12.675722465678453"><ele>77.0</ele><time>2026-04-30T18:06:36.999Z</time></trkpt><trkpt lat="42.156631389772556" lon="12.675939787919994"><ele>77.0</ele><time>2026-04-30T18:06:37.999Z</time></trkpt><trkpt lat="42.15658219021092" lon="12.676153555711409"><ele>77.0</ele><time>2026-04-30T18:06:38.999Z</time></trkpt><trkpt lat="42.15653506893994" lon="12.676360673434514"><ele>76.66666666666667</ele><time>2026-04-30T18:06:39.999Z</time></trkpt><trkpt lat="42.15648828827239" lon="12.676566293982402"><ele>76.33333333333333</ele><time>2026-04-30T18:06:40.999Z</time></trkpt><trkpt lat="42.15644178760043" lon="12.676765465403342"><ele>76.0</ele><time>2026-04-30T18:06:41.999Z</time></trkpt><trkpt lat="42.15639661207985" lon="12.676958239149773"><ele>76.0</ele><time>2026-04-30T18:06:42.999Z</time></trkpt><trkpt lat="42.15635346335897" lon="12.677142364161744"><ele>76.0</ele><time>2026-04-30T18:06:43.999Z</time></trkpt><trkpt lat="42.15631337668186" lon="12.67731795673339"><ele>76.0</ele><time>2026-04-30T18:06:44.999Z</time></trkpt><trkpt lat="42.156273449747445" lon="12.677495906065248"><ele>76.0</ele><time>2026-04-30T18:06:45.999Z</time></trkpt><trkpt lat="42.15627237632098" lon="12.677684151881685"><ele>76.75</ele><time>2026-04-30T18:06:46.999Z</time></trkpt><trkpt lat="42.15622970908447" lon="12.677855601674482"><ele>77.5</ele><time>2026-04-30T18:06:47.999Z</time></trkpt><trkpt lat="42.15618642802606" lon="12.67803269826767"><ele>78.25</ele><time>2026-04-30T18:06:48.999Z</time></trkpt><trkpt lat="42.156144682458276" lon="12.67821085314833"><ele>79.0</ele><time>2026-04-30T18:06:49.999Z</time></trkpt><trkpt lat="42.15610440616291" lon="12.678390059259756"><ele>79.0</ele><time>2026-04-30T18:06:50.999Z</time></trkpt><trkpt lat="42.15606438034409" lon="12.678566757828849"><ele>79.0</ele><time>2026-04-30T18:06:51.999Z</time></trkpt><trkpt lat="42.15598915140746" lon="12.67872411615031"><ele>79.0</ele><time>2026-04-30T18:06:52.999Z</time></trkpt><trkpt lat="42.15594931262533" lon="12.678895246328509"><ele>79.0</ele><time>2026-04-30T18:06:53.999Z</time></trkpt><trkpt lat="42.15591227532181" lon="12.679058970973056"><ele>80.0</ele><time>2026-04-30T18:06:54.999Z</time></trkpt><trkpt lat="42.15587797650717" lon="12.679210688039335"><ele>81.0</ele><time>2026-04-30T18:06:55.999Z</time></trkpt><trkpt lat="42.15584575307311" lon="12.679356023237697"><ele>82.0</ele><time>2026-04-30T18:06:56.999Z</time></trkpt><trkpt lat="42.15581458048157" lon="12.6794989872824"><ele>83.0</ele><time>2026-04-30T18:06:57.999Z</time></trkpt><trkpt lat="42.15578378398411" lon="12.6796378876901"><ele>84.0</ele><time>2026-04-30T18:06:58.999Z</time></trkpt><trkpt lat="42.15575340460391" lon="12.679769788739279"><ele>84.5</ele><time>2026-04-30T18:06:59.999Z</time></trkpt><trkpt lat="42.15572516066571" lon="12.679892418162472"><ele>85.0</ele><time>2026-04-30T18:07:00.999Z</time></trkpt><trkpt lat="42.15569978812792" lon="12.680002580480826"><ele>85.5</ele><time>2026-04-30T18:07:01.999Z</time></trkpt><trkpt lat="42.15567689670455" lon="12.68010197114016"><ele>86.0</ele><time>2026-04-30T18:07:02.999Z</time></trkpt><trkpt lat="42.155666316014894" lon="12.680196511974527"><ele>86.5</ele><time>2026-04-30T18:07:04.001Z</time></trkpt><trkpt lat="42.155621278339275" lon="12.680264303209837"><ele>87.0</ele><time>2026-04-30T18:07:05.001Z</time></trkpt><trkpt lat="42.15556788261618" lon="12.680315685646185"><ele>87.8</ele><time>2026-04-30T18:07:06.001Z</time></trkpt><trkpt lat="42.15550162918474" lon="12.680338150025324"><ele>88.6</ele><time>2026-04-30T18:07:07.001Z</time></trkpt><trkpt lat="42.1554426414578" lon="12.680406993760272"><ele>89.39999999999999</ele><time>2026-04-30T18:07:08.001Z</time></trkpt><trkpt lat="42.15540336402543" lon="12.680478890360172"><ele>90.19999999999999</ele><time>2026-04-30T18:07:09.001Z</time></trkpt><trkpt lat="42.15543808392652" lon="12.680677096327706"><ele>91.0</ele><time>2026-04-30T18:07:11.001Z</time></trkpt><trkpt lat="42.155525363248294" lon="12.680785585872458"><ele>91.0</ele><time>2026-04-30T18:07:13.001Z</time></trkpt><trkpt lat="42.15548607427706" lon="12.68095901258673"><ele>91.0</ele><time>2026-04-30T18:07:14.001Z</time></trkpt><trkpt lat="42.15541582755327" lon="12.681100035988933"><ele>91.0</ele><time>2026-04-30T18:07:15.001Z</time></trkpt><trkpt lat="42.15538855683776" lon="12.681227916047556"><ele>91.0</ele><time>2026-04-30T18:07:16.001Z</time></trkpt><trkpt lat="42.15537276414897" lon="12.681370950823501"><ele>91.25</ele><time>2026-04-30T18:07:17.001Z</time></trkpt><trkpt lat="42.155351040202746" lon="12.681509558556177"><ele>91.5</ele><time>2026-04-30T18:07:18.001Z</time></trkpt><trkpt lat="42.155322728952164" lon="12.681653507671376"><ele>91.75</ele><time>2026-04-30T18:07:19Z</time></trkpt><trkpt lat="42.15529143738967" lon="12.681808164564668"><ele>92.0</ele><time>2026-04-30T18:07:20Z</time></trkpt><trkpt lat="42.15525843558966" lon="12.681971400638371"><ele>91.5</ele><time>2026-04-30T18:07:21Z</time></trkpt><trkpt lat="42.15522545155494" lon="12.682133116488906"><ele>91.0</ele><time>2026-04-30T18:07:22Z</time></trkpt><trkpt lat="42.15518195042336" lon="12.682304037011892"><ele>90.5</ele><time>2026-04-30T18:07:23Z</time></trkpt><trkpt lat="42.15513465601547" lon="12.682473173530328"><ele>90.0</ele><time>2026-04-30T18:07:24Z</time></trkpt><trkpt lat="42.15509564362892" lon="12.682638517675741"><ele>90.0</ele><time>2026-04-30T18:07:25Z</time></trkpt><trkpt lat="42.15506140908982" lon="12.682807967138096"><ele>90.0</ele><time>2026-04-30T18:07:26Z</time></trkpt><trkpt lat="42.15502066318322" lon="12.682979836067709"><ele>90.0</ele><time>2026-04-30T18:07:27Z</time></trkpt><trkpt lat="42.15497890841174" lon="12.683144984774644"><ele>90.0</ele><time>2026-04-30T18:07:28Z</time></trkpt><trkpt lat="42.154952638405874" lon="12.68329736927214"><ele>90.0</ele><time>2026-04-30T18:07:29Z</time></trkpt><trkpt lat="42.15492701876117" lon="12.683442685407234"><ele>90.0</ele><time>2026-04-30T18:07:30Z</time></trkpt><trkpt lat="42.154898777300566" lon="12.683584950209246"><ele>90.0</ele><time>2026-04-30T18:07:31Z</time></trkpt><trkpt lat="42.15487923863197" lon="12.683732644623802"><ele>90.0</ele><time>2026-04-30T18:07:32Z</time></trkpt><trkpt lat="42.15486571109798" lon="12.68388653614557"><ele>90.0</ele><time>2026-04-30T18:07:33Z</time></trkpt><trkpt lat="42.15485767283543" lon="12.684043768145289"><ele>90.5</ele><time>2026-04-30T18:07:34Z</time></trkpt><trkpt lat="42.15484501247596" lon="12.684210564702303"><ele>91.0</ele><time>2026-04-30T18:07:35Z</time></trkpt><trkpt lat="42.15484345879914" lon="12.68438338092343"><ele>91.5</ele><time>2026-04-30T18:07:36Z</time></trkpt><trkpt lat="42.15484747840952" lon="12.684561338349573"><ele>92.0</ele><time>2026-04-30T18:07:37Z</time></trkpt><trkpt lat="42.15484986477136" lon="12.684743112361387"><ele>92.0</ele><time>2026-04-30T18:07:38Z</time></trkpt><trkpt lat="42.154858038200736" lon="12.684918688521156"><ele>92.0</ele><time>2026-04-30T18:07:39Z</time></trkpt><trkpt lat="42.15487127523032" lon="12.68508933985733"><ele>92.0</ele><time>2026-04-30T18:07:40Z</time></trkpt><trkpt lat="42.15489172527386" lon="12.685262644573132"><ele>92.0</ele><time>2026-04-30T18:07:41Z</time></trkpt><trkpt lat="42.15491993405051" lon="12.685440913286715"><ele>91.5</ele><time>2026-04-30T18:07:42Z</time></trkpt><trkpt lat="42.1549527758129" lon="12.685615650572755"><ele>91.0</ele><time>2026-04-30T18:07:43Z</time></trkpt><trkpt lat="42.15498905890789" lon="12.685799340005087"><ele>90.5</ele><time>2026-04-30T18:07:44Z</time></trkpt><trkpt lat="42.155026460088195" lon="12.685982316384402"><ele>90.0</ele><time>2026-04-30T18:07:45Z</time></trkpt><trkpt lat="42.15507305557589" lon="12.686163824521675"><ele>91.0</ele><time>2026-04-30T18:07:46Z</time></trkpt><trkpt lat="42.15512430646835" lon="12.686347537177927"><ele>92.0</ele><time>2026-04-30T18:07:47Z</time></trkpt><trkpt lat="42.155185813796535" lon="12.686525781107827"><ele>93.0</ele><time>2026-04-30T18:07:48Z</time></trkpt><trkpt lat="42.15525182660334" lon="12.686703774471658"><ele>94.0</ele><time>2026-04-30T18:07:49Z</time></trkpt><trkpt lat="42.15532282157975" lon="12.686876670368834"><ele>94.75</ele><time>2026-04-30T18:07:50Z</time></trkpt><trkpt lat="42.15539959171151" lon="12.687045066204105"><ele>95.5</ele><time>2026-04-30T18:07:51Z</time></trkpt><trkpt lat="42.15547921843157" lon="12.687210201752102"><ele>96.25</ele><time>2026-04-30T18:07:52Z</time></trkpt><trkpt lat="42.15556886227948" lon="12.687374274230393"><ele>97.0</ele><time>2026-04-30T18:07:53Z</time></trkpt><trkpt lat="42.15566606072752" lon="12.687540285106476"><ele>97.33333333333334</ele><time>2026-04-30T18:07:54Z</time></trkpt><trkpt lat="42.15576806423265" lon="12.687702062356507"><ele>97.66666666666666</ele><time>2026-04-30T18:07:55Z</time></trkpt><trkpt lat="42.15587784181448" lon="12.6878627330489"><ele>98.0</ele><time>2026-04-30T18:07:56Z</time></trkpt><trkpt lat="42.15599062643858" lon="12.688023933927097"><ele>98.0</ele><time>2026-04-30T18:07:57Z</time></trkpt><trkpt lat="42.15610843070008" lon="12.688177869551545"><ele>98.0</ele><time>2026-04-30T18:07:58Z</time></trkpt><trkpt lat="42.15623997070324" lon="12.688327380670508"><ele>98.0</ele><time>2026-04-30T18:07:59Z</time></trkpt><trkpt lat="42.15637380357388" lon="12.688468290637683"><ele>98.33333333333333</ele><time>2026-04-30T18:08:00Z</time></trkpt><trkpt lat="42.15651983731235" lon="12.688614817981149"><ele>98.66666666666666</ele><time>2026-04-30T18:08:01Z</time></trkpt><trkpt lat="42.1566700097531" lon="12.688758550243554"><ele>99.0</ele><time>2026-04-30T18:08:02Z</time></trkpt><trkpt lat="42.156829240927735" lon="12.688910866474812"><ele>99.66666666666666</ele><time>2026-04-30T18:08:03Z</time></trkpt><trkpt lat="42.1569803019449" lon="12.689069993035295"><ele>100.33333333333333</ele><time>2026-04-30T18:08:04Z</time></trkpt><trkpt lat="42.157131140031225" lon="12.68922315174835"><ele>101.0</ele><time>2026-04-30T18:08:05Z</time></trkpt><trkpt lat="42.15728323592986" lon="12.68937289976137"><ele>102.0</ele><time>2026-04-30T18:08:06Z</time></trkpt><trkpt lat="42.1574368512841" lon="12.689522522310067"><ele>103.0</ele><time>2026-04-30T18:08:07Z</time></trkpt><trkpt lat="42.15758839599313" lon="12.689663869624948"><ele>104.0</ele><time>2026-04-30T18:08:08Z</time></trkpt><trkpt lat="42.15773854039325" lon="12.689809186064691"><ele>104.0</ele><time>2026-04-30T18:08:09Z</time></trkpt><trkpt lat="42.15789568127866" lon="12.689933763267492"><ele>104.0</ele><time>2026-04-30T18:08:10Z</time></trkpt><trkpt lat="42.15804481407929" lon="12.69007703866525"><ele>104.0</ele><time>2026-04-30T18:08:11Z</time></trkpt><trkpt lat="42.158194787790556" lon="12.690222834512268"><ele>106.33333333333333</ele><time>2026-04-30T18:08:12Z</time></trkpt><trkpt lat="42.15834423159479" lon="12.690364234855398"><ele>108.66666666666666</ele><time>2026-04-30T18:08:13Z</time></trkpt><trkpt lat="42.158491187572636" lon="12.690481664782936"><ele>111.0</ele><time>2026-04-30T18:08:14Z</time></trkpt><trkpt lat="42.15863872406391" lon="12.690610892995581"><ele>111.0</ele><time>2026-04-30T18:08:14.999Z</time></trkpt><trkpt lat="42.15878860791589" lon="12.690744678423957"><ele>111.0</ele><time>2026-04-30T18:08:15.999Z</time></trkpt><trkpt lat="42.15894106203168" lon="12.690879534040489"><ele>111.0</ele><time>2026-04-30T18:08:16.999Z</time></trkpt><trkpt lat="42.15908921919842" lon="12.691018747252345"><ele>111.66666666666666</ele><time>2026-04-30T18:08:17.999Z</time></trkpt><trkpt lat="42.15923440337063" lon="12.691163027940107"><ele>112.33333333333333</ele><time>2026-04-30T18:08:18.999Z</time></trkpt><trkpt lat="42.15938200001256" lon="12.691302522812741"><ele>113.0</ele><time>2026-04-30T18:08:19.999Z</time></trkpt><trkpt lat="42.15952957574695" lon="12.691436386800826"><ele>113.0</ele><time>2026-04-30T18:08:20.999Z</time></trkpt><trkpt lat="42.159693804605325" lon="12.691579684847229"><ele>113.0</ele><time>2026-04-30T18:08:21.999Z</time></trkpt><trkpt lat="42.15984834518246" lon="12.691720170322638"><ele>113.0</ele><time>2026-04-30T18:08:22.999Z</time></trkpt><trkpt lat="42.16000482959501" lon="12.691858575455841"><ele>115.33333333333333</ele><time>2026-04-30T18:08:23.999Z</time></trkpt><trkpt lat="42.16016323169267" lon="12.692003082740534"><ele>117.66666666666666</ele><time>2026-04-30T18:08:24.999Z</time></trkpt><trkpt lat="42.16032058997068" lon="12.692146378520079"><ele>120.0</ele><time>2026-04-30T18:08:25.999Z</time></trkpt><trkpt lat="42.16047683671448" lon="12.69229081061868"><ele>120.0</ele><time>2026-04-30T18:08:26.999Z</time></trkpt><trkpt lat="42.1606419163908" lon="12.692447575087812"><ele>120.0</ele><time>2026-04-30T18:08:27.999Z</time></trkpt><trkpt lat="42.1608020964244" lon="12.692612303553378"><ele>120.0</ele><time>2026-04-30T18:08:28.999Z</time></trkpt><trkpt lat="42.160949783879026" lon="12.692781920184142"><ele>123.0</ele><time>2026-04-30T18:08:29.999Z</time></trkpt><trkpt lat="42.1610962960979" lon="12.692965042944282"><ele>126.0</ele><time>2026-04-30T18:08:30.999Z</time></trkpt><trkpt lat="42.16124050736708" lon="12.69315509504731"><ele>129.0</ele><time>2026-04-30T18:08:31.999Z</time></trkpt><trkpt lat="42.16137795779013" lon="12.693342646595834"><ele>129.0</ele><time>2026-04-30T18:08:32.999Z</time></trkpt><trkpt lat="42.16151205734441" lon="12.693547047576432"><ele>129.0</ele><time>2026-04-30T18:08:33.999Z</time></trkpt><trkpt lat="42.16164392209542" lon="12.69376463920696"><ele>129.0</ele><time>2026-04-30T18:08:34.999Z</time></trkpt><trkpt lat="42.1617630407059" lon="12.693966965398307"><ele>129.0</ele><time>2026-04-30T18:08:35.999Z</time></trkpt><trkpt lat="42.161880861937895" lon="12.694180345118307"><ele>129.0</ele><time>2026-04-30T18:08:36.999Z</time></trkpt><trkpt lat="42.161999278808416" lon="12.69440279002816"><ele>129.0</ele><time>2026-04-30T18:08:37.999Z</time></trkpt><trkpt lat="42.162104052297295" lon="12.69462635286273"><ele>131.0</ele><time>2026-04-30T18:08:38.999Z</time></trkpt><trkpt lat="42.162196015431576" lon="12.694833034302427"><ele>133.0</ele><time>2026-04-30T18:08:39.999Z</time></trkpt><trkpt lat="42.16228998281702" lon="12.695048551776953"><ele>135.0</ele><time>2026-04-30T18:08:40.999Z</time></trkpt><trkpt lat="42.16237859349135" lon="12.695280873843059"><ele>136.0</ele><time>2026-04-30T18:08:41.999Z</time></trkpt><trkpt lat="42.16247161970625" lon="12.695494363753285"><ele>137.0</ele><time>2026-04-30T18:08:42.999Z</time></trkpt><trkpt lat="42.16255837333362" lon="12.69571246532876"><ele>138.0</ele><time>2026-04-30T18:08:43.999Z</time></trkpt><trkpt lat="42.16264874504404" lon="12.695934512871364"><ele>139.33333333333334</ele><time>2026-04-30T18:08:44.999Z</time></trkpt><trkpt lat="42.162737176643226" lon="12.696158667602095"><ele>140.66666666666669</ele><time>2026-04-30T18:08:45.999Z</time></trkpt><trkpt lat="42.16282885665856" lon="12.696387504567694"><ele>142.0</ele><time>2026-04-30T18:08:46.999Z</time></trkpt><trkpt lat="42.162918827474144" lon="12.696607915523856"><ele>142.0</ele><time>2026-04-30T18:08:47.999Z</time></trkpt><trkpt lat="42.16301135582838" lon="12.696835483051366"><ele>142.0</ele><time>2026-04-30T18:08:48.999Z</time></trkpt><trkpt lat="42.163101758953914" lon="12.69705163186046"><ele>142.0</ele><time>2026-04-30T18:08:49.999Z</time></trkpt><trkpt lat="42.163192986637085" lon="12.697265240211829"><ele>141.66666666666669</ele><time>2026-04-30T18:08:50.999Z</time></trkpt><trkpt lat="42.16328422213929" lon="12.69748985771133"><ele>141.33333333333334</ele><time>2026-04-30T18:08:51.999Z</time></trkpt><trkpt lat="42.16338027438945" lon="12.697714531066179"><ele>141.0</ele><time>2026-04-30T18:08:52.999Z</time></trkpt><trkpt lat="42.16347526809293" lon="12.697939592024014"><ele>143.0</ele><time>2026-04-30T18:08:53.999Z</time></trkpt><trkpt lat="42.16357723337856" lon="12.698168040023804"><ele>145.0</ele><time>2026-04-30T18:08:54.999Z</time></trkpt><trkpt lat="42.16368904176286" lon="12.69840214125658"><ele>147.0</ele><time>2026-04-30T18:08:55.999Z</time></trkpt><trkpt lat="42.16380345041883" lon="12.698627256457586"><ele>148.33333333333334</ele><time>2026-04-30T18:08:56.999Z</time></trkpt><trkpt lat="42.163913346939744" lon="12.698871796057961"><ele>149.66666666666669</ele><time>2026-04-30T18:08:57.999Z</time></trkpt><trkpt lat="42.164024857322296" lon="12.69911723430234"><ele>151.0</ele><time>2026-04-30T18:08:58.999Z</time></trkpt><trkpt lat="42.164122587272985" lon="12.699350175277214"><ele>152.66666666666669</ele><time>2026-04-30T18:08:59.999Z</time></trkpt><trkpt lat="42.16422579139959" lon="12.699601097132431"><ele>154.33333333333334</ele><time>2026-04-30T18:09:00.999Z</time></trkpt><trkpt lat="42.16431928618424" lon="12.699839865212933"><ele>156.0</ele><time>2026-04-30T18:09:01.999Z</time></trkpt><trkpt lat="42.164422741912325" lon="12.700104925647715"><ele>156.33333333333334</ele><time>2026-04-30T18:09:02.999Z</time></trkpt><trkpt lat="42.16452331044834" lon="12.700355124910603"><ele>156.66666666666669</ele><time>2026-04-30T18:09:03.999Z</time></trkpt><trkpt lat="42.16463438618797" lon="12.700616792862801"><ele>157.0</ele><time>2026-04-30T18:09:04.999Z</time></trkpt><trkpt lat="42.16473896170532" lon="12.700866869963361"><ele>157.0</ele><time>2026-04-30T18:09:05.999Z</time></trkpt><trkpt lat="42.16483937312885" lon="12.701121378654577"><ele>157.0</ele><time>2026-04-30T18:09:06.999Z</time></trkpt><trkpt lat="42.16493498780006" lon="12.701354342993913"><ele>157.0</ele><time>2026-04-30T18:09:07.999Z</time></trkpt><trkpt lat="42.165036614993475" lon="12.70158483506928"><ele>157.33333333333334</ele><time>2026-04-30T18:09:08.999Z</time></trkpt><trkpt lat="42.16513339734792" lon="12.701824576344917"><ele>157.66666666666666</ele><time>2026-04-30T18:09:10.001Z</time></trkpt><trkpt lat="42.16522768321718" lon="12.702062112007132"><ele>158.0</ele><time>2026-04-30T18:09:11.001Z</time></trkpt><trkpt lat="42.16531577228932" lon="12.702276129172539"><ele>159.33333333333331</ele><time>2026-04-30T18:09:12.001Z</time></trkpt><trkpt lat="42.165396036087174" lon="12.702482199014446"><ele>160.66666666666666</ele><time>2026-04-30T18:09:13.001Z</time></trkpt><trkpt lat="42.165480983925065" lon="12.702694659271176"><ele>162.0</ele><time>2026-04-30T18:09:14.001Z</time></trkpt><trkpt lat="42.16556003066954" lon="12.702916380291063"><ele>162.0</ele><time>2026-04-30T18:09:15.001Z</time></trkpt><trkpt lat="42.165625303684685" lon="12.703127994247128"><ele>162.0</ele><time>2026-04-30T18:09:16.001Z</time></trkpt><trkpt lat="42.16568051424808" lon="12.703352296844837"><ele>162.0</ele><time>2026-04-30T18:09:17.001Z</time></trkpt><trkpt lat="42.16572384782368" lon="12.703559387083574"><ele>162.0</ele><time>2026-04-30T18:09:18.001Z</time></trkpt><trkpt lat="42.16577568643829" lon="12.703758259235256"><ele>162.0</ele><time>2026-04-30T18:09:19.001Z</time></trkpt><trkpt lat="42.16582873762459" lon="12.703963256016548"><ele>162.0</ele><time>2026-04-30T18:09:20.001Z</time></trkpt><trkpt lat="42.16588188888623" lon="12.70417067954222"><ele>162.0</ele><time>2026-04-30T18:09:21.001Z</time></trkpt><trkpt lat="42.16593160435247" lon="12.704364694703886"><ele>162.0</ele><time>2026-04-30T18:09:22.001Z</time></trkpt><trkpt lat="42.16597820555772" lon="12.704547780367685"><ele>162.0</ele><time>2026-04-30T18:09:23.001Z</time></trkpt><trkpt lat="42.16604700742706" lon="12.704755695333867"><ele>163.33333333333334</ele><time>2026-04-30T18:09:24.001Z</time></trkpt><trkpt lat="42.166081058599204" lon="12.704952276746344"><ele>164.66666666666669</ele><time>2026-04-30T18:09:25.001Z</time></trkpt><trkpt lat="42.166135976388745" lon="12.70516825348857"><ele>166.0</ele><time>2026-04-30T18:09:26.001Z</time></trkpt><trkpt lat="42.16619512342415" lon="12.705347545874345"><ele>168.0</ele><time>2026-04-30T18:09:27.001Z</time></trkpt><trkpt lat="42.166243663345256" lon="12.705562448652097"><ele>170.0</ele><time>2026-04-30T18:09:28Z</time></trkpt><trkpt lat="42.166276816053895" lon="12.705797913439248"><ele>172.0</ele><time>2026-04-30T18:09:29Z</time></trkpt><trkpt lat="42.166308070574075" lon="12.70601800094031"><ele>173.0</ele><time>2026-04-30T18:09:30Z</time></trkpt><trkpt lat="42.166332293395804" lon="12.70627409971109"><ele>174.0</ele><time>2026-04-30T18:09:31Z</time></trkpt><trkpt lat="42.16634630862384" lon="12.706544584835294"><ele>175.0</ele><time>2026-04-30T18:09:32Z</time></trkpt><trkpt lat="42.166365408288236" lon="12.706816927934238"><ele>174.66666666666669</ele><time>2026-04-30T18:09:33Z</time></trkpt><trkpt lat="42.1663563181664" lon="12.707081750446745"><ele>174.33333333333334</ele><time>2026-04-30T18:09:34Z</time></trkpt><trkpt lat="42.1663556455621" lon="12.707348881599865"><ele>174.0</ele><time>2026-04-30T18:09:35Z</time></trkpt><trkpt lat="42.166391947109304" lon="12.707628170228014"><ele>174.33333333333334</ele><time>2026-04-30T18:09:36Z</time></trkpt><trkpt lat="42.16639141072747" lon="12.707877754863743"><ele>174.66666666666669</ele><time>2026-04-30T18:09:37Z</time></trkpt><trkpt lat="42.16640063851478" lon="12.708164440483118"><ele>175.0</ele><time>2026-04-30T18:09:38Z</time></trkpt><trkpt lat="42.16641241774399" lon="12.708525863183091"><ele>174.33333333333334</ele><time>2026-04-30T18:09:39Z</time></trkpt><trkpt lat="42.166436106842454" lon="12.708774412993957"><ele>173.66666666666666</ele><time>2026-04-30T18:09:40Z</time></trkpt><trkpt lat="42.166422861249245" lon="12.709074123417835"><ele>173.0</ele><time>2026-04-30T18:09:41Z</time></trkpt><trkpt lat="42.166410895433366" lon="12.70935491308791"><ele>172.0</ele><time>2026-04-30T18:09:42Z</time></trkpt><trkpt lat="42.16642064034349" lon="12.709640004554425"><ele>171.0</ele><time>2026-04-30T18:09:43Z</time></trkpt><trkpt lat="42.1664599480606" lon="12.709943974531717"><ele>170.0</ele><time>2026-04-30T18:09:44Z</time></trkpt><trkpt lat="42.166476989635335" lon="12.71022642230329"><ele>168.66666666666666</ele><time>2026-04-30T18:09:45Z</time></trkpt><trkpt lat="42.16648146311217" lon="12.710538175390145"><ele>167.33333333333334</ele><time>2026-04-30T18:09:46Z</time></trkpt><trkpt lat="42.16647818308573" lon="12.710708124352047"><ele>166.0</ele><time>2026-04-30T18:09:47Z</time></trkpt><trkpt lat="42.166479781860666" lon="12.710965848633915"><ele>163.33333333333334</ele><time>2026-04-30T18:09:48Z</time></trkpt><trkpt lat="42.166490730326544" lon="12.711239335436556"><ele>160.66666666666666</ele><time>2026-04-30T18:09:49Z</time></trkpt><trkpt lat="42.166485925220634" lon="12.711525967167997"><ele>158.0</ele><time>2026-04-30T18:09:50Z</time></trkpt><trkpt lat="42.166452374786836" lon="12.711836646800515"><ele>158.5</ele><time>2026-04-30T18:09:51Z</time></trkpt><trkpt lat="42.16647376411343" lon="12.712147850199777"><ele>159.0</ele><time>2026-04-30T18:09:52Z</time></trkpt><trkpt lat="42.16647577014967" lon="12.712458300032802"><ele>159.0</ele><time>2026-04-30T18:09:53Z</time></trkpt><trkpt lat="42.16648887318211" lon="12.712738840036259"><ele>159.0</ele><time>2026-04-30T18:09:54Z</time></trkpt><trkpt lat="42.16650410690892" lon="12.713025572063984"><ele>159.0</ele><time>2026-04-30T18:09:55Z</time></trkpt><trkpt lat="42.166532497560624" lon="12.713310313060022"><ele>161.0</ele><time>2026-04-30T18:09:56Z</time></trkpt><trkpt lat="42.16656503508903" lon="12.713626067885883"><ele>163.0</ele><time>2026-04-30T18:09:57Z</time></trkpt><trkpt lat="42.166599983619115" lon="12.713914905749863"><ele>163.0</ele><time>2026-04-30T18:09:58Z</time></trkpt><trkpt lat="42.16660981983955" lon="12.714214139454436"><ele>163.0</ele><time>2026-04-30T18:09:59Z</time></trkpt><trkpt lat="42.166627572334164" lon="12.714534592786393"><ele>167.0</ele><time>2026-04-30T18:10:00Z</time></trkpt><trkpt lat="42.16664361305051" lon="12.714845709554101"><ele>171.0</ele><time>2026-04-30T18:10:01Z</time></trkpt><trkpt lat="42.16664186946389" lon="12.715143413760364"><ele>173.0</ele><time>2026-04-30T18:10:02Z</time></trkpt><trkpt lat="42.166639360166805" lon="12.71543917947109"><ele>175.0</ele><time>2026-04-30T18:10:03Z</time></trkpt><trkpt lat="42.16664897734861" lon="12.715705767942957"><ele>177.0</ele><time>2026-04-30T18:10:04Z</time></trkpt><trkpt lat="42.16666216282971" lon="12.715992359916019"><ele>176.66666666666666</ele><time>2026-04-30T18:10:05Z</time></trkpt><trkpt lat="42.16667085714236" lon="12.716242029565331"><ele>176.33333333333331</ele><time>2026-04-30T18:10:06Z</time></trkpt><trkpt lat="42.16667947377094" lon="12.716512304757273"><ele>176.0</ele><time>2026-04-30T18:10:07Z</time></trkpt><trkpt lat="42.16669228288351" lon="12.716775123966254"><ele>174.33333333333331</ele><time>2026-04-30T18:10:08Z</time></trkpt><trkpt lat="42.16671644071862" lon="12.71701354337804"><ele>172.66666666666666</ele><time>2026-04-30T18:10:09Z</time></trkpt><trkpt lat="42.166713101003694" lon="12.71725241819641"><ele>171.0</ele><time>2026-04-30T18:10:10Z</time></trkpt><trkpt lat="42.166720903675376" lon="12.717487333728615"><ele>171.0</ele><time>2026-04-30T18:10:11Z</time></trkpt><trkpt lat="42.16672884898851" lon="12.717731989605428"><ele>171.0</ele><time>2026-04-30T18:10:12Z</time></trkpt><trkpt lat="42.16673372260443" lon="12.717887605438843"><ele>171.0</ele><time>2026-04-30T18:10:13Z</time></trkpt><trkpt lat="42.16673760015042" lon="12.718126769237347"><ele>169.66666666666666</ele><time>2026-04-30T18:10:14Z</time></trkpt><trkpt lat="42.16673726977175" lon="12.71837256881489"><ele>168.33333333333331</ele><time>2026-04-30T18:10:15Z</time></trkpt><trkpt lat="42.16672254216681" lon="12.718611990483948"><ele>167.0</ele><time>2026-04-30T18:10:16Z</time></trkpt><trkpt lat="42.16669745438444" lon="12.718845615619008"><ele>166.33333333333331</ele><time>2026-04-30T18:10:17Z</time></trkpt><trkpt lat="42.16666125873879" lon="12.71907266283448"><ele>165.66666666666666</ele><time>2026-04-30T18:10:18Z</time></trkpt><trkpt lat="42.166614173775216" lon="12.719291716152537"><ele>165.0</ele><time>2026-04-30T18:10:19Z</time></trkpt><trkpt lat="42.166559399719354" lon="12.719492588548679"><ele>171.0</ele><time>2026-04-30T18:10:20Z</time></trkpt><trkpt lat="42.166489897026935" lon="12.719708627867842"><ele>177.0</ele><time>2026-04-30T18:10:21Z</time></trkpt><trkpt lat="42.1664009089557" lon="12.719939307059317"><ele>183.0</ele><time>2026-04-30T18:10:21.999Z</time></trkpt><trkpt lat="42.16630413055183" lon="12.720173143486717"><ele>173.5</ele><time>2026-04-30T18:10:22.999Z</time></trkpt><trkpt lat="42.16619684910867" lon="12.720431907042435"><ele>164.0</ele><time>2026-04-30T18:10:23.999Z</time></trkpt><trkpt lat="42.166082254762955" lon="12.720710766768072"><ele>164.0</ele><time>2026-04-30T18:10:24.999Z</time></trkpt><trkpt lat="42.16593787213037" lon="12.72106237832269"><ele>164.0</ele><time>2026-04-30T18:10:26.067Z</time></trkpt><trkpt lat="42.16580263328445" lon="12.72133072787846"><ele>162.5</ele><time>2026-04-30T18:10:27.048Z</time></trkpt><trkpt lat="42.16565470951179" lon="12.721602481939128"><ele>161.0</ele><time>2026-04-30T18:10:28.039Z</time></trkpt><trkpt lat="42.16551696420944" lon="12.721839620553343"><ele>159.0</ele><time>2026-04-30T18:10:29.04Z</time></trkpt><trkpt lat="42.165402167935085" lon="12.722146078992235"><ele>157.0</ele><time>2026-04-30T18:10:30.041Z</time></trkpt><trkpt lat="42.165313858248766" lon="12.72240553687189"><ele>157.0</ele><time>2026-04-30T18:10:31.043Z</time></trkpt><trkpt lat="42.165256189225445" lon="12.722672403660432"><ele>157.0</ele><time>2026-04-30T18:10:32.038Z</time></trkpt><trkpt lat="42.16520521928765" lon="12.722971305478769"><ele>157.0</ele><time>2026-04-30T18:10:33.032Z</time></trkpt><trkpt lat="42.1651743693557" lon="12.723267750019346"><ele>159.66666666666669</ele><time>2026-04-30T18:10:34.033Z</time></trkpt><trkpt lat="42.16515060528927" lon="12.723566797242588"><ele>162.33333333333334</ele><time>2026-04-30T18:10:35.035Z</time></trkpt><trkpt lat="42.16513278428373" lon="12.72386747447806"><ele>165.0</ele><time>2026-04-30T18:10:36.033Z</time></trkpt><trkpt lat="42.165143209689354" lon="12.724174157945669"><ele>162.66666666666666</ele><time>2026-04-30T18:10:37.038Z</time></trkpt><trkpt lat="42.165205972776874" lon="12.724472995405923"><ele>160.33333333333331</ele><time>2026-04-30T18:10:38.036Z</time></trkpt><trkpt lat="42.16527927412269" lon="12.724741933718919"><ele>158.0</ele><time>2026-04-30T18:10:39.036Z</time></trkpt><trkpt lat="42.1653650043677" lon="12.72501844562101"><ele>154.0</ele><time>2026-04-30T18:10:40.039Z</time></trkpt><trkpt lat="42.16545791235537" lon="12.72526928955251"><ele>150.0</ele><time>2026-04-30T18:10:41.038Z</time></trkpt><trkpt lat="42.16559508530567" lon="12.725517192893282"><ele>146.0</ele><time>2026-04-30T18:10:42.037Z</time></trkpt><trkpt lat="42.16577689127302" lon="12.72575073393532"><ele>141.0</ele><time>2026-04-30T18:10:43.038Z</time></trkpt><trkpt lat="42.16595382041466" lon="12.725969760746606"><ele>136.0</ele><time>2026-04-30T18:10:44.038Z</time></trkpt><trkpt lat="42.16621253886156" lon="12.726159870973946"><ele>136.0</ele><time>2026-04-30T18:10:45.04Z</time></trkpt><trkpt lat="42.16643169438799" lon="12.726329140426287"><ele>136.0</ele><time>2026-04-30T18:10:45.999Z</time></trkpt><trkpt lat="42.16664958310852" lon="12.726502723299362"><ele>135.0</ele><time>2026-04-30T18:10:46.999Z</time></trkpt><trkpt lat="42.166841623548514" lon="12.7266430884298"><ele>134.0</ele><time>2026-04-30T18:10:47.999Z</time></trkpt><trkpt lat="42.16714636183678" lon="12.726794010517972"><ele>136.0</ele><time>2026-04-30T18:10:48.999Z</time></trkpt><trkpt lat="42.167449757949356" lon="12.726938859848183"><ele>138.0</ele><time>2026-04-30T18:10:49.999Z</time></trkpt><trkpt lat="42.16774970783156" lon="12.72712234724886"><ele>138.0</ele><time>2026-04-30T18:10:50.999Z</time></trkpt><trkpt lat="42.16800505268815" lon="12.727302538304338"><ele>138.0</ele><time>2026-04-30T18:10:51.999Z</time></trkpt><trkpt lat="42.16826586010063" lon="12.727474141453229"><ele>139.0</ele><time>2026-04-30T18:10:52.999Z</time></trkpt><trkpt lat="42.168487020674156" lon="12.727617428716757"><ele>140.0</ele><time>2026-04-30T18:10:53.999Z</time></trkpt><trkpt lat="42.16871957440594" lon="12.727770627759156"><ele>140.5</ele><time>2026-04-30T18:10:54.999Z</time></trkpt><trkpt lat="42.16894697885833" lon="12.727920898352417"><ele>141.0</ele><time>2026-04-30T18:10:55.999Z</time></trkpt><trkpt lat="42.169174416718946" lon="12.72807855243671"><ele>144.0</ele><time>2026-04-30T18:10:56.999Z</time></trkpt><trkpt lat="42.16939962233065" lon="12.728237827668384"><ele>147.0</ele><time>2026-04-30T18:10:57.999Z</time></trkpt><trkpt lat="42.16961655977781" lon="12.728383398069461"><ele>147.0</ele><time>2026-04-30T18:10:58.999Z</time></trkpt><trkpt lat="42.169833646749794" lon="12.728535848277128"><ele>147.0</ele><time>2026-04-30T18:10:59.999Z</time></trkpt><trkpt lat="42.17004943873146" lon="12.728689787379263"><ele>152.5</ele><time>2026-04-30T18:11:00.999Z</time></trkpt><trkpt lat="42.17026823134508" lon="12.728847372297974"><ele>158.0</ele><time>2026-04-30T18:11:01.999Z</time></trkpt><trkpt lat="42.170483266556104" lon="12.729014754645052"><ele>158.0</ele><time>2026-04-30T18:11:02.999Z</time></trkpt><trkpt lat="42.17068985541625" lon="12.729171155152587"><ele>158.0</ele><time>2026-04-30T18:11:03.999Z</time></trkpt><trkpt lat="42.170898713420485" lon="12.729328562931125"><ele>160.5</ele><time>2026-04-30T18:11:04.999Z</time></trkpt><trkpt lat="42.17109923686295" lon="12.729486464098278"><ele>163.0</ele><time>2026-04-30T18:11:05.999Z</time></trkpt><trkpt lat="42.171295531084695" lon="12.729634407182775"><ele>163.0</ele><time>2026-04-30T18:11:06.999Z</time></trkpt><trkpt lat="42.17148094773581" lon="12.729780001091342"><ele>163.0</ele><time>2026-04-30T18:11:07.999Z</time></trkpt><trkpt lat="42.17166523981864" lon="12.729917241604285"><ele>163.0</ele><time>2026-04-30T18:11:08.999Z</time></trkpt><trkpt lat="42.17184354816615" lon="12.730063687672082"><ele>163.66666666666669</ele><time>2026-04-30T18:11:09.999Z</time></trkpt><trkpt lat="42.17200547558914" lon="12.730204363834186"><ele>164.33333333333334</ele><time>2026-04-30T18:11:10.999Z</time></trkpt><trkpt lat="42.17217238043975" lon="12.730342334572637"><ele>165.0</ele><time>2026-04-30T18:11:11.999Z</time></trkpt><trkpt lat="42.17233442144173" lon="12.730462810289714"><ele>166.0</ele><time>2026-04-30T18:11:12.999Z</time></trkpt><trkpt lat="42.17250029493636" lon="12.73059281871801"><ele>167.0</ele><time>2026-04-30T18:11:13.999Z</time></trkpt><trkpt lat="42.172671100386985" lon="12.73073780862866"><ele>168.0</ele><time>2026-04-30T18:11:14.999Z</time></trkpt><trkpt lat="42.172819270442716" lon="12.730883209893337"><ele>168.0</ele><time>2026-04-30T18:11:16.001Z</time></trkpt><trkpt lat="42.172971296286455" lon="12.73102938709162"><ele>168.0</ele><time>2026-04-30T18:11:17.001Z</time></trkpt><trkpt lat="42.17311578018811" lon="12.73119402539907"><ele>168.0</ele><time>2026-04-30T18:11:18.001Z</time></trkpt><trkpt lat="42.1732574905819" lon="12.731384044575403"><ele>169.33333333333334</ele><time>2026-04-30T18:11:19.001Z</time></trkpt><trkpt lat="42.17339345072342" lon="12.731568553861347"><ele>170.66666666666669</ele><time>2026-04-30T18:11:20.001Z</time></trkpt><trkpt lat="42.173532451501984" lon="12.731762489343822"><ele>172.0</ele><time>2026-04-30T18:11:21.001Z</time></trkpt><trkpt lat="42.173668017755716" lon="12.731972182034953"><ele>172.0</ele><time>2026-04-30T18:11:22.001Z</time></trkpt><trkpt lat="42.173787293178606" lon="12.732167165271644"><ele>172.0</ele><time>2026-04-30T18:11:23.001Z</time></trkpt><trkpt lat="42.173878037473074" lon="12.73236355657301"><ele>172.0</ele><time>2026-04-30T18:11:24.001Z</time></trkpt><trkpt lat="42.17392068171391" lon="12.732605729260873"><ele>172.33333333333334</ele><time>2026-04-30T18:11:25.001Z</time></trkpt><trkpt lat="42.17397224524748" lon="12.732823693621766"><ele>172.66666666666666</ele><time>2026-04-30T18:11:26.001Z</time></trkpt><trkpt lat="42.17401392186233" lon="12.733036362886956"><ele>173.0</ele><time>2026-04-30T18:11:27.001Z</time></trkpt><trkpt lat="42.17404709723544" lon="12.733261376324386"><ele>177.0</ele><time>2026-04-30T18:11:28.001Z</time></trkpt><trkpt lat="42.174077917735666" lon="12.733524468266419"><ele>181.0</ele><time>2026-04-30T18:11:29.001Z</time></trkpt><trkpt lat="42.17411517044335" lon="12.733816187805301"><ele>185.0</ele><time>2026-04-30T18:11:30.001Z</time></trkpt><trkpt lat="42.174146271919604" lon="12.734093891665262"><ele>186.0</ele><time>2026-04-30T18:11:31.001Z</time></trkpt><trkpt lat="42.17417576635008" lon="12.73439425147307"><ele>187.0</ele><time>2026-04-30T18:11:32.001Z</time></trkpt><trkpt lat="42.17421134883636" lon="12.734682950166583"><ele>188.0</ele><time>2026-04-30T18:11:33Z</time></trkpt><trkpt lat="42.17424534462591" lon="12.734976323868594"><ele>188.5</ele><time>2026-04-30T18:11:34Z</time></trkpt><trkpt lat="42.17424950741387" lon="12.735302594769685"><ele>189.0</ele><time>2026-04-30T18:11:35Z</time></trkpt><trkpt lat="42.174311147287064" lon="12.735623241777136"><ele>189.0</ele><time>2026-04-30T18:11:36Z</time></trkpt><trkpt lat="42.17434310035095" lon="12.735947116161459"><ele>189.0</ele><time>2026-04-30T18:11:37Z</time></trkpt><trkpt lat="42.17438090666564" lon="12.736274111945772"><ele>189.5</ele><time>2026-04-30T18:11:38Z</time></trkpt><trkpt lat="42.17441785680139" lon="12.736603309090082"><ele>190.0</ele><time>2026-04-30T18:11:39Z</time></trkpt><trkpt lat="42.174458104589746" lon="12.736883517087355"><ele>190.0</ele><time>2026-04-30T18:11:40Z</time></trkpt><trkpt lat="42.17451324366694" lon="12.737182582755059"><ele>190.0</ele><time>2026-04-30T18:11:41Z</time></trkpt><trkpt lat="42.17458574950598" lon="12.737476738822807"><ele>191.33333333333334</ele><time>2026-04-30T18:11:42Z</time></trkpt><trkpt lat="42.174647206998564" lon="12.737769304543388"><ele>192.66666666666669</ele><time>2026-04-30T18:11:43Z</time></trkpt><trkpt lat="42.174703004203195" lon="12.738061637568295"><ele>194.0</ele><time>2026-04-30T18:11:44Z</time></trkpt><trkpt lat="42.174781020263765" lon="12.738353236461508"><ele>199.0</ele><time>2026-04-30T18:11:45Z</time></trkpt><trkpt lat="42.17487481218486" lon="12.738643223967326"><ele>204.0</ele><time>2026-04-30T18:11:46Z</time></trkpt><trkpt lat="42.17496014056469" lon="12.738926772854013"><ele>204.0</ele><time>2026-04-30T18:11:47Z</time></trkpt><trkpt lat="42.17505662133588" lon="12.739201818577726"><ele>204.0</ele><time>2026-04-30T18:11:48Z</time></trkpt><trkpt lat="42.17516820743512" lon="12.739472321936093"><ele>202.0</ele><time>2026-04-30T18:11:49Z</time></trkpt><trkpt lat="42.17528881062461" lon="12.73973143975158"><ele>200.0</ele><time>2026-04-30T18:11:50Z</time></trkpt><trkpt lat="42.17542255481129" lon="12.740005161182077"><ele>200.5</ele><time>2026-04-30T18:11:51Z</time></trkpt><trkpt lat="42.175594129192255" lon="12.740271568565422"><ele>201.0</ele><time>2026-04-30T18:11:52Z</time></trkpt><trkpt lat="42.17575313846293" lon="12.740527022640453"><ele>205.5</ele><time>2026-04-30T18:11:53Z</time></trkpt><trkpt lat="42.17593641678266" lon="12.740749058504514"><ele>210.0</ele><time>2026-04-30T18:11:54Z</time></trkpt><trkpt lat="42.17613325020083" lon="12.740969584638343"><ele>210.5</ele><time>2026-04-30T18:11:55Z</time></trkpt><trkpt lat="42.17633285254858" lon="12.741187940177035"><ele>211.0</ele><time>2026-04-30T18:11:56Z</time></trkpt><trkpt lat="42.17652442521508" lon="12.741394739393876"><ele>211.0</ele><time>2026-04-30T18:11:57Z</time></trkpt><trkpt lat="42.17671471687059" lon="12.741600155814105"><ele>211.0</ele><time>2026-04-30T18:11:58Z</time></trkpt><trkpt lat="42.17690931040536" lon="12.741810342081395"><ele>211.0</ele><time>2026-04-30T18:11:59Z</time></trkpt><trkpt lat="42.177107296435274" lon="12.742024221389363"><ele>211.0</ele><time>2026-04-30T18:12:00Z</time></trkpt><trkpt lat="42.177309125985616" lon="12.742242982323946"><ele>214.5</ele><time>2026-04-30T18:12:01Z</time></trkpt><trkpt lat="42.17752348565925" lon="12.742475417692543"><ele>218.0</ele><time>2026-04-30T18:12:02Z</time></trkpt><trkpt lat="42.17775076372766" lon="12.742721709234822"><ele>218.5</ele><time>2026-04-30T18:12:03Z</time></trkpt><trkpt lat="42.17797994604061" lon="12.742969754896611"><ele>219.0</ele><time>2026-04-30T18:12:04Z</time></trkpt><trkpt lat="42.178208560752466" lon="12.743217185873746"><ele>222.0</ele><time>2026-04-30T18:12:05Z</time></trkpt><trkpt lat="42.17843335537802" lon="12.7434601606063"><ele>225.0</ele><time>2026-04-30T18:12:06Z</time></trkpt><trkpt lat="42.17863803923374" lon="12.743681229662723"><ele>225.0</ele><time>2026-04-30T18:12:07Z</time></trkpt><trkpt lat="42.17882413505991" lon="12.743882215615699"><ele>225.0</ele><time>2026-04-30T18:12:08Z</time></trkpt><trkpt lat="42.17899346483735" lon="12.744065331286452"><ele>226.66666666666669</ele><time>2026-04-30T18:12:09Z</time></trkpt><trkpt lat="42.179145871747544" lon="12.744230267157434"><ele>228.33333333333334</ele><time>2026-04-30T18:12:10Z</time></trkpt><trkpt lat="42.17931726758932" lon="12.744415309247605"><ele>230.0</ele><time>2026-04-30T18:12:11Z</time></trkpt><trkpt lat="42.179495702748056" lon="12.744607786215589"><ele>230.0</ele><time>2026-04-30T18:12:12Z</time></trkpt><trkpt lat="42.17966888390334" lon="12.74479381171781"><ele>230.0</ele><time>2026-04-30T18:12:13Z</time></trkpt><trkpt lat="42.17985199730135" lon="12.744990157940888"><ele>231.5</ele><time>2026-04-30T18:12:14Z</time></trkpt><trkpt lat="42.18004523034403" lon="12.745197355150843"><ele>233.0</ele><time>2026-04-30T18:12:15Z</time></trkpt><trkpt lat="42.18023245756623" lon="12.745407885597672"><ele>233.0</ele><time>2026-04-30T18:12:16Z</time></trkpt><trkpt lat="42.180402121327276" lon="12.745633419787545"><ele>233.0</ele><time>2026-04-30T18:12:17Z</time></trkpt><trkpt lat="42.18057113595425" lon="12.745855688726966"><ele>236.0</ele><time>2026-04-30T18:12:18Z</time></trkpt><trkpt lat="42.180716316319455" lon="12.7461030229976"><ele>239.0</ele><time>2026-04-30T18:12:18.999Z</time></trkpt><trkpt lat="42.180844720578044" lon="12.746382826397648"><ele>239.0</ele><time>2026-04-30T18:12:19.999Z</time></trkpt><trkpt lat="42.1809709982606" lon="12.746675343787626"><ele>239.0</ele><time>2026-04-30T18:12:20.999Z</time></trkpt><trkpt lat="42.18106150676286" lon="12.74696398496593"><ele>238.0</ele><time>2026-04-30T18:12:21.999Z</time></trkpt><trkpt lat="42.18111954419091" lon="12.747296314177666"><ele>237.0</ele><time>2026-04-30T18:12:22.999Z</time></trkpt><trkpt lat="42.18115488653994" lon="12.747597907724264"><ele>238.66666666666669</ele><time>2026-04-30T18:12:23.999Z</time></trkpt><trkpt lat="42.18116782334105" lon="12.747871681277545"><ele>240.33333333333334</ele><time>2026-04-30T18:12:24.999Z</time></trkpt><trkpt lat="42.181167266592375" lon="12.748152845105277"><ele>242.0</ele><time>2026-04-30T18:12:25.999Z</time></trkpt><trkpt lat="42.18115066391217" lon="12.748419319404455"><ele>244.5</ele><time>2026-04-30T18:12:26.999Z</time></trkpt><trkpt lat="42.18111084598435" lon="12.748730894455466"><ele>247.0</ele><time>2026-04-30T18:12:27.999Z</time></trkpt><trkpt lat="42.18105145477368" lon="12.74905156392096"><ele>247.0</ele><time>2026-04-30T18:12:28.999Z</time></trkpt><trkpt lat="42.18098164169701" lon="12.749346709342516"><ele>247.0</ele><time>2026-04-30T18:12:29.999Z</time></trkpt><trkpt lat="42.180896748616405" lon="12.749661305080682"><ele>254.0</ele><time>2026-04-30T18:12:30.999Z</time></trkpt><trkpt lat="42.180811718733466" lon="12.749977600340259"><ele>261.0</ele><time>2026-04-30T18:12:31.999Z</time></trkpt><trkpt lat="42.180689856414865" lon="12.750432172598273"><ele>259.5</ele><time>2026-04-30T18:12:32.999Z</time></trkpt><trkpt lat="42.180609374038504" lon="12.750730968565161"><ele>258.0</ele><time>2026-04-30T18:12:33.999Z</time></trkpt><trkpt lat="42.18051535673649" lon="12.75108096403169"><ele>258.0</ele><time>2026-04-30T18:12:34.999Z</time></trkpt><trkpt lat="42.18042012181285" lon="12.751436645297645"><ele>258.0</ele><time>2026-04-30T18:12:35.999Z</time></trkpt><trkpt lat="42.18032138611907" lon="12.751805401133018"><ele>291.0</ele><time>2026-04-30T18:12:37.068Z</time></trkpt><trkpt lat="42.179391719376774" lon="12.756182643779473"><ele>291.0</ele><time>2026-04-30T18:12:50.999Z</time></trkpt><trkpt lat="42.179294254430765" lon="12.756475447622861"><ele>291.0</ele><time>2026-04-30T18:12:51.999Z</time></trkpt><trkpt lat="42.179096054552375" lon="12.75680351774377"><ele>291.0</ele><time>2026-04-30T18:12:52.999Z</time></trkpt><trkpt lat="42.178903613486725" lon="12.757022603754448"><ele>291.0</ele><time>2026-04-30T18:12:53.999Z</time></trkpt><trkpt lat="42.178722867100504" lon="12.757287488953226"><ele>291.0</ele><time>2026-04-30T18:12:54.999Z</time></trkpt><trkpt lat="42.178538140567646" lon="12.757558107924973"><ele>291.0</ele><time>2026-04-30T18:12:55.999Z</time></trkpt><trkpt lat="42.17836848949343" lon="12.757869067169446"><ele>290.5</ele><time>2026-04-30T18:12:56.999Z</time></trkpt><trkpt lat="42.17817422056203" lon="12.758175151178914"><ele>290.0</ele><time>2026-04-30T18:12:57.999Z</time></trkpt><trkpt lat="42.17798547082798" lon="12.75846404938651"><ele>299.5</ele><time>2026-04-30T18:12:58.999Z</time></trkpt><trkpt lat="42.177786449843595" lon="12.758736177515727"><ele>309.0</ele><time>2026-04-30T18:12:59.999Z</time></trkpt><trkpt lat="42.177593141926124" lon="12.758987721920066"><ele>309.0</ele><time>2026-04-30T18:13:00.999Z</time></trkpt><trkpt lat="42.17739522401167" lon="12.759227410905272"><ele>309.0</ele><time>2026-04-30T18:13:01.999Z</time></trkpt><trkpt lat="42.17718352945176" lon="12.759465724064045"><ele>308.5</ele><time>2026-04-30T18:13:02.999Z</time></trkpt><trkpt lat="42.176977582591796" lon="12.759692981138125"><ele>308.0</ele><time>2026-04-30T18:13:03.999Z</time></trkpt><trkpt lat="42.17677360600876" lon="12.759921275552502"><ele>308.0</ele><time>2026-04-30T18:13:04.999Z</time></trkpt><trkpt lat="42.176575161090355" lon="12.760149995973977"><ele>308.0</ele><time>2026-04-30T18:13:05.999Z</time></trkpt><trkpt lat="42.176363608250675" lon="12.76043053050043"><ele>308.5</ele><time>2026-04-30T18:13:06.999Z</time></trkpt><trkpt lat="42.17617043755864" lon="12.760711356660723"><ele>309.0</ele><time>2026-04-30T18:13:07.999Z</time></trkpt><trkpt lat="42.175984671551284" lon="12.761011277709601"><ele>311.0</ele><time>2026-04-30T18:13:08.999Z</time></trkpt><trkpt lat="42.175795046542255" lon="12.76132698435145"><ele>313.0</ele><time>2026-04-30T18:13:09.999Z</time></trkpt><trkpt lat="42.175607143654716" lon="12.761621709039732"><ele>305.66666666666663</ele><time>2026-04-30T18:13:10.999Z</time></trkpt><trkpt lat="42.17557133726723" lon="12.761801167260181"><ele>298.3333333333333</ele><time>2026-04-30T18:13:11.999Z</time></trkpt><trkpt lat="42.175602614851385" lon="12.762109841031947"><ele>291.0</ele><time>2026-04-30T18:13:12.999Z</time></trkpt><trkpt lat="42.17563307760641" lon="12.762408455261134"><ele>287.0</ele><time>2026-04-30T18:13:13.999Z</time></trkpt><trkpt lat="42.175661725468736" lon="12.762736365885287"><ele>283.0</ele><time>2026-04-30T18:13:14.999Z</time></trkpt><trkpt lat="42.17565789297417" lon="12.76310753515643"><ele>283.0</ele><time>2026-04-30T18:13:15.999Z</time></trkpt><trkpt lat="42.17566906821807" lon="12.763423134879764"><ele>283.0</ele><time>2026-04-30T18:13:16.998Z</time></trkpt><trkpt lat="42.175745817249755" lon="12.763738910576798"><ele>291.0</ele><time>2026-04-30T18:13:17.998Z</time></trkpt><trkpt lat="42.1758564791111" lon="12.764046143646908"><ele>299.0</ele><time>2026-04-30T18:13:18.998Z</time></trkpt><trkpt lat="42.17597417380989" lon="12.764380447523802"><ele>301.0</ele><time>2026-04-30T18:13:19.998Z</time></trkpt><trkpt lat="42.176065679281876" lon="12.764666199975007"><ele>303.0</ele><time>2026-04-30T18:13:20.998Z</time></trkpt><trkpt lat="42.17614991999744" lon="12.764959930932596"><ele>303.5</ele><time>2026-04-30T18:13:22Z</time></trkpt><trkpt lat="42.176213047589826" lon="12.765240097548514"><ele>304.0</ele><time>2026-04-30T18:13:23Z</time></trkpt><trkpt lat="42.17627787553985" lon="12.765545971002151"><ele>304.0</ele><time>2026-04-30T18:13:24Z</time></trkpt><trkpt lat="42.17634473429788" lon="12.7657936958897"><ele>304.0</ele><time>2026-04-30T18:13:25Z</time></trkpt><trkpt lat="42.17644608301565" lon="12.766158115658715"><ele>318.0</ele><time>2026-04-30T18:13:26Z</time></trkpt><trkpt lat="42.17654245896319" lon="12.766497459799542"><ele>332.0</ele><time>2026-04-30T18:13:27Z</time></trkpt><trkpt lat="42.17662093229146" lon="12.76682664172349"><ele>329.0</ele><time>2026-04-30T18:13:28Z</time></trkpt><trkpt lat="42.17669086585507" lon="12.767150200307453"><ele>326.0</ele><time>2026-04-30T18:13:29Z</time></trkpt><trkpt lat="42.176784422047724" lon="12.767471841359262"><ele>322.5</ele><time>2026-04-30T18:13:30Z</time></trkpt><trkpt lat="42.176884439412184" lon="12.767792954320834"><ele>319.0</ele><time>2026-04-30T18:13:31Z</time></trkpt><trkpt lat="42.17698727340396" lon="12.76810749676629"><ele>319.0</ele><time>2026-04-30T18:13:32Z</time></trkpt><trkpt lat="42.17709177924903" lon="12.76841829568912"><ele>319.0</ele><time>2026-04-30T18:13:33Z</time></trkpt><trkpt lat="42.17719467410258" lon="12.768717247592216"><ele>314.0</ele><time>2026-04-30T18:13:34Z</time></trkpt><trkpt lat="42.17729346050163" lon="12.769019323765876"><ele>309.0</ele><time>2026-04-30T18:13:35Z</time></trkpt><trkpt lat="42.1773743690773" lon="12.769295640943444"><ele>318.3333333333333</ele><time>2026-04-30T18:13:36Z</time></trkpt><trkpt lat="42.17744199223558" lon="12.769534507213564"><ele>327.66666666666663</ele><time>2026-04-30T18:13:37Z</time></trkpt><trkpt lat="42.177503772073976" lon="12.769756447639093"><ele>337.0</ele><time>2026-04-30T18:13:38Z</time></trkpt><trkpt lat="42.17756725437459" lon="12.769965151543568"><ele>337.0</ele><time>2026-04-30T18:13:39Z</time></trkpt><trkpt lat="42.17763253337312" lon="12.7701679985188"><ele>337.0</ele><time>2026-04-30T18:13:40Z</time></trkpt><trkpt lat="42.17768988936005" lon="12.770358358979982"><ele>337.0</ele><time>2026-04-30T18:13:41Z</time></trkpt><trkpt lat="42.17774641130645" lon="12.770533857137575"><ele>337.25</ele><time>2026-04-30T18:13:42Z</time></trkpt><trkpt lat="42.17779978716859" lon="12.770698599403392"><ele>337.5</ele><time>2026-04-30T18:13:43Z</time></trkpt><trkpt lat="42.177844169133394" lon="12.770848977201117"><ele>337.75</ele><time>2026-04-30T18:13:44Z</time></trkpt><trkpt lat="42.17789001718495" lon="12.7710069847536"><ele>338.0</ele><time>2026-04-30T18:13:45Z</time></trkpt><trkpt lat="42.177945505998515" lon="12.771172327369634"><ele>338.0</ele><time>2026-04-30T18:13:46Z</time></trkpt><trkpt lat="42.17801365299789" lon="12.771355734025228"><ele>338.0</ele><time>2026-04-30T18:13:47Z</time></trkpt><trkpt lat="42.17809458685104" lon="12.77154775416119"><ele>338.0</ele><time>2026-04-30T18:13:48Z</time></trkpt><trkpt lat="42.17817419448885" lon="12.77175674668752"><ele>344.6666666666667</ele><time>2026-04-30T18:13:49Z</time></trkpt><trkpt lat="42.178243749038145" lon="12.771984814593802"><ele>351.3333333333333</ele><time>2026-04-30T18:13:50Z</time></trkpt><trkpt lat="42.17831131338849" lon="12.77223231152999"><ele>358.0</ele><time>2026-04-30T18:13:51Z</time></trkpt><trkpt lat="42.17838330199585" lon="12.77248920536074"><ele>356.0</ele><time>2026-04-30T18:13:52Z</time></trkpt><trkpt lat="42.17845667605681" lon="12.772740505945807"><ele>354.0</ele><time>2026-04-30T18:13:53Z</time></trkpt><trkpt lat="42.178534078347894" lon="12.772995467919207"><ele>352.0</ele><time>2026-04-30T18:13:54Z</time></trkpt><trkpt lat="42.17861461869528" lon="12.773255488118304"><ele>352.0</ele><time>2026-04-30T18:13:55Z</time></trkpt><trkpt lat="42.178692579567084" lon="12.773519767505139"><ele>352.0</ele><time>2026-04-30T18:13:56Z</time></trkpt><trkpt lat="42.17876647430341" lon="12.773783790198198"><ele>352.0</ele><time>2026-04-30T18:13:57Z</time></trkpt><trkpt lat="42.17883619980733" lon="12.774045641723482"><ele>347.66666666666663</ele><time>2026-04-30T18:13:58Z</time></trkpt><trkpt lat="42.17891270610899" lon="12.774303887316877"><ele>343.3333333333333</ele><time>2026-04-30T18:13:59Z</time></trkpt><trkpt lat="42.178989766338056" lon="12.774558506572026"><ele>339.0</ele><time>2026-04-30T18:14:00Z</time></trkpt><trkpt lat="42.17906348987331" lon="12.77481488147372"><ele>338.6666666666667</ele><time>2026-04-30T18:14:01Z</time></trkpt><trkpt lat="42.179133270213605" lon="12.775068474721728"><ele>338.33333333333337</ele><time>2026-04-30T18:14:02Z</time></trkpt><trkpt lat="42.17920266947004" lon="12.775315864878015"><ele>338.0</ele><time>2026-04-30T18:14:03Z</time></trkpt><trkpt lat="42.17926325436393" lon="12.775551990056886"><ele>338.0</ele><time>2026-04-30T18:14:04Z</time></trkpt><trkpt lat="42.17931273055507" lon="12.775784845611916"><ele>338.0</ele><time>2026-04-30T18:14:05Z</time></trkpt><trkpt lat="42.17934414409052" lon="12.776013501087684"><ele>338.0</ele><time>2026-04-30T18:14:06Z</time></trkpt><trkpt lat="42.17936647956297" lon="12.77623474647503"><ele>341.6666666666667</ele><time>2026-04-30T18:14:07Z</time></trkpt><trkpt lat="42.17937829180447" lon="12.776454544988912"><ele>345.3333333333333</ele><time>2026-04-30T18:14:08Z</time></trkpt><trkpt lat="42.179376394152264" lon="12.776680776621832"><ele>349.0</ele><time>2026-04-30T18:14:09Z</time></trkpt><trkpt lat="42.17936214238738" lon="12.776908206256604"><ele>351.66666666666663</ele><time>2026-04-30T18:14:10Z</time></trkpt><trkpt lat="42.17933501101603" lon="12.777138152244767"><ele>354.3333333333333</ele><time>2026-04-30T18:14:11Z</time></trkpt><trkpt lat="42.17929840919427" lon="12.777365549648003"><ele>357.0</ele><time>2026-04-30T18:14:12Z</time></trkpt><trkpt lat="42.179253988498395" lon="12.777590565734162"><ele>361.0</ele><time>2026-04-30T18:14:13Z</time></trkpt><trkpt lat="42.179200156810886" lon="12.777810404502558"><ele>365.0</ele><time>2026-04-30T18:14:14Z</time></trkpt><trkpt lat="42.17913329701348" lon="12.77802397519048"><ele>369.0</ele><time>2026-04-30T18:14:15Z</time></trkpt><trkpt lat="42.17905650705027" lon="12.778226453337464"><ele>361.6666666666667</ele><time>2026-04-30T18:14:16Z</time></trkpt><trkpt lat="42.178978154872645" lon="12.778419818661924"><ele>354.33333333333337</ele><time>2026-04-30T18:14:17Z</time></trkpt><trkpt lat="42.17890156251671" lon="12.778614651166231"><ele>347.0</ele><time>2026-04-30T18:14:18Z</time></trkpt><trkpt lat="42.17882838422121" lon="12.778812848817472"><ele>347.0</ele><time>2026-04-30T18:14:19Z</time></trkpt><trkpt lat="42.17875353987364" lon="12.779013939880347"><ele>347.0</ele><time>2026-04-30T18:14:20Z</time></trkpt><trkpt lat="42.178677167463796" lon="12.779223183372912"><ele>347.0</ele><time>2026-04-30T18:14:21Z</time></trkpt><trkpt lat="42.17860000500357" lon="12.779442802340727"><ele>351.0</ele><time>2026-04-30T18:14:22Z</time></trkpt><trkpt lat="42.17852501463695" lon="12.779667265726513"><ele>355.0</ele><time>2026-04-30T18:14:23Z</time></trkpt><trkpt lat="42.178434717841334" lon="12.779884747942129"><ele>359.0</ele><time>2026-04-30T18:14:24Z</time></trkpt><trkpt lat="42.178384033862194" lon="12.780123698481994"><ele>363.0</ele><time>2026-04-30T18:14:25Z</time></trkpt><trkpt lat="42.178323058504624" lon="12.780354771481473"><ele>367.0</ele><time>2026-04-30T18:14:26Z</time></trkpt><trkpt lat="42.17827083063316" lon="12.780581702257699"><ele>371.0</ele><time>2026-04-30T18:14:26.999Z</time></trkpt><trkpt lat="42.17822717269363" lon="12.78080845109931"><ele>371.33333333333337</ele><time>2026-04-30T18:14:27.999Z</time></trkpt><trkpt lat="42.17819672794122" lon="12.781030739332795"><ele>371.6666666666667</ele><time>2026-04-30T18:14:28.999Z</time></trkpt><trkpt lat="42.17818819042506" lon="12.78124137670788"><ele>372.0</ele><time>2026-04-30T18:14:29.999Z</time></trkpt><trkpt lat="42.17818440661794" lon="12.78145409000273"><ele>372.0</ele><time>2026-04-30T18:14:30.999Z</time></trkpt><trkpt lat="42.17819202008598" lon="12.781665960878257"><ele>372.0</ele><time>2026-04-30T18:14:31.999Z</time></trkpt><trkpt lat="42.178209015874444" lon="12.781878737168825"><ele>372.0</ele><time>2026-04-30T18:14:32.999Z</time></trkpt><trkpt lat="42.17823442529245" lon="12.78209576873166"><ele>370.3333333333333</ele><time>2026-04-30T18:14:33.999Z</time></trkpt><trkpt lat="42.17827112558721" lon="12.782306285239626"><ele>368.66666666666663</ele><time>2026-04-30T18:14:34.999Z</time></trkpt><trkpt lat="42.1783250148598" lon="12.782517007033412"><ele>367.0</ele><time>2026-04-30T18:14:35.999Z</time></trkpt><trkpt lat="42.178385499523834" lon="12.78272701651704"><ele>364.3333333333333</ele><time>2026-04-30T18:14:36.999Z</time></trkpt><trkpt lat="42.17845980751838" lon="12.782936061194539"><ele>361.6666666666667</ele><time>2026-04-30T18:14:37.999Z</time></trkpt><trkpt lat="42.17854901737781" lon="12.783139036718202"><ele>359.0</ele><time>2026-04-30T18:14:38.999Z</time></trkpt><trkpt lat="42.17864702487869" lon="12.7833360867052"><ele>357.0</ele><time>2026-04-30T18:14:39.999Z</time></trkpt><trkpt lat="42.1787554883937" lon="12.78353242361961"><ele>355.0</ele><time>2026-04-30T18:14:40.999Z</time></trkpt><trkpt lat="42.17887312922148" lon="12.783721297655699"><ele>353.0</ele><time>2026-04-30T18:14:41.999Z</time></trkpt><trkpt lat="42.1790014458924" lon="12.78389899512572"><ele>354.6666666666667</ele><time>2026-04-30T18:14:42.999Z</time></trkpt><trkpt lat="42.17913411389366" lon="12.784074700272662"><ele>356.3333333333333</ele><time>2026-04-30T18:14:43.999Z</time></trkpt><trkpt lat="42.17925755474226" lon="12.784248581658682"><ele>358.0</ele><time>2026-04-30T18:14:44.999Z</time></trkpt><trkpt lat="42.17937712062795" lon="12.784420070876594"><ele>358.0</ele><time>2026-04-30T18:14:45.999Z</time></trkpt><trkpt lat="42.17950054259496" lon="12.784591842838156"><ele>358.0</ele><time>2026-04-30T18:14:46.999Z</time></trkpt><trkpt lat="42.17962661260986" lon="12.784761871587717"><ele>358.0</ele><time>2026-04-30T18:14:47.999Z</time></trkpt><trkpt lat="42.17975038223256" lon="12.784927022988716"><ele>360.3333333333333</ele><time>2026-04-30T18:14:48.999Z</time></trkpt><trkpt lat="42.17987159309793" lon="12.785095271732555"><ele>362.6666666666667</ele><time>2026-04-30T18:14:49.999Z</time></trkpt><trkpt lat="42.17999350935067" lon="12.785263594554905"><ele>365.0</ele><time>2026-04-30T18:14:50.999Z</time></trkpt><trkpt lat="42.180119681561735" lon="12.78542955075198"><ele>365.0</ele><time>2026-04-30T18:14:51.999Z</time></trkpt><trkpt lat="42.1802479043884" lon="12.785596690011674"><ele>365.0</ele><time>2026-04-30T18:14:52.999Z</time></trkpt><trkpt lat="42.1803730964631" lon="12.785763181072825"><ele>365.0</ele><time>2026-04-30T18:14:53.999Z</time></trkpt><trkpt lat="42.180500415047845" lon="12.785928025609262"><ele>363.6666666666667</ele><time>2026-04-30T18:14:54.999Z</time></trkpt><trkpt lat="42.180632253517935" lon="12.78608813179799"><ele>362.3333333333333</ele><time>2026-04-30T18:14:55.999Z</time></trkpt><trkpt lat="42.180769488923275" lon="12.786240423406854"><ele>361.0</ele><time>2026-04-30T18:14:56.999Z</time></trkpt><trkpt lat="42.18091411039316" lon="12.786385185775135"><ele>365.0</ele><time>2026-04-30T18:14:57.999Z</time></trkpt><trkpt lat="42.181063479417915" lon="12.786520866608427"><ele>369.0</ele><time>2026-04-30T18:14:58.999Z</time></trkpt><trkpt lat="42.18121451294851" lon="12.786652828750189"><ele>373.0</ele><time>2026-04-30T18:14:59.999Z</time></trkpt><trkpt lat="42.181365073015805" lon="12.78677895158572"><ele>374.3333333333333</ele><time>2026-04-30T18:15:00.999Z</time></trkpt><trkpt lat="42.181524088166775" lon="12.786903836455553"><ele>375.6666666666667</ele><time>2026-04-30T18:15:01.999Z</time></trkpt><trkpt lat="42.18168679261243" lon="12.787032622558764"><ele>377.0</ele><time>2026-04-30T18:15:02.999Z</time></trkpt><trkpt lat="42.181855411716704" lon="12.787160139404879"><ele>377.0</ele><time>2026-04-30T18:15:03.999Z</time></trkpt><trkpt lat="42.18201186150101" lon="12.787311759288349"><ele>377.0</ele><time>2026-04-30T18:15:04.999Z</time></trkpt><trkpt lat="42.182178717851734" lon="12.787451194254317"><ele>377.0</ele><time>2026-04-30T18:15:05.999Z</time></trkpt><trkpt lat="42.18234692333169" lon="12.787593033045157"><ele>376.33333333333337</ele><time>2026-04-30T18:15:06.999Z</time></trkpt><trkpt lat="42.182513828061616" lon="12.78773074061367"><ele>375.6666666666667</ele><time>2026-04-30T18:15:07.999Z</time></trkpt><trkpt lat="42.18268308397101" lon="12.787868799265567"><ele>375.0</ele><time>2026-04-30T18:15:08.999Z</time></trkpt><trkpt lat="42.18285234774133" lon="12.788007393492542"><ele>375.0</ele><time>2026-04-30T18:15:09.999Z</time></trkpt><trkpt lat="42.183017628902874" lon="12.788150917028451"><ele>375.0</ele><time>2026-04-30T18:15:10.999Z</time></trkpt><trkpt lat="42.1831803241458" lon="12.788299571610384"><ele>375.0</ele><time>2026-04-30T18:15:11.999Z</time></trkpt><trkpt lat="42.18334568961941" lon="12.788455005364703"><ele>374.6666666666667</ele><time>2026-04-30T18:15:12.999Z</time></trkpt><trkpt lat="42.183508173033495" lon="12.78861424053164"><ele>374.33333333333337</ele><time>2026-04-30T18:15:13.999Z</time></trkpt><trkpt lat="42.183661707508044" lon="12.788798485328046"><ele>374.0</ele><time>2026-04-30T18:15:14.999Z</time></trkpt><trkpt lat="42.18379371446551" lon="12.789011201730197"><ele>374.0</ele><time>2026-04-30T18:15:15.999Z</time></trkpt><trkpt lat="42.18392674006973" lon="12.789213263277755"><ele>374.0</ele><time>2026-04-30T18:15:16.999Z</time></trkpt><trkpt lat="42.18406350675225" lon="12.78941837505612"><ele>374.0</ele><time>2026-04-30T18:15:17.999Z</time></trkpt><trkpt lat="42.18421869456635" lon="12.789599206311328"><ele>377.33333333333337</ele><time>2026-04-30T18:15:18.999Z</time></trkpt><trkpt lat="42.18433334064188" lon="12.789812668430718"><ele>380.6666666666667</ele><time>2026-04-30T18:15:19.999Z</time></trkpt><trkpt lat="42.18445341913539" lon="12.79002628739544"><ele>384.0</ele><time>2026-04-30T18:15:20.999Z</time></trkpt><trkpt lat="42.18457987966963" lon="12.790225201079833"><ele>384.0</ele><time>2026-04-30T18:15:21.999Z</time></trkpt><trkpt lat="42.18471222762734" lon="12.790408953839012"><ele>384.0</ele><time>2026-04-30T18:15:22.998Z</time></trkpt><trkpt lat="42.18485121595934" lon="12.79058416007567"><ele>384.0</ele><time>2026-04-30T18:15:23.998Z</time></trkpt><trkpt lat="42.184999094440336" lon="12.79074672129996"><ele>384.0</ele><time>2026-04-30T18:15:24.998Z</time></trkpt><trkpt lat="42.185148419739185" lon="12.790894559382112"><ele>384.0</ele><time>2026-04-30T18:15:25.998Z</time></trkpt><trkpt lat="42.18530474183572" lon="12.791027143575047"><ele>384.0</ele><time>2026-04-30T18:15:27Z</time></trkpt><trkpt lat="42.18546249910474" lon="12.791144547063238"><ele>384.0</ele><time>2026-04-30T18:15:28Z</time></trkpt><trkpt lat="42.18562432377637" lon="12.791255139479512"><ele>384.0</ele><time>2026-04-30T18:15:29Z</time></trkpt><trkpt lat="42.18578676933049" lon="12.791364508714654"><ele>384.0</ele><time>2026-04-30T18:15:30Z</time></trkpt><trkpt lat="42.185951957157755" lon="12.79147199944293"><ele>387.66666666666663</ele><time>2026-04-30T18:15:31Z</time></trkpt><trkpt lat="42.18611518686869" lon="12.791584862903505"><ele>391.3333333333333</ele><time>2026-04-30T18:15:32Z</time></trkpt><trkpt lat="42.186275039156484" lon="12.791699907669633"><ele>395.0</ele><time>2026-04-30T18:15:33Z</time></trkpt><trkpt lat="42.18643540614998" lon="12.791813646008562"><ele>394.66666666666663</ele><time>2026-04-30T18:15:34Z</time></trkpt><trkpt lat="42.18659525094348" lon="12.791922453654166"><ele>394.33333333333337</ele><time>2026-04-30T18:15:35Z</time></trkpt><trkpt lat="42.186760910277734" lon="12.792033195386587"><ele>394.0</ele><time>2026-04-30T18:15:36Z</time></trkpt><trkpt lat="42.186931009733115" lon="12.79214661805887"><ele>394.0</ele><time>2026-04-30T18:15:37Z</time></trkpt><trkpt lat="42.187099955776254" lon="12.792262942821784"><ele>394.0</ele><time>2026-04-30T18:15:38Z</time></trkpt><trkpt lat="42.187268133642576" lon="12.792376978061727"><ele>394.0</ele><time>2026-04-30T18:15:39Z</time></trkpt><trkpt lat="42.18743713787374" lon="12.792492297032794"><ele>396.33333333333337</ele><time>2026-04-30T18:15:40Z</time></trkpt><trkpt lat="42.18760367265966" lon="12.792604732012283"><ele>398.66666666666663</ele><time>2026-04-30T18:15:41Z</time></trkpt><trkpt lat="42.187759787386774" lon="12.792711556895199"><ele>401.0</ele><time>2026-04-30T18:15:42Z</time></trkpt><trkpt lat="42.187913229074084" lon="12.792813408486209"><ele>401.0</ele><time>2026-04-30T18:15:43Z</time></trkpt><trkpt lat="42.18807459421878" lon="12.792907591697649"><ele>401.0</ele><time>2026-04-30T18:15:44Z</time></trkpt><trkpt lat="42.1882406128976" lon="12.792988824143345"><ele>401.0</ele><time>2026-04-30T18:15:45Z</time></trkpt><trkpt lat="42.18841066437216" lon="12.793061928858462"><ele>401.66666666666663</ele><time>2026-04-30T18:15:46Z</time></trkpt><trkpt lat="42.18858502859557" lon="12.793129986517783"><ele>402.33333333333337</ele><time>2026-04-30T18:15:47Z</time></trkpt><trkpt lat="42.18875853784446" lon="12.793189716562972"><ele>403.0</ele><time>2026-04-30T18:15:48Z</time></trkpt><trkpt lat="42.18893342061262" lon="12.793239422146176"><ele>404.0</ele><time>2026-04-30T18:15:49Z</time></trkpt><trkpt lat="42.18910872437479" lon="12.79329151475318"><ele>405.0</ele><time>2026-04-30T18:15:50Z</time></trkpt><trkpt lat="42.18928988485714" lon="12.793346662719262"><ele>406.0</ele><time>2026-04-30T18:15:51Z</time></trkpt><trkpt lat="42.18947355762535" lon="12.793407141614901"><ele>406.0</ele><time>2026-04-30T18:15:52Z</time></trkpt><trkpt lat="42.189670838245355" lon="12.793462942280478"><ele>406.0</ele><time>2026-04-30T18:15:53Z</time></trkpt><trkpt lat="42.18987772951727" lon="12.793518645673847"><ele>406.0</ele><time>2026-04-30T18:15:54Z</time></trkpt><trkpt lat="42.190083455795794" lon="12.79357655739685"><ele>403.33333333333337</ele><time>2026-04-30T18:15:55Z</time></trkpt><trkpt lat="42.1902810554323" lon="12.793641792005157"><ele>400.66666666666663</ele><time>2026-04-30T18:15:56Z</time></trkpt><trkpt lat="42.19047208975916" lon="12.793710987752357"><ele>398.0</ele><time>2026-04-30T18:15:57Z</time></trkpt><trkpt lat="42.190654800454226" lon="12.793774327182028"><ele>400.66666666666663</ele><time>2026-04-30T18:15:58Z</time></trkpt><trkpt lat="42.19083905763196" lon="12.793833782123306"><ele>403.33333333333337</ele><time>2026-04-30T18:15:59Z</time></trkpt><trkpt lat="42.19103640167373" lon="12.793887432578384"><ele>406.0</ele><time>2026-04-30T18:16:00Z</time></trkpt><trkpt lat="42.19123985817971" lon="12.793935162026736"><ele>406.0</ele><time>2026-04-30T18:16:01Z</time></trkpt><trkpt lat="42.191438026486544" lon="12.793990389766215"><ele>406.0</ele><time>2026-04-30T18:16:02Z</time></trkpt><trkpt lat="42.1916232535193" lon="12.79405672308346"><ele>406.0</ele><time>2026-04-30T18:16:03Z</time></trkpt><trkpt lat="42.19180577610154" lon="12.794127889867589"><ele>405.0</ele><time>2026-04-30T18:16:04Z</time></trkpt><trkpt lat="42.191985719186775" lon="12.794197635988843"><ele>404.0</ele><time>2026-04-30T18:16:05Z</time></trkpt><trkpt lat="42.192158099537636" lon="12.794263018905212"><ele>403.0</ele><time>2026-04-30T18:16:06Z</time></trkpt><trkpt lat="42.19232837053122" lon="12.794311204391613"><ele>399.0</ele><time>2026-04-30T18:16:07Z</time></trkpt><trkpt lat="42.19248989935711" lon="12.794352356879537"><ele>395.0</ele><time>2026-04-30T18:16:08Z</time></trkpt><trkpt lat="42.19264205000727" lon="12.794403329842114"><ele>391.0</ele><time>2026-04-30T18:16:09Z</time></trkpt><trkpt lat="42.192791314644936" lon="12.794466582022311"><ele>391.0</ele><time>2026-04-30T18:16:10Z</time></trkpt><trkpt lat="42.19294517527355" lon="12.79454444054169"><ele>391.0</ele><time>2026-04-30T18:16:11Z</time></trkpt><trkpt lat="42.193099289031316" lon="12.794635955360453"><ele>391.0</ele><time>2026-04-30T18:16:12Z</time></trkpt><trkpt lat="42.19325377984991" lon="12.79474458034511"><ele>393.33333333333337</ele><time>2026-04-30T18:16:13Z</time></trkpt><trkpt lat="42.193401799328" lon="12.79486807941812"><ele>395.66666666666663</ele><time>2026-04-30T18:16:14Z</time></trkpt><trkpt lat="42.193544450326556" lon="12.795002252299499"><ele>398.0</ele><time>2026-04-30T18:16:15Z</time></trkpt><trkpt lat="42.19367035662517" lon="12.795138758015709"><ele>400.0</ele><time>2026-04-30T18:16:16Z</time></trkpt><trkpt lat="42.193786877243454" lon="12.795284868301035"><ele>402.0</ele><time>2026-04-30T18:16:17Z</time></trkpt><trkpt lat="42.19390553356454" lon="12.795434945183453"><ele>404.0</ele><time>2026-04-30T18:16:18Z</time></trkpt><trkpt lat="42.19402657308027" lon="12.79558447866281"><ele>404.0</ele><time>2026-04-30T18:16:19Z</time></trkpt><trkpt lat="42.194157579872396" lon="12.795740928590574"><ele>404.0</ele><time>2026-04-30T18:16:20Z</time></trkpt><trkpt lat="42.19429627083001" lon="12.79590244591416"><ele>404.0</ele><time>2026-04-30T18:16:21Z</time></trkpt><trkpt lat="42.19442289005387" lon="12.796096314457479"><ele>404.3333333333333</ele><time>2026-04-30T18:16:22Z</time></trkpt><trkpt lat="42.19456767680746" lon="12.796281937053951"><ele>404.66666666666663</ele><time>2026-04-30T18:16:22.999Z</time></trkpt><trkpt lat="42.19471999590316" lon="12.796476487192898"><ele>405.0</ele><time>2026-04-30T18:16:23.999Z</time></trkpt><trkpt lat="42.19487489255564" lon="12.79667478174135"><ele>406.0</ele><time>2026-04-30T18:16:24.999Z</time></trkpt><trkpt lat="42.1950355206616" lon="12.796883006576648"><ele>407.0</ele><time>2026-04-30T18:16:25.999Z</time></trkpt><trkpt lat="42.195195206875994" lon="12.797087407856832"><ele>408.0</ele><time>2026-04-30T18:16:26.999Z</time></trkpt><trkpt lat="42.1953565311043" lon="12.797292154344703"><ele>408.0</ele><time>2026-04-30T18:16:27.999Z</time></trkpt><trkpt lat="42.19552770033681" lon="12.7974906556933"><ele>408.0</ele><time>2026-04-30T18:16:28.999Z</time></trkpt><trkpt lat="42.19568603121661" lon="12.797711334611817"><ele>413.0</ele><time>2026-04-30T18:16:29.999Z</time></trkpt><trkpt lat="42.19585194506048" lon="12.797925113941396"><ele>418.0</ele><time>2026-04-30T18:16:30.999Z</time></trkpt><trkpt lat="42.196018905454586" lon="12.798129771405645"><ele>418.0</ele><time>2026-04-30T18:16:31.999Z</time></trkpt><trkpt lat="42.19618698618805" lon="12.798336222393091"><ele>418.0</ele><time>2026-04-30T18:16:32.999Z</time></trkpt><trkpt lat="42.19635744455378" lon="12.798548037293584"><ele>420.5</ele><time>2026-04-30T18:16:33.999Z</time></trkpt><trkpt lat="42.19652648268129" lon="12.798765200320256"><ele>423.0</ele><time>2026-04-30T18:16:34.999Z</time></trkpt><trkpt lat="42.19669862510303" lon="12.798986196576532"><ele>423.0</ele><time>2026-04-30T18:16:35.999Z</time></trkpt><trkpt lat="42.19687350547288" lon="12.799209139097455"><ele>423.0</ele><time>2026-04-30T18:16:36.999Z</time></trkpt><trkpt lat="42.19705055129521" lon="12.799435418759497"><ele>423.5</ele><time>2026-04-30T18:16:37.999Z</time></trkpt><trkpt lat="42.19722773047205" lon="12.799664322689884"><ele>424.0</ele><time>2026-04-30T18:16:38.999Z</time></trkpt><trkpt lat="42.19740871876522" lon="12.799896290965716"><ele>421.5</ele><time>2026-04-30T18:16:39.999Z</time></trkpt><trkpt lat="42.19759120462062" lon="12.8001290493687"><ele>419.0</ele><time>2026-04-30T18:16:40.999Z</time></trkpt><trkpt lat="42.197775980373166" lon="12.800363649515234"><ele>416.0</ele><time>2026-04-30T18:16:41.999Z</time></trkpt><trkpt lat="42.19796249733133" lon="12.800600710379252"><ele>413.0</ele><time>2026-04-30T18:16:42.999Z</time></trkpt><trkpt lat="42.198151699968285" lon="12.800839267722985"><ele>406.0</ele><time>2026-04-30T18:16:43.999Z</time></trkpt><trkpt lat="42.198342933802394" lon="12.801077491053867"><ele>399.0</ele><time>2026-04-30T18:16:44.999Z</time></trkpt><trkpt lat="42.19853425716005" lon="12.801315772029348"><ele>399.0</ele><time>2026-04-30T18:16:45.999Z</time></trkpt><trkpt lat="42.19872833562995" lon="12.801557150747664"><ele>399.0</ele><time>2026-04-30T18:16:46.999Z</time></trkpt><trkpt lat="42.19892129938941" lon="12.801802279569394"><ele>395.5</ele><time>2026-04-30T18:16:47.999Z</time></trkpt><trkpt lat="42.19911649201192" lon="12.802052247973831"><ele>392.0</ele><time>2026-04-30T18:16:48.999Z</time></trkpt><trkpt lat="42.19931074001766" lon="12.80230038282633"><ele>392.0</ele><time>2026-04-30T18:16:49.999Z</time></trkpt><trkpt lat="42.199507353215836" lon="12.802546851351934"><ele>392.0</ele><time>2026-04-30T18:16:50.999Z</time></trkpt><trkpt lat="42.199707260491174" lon="12.802792160075185"><ele>391.0</ele><time>2026-04-30T18:16:51.999Z</time></trkpt><trkpt lat="42.199905740388004" lon="12.803036405126436"><ele>390.0</ele><time>2026-04-30T18:16:52.999Z</time></trkpt><trkpt lat="42.20009866056271" lon="12.80328703431162"><ele>387.5</ele><time>2026-04-30T18:16:53.999Z</time></trkpt><trkpt lat="42.20028119327193" lon="12.80355182802394"><ele>385.0</ele><time>2026-04-30T18:16:54.999Z</time></trkpt><trkpt lat="42.20045115835767" lon="12.803833562458326"><ele>385.0</ele><time>2026-04-30T18:16:55.999Z</time></trkpt><trkpt lat="42.20060917944735" lon="12.804125974375426"><ele>385.0</ele><time>2026-04-30T18:16:56.999Z</time></trkpt><trkpt lat="42.20075571280311" lon="12.804421693569985"><ele>384.5</ele><time>2026-04-30T18:16:57.999Z</time></trkpt><trkpt lat="42.20089464248153" lon="12.804725862092864"><ele>384.0</ele><time>2026-04-30T18:16:58.999Z</time></trkpt><trkpt lat="42.201021851202235" lon="12.805043048141242"><ele>384.0</ele><time>2026-04-30T18:16:59.999Z</time></trkpt><trkpt lat="42.20113531820186" lon="12.805369954161291"><ele>384.0</ele><time>2026-04-30T18:17:00.999Z</time></trkpt><trkpt lat="42.2012063380402" lon="12.805714854282476"><ele>386.0</ele><time>2026-04-30T18:17:01.999Z</time></trkpt><trkpt lat="42.20127120317299" lon="12.806057130266337"><ele>388.0</ele><time>2026-04-30T18:17:02.999Z</time></trkpt><trkpt lat="42.20132751656568" lon="12.806399164959101"><ele>388.0</ele><time>2026-04-30T18:17:03.999Z</time></trkpt><trkpt lat="42.20138923662538" lon="12.806737763183166"><ele>388.0</ele><time>2026-04-30T18:17:04.999Z</time></trkpt><trkpt lat="42.20143435309095" lon="12.80708803790632"><ele>390.5</ele><time>2026-04-30T18:17:05.999Z</time></trkpt><trkpt lat="42.20147792073981" lon="12.807433577427263"><ele>393.0</ele><time>2026-04-30T18:17:06.999Z</time></trkpt><trkpt lat="42.2015256175312" lon="12.807780536620669"><ele>396.0</ele><time>2026-04-30T18:17:07.999Z</time></trkpt><trkpt lat="42.20157462896857" lon="12.808129290042064"><ele>399.0</ele><time>2026-04-30T18:17:08.999Z</time></trkpt><trkpt lat="42.201623038871325" lon="12.808480922530892"><ele>400.5</ele><time>2026-04-30T18:17:09.999Z</time></trkpt><trkpt lat="42.20167035215701" lon="12.808832927085467"><ele>402.0</ele><time>2026-04-30T18:17:10.999Z</time></trkpt><trkpt lat="42.20171620688518" lon="12.809182090642699"><ele>401.5</ele><time>2026-04-30T18:17:11.999Z</time></trkpt><trkpt lat="42.201760653224234" lon="12.809531542817542"><ele>401.0</ele><time>2026-04-30T18:17:12.999Z</time></trkpt><trkpt lat="42.20180498597622" lon="12.809874030612807"><ele>397.5</ele><time>2026-04-30T18:17:13.999Z</time></trkpt><trkpt lat="42.20185047567994" lon="12.810207950689303"><ele>394.0</ele><time>2026-04-30T18:17:14.999Z</time></trkpt><trkpt lat="42.201890526711054" lon="12.810526987036084"><ele>394.0</ele><time>2026-04-30T18:17:15.999Z</time></trkpt><trkpt lat="42.2019320090822" lon="12.810848024095865"><ele>394.0</ele><time>2026-04-30T18:17:16.999Z</time></trkpt><trkpt lat="42.20198089086297" lon="12.811164759603484"><ele>394.0</ele><time>2026-04-30T18:17:17.999Z</time></trkpt><trkpt lat="42.20203026419605" lon="12.811476764822398"><ele>394.0</ele><time>2026-04-30T18:17:18.998Z</time></trkpt><trkpt lat="42.20208458146105" lon="12.811782200699119"><ele>395.33333333333337</ele><time>2026-04-30T18:17:19.998Z</time></trkpt><trkpt lat="42.20214935510524" lon="12.812077908193283"><ele>396.66666666666663</ele><time>2026-04-30T18:17:20.998Z</time></trkpt><trkpt lat="42.20222108147078" lon="12.81235600203469"><ele>398.0</ele><time>2026-04-30T18:17:21.998Z</time></trkpt><trkpt lat="42.20229818067576" lon="12.81261654249677"><ele>400.0</ele><time>2026-04-30T18:17:22.998Z</time></trkpt><trkpt lat="42.20238385116962" lon="12.812865324876798"><ele>402.0</ele><time>2026-04-30T18:17:23.998Z</time></trkpt><trkpt lat="42.20247730722467" lon="12.813105970036842"><ele>404.0</ele><time>2026-04-30T18:17:24.998Z</time></trkpt><trkpt lat="42.20257881907057" lon="12.813338594778454"><ele>404.3333333333333</ele><time>2026-04-30T18:17:25.998Z</time></trkpt><trkpt lat="42.20268947081548" lon="12.813562404555258"><ele>404.66666666666663</ele><time>2026-04-30T18:17:26.998Z</time></trkpt><trkpt lat="42.202802954899674" lon="12.813779623253511"><ele>405.0</ele><time>2026-04-30T18:17:27.998Z</time></trkpt><trkpt lat="42.20291766789744" lon="12.813985776248801"><ele>405.0</ele><time>2026-04-30T18:17:28.998Z</time></trkpt><trkpt lat="42.20302895063275" lon="12.81417731783269"><ele>405.0</ele><time>2026-04-30T18:17:29.998Z</time></trkpt><trkpt lat="42.203139619251026" lon="12.814351197232565"><ele>405.0</ele><time>2026-04-30T18:17:30.998Z</time></trkpt><trkpt lat="42.20324166178878" lon="12.814519420321565"><ele>404.75</ele><time>2026-04-30T18:17:31.998Z</time></trkpt><trkpt lat="42.203337061157946" lon="12.814687967150522"><ele>404.5</ele><time>2026-04-30T18:17:33Z</time></trkpt><trkpt lat="42.20343361850097" lon="12.814830087535043"><ele>404.25</ele><time>2026-04-30T18:17:34Z</time></trkpt><trkpt lat="42.203532510110456" lon="12.814977201290725"><ele>404.0</ele><time>2026-04-30T18:17:35Z</time></trkpt><trkpt lat="42.20363242220374" lon="12.815127662806045"><ele>403.0</ele><time>2026-04-30T18:17:36Z</time></trkpt><trkpt lat="42.203735996663696" lon="12.815281208962336"><ele>402.0</ele><time>2026-04-30T18:17:37Z</time></trkpt><trkpt lat="42.203832788096" lon="12.815441179198688"><ele>401.0</ele><time>2026-04-30T18:17:38Z</time></trkpt><trkpt lat="42.20392816218132" lon="12.81559937643851"><ele>400.0</ele><time>2026-04-30T18:17:39Z</time></trkpt><trkpt lat="42.20402587189996" lon="12.81575843934387"><ele>399.0</ele><time>2026-04-30T18:17:40Z</time></trkpt><trkpt lat="42.20412801750055" lon="12.815920370834656"><ele>398.0</ele><time>2026-04-30T18:17:41Z</time></trkpt><trkpt lat="42.204237248813456" lon="12.816088357124968"><ele>397.3333333333333</ele><time>2026-04-30T18:17:42Z</time></trkpt><trkpt lat="42.20434908207411" lon="12.81625841744778"><ele>396.66666666666663</ele><time>2026-04-30T18:17:43Z</time></trkpt><trkpt lat="42.20446260392466" lon="12.81642944512153"><ele>396.0</ele><time>2026-04-30T18:17:44Z</time></trkpt><trkpt lat="42.2045761479012" lon="12.816607096942146"><ele>396.0</ele><time>2026-04-30T18:17:45Z</time></trkpt><trkpt lat="42.204686441601005" lon="12.816785906945865"><ele>396.0</ele><time>2026-04-30T18:17:46Z</time></trkpt><trkpt lat="42.20479621251311" lon="12.81696308722328"><ele>396.0</ele><time>2026-04-30T18:17:47Z</time></trkpt><trkpt lat="42.2049080495755" lon="12.817137442781915"><ele>395.0</ele><time>2026-04-30T18:17:48Z</time></trkpt><trkpt lat="42.20501956260323" lon="12.817308278998551"><ele>394.0</ele><time>2026-04-30T18:17:49Z</time></trkpt><trkpt lat="42.20512956792351" lon="12.81747901718713"><ele>393.0</ele><time>2026-04-30T18:17:50Z</time></trkpt><trkpt lat="42.20523797003683" lon="12.817647491765335"><ele>392.66666666666663</ele><time>2026-04-30T18:17:51Z</time></trkpt><trkpt lat="42.205344323598275" lon="12.817814833028368"><ele>392.3333333333333</ele><time>2026-04-30T18:17:52Z</time></trkpt><trkpt lat="42.20545295427866" lon="12.817982804970956"><ele>392.0</ele><time>2026-04-30T18:17:53Z</time></trkpt><trkpt lat="42.205562519851505" lon="12.818153073787308"><ele>390.66666666666663</ele><time>2026-04-30T18:17:54Z</time></trkpt><trkpt lat="42.205676706358865" lon="12.818324257259102"><ele>389.33333333333337</ele><time>2026-04-30T18:17:55Z</time></trkpt><trkpt lat="42.20578972699235" lon="12.818495393767115"><ele>388.0</ele><time>2026-04-30T18:17:56Z</time></trkpt><trkpt lat="42.20590160708661" lon="12.818670022711581"><ele>388.0</ele><time>2026-04-30T18:17:57Z</time></trkpt><trkpt lat="42.206011386905026" lon="12.818843318983005"><ele>388.0</ele><time>2026-04-30T18:17:58Z</time></trkpt><trkpt lat="42.20611945390014" lon="12.819016638100756"><ele>388.0</ele><time>2026-04-30T18:17:59Z</time></trkpt><trkpt lat="42.20622963820979" lon="12.819189024085105"><ele>387.6666666666667</ele><time>2026-04-30T18:18:00Z</time></trkpt><trkpt lat="42.206339867040526" lon="12.819362240050914"><ele>387.33333333333337</ele><time>2026-04-30T18:18:01Z</time></trkpt><trkpt lat="42.206453892819056" lon="12.819537835752907"><ele>387.0</ele><time>2026-04-30T18:18:02Z</time></trkpt><trkpt lat="42.20656767087709" lon="12.81971595628825"><ele>386.0</ele><time>2026-04-30T18:18:03Z</time></trkpt><trkpt lat="42.206681016638534" lon="12.819889934916686"><ele>385.0</ele><time>2026-04-30T18:18:04Z</time></trkpt><trkpt lat="42.2067942938585" lon="12.820061596445472"><ele>384.0</ele><time>2026-04-30T18:18:05Z</time></trkpt><trkpt lat="42.206906696773466" lon="12.820238679219445"><ele>384.0</ele><time>2026-04-30T18:18:06Z</time></trkpt><trkpt lat="42.20701845163661" lon="12.82040689783197"><ele>384.0</ele><time>2026-04-30T18:18:07Z</time></trkpt><trkpt lat="42.20712366799377" lon="12.820571018165836"><ele>384.0</ele><time>2026-04-30T18:18:08Z</time></trkpt><trkpt lat="42.20722002508829" lon="12.820719906408053"><ele>384.0</ele><time>2026-04-30T18:18:09Z</time></trkpt><trkpt lat="42.207304755816295" lon="12.82084807814001"><ele>384.0</ele><time>2026-04-30T18:18:10Z</time></trkpt><trkpt lat="42.20738330567648" lon="12.820961530024903"><ele>384.0</ele><time>2026-04-30T18:18:11Z</time></trkpt><trkpt lat="42.20745567807489" lon="12.821069703108016"><ele>384.0</ele><time>2026-04-30T18:18:12Z</time></trkpt><trkpt lat="42.207519225569655" lon="12.821162990848373"><ele>384.0</ele><time>2026-04-30T18:18:13Z</time></trkpt><trkpt lat="42.20757884935678" lon="12.821247791112649"><ele>384.0</ele><time>2026-04-30T18:18:14Z</time></trkpt><trkpt lat="42.2076340314259" lon="12.82133367717316"><ele>384.0</ele><time>2026-04-30T18:18:15Z</time></trkpt><trkpt lat="42.20767925548611" lon="12.821417813083592"><ele>384.0</ele><time>2026-04-30T18:18:16Z</time></trkpt><trkpt lat="42.20774005943039" lon="12.821526331287545"><ele>384.0</ele><time>2026-04-30T18:18:18Z</time></trkpt><trkpt lat="42.20771069107425" lon="12.821641453349853"><ele>384.0</ele><time>2026-04-30T18:18:19Z</time></trkpt><trkpt lat="42.207692072575405" lon="12.821737722728974"><ele>384.0</ele><time>2026-04-30T18:18:21Z</time></trkpt><trkpt lat="42.207666202800674" lon="12.821853525063467"><ele>384.2</ele><time>2026-04-30T18:18:24Z</time></trkpt><trkpt lat="42.20767670940525" lon="12.82196337293517"><ele>384.4</ele><time>2026-04-30T18:18:26Z</time></trkpt><trkpt lat="42.20772541982185" lon="12.822138698792264"><ele>384.6</ele><time>2026-04-30T18:18:28Z</time></trkpt><trkpt lat="42.20777591687508" lon="12.822228746518123"><ele>384.8</ele><time>2026-04-30T18:18:29Z</time></trkpt><trkpt lat="42.20784610702292" lon="12.82231225546302"><ele>385.0</ele><time>2026-04-30T18:18:30Z</time></trkpt><trkpt lat="42.20791706559249" lon="12.822421547729853"><ele>385.0</ele><time>2026-04-30T18:18:31Z</time></trkpt><trkpt lat="42.20797880178447" lon="12.822569721325655"><ele>385.0</ele><time>2026-04-30T18:18:31.999Z</time></trkpt><trkpt lat="42.20807634405103" lon="12.8226926697672"><ele>385.0</ele><time>2026-04-30T18:18:32.999Z</time></trkpt><trkpt lat="42.20815966206828" lon="12.822823666869345"><ele>385.0</ele><time>2026-04-30T18:18:33.999Z</time></trkpt><trkpt lat="42.208248592914536" lon="12.822957763791864"><ele>385.75</ele><time>2026-04-30T18:18:34.999Z</time></trkpt><trkpt lat="42.20834129952938" lon="12.823099206877806"><ele>386.5</ele><time>2026-04-30T18:18:35.999Z</time></trkpt><trkpt lat="42.20843562001004" lon="12.823244179288094"><ele>387.25</ele><time>2026-04-30T18:18:36.999Z</time></trkpt><trkpt lat="42.208533843149326" lon="12.823393627637413"><ele>388.0</ele><time>2026-04-30T18:18:37.999Z</time></trkpt><trkpt lat="42.20863528705848" lon="12.823544770991862"><ele>388.33333333333337</ele><time>2026-04-30T18:18:38.999Z</time></trkpt><trkpt lat="42.20873357387873" lon="12.823700492935872"><ele>388.66666666666663</ele><time>2026-04-30T18:18:39.999Z</time></trkpt><trkpt lat="42.20882948892065" lon="12.823855631555762"><ele>389.0</ele><time>2026-04-30T18:18:40.999Z</time></trkpt><trkpt lat="42.20892912982262" lon="12.824006154708664"><ele>389.0</ele><time>2026-04-30T18:18:41.999Z</time></trkpt><trkpt lat="42.20903616072235" lon="12.824154066448763"><ele>389.0</ele><time>2026-04-30T18:18:42.999Z</time></trkpt><trkpt lat="42.20914205280864" lon="12.824301132435966"><ele>389.0</ele><time>2026-04-30T18:18:43.999Z</time></trkpt><trkpt lat="42.209239721845805" lon="12.824451861923045"><ele>390.0</ele><time>2026-04-30T18:18:44.999Z</time></trkpt><trkpt lat="42.20932922409255" lon="12.824599938165491"><ele>391.0</ele><time>2026-04-30T18:18:45.999Z</time></trkpt><trkpt lat="42.20942270562446" lon="12.824742613399522"><ele>392.0</ele><time>2026-04-30T18:18:46.999Z</time></trkpt><trkpt lat="42.209510418338716" lon="12.82487106305133"><ele>393.0</ele><time>2026-04-30T18:18:47.999Z</time></trkpt><trkpt lat="42.2095961184121" lon="12.82498929288029"><ele>393.0</ele><time>2026-04-30T18:18:48.999Z</time></trkpt><trkpt lat="42.20966870424048" lon="12.825108316312603"><ele>393.0</ele><time>2026-04-30T18:18:49.999Z</time></trkpt><trkpt lat="42.209744991281624" lon="12.8252210759017"><ele>393.0</ele><time>2026-04-30T18:18:50.999Z</time></trkpt><trkpt lat="42.209814846906646" lon="12.825349769856896"><ele>393.0</ele><time>2026-04-30T18:18:51.999Z</time></trkpt><trkpt lat="42.20987625787724" lon="12.825501626532027"><ele>393.25</ele><time>2026-04-30T18:18:52.999Z</time></trkpt><trkpt lat="42.209903835066456" lon="12.82567639615391"><ele>393.5</ele><time>2026-04-30T18:18:53.999Z</time></trkpt><trkpt lat="42.20993842664963" lon="12.825863837513673"><ele>393.75</ele><time>2026-04-30T18:18:54.999Z</time></trkpt><trkpt lat="42.20997065601594" lon="12.826061852249026"><ele>394.0</ele><time>2026-04-30T18:18:55.999Z</time></trkpt><trkpt lat="42.20999927598183" lon="12.826266859045589"><ele>393.33333333333337</ele><time>2026-04-30T18:18:56.999Z</time></trkpt><trkpt lat="42.21001887726458" lon="12.826485167618683"><ele>392.66666666666663</ele><time>2026-04-30T18:18:57.999Z</time></trkpt><trkpt lat="42.210031392342245" lon="12.826702476717188"><ele>392.0</ele><time>2026-04-30T18:18:58.999Z</time></trkpt><trkpt lat="42.21003041783521" lon="12.826907525783144"><ele>391.5</ele><time>2026-04-30T18:18:59.999Z</time></trkpt><trkpt lat="42.21004712393311" lon="12.827101458877628"><ele>391.0</ele><time>2026-04-30T18:19:00.999Z</time></trkpt><trkpt lat="42.210022830325315" lon="12.82728260697125"><ele>390.5</ele><time>2026-04-30T18:19:01.999Z</time></trkpt><trkpt lat="42.21001324652007" lon="12.82744130558757"><ele>390.0</ele><time>2026-04-30T18:19:02.999Z</time></trkpt><trkpt lat="42.21003678194162" lon="12.827585430605943"><ele>390.25</ele><time>2026-04-30T18:19:03.999Z</time></trkpt><trkpt lat="42.210091301994765" lon="12.827708042888586"><ele>390.5</ele><time>2026-04-30T18:19:04.999Z</time></trkpt><trkpt lat="42.21017232441898" lon="12.82781053150531"><ele>390.75</ele><time>2026-04-30T18:19:05.999Z</time></trkpt><trkpt lat="42.210268307867615" lon="12.82790487445396"><ele>391.0</ele><time>2026-04-30T18:19:06.999Z</time></trkpt><trkpt lat="42.21034994162001" lon="12.828020853875486"><ele>391.0</ele><time>2026-04-30T18:19:07.999Z</time></trkpt><trkpt lat="42.21042324950764" lon="12.828154835934628"><ele>391.0</ele><time>2026-04-30T18:19:08.999Z</time></trkpt><trkpt lat="42.21049414202989" lon="12.828305227377783"><ele>391.0</ele><time>2026-04-30T18:19:09.999Z</time></trkpt><trkpt lat="42.2105408313103" lon="12.828465078722026"><ele>391.0</ele><time>2026-04-30T18:19:10.999Z</time></trkpt><trkpt lat="42.21060028156139" lon="12.828609644287239"><ele>391.75</ele><time>2026-04-30T18:19:11.999Z</time></trkpt><trkpt lat="42.210634779205165" lon="12.828766248234475"><ele>392.5</ele><time>2026-04-30T18:19:12.999Z</time></trkpt><trkpt lat="42.21067333626576" lon="12.828923959978612"><ele>393.25</ele><time>2026-04-30T18:19:13.999Z</time></trkpt><trkpt lat="42.21072598731207" lon="12.82907380655637"><ele>394.0</ele><time>2026-04-30T18:19:14.999Z</time></trkpt><trkpt lat="42.21079897716538" lon="12.829215572821743"><ele>391.0</ele><time>2026-04-30T18:19:15.999Z</time></trkpt><trkpt lat="42.2108931896946" lon="12.829350074491474"><ele>388.0</ele><time>2026-04-30T18:19:16.999Z</time></trkpt><trkpt lat="42.2109920755326" lon="12.82946500958612"><ele>385.0</ele><time>2026-04-30T18:19:17.999Z</time></trkpt><trkpt lat="42.211093392892394" lon="12.829567353467615"><ele>382.0</ele><time>2026-04-30T18:19:18.999Z</time></trkpt><trkpt lat="42.21117262479187" lon="12.82967815464694"><ele>382.0</ele><time>2026-04-30T18:19:19.999Z</time></trkpt><trkpt lat="42.21119411411065" lon="12.829826744184203"><ele>382.0</ele><time>2026-04-30T18:19:20.999Z</time></trkpt><trkpt lat="42.21124162516156" lon="12.829970647185144"><ele>382.0</ele><time>2026-04-30T18:19:21.999Z</time></trkpt><trkpt lat="42.21127628506648" lon="12.830139400104988"><ele>382.0</ele><time>2026-04-30T18:19:22.999Z</time></trkpt><trkpt lat="42.21132171885069" lon="12.83031261179168"><ele>384.5</ele><time>2026-04-30T18:19:23.999Z</time></trkpt><trkpt lat="42.2113535433509" lon="12.830501111634861"><ele>387.0</ele><time>2026-04-30T18:19:24.999Z</time></trkpt><trkpt lat="42.21141006332992" lon="12.830690475684015"><ele>389.5</ele><time>2026-04-30T18:19:25.999Z</time></trkpt><trkpt lat="42.21145086802349" lon="12.830872669886558"><ele>392.0</ele><time>2026-04-30T18:19:26.999Z</time></trkpt><trkpt lat="42.21147991956675" lon="12.831058810172138"><ele>392.75</ele><time>2026-04-30T18:19:27.998Z</time></trkpt><trkpt lat="42.21146976149109" lon="12.831251418143918"><ele>393.5</ele><time>2026-04-30T18:19:28.998Z</time></trkpt><trkpt lat="42.211478465136544" lon="12.831450125820027"><ele>394.25</ele><time>2026-04-30T18:19:29.998Z</time></trkpt><trkpt lat="42.211471624273045" lon="12.831650975373638"><ele>395.0</ele><time>2026-04-30T18:19:30.998Z</time></trkpt><trkpt lat="42.211447380811116" lon="12.831840710826738"><ele>393.25</ele><time>2026-04-30T18:19:31.998Z</time></trkpt><trkpt lat="42.21142153715597" lon="12.832013587100455"><ele>391.5</ele><time>2026-04-30T18:19:32.998Z</time></trkpt><trkpt lat="42.21137884277404" lon="12.832186981665734"><ele>389.75</ele><time>2026-04-30T18:19:33.998Z</time></trkpt><trkpt lat="42.21132432571467" lon="12.832367545490863"><ele>388.0</ele><time>2026-04-30T18:19:34.998Z</time></trkpt><trkpt lat="42.21126902782528" lon="12.83255086115747"><ele>387.5</ele><time>2026-04-30T18:19:35.998Z</time></trkpt><trkpt lat="42.21121297748893" lon="12.832733122518647"><ele>387.0</ele><time>2026-04-30T18:19:36.998Z</time></trkpt><trkpt lat="42.21114828582612" lon="12.83290461570955"><ele>386.5</ele><time>2026-04-30T18:19:37.998Z</time></trkpt><trkpt lat="42.21106654813962" lon="12.833074149665626"><ele>386.0</ele><time>2026-04-30T18:19:39Z</time></trkpt><trkpt lat="42.21097764845729" lon="12.83324482315034"><ele>386.0</ele><time>2026-04-30T18:19:40Z</time></trkpt><trkpt lat="42.210889824711124" lon="12.833423648493845"><ele>386.0</ele><time>2026-04-30T18:19:41Z</time></trkpt><trkpt lat="42.21082519971383" lon="12.833596588804626"><ele>386.0</ele><time>2026-04-30T18:19:42Z</time></trkpt><trkpt lat="42.210796845089575" lon="12.833780356722226"><ele>386.0</ele><time>2026-04-30T18:19:43Z</time></trkpt><trkpt lat="42.210787209632784" lon="12.83394934575458"><ele>383.5</ele><time>2026-04-30T18:19:44Z</time></trkpt><trkpt lat="42.210786094656356" lon="12.834114929882956"><ele>381.0</ele><time>2026-04-30T18:19:45Z</time></trkpt><trkpt lat="42.21078056299527" lon="12.834281691598095"><ele>378.5</ele><time>2026-04-30T18:19:46Z</time></trkpt><trkpt lat="42.21077472030939" lon="12.834457829681492"><ele>376.0</ele><time>2026-04-30T18:19:47Z</time></trkpt><trkpt lat="42.21077567693928" lon="12.834629210260156"><ele>373.4</ele><time>2026-04-30T18:19:48Z</time></trkpt><trkpt lat="42.21076763403605" lon="12.834788467859488"><ele>370.8</ele><time>2026-04-30T18:19:49Z</time></trkpt><trkpt lat="42.210771127266156" lon="12.834937767261675"><ele>368.2</ele><time>2026-04-30T18:19:50Z</time></trkpt><trkpt lat="42.21079773541962" lon="12.835079428476934"><ele>365.59999999999997</ele><time>2026-04-30T18:19:51Z</time></trkpt><trkpt lat="42.21084074671865" lon="12.835214256572003"><ele>363.0</ele><time>2026-04-30T18:19:52Z</time></trkpt><trkpt lat="42.210910886659164" lon="12.835332070914705"><ele>363.0</ele><time>2026-04-30T18:19:53Z</time></trkpt><trkpt lat="42.2110018211518" lon="12.835434956379961"><ele>363.0</ele><time>2026-04-30T18:19:54Z</time></trkpt><trkpt lat="42.2111085422625" lon="12.835518942251369"><ele>363.0</ele><time>2026-04-30T18:19:55Z</time></trkpt><trkpt lat="42.21122752019764" lon="12.835573590811054"><ele>363.0</ele><time>2026-04-30T18:19:56Z</time></trkpt><trkpt lat="42.21134628391536" lon="12.835595464633032"><ele>363.0</ele><time>2026-04-30T18:19:57Z</time></trkpt><trkpt lat="42.211473831537894" lon="12.83559161695315"><ele>363.0</ele><time>2026-04-30T18:19:58Z</time></trkpt><trkpt lat="42.21160533231151" lon="12.83557429016229"><ele>363.0</ele><time>2026-04-30T18:19:59Z</time></trkpt><trkpt lat="42.21174426261073" lon="12.8355432402556"><ele>363.0</ele><time>2026-04-30T18:20:00Z</time></trkpt><trkpt lat="42.211881087154694" lon="12.835486908791427"><ele>362.25</ele><time>2026-04-30T18:20:01Z</time></trkpt><trkpt lat="42.21200972184457" lon="12.835409939327432"><ele>361.5</ele><time>2026-04-30T18:20:02Z</time></trkpt><trkpt lat="42.21212709785093" lon="12.835320565884578"><ele>360.75</ele><time>2026-04-30T18:20:03Z</time></trkpt><trkpt lat="42.212240076681894" lon="12.835238410042338"><ele>360.0</ele><time>2026-04-30T18:20:04Z</time></trkpt><trkpt lat="42.21234670146254" lon="12.835157862327403"><ele>356.6</ele><time>2026-04-30T18:20:05Z</time></trkpt><trkpt lat="42.21244537829331" lon="12.835068559180609"><ele>353.2</ele><time>2026-04-30T18:20:06Z</time></trkpt><trkpt lat="42.21254898968876" lon="12.834981317929941"><ele>349.79999999999995</ele><time>2026-04-30T18:20:07Z</time></trkpt><trkpt lat="42.21263579714079" lon="12.834891821256859"><ele>346.4</ele><time>2026-04-30T18:20:08Z</time></trkpt><trkpt lat="42.21270083814896" lon="12.83481899821203"><ele>343.0</ele><time>2026-04-30T18:20:09Z</time></trkpt><trkpt lat="42.21276807723114" lon="12.834775668061942"><ele>343.0</ele><time>2026-04-30T18:20:10Z</time></trkpt><trkpt lat="42.21283637754307" lon="12.834773900267903"><ele>343.0</ele><time>2026-04-30T18:20:11Z</time></trkpt><trkpt lat="42.21288175602972" lon="12.83483640245722"><ele>343.0</ele><time>2026-04-30T18:20:12Z</time></trkpt><trkpt lat="42.212893880930245" lon="12.834974577044788"><ele>343.0</ele><time>2026-04-30T18:20:14Z</time></trkpt><trkpt lat="42.21288828569154" lon="12.835060675265385"><ele>343.0</ele><time>2026-04-30T18:20:15Z</time></trkpt><trkpt lat="42.21287908071536" lon="12.835174670965742"><ele>343.0</ele><time>2026-04-30T18:20:16Z</time></trkpt><trkpt lat="42.21286905014389" lon="12.83532699559032"><ele>347.25</ele><time>2026-04-30T18:20:17Z</time></trkpt><trkpt lat="42.21286709433483" lon="12.835472838940502"><ele>351.5</ele><time>2026-04-30T18:20:18Z</time></trkpt><trkpt lat="42.21287870330811" lon="12.835628809335525"><ele>355.75</ele><time>2026-04-30T18:20:19Z</time></trkpt><trkpt lat="42.21289567242837" lon="12.835787270302475"><ele>360.0</ele><time>2026-04-30T18:20:20Z</time></trkpt><trkpt lat="42.21291509520748" lon="12.835936494203128"><ele>360.8</ele><time>2026-04-30T18:20:21Z</time></trkpt><trkpt lat="42.212950322570485" lon="12.836084874745298"><ele>361.6</ele><time>2026-04-30T18:20:22Z</time></trkpt><trkpt lat="42.212959832500985" lon="12.836236276609611"><ele>362.4</ele><time>2026-04-30T18:20:23Z</time></trkpt><trkpt lat="42.21296922436779" lon="12.836381035246406"><ele>363.2</ele><time>2026-04-30T18:20:24Z</time></trkpt><trkpt lat="42.21299007776531" lon="12.83651060574758"><ele>364.0</ele><time>2026-04-30T18:20:25Z</time></trkpt><trkpt lat="42.21302594450515" lon="12.836615036035818"><ele>364.0</ele><time>2026-04-30T18:20:26Z</time></trkpt><trkpt lat="42.213081037705805" lon="12.836680195985162"><ele>364.0</ele><time>2026-04-30T18:20:27Z</time></trkpt><trkpt lat="42.21315047594989" lon="12.836690176971524"><ele>364.0</ele><time>2026-04-30T18:20:28Z</time></trkpt><trkpt lat="42.21321879742776" lon="12.836659333818869"><ele>364.0</ele><time>2026-04-30T18:20:29Z</time></trkpt><trkpt lat="42.21327281899025" lon="12.836578250980518"><ele>364.0</ele><time>2026-04-30T18:20:30Z</time></trkpt><trkpt lat="42.21332889050138" lon="12.83647502627628"><ele>364.0</ele><time>2026-04-30T18:20:31Z</time></trkpt><trkpt lat="42.21336367685447" lon="12.836292610973985"><ele>356.25</ele><time>2026-04-30T18:20:32Z</time></trkpt><trkpt lat="42.21338591815831" lon="12.836115478382252"><ele>348.5</ele><time>2026-04-30T18:20:33Z</time></trkpt><trkpt lat="42.21339214502433" lon="12.835930870644173"><ele>340.75</ele><time>2026-04-30T18:20:34Z</time></trkpt><trkpt lat="42.21342634730513" lon="12.83576644271058"><ele>333.0</ele><time>2026-04-30T18:20:35Z</time></trkpt><trkpt lat="42.213442437333725" lon="12.835606717006769"><ele>333.0</ele><time>2026-04-30T18:20:36Z</time></trkpt><trkpt lat="42.21345267341023" lon="12.83545123120884"><ele>333.0</ele><time>2026-04-30T18:20:37Z</time></trkpt><trkpt lat="42.213452666401345" lon="12.835342910588887"><ele>333.0</ele><time>2026-04-30T18:20:38Z</time></trkpt><trkpt lat="42.21344603258996" lon="12.835229163307"><ele>333.0</ele><time>2026-04-30T18:20:39Z</time></trkpt><trkpt lat="42.213417611149794" lon="12.835125407270803"><ele>333.0</ele><time>2026-04-30T18:20:40Z</time></trkpt><trkpt lat="42.21338956714904" lon="12.83501767253142"><ele>333.0</ele><time>2026-04-30T18:20:40.999Z</time></trkpt><trkpt lat="42.21336338869176" lon="12.83484197235034"><ele>332.79999999999995</ele><time>2026-04-30T18:20:42.999Z</time></trkpt><trkpt lat="42.21341018257883" lon="12.834717652209939"><ele>332.6</ele><time>2026-04-30T18:20:44.999Z</time></trkpt><trkpt lat="42.21352538315477" lon="12.834719417698468"><ele>332.4</ele><time>2026-04-30T18:20:46.999Z</time></trkpt><trkpt lat="42.21353473560891" lon="12.834806053816378"><ele>332.20000000000005</ele><time>2026-04-30T18:20:47.999Z</time></trkpt><trkpt lat="42.21357063632128" lon="12.83498540207131"><ele>332.0</ele><time>2026-04-30T18:20:49.999Z</time></trkpt><trkpt lat="42.21359383905113" lon="12.835103542232712"><ele>332.20000000000005</ele><time>2026-04-30T18:20:50.999Z</time></trkpt><trkpt lat="42.21362106601501" lon="12.835233377327464"><ele>332.4</ele><time>2026-04-30T18:20:51.999Z</time></trkpt><trkpt lat="42.213621503770916" lon="12.835385993268856"><ele>332.6</ele><time>2026-04-30T18:20:52.999Z</time></trkpt><trkpt lat="42.21362024579343" lon="12.835538258975111"><ele>332.79999999999995</ele><time>2026-04-30T18:20:53.999Z</time></trkpt><trkpt lat="42.21361631727409" lon="12.835688790407165"><ele>333.0</ele><time>2026-04-30T18:20:54.999Z</time></trkpt><trkpt lat="42.213608562300884" lon="12.835874248457324"><ele>332.5</ele><time>2026-04-30T18:20:55.999Z</time></trkpt><trkpt lat="42.21360190956952" lon="12.836057992124415"><ele>332.0</ele><time>2026-04-30T18:20:56.999Z</time></trkpt><trkpt lat="42.21359594879468" lon="12.83625272885978"><ele>331.5</ele><time>2026-04-30T18:20:57.999Z</time></trkpt><trkpt lat="42.21359277719898" lon="12.836411815882967"><ele>331.0</ele><time>2026-04-30T18:20:58.999Z</time></trkpt><trkpt lat="42.21359008343453" lon="12.836548973461705"><ele>331.0</ele><time>2026-04-30T18:20:59.999Z</time></trkpt><trkpt lat="42.21359121017368" lon="12.83668180268164"><ele>331.0</ele><time>2026-04-30T18:21:00.999Z</time></trkpt><trkpt lat="42.21360942132933" lon="12.836804562014718"><ele>331.0</ele><time>2026-04-30T18:21:01.999Z</time></trkpt><trkpt lat="42.21367988329063" lon="12.836913429545065"><ele>331.0</ele><time>2026-04-30T18:21:02.999Z</time></trkpt><trkpt lat="42.21375802347552" lon="12.836972682230483"><ele>331.0</ele><time>2026-04-30T18:21:03.999Z</time></trkpt><trkpt lat="42.21384192758325" lon="12.83710420791833"><ele>330.0</ele><time>2026-04-30T18:21:05.999Z</time></trkpt><trkpt lat="42.213911164391796" lon="12.837198175975471"><ele>329.0</ele><time>2026-04-30T18:21:07.999Z</time></trkpt><trkpt lat="42.21401124194292" lon="12.83737234514236"><ele>328.0</ele><time>2026-04-30T18:21:10.999Z</time></trkpt><trkpt lat="42.214007592988445" lon="12.837481868187954"><ele>327.0</ele><time>2026-04-30T18:21:11.999Z</time></trkpt><trkpt lat="42.21400352638954" lon="12.837584537717618"><ele>326.0</ele><time>2026-04-30T18:21:12.999Z</time></trkpt><trkpt lat="42.21399629649572" lon="12.83771135242767"><ele>325.0</ele><time>2026-04-30T18:21:13.999Z</time></trkpt><trkpt lat="42.21398812431052" lon="12.837848156022197"><ele>324.0</ele><time>2026-04-30T18:21:14.999Z</time></trkpt><trkpt lat="42.213981878795984" lon="12.837997262774781"><ele>323.0</ele><time>2026-04-30T18:21:15.999Z</time></trkpt><trkpt lat="42.21396926055609" lon="12.838159349139117"><ele>322.0</ele><time>2026-04-30T18:21:16.999Z</time></trkpt><trkpt lat="42.213953034520806" lon="12.838315893621063"><ele>321.75</ele><time>2026-04-30T18:21:17.999Z</time></trkpt><trkpt lat="42.213919580227994" lon="12.838478063869307"><ele>321.5</ele><time>2026-04-30T18:21:18.999Z</time></trkpt><trkpt lat="42.21386979883269" lon="12.838644538184305"><ele>321.25</ele><time>2026-04-30T18:21:19.999Z</time></trkpt><trkpt lat="42.21380870004" lon="12.838809379082475"><ele>321.0</ele><time>2026-04-30T18:21:20.999Z</time></trkpt><trkpt lat="42.2137446406989" lon="12.838978041603172"><ele>321.0</ele><time>2026-04-30T18:21:21.999Z</time></trkpt><trkpt lat="42.21366817706276" lon="12.839139450453409"><ele>321.0</ele><time>2026-04-30T18:21:22.999Z</time></trkpt><trkpt lat="42.21360635840919" lon="12.839321766472807"><ele>321.0</ele><time>2026-04-30T18:21:23.999Z</time></trkpt><trkpt lat="42.21356764105221" lon="12.83952341115106"><ele>321.0</ele><time>2026-04-30T18:21:24.999Z</time></trkpt><trkpt lat="42.213535817260166" lon="12.839728776799703"><ele>322.75</ele><time>2026-04-30T18:21:25.999Z</time></trkpt><trkpt lat="42.213511244004955" lon="12.839928710822615"><ele>324.5</ele><time>2026-04-30T18:21:26.999Z</time></trkpt><trkpt lat="42.21347181805034" lon="12.840114930118263"><ele>326.25</ele><time>2026-04-30T18:21:27.999Z</time></trkpt><trkpt lat="42.21340644401087" lon="12.840266501066603"><ele>328.0</ele><time>2026-04-30T18:21:28.999Z</time></trkpt><trkpt lat="42.21332011940255" lon="12.840393955216165"><ele>328.0</ele><time>2026-04-30T18:21:29.999Z</time></trkpt><trkpt lat="42.21321683160045" lon="12.840511043434942"><ele>328.0</ele><time>2026-04-30T18:21:30.999Z</time></trkpt><trkpt lat="42.21311757572968" lon="12.840644960285461"><ele>328.0</ele><time>2026-04-30T18:21:31.999Z</time></trkpt><trkpt lat="42.21302201197649" lon="12.840786340107918"><ele>328.0</ele><time>2026-04-30T18:21:32.999Z</time></trkpt><trkpt lat="42.212928852971196" lon="12.840907394851303"><ele>328.5</ele><time>2026-04-30T18:21:33.999Z</time></trkpt><trkpt lat="42.212904843539064" lon="12.841079183776754"><ele>329.0</ele><time>2026-04-30T18:21:34.999Z</time></trkpt><trkpt lat="42.21289784350052" lon="12.841254923666044"><ele>329.5</ele><time>2026-04-30T18:21:35.999Z</time></trkpt><trkpt lat="42.212903795806376" lon="12.841427094880778"><ele>330.0</ele><time>2026-04-30T18:21:36.998Z</time></trkpt><trkpt lat="42.212907371077044" lon="12.841617115249646"><ele>330.3333333333333</ele><time>2026-04-30T18:21:37.998Z</time></trkpt><trkpt lat="42.212921816884965" lon="12.841817888425817"><ele>330.66666666666663</ele><time>2026-04-30T18:21:38.998Z</time></trkpt><trkpt lat="42.212915905318575" lon="12.842028685278619"><ele>331.0</ele><time>2026-04-30T18:21:39.998Z</time></trkpt><trkpt lat="42.21289685195287" lon="12.842240512822944"><ele>331.0</ele><time>2026-04-30T18:21:40.998Z</time></trkpt><trkpt lat="42.21287890927419" lon="12.842465302075208"><ele>331.0</ele><time>2026-04-30T18:21:41.998Z</time></trkpt><trkpt lat="42.21285713134712" lon="12.842690261743192"><ele>331.0</ele><time>2026-04-30T18:21:42.998Z</time></trkpt><trkpt lat="42.21284921311298" lon="12.842923557526815"><ele>331.0</ele><time>2026-04-30T18:21:43.998Z</time></trkpt><trkpt lat="42.21282661379431" lon="12.843154583424802"><ele>331.0</ele><time>2026-04-30T18:21:45Z</time></trkpt><trkpt lat="42.21281433964193" lon="12.843377210355348"><ele>331.0</ele><time>2026-04-30T18:21:46Z</time></trkpt><trkpt lat="42.21280133594128" lon="12.843586659344844"><ele>332.25</ele><time>2026-04-30T18:21:47Z</time></trkpt><trkpt lat="42.212768613269475" lon="12.84377748351371"><ele>333.5</ele><time>2026-04-30T18:21:48Z</time></trkpt><trkpt lat="42.212715489942646" lon="12.843950235314605"><ele>334.75</ele><time>2026-04-30T18:21:49Z</time></trkpt><trkpt lat="42.21259694580542" lon="12.844059219182732"><ele>336.0</ele><time>2026-04-30T18:21:50Z</time></trkpt><trkpt lat="42.21250343735483" lon="12.844186143748209"><ele>335.75</ele><time>2026-04-30T18:21:51Z</time></trkpt><trkpt lat="42.21241014159854" lon="12.844342426702125"><ele>335.5</ele><time>2026-04-30T18:21:52Z</time></trkpt><trkpt lat="42.21233317772948" lon="12.844483812180423"><ele>335.25</ele><time>2026-04-30T18:21:53Z</time></trkpt><trkpt lat="42.21224773174365" lon="12.844652570902642"><ele>335.0</ele><time>2026-04-30T18:21:54Z</time></trkpt><trkpt lat="42.21217504261134" lon="12.844816515565798"><ele>335.0</ele><time>2026-04-30T18:21:55Z</time></trkpt><trkpt lat="42.21212318293186" lon="12.844997792394242"><ele>335.0</ele><time>2026-04-30T18:21:56Z</time></trkpt><trkpt lat="42.212098297764705" lon="12.845176723626853"><ele>335.0</ele><time>2026-04-30T18:21:57Z</time></trkpt><trkpt lat="42.21208944275396" lon="12.84536360956851"><ele>335.0</ele><time>2026-04-30T18:21:58Z</time></trkpt><trkpt lat="42.21204624444189" lon="12.845552874587657"><ele>335.0</ele><time>2026-04-30T18:21:59Z</time></trkpt><trkpt lat="42.212019055349614" lon="12.845745188897373"><ele>335.0</ele><time>2026-04-30T18:22:00Z</time></trkpt><trkpt lat="42.211989995665384" lon="12.845939319916264"><ele>335.0</ele><time>2026-04-30T18:22:01Z</time></trkpt><trkpt lat="42.2119618830149" lon="12.84615187491363"><ele>335.0</ele><time>2026-04-30T18:22:02Z</time></trkpt><trkpt lat="42.21193550077396" lon="12.846360439421163"><ele>335.0</ele><time>2026-04-30T18:22:03Z</time></trkpt><trkpt lat="42.21190907882086" lon="12.846578590580913"><ele>335.0</ele><time>2026-04-30T18:22:04Z</time></trkpt><trkpt lat="42.211879533592175" lon="12.846798535027887"><ele>336.33333333333337</ele><time>2026-04-30T18:22:05Z</time></trkpt><trkpt lat="42.211858378198436" lon="12.84702526180278"><ele>337.6666666666667</ele><time>2026-04-30T18:22:06Z</time></trkpt><trkpt lat="42.21183312484563" lon="12.84724261721823"><ele>339.0</ele><time>2026-04-30T18:22:07Z</time></trkpt><trkpt lat="42.21181510804067" lon="12.84745510946341"><ele>340.3333333333333</ele><time>2026-04-30T18:22:08Z</time></trkpt><trkpt lat="42.211792369397166" lon="12.847671730009269"><ele>341.66666666666663</ele><time>2026-04-30T18:22:09Z</time></trkpt><trkpt lat="42.21176594889241" lon="12.847885591271016"><ele>343.0</ele><time>2026-04-30T18:22:10Z</time></trkpt><trkpt lat="42.211740196462415" lon="12.848100896597082"><ele>343.0</ele><time>2026-04-30T18:22:11Z</time></trkpt><trkpt lat="42.21171639331442" lon="12.848313960703722"><ele>343.0</ele><time>2026-04-30T18:22:12Z</time></trkpt><trkpt lat="42.211698486136875" lon="12.848528781834181"><ele>343.0</ele><time>2026-04-30T18:22:13Z</time></trkpt><trkpt lat="42.21168369094939" lon="12.848743674916786"><ele>345.0</ele><time>2026-04-30T18:22:14Z</time></trkpt><trkpt lat="42.211676439296454" lon="12.848960841304171"><ele>347.0</ele><time>2026-04-30T18:22:15Z</time></trkpt><trkpt lat="42.21167673624847" lon="12.849188879552736"><ele>349.0</ele><time>2026-04-30T18:22:16Z</time></trkpt><trkpt lat="42.211692205005576" lon="12.849423638858529"><ele>349.0</ele><time>2026-04-30T18:22:17Z</time></trkpt><trkpt lat="42.21174540844675" lon="12.849659124691344"><ele>349.0</ele><time>2026-04-30T18:22:18Z</time></trkpt><trkpt lat="42.211781757859946" lon="12.849880318875348"><ele>349.0</ele><time>2026-04-30T18:22:19Z</time></trkpt><trkpt lat="42.21181835881498" lon="12.850097764380276"><ele>349.3333333333333</ele><time>2026-04-30T18:22:20Z</time></trkpt><trkpt lat="42.21184570086439" lon="12.850323619428204"><ele>349.6666666666667</ele><time>2026-04-30T18:22:21Z</time></trkpt><trkpt lat="42.21185744953481" lon="12.850545026674281"><ele>350.0</ele><time>2026-04-30T18:22:22Z</time></trkpt><trkpt lat="42.211844695777884" lon="12.850757200580578"><ele>353.33333333333337</ele><time>2026-04-30T18:22:23Z</time></trkpt><trkpt lat="42.21182154215329" lon="12.850966482382034"><ele>356.6666666666667</ele><time>2026-04-30T18:22:24Z</time></trkpt><trkpt lat="42.211782945364966" lon="12.851179924436673"><ele>360.0</ele><time>2026-04-30T18:22:25Z</time></trkpt><trkpt lat="42.21171903737332" lon="12.851381284692298"><ele>360.0</ele><time>2026-04-30T18:22:26Z</time></trkpt><trkpt lat="42.21165292367846" lon="12.851593605941906"><ele>360.0</ele><time>2026-04-30T18:22:27Z</time></trkpt><trkpt lat="42.211581504516936" lon="12.851790958799565"><ele>360.0</ele><time>2026-04-30T18:22:28Z</time></trkpt><trkpt lat="42.21150726598539" lon="12.851988546562028"><ele>357.0</ele><time>2026-04-30T18:22:29Z</time></trkpt><trkpt lat="42.21143244547008" lon="12.852161776037354"><ele>354.0</ele><time>2026-04-30T18:22:30Z</time></trkpt><trkpt lat="42.21138142610879" lon="12.852346177645744"><ele>351.0</ele><time>2026-04-30T18:22:31Z</time></trkpt><trkpt lat="42.21134804158065" lon="12.852534475394842"><ele>348.0</ele><time>2026-04-30T18:22:32Z</time></trkpt><trkpt lat="42.21135810099801" lon="12.852726858552176"><ele>348.0</ele><time>2026-04-30T18:22:33Z</time></trkpt><trkpt lat="42.211407081257775" lon="12.852896347071006"><ele>348.0</ele><time>2026-04-30T18:22:34Z</time></trkpt><trkpt lat="42.21148141477869" lon="12.853035345481526"><ele>348.0</ele><time>2026-04-30T18:22:35Z</time></trkpt><trkpt lat="42.21157920582738" lon="12.853151115600447"><ele>348.0</ele><time>2026-04-30T18:22:36Z</time></trkpt><trkpt lat="42.211685120936394" lon="12.853274562214484"><ele>351.0</ele><time>2026-04-30T18:22:37Z</time></trkpt><trkpt lat="42.21179057666494" lon="12.853405165214852"><ele>354.0</ele><time>2026-04-30T18:22:38Z</time></trkpt><trkpt lat="42.21189580311909" lon="12.853541569802493"><ele>357.0</ele><time>2026-04-30T18:22:39Z</time></trkpt><trkpt lat="42.21200480067534" lon="12.853666367816814"><ele>360.0</ele><time>2026-04-30T18:22:40Z</time></trkpt><trkpt lat="42.212106282532154" lon="12.853807712149331"><ele>360.3333333333333</ele><time>2026-04-30T18:22:41Z</time></trkpt><trkpt lat="42.212229940261714" lon="12.853951892162678"><ele>360.66666666666663</ele><time>2026-04-30T18:22:42Z</time></trkpt><trkpt lat="42.2123531768373" lon="12.854071270784491"><ele>361.0</ele><time>2026-04-30T18:22:43Z</time></trkpt><trkpt lat="42.21248845573481" lon="12.854172517348012"><ele>361.66666666666663</ele><time>2026-04-30T18:22:43.999Z</time></trkpt><trkpt lat="42.21263820885588" lon="12.85426711328169"><ele>362.3333333333333</ele><time>2026-04-30T18:22:44.999Z</time></trkpt><trkpt lat="42.21279417458719" lon="12.854361038260732"><ele>363.0</ele><time>2026-04-30T18:22:45.999Z</time></trkpt><trkpt lat="42.21295834427977" lon="12.854438827459827"><ele>363.0</ele><time>2026-04-30T18:22:46.999Z</time></trkpt><trkpt lat="42.21311269641742" lon="12.854519828842086"><ele>363.0</ele><time>2026-04-30T18:22:47.999Z</time></trkpt><trkpt lat="42.213257841876825" lon="12.854596640586607"><ele>363.0</ele><time>2026-04-30T18:22:48.999Z</time></trkpt><trkpt lat="42.21338441753682" lon="12.854663984961299"><ele>363.79999999999995</ele><time>2026-04-30T18:22:49.999Z</time></trkpt><trkpt lat="42.21348828088898" lon="12.854735462301589"><ele>364.6</ele><time>2026-04-30T18:22:50.999Z</time></trkpt><trkpt lat="42.21358129022333" lon="12.854823209323637"><ele>365.4</ele><time>2026-04-30T18:22:51.999Z</time></trkpt><trkpt lat="42.21364980953057" lon="12.854937088844931"><ele>366.20000000000005</ele><time>2026-04-30T18:22:52.999Z</time></trkpt><trkpt lat="42.21368076440415" lon="12.855060883925047"><ele>367.0</ele><time>2026-04-30T18:22:53.999Z</time></trkpt><trkpt lat="42.21368332275122" lon="12.855191422561857"><ele>370.20000000000005</ele><time>2026-04-30T18:22:54.999Z</time></trkpt><trkpt lat="42.21366239892577" lon="12.855303796997218"><ele>373.4</ele><time>2026-04-30T18:22:55.999Z</time></trkpt><trkpt lat="42.21361298290014" lon="12.85541288802859"><ele>376.6</ele><time>2026-04-30T18:22:56.999Z</time></trkpt><trkpt lat="42.21352404100722" lon="12.855473294378266"><ele>379.79999999999995</ele><time>2026-04-30T18:22:57.999Z</time></trkpt><trkpt lat="42.213418154044724" lon="12.855514502067784"><ele>383.0</ele><time>2026-04-30T18:22:58.999Z</time></trkpt><trkpt lat="42.213303608225225" lon="12.855558871209805"><ele>383.0</ele><time>2026-04-30T18:22:59.999Z</time></trkpt><trkpt lat="42.21318673060222" lon="12.855593200540023"><ele>383.0</ele><time>2026-04-30T18:23:00.999Z</time></trkpt><trkpt lat="42.21306511294824" lon="12.855631954958914"><ele>383.0</ele><time>2026-04-30T18:23:01.999Z</time></trkpt><trkpt lat="42.21294572582001" lon="12.85567269713679"><ele>383.0</ele><time>2026-04-30T18:23:02.999Z</time></trkpt><trkpt lat="42.21283527446012" lon="12.855742594790303"><ele>382.0</ele><time>2026-04-30T18:23:03.999Z</time></trkpt><trkpt lat="42.21273163853021" lon="12.855820888236508"><ele>381.0</ele><time>2026-04-30T18:23:04.999Z</time></trkpt><trkpt lat="42.21264842919258" lon="12.855939775951093"><ele>380.0</ele><time>2026-04-30T18:23:05.999Z</time></trkpt><trkpt lat="42.212599583491084" lon="12.856091216845707"><ele>379.0</ele><time>2026-04-30T18:23:06.999Z</time></trkpt><trkpt lat="42.21258002589588" lon="12.8562709734979"><ele>379.0</ele><time>2026-04-30T18:23:07.999Z</time></trkpt><trkpt lat="42.2125928430933" lon="12.856461652216277"><ele>379.0</ele><time>2026-04-30T18:23:08.999Z</time></trkpt><trkpt lat="42.21262851503478" lon="12.856675553742058"><ele>379.0</ele><time>2026-04-30T18:23:09.999Z</time></trkpt><trkpt lat="42.212654540046785" lon="12.85689402206601"><ele>380.66666666666663</ele><time>2026-04-30T18:23:10.999Z</time></trkpt><trkpt lat="42.212672945290976" lon="12.85710793988369"><ele>382.3333333333333</ele><time>2026-04-30T18:23:11.999Z</time></trkpt><trkpt lat="42.21269585450902" lon="12.857316999380497"><ele>384.0</ele><time>2026-04-30T18:23:12.999Z</time></trkpt><trkpt lat="42.21272360535945" lon="12.857536786530517"><ele>385.66666666666663</ele><time>2026-04-30T18:23:13.999Z</time></trkpt><trkpt lat="42.21275304237083" lon="12.857763193700979"><ele>387.3333333333333</ele><time>2026-04-30T18:23:14.999Z</time></trkpt><trkpt lat="42.21277868412603" lon="12.857995453426689"><ele>389.0</ele><time>2026-04-30T18:23:15.999Z</time></trkpt><trkpt lat="42.212803666196464" lon="12.858231203065895"><ele>390.0</ele><time>2026-04-30T18:23:16.999Z</time></trkpt><trkpt lat="42.21282786606964" lon="12.858472512307769"><ele>391.0</ele><time>2026-04-30T18:23:17.999Z</time></trkpt><trkpt lat="42.2128542606871" lon="12.858714748613918"><ele>392.0</ele><time>2026-04-30T18:23:18.999Z</time></trkpt><trkpt lat="42.212883152467384" lon="12.858965107902387"><ele>392.0</ele><time>2026-04-30T18:23:19.999Z</time></trkpt><trkpt lat="42.21291153683249" lon="12.859208209173591"><ele>392.0</ele><time>2026-04-30T18:23:20.999Z</time></trkpt><trkpt lat="42.2129385500419" lon="12.859444918931251"><ele>392.0</ele><time>2026-04-30T18:23:21.999Z</time></trkpt><trkpt lat="42.21294732316016" lon="12.859688187643272"><ele>392.66666666666663</ele><time>2026-04-30T18:23:22.999Z</time></trkpt><trkpt lat="42.212928207118175" lon="12.859932433429705"><ele>393.33333333333337</ele><time>2026-04-30T18:23:23.999Z</time></trkpt><trkpt lat="42.21289967961257" lon="12.86017884589132"><ele>394.0</ele><time>2026-04-30T18:23:24.999Z</time></trkpt><trkpt lat="42.21286582572985" lon="12.860419581426727"><ele>394.33333333333337</ele><time>2026-04-30T18:23:25.999Z</time></trkpt><trkpt lat="42.212835404858716" lon="12.860661977409984"><ele>394.66666666666663</ele><time>2026-04-30T18:23:26.999Z</time></trkpt><trkpt lat="42.21279021958203" lon="12.860896407785335"><ele>395.0</ele><time>2026-04-30T18:23:27.999Z</time></trkpt><trkpt lat="42.21275566297804" lon="12.861142024832386"><ele>396.0</ele><time>2026-04-30T18:23:28.999Z</time></trkpt><trkpt lat="42.21273680302946" lon="12.861395014567266"><ele>397.0</ele><time>2026-04-30T18:23:29.999Z</time></trkpt><trkpt lat="42.212699121383444" lon="12.8616438611127"><ele>398.0</ele><time>2026-04-30T18:23:30.999Z</time></trkpt><trkpt lat="42.21266566093821" lon="12.861894178074786"><ele>399.3333333333333</ele><time>2026-04-30T18:23:31.999Z</time></trkpt><trkpt lat="42.2126345588277" lon="12.862141619773595"><ele>400.66666666666663</ele><time>2026-04-30T18:23:32.999Z</time></trkpt><trkpt lat="42.21260300888912" lon="12.862387819058446"><ele>402.0</ele><time>2026-04-30T18:23:33.999Z</time></trkpt><trkpt lat="42.21254655853267" lon="12.862623326015337"><ele>404.33333333333337</ele><time>2026-04-30T18:23:34.999Z</time></trkpt><trkpt lat="42.212493571887286" lon="12.862860576443994"><ele>406.6666666666667</ele><time>2026-04-30T18:23:35.999Z</time></trkpt><trkpt lat="42.21243619151108" lon="12.86309587632689"><ele>409.0</ele><time>2026-04-30T18:23:36.999Z</time></trkpt><trkpt lat="42.21237929164669" lon="12.863330383997177"><ele>409.6666666666667</ele><time>2026-04-30T18:23:37.999Z</time></trkpt><trkpt lat="42.212334813808695" lon="12.863575104008484"><ele>410.33333333333337</ele><time>2026-04-30T18:23:38.999Z</time></trkpt><trkpt lat="42.21228063768198" lon="12.863815013034237"><ele>411.0</ele><time>2026-04-30T18:23:39.999Z</time></trkpt><trkpt lat="42.21220821082052" lon="12.864047810022333"><ele>411.66666666666663</ele><time>2026-04-30T18:23:40.998Z</time></trkpt><trkpt lat="42.21215122008463" lon="12.864284750178035"><ele>412.3333333333333</ele><time>2026-04-30T18:23:41.998Z</time></trkpt><trkpt lat="42.21209462481674" lon="12.86452398413828"><ele>413.0</ele><time>2026-04-30T18:23:42.998Z</time></trkpt><trkpt lat="42.21203880144129" lon="12.864762125103336"><ele>413.0</ele><time>2026-04-30T18:23:43.998Z</time></trkpt><trkpt lat="42.211983550276415" lon="12.864997983267516"><ele>413.0</ele><time>2026-04-30T18:23:44.998Z</time></trkpt><trkpt lat="42.21192888572201" lon="12.86523375542498"><ele>413.0</ele><time>2026-04-30T18:23:45.998Z</time></trkpt><trkpt lat="42.21187462175536" lon="12.865467799829737"><ele>415.0</ele><time>2026-04-30T18:23:46.998Z</time></trkpt><trkpt lat="42.2118199174476" lon="12.865700766221616"><ele>417.0</ele><time>2026-04-30T18:23:47.998Z</time></trkpt><trkpt lat="42.21176193157705" lon="12.865929630964079"><ele>419.0</ele><time>2026-04-30T18:23:48.998Z</time></trkpt><trkpt lat="42.21169601442171" lon="12.866151169492259"><ele>421.0</ele><time>2026-04-30T18:23:49.998Z</time></trkpt><trkpt lat="42.21161159112884" lon="12.86636804186588"><ele>423.0</ele><time>2026-04-30T18:23:51Z</time></trkpt><trkpt lat="42.21152035907297" lon="12.866584064578465"><ele>425.0</ele><time>2026-04-30T18:23:52Z</time></trkpt><trkpt lat="42.21142839309043" lon="12.866796660504217"><ele>425.0</ele><time>2026-04-30T18:23:53Z</time></trkpt><trkpt lat="42.211336240576415" lon="12.867012132186478"><ele>425.0</ele><time>2026-04-30T18:23:54Z</time></trkpt><trkpt lat="42.21124566160009" lon="12.867230880208414"><ele>425.0</ele><time>2026-04-30T18:23:55Z</time></trkpt><trkpt lat="42.21115884299006" lon="12.86743959182845"><ele>427.66666666666663</ele><time>2026-04-30T18:23:56Z</time></trkpt><trkpt lat="42.21106589098388" lon="12.867645325592859"><ele>430.33333333333337</ele><time>2026-04-30T18:23:57Z</time></trkpt><trkpt lat="42.21095789577461" lon="12.867834873895562"><ele>433.0</ele><time>2026-04-30T18:23:58Z</time></trkpt><trkpt lat="42.21083771336532" lon="12.868017915085343"><ele>433.0</ele><time>2026-04-30T18:23:59Z</time></trkpt><trkpt lat="42.210713154102166" lon="12.868204967243589"><ele>433.0</ele><time>2026-04-30T18:24:00Z</time></trkpt><trkpt lat="42.21058535235039" lon="12.868396888690146"><ele>433.0</ele><time>2026-04-30T18:24:01Z</time></trkpt><trkpt lat="42.2104490239701" lon="12.868601614626469"><ele>432.6666666666667</ele><time>2026-04-30T18:24:02Z</time></trkpt><trkpt lat="42.21030456687771" lon="12.868818547592427"><ele>432.33333333333337</ele><time>2026-04-30T18:24:03Z</time></trkpt><trkpt lat="42.21015571388924" lon="12.869042081880853"><ele>432.0</ele><time>2026-04-30T18:24:04Z</time></trkpt><trkpt lat="42.21000120846192" lon="12.869275427341538"><ele>435.5</ele><time>2026-04-30T18:24:05Z</time></trkpt><trkpt lat="42.20984138324283" lon="12.869520480942036"><ele>439.0</ele><time>2026-04-30T18:24:06Z</time></trkpt><trkpt lat="42.20967998619386" lon="12.86976794455363"><ele>439.0</ele><time>2026-04-30T18:24:07Z</time></trkpt><trkpt lat="42.20952087618763" lon="12.870010318599956"><ele>439.0</ele><time>2026-04-30T18:24:08Z</time></trkpt><trkpt lat="42.209351751459195" lon="12.870265707876895"><ele>442.0</ele><time>2026-04-30T18:24:09Z</time></trkpt><trkpt lat="42.209213370774286" lon="12.870572198847238"><ele>445.0</ele><time>2026-04-30T18:24:10Z</time></trkpt><trkpt lat="42.209036183605015" lon="12.870819338665143"><ele>447.0</ele><time>2026-04-30T18:24:11Z</time></trkpt><trkpt lat="42.20887000855719" lon="12.87105650747792"><ele>449.0</ele><time>2026-04-30T18:24:12Z</time></trkpt><trkpt lat="42.20871555377266" lon="12.871289814189277"><ele>449.0</ele><time>2026-04-30T18:24:13Z</time></trkpt><trkpt lat="42.2085463571999" lon="12.871486728060907"><ele>449.0</ele><time>2026-04-30T18:24:14Z</time></trkpt><trkpt lat="42.208404424693924" lon="12.871694655696"><ele>449.0</ele><time>2026-04-30T18:24:15Z</time></trkpt><trkpt lat="42.20826804419203" lon="12.871898678753189"><ele>448.66666666666663</ele><time>2026-04-30T18:24:16Z</time></trkpt><trkpt lat="42.20813799992254" lon="12.872099526540563"><ele>448.33333333333337</ele><time>2026-04-30T18:24:17Z</time></trkpt><trkpt lat="42.208011851973346" lon="12.872293906333413"><ele>448.0</ele><time>2026-04-30T18:24:18Z</time></trkpt><trkpt lat="42.20788748493184" lon="12.872483826778042"><ele>450.6666666666667</ele><time>2026-04-30T18:24:19Z</time></trkpt><trkpt lat="42.20778501285874" lon="12.872695432016425"><ele>453.33333333333337</ele><time>2026-04-30T18:24:20Z</time></trkpt><trkpt lat="42.20770653646032" lon="12.872921227868602"><ele>456.0</ele><time>2026-04-30T18:24:21Z</time></trkpt><trkpt lat="42.20765475560002" lon="12.873139497333236"><ele>456.0</ele><time>2026-04-30T18:24:22Z</time></trkpt><trkpt lat="42.20761340105427" lon="12.87333108370297"><ele>456.0</ele><time>2026-04-30T18:24:23Z</time></trkpt><trkpt lat="42.20757729855738" lon="12.873499238340232"><ele>456.0</ele><time>2026-04-30T18:24:24Z</time></trkpt><trkpt lat="42.20753965999637" lon="12.873652327877885"><ele>456.0</ele><time>2026-04-30T18:24:25Z</time></trkpt><trkpt lat="42.20749069876687" lon="12.873771043318532"><ele>458.75</ele><time>2026-04-30T18:24:26Z</time></trkpt><trkpt lat="42.20742884817316" lon="12.873863894756763"><ele>461.5</ele><time>2026-04-30T18:24:27Z</time></trkpt><trkpt lat="42.20733526676254" lon="12.873887883732682"><ele>464.25</ele><time>2026-04-30T18:24:28Z</time></trkpt><trkpt lat="42.20712838480844" lon="12.873838375674703"><ele>467.0</ele><time>2026-04-30T18:24:30Z</time></trkpt><trkpt lat="42.20702183990544" lon="12.873804615787002"><ele>467.25</ele><time>2026-04-30T18:24:31Z</time></trkpt><trkpt lat="42.20691501470678" lon="12.873739125272781"><ele>467.5</ele><time>2026-04-30T18:24:32Z</time></trkpt><trkpt lat="42.20680427513134" lon="12.87360510955606"><ele>467.75</ele><time>2026-04-30T18:24:33Z</time></trkpt><trkpt lat="42.20670313887657" lon="12.87347031197935"><ele>468.0</ele><time>2026-04-30T18:24:34Z</time></trkpt><trkpt lat="42.206597990428065" lon="12.873328599705784"><ele>476.0</ele><time>2026-04-30T18:24:35Z</time></trkpt><trkpt lat="42.206458094442766" lon="12.87320466679238"><ele>484.0</ele><time>2026-04-30T18:24:36Z</time></trkpt><trkpt lat="42.206298447190825" lon="12.87310304522411"><ele>492.0</ele><time>2026-04-30T18:24:37Z</time></trkpt><trkpt lat="42.20610935467353" lon="12.873026475451919"><ele>492.0</ele><time>2026-04-30T18:24:38Z</time></trkpt><trkpt lat="42.205927475548734" lon="12.872954289313178"><ele>492.0</ele><time>2026-04-30T18:24:39Z</time></trkpt><trkpt lat="42.2057686306644" lon="12.872872065171588"><ele>492.0</ele><time>2026-04-30T18:24:40Z</time></trkpt><trkpt lat="42.205642453974036" lon="12.872782285910509"><ele>489.0</ele><time>2026-04-30T18:24:41Z</time></trkpt><trkpt lat="42.205505556822594" lon="12.872716136800213"><ele>486.0</ele><time>2026-04-30T18:24:42Z</time></trkpt><trkpt lat="42.20536914308176" lon="12.872691932769577"><ele>483.0</ele><time>2026-04-30T18:24:43Z</time></trkpt><trkpt lat="42.20523891712403" lon="12.872720774202048"><ele>480.0</ele><time>2026-04-30T18:24:44Z</time></trkpt><trkpt lat="42.205112830845266" lon="12.872815319647927"><ele>480.0</ele><time>2026-04-30T18:24:45Z</time></trkpt><trkpt lat="42.205024979175114" lon="12.872962862795173"><ele>480.0</ele><time>2026-04-30T18:24:46Z</time></trkpt><trkpt lat="42.20496999161563" lon="12.873141432794517"><ele>480.0</ele><time>2026-04-30T18:24:47Z</time></trkpt><trkpt lat="42.20492186380252" lon="12.873337192514368"><ele>480.0</ele><time>2026-04-30T18:24:48Z</time></trkpt><trkpt lat="42.204894631071404" lon="12.873533254426109"><ele>481.25</ele><time>2026-04-30T18:24:49Z</time></trkpt><trkpt lat="42.20487386462699" lon="12.873724889109171"><ele>482.5</ele><time>2026-04-30T18:24:49.999Z</time></trkpt><trkpt lat="42.20483590160341" lon="12.87389172237793"><ele>483.75</ele><time>2026-04-30T18:24:50.999Z</time></trkpt><trkpt lat="42.20478109545178" lon="12.874048480140758"><ele>485.0</ele><time>2026-04-30T18:24:51.999Z</time></trkpt><trkpt lat="42.20469798307018" lon="12.87416786927651"><ele>485.0</ele><time>2026-04-30T18:24:52.999Z</time></trkpt><trkpt lat="42.2046117284461" lon="12.87423253727808"><ele>485.0</ele><time>2026-04-30T18:24:53.999Z</time></trkpt><trkpt lat="42.2045154515744" lon="12.874225047106219"><ele>485.0</ele><time>2026-04-30T18:24:54.999Z</time></trkpt><trkpt lat="42.20441777817307" lon="12.874168352726834"><ele>485.0</ele><time>2026-04-30T18:24:55.999Z</time></trkpt><trkpt lat="42.204343725751585" lon="12.874060497237028"><ele>485.0</ele><time>2026-04-30T18:24:56.999Z</time></trkpt><trkpt lat="42.20428155118556" lon="12.873935887982578"><ele>485.0</ele><time>2026-04-30T18:24:57.999Z</time></trkpt><trkpt lat="42.20418939777817" lon="12.873846623052744"><ele>485.0</ele><time>2026-04-30T18:24:58.999Z</time></trkpt><trkpt lat="42.204092794050396" lon="12.873824637848008"><ele>485.0</ele><time>2026-04-30T18:24:59.999Z</time></trkpt><trkpt lat="42.20400023310629" lon="12.873864460127438"><ele>485.0</ele><time>2026-04-30T18:25:00.999Z</time></trkpt><trkpt lat="42.20393103641191" lon="12.873949505920587"><ele>485.0</ele><time>2026-04-30T18:25:01.999Z</time></trkpt><trkpt lat="42.20386809678376" lon="12.874069750122585"><ele>486.75</ele><time>2026-04-30T18:25:02.999Z</time></trkpt><trkpt lat="42.2037889698656" lon="12.87418322561813"><ele>488.5</ele><time>2026-04-30T18:25:03.999Z</time></trkpt><trkpt lat="42.2036837186556" lon="12.874270191773585"><ele>490.25</ele><time>2026-04-30T18:25:04.999Z</time></trkpt><trkpt lat="42.203578772044445" lon="12.874372238599808"><ele>492.0</ele><time>2026-04-30T18:25:05.999Z</time></trkpt><trkpt lat="42.20348082474355" lon="12.874529371863916"><ele>492.0</ele><time>2026-04-30T18:25:06.999Z</time></trkpt><trkpt lat="42.20337389941705" lon="12.874677413173949"><ele>492.0</ele><time>2026-04-30T18:25:07.999Z</time></trkpt><trkpt lat="42.20326139603432" lon="12.874792810146802"><ele>492.0</ele><time>2026-04-30T18:25:08.999Z</time></trkpt><trkpt lat="42.20316561325445" lon="12.874891798596966"><ele>492.0</ele><time>2026-04-30T18:25:09.999Z</time></trkpt><trkpt lat="42.203083873309645" lon="12.875001424981713"><ele>487.25</ele><time>2026-04-30T18:25:10.999Z</time></trkpt><trkpt lat="42.203020394073185" lon="12.875136465225646"><ele>482.5</ele><time>2026-04-30T18:25:11.999Z</time></trkpt><trkpt lat="42.20296908406741" lon="12.875279448352323"><ele>477.75</ele><time>2026-04-30T18:25:12.999Z</time></trkpt><trkpt lat="42.20292913195325" lon="12.875433961789346"><ele>473.0</ele><time>2026-04-30T18:25:13.999Z</time></trkpt><trkpt lat="42.20290416005783" lon="12.875597430485977"><ele>473.0</ele><time>2026-04-30T18:25:14.999Z</time></trkpt><trkpt lat="42.20288377968481" lon="12.875756161348999"><ele>472.99999999999994</ele><time>2026-04-30T18:25:15.999Z</time></trkpt><trkpt lat="42.20286060379615" lon="12.875905683571615"><ele>472.99999999999994</ele><time>2026-04-30T18:25:16.999Z</time></trkpt><trkpt lat="42.20283633737146" lon="12.876055327645254"><ele>473.0</ele><time>2026-04-30T18:25:17.999Z</time></trkpt><trkpt lat="42.202811801676376" lon="12.876190035271524"><ele>473.0</ele><time>2026-04-30T18:25:18.999Z</time></trkpt><trkpt lat="42.20279367734703" lon="12.87630978844882"><ele>476.4</ele><time>2026-04-30T18:25:19.999Z</time></trkpt><trkpt lat="42.202785481089556" lon="12.876429614498829"><ele>479.79999999999995</ele><time>2026-04-30T18:25:20.999Z</time></trkpt><trkpt lat="42.202795772399384" lon="12.876557347901898"><ele>483.2</ele><time>2026-04-30T18:25:21.999Z</time></trkpt><trkpt lat="42.20281933873062" lon="12.876686654844113"><ele>486.6</ele><time>2026-04-30T18:25:22.999Z</time></trkpt><trkpt lat="42.20286268704253" lon="12.876797822583669"><ele>490.0</ele><time>2026-04-30T18:25:23.999Z</time></trkpt><trkpt lat="42.20291858094584" lon="12.876899382936568"><ele>491.8</ele><time>2026-04-30T18:25:24.999Z</time></trkpt><trkpt lat="42.20298963853384" lon="12.876991491386422"><ele>493.6</ele><time>2026-04-30T18:25:25.999Z</time></trkpt><trkpt lat="42.203063643085734" lon="12.87709065525885"><ele>495.4</ele><time>2026-04-30T18:25:26.999Z</time></trkpt><trkpt lat="42.20313609977843" lon="12.877186874013992"><ele>497.2</ele><time>2026-04-30T18:25:27.999Z</time></trkpt><trkpt lat="42.20320150219058" lon="12.87727751131837"><ele>499.0</ele><time>2026-04-30T18:25:28.999Z</time></trkpt><trkpt lat="42.20326853874533" lon="12.87736198050481"><ele>499.50000000000006</ele><time>2026-04-30T18:25:29.999Z</time></trkpt><trkpt lat="42.20332281435816" lon="12.877436174475742"><ele>500.0</ele><time>2026-04-30T18:25:30.999Z</time></trkpt><trkpt lat="42.203353817823135" lon="12.877518008110064"><ele>500.5</ele><time>2026-04-30T18:25:31.999Z</time></trkpt><trkpt lat="42.203304495826664" lon="12.877634860815053"><ele>501.0</ele><time>2026-04-30T18:25:32.999Z</time></trkpt><trkpt lat="42.20333530032796" lon="12.877735717616002"><ele>501.50000000000006</ele><time>2026-04-30T18:25:34.999Z</time></trkpt><trkpt lat="42.203283656503174" lon="12.877884285598865"><ele>502.0</ele><time>2026-04-30T18:25:37.999Z</time></trkpt><trkpt lat="42.20324745066074" lon="12.877958863947816"><ele>502.00000000000006</ele><time>2026-04-30T18:25:38.999Z</time></trkpt><trkpt lat="42.20319343126737" lon="12.878027712322353"><ele>502.0</ele><time>2026-04-30T18:25:39.999Z</time></trkpt><trkpt lat="42.203119329075584" lon="12.878068335298114"><ele>502.0</ele><time>2026-04-30T18:25:40.999Z</time></trkpt><trkpt lat="42.203044157465136" lon="12.878076850404762"><ele>502.0</ele><time>2026-04-30T18:25:41.999Z</time></trkpt><trkpt lat="42.20297883331178" lon="12.878087677209631"><ele>502.00000000000006</ele><time>2026-04-30T18:25:42.999Z</time></trkpt><trkpt lat="42.202901426085944" lon="12.87805696739513"><ele>502.0</ele><time>2026-04-30T18:25:43.999Z</time></trkpt><trkpt lat="42.20282574689369" lon="12.87800768947329"><ele>503.20000000000005</ele><time>2026-04-30T18:25:44.999Z</time></trkpt><trkpt lat="42.20274578981083" lon="12.877954962771659"><ele>504.40000000000003</ele><time>2026-04-30T18:25:45.999Z</time></trkpt><trkpt lat="42.202663973955396" lon="12.877899921448375"><ele>505.59999999999997</ele><time>2026-04-30T18:25:46.998Z</time></trkpt><trkpt lat="42.202581949317484" lon="12.877844739671218"><ele>506.79999999999995</ele><time>2026-04-30T18:25:47.998Z</time></trkpt><trkpt lat="42.202500680026105" lon="12.877789809487977"><ele>508.0</ele><time>2026-04-30T18:25:48.998Z</time></trkpt><trkpt lat="42.202424393651285" lon="12.877717047754528"><ele>508.0</ele><time>2026-04-30T18:25:49.998Z</time></trkpt><trkpt lat="42.20233777008943" lon="12.877661484891252"><ele>507.99999999999994</ele><time>2026-04-30T18:25:50.998Z</time></trkpt><trkpt lat="42.20225975797189" lon="12.87759027308252"><ele>507.99999999999994</ele><time>2026-04-30T18:25:51.998Z</time></trkpt><trkpt lat="42.202195676788826" lon="12.877516671715663"><ele>508.0</ele><time>2026-04-30T18:25:52.998Z</time></trkpt><trkpt lat="42.20214008572524" lon="12.877455925402094"><ele>508.0</ele><time>2026-04-30T18:25:53.998Z</time></trkpt><trkpt lat="42.2020447877872" lon="12.877366540978933"><ele>506.2</ele><time>2026-04-30T18:25:56Z</time></trkpt><trkpt lat="42.20197743989263" lon="12.877303888671452"><ele>504.4</ele><time>2026-04-30T18:25:58Z</time></trkpt><trkpt lat="42.20191115322685" lon="12.877277242089884"><ele>502.59999999999997</ele><time>2026-04-30T18:26:00Z</time></trkpt><trkpt lat="42.201799142436066" lon="12.87731024925273"><ele>500.79999999999995</ele><time>2026-04-30T18:26:02Z</time></trkpt><trkpt lat="42.201698946941306" lon="12.87741345762549"><ele>499.0</ele><time>2026-04-30T18:26:04Z</time></trkpt><trkpt lat="42.20166405327726" lon="12.877485432522684"><ele>499.00000000000006</ele><time>2026-04-30T18:26:05Z</time></trkpt><trkpt lat="42.201623812410865" lon="12.877552559941352"><ele>499.0</ele><time>2026-04-30T18:26:06Z</time></trkpt><trkpt lat="42.20159171412889" lon="12.877633288480919"><ele>499.0</ele><time>2026-04-30T18:26:07Z</time></trkpt><trkpt lat="42.201517629514555" lon="12.877773835771718"><ele>499.0</ele><time>2026-04-30T18:26:09Z</time></trkpt><trkpt lat="42.20148748451408" lon="12.877865109699146"><ele>499.00000000000006</ele><time>2026-04-30T18:26:10Z</time></trkpt><trkpt lat="42.20145714010505" lon="12.87794173036551"><ele>499.0</ele><time>2026-04-30T18:26:11Z</time></trkpt><trkpt lat="42.20140014903022" lon="12.878080849197492"><ele>495.0</ele><time>2026-04-30T18:26:13Z</time></trkpt><trkpt lat="42.20134122843738" lon="12.878212665858737"><ele>491.0</ele><time>2026-04-30T18:26:15Z</time></trkpt><trkpt lat="42.20132451504237" lon="12.878338784867355"><ele>487.0</ele><time>2026-04-30T18:26:17Z</time></trkpt><trkpt lat="42.20136154172949" lon="12.878435829883328"><ele>483.0</ele><time>2026-04-30T18:26:18Z</time></trkpt><trkpt lat="42.20140019435352" lon="12.87855059247392"><ele>479.0</ele><time>2026-04-30T18:26:19Z</time></trkpt><trkpt lat="42.20143936848462" lon="12.87866942086716"><ele>476.79999999999995</ele><time>2026-04-30T18:26:20Z</time></trkpt><trkpt lat="42.20148873335579" lon="12.878783907693071"><ele>474.59999999999997</ele><time>2026-04-30T18:26:21Z</time></trkpt><trkpt lat="42.201546753437185" lon="12.87889160680366"><ele>472.4</ele><time>2026-04-30T18:26:22Z</time></trkpt><trkpt lat="42.20159834218467" lon="12.878986330099561"><ele>470.2</ele><time>2026-04-30T18:26:23Z</time></trkpt><trkpt lat="42.201620864475444" lon="12.87908105954493"><ele>468.0</ele><time>2026-04-30T18:26:24Z</time></trkpt><trkpt lat="42.20166697423347" lon="12.879199029384498"><ele>476.2</ele><time>2026-04-30T18:26:26Z</time></trkpt><trkpt lat="42.20172414021789" lon="12.879291163359639"><ele>484.4</ele><time>2026-04-30T18:26:28Z</time></trkpt><trkpt lat="42.20173749163398" lon="12.879398787519186"><ele>492.59999999999997</ele><time>2026-04-30T18:26:29Z</time></trkpt><trkpt lat="42.2017007022577" lon="12.879516376633537"><ele>500.79999999999995</ele><time>2026-04-30T18:26:30Z</time></trkpt><trkpt lat="42.20170134628192" lon="12.879638590521473"><ele>509.0</ele><time>2026-04-30T18:26:31Z</time></trkpt><trkpt lat="42.20169947192695" lon="12.879779913644635"><ele>509.0</ele><time>2026-04-30T18:26:32Z</time></trkpt><trkpt lat="42.20169562653878" lon="12.879932928151966"><ele>509.0</ele><time>2026-04-30T18:26:33Z</time></trkpt><trkpt lat="42.201691834962865" lon="12.880083801381401"><ele>509.0</ele><time>2026-04-30T18:26:34Z</time></trkpt><trkpt lat="42.201687649338886" lon="12.880245074436923"><ele>509.0</ele><time>2026-04-30T18:26:35Z</time></trkpt><trkpt lat="42.201682176433366" lon="12.8804220741189"><ele>510.25</ele><time>2026-04-30T18:26:36Z</time></trkpt><trkpt lat="42.20167664752872" lon="12.880600885074827"><ele>511.5</ele><time>2026-04-30T18:26:37Z</time></trkpt><trkpt lat="42.20166970059424" lon="12.88078804140262"><ele>512.75</ele><time>2026-04-30T18:26:38Z</time></trkpt><trkpt lat="42.201695965011986" lon="12.880982772443815"><ele>514.0</ele><time>2026-04-30T18:26:39Z</time></trkpt><trkpt lat="42.201681621765346" lon="12.881165287071191"><ele>514.5</ele><time>2026-04-30T18:26:40Z</time></trkpt><trkpt lat="42.20166617850707" lon="12.881342932859862"><ele>515.0</ele><time>2026-04-30T18:26:41Z</time></trkpt><trkpt lat="42.20164731653414" lon="12.881527301909358"><ele>515.5</ele><time>2026-04-30T18:26:42Z</time></trkpt><trkpt lat="42.201584845648384" lon="12.881707652375889"><ele>516.0</ele><time>2026-04-30T18:26:43Z</time></trkpt><trkpt lat="42.20153009080905" lon="12.881875617229415"><ele>508.75</ele><time>2026-04-30T18:26:44Z</time></trkpt><trkpt lat="42.20147588977465" lon="12.882044757395798"><ele>501.5</ele><time>2026-04-30T18:26:45Z</time></trkpt><trkpt lat="42.201441084068726" lon="12.88221549556735"><ele>494.25</ele><time>2026-04-30T18:26:46Z</time></trkpt><trkpt lat="42.201407977881615" lon="12.882374291157404"><ele>487.0</ele><time>2026-04-30T18:26:47Z</time></trkpt><trkpt lat="42.20141133463634" lon="12.882537173092532"><ele>484.75</ele><time>2026-04-30T18:26:48Z</time></trkpt><trkpt lat="42.20145773825571" lon="12.88268760138946"><ele>482.5</ele><time>2026-04-30T18:26:49Z</time></trkpt><trkpt lat="42.20153769149695" lon="12.882820203629217"><ele>480.25</ele><time>2026-04-30T18:26:50Z</time></trkpt><trkpt lat="42.20162671002347" lon="12.882943103560786"><ele>478.0</ele><time>2026-04-30T18:26:51Z</time></trkpt><trkpt lat="42.20171286810187" lon="12.883065179691672"><ele>483.5</ele><time>2026-04-30T18:26:52Z</time></trkpt><trkpt lat="42.201796245150284" lon="12.883199641763758"><ele>489.0</ele><time>2026-04-30T18:26:53Z</time></trkpt><trkpt lat="42.201885247976804" lon="12.883335734998262"><ele>494.5</ele><time>2026-04-30T18:26:54Z</time></trkpt><trkpt lat="42.201973567149146" lon="12.883470382444845"><ele>500.0</ele><time>2026-04-30T18:26:55Z</time></trkpt><trkpt lat="42.202070118312236" lon="12.88361363730372"><ele>500.0</ele><time>2026-04-30T18:26:56Z</time></trkpt><trkpt lat="42.20217196804205" lon="12.88376355214836"><ele>500.0</ele><time>2026-04-30T18:26:57Z</time></trkpt><trkpt lat="42.202266097663625" lon="12.883912778804202"><ele>500.0</ele><time>2026-04-30T18:26:58Z</time></trkpt><trkpt lat="42.20236125051199" lon="12.884061823528706"><ele>500.0</ele><time>2026-04-30T18:26:59Z</time></trkpt><trkpt lat="42.20243519488825" lon="12.884222569482983"><ele>507.5</ele><time>2026-04-30T18:27:00Z</time></trkpt><trkpt lat="42.202465615069215" lon="12.88440666625364"><ele>515.0</ele><time>2026-04-30T18:27:00.999Z</time></trkpt><trkpt lat="42.202470175067525" lon="12.884589142344518"><ele>522.5</ele><time>2026-04-30T18:27:01.999Z</time></trkpt><trkpt lat="42.20249134767252" lon="12.884789890805264"><ele>530.0</ele><time>2026-04-30T18:27:02.999Z</time></trkpt><trkpt lat="42.20248542756409" lon="12.884995259364855"><ele>531.0</ele><time>2026-04-30T18:27:03.999Z</time></trkpt><trkpt lat="42.20249015868869" lon="12.88520461678914"><ele>532.0</ele><time>2026-04-30T18:27:04.999Z</time></trkpt><trkpt lat="42.20249342968159" lon="12.885415899390729"><ele>533.0</ele><time>2026-04-30T18:27:05.999Z</time></trkpt><trkpt lat="42.20249683110044" lon="12.885629246450433"><ele>533.0</ele><time>2026-04-30T18:27:06.999Z</time></trkpt><trkpt lat="42.20250006951329" lon="12.885839790873003"><ele>533.0</ele><time>2026-04-30T18:27:07.999Z</time></trkpt><trkpt lat="42.20250261429027" lon="12.886046908649146"><ele>533.0</ele><time>2026-04-30T18:27:08.999Z</time></trkpt><trkpt lat="42.20252111095767" lon="12.886237133744848"><ele>531.75</ele><time>2026-04-30T18:27:09.999Z</time></trkpt><trkpt lat="42.2025750732302" lon="12.88640507050537"><ele>530.5</ele><time>2026-04-30T18:27:10.999Z</time></trkpt><trkpt lat="42.20265942485456" lon="12.886561567554903"><ele>529.25</ele><time>2026-04-30T18:27:11.999Z</time></trkpt><trkpt lat="42.2027727316925" lon="12.886691211256341"><ele>528.0</ele><time>2026-04-30T18:27:12.999Z</time></trkpt><trkpt lat="42.2028755000577" lon="12.886827744256795"><ele>527.75</ele><time>2026-04-30T18:27:13.999Z</time></trkpt><trkpt lat="42.20294141214642" lon="12.886975281067368"><ele>527.5</ele><time>2026-04-30T18:27:14.999Z</time></trkpt><trkpt lat="42.20297228098045" lon="12.887133179207298"><ele>527.25</ele><time>2026-04-30T18:27:15.999Z</time></trkpt><trkpt lat="42.20295425915477" lon="12.887307421169416"><ele>527.0</ele><time>2026-04-30T18:27:16.999Z</time></trkpt><trkpt lat="42.20294693478609" lon="12.88747785219097"><ele>530.5</ele><time>2026-04-30T18:27:17.999Z</time></trkpt><trkpt lat="42.20292117543135" lon="12.887642107096356"><ele>534.0</ele><time>2026-04-30T18:27:18.999Z</time></trkpt><trkpt lat="42.202880363318116" lon="12.887793839883837"><ele>537.5</ele><time>2026-04-30T18:27:19.999Z</time></trkpt><trkpt lat="42.202776782698066" lon="12.887886344042156"><ele>541.0</ele><time>2026-04-30T18:27:20.999Z</time></trkpt><trkpt lat="42.20266510251207" lon="12.887985141981316"><ele>541.0</ele><time>2026-04-30T18:27:21.999Z</time></trkpt><trkpt lat="42.20254821259429" lon="12.888094109892286"><ele>541.0</ele><time>2026-04-30T18:27:22.999Z</time></trkpt><trkpt lat="42.202432165839156" lon="12.888202291792885"><ele>541.0</ele><time>2026-04-30T18:27:23.999Z</time></trkpt><trkpt lat="42.20231388227719" lon="12.888313843510725"><ele>541.0</ele><time>2026-04-30T18:27:24.999Z</time></trkpt><trkpt lat="42.20219685296856" lon="12.888424832094906"><ele>540.25</ele><time>2026-04-30T18:27:25.999Z</time></trkpt><trkpt lat="42.20207895232374" lon="12.88853342609478"><ele>539.5</ele><time>2026-04-30T18:27:26.999Z</time></trkpt><trkpt lat="42.201971386616755" lon="12.888663858978845"><ele>538.75</ele><time>2026-04-30T18:27:27.999Z</time></trkpt><trkpt lat="42.201894711256195" lon="12.888814884803622"><ele>538.0</ele><time>2026-04-30T18:27:28.999Z</time></trkpt><trkpt lat="42.201847365296395" lon="12.88900338576968"><ele>538.0</ele><time>2026-04-30T18:27:29.999Z</time></trkpt><trkpt lat="42.20180870141561" lon="12.889199306867525"><ele>538.0</ele><time>2026-04-30T18:27:30.999Z</time></trkpt><trkpt lat="42.201770525612744" lon="12.889401199150901"><ele>538.0</ele><time>2026-04-30T18:27:31.999Z</time></trkpt><trkpt lat="42.20173066338911" lon="12.889600961560197"><ele>539.3333333333334</ele><time>2026-04-30T18:27:32.999Z</time></trkpt><trkpt lat="42.20169044404683" lon="12.889801946985106"><ele>540.6666666666666</ele><time>2026-04-30T18:27:33.999Z</time></trkpt><trkpt lat="42.20164846563598" lon="12.890007976173832"><ele>542.0</ele><time>2026-04-30T18:27:34.999Z</time></trkpt><trkpt lat="42.20160538070921" lon="12.890219436138624"><ele>545.0</ele><time>2026-04-30T18:27:35.999Z</time></trkpt><trkpt lat="42.20156270446691" lon="12.890428890312025"><ele>548.0</ele><time>2026-04-30T18:27:36.999Z</time></trkpt><trkpt lat="42.20151801100468" lon="12.890640618811924"><ele>551.0</ele><time>2026-04-30T18:27:37.999Z</time></trkpt><trkpt lat="42.20147243937188" lon="12.890855338160451"><ele>544.0</ele><time>2026-04-30T18:27:38.999Z</time></trkpt><trkpt lat="42.201427556217666" lon="12.891066813619641"><ele>537.0</ele><time>2026-04-30T18:27:39.999Z</time></trkpt><trkpt lat="42.20138224667655" lon="12.89127997455566"><ele>530.0</ele><time>2026-04-30T18:27:40.999Z</time></trkpt><trkpt lat="42.20133887075531" lon="12.891494415833137"><ele>530.0</ele><time>2026-04-30T18:27:41.999Z</time></trkpt><trkpt lat="42.20130952553644" lon="12.891698182326401"><ele>530.0</ele><time>2026-04-30T18:27:42.999Z</time></trkpt><trkpt lat="42.201338034162255" lon="12.891887695182618"><ele>530.0</ele><time>2026-04-30T18:27:43.999Z</time></trkpt><trkpt lat="42.20138432084338" lon="12.892068848394997"><ele>530.0</ele><time>2026-04-30T18:27:44.999Z</time></trkpt><trkpt lat="42.20146435072949" lon="12.892233007469116"><ele>535.75</ele><time>2026-04-30T18:27:45.999Z</time></trkpt><trkpt lat="42.20153843947131" lon="12.892403887934076"><ele>541.5</ele><time>2026-04-30T18:27:46.999Z</time></trkpt><trkpt lat="42.201614965328616" lon="12.892564471651943"><ele>547.25</ele><time>2026-04-30T18:27:47.999Z</time></trkpt><trkpt lat="42.201666700992284" lon="12.892725851908475"><ele>553.0</ele><time>2026-04-30T18:27:48.999Z</time></trkpt><trkpt lat="42.20169214107833" lon="12.892890419854254"><ele>553.5</ele><time>2026-04-30T18:27:49.999Z</time></trkpt><trkpt lat="42.20168885633827" lon="12.893053649521846"><ele>554.0</ele><time>2026-04-30T18:27:50.999Z</time></trkpt><trkpt lat="42.20165867349006" lon="12.893214878779988"><ele>554.5</ele><time>2026-04-30T18:27:51.999Z</time></trkpt><trkpt lat="42.201625069074254" lon="12.893394439311475"><ele>555.0</ele><time>2026-04-30T18:27:52.999Z</time></trkpt><trkpt lat="42.20159148642301" lon="12.893573883550175"><ele>553.75</ele><time>2026-04-30T18:27:53.999Z</time></trkpt><trkpt lat="42.201559244645" lon="12.893752363933869"><ele>552.5</ele><time>2026-04-30T18:27:54.999Z</time></trkpt><trkpt lat="42.20153044593341" lon="12.893916269912957"><ele>551.25</ele><time>2026-04-30T18:27:55.999Z</time></trkpt><trkpt lat="42.20149817152334" lon="12.894065391195252"><ele>550.0</ele><time>2026-04-30T18:27:56.999Z</time></trkpt><trkpt lat="42.20145812757521" lon="12.894200052101114"><ele>552.4</ele><time>2026-04-30T18:27:57.998Z</time></trkpt><trkpt lat="42.20140663071737" lon="12.89431211007381"><ele>554.8</ele><time>2026-04-30T18:27:58.998Z</time></trkpt><trkpt lat="42.201346139368795" lon="12.894399580355547"><ele>557.2</ele><time>2026-04-30T18:27:59.998Z</time></trkpt><trkpt lat="42.20128205586324" lon="12.894469994070715"><ele>559.6</ele><time>2026-04-30T18:28:01Z</time></trkpt><trkpt lat="42.20120646987659" lon="12.894541268297592"><ele>562.0</ele><time>2026-04-30T18:28:02Z</time></trkpt><trkpt lat="42.201124431780364" lon="12.894617238433666"><ele>562.0</ele><time>2026-04-30T18:28:03Z</time></trkpt><trkpt lat="42.201045952870345" lon="12.894700803586309"><ele>562.0</ele><time>2026-04-30T18:28:04Z</time></trkpt><trkpt lat="42.200977272854196" lon="12.894791352106068"><ele>562.0</ele><time>2026-04-30T18:28:05Z</time></trkpt><trkpt lat="42.20091672673215" lon="12.894911789515344"><ele>562.0</ele><time>2026-04-30T18:28:06Z</time></trkpt><trkpt lat="42.2008855253114" lon="12.895042837470484"><ele>562.0</ele><time>2026-04-30T18:28:07Z</time></trkpt><trkpt lat="42.20087645550542" lon="12.895182234035795"><ele>562.0</ele><time>2026-04-30T18:28:08Z</time></trkpt><trkpt lat="42.20088646837012" lon="12.895324314093854"><ele>562.0</ele><time>2026-04-30T18:28:09Z</time></trkpt><trkpt lat="42.20090165870045" lon="12.895458608843398"><ele>562.0</ele><time>2026-04-30T18:28:10Z</time></trkpt><trkpt lat="42.2009200891529" lon="12.895594427578885"><ele>562.0</ele><time>2026-04-30T18:28:11Z</time></trkpt><trkpt lat="42.20093856682633" lon="12.895730594315546"><ele>562.0</ele><time>2026-04-30T18:28:12Z</time></trkpt><trkpt lat="42.20095790587889" lon="12.8958598984585"><ele>562.0</ele><time>2026-04-30T18:28:13Z</time></trkpt><trkpt lat="42.20097796494278" lon="12.895979806165533"><ele>562.0</ele><time>2026-04-30T18:28:14Z</time></trkpt><trkpt lat="42.20099215959526" lon="12.896092059278876"><ele>562.0</ele><time>2026-04-30T18:28:15Z</time></trkpt><trkpt lat="42.20100821215953" lon="12.896190581682376"><ele>562.0</ele><time>2026-04-30T18:28:16Z</time></trkpt><trkpt lat="42.201019646408376" lon="12.896284816813807"><ele>562.0</ele><time>2026-04-30T18:28:17Z</time></trkpt><trkpt lat="42.201029590626334" lon="12.896371327763033"><ele>562.0</ele><time>2026-04-30T18:28:18Z</time></trkpt><trkpt lat="42.201048831545535" lon="12.89648868143211"><ele>562.0</ele><time>2026-04-30T18:28:20Z</time></trkpt><trkpt lat="42.201063828687296" lon="12.896577204915152"><ele>562.0</ele><time>2026-04-30T18:28:23Z</time></trkpt><trkpt lat="42.201200061626274" lon="12.89650710368774"><ele>562.0</ele><time>2026-04-30T18:28:24Z</time></trkpt><trkpt lat="42.201242729670184" lon="12.896428786071406"><ele>562.0</ele><time>2026-04-30T18:28:25Z</time></trkpt><trkpt lat="42.201282246902046" lon="12.896338664065526"><ele>562.0</ele><time>2026-04-30T18:28:26Z</time></trkpt><trkpt lat="42.20132017019474" lon="12.896244736255065"><ele>562.0</ele><time>2026-04-30T18:28:27Z</time></trkpt><trkpt lat="42.20135648217623" lon="12.896139124511262"><ele>562.0</ele><time>2026-04-30T18:28:28Z</time></trkpt><trkpt lat="42.20139217338388" lon="12.89602715595937"><ele>562.0</ele><time>2026-04-30T18:28:29Z</time></trkpt><trkpt lat="42.201433603295726" lon="12.8959103256278"><ele>562.0</ele><time>2026-04-30T18:28:30Z</time></trkpt><trkpt lat="42.201481465568506" lon="12.895792023645336"><ele>562.0</ele><time>2026-04-30T18:28:31Z</time></trkpt><trkpt lat="42.20153378645195" lon="12.895686315592233"><ele>562.0</ele><time>2026-04-30T18:28:32Z</time></trkpt><trkpt lat="42.20159670081046" lon="12.895586986863913"><ele>564.6</ele><time>2026-04-30T18:28:33Z</time></trkpt><trkpt lat="42.20167362396624" lon="12.895495902421844"><ele>567.2</ele><time>2026-04-30T18:28:34Z</time></trkpt><trkpt lat="42.20175810876649" lon="12.895412504447053"><ele>569.8</ele><time>2026-04-30T18:28:35Z</time></trkpt><trkpt lat="42.201853554032084" lon="12.895340434062035"><ele>572.4</ele><time>2026-04-30T18:28:36Z</time></trkpt><trkpt lat="42.20195739519234" lon="12.8952796287397"><ele>575.0</ele><time>2026-04-30T18:28:37Z</time></trkpt><trkpt lat="42.20206537049192" lon="12.895224891236959"><ele>575.0</ele><time>2026-04-30T18:28:38Z</time></trkpt><trkpt lat="42.20216633747552" lon="12.895161831612823"><ele>575.0</ele><time>2026-04-30T18:28:39Z</time></trkpt><trkpt lat="42.20226386091964" lon="12.89507378129748"><ele>575.0</ele><time>2026-04-30T18:28:40Z</time></trkpt><trkpt lat="42.202359153862496" lon="12.894973931004921"><ele>575.0</ele><time>2026-04-30T18:28:41Z</time></trkpt><trkpt lat="42.20245399255575" lon="12.894870104255782"><ele>576.0</ele><time>2026-04-30T18:28:42Z</time></trkpt><trkpt lat="42.20254343049738" lon="12.894762660040888"><ele>577.0</ele><time>2026-04-30T18:28:43Z</time></trkpt><trkpt lat="42.20261622103267" lon="12.894659295577577"><ele>578.0</ele><time>2026-04-30T18:28:44Z</time></trkpt><trkpt lat="42.20268066061989" lon="12.894574052967181"><ele>579.0</ele><time>2026-04-30T18:28:45Z</time></trkpt><trkpt lat="42.2027550795285" lon="12.894513650795533"><ele>580.0</ele><time>2026-04-30T18:28:46Z</time></trkpt><trkpt lat="42.2028504845449" lon="12.894510205742717"><ele>580.0</ele><time>2026-04-30T18:28:47Z</time></trkpt><trkpt lat="42.20294459719305" lon="12.89452847295056"><ele>580.0</ele><time>2026-04-30T18:28:48Z</time></trkpt><trkpt lat="42.20303326029881" lon="12.894575784839779"><ele>580.0</ele><time>2026-04-30T18:28:49Z</time></trkpt><trkpt lat="42.20309036245789" lon="12.894667228304824"><ele>580.0</ele><time>2026-04-30T18:28:50Z</time></trkpt><trkpt lat="42.20311020302337" lon="12.894764884769058"><ele>580.0</ele><time>2026-04-30T18:28:51Z</time></trkpt><trkpt lat="42.20313273217792" lon="12.89486411856075"><ele>580.0</ele><time>2026-04-30T18:28:52Z</time></trkpt><trkpt lat="42.203153222779214" lon="12.894982177401662"><ele>583.4</ele><time>2026-04-30T18:28:53Z</time></trkpt><trkpt lat="42.20317591972644" lon="12.895112094626946"><ele>586.8</ele><time>2026-04-30T18:28:54Z</time></trkpt><trkpt lat="42.203204730625856" lon="12.89524420301018"><ele>590.2</ele><time>2026-04-30T18:28:55Z</time></trkpt><trkpt lat="42.20325840206883" lon="12.895378374596245"><ele>593.6</ele><time>2026-04-30T18:28:56Z</time></trkpt><trkpt lat="42.20332384579404" lon="12.895481899742082"><ele>597.0</ele><time>2026-04-30T18:28:57Z</time></trkpt><trkpt lat="42.20342353807852" lon="12.895525241522023"><ele>597.0</ele><time>2026-04-30T18:28:58Z</time></trkpt><trkpt lat="42.20349932139108" lon="12.895561255170966"><ele>597.0</ele><time>2026-04-30T18:28:59Z</time></trkpt><trkpt lat="42.20357345958496" lon="12.89556962831522"><ele>597.0</ele><time>2026-04-30T18:29:00Z</time></trkpt><trkpt lat="42.20365575840686" lon="12.895611496395153"><ele>597.0</ele><time>2026-04-30T18:29:01Z</time></trkpt><trkpt lat="42.20374424593576" lon="12.895633594718406"><ele>597.0</ele><time>2026-04-30T18:29:02Z</time></trkpt><trkpt lat="42.20383650531326" lon="12.895649660106193"><ele>597.0</ele><time>2026-04-30T18:29:03Z</time></trkpt><trkpt lat="42.2039372427103" lon="12.895630315863562"><ele>597.8000000000001</ele><time>2026-04-30T18:29:04Z</time></trkpt><trkpt lat="42.20403128770844" lon="12.895582408496699"><ele>598.6</ele><time>2026-04-30T18:29:05Z</time></trkpt><trkpt lat="42.20410544044661" lon="12.895518448223468"><ele>599.4000000000001</ele><time>2026-04-30T18:29:05.999Z</time></trkpt><trkpt lat="42.20415731605561" lon="12.895428499641095"><ele>600.2</ele><time>2026-04-30T18:29:06.999Z</time></trkpt><trkpt lat="42.20421538896251" lon="12.895339331195716"><ele>601.0</ele><time>2026-04-30T18:29:07.999Z</time></trkpt><trkpt lat="42.20427662425998" lon="12.895240170111492"><ele>601.0</ele><time>2026-04-30T18:29:08.999Z</time></trkpt><trkpt lat="42.204341798426434" lon="12.895136947967321"><ele>601.0</ele><time>2026-04-30T18:29:09.999Z</time></trkpt><trkpt lat="42.20441448071418" lon="12.895041992700715"><ele>601.0</ele><time>2026-04-30T18:29:10.999Z</time></trkpt><trkpt lat="42.204494427573295" lon="12.894954454851064"><ele>601.0</ele><time>2026-04-30T18:29:11.999Z</time></trkpt><trkpt lat="42.204583824256474" lon="12.89487216251772"><ele>601.0</ele><time>2026-04-30T18:29:12.999Z</time></trkpt><trkpt lat="42.20468317949519" lon="12.89479753653839"><ele>603.25</ele><time>2026-04-30T18:29:13.999Z</time></trkpt><trkpt lat="42.20479025438078" lon="12.894728859130131"><ele>605.5</ele><time>2026-04-30T18:29:14.999Z</time></trkpt><trkpt lat="42.20490116897717" lon="12.894663970299733"><ele>607.75</ele><time>2026-04-30T18:29:15.999Z</time></trkpt><trkpt lat="42.20501436926506" lon="12.894601877725602"><ele>610.0</ele><time>2026-04-30T18:29:16.999Z</time></trkpt><trkpt lat="42.205124444185294" lon="12.894528513104243"><ele>610.0</ele><time>2026-04-30T18:29:17.999Z</time></trkpt><trkpt lat="42.20522297109744" lon="12.894439017042572"><ele>610.0</ele><time>2026-04-30T18:29:18.999Z</time></trkpt><trkpt lat="42.20531268138719" lon="12.894340022022494"><ele>610.0</ele><time>2026-04-30T18:29:19.999Z</time></trkpt><trkpt lat="42.205393413743124" lon="12.894234189623843"><ele>610.0</ele><time>2026-04-30T18:29:20.999Z</time></trkpt><trkpt lat="42.205466615870876" lon="12.894115709184758"><ele>607.25</ele><time>2026-04-30T18:29:21.999Z</time></trkpt><trkpt lat="42.205534046526694" lon="12.893990868760243"><ele>604.5</ele><time>2026-04-30T18:29:22.999Z</time></trkpt><trkpt lat="42.20559263017145" lon="12.893860966164333"><ele>601.75</ele><time>2026-04-30T18:29:23.999Z</time></trkpt><trkpt lat="42.20564762317293" lon="12.893731420357037"><ele>599.0</ele><time>2026-04-30T18:29:24.999Z</time></trkpt><trkpt lat="42.20571851357423" lon="12.89361406263419"><ele>602.25</ele><time>2026-04-30T18:29:25.999Z</time></trkpt><trkpt lat="42.20580740485976" lon="12.893518870112432"><ele>605.5</ele><time>2026-04-30T18:29:26.999Z</time></trkpt><trkpt lat="42.20590400723967" lon="12.89343097384412"><ele>608.75</ele><time>2026-04-30T18:29:27.999Z</time></trkpt><trkpt lat="42.205998806608264" lon="12.893341453635733"><ele>612.0</ele><time>2026-04-30T18:29:28.999Z</time></trkpt><trkpt lat="42.20609766877966" lon="12.893258409122838"><ele>612.0</ele><time>2026-04-30T18:29:29.999Z</time></trkpt><trkpt lat="42.206201676506986" lon="12.89318367285057"><ele>612.0</ele><time>2026-04-30T18:29:30.999Z</time></trkpt><trkpt lat="42.20631124074449" lon="12.893122015705014"><ele>612.0</ele><time>2026-04-30T18:29:31.999Z</time></trkpt><trkpt lat="42.20642639976735" lon="12.89307292441071"><ele>612.0</ele><time>2026-04-30T18:29:32.999Z</time></trkpt><trkpt lat="42.20654336253762" lon="12.893038202132262"><ele>615.75</ele><time>2026-04-30T18:29:33.999Z</time></trkpt><trkpt lat="42.206661657975765" lon="12.89302052742828"><ele>619.5</ele><time>2026-04-30T18:29:34.999Z</time></trkpt><trkpt lat="42.20677886825125" lon="12.893019398120453"><ele>623.25</ele><time>2026-04-30T18:29:35.999Z</time></trkpt><trkpt lat="42.20689640966903" lon="12.893033782240954"><ele>627.0</ele><time>2026-04-30T18:29:36.999Z</time></trkpt><trkpt lat="42.207008097313995" lon="12.893082987161401"><ele>627.0</ele><time>2026-04-30T18:29:37.999Z</time></trkpt><trkpt lat="42.20712204444854" lon="12.89310406306602"><ele>627.0</ele><time>2026-04-30T18:29:38.999Z</time></trkpt><trkpt lat="42.207226640645736" lon="12.893152800799848"><ele>627.0</ele><time>2026-04-30T18:29:39.999Z</time></trkpt><trkpt lat="42.207331274442815" lon="12.893198595486808"><ele>627.0</ele><time>2026-04-30T18:29:40.999Z</time></trkpt><trkpt lat="42.207435474673915" lon="12.893243314971999"><ele>627.0</ele><time>2026-04-30T18:29:41.999Z</time></trkpt><trkpt lat="42.20753380839474" lon="12.893309652526193"><ele>628.0</ele><time>2026-04-30T18:29:42.999Z</time></trkpt><trkpt lat="42.20763512765638" lon="12.893360252555913"><ele>629.0</ele><time>2026-04-30T18:29:43.999Z</time></trkpt><trkpt lat="42.20772409463683" lon="12.893432631802318"><ele>630.0</ele><time>2026-04-30T18:29:44.999Z</time></trkpt><trkpt lat="42.20779976844765" lon="12.893527078749209"><ele>631.0</ele><time>2026-04-30T18:29:45.999Z</time></trkpt><trkpt lat="42.207862952255425" lon="12.893646028314631"><ele>632.0</ele><time>2026-04-30T18:29:46.999Z</time></trkpt><trkpt lat="42.207912111841274" lon="12.893777961504295"><ele>634.8</ele><time>2026-04-30T18:29:47.999Z</time></trkpt><trkpt lat="42.207941267596695" lon="12.893919833773026"><ele>637.6</ele><time>2026-04-30T18:29:48.999Z</time></trkpt><trkpt lat="42.20794905665926" lon="12.894066004284557"><ele>640.4</ele><time>2026-04-30T18:29:49.999Z</time></trkpt><trkpt lat="42.20793776599184" lon="12.894209452499027"><ele>643.1999999999999</ele><time>2026-04-30T18:29:50.999Z</time></trkpt><trkpt lat="42.207902060067134" lon="12.894342740887387"><ele>646.0</ele><time>2026-04-30T18:29:51.999Z</time></trkpt><trkpt lat="42.20785656157688" lon="12.894469516826097"><ele>647.5999999999999</ele><time>2026-04-30T18:29:52.999Z</time></trkpt><trkpt lat="42.20780263580107" lon="12.894595078804764"><ele>649.2</ele><time>2026-04-30T18:29:53.999Z</time></trkpt><trkpt lat="42.20774925868509" lon="12.894717755347672"><ele>650.8</ele><time>2026-04-30T18:29:54.999Z</time></trkpt><trkpt lat="42.20769545840797" lon="12.894836608267068"><ele>652.4000000000001</ele><time>2026-04-30T18:29:55.999Z</time></trkpt><trkpt lat="42.20764728096313" lon="12.89496330630217"><ele>654.0</ele><time>2026-04-30T18:29:56.999Z</time></trkpt><trkpt lat="42.207614228604626" lon="12.895080340409457"><ele>656.4000000000001</ele><time>2026-04-30T18:29:57.999Z</time></trkpt><trkpt lat="42.20762884531253" lon="12.89521658839313"><ele>658.8</ele><time>2026-04-30T18:29:58.999Z</time></trkpt><trkpt lat="42.207682739359996" lon="12.895332943499454"><ele>661.2</ele><time>2026-04-30T18:29:59.999Z</time></trkpt><trkpt lat="42.20775269577121" lon="12.895416145354922"><ele>663.5999999999999</ele><time>2026-04-30T18:30:00.999Z</time></trkpt><trkpt lat="42.20781982539586" lon="12.895502082846525"><ele>666.0</ele><time>2026-04-30T18:30:01.999Z</time></trkpt><trkpt lat="42.207880004481524" lon="12.895608903613665"><ele>666.0</ele><time>2026-04-30T18:30:02.998Z</time></trkpt><trkpt lat="42.20794817565258" lon="12.895704495613435"><ele>666.0</ele><time>2026-04-30T18:30:03.998Z</time></trkpt><trkpt lat="42.208009990966374" lon="12.89579993487501"><ele>666.0</ele><time>2026-04-30T18:30:04.998Z</time></trkpt><trkpt lat="42.208061226995206" lon="12.895904864281867"><ele>666.0</ele><time>2026-04-30T18:30:05.998Z</time></trkpt><trkpt lat="42.208102297768214" lon="12.896025540851102"><ele>666.0</ele><time>2026-04-30T18:30:07Z</time></trkpt><trkpt lat="42.208129245389664" lon="12.896155312045003"><ele>665.4</ele><time>2026-04-30T18:30:08Z</time></trkpt><trkpt lat="42.20814208687515" lon="12.896294556002307"><ele>664.8</ele><time>2026-04-30T18:30:09Z</time></trkpt><trkpt lat="42.20815111073219" lon="12.896439003004634"><ele>664.1999999999999</ele><time>2026-04-30T18:30:10Z</time></trkpt><trkpt lat="42.20816026147235" lon="12.89659564613404"><ele>663.5999999999999</ele><time>2026-04-30T18:30:11Z</time></trkpt><trkpt lat="42.208173549397266" lon="12.896749926598318"><ele>663.0</ele><time>2026-04-30T18:30:12Z</time></trkpt><trkpt lat="42.208183247732165" lon="12.896900314546938"><ele>664.2</ele><time>2026-04-30T18:30:13Z</time></trkpt><trkpt lat="42.20818735976741" lon="12.897045870839513"><ele>665.4</ele><time>2026-04-30T18:30:14Z</time></trkpt><trkpt lat="42.20817567038327" lon="12.897181072240016"><ele>666.6</ele><time>2026-04-30T18:30:15Z</time></trkpt><trkpt lat="42.208154683741796" lon="12.89729709598171"><ele>667.8000000000001</ele><time>2026-04-30T18:30:16Z</time></trkpt><trkpt lat="42.208125997810484" lon="12.897394830191377"><ele>669.0</ele><time>2026-04-30T18:30:17Z</time></trkpt><trkpt lat="42.20808411697847" lon="12.8975029096067"><ele>672.4000000000001</ele><time>2026-04-30T18:30:18Z</time></trkpt><trkpt lat="42.20801700693645" lon="12.89759447663054"><ele>675.8</ele><time>2026-04-30T18:30:19Z</time></trkpt><trkpt lat="42.207940616666775" lon="12.897692736263146"><ele>679.2</ele><time>2026-04-30T18:30:20Z</time></trkpt><trkpt lat="42.20785318429845" lon="12.897790357013676"><ele>682.5999999999999</ele><time>2026-04-30T18:30:21Z</time></trkpt><trkpt lat="42.20777561213513" lon="12.897880997343742"><ele>686.0</ele><time>2026-04-30T18:30:22Z</time></trkpt><trkpt lat="42.2076974844804" lon="12.897976409897456"><ele>686.0</ele><time>2026-04-30T18:30:23Z</time></trkpt><trkpt lat="42.2076239926488" lon="12.898068053337791"><ele>686.0</ele><time>2026-04-30T18:30:24Z</time></trkpt><trkpt lat="42.20755283910319" lon="12.898161022700057"><ele>686.0</ele><time>2026-04-30T18:30:25Z</time></trkpt><trkpt lat="42.20748649421696" lon="12.898258684151862"><ele>686.0</ele><time>2026-04-30T18:30:26Z</time></trkpt><trkpt lat="42.20742522220279" lon="12.898366187391277"><ele>686.0</ele><time>2026-04-30T18:30:27Z</time></trkpt><trkpt lat="42.20737291726722" lon="12.89848594678111"><ele>685.8</ele><time>2026-04-30T18:30:28Z</time></trkpt><trkpt lat="42.20732744308147" lon="12.898618362955748"><ele>685.5999999999999</ele><time>2026-04-30T18:30:29Z</time></trkpt><trkpt lat="42.207292370764804" lon="12.898752905159402"><ele>685.4</ele><time>2026-04-30T18:30:30Z</time></trkpt><trkpt lat="42.207266810465946" lon="12.898896764244219"><ele>685.2</ele><time>2026-04-30T18:30:31Z</time></trkpt><trkpt lat="42.20725064019405" lon="12.899050898828296"><ele>685.0</ele><time>2026-04-30T18:30:32Z</time></trkpt><trkpt lat="42.20724924673876" lon="12.899210923018872"><ele>684.0</ele><time>2026-04-30T18:30:33Z</time></trkpt><trkpt lat="42.20725195306121" lon="12.899372423411416"><ele>683.0</ele><time>2026-04-30T18:30:34Z</time></trkpt><trkpt lat="42.20725870187304" lon="12.89953806740535"><ele>682.0</ele><time>2026-04-30T18:30:35Z</time></trkpt><trkpt lat="42.207263684425214" lon="12.899704148618381"><ele>681.0</ele><time>2026-04-30T18:30:36Z</time></trkpt><trkpt lat="42.20726194006554" lon="12.899866252379901"><ele>681.0</ele><time>2026-04-30T18:30:37Z</time></trkpt><trkpt lat="42.207246240705246" lon="12.90002721397051"><ele>681.0</ele><time>2026-04-30T18:30:38Z</time></trkpt><trkpt lat="42.20721773507983" lon="12.90019350220879"><ele>681.0</ele><time>2026-04-30T18:30:39Z</time></trkpt><trkpt lat="42.20718029533926" lon="12.90034901403925"><ele>681.0</ele><time>2026-04-30T18:30:40Z</time></trkpt><trkpt lat="42.207129971114824" lon="12.900496021515746"><ele>683.25</ele><time>2026-04-30T18:30:41Z</time></trkpt><trkpt lat="42.2070747376758" lon="12.900646121761854"><ele>685.5</ele><time>2026-04-30T18:30:42Z</time></trkpt><trkpt lat="42.20701512872813" lon="12.900789137547873"><ele>687.75</ele><time>2026-04-30T18:30:43Z</time></trkpt><trkpt lat="42.206953611746485" lon="12.900934103694437"><ele>690.0</ele><time>2026-04-30T18:30:44Z</time></trkpt><trkpt lat="42.20689468102271" lon="12.901078140328444"><ele>692.75</ele><time>2026-04-30T18:30:45Z</time></trkpt><trkpt lat="42.20683874003924" lon="12.901221712885514"><ele>695.5</ele><time>2026-04-30T18:30:46Z</time></trkpt><trkpt lat="42.20678931663044" lon="12.901366830019287"><ele>698.25</ele><time>2026-04-30T18:30:47Z</time></trkpt><trkpt lat="42.20674780800651" lon="12.901523045734512"><ele>701.0</ele><time>2026-04-30T18:30:48Z</time></trkpt><trkpt lat="42.20672181891088" lon="12.901680107528938"><ele>704.25</ele><time>2026-04-30T18:30:49Z</time></trkpt><trkpt lat="42.2067096242783" lon="12.901846686083884"><ele>707.5</ele><time>2026-04-30T18:30:50Z</time></trkpt><trkpt lat="42.20670446365299" lon="12.902009795822007"><ele>710.75</ele><time>2026-04-30T18:30:51Z</time></trkpt><trkpt lat="42.206728399241115" lon="12.902173256558365"><ele>714.0</ele><time>2026-04-30T18:30:52Z</time></trkpt><trkpt lat="42.20671682082874" lon="12.902339595697969"><ele>714.0</ele><time>2026-04-30T18:30:53Z</time></trkpt><trkpt lat="42.206721706759524" lon="12.902507801597174"><ele>714.0</ele><time>2026-04-30T18:30:54Z</time></trkpt><trkpt lat="42.20670869347833" lon="12.902669427506218"><ele>714.0</ele><time>2026-04-30T18:30:55Z</time></trkpt><trkpt lat="42.20671008318833" lon="12.90283971577993"><ele>714.0</ele><time>2026-04-30T18:30:56Z</time></trkpt><trkpt lat="42.20669028282564" lon="12.903009700121434"><ele>715.75</ele><time>2026-04-30T18:30:57Z</time></trkpt><trkpt lat="42.206674831202115" lon="12.903181432720913"><ele>717.5</ele><time>2026-04-30T18:30:58Z</time></trkpt><trkpt lat="42.2066624920207" lon="12.903353914547663"><ele>719.25</ele><time>2026-04-30T18:30:59Z</time></trkpt><trkpt lat="42.20664888652045" lon="12.90353481482221"><ele>721.0</ele><time>2026-04-30T18:31:00Z</time></trkpt><trkpt lat="42.20663290489978" lon="12.90370610697505"><ele>722.25</ele><time>2026-04-30T18:31:01Z</time></trkpt><trkpt lat="42.20662489744715" lon="12.903872145297006"><ele>723.5</ele><time>2026-04-30T18:31:02Z</time></trkpt><trkpt lat="42.2066393098656" lon="12.90403409499646"><ele>724.75</ele><time>2026-04-30T18:31:03Z</time></trkpt><trkpt lat="42.206669662373756" lon="12.904188873217738"><ele>726.0</ele><time>2026-04-30T18:31:04Z</time></trkpt><trkpt lat="42.20671724983238" lon="12.904321053262425"><ele>726.1999999999999</ele><time>2026-04-30T18:31:05Z</time></trkpt><trkpt lat="42.206782151260605" lon="12.904441065139386"><ele>726.4</ele><time>2026-04-30T18:31:06Z</time></trkpt><trkpt lat="42.20686034264997" lon="12.904545528979627"><ele>726.6</ele><time>2026-04-30T18:31:07Z</time></trkpt><trkpt lat="42.206947245266605" lon="12.904633044658171"><ele>726.8</ele><time>2026-04-30T18:31:08Z</time></trkpt><trkpt lat="42.20703833445043" lon="12.904711727684003"><ele>727.0</ele><time>2026-04-30T18:31:09Z</time></trkpt><trkpt lat="42.20713604614743" lon="12.90475922348525"><ele>727.0</ele><time>2026-04-30T18:31:10Z</time></trkpt><trkpt lat="42.20723979106468" lon="12.904787802090848"><ele>727.0</ele><time>2026-04-30T18:31:11Z</time></trkpt><trkpt lat="42.20734251034941" lon="12.904809339888196"><ele>727.0</ele><time>2026-04-30T18:31:12Z</time></trkpt><trkpt lat="42.20743431345434" lon="12.904841567887376"><ele>727.0</ele><time>2026-04-30T18:31:13Z</time></trkpt><trkpt lat="42.20751419423753" lon="12.904883450459847"><ele>727.0</ele><time>2026-04-30T18:31:14Z</time></trkpt><trkpt lat="42.207586068301694" lon="12.904946683986829"><ele>729.3333333333334</ele><time>2026-04-30T18:31:15Z</time></trkpt><trkpt lat="42.207642456223816" lon="12.905034370410622"><ele>731.6666666666667</ele><time>2026-04-30T18:31:15.999Z</time></trkpt><trkpt lat="42.20767593151228" lon="12.905140296252753"><ele>734.0</ele><time>2026-04-30T18:31:16.999Z</time></trkpt><trkpt lat="42.20765664687894" lon="12.905260940908082"><ele>736.3333333333334</ele><time>2026-04-30T18:31:17.999Z</time></trkpt><trkpt lat="42.20764824440663" lon="12.905375803736991"><ele>738.6666666666666</ele><time>2026-04-30T18:31:18.999Z</time></trkpt><trkpt lat="42.20763622366655" lon="12.905494923885325"><ele>741.0</ele><time>2026-04-30T18:31:19.999Z</time></trkpt><trkpt lat="42.2076257839916" lon="12.905609336404408"><ele>741.3333333333334</ele><time>2026-04-30T18:31:20.999Z</time></trkpt><trkpt lat="42.2076218392907" lon="12.905723394747225"><ele>741.6666666666666</ele><time>2026-04-30T18:31:21.999Z</time></trkpt><trkpt lat="42.207638696217295" lon="12.905835448957736"><ele>742.0</ele><time>2026-04-30T18:31:22.999Z</time></trkpt><trkpt lat="42.20769681502265" lon="12.90592888792764"><ele>742.3333333333333</ele><time>2026-04-30T18:31:23.999Z</time></trkpt><trkpt lat="42.20776750447842" lon="12.905988855795018"><ele>742.6666666666666</ele><time>2026-04-30T18:31:24.999Z</time></trkpt><trkpt lat="42.207836436325316" lon="12.90605459598613"><ele>743.0</ele><time>2026-04-30T18:31:25.999Z</time></trkpt><trkpt lat="42.20791396032708" lon="12.90612449806005"><ele>745.5999999999999</ele><time>2026-04-30T18:31:26.999Z</time></trkpt><trkpt lat="42.20799029779659" lon="12.906200493686447"><ele>748.1999999999999</ele><time>2026-04-30T18:31:27.999Z</time></trkpt><trkpt lat="42.20805938330867" lon="12.90628276473989"><ele>750.8</ele><time>2026-04-30T18:31:28.999Z</time></trkpt><trkpt lat="42.20811441169886" lon="12.906384589312536"><ele>753.4</ele><time>2026-04-30T18:31:29.999Z</time></trkpt><trkpt lat="42.20816330607316" lon="12.906490269998978"><ele>756.0</ele><time>2026-04-30T18:31:30.999Z</time></trkpt><trkpt lat="42.20821193184664" lon="12.906601241160514"><ele>757.4</ele><time>2026-04-30T18:31:31.999Z</time></trkpt><trkpt lat="42.20826425992875" lon="12.906720723928007"><ele>758.8</ele><time>2026-04-30T18:31:32.999Z</time></trkpt><trkpt lat="42.208316301783114" lon="12.906838019974693"><ele>760.1999999999999</ele><time>2026-04-30T18:31:33.999Z</time></trkpt><trkpt lat="42.208371162336384" lon="12.90695756392461"><ele>761.5999999999999</ele><time>2026-04-30T18:31:34.999Z</time></trkpt><trkpt lat="42.20841080319206" lon="12.907093299729228"><ele>763.0</ele><time>2026-04-30T18:31:35.999Z</time></trkpt><trkpt lat="42.208471499691626" lon="12.907218937656104"><ele>764.25</ele><time>2026-04-30T18:31:36.999Z</time></trkpt><trkpt lat="42.20852117521936" lon="12.907357272344607"><ele>765.5</ele><time>2026-04-30T18:31:37.999Z</time></trkpt><trkpt lat="42.20858734884173" lon="12.907489640756156"><ele>766.75</ele><time>2026-04-30T18:31:38.999Z</time></trkpt><trkpt lat="42.20865652667756" lon="12.907617039736596"><ele>768.0</ele><time>2026-04-30T18:31:39.999Z</time></trkpt><trkpt lat="42.20873143546653" lon="12.907738891978271"><ele>769.25</ele><time>2026-04-30T18:31:40.999Z</time></trkpt><trkpt lat="42.20881510658319" lon="12.90784785749401"><ele>770.5</ele><time>2026-04-30T18:31:41.999Z</time></trkpt><trkpt lat="42.20890815405446" lon="12.907938771630858"><ele>771.75</ele><time>2026-04-30T18:31:42.999Z</time></trkpt><trkpt lat="42.20900549339125" lon="12.908012846212273"><ele>773.0</ele><time>2026-04-30T18:31:43.999Z</time></trkpt><trkpt lat="42.209100809510524" lon="12.908084513805635"><ele>773.0</ele><time>2026-04-30T18:31:44.999Z</time></trkpt><trkpt lat="42.20920021803331" lon="12.908160012938712"><ele>773.0</ele><time>2026-04-30T18:31:45.999Z</time></trkpt><trkpt lat="42.20930123989517" lon="12.908235699035746"><ele>773.0</ele><time>2026-04-30T18:31:46.999Z</time></trkpt><trkpt lat="42.20940764661075" lon="12.908304547097135"><ele>773.0</ele><time>2026-04-30T18:31:47.999Z</time></trkpt><trkpt lat="42.20951526216814" lon="12.908364115028625"><ele>775.75</ele><time>2026-04-30T18:31:48.999Z</time></trkpt><trkpt lat="42.20962403720937" lon="12.908420265717515"><ele>778.5</ele><time>2026-04-30T18:31:49.999Z</time></trkpt><trkpt lat="42.20973377521192" lon="12.90847925732133"><ele>781.25</ele><time>2026-04-30T18:31:50.999Z</time></trkpt><trkpt lat="42.20984420233888" lon="12.908537916023986"><ele>784.0</ele><time>2026-04-30T18:31:51.999Z</time></trkpt><trkpt lat="42.209954715371886" lon="12.908595955494224"><ele>784.25</ele><time>2026-04-30T18:31:52.999Z</time></trkpt><trkpt lat="42.21005914036068" lon="12.90866278711133"><ele>784.5</ele><time>2026-04-30T18:31:53.999Z</time></trkpt><trkpt lat="42.210160003209886" lon="12.908739955852147"><ele>784.75</ele><time>2026-04-30T18:31:54.999Z</time></trkpt><trkpt lat="42.210255655100475" lon="12.90883652482505"><ele>785.0</ele><time>2026-04-30T18:31:55.999Z</time></trkpt><trkpt lat="42.2103436820517" lon="12.908948705064281"><ele>785.0</ele><time>2026-04-30T18:31:56.999Z</time></trkpt><trkpt lat="42.21041945212591" lon="12.90907622314436"><ele>785.0</ele><time>2026-04-30T18:31:57.999Z</time></trkpt><trkpt lat="42.210489395629274" lon="12.909208837218486"><ele>785.0</ele><time>2026-04-30T18:31:58.999Z</time></trkpt><trkpt lat="42.21055826095702" lon="12.909341313065065"><ele>785.0</ele><time>2026-04-30T18:31:59.999Z</time></trkpt><trkpt lat="42.21063253759815" lon="12.909468310737639"><ele>788.25</ele><time>2026-04-30T18:32:00.999Z</time></trkpt><trkpt lat="42.21071228279944" lon="12.909587863312305"><ele>791.5</ele><time>2026-04-30T18:32:01.999Z</time></trkpt><trkpt lat="42.2107998249413" lon="12.909694756646086"><ele>794.75</ele><time>2026-04-30T18:32:02.999Z</time></trkpt><trkpt lat="42.21088779883021" lon="12.909795715867217"><ele>798.0</ele><time>2026-04-30T18:32:03.999Z</time></trkpt><trkpt lat="42.21097801240864" lon="12.909890051889874"><ele>798.0</ele><time>2026-04-30T18:32:04.999Z</time></trkpt><trkpt lat="42.21107007707959" lon="12.909999505862178"><ele>798.0</ele><time>2026-04-30T18:32:05.999Z</time></trkpt><trkpt lat="42.21118411018661" lon="12.910104294754927"><ele>798.0</ele><time>2026-04-30T18:32:06.999Z</time></trkpt><trkpt lat="42.21127578829783" lon="12.91019671724157"><ele>798.0</ele><time>2026-04-30T18:32:07.999Z</time></trkpt><trkpt lat="42.21135950739242" lon="12.910288419703926"><ele>799.5</ele><time>2026-04-30T18:32:08.999Z</time></trkpt><trkpt lat="42.211449163340426" lon="12.910351899254978"><ele>801.0</ele><time>2026-04-30T18:32:09.999Z</time></trkpt><trkpt lat="42.211545934346276" lon="12.910359949382105"><ele>802.5</ele><time>2026-04-30T18:32:10.999Z</time></trkpt><trkpt lat="42.2116346206458" lon="12.910362181999691"><ele>804.0</ele><time>2026-04-30T18:32:11.999Z</time></trkpt><trkpt lat="42.21171942653183" lon="12.910334594405276"><ele>805.5</ele><time>2026-04-30T18:32:13Z</time></trkpt><trkpt lat="42.21178608213679" lon="12.910288927570859"><ele>807.0</ele><time>2026-04-30T18:32:14Z</time></trkpt><trkpt lat="42.21184877011081" lon="12.91022712280772"><ele>807.0</ele><time>2026-04-30T18:32:15Z</time></trkpt><trkpt lat="42.21190464565606" lon="12.910131680727387"><ele>807.0</ele><time>2026-04-30T18:32:16Z</time></trkpt><trkpt lat="42.21196016767055" lon="12.910005287750925"><ele>807.0</ele><time>2026-04-30T18:32:17Z</time></trkpt><trkpt lat="42.212007116815364" lon="12.90985523229921"><ele>807.0</ele><time>2026-04-30T18:32:18Z</time></trkpt><trkpt lat="42.212075769112936" lon="12.909730064749695"><ele>807.0</ele><time>2026-04-30T18:32:19Z</time></trkpt><trkpt lat="42.21215871824669" lon="12.909587393210936"><ele>806.0</ele><time>2026-04-30T18:32:20Z</time></trkpt><trkpt lat="42.2122424068088" lon="12.909442479953812"><ele>805.0</ele><time>2026-04-30T18:32:21Z</time></trkpt><trkpt lat="42.21232858396939" lon="12.909294866151644"><ele>804.0</ele><time>2026-04-30T18:32:22Z</time></trkpt><trkpt lat="42.212395625991846" lon="12.909155032493471"><ele>803.0</ele><time>2026-04-30T18:32:23Z</time></trkpt><trkpt lat="42.212457952290784" lon="12.909019696805704"><ele>803.0</ele><time>2026-04-30T18:32:24Z</time></trkpt><trkpt lat="42.21253274417001" lon="12.908912304523145"><ele>803.0</ele><time>2026-04-30T18:32:25Z</time></trkpt><trkpt lat="42.21262312081328" lon="12.908841918381588"><ele>803.0</ele><time>2026-04-30T18:32:26Z</time></trkpt><trkpt lat="42.212720206395566" lon="12.908789595731523"><ele>803.0</ele><time>2026-04-30T18:32:27Z</time></trkpt><trkpt lat="42.21281858949353" lon="12.90876217734868"><ele>803.0</ele><time>2026-04-30T18:32:28Z</time></trkpt><trkpt lat="42.21290553671448" lon="12.908719989358115"><ele>803.0</ele><time>2026-04-30T18:32:29Z</time></trkpt><trkpt lat="42.21297531259615" lon="12.908648457496234"><ele>803.0</ele><time>2026-04-30T18:32:30Z</time></trkpt><trkpt lat="42.21302080999241" lon="12.908549955224478"><ele>803.0</ele><time>2026-04-30T18:32:31Z</time></trkpt><trkpt lat="42.21304229047159" lon="12.908436872488815"><ele>803.0</ele><time>2026-04-30T18:32:32Z</time></trkpt><trkpt lat="42.21304555240135" lon="12.908307362877615"><ele>803.0</ele><time>2026-04-30T18:32:33Z</time></trkpt><trkpt lat="42.213061429273246" lon="12.908174889386247"><ele>800.2</ele><time>2026-04-30T18:32:34Z</time></trkpt><trkpt lat="42.21308386734301" lon="12.908047527031238"><ele>797.4</ele><time>2026-04-30T18:32:35Z</time></trkpt><trkpt lat="42.21312044405373" lon="12.907912033555403"><ele>794.6</ele><time>2026-04-30T18:32:36Z</time></trkpt><trkpt lat="42.21316916719652" lon="12.90778984686921"><ele>791.8000000000001</ele><time>2026-04-30T18:32:37Z</time></trkpt><trkpt lat="42.21322335684206" lon="12.907676188381354"><ele>789.0</ele><time>2026-04-30T18:32:38Z</time></trkpt><trkpt lat="42.21328921831949" lon="12.907577197990332"><ele>792.8000000000001</ele><time>2026-04-30T18:32:39Z</time></trkpt><trkpt lat="42.21336436479124" lon="12.907509844418009"><ele>796.6</ele><time>2026-04-30T18:32:40Z</time></trkpt><trkpt lat="42.213460570549316" lon="12.907461445030775"><ele>800.4</ele><time>2026-04-30T18:32:41Z</time></trkpt><trkpt lat="42.21357672260273" lon="12.9074453803162"><ele>804.2</ele><time>2026-04-30T18:32:42Z</time></trkpt><trkpt lat="42.21368203443026" lon="12.907404170150295"><ele>808.0</ele><time>2026-04-30T18:32:43Z</time></trkpt><trkpt lat="42.21380337486181" lon="12.907357404415716"><ele>808.0</ele><time>2026-04-30T18:32:44Z</time></trkpt><trkpt lat="42.21392480495694" lon="12.907308524734535"><ele>808.0</ele><time>2026-04-30T18:32:45Z</time></trkpt><trkpt lat="42.21404779759695" lon="12.90725370340218"><ele>808.0</ele><time>2026-04-30T18:32:46Z</time></trkpt><trkpt lat="42.21416851565939" lon="12.907203083617633"><ele>808.0</ele><time>2026-04-30T18:32:47Z</time></trkpt><trkpt lat="42.214290011278955" lon="12.907152079971487"><ele>813.25</ele><time>2026-04-30T18:32:48Z</time></trkpt><trkpt lat="42.21441734338564" lon="12.907106858214979"><ele>818.5</ele><time>2026-04-30T18:32:49Z</time></trkpt><trkpt lat="42.21454774779018" lon="12.907064938016656"><ele>823.75</ele><time>2026-04-30T18:32:50Z</time></trkpt><trkpt lat="42.214682785812656" lon="12.907041122343498"><ele>829.0</ele><time>2026-04-30T18:32:51Z</time></trkpt><trkpt lat="42.2148168385159" lon="12.907031468258115"><ele>831.75</ele><time>2026-04-30T18:32:52Z</time></trkpt><trkpt lat="42.21494983242238" lon="12.907014459471508"><ele>834.5</ele><time>2026-04-30T18:32:53Z</time></trkpt><trkpt lat="42.215082140175674" lon="12.906983509755458"><ele>837.25</ele><time>2026-04-30T18:32:54Z</time></trkpt><trkpt lat="42.21521571028091" lon="12.906949398686331"><ele>840.0</ele><time>2026-04-30T18:32:55Z</time></trkpt><trkpt lat="42.21535222999772" lon="12.906918094612237"><ele>840.0</ele><time>2026-04-30T18:32:56Z</time></trkpt><trkpt lat="42.215487008707846" lon="12.906884418920017"><ele>840.0</ele><time>2026-04-30T18:32:57Z</time></trkpt><trkpt lat="42.21561118642436" lon="12.906875581217761"><ele>840.0</ele><time>2026-04-30T18:32:58Z</time></trkpt><trkpt lat="42.21573166865892" lon="12.906902624174448"><ele>840.0</ele><time>2026-04-30T18:32:59Z</time></trkpt><trkpt lat="42.21585100847497" lon="12.906958788434974"><ele>842.0</ele><time>2026-04-30T18:33:00Z</time></trkpt><trkpt lat="42.21597471773807" lon="12.907011352693848"><ele>844.0</ele><time>2026-04-30T18:33:01Z</time></trkpt><trkpt lat="42.21609503661617" lon="12.907035983517655"><ele>846.0</ele><time>2026-04-30T18:33:02Z</time></trkpt><trkpt lat="42.2162199471245" lon="12.90701441699596"><ele>848.0</ele><time>2026-04-30T18:33:03Z</time></trkpt><trkpt lat="42.216337974800446" lon="12.906966802617971"><ele>848.0</ele><time>2026-04-30T18:33:04Z</time></trkpt><trkpt lat="42.21645323291749" lon="12.906891670543445"><ele>848.0</ele><time>2026-04-30T18:33:05Z</time></trkpt><trkpt lat="42.2165727724497" lon="12.906837955736046"><ele>848.0</ele><time>2026-04-30T18:33:06Z</time></trkpt><trkpt lat="42.216682123233" lon="12.90681503551265"><ele>848.0</ele><time>2026-04-30T18:33:07Z</time></trkpt><trkpt lat="42.21678085815275" lon="12.906824906230915"><ele>848.2</ele><time>2026-04-30T18:33:08Z</time></trkpt><trkpt lat="42.2168748456842" lon="12.906877524659654"><ele>848.4</ele><time>2026-04-30T18:33:09Z</time></trkpt><trkpt lat="42.21694154017787" lon="12.906967950921821"><ele>848.6</ele><time>2026-04-30T18:33:10Z</time></trkpt><trkpt lat="42.216999216628764" lon="12.907077412048924"><ele>848.8000000000001</ele><time>2026-04-30T18:33:11Z</time></trkpt><trkpt lat="42.217047423349435" lon="12.907208777109293"><ele>849.0</ele><time>2026-04-30T18:33:12Z</time></trkpt><trkpt lat="42.21710438604397" lon="12.907339264224385"><ele>849.0</ele><time>2026-04-30T18:33:13Z</time></trkpt><trkpt lat="42.217183667976705" lon="12.907457977248962"><ele>849.0</ele><time>2026-04-30T18:33:14Z</time></trkpt><trkpt lat="42.21727262249823" lon="12.907569963084702"><ele>849.0</ele><time>2026-04-30T18:33:15Z</time></trkpt><trkpt lat="42.21736129342471" lon="12.907685962891833"><ele>849.0</ele><time>2026-04-30T18:33:16Z</time></trkpt><trkpt lat="42.21746581936712" lon="12.907793416110485"><ele>852.75</ele><time>2026-04-30T18:33:17Z</time></trkpt><trkpt lat="42.21756735858826" lon="12.907901659382304"><ele>856.5</ele><time>2026-04-30T18:33:18Z</time></trkpt><trkpt lat="42.21766996769389" lon="12.90800000488276"><ele>860.25</ele><time>2026-04-30T18:33:19Z</time></trkpt><trkpt lat="42.21777891990322" lon="12.908071470104653"><ele>864.0</ele><time>2026-04-30T18:33:20Z</time></trkpt><trkpt lat="42.21788190059926" lon="12.908109153838618"><ele>864.0</ele><time>2026-04-30T18:33:21Z</time></trkpt><trkpt lat="42.21798395137481" lon="12.908118560930983"><ele>864.0000000000001</ele><time>2026-04-30T18:33:21.999Z</time></trkpt><trkpt lat="42.21809117774595" lon="12.90812095475193"><ele>864.0000000000001</ele><time>2026-04-30T18:33:22.998Z</time></trkpt><trkpt lat="42.218203106276924" lon="12.908132004829262"><ele>864.0</ele><time>2026-04-30T18:33:23.998Z</time></trkpt><trkpt lat="42.218293809672815" lon="12.908183680358388"><ele>864.0</ele><time>2026-04-30T18:33:24.998Z</time></trkpt><trkpt lat="42.21838729062147" lon="12.908258393137656"><ele>862.5</ele><time>2026-04-30T18:33:25.998Z</time></trkpt><trkpt lat="42.218495919012724" lon="12.908349218462217"><ele>861.0</ele><time>2026-04-30T18:33:26.998Z</time></trkpt><trkpt lat="42.21857370826157" lon="12.908484253539656"><ele>859.5</ele><time>2026-04-30T18:33:27.998Z</time></trkpt><trkpt lat="42.218675888538044" lon="12.908609178793672"><ele>858.0</ele><time>2026-04-30T18:33:28.998Z</time></trkpt><trkpt lat="42.218765092905386" lon="12.908764783066031"><ele>860.25</ele><time>2026-04-30T18:33:29.998Z</time></trkpt><trkpt lat="42.218869911940494" lon="12.908912642378482"><ele>862.5</ele><time>2026-04-30T18:33:30.998Z</time></trkpt><trkpt lat="42.21897861078902" lon="12.909048492961986"><ele>864.75</ele><time>2026-04-30T18:33:31.998Z</time></trkpt><trkpt lat="42.2190828720854" lon="12.909174422889489"><ele>867.0</ele><time>2026-04-30T18:33:32.998Z</time></trkpt><trkpt lat="42.21919091737528" lon="12.909306745448998"><ele>869.25</ele><time>2026-04-30T18:33:33.998Z</time></trkpt><trkpt lat="42.2192844355332" lon="12.909436460988934"><ele>871.5</ele><time>2026-04-30T18:33:34.998Z</time></trkpt><trkpt lat="42.21935918654033" lon="12.909575286411961"><ele>873.75</ele><time>2026-04-30T18:33:35.998Z</time></trkpt><trkpt lat="42.21942341608968" lon="12.909699854942787"><ele>876.0</ele><time>2026-04-30T18:33:36.998Z</time></trkpt><trkpt lat="42.219463025275964" lon="12.909839234363114"><ele>876.0</ele><time>2026-04-30T18:33:37.998Z</time></trkpt><trkpt lat="42.219484926797016" lon="12.909978414569665"><ele>875.9999999999999</ele><time>2026-04-30T18:33:38.998Z</time></trkpt><trkpt lat="42.21949243097742" lon="12.910116820440452"><ele>875.9999999999999</ele><time>2026-04-30T18:33:39.998Z</time></trkpt><trkpt lat="42.21948647349457" lon="12.91027091619197"><ele>876.0</ele><time>2026-04-30T18:33:40.998Z</time></trkpt><trkpt lat="42.21949143713227" lon="12.91042580807116"><ele>876.0</ele><time>2026-04-30T18:33:41.998Z</time></trkpt><trkpt lat="42.21951421992768" lon="12.910578612851106"><ele>877.25</ele><time>2026-04-30T18:33:42.998Z</time></trkpt><trkpt lat="42.21954506548132" lon="12.910735743588111"><ele>878.5</ele><time>2026-04-30T18:33:43.998Z</time></trkpt><trkpt lat="42.21957952593643" lon="12.910895081355104"><ele>879.75</ele><time>2026-04-30T18:33:44.998Z</time></trkpt><trkpt lat="42.219601770959265" lon="12.91105930008521"><ele>881.0</ele><time>2026-04-30T18:33:45.998Z</time></trkpt><trkpt lat="42.21961250246725" lon="12.91121727617903"><ele>883.0</ele><time>2026-04-30T18:33:46.998Z</time></trkpt><trkpt lat="42.21962666797201" lon="12.911372671528865"><ele>885.0</ele><time>2026-04-30T18:33:47.998Z</time></trkpt><trkpt lat="42.21965369964618" lon="12.911523193156441"><ele>887.0</ele><time>2026-04-30T18:33:48.998Z</time></trkpt><trkpt lat="42.21968387351632" lon="12.911684525424226"><ele>889.0</ele><time>2026-04-30T18:33:49.998Z</time></trkpt><trkpt lat="42.21973338841133" lon="12.911837112614188"><ele>886.75</ele><time>2026-04-30T18:33:50.998Z</time></trkpt><trkpt lat="42.21980703134743" lon="12.911977450088168"><ele>884.5</ele><time>2026-04-30T18:33:51.998Z</time></trkpt><trkpt lat="42.21988348930332" lon="12.912118526514613"><ele>882.25</ele><time>2026-04-30T18:33:52.998Z</time></trkpt><trkpt lat="42.21995251205242" lon="12.912259552111774"><ele>880.0</ele><time>2026-04-30T18:33:53.998Z</time></trkpt><trkpt lat="42.22001022370248" lon="12.912410918494768"><ele>880.0</ele><time>2026-04-30T18:33:54.998Z</time></trkpt><trkpt lat="42.220069791199435" lon="12.912564595398033"><ele>880.0</ele><time>2026-04-30T18:33:55.998Z</time></trkpt><trkpt lat="42.22012718673329" lon="12.912704433558996"><ele>880.0</ele><time>2026-04-30T18:33:56.998Z</time></trkpt><trkpt lat="42.22021049341469" lon="12.91284398279387"><ele>880.0</ele><time>2026-04-30T18:33:57.998Z</time></trkpt><trkpt lat="42.22029395038089" lon="12.912966120815911"><ele>884.25</ele><time>2026-04-30T18:33:58.998Z</time></trkpt><trkpt lat="42.220374541228026" lon="12.913096626749537"><ele>888.5</ele><time>2026-04-30T18:33:59.998Z</time></trkpt><trkpt lat="42.22044603285998" lon="12.91323441202977"><ele>892.75</ele><time>2026-04-30T18:34:00.998Z</time></trkpt><trkpt lat="42.220508015720206" lon="12.913364050239789"><ele>897.0</ele><time>2026-04-30T18:34:01.998Z</time></trkpt><trkpt lat="42.220572521595585" lon="12.913455039857572"><ele>897.2</ele><time>2026-04-30T18:34:02.998Z</time></trkpt><trkpt lat="42.22064438731773" lon="12.913502141071492"><ele>897.4000000000001</ele><time>2026-04-30T18:34:03.998Z</time></trkpt><trkpt lat="42.22071896831812" lon="12.913508821513577"><ele>897.5999999999999</ele><time>2026-04-30T18:34:04.998Z</time></trkpt><trkpt lat="42.22080764036432" lon="12.913497056585538"><ele>897.8</ele><time>2026-04-30T18:34:05.998Z</time></trkpt><trkpt lat="42.22090669175531" lon="12.913471686946329"><ele>898.0</ele><time>2026-04-30T18:34:06.998Z</time></trkpt><trkpt lat="42.22101270394176" lon="12.913442239819842"><ele>898.75</ele><time>2026-04-30T18:34:07.998Z</time></trkpt><trkpt lat="42.221129846099345" lon="12.91341266796337"><ele>899.5</ele><time>2026-04-30T18:34:08.998Z</time></trkpt><trkpt lat="42.22124119590951" lon="12.913410761500899"><ele>900.25</ele><time>2026-04-30T18:34:09.998Z</time></trkpt><trkpt lat="42.221355283492976" lon="12.91343585008846"><ele>901.0</ele><time>2026-04-30T18:34:10.998Z</time></trkpt><trkpt lat="42.22147591977354" lon="12.913483580304312"><ele>902.25</ele><time>2026-04-30T18:34:11.998Z</time></trkpt><trkpt lat="42.22160182046242" lon="12.91352517237053"><ele>903.5</ele><time>2026-04-30T18:34:12.998Z</time></trkpt><trkpt lat="42.22173166424751" lon="12.913542598904312"><ele>904.75</ele><time>2026-04-30T18:34:13.998Z</time></trkpt><trkpt lat="42.221865781343" lon="12.913537243647813"><ele>906.0</ele><time>2026-04-30T18:34:14.998Z</time></trkpt><trkpt lat="42.22200519861932" lon="12.913516082029828"><ele>906.0</ele><time>2026-04-30T18:34:15.998Z</time></trkpt><trkpt lat="42.22214876501856" lon="12.913492570426659"><ele>906.0</ele><time>2026-04-30T18:34:16.998Z</time></trkpt><trkpt lat="42.222291694768195" lon="12.91348271223718"><ele>906.0</ele><time>2026-04-30T18:34:17.998Z</time></trkpt><trkpt lat="42.222437503902476" lon="12.91348612012408"><ele>906.0</ele><time>2026-04-30T18:34:18.999Z</time></trkpt><trkpt lat="42.22258073818096" lon="12.913492564272584"><ele>905.25</ele><time>2026-04-30T18:34:19.999Z</time></trkpt><trkpt lat="42.222718857539846" lon="12.913475327964848"><ele>904.5</ele><time>2026-04-30T18:34:20.999Z</time></trkpt><trkpt lat="42.22284762437339" lon="12.913425773722835"><ele>903.75</ele><time>2026-04-30T18:34:21.999Z</time></trkpt><trkpt lat="42.222959474347334" lon="12.913347302512"><ele>903.0</ele><time>2026-04-30T18:34:22.999Z</time></trkpt><trkpt lat="42.22304624438406" lon="12.91324523869866"><ele>901.8333333333334</ele><time>2026-04-30T18:34:23.999Z</time></trkpt><trkpt lat="42.22311458930402" lon="12.913138801623072"><ele>900.6666666666667</ele><time>2026-04-30T18:34:24.999Z</time></trkpt><trkpt lat="42.22317991249896" lon="12.913063271920695"><ele>899.5</ele><time>2026-04-30T18:34:25.999Z</time></trkpt><trkpt lat="42.22324949853956" lon="12.91303366489209"><ele>898.3333333333334</ele><time>2026-04-30T18:34:26.999Z</time></trkpt><trkpt lat="42.2233160052173" lon="12.91305824532373"><ele>897.1666666666667</ele><time>2026-04-30T18:34:27.999Z</time></trkpt><trkpt lat="42.22337549695236" lon="12.913112708670356"><ele>896.0</ele><time>2026-04-30T18:34:28.999Z</time></trkpt><trkpt lat="42.22341931884862" lon="12.913211455821742"><ele>896.0</ele><time>2026-04-30T18:34:29.999Z</time></trkpt><trkpt lat="42.223451417038746" lon="12.913331955832927"><ele>895.9999999999999</ele><time>2026-04-30T18:34:30.999Z</time></trkpt><trkpt lat="42.2234824486073" lon="12.913465133746765"><ele>895.9999999999999</ele><time>2026-04-30T18:34:31.999Z</time></trkpt><trkpt lat="42.223515965044434" lon="12.913605951053002"><ele>896.0</ele><time>2026-04-30T18:34:32.999Z</time></trkpt><trkpt lat="42.223558996761156" lon="12.913730929863387"><ele>896.0</ele><time>2026-04-30T18:34:33.999Z</time></trkpt><trkpt lat="42.223618764391205" lon="12.913859808458332"><ele>898.5</ele><time>2026-04-30T18:34:34.999Z</time></trkpt><trkpt lat="42.22369100153273" lon="12.913984547153179"><ele>901.0</ele><time>2026-04-30T18:34:35.999Z</time></trkpt><trkpt lat="42.22376712555469" lon="12.914113597359913"><ele>903.5</ele><time>2026-04-30T18:34:36.999Z</time></trkpt><trkpt lat="42.223846621886516" lon="12.914244223598024"><ele>906.0</ele><time>2026-04-30T18:34:37.999Z</time></trkpt><trkpt lat="42.22392648679133" lon="12.914377111989383"><ele>904.75</ele><time>2026-04-30T18:34:38.999Z</time></trkpt><trkpt lat="42.224000782002896" lon="12.914513715411175"><ele>903.5</ele><time>2026-04-30T18:34:39.999Z</time></trkpt><trkpt lat="42.22406431526536" lon="12.914653734434372"><ele>902.25</ele><time>2026-04-30T18:34:40.999Z</time></trkpt><trkpt lat="42.22412110182851" lon="12.914791173999227"><ele>901.0</ele><time>2026-04-30T18:34:41.999Z</time></trkpt><trkpt lat="42.2241762672854" lon="12.914919916976581"><ele>901.0</ele><time>2026-04-30T18:34:42.999Z</time></trkpt><trkpt lat="42.22422746943836" lon="12.915044792296245"><ele>900.9999999999999</ele><time>2026-04-30T18:34:43.999Z</time></trkpt><trkpt lat="42.22426634607546" lon="12.9151670754557"><ele>900.9999999999999</ele><time>2026-04-30T18:34:44.999Z</time></trkpt><trkpt lat="42.224294952488606" lon="12.915282113206322"><ele>901.0</ele><time>2026-04-30T18:34:45.999Z</time></trkpt><trkpt lat="42.22431765919675" lon="12.91540344080462"><ele>901.0</ele><time>2026-04-30T18:34:46.999Z</time></trkpt><trkpt lat="42.22433233492974" lon="12.915525257411486"><ele>901.0</ele><time>2026-04-30T18:34:47.999Z</time></trkpt><trkpt lat="42.22433636286882" lon="12.915654004197393"><ele>900.9999999999999</ele><time>2026-04-30T18:34:48.999Z</time></trkpt><trkpt lat="42.22433299700663" lon="12.91579198168053"><ele>900.9999999999999</ele><time>2026-04-30T18:34:49.999Z</time></trkpt><trkpt lat="42.22432666094918" lon="12.915933579704854"><ele>901.0</ele><time>2026-04-30T18:34:50.999Z</time></trkpt><trkpt lat="42.224341488263384" lon="12.916065933693647"><ele>901.0</ele><time>2026-04-30T18:34:51.999Z</time></trkpt><trkpt lat="42.224382710164555" lon="12.916173436986647"><ele>901.0</ele><time>2026-04-30T18:34:52.999Z</time></trkpt><trkpt lat="42.224446854988116" lon="12.91625220899453"><ele>900.9999999999999</ele><time>2026-04-30T18:34:53.999Z</time></trkpt><trkpt lat="42.22452986247856" lon="12.916298481843961"><ele>900.9999999999999</ele><time>2026-04-30T18:34:54.999Z</time></trkpt><trkpt lat="42.22463048005491" lon="12.916333606298387"><ele>901.0</ele><time>2026-04-30T18:34:55.999Z</time></trkpt><trkpt lat="42.22474582088701" lon="12.91635780035536"><ele>901.0</ele><time>2026-04-30T18:34:56.999Z</time></trkpt><trkpt lat="42.22486972622575" lon="12.916388793328533"><ele>897.5</ele><time>2026-04-30T18:34:57.999Z</time></trkpt><trkpt lat="42.224990053325456" lon="12.916416816344132"><ele>894.0</ele><time>2026-04-30T18:34:58.999Z</time></trkpt><trkpt lat="42.22510810152688" lon="12.916439514578558"><ele>890.5</ele><time>2026-04-30T18:34:59.999Z</time></trkpt><trkpt lat="42.22521888692686" lon="12.916465063998569"><ele>887.0</ele><time>2026-04-30T18:35:00.999Z</time></trkpt><trkpt lat="42.22532450347353" lon="12.91650527802724"><ele>887.0</ele><time>2026-04-30T18:35:01.999Z</time></trkpt><trkpt lat="42.225423233909254" lon="12.916563925356186"><ele>887.0</ele><time>2026-04-30T18:35:02.999Z</time></trkpt><trkpt lat="42.22552035068969" lon="12.916633946121463"><ele>887.0</ele><time>2026-04-30T18:35:03.999Z</time></trkpt><trkpt lat="42.225617902696406" lon="12.916699502127209"><ele>887.0</ele><time>2026-04-30T18:35:04.999Z</time></trkpt><trkpt lat="42.22570905655828" lon="12.916756319326343"><ele>887.0</ele><time>2026-04-30T18:35:05.999Z</time></trkpt><trkpt lat="42.22579060265613" lon="12.916824251291438"><ele>884.0</ele><time>2026-04-30T18:35:06.999Z</time></trkpt><trkpt lat="42.22585809404469" lon="12.91692083186901"><ele>881.0</ele><time>2026-04-30T18:35:07.999Z</time></trkpt><trkpt lat="42.2259102482913" lon="12.917042267498198"><ele>878.0</ele><time>2026-04-30T18:35:08.999Z</time></trkpt><trkpt lat="42.2259543749861" lon="12.917176462853254"><ele>875.0</ele><time>2026-04-30T18:35:09.999Z</time></trkpt><trkpt lat="42.22600021633226" lon="12.91732228862062"><ele>872.0</ele><time>2026-04-30T18:35:10.999Z</time></trkpt><trkpt lat="42.226054019954574" lon="12.917473553302079"><ele>871.0</ele><time>2026-04-30T18:35:11.999Z</time></trkpt><trkpt lat="42.2261230488796" lon="12.917617545612465"><ele>870.0</ele><time>2026-04-30T18:35:12.999Z</time></trkpt><trkpt lat="42.226203651321775" lon="12.917754547047414"><ele>869.0</ele><time>2026-04-30T18:35:13.999Z</time></trkpt><trkpt lat="42.22629591955847" lon="12.917877796960584"><ele>868.0</ele><time>2026-04-30T18:35:14.999Z</time></trkpt><trkpt lat="42.22639313651414" lon="12.917977742072202"><ele>866.4</ele><time>2026-04-30T18:35:15.999Z</time></trkpt><trkpt lat="42.226481796916204" lon="12.918056876067366"><ele>864.8</ele><time>2026-04-30T18:35:16.999Z</time></trkpt><trkpt lat="42.226553823389565" lon="12.91812049203081"><ele>863.2</ele><time>2026-04-30T18:35:17.999Z</time></trkpt><trkpt lat="42.22660665358794" lon="12.91818103041355"><ele>861.6</ele><time>2026-04-30T18:35:18.999Z</time></trkpt><trkpt lat="42.22665868683351" lon="12.91832101905957"><ele>860.0</ele><time>2026-04-30T18:35:20.999Z</time></trkpt><trkpt lat="42.226599340381846" lon="12.918466754026747"><ele>860.0</ele><time>2026-04-30T18:35:22.999Z</time></trkpt><trkpt lat="42.226518876145896" lon="12.918511038050687"><ele>860.0</ele><time>2026-04-30T18:35:23.999Z</time></trkpt><trkpt lat="42.226421789868205" lon="12.91854426784215"><ele>860.0</ele><time>2026-04-30T18:35:24.999Z</time></trkpt><trkpt lat="42.22632131751847" lon="12.918581860656202"><ele>860.0</ele><time>2026-04-30T18:35:25.999Z</time></trkpt><trkpt lat="42.22623612749872" lon="12.918642082771228"><ele>860.0</ele><time>2026-04-30T18:35:26.999Z</time></trkpt><trkpt lat="42.22616843345819" lon="12.918735279612786"><ele>860.0</ele><time>2026-04-30T18:35:27.999Z</time></trkpt><trkpt lat="42.226119622068275" lon="12.918853522770961"><ele>860.0</ele><time>2026-04-30T18:35:28.998Z</time></trkpt><trkpt lat="42.226082003938" lon="12.918987545036439"><ele>860.0</ele><time>2026-04-30T18:35:29.998Z</time></trkpt><trkpt lat="42.22604116889887" lon="12.919127465816986"><ele>860.0</ele><time>2026-04-30T18:35:30.998Z</time></trkpt><trkpt lat="42.22599235417349" lon="12.91926199259047"><ele>860.0</ele><time>2026-04-30T18:35:31.998Z</time></trkpt><trkpt lat="42.22593318900573" lon="12.919388403011173"><ele>859.0</ele><time>2026-04-30T18:35:32.998Z</time></trkpt><trkpt lat="42.22586413370056" lon="12.919510261927238"><ele>858.0</ele><time>2026-04-30T18:35:33.998Z</time></trkpt><trkpt lat="42.225785607379926" lon="12.919624074966679"><ele>857.0</ele><time>2026-04-30T18:35:34.998Z</time></trkpt><trkpt lat="42.22569735558941" lon="12.919725479039126"><ele>856.0</ele><time>2026-04-30T18:35:35.998Z</time></trkpt><trkpt lat="42.22560121754285" lon="12.919808075861988"><ele>856.0</ele><time>2026-04-30T18:35:36.998Z</time></trkpt><trkpt lat="42.225501049156065" lon="12.919874144761634"><ele>855.9999999999999</ele><time>2026-04-30T18:35:37.998Z</time></trkpt><trkpt lat="42.22540438538682" lon="12.919937703547726"><ele>855.9999999999999</ele><time>2026-04-30T18:35:38.998Z</time></trkpt><trkpt lat="42.22531941391563" lon="12.920003804905196"><ele>856.0</ele><time>2026-04-30T18:35:39.998Z</time></trkpt><trkpt lat="42.225247285878474" lon="12.92007748173811"><ele>856.0</ele><time>2026-04-30T18:35:40.998Z</time></trkpt><trkpt lat="42.22519101350914" lon="12.920175408842292"><ele>853.0</ele><time>2026-04-30T18:35:41.998Z</time></trkpt><trkpt lat="42.22514759066311" lon="12.920298872243254"><ele>849.9999999999999</ele><time>2026-04-30T18:35:42.998Z</time></trkpt><trkpt lat="42.22511328855621" lon="12.920437327938627"><ele>847.0</ele><time>2026-04-30T18:35:43.998Z</time></trkpt><trkpt lat="42.22507700647577" lon="12.920582819708615"><ele>844.0</ele><time>2026-04-30T18:35:44.998Z</time></trkpt><trkpt lat="42.22502790373731" lon="12.92073380736304"><ele>841.0</ele><time>2026-04-30T18:35:45.998Z</time></trkpt><trkpt lat="42.224972553975974" lon="12.920886658214458"><ele>844.5</ele><time>2026-04-30T18:35:46.998Z</time></trkpt><trkpt lat="42.224913494249925" lon="12.921034345749598"><ele>848.0</ele><time>2026-04-30T18:35:47.998Z</time></trkpt><trkpt lat="42.224854926854725" lon="12.92117927589048"><ele>851.5</ele><time>2026-04-30T18:35:48.998Z</time></trkpt><trkpt lat="42.2248020433862" lon="12.921324829767931"><ele>855.0</ele><time>2026-04-30T18:35:49.998Z</time></trkpt><trkpt lat="42.224756076525175" lon="12.921472425533075"><ele>855.0</ele><time>2026-04-30T18:35:50.998Z</time></trkpt><trkpt lat="42.224717716709286" lon="12.921617867279558"><ele>855.0</ele><time>2026-04-30T18:35:51.998Z</time></trkpt><trkpt lat="42.22467671882447" lon="12.921752544722832"><ele>855.0</ele><time>2026-04-30T18:35:52.998Z</time></trkpt><trkpt lat="42.224590161836076" lon="12.921853075306066"><ele>855.0</ele><time>2026-04-30T18:35:53.998Z</time></trkpt><trkpt lat="42.22452050322496" lon="12.921955969031863"><ele>855.0</ele><time>2026-04-30T18:35:54.998Z</time></trkpt><trkpt lat="42.22443991617947" lon="12.922051694683908"><ele>850.8</ele><time>2026-04-30T18:35:55.998Z</time></trkpt><trkpt lat="42.224357630454755" lon="12.922140941533014"><ele>846.6</ele><time>2026-04-30T18:35:56.998Z</time></trkpt><trkpt lat="42.224278974077606" lon="12.922232802581325"><ele>842.4000000000001</ele><time>2026-04-30T18:35:57.998Z</time></trkpt><trkpt lat="42.22421383444431" lon="12.922351701587647"><ele>838.2</ele><time>2026-04-30T18:35:58.998Z</time></trkpt><trkpt lat="42.22417363670189" lon="12.922503669230435"><ele>834.0</ele><time>2026-04-30T18:35:59.998Z</time></trkpt><trkpt lat="42.22417956011041" lon="12.922662528675977"><ele>830.2</ele><time>2026-04-30T18:36:00.998Z</time></trkpt><trkpt lat="42.224178619503505" lon="12.922799804825635"><ele>826.4000000000001</ele><time>2026-04-30T18:36:01.998Z</time></trkpt><trkpt lat="42.22416041262262" lon="12.922926305463664"><ele>822.6</ele><time>2026-04-30T18:36:02.998Z</time></trkpt><trkpt lat="42.224131597335045" lon="12.923051746204465"><ele>818.8</ele><time>2026-04-30T18:36:03.998Z</time></trkpt><trkpt lat="42.22408815972137" lon="12.923160112730455"><ele>815.0</ele><time>2026-04-30T18:36:04.998Z</time></trkpt><trkpt lat="42.22402835879277" lon="12.923288021475985"><ele>815.4</ele><time>2026-04-30T18:36:05.998Z</time></trkpt><trkpt lat="42.223963644414155" lon="12.92341192671812"><ele>815.8</ele><time>2026-04-30T18:36:06.998Z</time></trkpt><trkpt lat="42.22390612301781" lon="12.923534573408174"><ele>816.2</ele><time>2026-04-30T18:36:07.998Z</time></trkpt><trkpt lat="42.223863555077656" lon="12.923646281442084"><ele>816.6</ele><time>2026-04-30T18:36:08.998Z</time></trkpt><trkpt lat="42.22384642676306" lon="12.923758408684323"><ele>817.0</ele><time>2026-04-30T18:36:09.998Z</time></trkpt><trkpt lat="42.22385720567569" lon="12.923854052170622"><ele>817.0</ele><time>2026-04-30T18:36:10.998Z</time></trkpt><trkpt lat="42.223924088523695" lon="12.923941560258772"><ele>817.0</ele><time>2026-04-30T18:36:11.998Z</time></trkpt><trkpt lat="42.22401801909622" lon="12.923950765586227"><ele>817.0</ele><time>2026-04-30T18:36:12.998Z</time></trkpt><trkpt lat="42.224109528059735" lon="12.923916405557415"><ele>817.0</ele><time>2026-04-30T18:36:13.998Z</time></trkpt><trkpt lat="42.22419118475658" lon="12.923842891898031"><ele>817.0</ele><time>2026-04-30T18:36:14.998Z</time></trkpt><trkpt lat="42.224284215541054" lon="12.92374411489729"><ele>816.5</ele><time>2026-04-30T18:36:15.998Z</time></trkpt><trkpt lat="42.22437235360468" lon="12.923633077923169"><ele>816.0</ele><time>2026-04-30T18:36:16.998Z</time></trkpt><trkpt lat="42.22443735563752" lon="12.923507470218256"><ele>815.5</ele><time>2026-04-30T18:36:17.998Z</time></trkpt><trkpt lat="42.224502350468065" lon="12.923362891752475"><ele>815.0</ele><time>2026-04-30T18:36:18.998Z</time></trkpt><trkpt lat="42.22454829108426" lon="12.923211360860531"><ele>815.0</ele><time>2026-04-30T18:36:19.998Z</time></trkpt><trkpt lat="42.22460245803745" lon="12.92305776269344"><ele>815.0</ele><time>2026-04-30T18:36:20.998Z</time></trkpt><trkpt lat="42.22467059799366" lon="12.922946524302704"><ele>815.0</ele><time>2026-04-30T18:36:21.998Z</time></trkpt><trkpt lat="42.22471939282143" lon="12.922825950486715"><ele>815.0</ele><time>2026-04-30T18:36:22.998Z</time></trkpt><trkpt lat="42.22481066706814" lon="12.922830481297284"><ele>815.0</ele><time>2026-04-30T18:36:23.998Z</time></trkpt><trkpt lat="42.22484138306804" lon="12.922905486285208"><ele>815.0</ele><time>2026-04-30T18:36:25Z</time></trkpt><trkpt lat="42.22487404905821" lon="12.923009249286862"><ele>815.0</ele><time>2026-04-30T18:36:28Z</time></trkpt><trkpt lat="42.22481179480206" lon="12.92295669996198"><ele>815.0</ele><time>2026-04-30T18:36:29Z</time></trkpt><trkpt lat="42.224819777635325" lon="12.923139137739335"><ele>815.0</ele><time>2026-04-30T18:36:31Z</time></trkpt><trkpt lat="42.22477528652712" lon="12.923258237463854"><ele>815.0</ele><time>2026-04-30T18:36:32Z</time></trkpt><trkpt lat="42.22470506891092" lon="12.923454013305898"><ele>811.5</ele><time>2026-04-30T18:36:33Z</time></trkpt><trkpt lat="42.22466595753693" lon="12.923602906175857"><ele>808.0</ele><time>2026-04-30T18:36:34Z</time></trkpt><trkpt lat="42.224640383484235" lon="12.923745935514667"><ele>804.5</ele><time>2026-04-30T18:36:35Z</time></trkpt><trkpt lat="42.2246034212745" lon="12.923952656110867"><ele>801.0</ele><time>2026-04-30T18:36:36Z</time></trkpt><trkpt lat="42.22456868473465" lon="12.92414692908295"><ele>797.6666666666667</ele><time>2026-04-30T18:36:37Z</time></trkpt><trkpt lat="42.224534090263965" lon="12.924327294159188"><ele>794.3333333333334</ele><time>2026-04-30T18:36:38Z</time></trkpt><trkpt lat="42.22446183166017" lon="12.924570852155592"><ele>791.0</ele><time>2026-04-30T18:36:39Z</time></trkpt><trkpt lat="42.22439276530745" lon="12.924729031268239"><ele>791.0</ele><time>2026-04-30T18:36:40Z</time></trkpt><trkpt lat="42.224299101158564" lon="12.924865122375012"><ele>791.0</ele><time>2026-04-30T18:36:41Z</time></trkpt><trkpt lat="42.22418680786283" lon="12.925045889383496"><ele>791.0</ele><time>2026-04-30T18:36:41.999Z</time></trkpt><trkpt lat="42.224111877023404" lon="12.925208824198686"><ele>789.5</ele><time>2026-04-30T18:36:42.999Z</time></trkpt><trkpt lat="42.22403004461443" lon="12.92532586343199"><ele>788.0</ele><time>2026-04-30T18:36:43.999Z</time></trkpt><trkpt lat="42.223914937522544" lon="12.925381920494978"><ele>786.5</ele><time>2026-04-30T18:36:44.999Z</time></trkpt><trkpt lat="42.223805234805795" lon="12.925468647502782"><ele>785.0</ele><time>2026-04-30T18:36:45.999Z</time></trkpt><trkpt lat="42.223705777701475" lon="12.92557387009051"><ele>785.0</ele><time>2026-04-30T18:36:46.999Z</time></trkpt><trkpt lat="42.22365782758386" lon="12.925740150100259"><ele>785.0</ele><time>2026-04-30T18:36:47.999Z</time></trkpt><trkpt lat="42.22359474846789" lon="12.92589182691371"><ele>785.0</ele><time>2026-04-30T18:36:48.999Z</time></trkpt><trkpt lat="42.223521338383506" lon="12.926008995171177"><ele>785.0</ele><time>2026-04-30T18:36:49.999Z</time></trkpt><trkpt lat="42.22344852602253" lon="12.926115183416226"><ele>785.75</ele><time>2026-04-30T18:36:50.999Z</time></trkpt><trkpt lat="42.2233562020718" lon="12.926187139764894"><ele>786.5</ele><time>2026-04-30T18:36:51.999Z</time></trkpt><trkpt lat="42.22325074349911" lon="12.92626237749738"><ele>787.25</ele><time>2026-04-30T18:36:52.999Z</time></trkpt><trkpt lat="42.22314079901823" lon="12.926353240344318"><ele>788.0</ele><time>2026-04-30T18:36:53.999Z</time></trkpt><trkpt lat="42.223040588408175" lon="12.926456733823256"><ele>788.0</ele><time>2026-04-30T18:36:54.999Z</time></trkpt><trkpt lat="42.22296556940146" lon="12.926591724581396"><ele>788.0</ele><time>2026-04-30T18:36:55.999Z</time></trkpt><trkpt lat="42.22289581942424" lon="12.926728039409703"><ele>788.0</ele><time>2026-04-30T18:36:56.999Z</time></trkpt><trkpt lat="42.22284255872207" lon="12.926875878253266"><ele>788.0</ele><time>2026-04-30T18:36:57.999Z</time></trkpt><trkpt lat="42.22279747543162" lon="12.927020426031325"><ele>784.5</ele><time>2026-04-30T18:36:58.999Z</time></trkpt><trkpt lat="42.222747506417164" lon="12.927163539703994"><ele>781.0</ele><time>2026-04-30T18:36:59.999Z</time></trkpt><trkpt lat="42.222678494770776" lon="12.927294247684543"><ele>777.5</ele><time>2026-04-30T18:37:00.999Z</time></trkpt><trkpt lat="42.222617899810416" lon="12.927435198217877"><ele>774.0</ele><time>2026-04-30T18:37:01.999Z</time></trkpt><trkpt lat="42.22256256984445" lon="12.927582811859267"><ele>772.0</ele><time>2026-04-30T18:37:02.999Z</time></trkpt><trkpt lat="42.22251470870364" lon="12.927731786337764"><ele>770.0</ele><time>2026-04-30T18:37:03.999Z</time></trkpt><trkpt lat="42.22247980659795" lon="12.92788252567512"><ele>768.0</ele><time>2026-04-30T18:37:04.999Z</time></trkpt><trkpt lat="42.222463709972445" lon="12.92802486298733"><ele>766.0</ele><time>2026-04-30T18:37:05.999Z</time></trkpt><trkpt lat="42.222493557751804" lon="12.92816215270736"><ele>766.0</ele><time>2026-04-30T18:37:06.999Z</time></trkpt><trkpt lat="42.22252102949554" lon="12.928297800254146"><ele>766.0</ele><time>2026-04-30T18:37:07.999Z</time></trkpt><trkpt lat="42.222555044800615" lon="12.928446004760266"><ele>766.0</ele><time>2026-04-30T18:37:08.999Z</time></trkpt><trkpt lat="42.22259934304506" lon="12.92859255381312"><ele>766.0</ele><time>2026-04-30T18:37:09.999Z</time></trkpt><trkpt lat="42.22264271760061" lon="12.928743043368497"><ele>764.5</ele><time>2026-04-30T18:37:10.999Z</time></trkpt><trkpt lat="42.222673461315594" lon="12.928885592994499"><ele>763.0</ele><time>2026-04-30T18:37:11.999Z</time></trkpt><trkpt lat="42.22268164755169" lon="12.929033990404093"><ele>761.5</ele><time>2026-04-30T18:37:12.999Z</time></trkpt><trkpt lat="42.222677792440315" lon="12.929190069119311"><ele>760.0</ele><time>2026-04-30T18:37:13.999Z</time></trkpt><trkpt lat="42.22266499020324" lon="12.929342935803202"><ele>757.8</ele><time>2026-04-30T18:37:14.999Z</time></trkpt><trkpt lat="42.22264251519823" lon="12.929493691129249"><ele>755.6</ele><time>2026-04-30T18:37:15.999Z</time></trkpt><trkpt lat="42.22261350300294" lon="12.929626761132448"><ele>753.4000000000001</ele><time>2026-04-30T18:37:16.999Z</time></trkpt><trkpt lat="42.22258203366304" lon="12.929738745042847"><ele>751.2</ele><time>2026-04-30T18:37:17.999Z</time></trkpt><trkpt lat="42.222541869063846" lon="12.929832023178355"><ele>749.0</ele><time>2026-04-30T18:37:18.999Z</time></trkpt><trkpt lat="42.222491215638996" lon="12.92991909120954"><ele>749.0</ele><time>2026-04-30T18:37:19.999Z</time></trkpt><trkpt lat="42.22242280454391" lon="12.929966802645298"><ele>749.0</ele><time>2026-04-30T18:37:20.999Z</time></trkpt><trkpt lat="42.22233865713778" lon="12.929946677405907"><ele>749.0</ele><time>2026-04-30T18:37:21.999Z</time></trkpt><trkpt lat="42.22224397139206" lon="12.929951097870529"><ele>749.0</ele><time>2026-04-30T18:37:22.999Z</time></trkpt><trkpt lat="42.22214345528254" lon="12.929951916975968"><ele>749.0</ele><time>2026-04-30T18:37:23.999Z</time></trkpt><trkpt lat="42.22204400850323" lon="12.929950439930476"><ele>749.2</ele><time>2026-04-30T18:37:24.999Z</time></trkpt><trkpt lat="42.22193489400375" lon="12.929952121679186"><ele>749.4000000000001</ele><time>2026-04-30T18:37:25.999Z</time></trkpt><trkpt lat="42.2218243406234" lon="12.929983980615154"><ele>749.6</ele><time>2026-04-30T18:37:26.999Z</time></trkpt><trkpt lat="42.22172669566493" lon="12.93002880458061"><ele>749.8</ele><time>2026-04-30T18:37:27.999Z</time></trkpt><trkpt lat="42.22163147732719" lon="12.930055276816322"><ele>750.0</ele><time>2026-04-30T18:37:28.999Z</time></trkpt><trkpt lat="42.22154478700472" lon="12.930051572570022"><ele>749.8333333333334</ele><time>2026-04-30T18:37:29.999Z</time></trkpt><trkpt lat="42.221458021719634" lon="12.930011462454841"><ele>749.6666666666666</ele><time>2026-04-30T18:37:30.999Z</time></trkpt><trkpt lat="42.22137131011601" lon="12.929962639183739"><ele>749.5</ele><time>2026-04-30T18:37:31.999Z</time></trkpt><trkpt lat="42.22130709380368" lon="12.929946047472802"><ele>749.3333333333333</ele><time>2026-04-30T18:37:32.999Z</time></trkpt><trkpt lat="42.2212387785449" lon="12.929979854183458"><ele>749.1666666666666</ele><time>2026-04-30T18:37:33.999Z</time></trkpt><trkpt lat="42.2211863148447" lon="12.930046758445307"><ele>749.0</ele><time>2026-04-30T18:37:34.999Z</time></trkpt><trkpt lat="42.22117340855984" lon="12.930157535408977"><ele>749.0</ele><time>2026-04-30T18:37:35.999Z</time></trkpt><trkpt lat="42.22119354692257" lon="12.930242955521539"><ele>749.0</ele><time>2026-04-30T18:37:36.999Z</time></trkpt><trkpt lat="42.22124562510824" lon="12.93030967503356"><ele>749.0</ele><time>2026-04-30T18:37:37.999Z</time></trkpt><trkpt lat="42.221289955811" lon="12.930468858677486"><ele>749.0</ele><time>2026-04-30T18:37:39.998Z</time></trkpt><trkpt lat="42.22132796642464" lon="12.930555147206139"><ele>749.0</ele><time>2026-04-30T18:37:40.998Z</time></trkpt><trkpt lat="42.2213707471232" lon="12.930637531794046"><ele>749.0</ele><time>2026-04-30T18:37:41.998Z</time></trkpt><trkpt lat="42.22140376357023" lon="12.930719418563395"><ele>749.0</ele><time>2026-04-30T18:37:42.998Z</time></trkpt><trkpt lat="42.22143357276365" lon="12.930807416008031"><ele>749.0</ele><time>2026-04-30T18:37:43.998Z</time></trkpt><trkpt lat="42.22140937893382" lon="12.930904594487991"><ele>749.0</ele><time>2026-04-30T18:37:44.998Z</time></trkpt><trkpt lat="42.2213828344561" lon="12.931005004850462"><ele>749.0</ele><time>2026-04-30T18:37:45.998Z</time></trkpt><trkpt lat="42.22134328905509" lon="12.931108252685668"><ele>749.0</ele><time>2026-04-30T18:37:46.998Z</time></trkpt><trkpt lat="42.2213159003293" lon="12.931217508144579"><ele>749.0</ele><time>2026-04-30T18:37:47.998Z</time></trkpt><trkpt lat="42.22129657466475" lon="12.931325649311487"><ele>745.6666666666666</ele><time>2026-04-30T18:37:48.998Z</time></trkpt><trkpt lat="42.2212948469123" lon="12.931446328779488"><ele>742.3333333333333</ele><time>2026-04-30T18:37:49.998Z</time></trkpt><trkpt lat="42.221313215602216" lon="12.931560223498517"><ele>739.0</ele><time>2026-04-30T18:37:50.998Z</time></trkpt><trkpt lat="42.22137322148376" lon="12.931647763559608"><ele>735.6666666666666</ele><time>2026-04-30T18:37:51.998Z</time></trkpt><trkpt lat="42.221429251307" lon="12.93173323976661"><ele>732.3333333333334</ele><time>2026-04-30T18:37:52.998Z</time></trkpt><trkpt lat="42.22149455035683" lon="12.931805846681282"><ele>729.0</ele><time>2026-04-30T18:37:53.998Z</time></trkpt><trkpt lat="42.221554319228204" lon="12.931883650689285"><ele>728.8000000000001</ele><time>2026-04-30T18:37:54.998Z</time></trkpt><trkpt lat="42.22161482866049" lon="12.93196653162545"><ele>728.6</ele><time>2026-04-30T18:37:55.998Z</time></trkpt><trkpt lat="42.22168152910122" lon="12.932047420732388"><ele>728.4</ele><time>2026-04-30T18:37:56.998Z</time></trkpt><trkpt lat="42.2217522389281" lon="12.93213675429606"><ele>728.2</ele><time>2026-04-30T18:37:57.998Z</time></trkpt><trkpt lat="42.221825002458864" lon="12.932236000752075"><ele>728.0</ele><time>2026-04-30T18:37:58.998Z</time></trkpt><trkpt lat="42.22189997759445" lon="12.932344909526304"><ele>728.0</ele><time>2026-04-30T18:37:59.998Z</time></trkpt><trkpt lat="42.221986337349506" lon="12.93243669046876"><ele>728.0</ele><time>2026-04-30T18:38:00.998Z</time></trkpt><trkpt lat="42.222079647809274" lon="12.932516241810683"><ele>728.0</ele><time>2026-04-30T18:38:01.998Z</time></trkpt><trkpt lat="42.22217296748752" lon="12.932591226662986"><ele>728.0</ele><time>2026-04-30T18:38:02.998Z</time></trkpt><trkpt lat="42.222256185648476" lon="12.932671178603727"><ele>728.0</ele><time>2026-04-30T18:38:03.998Z</time></trkpt><trkpt lat="42.2223107254692" lon="12.932758507860589"><ele>725.5</ele><time>2026-04-30T18:38:04.998Z</time></trkpt><trkpt lat="42.2223082298109" lon="12.932855664876575"><ele>723.0</ele><time>2026-04-30T18:38:05.998Z</time></trkpt><trkpt lat="42.2222452273171" lon="12.932975905767677"><ele>720.5</ele><time>2026-04-30T18:38:07.998Z</time></trkpt><trkpt lat="42.22216246458711" lon="12.932958147957736"><ele>718.0</ele><time>2026-04-30T18:38:08.998Z</time></trkpt><trkpt lat="42.22209004205216" lon="12.932935800141356"><ele>715.5</ele><time>2026-04-30T18:38:09.998Z</time></trkpt><trkpt lat="42.222016207990706" lon="12.932882197099797"><ele>713.0</ele><time>2026-04-30T18:38:10.998Z</time></trkpt><trkpt lat="42.22191762206353" lon="12.932843213161158"><ele>713.0</ele><time>2026-04-30T18:38:11.998Z</time></trkpt><trkpt lat="42.221815826540656" lon="12.932779202838642"><ele>713.0</ele><time>2026-04-30T18:38:12.998Z</time></trkpt><trkpt lat="42.221718670501005" lon="12.932691125638014"><ele>713.0</ele><time>2026-04-30T18:38:13.998Z</time></trkpt><trkpt lat="42.221615677247115" lon="12.932621622295695"><ele>713.0</ele><time>2026-04-30T18:38:14.998Z</time></trkpt><trkpt lat="42.22151897741548" lon="12.932546300716883"><ele>712.8</ele><time>2026-04-30T18:38:15.998Z</time></trkpt><trkpt lat="42.22142593522925" lon="12.932469453765112"><ele>712.5999999999999</ele><time>2026-04-30T18:38:16.998Z</time></trkpt><trkpt lat="42.2213354396458" lon="12.932386841272683"><ele>712.4000000000001</ele><time>2026-04-30T18:38:17.998Z</time></trkpt><trkpt lat="42.22123706750668" lon="12.932319559112042"><ele>712.2</ele><time>2026-04-30T18:38:18.998Z</time></trkpt><trkpt lat="42.221146328085325" lon="12.932238274860584"><ele>712.0</ele><time>2026-04-30T18:38:19.998Z</time></trkpt><trkpt lat="42.22105187509721" lon="12.932168149739928"><ele>712.0</ele><time>2026-04-30T18:38:20.998Z</time></trkpt><trkpt lat="42.22095732775176" lon="12.932094850455671"><ele>712.0</ele><time>2026-04-30T18:38:21.998Z</time></trkpt><trkpt lat="42.220849973063075" lon="12.932051706531437"><ele>712.0</ele><time>2026-04-30T18:38:22.998Z</time></trkpt><trkpt lat="42.2207384517774" lon="12.932029075657564"><ele>712.0</ele><time>2026-04-30T18:38:23.998Z</time></trkpt><trkpt lat="42.220629023665644" lon="12.932036948207639"><ele>712.0</ele><time>2026-04-30T18:38:24.998Z</time></trkpt><trkpt lat="42.220525672718296" lon="12.932008739079324"><ele>710.4000000000001</ele><time>2026-04-30T18:38:25.998Z</time></trkpt><trkpt lat="42.22041887314297" lon="12.932019222025694"><ele>708.8000000000001</ele><time>2026-04-30T18:38:26.998Z</time></trkpt><trkpt lat="42.22031776018498" lon="12.931976834161038"><ele>707.2</ele><time>2026-04-30T18:38:27.998Z</time></trkpt><trkpt lat="42.2202214569906" lon="12.931923127297058"><ele>705.6</ele><time>2026-04-30T18:38:28.998Z</time></trkpt><trkpt lat="42.22012718979791" lon="12.931883017297004"><ele>704.0</ele><time>2026-04-30T18:38:29.998Z</time></trkpt><trkpt lat="42.220040143857666" lon="12.931873830184934"><ele>704.0</ele><time>2026-04-30T18:38:31Z</time></trkpt><trkpt lat="42.21995768752941" lon="12.931905304551869"><ele>704.0</ele><time>2026-04-30T18:38:32Z</time></trkpt><trkpt lat="42.219883801246986" lon="12.931979552472908"><ele>704.0</ele><time>2026-04-30T18:38:33Z</time></trkpt><trkpt lat="42.219817213737734" lon="12.932088099199165"><ele>704.0</ele><time>2026-04-30T18:38:34Z</time></trkpt><trkpt lat="42.219745946549075" lon="12.932203050228074"><ele>704.0</ele><time>2026-04-30T18:38:35Z</time></trkpt><trkpt lat="42.21965851828406" lon="12.932311214755359"><ele>705.0</ele><time>2026-04-30T18:38:36Z</time></trkpt><trkpt lat="42.21953694170359" lon="12.932373515660187"><ele>706.0</ele><time>2026-04-30T18:38:37Z</time></trkpt><trkpt lat="42.21943599195822" lon="12.932456170983661"><ele>707.0</ele><time>2026-04-30T18:38:38Z</time></trkpt><trkpt lat="42.21933625684006" lon="12.932534786520208"><ele>708.0</ele><time>2026-04-30T18:38:39Z</time></trkpt><trkpt lat="42.219236257943244" lon="12.932585124021688"><ele>703.75</ele><time>2026-04-30T18:38:40Z</time></trkpt><trkpt lat="42.21912975652545" lon="12.932626020247362"><ele>699.5</ele><time>2026-04-30T18:38:41Z</time></trkpt><trkpt lat="42.21901401547905" lon="12.932668503380167"><ele>695.25</ele><time>2026-04-30T18:38:42Z</time></trkpt><trkpt lat="42.21888881669839" lon="12.932722066360444"><ele>691.0</ele><time>2026-04-30T18:38:43Z</time></trkpt><trkpt lat="42.21877374658307" lon="12.932782737498487"><ele>691.0</ele><time>2026-04-30T18:38:44Z</time></trkpt><trkpt lat="42.21866159559777" lon="12.932852678355442"><ele>691.0</ele><time>2026-04-30T18:38:45Z</time></trkpt><trkpt lat="42.21855548184885" lon="12.932930213937775"><ele>691.0</ele><time>2026-04-30T18:38:46Z</time></trkpt><trkpt lat="42.21845764892791" lon="12.93301943270013"><ele>691.0</ele><time>2026-04-30T18:38:47Z</time></trkpt><trkpt lat="42.21836961870449" lon="12.933128673037515"><ele>691.0</ele><time>2026-04-30T18:38:48Z</time></trkpt><trkpt lat="42.21829389802233" lon="12.933218821346506"><ele>691.0</ele><time>2026-04-30T18:38:49Z</time></trkpt><trkpt lat="42.2182188327045" lon="12.933299600501192"><ele>691.0</ele><time>2026-04-30T18:38:50Z</time></trkpt><trkpt lat="42.218137716497175" lon="12.93336518895179"><ele>691.0</ele><time>2026-04-30T18:38:51Z</time></trkpt><trkpt lat="42.218044372361035" lon="12.933414999406077"><ele>691.0</ele><time>2026-04-30T18:38:52Z</time></trkpt><trkpt lat="42.217937445833236" lon="12.933448934468576"><ele>686.0</ele><time>2026-04-30T18:38:53Z</time></trkpt><trkpt lat="42.217818187210895" lon="12.933461179581004"><ele>681.0</ele><time>2026-04-30T18:38:53.999Z</time></trkpt><trkpt lat="42.21769747571518" lon="12.933458487658106"><ele>676.0</ele><time>2026-04-30T18:38:54.999Z</time></trkpt><trkpt lat="42.21757292264794" lon="12.933442216491576"><ele>671.0</ele><time>2026-04-30T18:38:55.999Z</time></trkpt><trkpt lat="42.217452411375376" lon="12.933422327754903"><ele>671.0</ele><time>2026-04-30T18:38:56.999Z</time></trkpt><trkpt lat="42.217341680567834" lon="12.933404053151193"><ele>671.0</ele><time>2026-04-30T18:38:57.999Z</time></trkpt><trkpt lat="42.217235802449046" lon="12.933382831446256"><ele>671.0</ele><time>2026-04-30T18:38:58.999Z</time></trkpt><trkpt lat="42.21713205406881" lon="12.933348546601355"><ele>671.0</ele><time>2026-04-30T18:38:59.999Z</time></trkpt><trkpt lat="42.21703892489075" lon="12.933289756435359"><ele>671.0</ele><time>2026-04-30T18:39:00.999Z</time></trkpt><trkpt lat="42.21695503277865" lon="12.933252035653831"><ele>670.0</ele><time>2026-04-30T18:39:01.999Z</time></trkpt><trkpt lat="42.21688551949382" lon="12.933225086290516"><ele>669.0</ele><time>2026-04-30T18:39:02.999Z</time></trkpt><trkpt lat="42.216758763151766" lon="12.933231691663831"><ele>668.0</ele><time>2026-04-30T18:39:04.999Z</time></trkpt><trkpt lat="42.216707976420565" lon="12.933300338188182"><ele>667.0</ele><time>2026-04-30T18:39:05.999Z</time></trkpt><trkpt lat="42.2166764877907" lon="12.933379230876223"><ele>666.0</ele><time>2026-04-30T18:39:06.999Z</time></trkpt><trkpt lat="42.216701233888905" lon="12.933477283697284"><ele>665.0</ele><time>2026-04-30T18:39:07.999Z</time></trkpt><trkpt lat="42.21678543521137" lon="12.933586271601056"><ele>665.0</ele><time>2026-04-30T18:39:09.999Z</time></trkpt><trkpt lat="42.2168508027095" lon="12.933610508188567"><ele>665.0</ele><time>2026-04-30T18:39:10.999Z</time></trkpt><trkpt lat="42.216921314840725" lon="12.933623886022298"><ele>665.0</ele><time>2026-04-30T18:39:11.999Z</time></trkpt><trkpt lat="42.21699655269162" lon="12.933665357395618"><ele>665.0</ele><time>2026-04-30T18:39:12.999Z</time></trkpt><trkpt lat="42.217088400516225" lon="12.933732833310444"><ele>665.0</ele><time>2026-04-30T18:39:13.999Z</time></trkpt><trkpt lat="42.21717803432867" lon="12.933802902045514"><ele>665.0</ele><time>2026-04-30T18:39:14.999Z</time></trkpt><trkpt lat="42.217262828340296" lon="12.93387879799084"><ele>666.2</ele><time>2026-04-30T18:39:15.999Z</time></trkpt><trkpt lat="42.217348019489094" lon="12.93396302472449"><ele>667.4</ele><time>2026-04-30T18:39:16.999Z</time></trkpt><trkpt lat="42.217426285448305" lon="12.934058377422618"><ele>668.5999999999999</ele><time>2026-04-30T18:39:17.999Z</time></trkpt><trkpt lat="42.217496609674086" lon="12.93416986076238"><ele>669.8</ele><time>2026-04-30T18:39:18.999Z</time></trkpt><trkpt lat="42.21756266710547" lon="12.93430778123562"><ele>671.0</ele><time>2026-04-30T18:39:19.999Z</time></trkpt><trkpt lat="42.21762805624221" lon="12.93444451611288"><ele>667.0</ele><time>2026-04-30T18:39:20.999Z</time></trkpt><trkpt lat="42.217694941259246" lon="12.934568067743228"><ele>663.0</ele><time>2026-04-30T18:39:21.999Z</time></trkpt><trkpt lat="42.217776220343715" lon="12.93466846168936"><ele>659.0</ele><time>2026-04-30T18:39:22.999Z</time></trkpt><trkpt lat="42.21786860599351" lon="12.93474930856445"><ele>655.0</ele><time>2026-04-30T18:39:23.999Z</time></trkpt><trkpt lat="42.21797630503226" lon="12.93481412677504"><ele>655.0</ele><time>2026-04-30T18:39:24.999Z</time></trkpt><trkpt lat="42.21809434976283" lon="12.934871578686444"><ele>655.0</ele><time>2026-04-30T18:39:25.999Z</time></trkpt><trkpt lat="42.21820928972374" lon="12.934934910962957"><ele>655.0</ele><time>2026-04-30T18:39:26.999Z</time></trkpt><trkpt lat="42.21832058775243" lon="12.934996493641552"><ele>655.0</ele><time>2026-04-30T18:39:27.999Z</time></trkpt><trkpt lat="42.218423923847986" lon="12.935056958348264"><ele>655.2</ele><time>2026-04-30T18:39:28.999Z</time></trkpt><trkpt lat="42.218507529911314" lon="12.935119854014145"><ele>655.4</ele><time>2026-04-30T18:39:29.999Z</time></trkpt><trkpt lat="42.21857448810288" lon="12.935191382776488"><ele>655.5999999999999</ele><time>2026-04-30T18:39:30.999Z</time></trkpt><trkpt lat="42.218632395897814" lon="12.935279697550225"><ele>655.8</ele><time>2026-04-30T18:39:31.999Z</time></trkpt><trkpt lat="42.21868720436818" lon="12.935403796363632"><ele>656.0</ele><time>2026-04-30T18:39:32.999Z</time></trkpt><trkpt lat="42.218717684609075" lon="12.935552907257502"><ele>656.0</ele><time>2026-04-30T18:39:33.999Z</time></trkpt><trkpt lat="42.21873159156214" lon="12.935708361668677"><ele>656.0</ele><time>2026-04-30T18:39:34.999Z</time></trkpt><trkpt lat="42.21873542135598" lon="12.935865953810195"><ele>656.0</ele><time>2026-04-30T18:39:35.999Z</time></trkpt><trkpt lat="42.218738676676104" lon="12.93601959810236"><ele>656.0</ele><time>2026-04-30T18:39:36.999Z</time></trkpt><trkpt lat="42.218740479983126" lon="12.936161746925253"><ele>655.3333333333333</ele><time>2026-04-30T18:39:37.999Z</time></trkpt><trkpt lat="42.21874267816732" lon="12.936286515062966"><ele>654.6666666666666</ele><time>2026-04-30T18:39:38.999Z</time></trkpt><trkpt lat="42.21874851308961" lon="12.93640075641697"><ele>654.0</ele><time>2026-04-30T18:39:39.999Z</time></trkpt><trkpt lat="42.21877088020411" lon="12.936507623106483"><ele>653.3333333333334</ele><time>2026-04-30T18:39:40.999Z</time></trkpt><trkpt lat="42.21880493874907" lon="12.936607942571937"><ele>652.6666666666667</ele><time>2026-04-30T18:39:41.999Z</time></trkpt><trkpt lat="42.2188540363598" lon="12.93670240620112"><ele>652.0</ele><time>2026-04-30T18:39:42.999Z</time></trkpt><trkpt lat="42.218921582805436" lon="12.93677417207805"><ele>651.2</ele><time>2026-04-30T18:39:43.999Z</time></trkpt><trkpt lat="42.21900275057519" lon="12.936824956113275"><ele>650.4000000000001</ele><time>2026-04-30T18:39:44.999Z</time></trkpt><trkpt lat="42.219101714089064" lon="12.936861430574956"><ele>649.5999999999999</ele><time>2026-04-30T18:39:45.999Z</time></trkpt><trkpt lat="42.219208573137" lon="12.936895136182892"><ele>648.8</ele><time>2026-04-30T18:39:46.999Z</time></trkpt><trkpt lat="42.21931970754278" lon="12.936937338894877"><ele>648.0</ele><time>2026-04-30T18:39:47.999Z</time></trkpt><trkpt lat="42.21943583437938" lon="12.936988317834272"><ele>648.0</ele><time>2026-04-30T18:39:48.999Z</time></trkpt><trkpt lat="42.21954898190767" lon="12.937029926270986"><ele>648.0</ele><time>2026-04-30T18:39:49.999Z</time></trkpt><trkpt lat="42.219652079347895" lon="12.937060617474499"><ele>648.0</ele><time>2026-04-30T18:39:50.999Z</time></trkpt><trkpt lat="42.21975255384528" lon="12.937077277399395"><ele>648.0</ele><time>2026-04-30T18:39:51.999Z</time></trkpt><trkpt lat="42.219838618759084" lon="12.937068830893867"><ele>648.0</ele><time>2026-04-30T18:39:52.998Z</time></trkpt><trkpt lat="42.21991735674134" lon="12.9370497023972"><ele>647.8333333333334</ele><time>2026-04-30T18:39:53.998Z</time></trkpt><trkpt lat="42.21999535596094" lon="12.937001562707428"><ele>647.6666666666666</ele><time>2026-04-30T18:39:54.998Z</time></trkpt><trkpt lat="42.220059295665045" lon="12.936927562233981"><ele>647.5</ele><time>2026-04-30T18:39:55.998Z</time></trkpt><trkpt lat="42.220109450072144" lon="12.936838871066094"><ele>647.3333333333333</ele><time>2026-04-30T18:39:56.998Z</time></trkpt><trkpt lat="42.220129140745556" lon="12.93673650844177"><ele>647.1666666666666</ele><time>2026-04-30T18:39:57.998Z</time></trkpt><trkpt lat="42.22010905978904" lon="12.936618199175424"><ele>647.0</ele><time>2026-04-30T18:39:58.998Z</time></trkpt><trkpt lat="42.22007749970092" lon="12.936502515192048"><ele>648.4000000000001</ele><time>2026-04-30T18:39:59.998Z</time></trkpt><trkpt lat="42.220020790696054" lon="12.936383955909674"><ele>649.8000000000001</ele><time>2026-04-30T18:40:00.998Z</time></trkpt><trkpt lat="42.219947091874005" lon="12.936264552954814"><ele>651.2</ele><time>2026-04-30T18:40:01.998Z</time></trkpt><trkpt lat="42.219886124520954" lon="12.936129428629815"><ele>652.6</ele><time>2026-04-30T18:40:02.998Z</time></trkpt><trkpt lat="42.219795123745435" lon="12.93604593923068"><ele>654.0</ele><time>2026-04-30T18:40:03.998Z</time></trkpt><trkpt lat="42.21971662288948" lon="12.935960720803408"><ele>654.5</ele><time>2026-04-30T18:40:04.998Z</time></trkpt><trkpt lat="42.219652139114444" lon="12.93589850650339"><ele>655.0</ele><time>2026-04-30T18:40:05.998Z</time></trkpt><trkpt lat="42.21960701825436" lon="12.93583682627816"><ele>655.5</ele><time>2026-04-30T18:40:06.998Z</time></trkpt><trkpt lat="42.21957611836165" lon="12.935688474108545"><ele>656.0</ele><time>2026-04-30T18:40:08.998Z</time></trkpt><trkpt lat="42.219596482546294" lon="12.935605280473041"><ele>656.5</ele><time>2026-04-30T18:40:09.998Z</time></trkpt><trkpt lat="42.21969262108886" lon="12.935540922355933"><ele>657.0</ele><time>2026-04-30T18:40:11.998Z</time></trkpt><trkpt lat="42.21980299672494" lon="12.935627347273083"><ele>656.4000000000001</ele><time>2026-04-30T18:40:13.998Z</time></trkpt><trkpt lat="42.21985492930208" lon="12.935717685538311"><ele>655.8000000000001</ele><time>2026-04-30T18:40:14.998Z</time></trkpt><trkpt lat="42.21991148855048" lon="12.935818207512684"><ele>655.2</ele><time>2026-04-30T18:40:15.998Z</time></trkpt><trkpt lat="42.219978816095825" lon="12.93590031975819"><ele>654.6</ele><time>2026-04-30T18:40:16.998Z</time></trkpt><trkpt lat="42.22005549265575" lon="12.935989894136736"><ele>654.0</ele><time>2026-04-30T18:40:17.998Z</time></trkpt><trkpt lat="42.22014222610518" lon="12.93608525984269"><ele>654.0</ele><time>2026-04-30T18:40:18.998Z</time></trkpt><trkpt lat="42.220236426257664" lon="12.93618524363036"><ele>654.0</ele><time>2026-04-30T18:40:19.998Z</time></trkpt><trkpt lat="42.22032923190768" lon="12.936285497848056"><ele>654.0</ele><time>2026-04-30T18:40:20.998Z</time></trkpt><trkpt lat="42.220417867312854" lon="12.936382042248662"><ele>654.0</ele><time>2026-04-30T18:40:21.998Z</time></trkpt><trkpt lat="42.22050407783404" lon="12.936472788053646"><ele>654.0</ele><time>2026-04-30T18:40:22.998Z</time></trkpt><trkpt lat="42.22058735399438" lon="12.936561914301715"><ele>654.0</ele><time>2026-04-30T18:40:23.998Z</time></trkpt><trkpt lat="42.22066842760941" lon="12.936658518651882"><ele>654.0</ele><time>2026-04-30T18:40:24.998Z</time></trkpt><trkpt lat="42.220747346108055" lon="12.936763810252218"><ele>654.0</ele><time>2026-04-30T18:40:25.998Z</time></trkpt><trkpt lat="42.220815156914995" lon="12.936875180427204"><ele>654.0</ele><time>2026-04-30T18:40:26.998Z</time></trkpt><trkpt lat="42.22086341555742" lon="12.937000052744771"><ele>650.0</ele><time>2026-04-30T18:40:27.998Z</time></trkpt><trkpt lat="42.22088934263406" lon="12.937139333463628"><ele>646.0</ele><time>2026-04-30T18:40:28.998Z</time></trkpt><trkpt lat="42.2208995995874" lon="12.937283388504145"><ele>642.0</ele><time>2026-04-30T18:40:29.998Z</time></trkpt><trkpt lat="42.22089661677993" lon="12.937423281905277"><ele>638.0</ele><time>2026-04-30T18:40:30.998Z</time></trkpt><trkpt lat="42.22087315242194" lon="12.937546677054742"><ele>634.0</ele><time>2026-04-30T18:40:31.998Z</time></trkpt><trkpt lat="42.220826666867865" lon="12.937663994027414"><ele>633.75</ele><time>2026-04-30T18:40:32.998Z</time></trkpt><trkpt lat="42.22075780547948" lon="12.937779181669617"><ele>633.5</ele><time>2026-04-30T18:40:33.998Z</time></trkpt><trkpt lat="42.22068818568973" lon="12.937905738484357"><ele>633.25</ele><time>2026-04-30T18:40:34.998Z</time></trkpt><trkpt lat="42.2206326326976" lon="12.93804311510035"><ele>633.0</ele><time>2026-04-30T18:40:35.998Z</time></trkpt><trkpt lat="42.22059590394415" lon="12.938187510787646"><ele>633.0</ele><time>2026-04-30T18:40:37Z</time></trkpt><trkpt lat="42.2205651944191" lon="12.938318413431128"><ele>633.0</ele><time>2026-04-30T18:40:38Z</time></trkpt><trkpt lat="42.220532176772096" lon="12.938431906433927"><ele>633.0</ele><time>2026-04-30T18:40:39Z</time></trkpt><trkpt lat="42.22049264488386" lon="12.9385310882886"><ele>633.0</ele><time>2026-04-30T18:40:40Z</time></trkpt><trkpt lat="42.22042624296562" lon="12.938587261650397"><ele>633.0</ele><time>2026-04-30T18:40:41Z</time></trkpt><trkpt lat="42.2203246754097" lon="12.938710043395107"><ele>630.2857142857142</ele><time>2026-04-30T18:40:43Z</time></trkpt><trkpt lat="42.22027121821309" lon="12.93877560288422"><ele>627.5714285714286</ele><time>2026-04-30T18:40:44Z</time></trkpt><trkpt lat="42.22023338226287" lon="12.938852419273097"><ele>624.8571428571429</ele><time>2026-04-30T18:40:45Z</time></trkpt><trkpt lat="42.22019907561771" lon="12.938929141111572"><ele>622.1428571428571</ele><time>2026-04-30T18:40:46Z</time></trkpt><trkpt lat="42.22021046294748" lon="12.939028010958825"><ele>619.4285714285714</ele><time>2026-04-30T18:40:47Z</time></trkpt><trkpt lat="42.22028290896723" lon="12.939093983769101"><ele>616.7142857142857</ele><time>2026-04-30T18:40:48Z</time></trkpt><trkpt lat="42.22034657884003" lon="12.93914132945032"><ele>614.0</ele><time>2026-04-30T18:40:49Z</time></trkpt><trkpt lat="42.22043231304003" lon="12.939157373096725"><ele>614.0</ele><time>2026-04-30T18:40:50Z</time></trkpt><trkpt lat="42.22051760489293" lon="12.939177358630495"><ele>614.0</ele><time>2026-04-30T18:40:51Z</time></trkpt><trkpt lat="42.22059723388832" lon="12.939202028040862"><ele>614.0</ele><time>2026-04-30T18:40:52Z</time></trkpt><trkpt lat="42.22067067983586" lon="12.939228254154775"><ele>614.0</ele><time>2026-04-30T18:40:53Z</time></trkpt><trkpt lat="42.22074536695113" lon="12.939247482756251"><ele>614.0</ele><time>2026-04-30T18:40:54Z</time></trkpt><trkpt lat="42.22081426161209" lon="12.939247193526818"><ele>614.0</ele><time>2026-04-30T18:40:55Z</time></trkpt><trkpt lat="42.220880499068286" lon="12.9392206456228"><ele>613.8333333333333</ele><time>2026-04-30T18:40:56Z</time></trkpt><trkpt lat="42.22095107067114" lon="12.939168495996402"><ele>613.6666666666666</ele><time>2026-04-30T18:40:57Z</time></trkpt><trkpt lat="42.22100586588542" lon="12.93908859885134"><ele>613.5</ele><time>2026-04-30T18:40:58Z</time></trkpt><trkpt lat="42.22104882897682" lon="12.938977355986593"><ele>613.3333333333334</ele><time>2026-04-30T18:40:59Z</time></trkpt><trkpt lat="42.22107309524269" lon="12.938856502129077"><ele>613.1666666666667</ele><time>2026-04-30T18:41:00Z</time></trkpt><trkpt lat="42.2210976996749" lon="12.938745288940435"><ele>613.0</ele><time>2026-04-30T18:41:01Z</time></trkpt><trkpt lat="42.22112461984272" lon="12.938659910287793"><ele>613.0</ele><time>2026-04-30T18:41:01.999Z</time></trkpt><trkpt lat="42.22119929919697" lon="12.93853746681143"><ele>613.0</ele><time>2026-04-30T18:41:03.999Z</time></trkpt><trkpt lat="42.22127753879712" lon="12.93850827793119"><ele>613.0</ele><time>2026-04-30T18:41:05.999Z</time></trkpt><trkpt lat="42.22133171409755" lon="12.938577196187314"><ele>613.0</ele><time>2026-04-30T18:41:08.999Z</time></trkpt><trkpt lat="42.221430285798135" lon="12.938600112337934"><ele>613.0</ele><time>2026-04-30T18:41:34.999Z</time></trkpt><trkpt lat="42.2215514501373" lon="12.938394189130053"><ele>611.8</ele><time>2026-04-30T18:41:36.999Z</time></trkpt><trkpt lat="42.22159332563732" lon="12.93829238339415"><ele>610.5999999999999</ele><time>2026-04-30T18:41:37.999Z</time></trkpt><trkpt lat="42.22163131187953" lon="12.938171912158776"><ele>609.4000000000001</ele><time>2026-04-30T18:41:38.999Z</time></trkpt><trkpt lat="42.22165375993242" lon="12.938038482289397"><ele>608.2</ele><time>2026-04-30T18:41:39.999Z</time></trkpt><trkpt lat="42.221648970173746" lon="12.937906241084262"><ele>607.0</ele><time>2026-04-30T18:41:40.999Z</time></trkpt><trkpt lat="42.22163823602509" lon="12.937785724869636"><ele>607.0</ele><time>2026-04-30T18:41:41.999Z</time></trkpt><trkpt lat="42.221635630156214" lon="12.937685774891735"><ele>607.0</ele><time>2026-04-30T18:41:42.999Z</time></trkpt><trkpt lat="42.2216548206775" lon="12.937597584506637"><ele>607.0</ele><time>2026-04-30T18:41:43.999Z</time></trkpt><trkpt lat="42.22169596633513" lon="12.93752483421645"><ele>607.0</ele><time>2026-04-30T18:41:44.999Z</time></trkpt><trkpt lat="42.22177914193721" lon="12.93746945417612"><ele>607.0</ele><time>2026-04-30T18:41:45.999Z</time></trkpt><trkpt lat="42.22186151933567" lon="12.937465591357691"><ele>607.0</ele><time>2026-04-30T18:41:46.999Z</time></trkpt><trkpt lat="42.221946470724774" lon="12.937508520480456"><ele>607.0</ele><time>2026-04-30T18:41:47.999Z</time></trkpt><trkpt lat="42.22200408060176" lon="12.93761666808119"><ele>607.0</ele><time>2026-04-30T18:41:48.999Z</time></trkpt><trkpt lat="42.22209402320845" lon="12.937683745049403"><ele>607.0</ele><time>2026-04-30T18:41:49.999Z</time></trkpt><trkpt lat="42.222170391822004" lon="12.937767170789941"><ele>607.0</ele><time>2026-04-30T18:41:50.999Z</time></trkpt><trkpt lat="42.222251774655845" lon="12.937831182061327"><ele>607.0</ele><time>2026-04-30T18:41:51.999Z</time></trkpt><trkpt lat="42.22235546447017" lon="12.937864658279596"><ele>605.4</ele><time>2026-04-30T18:41:52.999Z</time></trkpt><trkpt lat="42.22246817881658" lon="12.937858259413334"><ele>603.8000000000001</ele><time>2026-04-30T18:41:53.999Z</time></trkpt><trkpt lat="42.22256430164796" lon="12.937809608678153"><ele>602.2</ele><time>2026-04-30T18:41:54.999Z</time></trkpt><trkpt lat="42.22264675073413" lon="12.937726802318686"><ele>600.6</ele><time>2026-04-30T18:41:55.999Z</time></trkpt><trkpt lat="42.22270923522281" lon="12.937618697637577"><ele>599.0</ele><time>2026-04-30T18:41:56.998Z</time></trkpt><trkpt lat="42.22278115722924" lon="12.93756711056149"><ele>599.0</ele><time>2026-04-30T18:41:57.998Z</time></trkpt><trkpt lat="42.22290154417548" lon="12.93758226021331"><ele>599.0</ele><time>2026-04-30T18:41:59.998Z</time></trkpt><trkpt lat="42.22296370477602" lon="12.937645274336"><ele>599.0</ele><time>2026-04-30T18:42:00.998Z</time></trkpt><trkpt lat="42.22299564060923" lon="12.93773917198216"><ele>599.0</ele><time>2026-04-30T18:42:01.998Z</time></trkpt><trkpt lat="42.22297938758881" lon="12.937859090206665"><ele>599.0</ele><time>2026-04-30T18:42:02.998Z</time></trkpt><trkpt lat="42.222988684194725" lon="12.937997469970405"><ele>599.0</ele><time>2026-04-30T18:42:03.998Z</time></trkpt><trkpt lat="42.222985235510706" lon="12.938149005293306"><ele>599.0</ele><time>2026-04-30T18:42:04.998Z</time></trkpt><trkpt lat="42.22299030545959" lon="12.938313689393254"><ele>599.0</ele><time>2026-04-30T18:42:05.998Z</time></trkpt><trkpt lat="42.22300312443409" lon="12.938476480189584"><ele>599.0</ele><time>2026-04-30T18:42:06.998Z</time></trkpt><trkpt lat="42.22301529457743" lon="12.938630005822024"><ele>598.6</ele><time>2026-04-30T18:42:07.998Z</time></trkpt><trkpt lat="42.22306590403525" lon="12.938747902670805"><ele>598.2</ele><time>2026-04-30T18:42:08.998Z</time></trkpt><trkpt lat="42.22314037102382" lon="12.938847992706162"><ele>597.8000000000001</ele><time>2026-04-30T18:42:09.998Z</time></trkpt><trkpt lat="42.223246226975206" lon="12.938916457931851"><ele>597.4</ele><time>2026-04-30T18:42:10.998Z</time></trkpt><trkpt lat="42.22335304020464" lon="12.938990699422124"><ele>597.0</ele><time>2026-04-30T18:42:11.998Z</time></trkpt><trkpt lat="42.22346371304588" lon="12.93906210876563"><ele>596.0</ele><time>2026-04-30T18:42:12.998Z</time></trkpt><trkpt lat="42.223580147276" lon="12.939144725405967"><ele>595.0</ele><time>2026-04-30T18:42:13.998Z</time></trkpt><trkpt lat="42.22371191520541" lon="12.939199783353631"><ele>594.0</ele><time>2026-04-30T18:42:14.998Z</time></trkpt><trkpt lat="42.22384792404333" lon="12.939237185870356"><ele>593.0</ele><time>2026-04-30T18:42:15.998Z</time></trkpt><trkpt lat="42.223974822868584" lon="12.939302164464882"><ele>588.75</ele><time>2026-04-30T18:42:16.998Z</time></trkpt><trkpt lat="42.224098370064794" lon="12.939376735617055"><ele>584.5</ele><time>2026-04-30T18:42:17.998Z</time></trkpt><trkpt lat="42.224206945691925" lon="12.939470007252924"><ele>580.25</ele><time>2026-04-30T18:42:18.998Z</time></trkpt><trkpt lat="42.224309594637354" lon="12.939553420449524"><ele>576.0</ele><time>2026-04-30T18:42:19.998Z</time></trkpt><trkpt lat="42.22442264223682" lon="12.93961254423817"><ele>576.0</ele><time>2026-04-30T18:42:20.998Z</time></trkpt><trkpt lat="42.22455307931679" lon="12.939653357708027"><ele>576.0</ele><time>2026-04-30T18:42:21.998Z</time></trkpt><trkpt lat="42.22469018890619" lon="12.939694032679009"><ele>576.0</ele><time>2026-04-30T18:42:22.998Z</time></trkpt><trkpt lat="42.22482202420863" lon="12.939748878595099"><ele>576.0</ele><time>2026-04-30T18:42:23.998Z</time></trkpt><trkpt lat="42.224951366914084" lon="12.939791836820566"><ele>577.4</ele><time>2026-04-30T18:42:24.998Z</time></trkpt><trkpt lat="42.22507758779929" lon="12.939819828605454"><ele>578.8</ele><time>2026-04-30T18:42:25.998Z</time></trkpt><trkpt lat="42.225180867386975" lon="12.93986926077198"><ele>580.1999999999999</ele><time>2026-04-30T18:42:26.998Z</time></trkpt><trkpt lat="42.22528270099426" lon="12.939897563645124"><ele>581.6</ele><time>2026-04-30T18:42:27.998Z</time></trkpt><trkpt lat="42.22534630710592" lon="12.940015301673682"><ele>583.0</ele><time>2026-04-30T18:42:28.998Z</time></trkpt><trkpt lat="42.225423792017374" lon="12.940127937756243"><ele>580.75</ele><time>2026-04-30T18:42:29.998Z</time></trkpt><trkpt lat="42.225517181545285" lon="12.940235223687143"><ele>578.5</ele><time>2026-04-30T18:42:30.998Z</time></trkpt><trkpt lat="42.22561832320012" lon="12.940342579114894"><ele>576.25</ele><time>2026-04-30T18:42:31.998Z</time></trkpt><trkpt lat="42.22571391562694" lon="12.940457473291653"><ele>574.0</ele><time>2026-04-30T18:42:32.998Z</time></trkpt><trkpt lat="42.225795364251034" lon="12.940581122659994"><ele>574.0</ele><time>2026-04-30T18:42:33.998Z</time></trkpt><trkpt lat="42.22588091470527" lon="12.940704900670228"><ele>574.0</ele><time>2026-04-30T18:42:34.998Z</time></trkpt><trkpt lat="42.225985349720276" lon="12.94081715047958"><ele>574.0</ele><time>2026-04-30T18:42:35.998Z</time></trkpt><trkpt lat="42.2261005444067" lon="12.940916597880427"><ele>574.0</ele><time>2026-04-30T18:42:36.998Z</time></trkpt><trkpt lat="42.22622550225717" lon="12.941002344586638"><ele>570.75</ele><time>2026-04-30T18:42:37.998Z</time></trkpt><trkpt lat="42.2263595411388" lon="12.941059567694827"><ele>567.5</ele><time>2026-04-30T18:42:38.998Z</time></trkpt><trkpt lat="42.22650156436938" lon="12.94110344701157"><ele>564.25</ele><time>2026-04-30T18:42:39.998Z</time></trkpt><trkpt lat="42.22665028641949" lon="12.941118413359607"><ele>561.0</ele><time>2026-04-30T18:42:40.998Z</time></trkpt><trkpt lat="42.226795934302615" lon="12.941155306307362"><ele>561.0</ele><time>2026-04-30T18:42:42Z</time></trkpt><trkpt lat="42.22693867961675" lon="12.941192444475734"><ele>561.0</ele><time>2026-04-30T18:42:43Z</time></trkpt><trkpt lat="42.22706939235355" lon="12.9412633730605"><ele>561.0</ele><time>2026-04-30T18:42:44Z</time></trkpt><trkpt lat="42.227198433026096" lon="12.94128904629652"><ele>561.0</ele><time>2026-04-30T18:42:45Z</time></trkpt><trkpt lat="42.22731760406563" lon="12.941312020723046"><ele>559.25</ele><time>2026-04-30T18:42:46Z</time></trkpt><trkpt lat="42.227428878019836" lon="12.94129298714242"><ele>557.5</ele><time>2026-04-30T18:42:47Z</time></trkpt><trkpt lat="42.2275292848441" lon="12.941221183390493"><ele>555.75</ele><time>2026-04-30T18:42:48Z</time></trkpt><trkpt lat="42.22763207064265" lon="12.941130419673215"><ele>554.0</ele><time>2026-04-30T18:42:49Z</time></trkpt><trkpt lat="42.22774361849454" lon="12.941040025953138"><ele>554.0</ele><time>2026-04-30T18:42:50Z</time></trkpt><trkpt lat="42.227833276108285" lon="12.940903171717112"><ele>554.0</ele><time>2026-04-30T18:42:51Z</time></trkpt><trkpt lat="42.22793222697969" lon="12.940791436719673"><ele>554.0</ele><time>2026-04-30T18:42:52Z</time></trkpt><trkpt lat="42.22801320660695" lon="12.940704610805545"><ele>554.0</ele><time>2026-04-30T18:42:53Z</time></trkpt><trkpt lat="42.228090355848735" lon="12.940678036625656"><ele>554.0</ele><time>2026-04-30T18:42:54Z</time></trkpt><trkpt lat="42.228170969930765" lon="12.940697303085484"><ele>555.0</ele><time>2026-04-30T18:42:55Z</time></trkpt><trkpt lat="42.22826390173706" lon="12.940745798941355"><ele>556.0</ele><time>2026-04-30T18:42:56Z</time></trkpt><trkpt lat="42.22836369286014" lon="12.940796870533365"><ele>557.0</ele><time>2026-04-30T18:42:57Z</time></trkpt><trkpt lat="42.2284743244219" lon="12.940823461796672"><ele>558.0</ele><time>2026-04-30T18:42:58Z</time></trkpt><trkpt lat="42.22857901533107" lon="12.940806033221012"><ele>559.0</ele><time>2026-04-30T18:42:59Z</time></trkpt><trkpt lat="42.22866544397758" lon="12.940741491690861"><ele>559.0</ele><time>2026-04-30T18:43:00Z</time></trkpt><trkpt lat="42.22872257396121" lon="12.940639228497165"><ele>559.0</ele><time>2026-04-30T18:43:01Z</time></trkpt><trkpt lat="42.228756694534816" lon="12.94050696444783"><ele>559.0</ele><time>2026-04-30T18:43:02Z</time></trkpt><trkpt lat="42.228799046159786" lon="12.940369446027772"><ele>559.0</ele><time>2026-04-30T18:43:03Z</time></trkpt><trkpt lat="42.22883749799087" lon="12.94023659127337"><ele>559.0</ele><time>2026-04-30T18:43:04Z</time></trkpt><trkpt lat="42.22887353998401" lon="12.940107890997833"><ele>557.6666666666667</ele><time>2026-04-30T18:43:05Z</time></trkpt><trkpt lat="42.22894389590562" lon="12.940036233842596"><ele>556.3333333333334</ele><time>2026-04-30T18:43:06Z</time></trkpt><trkpt lat="42.22902739931212" lon="12.939995867913986"><ele>555.0</ele><time>2026-04-30T18:43:07Z</time></trkpt><trkpt lat="42.22911727163432" lon="12.939987968381876"><ele>553.6666666666666</ele><time>2026-04-30T18:43:08Z</time></trkpt><trkpt lat="42.2291980714924" lon="12.940033183955954"><ele>552.3333333333333</ele><time>2026-04-30T18:43:09Z</time></trkpt><trkpt lat="42.22923726660511" lon="12.940145840358603"><ele>551.0</ele><time>2026-04-30T18:43:10Z</time></trkpt><trkpt lat="42.22929666881683" lon="12.940251556438731"><ele>551.0</ele><time>2026-04-30T18:43:11Z</time></trkpt><trkpt lat="42.2293268040849" lon="12.940389253399736"><ele>551.0</ele><time>2026-04-30T18:43:12Z</time></trkpt><trkpt lat="42.229347633251635" lon="12.940525728944396"><ele>551.0</ele><time>2026-04-30T18:43:13Z</time></trkpt><trkpt lat="42.22936812077538" lon="12.94064156545018"><ele>551.0</ele><time>2026-04-30T18:43:14Z</time></trkpt><trkpt lat="42.229393101806295" lon="12.94073612367993"><ele>551.0</ele><time>2026-04-30T18:43:14.999Z</time></trkpt><trkpt lat="42.22941801620242" lon="12.940821497802556"><ele>551.0</ele><time>2026-04-30T18:43:15.999Z</time></trkpt><trkpt lat="42.22945211733921" lon="12.940941247356433"><ele>549.1666666666666</ele><time>2026-04-30T18:43:17.999Z</time></trkpt><trkpt lat="42.22948418299633" lon="12.941051561421965"><ele>547.3333333333333</ele><time>2026-04-30T18:43:20.999Z</time></trkpt><trkpt lat="42.22951569278716" lon="12.941155346765882"><ele>545.5</ele><time>2026-04-30T18:43:23.999Z</time></trkpt><trkpt lat="42.22954724299325" lon="12.94125527798927"><ele>543.6666666666666</ele><time>2026-04-30T18:43:26.999Z</time></trkpt><trkpt lat="42.22959764133573" lon="12.941368312590038"><ele>541.8333333333334</ele><time>2026-04-30T18:43:29.999Z</time></trkpt><trkpt lat="42.229637758795995" lon="12.941439778121763"><ele>540.0</ele><time>2026-04-30T18:43:31.999Z</time></trkpt><trkpt lat="42.22969412662282" lon="12.941514965401451"><ele>540.0</ele><time>2026-04-30T18:43:34.999Z</time></trkpt><trkpt lat="42.22977905416002" lon="12.941599370613956"><ele>540.0</ele><time>2026-04-30T18:43:48.999Z</time></trkpt><trkpt lat="42.229871993069196" lon="12.941672014895508"><ele>540.0</ele><time>2026-04-30T18:43:50.999Z</time></trkpt><trkpt lat="42.22992950378366" lon="12.94171008498595"><ele>540.0</ele><time>2026-04-30T18:43:51.999Z</time></trkpt><trkpt lat="42.23000204251928" lon="12.941745603513889"><ele>540.0</ele><time>2026-04-30T18:43:52.999Z</time></trkpt><trkpt lat="42.230081902325644" lon="12.94178110966838"><ele>540.0</ele><time>2026-04-30T18:43:53.999Z</time></trkpt><trkpt lat="42.230156713211954" lon="12.941807822976164"><ele>539.6</ele><time>2026-04-30T18:43:54.999Z</time></trkpt><trkpt lat="42.23023995607739" lon="12.941827935842802"><ele>539.2</ele><time>2026-04-30T18:43:55.999Z</time></trkpt><trkpt lat="42.23033173595705" lon="12.94182871302554"><ele>538.8</ele><time>2026-04-30T18:43:56.999Z</time></trkpt><trkpt lat="42.230425392651604" lon="12.941821015778343"><ele>538.4</ele><time>2026-04-30T18:43:57.999Z</time></trkpt><trkpt lat="42.23051651921181" lon="12.941790556493851"><ele>538.0</ele><time>2026-04-30T18:43:58.999Z</time></trkpt><trkpt lat="42.230604014989346" lon="12.941730850074503"><ele>540.6</ele><time>2026-04-30T18:43:59.999Z</time></trkpt><trkpt lat="42.230685981851714" lon="12.941644693136762"><ele>543.1999999999999</ele><time>2026-04-30T18:44:00.999Z</time></trkpt><trkpt lat="42.23075344242269" lon="12.941545236928214"><ele>545.8</ele><time>2026-04-30T18:44:01.999Z</time></trkpt><trkpt lat="42.23081411777662" lon="12.94143203675268"><ele>548.4</ele><time>2026-04-30T18:44:02.999Z</time></trkpt><trkpt lat="42.23087247599438" lon="12.941311183375804"><ele>551.0</ele><time>2026-04-30T18:44:03.999Z</time></trkpt><trkpt lat="42.23093039455112" lon="12.941191766611945"><ele>551.0</ele><time>2026-04-30T18:44:04.999Z</time></trkpt><trkpt lat="42.23099133175989" lon="12.941067036662988"><ele>551.0</ele><time>2026-04-30T18:44:05.999Z</time></trkpt><trkpt lat="42.231072526646884" lon="12.940953651569263"><ele>551.0</ele><time>2026-04-30T18:44:06.999Z</time></trkpt><trkpt lat="42.231166155742514" lon="12.940846930906263"><ele>551.0</ele><time>2026-04-30T18:44:07.999Z</time></trkpt><trkpt lat="42.231257889239096" lon="12.940728624373577"><ele>549.0</ele><time>2026-04-30T18:44:08.999Z</time></trkpt><trkpt lat="42.23134009998738" lon="12.940587607681167"><ele>547.0</ele><time>2026-04-30T18:44:09.999Z</time></trkpt><trkpt lat="42.23140418360953" lon="12.940431870123016"><ele>545.0</ele><time>2026-04-30T18:44:10.999Z</time></trkpt><trkpt lat="42.231454237238346" lon="12.940297482632383"><ele>543.0</ele><time>2026-04-30T18:44:11.999Z</time></trkpt><trkpt lat="42.23151749635378" lon="12.940198546951297"><ele>543.0</ele><time>2026-04-30T18:44:12.998Z</time></trkpt><trkpt lat="42.23159930477419" lon="12.940176399203215"><ele>543.0</ele><time>2026-04-30T18:44:13.998Z</time></trkpt><trkpt lat="42.23167370594143" lon="12.940152602708498"><ele>543.0</ele><time>2026-04-30T18:44:14.998Z</time></trkpt><trkpt lat="42.23175730601806" lon="12.940118875306164"><ele>543.0</ele><time>2026-04-30T18:44:15.998Z</time></trkpt><trkpt lat="42.23184397893331" lon="12.94007289059858"><ele>543.0</ele><time>2026-04-30T18:44:16.998Z</time></trkpt><trkpt lat="42.23193414275789" lon="12.940020173765726"><ele>543.0</ele><time>2026-04-30T18:44:17.998Z</time></trkpt><trkpt lat="42.23202732871373" lon="12.939966194493943"><ele>540.0</ele><time>2026-04-30T18:44:18.998Z</time></trkpt><trkpt lat="42.23212566522201" lon="12.939910666791134"><ele>537.0</ele><time>2026-04-30T18:44:19.998Z</time></trkpt><trkpt lat="42.23222745486652" lon="12.939853189224062"><ele>534.0</ele><time>2026-04-30T18:44:20.998Z</time></trkpt><trkpt lat="42.23233094586069" lon="12.9397942432618"><ele>531.0</ele><time>2026-04-30T18:44:21.998Z</time></trkpt><trkpt lat="42.232437169269204" lon="12.93973357442047"><ele>528.0</ele><time>2026-04-30T18:44:22.998Z</time></trkpt><trkpt lat="42.23254342746383" lon="12.93967106459009"><ele>528.0</ele><time>2026-04-30T18:44:23.998Z</time></trkpt><trkpt lat="42.23264604847522" lon="12.939582562964317"><ele>528.0</ele><time>2026-04-30T18:44:24.998Z</time></trkpt><trkpt lat="42.23274222699545" lon="12.939467627465989"><ele>528.0</ele><time>2026-04-30T18:44:25.998Z</time></trkpt><trkpt lat="42.232838726548366" lon="12.939350330676243"><ele>528.0</ele><time>2026-04-30T18:44:26.998Z</time></trkpt><trkpt lat="42.23294896313765" lon="12.939272957249527"><ele>525.75</ele><time>2026-04-30T18:44:27.998Z</time></trkpt><trkpt lat="42.23306557745732" lon="12.939193388477364"><ele>523.5</ele><time>2026-04-30T18:44:28.998Z</time></trkpt><trkpt lat="42.23317665413083" lon="12.939089945365051"><ele>521.25</ele><time>2026-04-30T18:44:29.998Z</time></trkpt><trkpt lat="42.23327001065253" lon="12.938973249152495"><ele>519.0</ele><time>2026-04-30T18:44:30.998Z</time></trkpt><trkpt lat="42.23334841917168" lon="12.938845306380665"><ele>519.0</ele><time>2026-04-30T18:44:31.998Z</time></trkpt><trkpt lat="42.23340831040883" lon="12.938687914294995"><ele>519.0</ele><time>2026-04-30T18:44:32.998Z</time></trkpt><trkpt lat="42.23345964464785" lon="12.938527362730097"><ele>519.0</ele><time>2026-04-30T18:44:33.998Z</time></trkpt><trkpt lat="42.23352756451446" lon="12.938386410140893"><ele>519.0</ele><time>2026-04-30T18:44:34.998Z</time></trkpt><trkpt lat="42.23361068952029" lon="12.938251483946816"><ele>526.75</ele><time>2026-04-30T18:44:35.998Z</time></trkpt><trkpt lat="42.23368734883826" lon="12.938097766952174"><ele>534.5</ele><time>2026-04-30T18:44:36.998Z</time></trkpt><trkpt lat="42.23375470075937" lon="12.937945384188437"><ele>542.25</ele><time>2026-04-30T18:44:37.998Z</time></trkpt><trkpt lat="42.23382072115744" lon="12.937790278953344"><ele>550.0</ele><time>2026-04-30T18:44:38.998Z</time></trkpt><trkpt lat="42.23392188664296" lon="12.937659997950814"><ele>540.3333333333334</ele><time>2026-04-30T18:44:39.998Z</time></trkpt><trkpt lat="42.2340309426708" lon="12.937526621534099"><ele>530.6666666666666</ele><time>2026-04-30T18:44:40.998Z</time></trkpt><trkpt lat="42.234143939759726" lon="12.937389982350675"><ele>521.0</ele><time>2026-04-30T18:44:41.998Z</time></trkpt><trkpt lat="42.234268335966036" lon="12.937267751990474"><ele>521.0</ele><time>2026-04-30T18:44:42.998Z</time></trkpt><trkpt lat="42.23438174726639" lon="12.937132342384135"><ele>521.0</ele><time>2026-04-30T18:44:43.998Z</time></trkpt><trkpt lat="42.23448787981175" lon="12.936996350073288"><ele>521.0</ele><time>2026-04-30T18:44:44.998Z</time></trkpt><trkpt lat="42.23458687067576" lon="12.936866730243361"><ele>521.0</ele><time>2026-04-30T18:44:45.998Z</time></trkpt><trkpt lat="42.23468465368798" lon="12.936738691625317"><ele>520.5</ele><time>2026-04-30T18:44:46.998Z</time></trkpt><trkpt lat="42.23478341370232" lon="12.936612365387576"><ele>520.0</ele><time>2026-04-30T18:44:48Z</time></trkpt><trkpt lat="42.23487999684375" lon="12.936472777785086"><ele>519.5</ele><time>2026-04-30T18:44:49Z</time></trkpt><trkpt lat="42.235010224882686" lon="12.936380892973906"><ele>519.0</ele><time>2026-04-30T18:44:50Z</time></trkpt><trkpt lat="42.235137998162806" lon="12.936280564752854"><ele>519.0</ele><time>2026-04-30T18:44:51Z</time></trkpt><trkpt lat="42.23526738286949" lon="12.936178497300622"><ele>519.0</ele><time>2026-04-30T18:44:52Z</time></trkpt><trkpt lat="42.235397570843304" lon="12.936076725427148"><ele>519.0</ele><time>2026-04-30T18:44:53Z</time></trkpt><trkpt lat="42.235525194520775" lon="12.935974160185188"><ele>519.0</ele><time>2026-04-30T18:44:54Z</time></trkpt><trkpt lat="42.235648489852665" lon="12.935875721568431"><ele>521.25</ele><time>2026-04-30T18:44:55Z</time></trkpt><trkpt lat="42.23577170581929" lon="12.935783257348449"><ele>523.5</ele><time>2026-04-30T18:44:56Z</time></trkpt><trkpt lat="42.2358955918093" lon="12.935697334966045"><ele>525.75</ele><time>2026-04-30T18:44:57Z</time></trkpt><trkpt lat="42.23602132313343" lon="12.935625524474904"><ele>528.0</ele><time>2026-04-30T18:44:58Z</time></trkpt><trkpt lat="42.23615175417364" lon="12.935567850754989"><ele>528.0</ele><time>2026-04-30T18:44:59Z</time></trkpt><trkpt lat="42.23628542215552" lon="12.935511419294428"><ele>528.0</ele><time>2026-04-30T18:45:00Z</time></trkpt><trkpt lat="42.23641799256604" lon="12.935455929943812"><ele>528.0</ele><time>2026-04-30T18:45:01Z</time></trkpt><trkpt lat="42.23655172324938" lon="12.935400596186222"><ele>528.0</ele><time>2026-04-30T18:45:02Z</time></trkpt><trkpt lat="42.23668557955715" lon="12.935345343485452"><ele>521.0</ele><time>2026-04-30T18:45:03Z</time></trkpt><trkpt lat="42.236818883187716" lon="12.93529080220464"><ele>514.0</ele><time>2026-04-30T18:45:04Z</time></trkpt><trkpt lat="42.23695281233926" lon="12.935236004970282"><ele>507.0</ele><time>2026-04-30T18:45:05Z</time></trkpt><trkpt lat="42.23708675443017" lon="12.93518085213982"><ele>500.0</ele><time>2026-04-30T18:45:06Z</time></trkpt><trkpt lat="42.23722064257718" lon="12.93512512736556"><ele>496.25</ele><time>2026-04-30T18:45:07Z</time></trkpt><trkpt lat="42.23735488771873" lon="12.935069253986551"><ele>492.5</ele><time>2026-04-30T18:45:08Z</time></trkpt><trkpt lat="42.237481715160065" lon="12.93499728863933"><ele>488.75</ele><time>2026-04-30T18:45:09Z</time></trkpt><trkpt lat="42.237611063028055" lon="12.934961043081756"><ele>485.0</ele><time>2026-04-30T18:45:10Z</time></trkpt><trkpt lat="42.23771958363164" lon="12.93487563753677"><ele>493.4</ele><time>2026-04-30T18:45:11Z</time></trkpt><trkpt lat="42.237800044442174" lon="12.934762747330764"><ele>501.8</ele><time>2026-04-30T18:45:12Z</time></trkpt><trkpt lat="42.23783512812005" lon="12.93461635752856"><ele>510.20000000000005</ele><time>2026-04-30T18:45:13Z</time></trkpt><trkpt lat="42.23790000438491" lon="12.934505309837022"><ele>518.6</ele><time>2026-04-30T18:45:14Z</time></trkpt><trkpt lat="42.23796317763475" lon="12.934410535265197"><ele>527.0</ele><time>2026-04-30T18:45:15Z</time></trkpt><trkpt lat="42.238049643385075" lon="12.934365471585973"><ele>528.8000000000001</ele><time>2026-04-30T18:45:16Z</time></trkpt><trkpt lat="42.238146243022086" lon="12.934309802617486"><ele>530.6</ele><time>2026-04-30T18:45:17Z</time></trkpt><trkpt lat="42.238254506538006" lon="12.934287471705634"><ele>532.4000000000001</ele><time>2026-04-30T18:45:18Z</time></trkpt><trkpt lat="42.23835794498502" lon="12.934244951363457"><ele>534.2</ele><time>2026-04-30T18:45:18.999Z</time></trkpt><trkpt lat="42.23844744093066" lon="12.934166657015936"><ele>536.0</ele><time>2026-04-30T18:45:19.999Z</time></trkpt><trkpt lat="42.2385324867995" lon="12.934071741267266"><ele>536.0</ele><time>2026-04-30T18:45:20.999Z</time></trkpt><trkpt lat="42.23857134435864" lon="12.933923210018904"><ele>536.0</ele><time>2026-04-30T18:45:21.999Z</time></trkpt><trkpt lat="42.23861053520013" lon="12.933775861780818"><ele>536.0</ele><time>2026-04-30T18:45:22.999Z</time></trkpt><trkpt lat="42.23864551621429" lon="12.933620183143534"><ele>536.0</ele><time>2026-04-30T18:45:23.999Z</time></trkpt><trkpt lat="42.23868324347096" lon="12.933462899830062"><ele>542.75</ele><time>2026-04-30T18:45:24.999Z</time></trkpt><trkpt lat="42.238720350827364" lon="12.93330433534047"><ele>549.5</ele><time>2026-04-30T18:45:25.999Z</time></trkpt><trkpt lat="42.23875794140607" lon="12.933147022754488"><ele>556.25</ele><time>2026-04-30T18:45:26.999Z</time></trkpt><trkpt lat="42.238795851994325" lon="12.932989040641873"><ele>563.0</ele><time>2026-04-30T18:45:27.999Z</time></trkpt><trkpt lat="42.238830334615" lon="12.932830771992801"><ele>563.0</ele><time>2026-04-30T18:45:28.999Z</time></trkpt><trkpt lat="42.23885075767632" lon="12.932669216390666"><ele>563.0</ele><time>2026-04-30T18:45:29.999Z</time></trkpt><trkpt lat="42.238851935163645" lon="12.932502231330155"><ele>563.0</ele><time>2026-04-30T18:45:30.999Z</time></trkpt><trkpt lat="42.238838044459484" lon="12.932333936014668"><ele>563.0</ele><time>2026-04-30T18:45:31.999Z</time></trkpt><trkpt lat="42.2388341765853" lon="12.932167065225526"><ele>565.6</ele><time>2026-04-30T18:45:32.999Z</time></trkpt><trkpt lat="42.23881286631812" lon="12.932017930182347"><ele>568.1999999999999</ele><time>2026-04-30T18:45:33.999Z</time></trkpt><trkpt lat="42.23877938018027" lon="12.931887671102746"><ele>570.8</ele><time>2026-04-30T18:45:34.999Z</time></trkpt><trkpt lat="42.238790604402844" lon="12.931762601983007"><ele>573.4</ele><time>2026-04-30T18:45:35.999Z</time></trkpt><trkpt lat="42.23883456953385" lon="12.931660618771135"><ele>576.0</ele><time>2026-04-30T18:45:36.999Z</time></trkpt><trkpt lat="42.238901094955935" lon="12.9316071047978"><ele>572.3333333333334</ele><time>2026-04-30T18:45:37.999Z</time></trkpt><trkpt lat="42.23896787561983" lon="12.931595177639197"><ele>568.6666666666666</ele><time>2026-04-30T18:45:38.999Z</time></trkpt><trkpt lat="42.23903704100371" lon="12.931643342375393"><ele>565.0</ele><time>2026-04-30T18:45:39.999Z</time></trkpt><trkpt lat="42.239117589030805" lon="12.931674512731668"><ele>561.3333333333333</ele><time>2026-04-30T18:45:40.999Z</time></trkpt><trkpt lat="42.23920355391675" lon="12.931724988611364"><ele>557.6666666666666</ele><time>2026-04-30T18:45:41.999Z</time></trkpt><trkpt lat="42.239296535412336" lon="12.93174609378896"><ele>554.0</ele><time>2026-04-30T18:45:42.999Z</time></trkpt><trkpt lat="42.23939272901987" lon="12.931727391756432"><ele>554.0</ele><time>2026-04-30T18:45:43.999Z</time></trkpt><trkpt lat="42.239478667453675" lon="12.931679003396539"><ele>554.0</ele><time>2026-04-30T18:45:44.999Z</time></trkpt><trkpt lat="42.23955435648073" lon="12.93158788776423"><ele>554.0</ele><time>2026-04-30T18:45:45.999Z</time></trkpt><trkpt lat="42.23961588121605" lon="12.93147862036343"><ele>554.0</ele><time>2026-04-30T18:45:46.999Z</time></trkpt><trkpt lat="42.23966802964173" lon="12.931350887412226"><ele>554.0</ele><time>2026-04-30T18:45:47.999Z</time></trkpt><trkpt lat="42.239712055790214" lon="12.931215963293456"><ele>554.0</ele><time>2026-04-30T18:45:48.999Z</time></trkpt><trkpt lat="42.23974794849806" lon="12.931078051115344"><ele>554.0</ele><time>2026-04-30T18:45:49.999Z</time></trkpt><trkpt lat="42.23978091072198" lon="12.930947001276719"><ele>554.0</ele><time>2026-04-30T18:45:50.999Z</time></trkpt><trkpt lat="42.23981472369219" lon="12.930835158741361"><ele>554.0</ele><time>2026-04-30T18:45:51.999Z</time></trkpt><trkpt lat="42.23985514077747" lon="12.930746403415835"><ele>554.0</ele><time>2026-04-30T18:45:52.999Z</time></trkpt><trkpt lat="42.239910631916345" lon="12.93068801807385"><ele>554.0</ele><time>2026-04-30T18:45:53.999Z</time></trkpt><trkpt lat="42.239984618812" lon="12.930659953869664"><ele>554.0</ele><time>2026-04-30T18:45:54.999Z</time></trkpt><trkpt lat="42.24006428931959" lon="12.930675446588609"><ele>554.0</ele><time>2026-04-30T18:45:55.999Z</time></trkpt><trkpt lat="42.240140411494004" lon="12.930714742612066"><ele>554.0</ele><time>2026-04-30T18:45:56.999Z</time></trkpt><trkpt lat="42.240207317768366" lon="12.930765435764307"><ele>554.0</ele><time>2026-04-30T18:45:57.999Z</time></trkpt><trkpt lat="42.24025316532414" lon="12.930851360649985"><ele>554.0</ele><time>2026-04-30T18:45:58.999Z</time></trkpt><trkpt lat="42.24024765395916" lon="12.930960435874267"><ele>554.0</ele><time>2026-04-30T18:45:59.999Z</time></trkpt><trkpt lat="42.24024947967153" lon="12.931071056423812"><ele>554.0</ele><time>2026-04-30T18:46:00.999Z</time></trkpt><trkpt lat="42.24025441697953" lon="12.931185296494435"><ele>554.0</ele><time>2026-04-30T18:46:01.999Z</time></trkpt><trkpt lat="42.24024913865196" lon="12.931302151675792"><ele>554.0</ele><time>2026-04-30T18:46:02.999Z</time></trkpt><trkpt lat="42.24025058469731" lon="12.931415649413584"><ele>554.0</ele><time>2026-04-30T18:46:03.999Z</time></trkpt><trkpt lat="42.24026098345627" lon="12.931522335001162"><ele>554.0</ele><time>2026-04-30T18:46:04.999Z</time></trkpt><trkpt lat="42.24026715982351" lon="12.93161773720625"><ele>554.0</ele><time>2026-04-30T18:46:05.999Z</time></trkpt><trkpt lat="42.240335520651" lon="12.931655741110893"><ele>554.0</ele><time>2026-04-30T18:46:06.999Z</time></trkpt><trkpt lat="42.24045953703794" lon="12.931646603122937"><ele>554.0</ele><time>2026-04-30T18:46:08.999Z</time></trkpt><trkpt lat="42.24051197638956" lon="12.931595040441684"><ele>554.0</ele><time>2026-04-30T18:46:09.999Z</time></trkpt><trkpt lat="42.240560647324195" lon="12.931514138189026"><ele>554.0</ele><time>2026-04-30T18:46:11.999Z</time></trkpt><trkpt lat="42.240617835111195" lon="12.931471637445126"><ele>554.0</ele><time>2026-04-30T18:46:14.998Z</time></trkpt><trkpt lat="42.24061868854521" lon="12.931609972425246"><ele>554.0</ele><time>2026-04-30T18:46:17.998Z</time></trkpt><trkpt lat="42.240581423076556" lon="12.931711444920616"><ele>553.8571428571429</ele><time>2026-04-30T18:46:19.998Z</time></trkpt><trkpt lat="42.240573505702336" lon="12.931822187997364"><ele>553.7142857142857</ele><time>2026-04-30T18:46:21.998Z</time></trkpt><trkpt lat="42.24055758107426" lon="12.931924834536488"><ele>553.5714285714286</ele><time>2026-04-30T18:46:23.998Z</time></trkpt><trkpt lat="42.24053654832822" lon="12.932010130843329"><ele>553.4285714285714</ele><time>2026-04-30T18:46:25.998Z</time></trkpt><trkpt lat="42.24051050185728" lon="12.932090815968937"><ele>553.2857142857142</ele><time>2026-04-30T18:46:28.998Z</time></trkpt><trkpt lat="42.24053740999761" lon="12.932006963420994"><ele>553.1428571428571</ele><time>2026-04-30T18:46:41.998Z</time></trkpt><trkpt lat="42.24056235734241" lon="12.931901918351773"><ele>553.0</ele><time>2026-04-30T18:46:44.998Z</time></trkpt><trkpt lat="42.24057645613082" lon="12.931779011371088"><ele>553.1999999999999</ele><time>2026-04-30T18:46:46.998Z</time></trkpt><trkpt lat="42.24058731814604" lon="12.931671068211992"><ele>553.4</ele><time>2026-04-30T18:46:48.998Z</time></trkpt><trkpt lat="42.2406037484158" lon="12.93157230821988"><ele>553.5999999999999</ele><time>2026-04-30T18:46:51.998Z</time></trkpt><trkpt lat="42.240615430280975" lon="12.931440104296845"><ele>553.8</ele><time>2026-04-30T18:47:06Z</time></trkpt><trkpt lat="42.24060844234041" lon="12.931295214261967"><ele>554.0</ele><time>2026-04-30T18:47:08Z</time></trkpt><trkpt lat="42.240765285363636" lon="12.931109306887256"><ele>553.3333333333333</ele><time>2026-04-30T18:47:10Z</time></trkpt><trkpt lat="42.24084058724976" lon="12.931061852196438"><ele>552.6666666666666</ele><time>2026-04-30T18:47:11Z</time></trkpt><trkpt lat="42.24091062866311" lon="12.931035505341299"><ele>552.0</ele><time>2026-04-30T18:47:12Z</time></trkpt><trkpt lat="42.240974227401885" lon="12.93101335965721"><ele>551.3333333333334</ele><time>2026-04-30T18:47:13Z</time></trkpt><trkpt lat="42.241089434645104" lon="12.930975719861411"><ele>550.6666666666667</ele><time>2026-04-30T18:47:15Z</time></trkpt><trkpt lat="42.241154077865744" lon="12.93095582378698"><ele>550.0</ele><time>2026-04-30T18:47:16Z</time></trkpt><trkpt lat="42.241219854262596" lon="12.930930655866796"><ele>550.0</ele><time>2026-04-30T18:47:17Z</time></trkpt><trkpt lat="42.24128577385834" lon="12.930904881008816"><ele>550.0</ele><time>2026-04-30T18:47:18Z</time></trkpt><trkpt lat="42.24135178825687" lon="12.930876455497906"><ele>550.0</ele><time>2026-04-30T18:47:19Z</time></trkpt><trkpt lat="42.2414172155801" lon="12.930843825277554"><ele>550.0</ele><time>2026-04-30T18:47:20Z</time></trkpt><trkpt lat="42.24150660738062" lon="12.930797126626027"><ele>550.0</ele><time>2026-04-30T18:47:21.999Z</time></trkpt><trkpt lat="42.241565948675884" lon="12.93076418530785"><ele>550.0</ele><time>2026-04-30T18:47:25.999Z</time></trkpt><trkpt lat="42.24150210288277" lon="12.930775333263304"><ele>550.0</ele><time>2026-04-30T18:47:33.999Z</time></trkpt><trkpt lat="42.24138303719091" lon="12.93084032323766"><ele>550.0</ele><time>2026-04-30T18:47:35.999Z</time></trkpt><trkpt lat="42.24132906226236" lon="12.930888292152916"><ele>550.0</ele><time>2026-04-30T18:47:36.999Z</time></trkpt><trkpt lat="42.24125214639096" lon="12.930922003005376"><ele>550.0</ele><time>2026-04-30T18:47:37.999Z</time></trkpt><trkpt lat="42.241181137641725" lon="12.930951013074473"><ele>550.0</ele><time>2026-04-30T18:47:38.999Z</time></trkpt><trkpt lat="42.24111614463423" lon="12.930970987683386"><ele>550.0</ele><time>2026-04-30T18:47:39.999Z</time></trkpt><trkpt lat="42.24102922061805" lon="12.931001612503557"><ele>550.0</ele><time>2026-04-30T18:47:40.999Z</time></trkpt><trkpt lat="42.240950159793776" lon="12.931025840516723"><ele>550.0</ele><time>2026-04-30T18:47:41.999Z</time></trkpt><trkpt lat="42.24086701264289" lon="12.931032533293088"><ele>550.0</ele><time>2026-04-30T18:47:42.999Z</time></trkpt><trkpt lat="42.24079156262664" lon="12.931076275602123"><ele>550.0</ele><time>2026-04-30T18:47:43.999Z</time></trkpt><trkpt lat="42.240726045552606" lon="12.931136029045136"><ele>550.0</ele><time>2026-04-30T18:47:44.999Z</time></trkpt><trkpt lat="42.24067430292678" lon="12.931210016880582"><ele>550.0</ele><time>2026-04-30T18:47:45.999Z</time></trkpt><trkpt lat="42.240635180000204" lon="12.931286462827229"><ele>550.0</ele><time>2026-04-30T18:47:46.999Z</time></trkpt><trkpt lat="42.24060101947292" lon="12.931366884355215"><ele>550.4285714285714</ele><time>2026-04-30T18:47:47.999Z</time></trkpt><trkpt lat="42.24056620840015" lon="12.93144520602076"><ele>550.8571428571429</ele><time>2026-04-30T18:47:48.999Z</time></trkpt><trkpt lat="42.24052866299926" lon="12.931515453932613"><ele>551.2857142857142</ele><time>2026-04-30T18:47:49.999Z</time></trkpt><trkpt lat="42.24051975689663" lon="12.931601579643717"><ele>551.7142857142858</ele><time>2026-04-30T18:47:50.999Z</time></trkpt><trkpt lat="42.2404749785117" lon="12.931708089123177"><ele>552.1428571428571</ele><time>2026-04-30T18:47:52.999Z</time></trkpt><trkpt lat="42.24042001576448" lon="12.931766681990439"><ele>552.5714285714286</ele><time>2026-04-30T18:47:54.999Z</time></trkpt><trkpt lat="42.24035730829955" lon="12.931792122887924"><ele>553.0</ele><time>2026-04-30T18:47:56.999Z</time></trkpt><trkpt lat="42.24028626393356" lon="12.931700409658"><ele>553.0</ele><time>2026-04-30T18:47:58.999Z</time></trkpt><trkpt lat="42.24034163759673" lon="12.931749112697542"><ele>553.0</ele><time>2026-04-30T18:48:20.998Z</time></trkpt><trkpt lat="42.240191426869835" lon="12.932282897163839"><ele>553.0</ele><time>2026-04-30T18:48:27.998Z</time></trkpt><trkpt lat="42.24016388654698" lon="12.932367344372341"><ele>553.0</ele><time>2026-04-30T18:52:38.998Z</time></trkpt><trkpt lat="42.240193337107755" lon="12.932452747780827"><ele>553.0</ele><time>2026-04-30T18:54:01.999Z</time></trkpt><trkpt lat="42.2401413729469" lon="12.932385447582098"><ele>553.0</ele><time>2026-04-30T18:56:23.999Z</time></trkpt><trkpt lat="42.2401570189467" lon="12.93230018400995"><ele>553.0</ele><time>2026-04-30T18:56:29.999Z</time></trkpt><trkpt lat="42.24017095573315" lon="12.932391363517706"><ele>553.0</ele><time>2026-04-30T18:57:17.998Z</time></trkpt><trkpt lat="42.24021123259225" lon="12.932483300146902"><ele>553.0</ele><time>2026-04-30T18:57:54.999Z</time></trkpt><trkpt lat="42.24026376609834" lon="12.93254910490541"><ele>553.0</ele><time>2026-04-30T19:01:46Z</time></trkpt><trkpt lat="42.240278051688634" lon="12.932445229386026"><ele>553.0</ele><time>2026-04-30T19:02:26.999Z</time></trkpt></trkseg></trk></gpx>